<?xml version='1.0' encoding='UTF-8'?><gpx version="1.1" creator="JPX - https://github.com/jenetics/jpx" xmlns="http://www.topografix.com/GPX/1/1"><trk><trkseg><trkpt lat="44.506262" lon="10.6946626"><ele>404.8333333333333</ele><time>2026-04-04T07:40:02.955Z</time></trkpt><trkpt lat="44.5062165" lon="10.6945625"><ele>405.66666666666663</ele><time>2026-04-04T07:40:04.954Z</time></trkpt><trkpt lat="44.5061887" lon="10.6944367"><ele>406.5</ele><time>2026-04-04T07:40:06.957Z</time></trkpt><trkpt lat="44.5061521" lon="10.6942954"><ele>407.33333333333337</ele><time>2026-04-04T07:40:08.957Z</time></trkpt><trkpt lat="44.5061275" lon="10.6942053"><ele>408.1666666666667</ele><time>2026-04-04T07:40:09.957Z</time></trkpt><trkpt lat="44.5061017" lon="10.6941039"><ele>409.0</ele><time>2026-04-04T07:40:10.957Z</time></trkpt><trkpt lat="44.506072" lon="10.6939999"><ele>409.00000000000006</ele><time>2026-04-04T07:40:11.957Z</time></trkpt><trkpt lat="44.5060369" lon="10.6938843"><ele>409.0</ele><time>2026-04-04T07:40:12.957Z</time></trkpt><trkpt lat="44.5060028" lon="10.6937651"><ele>409.0</ele><time>2026-04-04T07:40:13.957Z</time></trkpt><trkpt lat="44.5059741" lon="10.6936519"><ele>409.0</ele><time>2026-04-04T07:40:14.957Z</time></trkpt><trkpt lat="44.5059654" lon="10.6935495"><ele>409.00000000000006</ele><time>2026-04-04T07:40:15.957Z</time></trkpt><trkpt lat="44.5059656" lon="10.6934594"><ele>409.0</ele><time>2026-04-04T07:40:16.957Z</time></trkpt><trkpt lat="44.5059677" lon="10.6933606"><ele>409.2</ele><time>2026-04-04T07:40:17.957Z</time></trkpt><trkpt lat="44.5059732" lon="10.6932425"><ele>409.4</ele><time>2026-04-04T07:40:18.957Z</time></trkpt><trkpt lat="44.5059827" lon="10.6931214"><ele>409.6</ele><time>2026-04-04T07:40:19.956Z</time></trkpt><trkpt lat="44.5059896" lon="10.6929932"><ele>409.8</ele><time>2026-04-04T07:40:20.957Z</time></trkpt><trkpt lat="44.5059898" lon="10.6928511"><ele>410.0</ele><time>2026-04-04T07:40:21.957Z</time></trkpt><trkpt lat="44.5059769" lon="10.6926913"><ele>409.5</ele><time>2026-04-04T07:40:22.957Z</time></trkpt><trkpt lat="44.5059557" lon="10.6925337"><ele>409.0</ele><time>2026-04-04T07:40:23.957Z</time></trkpt><trkpt lat="44.5059194" lon="10.6923758"><ele>408.5</ele><time>2026-04-04T07:40:24.956Z</time></trkpt><trkpt lat="44.5058723" lon="10.6922121"><ele>408.0</ele><time>2026-04-04T07:40:25.957Z</time></trkpt><trkpt lat="44.5058203" lon="10.6920467"><ele>408.25</ele><time>2026-04-04T07:40:26.956Z</time></trkpt><trkpt lat="44.5057643" lon="10.6918804"><ele>408.5</ele><time>2026-04-04T07:40:27.957Z</time></trkpt><trkpt lat="44.5057102" lon="10.6917158"><ele>408.75</ele><time>2026-04-04T07:40:28.957Z</time></trkpt><trkpt lat="44.5056607" lon="10.6915621"><ele>409.0</ele><time>2026-04-04T07:40:29.957Z</time></trkpt><trkpt lat="44.5056174" lon="10.6914125"><ele>409.0</ele><time>2026-04-04T07:40:30.957Z</time></trkpt><trkpt lat="44.5055764" lon="10.6912592"><ele>409.0</ele><time>2026-04-04T07:40:31.956Z</time></trkpt><trkpt lat="44.5055428" lon="10.691097"><ele>409.0</ele><time>2026-04-04T07:40:32.957Z</time></trkpt><trkpt lat="44.5055132" lon="10.6909291"><ele>409.0</ele><time>2026-04-04T07:40:33.956Z</time></trkpt><trkpt lat="44.505489" lon="10.6907538"><ele>407.75</ele><time>2026-04-04T07:40:34.957Z</time></trkpt><trkpt lat="44.5054696" lon="10.6905749"><ele>406.5</ele><time>2026-04-04T07:40:35.957Z</time></trkpt><trkpt lat="44.5054551" lon="10.6903895"><ele>405.25</ele><time>2026-04-04T07:40:36.956Z</time></trkpt><trkpt lat="44.5054419" lon="10.6902111"><ele>404.0</ele><time>2026-04-04T07:40:37.956Z</time></trkpt><trkpt lat="44.5054127" lon="10.6900458"><ele>404.0</ele><time>2026-04-04T07:40:38.957Z</time></trkpt><trkpt lat="44.5053471" lon="10.6899036"><ele>404.0</ele><time>2026-04-04T07:40:39.956Z</time></trkpt><trkpt lat="44.5052781" lon="10.6897838"><ele>404.0</ele><time>2026-04-04T07:40:40.957Z</time></trkpt><trkpt lat="44.5052065" lon="10.6896849"><ele>404.0</ele><time>2026-04-04T07:40:41.957Z</time></trkpt><trkpt lat="44.5051476" lon="10.6895683"><ele>404.0</ele><time>2026-04-04T07:40:42.957Z</time></trkpt><trkpt lat="44.5050996" lon="10.6894412"><ele>404.6</ele><time>2026-04-04T07:40:43.957Z</time></trkpt><trkpt lat="44.5050544" lon="10.689313"><ele>405.2</ele><time>2026-04-04T07:40:44.957Z</time></trkpt><trkpt lat="44.5050007" lon="10.6891853"><ele>405.8</ele><time>2026-04-04T07:40:45.957Z</time></trkpt><trkpt lat="44.5049421" lon="10.6890736"><ele>406.40000000000003</ele><time>2026-04-04T07:40:46.957Z</time></trkpt><trkpt lat="44.5048702" lon="10.6889791"><ele>407.0</ele><time>2026-04-04T07:40:47.957Z</time></trkpt><trkpt lat="44.504801" lon="10.6889089"><ele>406.99999999999994</ele><time>2026-04-04T07:40:48.956Z</time></trkpt><trkpt lat="44.5047269" lon="10.688852"><ele>407.0</ele><time>2026-04-04T07:40:49.957Z</time></trkpt><trkpt lat="44.5046524" lon="10.6888187"><ele>407.0</ele><time>2026-04-04T07:40:50.956Z</time></trkpt><trkpt lat="44.5045755" lon="10.6888064"><ele>407.0</ele><time>2026-04-04T07:40:51.957Z</time></trkpt><trkpt lat="44.5045121" lon="10.6888302"><ele>406.99999999999994</ele><time>2026-04-04T07:40:52.956Z</time></trkpt><trkpt lat="44.5044223" lon="10.6889294"><ele>407.0</ele><time>2026-04-04T07:40:54.956Z</time></trkpt><trkpt lat="44.5043689" lon="10.6890809"><ele>406.66666666666663</ele><time>2026-04-04T07:40:56.956Z</time></trkpt><trkpt lat="44.504344" lon="10.6891712"><ele>406.3333333333333</ele><time>2026-04-04T07:40:57.956Z</time></trkpt><trkpt lat="44.5043136" lon="10.6892729"><ele>406.0</ele><time>2026-04-04T07:40:58.956Z</time></trkpt><trkpt lat="44.5042823" lon="10.6893807"><ele>405.66666666666663</ele><time>2026-04-04T07:40:59.957Z</time></trkpt><trkpt lat="44.5042335" lon="10.6894965"><ele>405.3333333333333</ele><time>2026-04-04T07:41:00.956Z</time></trkpt><trkpt lat="44.504172" lon="10.6896005"><ele>405.0</ele><time>2026-04-04T07:41:01.957Z</time></trkpt><trkpt lat="44.5041085" lon="10.689701"><ele>403.0</ele><time>2026-04-04T07:41:02.957Z</time></trkpt><trkpt lat="44.5040461" lon="10.6898152"><ele>401.0</ele><time>2026-04-04T07:41:03.957Z</time></trkpt><trkpt lat="44.5039856" lon="10.6899232"><ele>399.0</ele><time>2026-04-04T07:41:04.957Z</time></trkpt><trkpt lat="44.5039228" lon="10.6900427"><ele>397.0</ele><time>2026-04-04T07:41:05.957Z</time></trkpt><trkpt lat="44.5038631" lon="10.6901707"><ele>395.0</ele><time>2026-04-04T07:41:06.957Z</time></trkpt><trkpt lat="44.5038016" lon="10.690295"><ele>392.0</ele><time>2026-04-04T07:41:07.956Z</time></trkpt><trkpt lat="44.5037263" lon="10.6903983"><ele>389.0</ele><time>2026-04-04T07:41:08.956Z</time></trkpt><trkpt lat="44.5036452" lon="10.690506"><ele>386.0</ele><time>2026-04-04T07:41:09.957Z</time></trkpt><trkpt lat="44.5035744" lon="10.6906328"><ele>383.0</ele><time>2026-04-04T07:41:10.957Z</time></trkpt><trkpt lat="44.5035112" lon="10.6907628"><ele>380.0</ele><time>2026-04-04T07:41:11.957Z</time></trkpt><trkpt lat="44.5034423" lon="10.6908901"><ele>380.0</ele><time>2026-04-04T07:41:12.956Z</time></trkpt><trkpt lat="44.5033688" lon="10.6910028"><ele>380.0</ele><time>2026-04-04T07:41:13.956Z</time></trkpt><trkpt lat="44.5032883" lon="10.6911027"><ele>380.0</ele><time>2026-04-04T07:41:14.957Z</time></trkpt><trkpt lat="44.5031952" lon="10.6911954"><ele>380.0</ele><time>2026-04-04T07:41:15.957Z</time></trkpt><trkpt lat="44.5030943" lon="10.6912765"><ele>380.0</ele><time>2026-04-04T07:41:16.957Z</time></trkpt><trkpt lat="44.5029879" lon="10.6913586"><ele>377.0</ele><time>2026-04-04T07:41:17.956Z</time></trkpt><trkpt lat="44.5028796" lon="10.6914327"><ele>374.0</ele><time>2026-04-04T07:41:18.957Z</time></trkpt><trkpt lat="44.5027667" lon="10.691496"><ele>371.0</ele><time>2026-04-04T07:41:19.957Z</time></trkpt><trkpt lat="44.5026616" lon="10.6915591"><ele>368.0</ele><time>2026-04-04T07:41:20.957Z</time></trkpt><trkpt lat="44.5025615" lon="10.691629"><ele>368.0</ele><time>2026-04-04T07:41:21.957Z</time></trkpt><trkpt lat="44.5024631" lon="10.6916966"><ele>368.0</ele><time>2026-04-04T07:41:22.956Z</time></trkpt><trkpt lat="44.5023707" lon="10.6917233"><ele>368.0</ele><time>2026-04-04T07:41:23.956Z</time></trkpt><trkpt lat="44.5022759" lon="10.6917137"><ele>368.0</ele><time>2026-04-04T07:41:24.956Z</time></trkpt><trkpt lat="44.5021842" lon="10.6916953"><ele>368.0</ele><time>2026-04-04T07:41:25.956Z</time></trkpt><trkpt lat="44.502095" lon="10.6916711"><ele>368.0</ele><time>2026-04-04T07:41:26.957Z</time></trkpt><trkpt lat="44.5020025" lon="10.6916357"><ele>368.0</ele><time>2026-04-04T07:41:27.957Z</time></trkpt><trkpt lat="44.5019139" lon="10.6916059"><ele>368.0</ele><time>2026-04-04T07:41:28.956Z</time></trkpt><trkpt lat="44.501821" lon="10.6915829"><ele>368.0</ele><time>2026-04-04T07:41:29.957Z</time></trkpt><trkpt lat="44.501722" lon="10.6915463"><ele>368.0</ele><time>2026-04-04T07:41:30.956Z</time></trkpt><trkpt lat="44.5016229" lon="10.691506"><ele>368.0</ele><time>2026-04-04T07:41:31.957Z</time></trkpt><trkpt lat="44.5015225" lon="10.6915106"><ele>368.0</ele><time>2026-04-04T07:41:32.957Z</time></trkpt><trkpt lat="44.5014349" lon="10.691526"><ele>368.0</ele><time>2026-04-04T07:41:33.956Z</time></trkpt><trkpt lat="44.5013488" lon="10.6915523"><ele>368.0</ele><time>2026-04-04T07:41:34.956Z</time></trkpt><trkpt lat="44.5012529" lon="10.6915886"><ele>368.0</ele><time>2026-04-04T07:41:35.957Z</time></trkpt><trkpt lat="44.5011621" lon="10.6916288"><ele>367.0</ele><time>2026-04-04T07:41:36.957Z</time></trkpt><trkpt lat="44.5010718" lon="10.6916605"><ele>366.0</ele><time>2026-04-04T07:41:37.956Z</time></trkpt><trkpt lat="44.5009932" lon="10.6916851"><ele>365.0</ele><time>2026-04-04T07:41:38.957Z</time></trkpt><trkpt lat="44.5009191" lon="10.6917061"><ele>364.0</ele><time>2026-04-04T07:41:39.957Z</time></trkpt><trkpt lat="44.5008512" lon="10.6917214"><ele>363.0</ele><time>2026-04-04T07:41:40.957Z</time></trkpt><trkpt lat="44.5007671" lon="10.6917404"><ele>362.0</ele><time>2026-04-04T07:41:41.956Z</time></trkpt><trkpt lat="44.5006925" lon="10.6917671"><ele>362.0</ele><time>2026-04-04T07:41:42.957Z</time></trkpt><trkpt lat="44.5006247" lon="10.6918017"><ele>362.0</ele><time>2026-04-04T07:41:43.957Z</time></trkpt><trkpt lat="44.5005567" lon="10.6918558"><ele>362.0</ele><time>2026-04-04T07:41:44.957Z</time></trkpt><trkpt lat="44.500507" lon="10.691928"><ele>362.0</ele><time>2026-04-04T07:41:45.957Z</time></trkpt><trkpt lat="44.5004772" lon="10.6920297"><ele>362.0</ele><time>2026-04-04T07:41:46.957Z</time></trkpt><trkpt lat="44.5004547" lon="10.6921349"><ele>362.0</ele><time>2026-04-04T07:41:47.957Z</time></trkpt><trkpt lat="44.5004316" lon="10.692234"><ele>360.0</ele><time>2026-04-04T07:41:48.956Z</time></trkpt><trkpt lat="44.5003991" lon="10.6923309"><ele>358.0</ele><time>2026-04-04T07:41:49.957Z</time></trkpt><trkpt lat="44.5003628" lon="10.6924136"><ele>356.0</ele><time>2026-04-04T07:41:50.956Z</time></trkpt><trkpt lat="44.5003078" lon="10.692563"><ele>354.0</ele><time>2026-04-04T07:41:52.957Z</time></trkpt><trkpt lat="44.5002909" lon="10.6926543"><ele>352.0</ele><time>2026-04-04T07:41:53.956Z</time></trkpt><trkpt lat="44.5002468" lon="10.6927666"><ele>350.0</ele><time>2026-04-04T07:41:54.957Z</time></trkpt><trkpt lat="44.5001788" lon="10.6928409"><ele>350.0</ele><time>2026-04-04T07:41:55.956Z</time></trkpt><trkpt lat="44.5000958" lon="10.6929032"><ele>350.0</ele><time>2026-04-04T07:41:56.957Z</time></trkpt><trkpt lat="44.5000065" lon="10.6929777"><ele>350.0</ele><time>2026-04-04T07:41:57.957Z</time></trkpt><trkpt lat="44.4999151" lon="10.6930511"><ele>350.0</ele><time>2026-04-04T07:41:58.957Z</time></trkpt><trkpt lat="44.499813" lon="10.6931177"><ele>350.0</ele><time>2026-04-04T07:41:59.957Z</time></trkpt><trkpt lat="44.4997209" lon="10.6931876"><ele>350.0</ele><time>2026-04-04T07:42:00.957Z</time></trkpt><trkpt lat="44.4996202" lon="10.6932624"><ele>350.0</ele><time>2026-04-04T07:42:01.957Z</time></trkpt><trkpt lat="44.4995198" lon="10.6933415"><ele>350.0</ele><time>2026-04-04T07:42:02.957Z</time></trkpt><trkpt lat="44.4994213" lon="10.6934165"><ele>350.0</ele><time>2026-04-04T07:42:03.957Z</time></trkpt><trkpt lat="44.4993316" lon="10.6935005"><ele>350.0</ele><time>2026-04-04T07:42:04.957Z</time></trkpt><trkpt lat="44.4992479" lon="10.693592"><ele>348.8</ele><time>2026-04-04T07:42:05.956Z</time></trkpt><trkpt lat="44.4991697" lon="10.6936877"><ele>347.6</ele><time>2026-04-04T07:42:06.957Z</time></trkpt><trkpt lat="44.4990877" lon="10.6937785"><ele>346.4</ele><time>2026-04-04T07:42:07.957Z</time></trkpt><trkpt lat="44.4989948" lon="10.6938608"><ele>345.2</ele><time>2026-04-04T07:42:08.957Z</time></trkpt><trkpt lat="44.4988923" lon="10.6939124"><ele>344.0</ele><time>2026-04-04T07:42:09.956Z</time></trkpt><trkpt lat="44.4987946" lon="10.6939443"><ele>342.83333333333337</ele><time>2026-04-04T07:42:10.956Z</time></trkpt><trkpt lat="44.4987122" lon="10.693982"><ele>341.6666666666667</ele><time>2026-04-04T07:42:11.957Z</time></trkpt><trkpt lat="44.4986311" lon="10.6940284"><ele>340.5</ele><time>2026-04-04T07:42:12.956Z</time></trkpt><trkpt lat="44.4985528" lon="10.6940794"><ele>339.3333333333333</ele><time>2026-04-04T07:42:13.957Z</time></trkpt><trkpt lat="44.4984782" lon="10.6941408"><ele>338.16666666666663</ele><time>2026-04-04T07:42:14.957Z</time></trkpt><trkpt lat="44.498409" lon="10.6942155"><ele>337.0</ele><time>2026-04-04T07:42:15.957Z</time></trkpt><trkpt lat="44.4983483" lon="10.6943066"><ele>337.0</ele><time>2026-04-04T07:42:16.957Z</time></trkpt><trkpt lat="44.4982986" lon="10.6944155"><ele>337.0</ele><time>2026-04-04T07:42:17.956Z</time></trkpt><trkpt lat="44.498249" lon="10.6945418"><ele>337.0</ele><time>2026-04-04T07:42:18.957Z</time></trkpt><trkpt lat="44.4982093" lon="10.6946615"><ele>337.0</ele><time>2026-04-04T07:42:19.957Z</time></trkpt><trkpt lat="44.4981545" lon="10.6947868"><ele>337.0</ele><time>2026-04-04T07:42:20.956Z</time></trkpt><trkpt lat="44.498088" lon="10.6948842"><ele>335.3333333333333</ele><time>2026-04-04T07:42:21.957Z</time></trkpt><trkpt lat="44.4980081" lon="10.6949475"><ele>333.66666666666663</ele><time>2026-04-04T07:42:22.957Z</time></trkpt><trkpt lat="44.4979277" lon="10.6949828"><ele>332.0</ele><time>2026-04-04T07:42:23.956Z</time></trkpt><trkpt lat="44.497845" lon="10.6949997"><ele>330.3333333333333</ele><time>2026-04-04T07:42:24.956Z</time></trkpt><trkpt lat="44.4977679" lon="10.694992"><ele>328.6666666666667</ele><time>2026-04-04T07:42:25.957Z</time></trkpt><trkpt lat="44.4976775" lon="10.6949815"><ele>327.0</ele><time>2026-04-04T07:42:26.956Z</time></trkpt><trkpt lat="44.4975876" lon="10.6949799"><ele>326.1666666666667</ele><time>2026-04-04T07:42:27.957Z</time></trkpt><trkpt lat="44.4974982" lon="10.6949919"><ele>325.3333333333333</ele><time>2026-04-04T07:42:28.957Z</time></trkpt><trkpt lat="44.4974223" lon="10.6950387"><ele>324.5</ele><time>2026-04-04T07:42:29.956Z</time></trkpt><trkpt lat="44.4973457" lon="10.6950918"><ele>323.66666666666663</ele><time>2026-04-04T07:42:30.957Z</time></trkpt><trkpt lat="44.4972694" lon="10.6951669"><ele>322.8333333333333</ele><time>2026-04-04T07:42:31.956Z</time></trkpt><trkpt lat="44.4972076" lon="10.695256"><ele>322.0</ele><time>2026-04-04T07:42:32.957Z</time></trkpt><trkpt lat="44.4971466" lon="10.6953401"><ele>319.40000000000003</ele><time>2026-04-04T07:42:33.957Z</time></trkpt><trkpt lat="44.497089" lon="10.6954131"><ele>316.8</ele><time>2026-04-04T07:42:34.956Z</time></trkpt><trkpt lat="44.4970192" lon="10.6954924"><ele>314.2</ele><time>2026-04-04T07:42:35.957Z</time></trkpt><trkpt lat="44.4969392" lon="10.6955725"><ele>311.6</ele><time>2026-04-04T07:42:36.957Z</time></trkpt><trkpt lat="44.4968494" lon="10.6956456"><ele>309.0</ele><time>2026-04-04T07:42:37.957Z</time></trkpt><trkpt lat="44.4967521" lon="10.6956941"><ele>309.0</ele><time>2026-04-04T07:42:38.957Z</time></trkpt><trkpt lat="44.4966629" lon="10.6957206"><ele>309.0</ele><time>2026-04-04T07:42:39.957Z</time></trkpt><trkpt lat="44.4965756" lon="10.6957295"><ele>309.0</ele><time>2026-04-04T07:42:40.956Z</time></trkpt><trkpt lat="44.4964876" lon="10.6957291"><ele>309.0</ele><time>2026-04-04T07:42:41.956Z</time></trkpt><trkpt lat="44.4963917" lon="10.6957535"><ele>309.0</ele><time>2026-04-04T07:42:42.957Z</time></trkpt><trkpt lat="44.4962895" lon="10.6957845"><ele>305.4</ele><time>2026-04-04T07:42:43.957Z</time></trkpt><trkpt lat="44.4961999" lon="10.6958218"><ele>301.79999999999995</ele><time>2026-04-04T07:42:44.957Z</time></trkpt><trkpt lat="44.4961138" lon="10.6958478"><ele>298.20000000000005</ele><time>2026-04-04T07:42:45.957Z</time></trkpt><trkpt lat="44.4960203" lon="10.6958529"><ele>294.6</ele><time>2026-04-04T07:42:46.956Z</time></trkpt><trkpt lat="44.4959224" lon="10.6958257"><ele>291.0</ele><time>2026-04-04T07:42:47.957Z</time></trkpt><trkpt lat="44.495838" lon="10.6957849"><ele>291.0</ele><time>2026-04-04T07:42:48.957Z</time></trkpt><trkpt lat="44.4957617" lon="10.6957461"><ele>291.0</ele><time>2026-04-04T07:42:49.957Z</time></trkpt><trkpt lat="44.4956915" lon="10.6957058"><ele>291.0</ele><time>2026-04-04T07:42:50.957Z</time></trkpt><trkpt lat="44.4956179" lon="10.6956653"><ele>291.0</ele><time>2026-04-04T07:42:51.957Z</time></trkpt><trkpt lat="44.4955442" lon="10.6956301"><ele>291.0</ele><time>2026-04-04T07:42:52.957Z</time></trkpt><trkpt lat="44.4954647" lon="10.6955974"><ele>291.0</ele><time>2026-04-04T07:42:53.957Z</time></trkpt><trkpt lat="44.4953726" lon="10.695575"><ele>286.8</ele><time>2026-04-04T07:42:54.957Z</time></trkpt><trkpt lat="44.495272" lon="10.6955468"><ele>282.6</ele><time>2026-04-04T07:42:55.956Z</time></trkpt><trkpt lat="44.4951614" lon="10.6955184"><ele>278.4</ele><time>2026-04-04T07:42:56.957Z</time></trkpt><trkpt lat="44.4950516" lon="10.6954856"><ele>274.2</ele><time>2026-04-04T07:42:57.957Z</time></trkpt><trkpt lat="44.4949421" lon="10.695447"><ele>270.0</ele><time>2026-04-04T07:42:58.956Z</time></trkpt><trkpt lat="44.494833" lon="10.6954009"><ele>270.0</ele><time>2026-04-04T07:42:59.956Z</time></trkpt><trkpt lat="44.4947353" lon="10.695348"><ele>270.0</ele><time>2026-04-04T07:43:00.957Z</time></trkpt><trkpt lat="44.4946378" lon="10.6952945"><ele>270.0</ele><time>2026-04-04T07:43:01.957Z</time></trkpt><trkpt lat="44.4945432" lon="10.6952476"><ele>270.0</ele><time>2026-04-04T07:43:02.956Z</time></trkpt><trkpt lat="44.4944371" lon="10.6952049"><ele>270.0</ele><time>2026-04-04T07:43:03.956Z</time></trkpt><trkpt lat="44.4943373" lon="10.6951791"><ele>267.1666666666667</ele><time>2026-04-04T07:43:04.956Z</time></trkpt><trkpt lat="44.4942454" lon="10.6951688"><ele>264.3333333333333</ele><time>2026-04-04T07:43:05.957Z</time></trkpt><trkpt lat="44.4941669" lon="10.6951507"><ele>261.5</ele><time>2026-04-04T07:43:06.957Z</time></trkpt><trkpt lat="44.4940899" lon="10.6951089"><ele>258.66666666666663</ele><time>2026-04-04T07:43:07.957Z</time></trkpt><trkpt lat="44.4940163" lon="10.6950608"><ele>255.83333333333331</ele><time>2026-04-04T07:43:08.956Z</time></trkpt><trkpt lat="44.4939391" lon="10.6949933"><ele>253.0</ele><time>2026-04-04T07:43:09.956Z</time></trkpt><trkpt lat="44.4938787" lon="10.6949199"><ele>252.99999999999997</ele><time>2026-04-04T07:43:10.957Z</time></trkpt><trkpt lat="44.4938294" lon="10.6948379"><ele>253.0</ele><time>2026-04-04T07:43:11.956Z</time></trkpt><trkpt lat="44.4937623" lon="10.694706"><ele>253.0</ele><time>2026-04-04T07:43:13.957Z</time></trkpt><trkpt lat="44.4937184" lon="10.6946206"><ele>253.0</ele><time>2026-04-04T07:43:14.957Z</time></trkpt><trkpt lat="44.4936666" lon="10.6945369"><ele>252.99999999999997</ele><time>2026-04-04T07:43:15.956Z</time></trkpt><trkpt lat="44.4936111" lon="10.6944587"><ele>253.0</ele><time>2026-04-04T07:43:16.957Z</time></trkpt><trkpt lat="44.4935481" lon="10.69439"><ele>251.33333333333331</ele><time>2026-04-04T07:43:17.956Z</time></trkpt><trkpt lat="44.4934945" lon="10.6943309"><ele>249.66666666666666</ele><time>2026-04-04T07:43:18.957Z</time></trkpt><trkpt lat="44.4933939" lon="10.6942225"><ele>248.0</ele><time>2026-04-04T07:43:20.956Z</time></trkpt><trkpt lat="44.4933376" lon="10.6941593"><ele>246.33333333333331</ele><time>2026-04-04T07:43:21.957Z</time></trkpt><trkpt lat="44.4932884" lon="10.6941009"><ele>244.66666666666666</ele><time>2026-04-04T07:43:22.957Z</time></trkpt><trkpt lat="44.4932469" lon="10.6939724"><ele>243.0</ele><time>2026-04-04T07:43:24.957Z</time></trkpt><trkpt lat="44.4932483" lon="10.6938052"><ele>243.0</ele><time>2026-04-04T07:43:26.957Z</time></trkpt><trkpt lat="44.4932675" lon="10.6937135"><ele>243.0</ele><time>2026-04-04T07:43:27.957Z</time></trkpt><trkpt lat="44.493293" lon="10.6936186"><ele>243.0</ele><time>2026-04-04T07:43:28.957Z</time></trkpt><trkpt lat="44.4933206" lon="10.6935057"><ele>243.0</ele><time>2026-04-04T07:43:29.956Z</time></trkpt><trkpt lat="44.4933407" lon="10.6934008"><ele>243.0</ele><time>2026-04-04T07:43:30.956Z</time></trkpt><trkpt lat="44.4933559" lon="10.6933048"><ele>243.0</ele><time>2026-04-04T07:43:31.956Z</time></trkpt><trkpt lat="44.4933349" lon="10.6931747"><ele>242.33333333333334</ele><time>2026-04-04T07:43:33.957Z</time></trkpt><trkpt lat="44.4932795" lon="10.693118"><ele>241.66666666666669</ele><time>2026-04-04T07:43:35.957Z</time></trkpt><trkpt lat="44.4931804" lon="10.6931903"><ele>241.0</ele><time>2026-04-04T07:43:37.956Z</time></trkpt><trkpt lat="44.4931323" lon="10.6932611"><ele>240.33333333333334</ele><time>2026-04-04T07:43:38.956Z</time></trkpt><trkpt lat="44.4930798" lon="10.6933458"><ele>239.66666666666669</ele><time>2026-04-04T07:43:39.957Z</time></trkpt><trkpt lat="44.4930281" lon="10.6934354"><ele>239.0</ele><time>2026-04-04T07:43:40.956Z</time></trkpt><trkpt lat="44.4929701" lon="10.6934912"><ele>235.79999999999998</ele><time>2026-04-04T07:43:41.957Z</time></trkpt><trkpt lat="44.4929077" lon="10.6935161"><ele>232.59999999999997</ele><time>2026-04-04T07:43:42.957Z</time></trkpt><trkpt lat="44.4927962" lon="10.6934812"><ele>229.4</ele><time>2026-04-04T07:43:44.957Z</time></trkpt><trkpt lat="44.4926916" lon="10.693387"><ele>226.2</ele><time>2026-04-04T07:43:46.956Z</time></trkpt><trkpt lat="44.492625" lon="10.6933383"><ele>223.0</ele><time>2026-04-04T07:43:47.956Z</time></trkpt><trkpt lat="44.4925529" lon="10.6932941"><ele>223.0</ele><time>2026-04-04T07:43:48.956Z</time></trkpt><trkpt lat="44.4924795" lon="10.6932659"><ele>223.0</ele><time>2026-04-04T07:43:49.957Z</time></trkpt><trkpt lat="44.4924063" lon="10.6932459"><ele>223.0</ele><time>2026-04-04T07:43:50.956Z</time></trkpt><trkpt lat="44.4923366" lon="10.6932434"><ele>223.0</ele><time>2026-04-04T07:43:51.956Z</time></trkpt><trkpt lat="44.4922689" lon="10.6932596"><ele>223.0</ele><time>2026-04-04T07:43:52.957Z</time></trkpt><trkpt lat="44.4921973" lon="10.6932785"><ele>223.0</ele><time>2026-04-04T07:43:53.957Z</time></trkpt><trkpt lat="44.4921217" lon="10.6932953"><ele>223.0</ele><time>2026-04-04T07:43:54.957Z</time></trkpt><trkpt lat="44.4920436" lon="10.6933072"><ele>221.16666666666666</ele><time>2026-04-04T07:43:55.957Z</time></trkpt><trkpt lat="44.4919649" lon="10.6933156"><ele>219.33333333333331</ele><time>2026-04-04T07:43:56.956Z</time></trkpt><trkpt lat="44.4918895" lon="10.6933224"><ele>217.5</ele><time>2026-04-04T07:43:57.957Z</time></trkpt><trkpt lat="44.4918266" lon="10.6933264"><ele>215.66666666666669</ele><time>2026-04-04T07:43:58.957Z</time></trkpt><trkpt lat="44.4917089" lon="10.6932926"><ele>213.83333333333334</ele><time>2026-04-04T07:44:00.957Z</time></trkpt><trkpt lat="44.4916137" lon="10.6932147"><ele>212.0</ele><time>2026-04-04T07:44:02.957Z</time></trkpt><trkpt lat="44.4915147" lon="10.6931369"><ele>212.00000000000003</ele><time>2026-04-04T07:44:04.956Z</time></trkpt><trkpt lat="44.4914206" lon="10.6930941"><ele>212.0</ele><time>2026-04-04T07:44:06.957Z</time></trkpt><trkpt lat="44.4913532" lon="10.6930753"><ele>212.0</ele><time>2026-04-04T07:44:08.957Z</time></trkpt><trkpt lat="44.491344" lon="10.6929708"><ele>212.0</ele><time>2026-04-04T07:44:10.957Z</time></trkpt><trkpt lat="44.4914078" lon="10.6928422"><ele>212.00000000000003</ele><time>2026-04-04T07:44:12.957Z</time></trkpt><trkpt lat="44.4914615" lon="10.6927672"><ele>212.0</ele><time>2026-04-04T07:44:13.957Z</time></trkpt><trkpt lat="44.4915158" lon="10.6926797"><ele>211.6</ele><time>2026-04-04T07:44:14.957Z</time></trkpt><trkpt lat="44.4915698" lon="10.6925788"><ele>211.2</ele><time>2026-04-04T07:44:15.957Z</time></trkpt><trkpt lat="44.4916286" lon="10.6924686"><ele>210.8</ele><time>2026-04-04T07:44:16.957Z</time></trkpt><trkpt lat="44.4916888" lon="10.69236"><ele>210.4</ele><time>2026-04-04T07:44:17.956Z</time></trkpt><trkpt lat="44.491752" lon="10.6922554"><ele>210.0</ele><time>2026-04-04T07:44:18.956Z</time></trkpt><trkpt lat="44.4918111" lon="10.6921498"><ele>210.0</ele><time>2026-04-04T07:44:19.957Z</time></trkpt><trkpt lat="44.491856" lon="10.6920342"><ele>210.0</ele><time>2026-04-04T07:44:20.956Z</time></trkpt><trkpt lat="44.491896" lon="10.6919046"><ele>210.0</ele><time>2026-04-04T07:44:21.956Z</time></trkpt><trkpt lat="44.491931" lon="10.6917737"><ele>210.0</ele><time>2026-04-04T07:44:22.957Z</time></trkpt><trkpt lat="44.4919612" lon="10.6916307"><ele>210.0</ele><time>2026-04-04T07:44:23.956Z</time></trkpt><trkpt lat="44.4919901" lon="10.6914734"><ele>211.75</ele><time>2026-04-04T07:44:24.957Z</time></trkpt><trkpt lat="44.4920122" lon="10.6913016"><ele>213.5</ele><time>2026-04-04T07:44:25.957Z</time></trkpt><trkpt lat="44.4920298" lon="10.6911264"><ele>215.25</ele><time>2026-04-04T07:44:26.956Z</time></trkpt><trkpt lat="44.492042" lon="10.6909401"><ele>217.0</ele><time>2026-04-04T07:44:27.957Z</time></trkpt><trkpt lat="44.4920425" lon="10.6907513"><ele>218.75</ele><time>2026-04-04T07:44:28.956Z</time></trkpt><trkpt lat="44.4920274" lon="10.690559"><ele>220.5</ele><time>2026-04-04T07:44:29.957Z</time></trkpt><trkpt lat="44.4920027" lon="10.6903644"><ele>222.25</ele><time>2026-04-04T07:44:30.957Z</time></trkpt><trkpt lat="44.4919615" lon="10.6901743"><ele>224.0</ele><time>2026-04-04T07:44:31.957Z</time></trkpt><trkpt lat="44.4919012" lon="10.6899781"><ele>224.0</ele><time>2026-04-04T07:44:32.957Z</time></trkpt><trkpt lat="44.4918298" lon="10.6897889"><ele>224.0</ele><time>2026-04-04T07:44:33.956Z</time></trkpt><trkpt lat="44.4917504" lon="10.6896005"><ele>224.0</ele><time>2026-04-04T07:44:34.957Z</time></trkpt><trkpt lat="44.4916676" lon="10.6894085"><ele>224.0</ele><time>2026-04-04T07:44:35.957Z</time></trkpt><trkpt lat="44.4915817" lon="10.6892098"><ele>224.0</ele><time>2026-04-04T07:44:36.957Z</time></trkpt><trkpt lat="44.4915002" lon="10.6890042"><ele>224.0</ele><time>2026-04-04T07:44:37.957Z</time></trkpt><trkpt lat="44.4914227" lon="10.6888004"><ele>224.0</ele><time>2026-04-04T07:44:38.956Z</time></trkpt><trkpt lat="44.4913597" lon="10.6885987"><ele>224.0</ele><time>2026-04-04T07:44:39.957Z</time></trkpt><trkpt lat="44.4913085" lon="10.6884095"><ele>224.0</ele><time>2026-04-04T07:44:40.956Z</time></trkpt><trkpt lat="44.4912611" lon="10.6882345"><ele>224.0</ele><time>2026-04-04T07:44:41.957Z</time></trkpt><trkpt lat="44.4912298" lon="10.6880648"><ele>223.83333333333334</ele><time>2026-04-04T07:44:42.957Z</time></trkpt><trkpt lat="44.491213" lon="10.6879126"><ele>223.66666666666669</ele><time>2026-04-04T07:44:43.957Z</time></trkpt><trkpt lat="44.4912098" lon="10.6877843"><ele>223.5</ele><time>2026-04-04T07:44:44.957Z</time></trkpt><trkpt lat="44.4912033" lon="10.6876861"><ele>223.33333333333331</ele><time>2026-04-04T07:44:45.957Z</time></trkpt><trkpt lat="44.4911424" lon="10.6876193"><ele>223.16666666666666</ele><time>2026-04-04T07:44:47.957Z</time></trkpt><trkpt lat="44.4910516" lon="10.6876647"><ele>223.0</ele><time>2026-04-04T07:44:49.957Z</time></trkpt><trkpt lat="44.4909924" lon="10.6877439"><ele>222.66666666666666</ele><time>2026-04-04T07:44:50.957Z</time></trkpt><trkpt lat="44.4909293" lon="10.6878277"><ele>222.33333333333331</ele><time>2026-04-04T07:44:51.957Z</time></trkpt><trkpt lat="44.4908544" lon="10.6878784"><ele>222.0</ele><time>2026-04-04T07:44:52.957Z</time></trkpt><trkpt lat="44.4907883" lon="10.6878982"><ele>221.66666666666669</ele><time>2026-04-04T07:44:53.956Z</time></trkpt><trkpt lat="44.4907111" lon="10.6878985"><ele>221.33333333333334</ele><time>2026-04-04T07:44:54.957Z</time></trkpt><trkpt lat="44.4906236" lon="10.6878919"><ele>221.0</ele><time>2026-04-04T07:44:55.957Z</time></trkpt><trkpt lat="44.4905413" lon="10.6878811"><ele>221.00000000000003</ele><time>2026-04-04T07:44:56.957Z</time></trkpt><trkpt lat="44.4904507" lon="10.6878693"><ele>221.0</ele><time>2026-04-04T07:44:57.956Z</time></trkpt><trkpt lat="44.4903662" lon="10.6878586"><ele>221.0</ele><time>2026-04-04T07:44:58.956Z</time></trkpt><trkpt lat="44.4902994" lon="10.6878558"><ele>221.0</ele><time>2026-04-04T07:44:59.957Z</time></trkpt><trkpt lat="44.4902319" lon="10.6878728"><ele>221.00000000000003</ele><time>2026-04-04T07:45:00.956Z</time></trkpt><trkpt lat="44.490161" lon="10.6878878"><ele>221.0</ele><time>2026-04-04T07:45:01.957Z</time></trkpt><trkpt lat="44.4900828" lon="10.6879023"><ele>219.50000000000003</ele><time>2026-04-04T07:45:02.956Z</time></trkpt><trkpt lat="44.489998" lon="10.6878938"><ele>218.0</ele><time>2026-04-04T07:45:03.957Z</time></trkpt><trkpt lat="44.4899267" lon="10.687846"><ele>216.5</ele><time>2026-04-04T07:45:04.957Z</time></trkpt><trkpt lat="44.4898508" lon="10.6878073"><ele>215.0</ele><time>2026-04-04T07:45:05.956Z</time></trkpt><trkpt lat="44.4897735" lon="10.6877907"><ele>213.50000000000003</ele><time>2026-04-04T07:45:06.956Z</time></trkpt><trkpt lat="44.4896989" lon="10.6878004"><ele>212.0</ele><time>2026-04-04T07:45:07.956Z</time></trkpt><trkpt lat="44.4896276" lon="10.687846"><ele>210.6</ele><time>2026-04-04T07:45:08.956Z</time></trkpt><trkpt lat="44.4895553" lon="10.6879506"><ele>209.2</ele><time>2026-04-04T07:45:10.957Z</time></trkpt><trkpt lat="44.4894631" lon="10.6880451"><ele>207.8</ele><time>2026-04-04T07:45:12.956Z</time></trkpt><trkpt lat="44.4893576" lon="10.6881374"><ele>206.4</ele><time>2026-04-04T07:45:14.956Z</time></trkpt><trkpt lat="44.4892916" lon="10.688193"><ele>205.0</ele><time>2026-04-04T07:45:15.956Z</time></trkpt><trkpt lat="44.4892168" lon="10.6882443"><ele>204.99999999999997</ele><time>2026-04-04T07:45:16.956Z</time></trkpt><trkpt lat="44.4891471" lon="10.6882935"><ele>205.0</ele><time>2026-04-04T07:45:17.956Z</time></trkpt><trkpt lat="44.4890739" lon="10.6883441"><ele>205.0</ele><time>2026-04-04T07:45:18.957Z</time></trkpt><trkpt lat="44.4890072" lon="10.6883629"><ele>205.0</ele><time>2026-04-04T07:45:19.957Z</time></trkpt><trkpt lat="44.4889138" lon="10.6883598"><ele>204.99999999999997</ele><time>2026-04-04T07:45:21.956Z</time></trkpt><trkpt lat="44.4888376" lon="10.6882792"><ele>205.0</ele><time>2026-04-04T07:45:23.957Z</time></trkpt><trkpt lat="44.4888033" lon="10.6882044"><ele>205.0</ele><time>2026-04-04T07:45:24.957Z</time></trkpt><trkpt lat="44.488765" lon="10.6881152"><ele>205.0</ele><time>2026-04-04T07:45:25.956Z</time></trkpt><trkpt lat="44.4887124" lon="10.688014"><ele>205.0</ele><time>2026-04-04T07:45:26.957Z</time></trkpt><trkpt lat="44.4886396" lon="10.6878985"><ele>205.0</ele><time>2026-04-04T07:45:27.957Z</time></trkpt><trkpt lat="44.4885748" lon="10.6877957"><ele>205.0</ele><time>2026-04-04T07:45:28.957Z</time></trkpt><trkpt lat="44.488512" lon="10.6876783"><ele>206.0</ele><time>2026-04-04T07:45:29.956Z</time></trkpt><trkpt lat="44.4884515" lon="10.6875698"><ele>207.0</ele><time>2026-04-04T07:45:30.956Z</time></trkpt><trkpt lat="44.4884029" lon="10.6874633"><ele>208.0</ele><time>2026-04-04T07:45:31.957Z</time></trkpt><trkpt lat="44.4883628" lon="10.6873472"><ele>209.0</ele><time>2026-04-04T07:45:32.956Z</time></trkpt><trkpt lat="44.4883206" lon="10.6872225"><ele>210.0</ele><time>2026-04-04T07:45:33.957Z</time></trkpt><trkpt lat="44.488285" lon="10.6871004"><ele>210.0</ele><time>2026-04-04T07:45:34.957Z</time></trkpt><trkpt lat="44.4882528" lon="10.6869701"><ele>210.0</ele><time>2026-04-04T07:45:35.957Z</time></trkpt><trkpt lat="44.4882198" lon="10.6868519"><ele>210.0</ele><time>2026-04-04T07:45:36.957Z</time></trkpt><trkpt lat="44.4881724" lon="10.6867679"><ele>210.0</ele><time>2026-04-04T07:45:37.957Z</time></trkpt><trkpt lat="44.4881171" lon="10.6866859"><ele>210.0</ele><time>2026-04-04T07:45:38.956Z</time></trkpt><trkpt lat="44.4880389" lon="10.6865924"><ele>210.0</ele><time>2026-04-04T07:45:39.956Z</time></trkpt><trkpt lat="44.4879653" lon="10.686531"><ele>210.2</ele><time>2026-04-04T07:45:40.957Z</time></trkpt><trkpt lat="44.4879009" lon="10.6864567"><ele>210.4</ele><time>2026-04-04T07:45:41.957Z</time></trkpt><trkpt lat="44.4878368" lon="10.6863696"><ele>210.60000000000002</ele><time>2026-04-04T07:45:42.956Z</time></trkpt><trkpt lat="44.4877688" lon="10.6862446"><ele>210.8</ele><time>2026-04-04T07:45:43.956Z</time></trkpt><trkpt lat="44.4877164" lon="10.6861113"><ele>211.0</ele><time>2026-04-04T07:45:44.956Z</time></trkpt><trkpt lat="44.4876579" lon="10.6859739"><ele>211.0</ele><time>2026-04-04T07:45:45.957Z</time></trkpt><trkpt lat="44.4875996" lon="10.6858325"><ele>211.0</ele><time>2026-04-04T07:45:46.956Z</time></trkpt><trkpt lat="44.4875407" lon="10.6856895"><ele>211.0</ele><time>2026-04-04T07:45:47.957Z</time></trkpt><trkpt lat="44.4874848" lon="10.6855499"><ele>211.0</ele><time>2026-04-04T07:45:48.956Z</time></trkpt><trkpt lat="44.4874282" lon="10.6854126"><ele>211.0</ele><time>2026-04-04T07:45:49.957Z</time></trkpt><trkpt lat="44.4873683" lon="10.6852741"><ele>211.0</ele><time>2026-04-04T07:45:50.957Z</time></trkpt><trkpt lat="44.4873155" lon="10.6851284"><ele>211.0</ele><time>2026-04-04T07:45:51.957Z</time></trkpt><trkpt lat="44.4872752" lon="10.6849732"><ele>211.0</ele><time>2026-04-04T07:45:52.957Z</time></trkpt><trkpt lat="44.4872441" lon="10.6848241"><ele>211.20000000000002</ele><time>2026-04-04T07:45:53.957Z</time></trkpt><trkpt lat="44.4872216" lon="10.6846764"><ele>211.4</ele><time>2026-04-04T07:45:54.957Z</time></trkpt><trkpt lat="44.4872004" lon="10.6845267"><ele>211.6</ele><time>2026-04-04T07:45:55.957Z</time></trkpt><trkpt lat="44.4871868" lon="10.6843725"><ele>211.8</ele><time>2026-04-04T07:45:56.957Z</time></trkpt><trkpt lat="44.4871684" lon="10.6842296"><ele>212.0</ele><time>2026-04-04T07:45:57.957Z</time></trkpt><trkpt lat="44.4871522" lon="10.6840894"><ele>212.0</ele><time>2026-04-04T07:45:58.957Z</time></trkpt><trkpt lat="44.4871349" lon="10.6839545"><ele>212.0</ele><time>2026-04-04T07:45:59.957Z</time></trkpt><trkpt lat="44.4871145" lon="10.683829"><ele>212.0</ele><time>2026-04-04T07:46:00.957Z</time></trkpt><trkpt lat="44.4870824" lon="10.6837125"><ele>212.0</ele><time>2026-04-04T07:46:01.957Z</time></trkpt><trkpt lat="44.4870355" lon="10.6835962"><ele>212.0</ele><time>2026-04-04T07:46:02.957Z</time></trkpt><trkpt lat="44.486973" lon="10.6835004"><ele>210.00000000000003</ele><time>2026-04-04T07:46:03.956Z</time></trkpt><trkpt lat="44.4869125" lon="10.6834202"><ele>208.0</ele><time>2026-04-04T07:46:04.956Z</time></trkpt><trkpt lat="44.4868475" lon="10.6833604"><ele>206.0</ele><time>2026-04-04T07:46:05.957Z</time></trkpt><trkpt lat="44.4867884" lon="10.6833142"><ele>204.0</ele><time>2026-04-04T07:46:06.957Z</time></trkpt><trkpt lat="44.4867137" lon="10.6832627"><ele>202.00000000000003</ele><time>2026-04-04T07:46:08.957Z</time></trkpt><trkpt lat="44.4866186" lon="10.6833119"><ele>200.0</ele><time>2026-04-04T07:46:14.957Z</time></trkpt><trkpt lat="44.4865446" lon="10.683475"><ele>200.00000000000003</ele><time>2026-04-04T07:46:16.956Z</time></trkpt><trkpt lat="44.4864943" lon="10.6835827"><ele>200.0</ele><time>2026-04-04T07:46:17.957Z</time></trkpt><trkpt lat="44.4864373" lon="10.6836948"><ele>200.0</ele><time>2026-04-04T07:46:18.956Z</time></trkpt><trkpt lat="44.4863763" lon="10.6837885"><ele>200.0</ele><time>2026-04-04T07:46:19.957Z</time></trkpt><trkpt lat="44.4863177" lon="10.6838791"><ele>200.00000000000003</ele><time>2026-04-04T07:46:20.957Z</time></trkpt><trkpt lat="44.4862634" lon="10.683961"><ele>200.0</ele><time>2026-04-04T07:46:21.957Z</time></trkpt><trkpt lat="44.4862101" lon="10.68404"><ele>199.14285714285717</ele><time>2026-04-04T07:46:22.956Z</time></trkpt><trkpt lat="44.4861557" lon="10.6841105"><ele>198.28571428571428</ele><time>2026-04-04T07:46:23.957Z</time></trkpt><trkpt lat="44.4861087" lon="10.6841851"><ele>197.42857142857144</ele><time>2026-04-04T07:46:24.956Z</time></trkpt><trkpt lat="44.4860666" lon="10.6842576"><ele>196.57142857142858</ele><time>2026-04-04T07:46:25.957Z</time></trkpt><trkpt lat="44.4860261" lon="10.6843318"><ele>195.71428571428572</ele><time>2026-04-04T07:46:26.957Z</time></trkpt><trkpt lat="44.4859865" lon="10.6844092"><ele>194.85714285714286</ele><time>2026-04-04T07:46:27.957Z</time></trkpt><trkpt lat="44.4859531" lon="10.6845031"><ele>194.0</ele><time>2026-04-04T07:46:28.957Z</time></trkpt><trkpt lat="44.4859177" lon="10.6845981"><ele>194.00000000000003</ele><time>2026-04-04T07:46:29.956Z</time></trkpt><trkpt lat="44.4858937" lon="10.6846832"><ele>194.0</ele><time>2026-04-04T07:46:30.957Z</time></trkpt><trkpt lat="44.4858615" lon="10.6847753"><ele>194.0</ele><time>2026-04-04T07:46:33.957Z</time></trkpt><trkpt lat="44.4858064" lon="10.6848241"><ele>194.0</ele><time>2026-04-04T07:46:36.957Z</time></trkpt><trkpt lat="44.4857356" lon="10.6848237"><ele>194.00000000000003</ele><time>2026-04-04T07:46:38.957Z</time></trkpt><trkpt lat="44.4856769" lon="10.6847493"><ele>194.0</ele><time>2026-04-04T07:46:40.957Z</time></trkpt><trkpt lat="44.4856241" lon="10.6845869"><ele>194.00000000000003</ele><time>2026-04-04T07:46:42.957Z</time></trkpt><trkpt lat="44.485584" lon="10.6845029"><ele>194.0</ele><time>2026-04-04T07:46:43.956Z</time></trkpt><trkpt lat="44.4855446" lon="10.6844151"><ele>194.0</ele><time>2026-04-04T07:46:44.957Z</time></trkpt><trkpt lat="44.485491" lon="10.6843235"><ele>194.0</ele><time>2026-04-04T07:46:45.957Z</time></trkpt><trkpt lat="44.4854578" lon="10.6842409"><ele>194.00000000000003</ele><time>2026-04-04T07:46:46.956Z</time></trkpt><trkpt lat="44.485376" lon="10.6841232"><ele>194.0</ele><time>2026-04-04T07:46:48.956Z</time></trkpt><trkpt lat="44.4853045" lon="10.6840192"><ele>193.75</ele><time>2026-04-04T07:46:50.957Z</time></trkpt><trkpt lat="44.4852258" lon="10.683901"><ele>193.5</ele><time>2026-04-04T07:46:52.956Z</time></trkpt><trkpt lat="44.4851456" lon="10.683772"><ele>193.25</ele><time>2026-04-04T07:46:54.957Z</time></trkpt><trkpt lat="44.4850784" lon="10.6836351"><ele>193.0</ele><time>2026-04-04T07:46:56.956Z</time></trkpt><trkpt lat="44.4850339" lon="10.6834814"><ele>193.4</ele><time>2026-04-04T07:46:58.956Z</time></trkpt><trkpt lat="44.4849866" lon="10.6833263"><ele>193.8</ele><time>2026-04-04T07:47:00.957Z</time></trkpt><trkpt lat="44.4849613" lon="10.6832435"><ele>194.2</ele><time>2026-04-04T07:47:01.957Z</time></trkpt><trkpt lat="44.4849235" lon="10.6830875"><ele>194.6</ele><time>2026-04-04T07:47:03.957Z</time></trkpt><trkpt lat="44.4848887" lon="10.6829497"><ele>195.0</ele><time>2026-04-04T07:47:05.957Z</time></trkpt><trkpt lat="44.4849044" lon="10.6828163"><ele>195.16666666666666</ele><time>2026-04-04T07:47:07.957Z</time></trkpt><trkpt lat="44.4849733" lon="10.682753"><ele>195.33333333333331</ele><time>2026-04-04T07:47:09.957Z</time></trkpt><trkpt lat="44.4850349" lon="10.6827263"><ele>195.5</ele><time>2026-04-04T07:47:10.957Z</time></trkpt><trkpt lat="44.4851034" lon="10.6827064"><ele>195.66666666666666</ele><time>2026-04-04T07:47:11.957Z</time></trkpt><trkpt lat="44.4851701" lon="10.6826756"><ele>195.83333333333331</ele><time>2026-04-04T07:47:12.957Z</time></trkpt><trkpt lat="44.4852447" lon="10.68263"><ele>196.0</ele><time>2026-04-04T07:47:13.957Z</time></trkpt><trkpt lat="44.485332" lon="10.6825616"><ele>196.0</ele><time>2026-04-04T07:47:14.957Z</time></trkpt><trkpt lat="44.4854132" lon="10.6825047"><ele>196.0</ele><time>2026-04-04T07:47:15.957Z</time></trkpt><trkpt lat="44.4854766" lon="10.6824749"><ele>196.0</ele><time>2026-04-04T07:47:16.956Z</time></trkpt><trkpt lat="44.4855932" lon="10.6824291"><ele>196.0</ele><time>2026-04-04T07:47:18.957Z</time></trkpt><trkpt lat="44.4856646" lon="10.6823171"><ele>196.0</ele><time>2026-04-04T07:47:20.957Z</time></trkpt><trkpt lat="44.485654" lon="10.6822287"><ele>195.99999999999997</ele><time>2026-04-04T07:47:21.956Z</time></trkpt><trkpt lat="44.4856307" lon="10.6821344"><ele>196.0</ele><time>2026-04-04T07:47:22.957Z</time></trkpt><trkpt lat="44.4856169" lon="10.6820361"><ele>196.0</ele><time>2026-04-04T07:47:23.957Z</time></trkpt><trkpt lat="44.4856016" lon="10.6819329"><ele>196.0</ele><time>2026-04-04T07:47:24.956Z</time></trkpt><trkpt lat="44.4855893" lon="10.6818201"><ele>195.99999999999997</ele><time>2026-04-04T07:47:25.957Z</time></trkpt><trkpt lat="44.4855767" lon="10.6817016"><ele>196.0</ele><time>2026-04-04T07:47:26.957Z</time></trkpt><trkpt lat="44.485563" lon="10.6815758"><ele>197.16666666666666</ele><time>2026-04-04T07:47:27.957Z</time></trkpt><trkpt lat="44.4855613" lon="10.6814496"><ele>198.33333333333331</ele><time>2026-04-04T07:47:28.957Z</time></trkpt><trkpt lat="44.4855712" lon="10.681331"><ele>199.5</ele><time>2026-04-04T07:47:29.956Z</time></trkpt><trkpt lat="44.4855938" lon="10.6812203"><ele>200.66666666666669</ele><time>2026-04-04T07:47:30.957Z</time></trkpt><trkpt lat="44.4856334" lon="10.6811175"><ele>201.83333333333334</ele><time>2026-04-04T07:47:31.957Z</time></trkpt><trkpt lat="44.4856899" lon="10.6810143"><ele>203.0</ele><time>2026-04-04T07:47:32.956Z</time></trkpt><trkpt lat="44.4857565" lon="10.6809142"><ele>203.8</ele><time>2026-04-04T07:47:33.957Z</time></trkpt><trkpt lat="44.4858332" lon="10.6808162"><ele>204.60000000000002</ele><time>2026-04-04T07:47:34.957Z</time></trkpt><trkpt lat="44.4859023" lon="10.6807453"><ele>205.39999999999998</ele><time>2026-04-04T07:47:35.957Z</time></trkpt><trkpt lat="44.4859451" lon="10.6806732"><ele>206.2</ele><time>2026-04-04T07:47:36.956Z</time></trkpt><trkpt lat="44.4859445" lon="10.6804634"><ele>207.0</ele><time>2026-04-04T07:47:38.957Z</time></trkpt><trkpt lat="44.4859536" lon="10.6803368"><ele>208.2</ele><time>2026-04-04T07:47:39.957Z</time></trkpt><trkpt lat="44.4859777" lon="10.6801973"><ele>209.39999999999998</ele><time>2026-04-04T07:47:40.957Z</time></trkpt><trkpt lat="44.4860018" lon="10.6800558"><ele>210.60000000000002</ele><time>2026-04-04T07:47:41.957Z</time></trkpt><trkpt lat="44.4860088" lon="10.6799001"><ele>211.8</ele><time>2026-04-04T07:47:42.957Z</time></trkpt><trkpt lat="44.4859992" lon="10.6797422"><ele>213.0</ele><time>2026-04-04T07:47:43.957Z</time></trkpt><trkpt lat="44.4859826" lon="10.6795764"><ele>215.2</ele><time>2026-04-04T07:47:44.956Z</time></trkpt><trkpt lat="44.4859657" lon="10.6794134"><ele>217.4</ele><time>2026-04-04T07:47:45.957Z</time></trkpt><trkpt lat="44.4859495" lon="10.6792636"><ele>219.59999999999997</ele><time>2026-04-04T07:47:46.957Z</time></trkpt><trkpt lat="44.4859234" lon="10.6791284"><ele>221.79999999999998</ele><time>2026-04-04T07:47:47.957Z</time></trkpt><trkpt lat="44.4858905" lon="10.6789941"><ele>224.0</ele><time>2026-04-04T07:47:48.956Z</time></trkpt><trkpt lat="44.4858535" lon="10.6788675"><ele>224.00000000000003</ele><time>2026-04-04T07:47:49.957Z</time></trkpt><trkpt lat="44.4858161" lon="10.6787623"><ele>224.0</ele><time>2026-04-04T07:47:50.957Z</time></trkpt><trkpt lat="44.4857818" lon="10.6786581"><ele>224.0</ele><time>2026-04-04T07:47:51.956Z</time></trkpt><trkpt lat="44.4857507" lon="10.6785576"><ele>224.0</ele><time>2026-04-04T07:47:52.957Z</time></trkpt><trkpt lat="44.4857269" lon="10.6784684"><ele>224.00000000000003</ele><time>2026-04-04T07:47:53.956Z</time></trkpt><trkpt lat="44.4857497" lon="10.6783023"><ele>224.0</ele><time>2026-04-04T07:47:55.957Z</time></trkpt><trkpt lat="44.4857866" lon="10.6782182"><ele>226.00000000000003</ele><time>2026-04-04T07:47:56.956Z</time></trkpt><trkpt lat="44.4858364" lon="10.678125"><ele>228.0</ele><time>2026-04-04T07:47:57.956Z</time></trkpt><trkpt lat="44.4858871" lon="10.6780319"><ele>230.0</ele><time>2026-04-04T07:47:58.957Z</time></trkpt><trkpt lat="44.485944" lon="10.67794"><ele>232.0</ele><time>2026-04-04T07:47:59.957Z</time></trkpt><trkpt lat="44.4859921" lon="10.6778411"><ele>234.00000000000003</ele><time>2026-04-04T07:48:00.957Z</time></trkpt><trkpt lat="44.4860225" lon="10.6777232"><ele>236.0</ele><time>2026-04-04T07:48:01.957Z</time></trkpt><trkpt lat="44.4860441" lon="10.6775965"><ele>237.60000000000002</ele><time>2026-04-04T07:48:02.956Z</time></trkpt><trkpt lat="44.4860594" lon="10.677447"><ele>239.20000000000002</ele><time>2026-04-04T07:48:03.956Z</time></trkpt><trkpt lat="44.4860676" lon="10.6773063"><ele>240.79999999999998</ele><time>2026-04-04T07:48:04.957Z</time></trkpt><trkpt lat="44.4860735" lon="10.6771651"><ele>242.39999999999998</ele><time>2026-04-04T07:48:05.957Z</time></trkpt><trkpt lat="44.4860785" lon="10.6770199"><ele>244.0</ele><time>2026-04-04T07:48:06.956Z</time></trkpt><trkpt lat="44.4860903" lon="10.6769092"><ele>244.49999999999997</ele><time>2026-04-04T07:48:07.956Z</time></trkpt><trkpt lat="44.4861117" lon="10.6768154"><ele>245.0</ele><time>2026-04-04T07:48:08.957Z</time></trkpt><trkpt lat="44.4861517" lon="10.6767147"><ele>245.5</ele><time>2026-04-04T07:48:09.957Z</time></trkpt><trkpt lat="44.4861918" lon="10.6766082"><ele>246.0</ele><time>2026-04-04T07:48:10.957Z</time></trkpt><trkpt lat="44.486233" lon="10.6764958"><ele>246.49999999999997</ele><time>2026-04-04T07:48:11.957Z</time></trkpt><trkpt lat="44.4862653" lon="10.6763709"><ele>247.0</ele><time>2026-04-04T07:48:12.957Z</time></trkpt><trkpt lat="44.4862841" lon="10.6762524"><ele>246.99999999999997</ele><time>2026-04-04T07:48:13.957Z</time></trkpt><trkpt lat="44.4862989" lon="10.6761325"><ele>247.0</ele><time>2026-04-04T07:48:14.957Z</time></trkpt><trkpt lat="44.4863263" lon="10.6760185"><ele>247.0</ele><time>2026-04-04T07:48:15.956Z</time></trkpt><trkpt lat="44.4863703" lon="10.6759186"><ele>247.0</ele><time>2026-04-04T07:48:16.957Z</time></trkpt><trkpt lat="44.4864211" lon="10.675825"><ele>246.99999999999997</ele><time>2026-04-04T07:48:17.957Z</time></trkpt><trkpt lat="44.4864782" lon="10.6757247"><ele>247.0</ele><time>2026-04-04T07:48:18.956Z</time></trkpt><trkpt lat="44.4865335" lon="10.6756216"><ele>249.16666666666666</ele><time>2026-04-04T07:48:19.957Z</time></trkpt><trkpt lat="44.4865697" lon="10.675508"><ele>251.33333333333331</ele><time>2026-04-04T07:48:20.957Z</time></trkpt><trkpt lat="44.4865771" lon="10.6754016"><ele>253.5</ele><time>2026-04-04T07:48:21.957Z</time></trkpt><trkpt lat="44.4865502" lon="10.6753005"><ele>255.66666666666669</ele><time>2026-04-04T07:48:22.956Z</time></trkpt><trkpt lat="44.4865172" lon="10.675199"><ele>257.83333333333337</ele><time>2026-04-04T07:48:23.957Z</time></trkpt><trkpt lat="44.486484" lon="10.6750867"><ele>260.0</ele><time>2026-04-04T07:48:24.957Z</time></trkpt><trkpt lat="44.4864494" lon="10.6749565"><ele>262.8</ele><time>2026-04-04T07:48:25.957Z</time></trkpt><trkpt lat="44.4864102" lon="10.674824"><ele>265.6</ele><time>2026-04-04T07:48:26.956Z</time></trkpt><trkpt lat="44.4863802" lon="10.6746941"><ele>268.4</ele><time>2026-04-04T07:48:27.957Z</time></trkpt><trkpt lat="44.4863678" lon="10.6745619"><ele>271.2</ele><time>2026-04-04T07:48:28.957Z</time></trkpt><trkpt lat="44.4863769" lon="10.6744287"><ele>274.0</ele><time>2026-04-04T07:48:29.956Z</time></trkpt><trkpt lat="44.4863785" lon="10.6743021"><ele>275.8</ele><time>2026-04-04T07:48:30.957Z</time></trkpt><trkpt lat="44.4863695" lon="10.6741718"><ele>277.59999999999997</ele><time>2026-04-04T07:48:31.957Z</time></trkpt><trkpt lat="44.4863484" lon="10.6740443"><ele>279.4</ele><time>2026-04-04T07:48:32.956Z</time></trkpt><trkpt lat="44.486318" lon="10.6739047"><ele>281.2</ele><time>2026-04-04T07:48:33.956Z</time></trkpt><trkpt lat="44.4862943" lon="10.6737778"><ele>283.0</ele><time>2026-04-04T07:48:34.956Z</time></trkpt><trkpt lat="44.4862763" lon="10.6736598"><ele>286.3333333333333</ele><time>2026-04-04T07:48:35.957Z</time></trkpt><trkpt lat="44.4862584" lon="10.6735601"><ele>289.66666666666663</ele><time>2026-04-04T07:48:36.956Z</time></trkpt><trkpt lat="44.4862118" lon="10.6734876"><ele>293.0</ele><time>2026-04-04T07:48:37.957Z</time></trkpt><trkpt lat="44.4861624" lon="10.6734261"><ele>296.3333333333333</ele><time>2026-04-04T07:48:38.956Z</time></trkpt><trkpt lat="44.4860847" lon="10.673379"><ele>299.6666666666667</ele><time>2026-04-04T07:48:39.957Z</time></trkpt><trkpt lat="44.4860027" lon="10.6733019"><ele>303.0</ele><time>2026-04-04T07:48:40.956Z</time></trkpt><trkpt lat="44.485919" lon="10.6732132"><ele>303.0</ele><time>2026-04-04T07:48:41.957Z</time></trkpt><trkpt lat="44.4858346" lon="10.6731237"><ele>303.0</ele><time>2026-04-04T07:48:42.957Z</time></trkpt><trkpt lat="44.4857448" lon="10.6730277"><ele>303.0</ele><time>2026-04-04T07:48:43.957Z</time></trkpt><trkpt lat="44.4856541" lon="10.6729301"><ele>303.0</ele><time>2026-04-04T07:48:44.956Z</time></trkpt><trkpt lat="44.4855836" lon="10.6728438"><ele>303.0</ele><time>2026-04-04T07:48:45.957Z</time></trkpt><trkpt lat="44.4855733" lon="10.6727168"><ele>304.0</ele><time>2026-04-04T07:48:47.956Z</time></trkpt><trkpt lat="44.4856253" lon="10.6726641"><ele>305.0</ele><time>2026-04-04T07:48:48.956Z</time></trkpt><trkpt lat="44.4857106" lon="10.6726292"><ele>306.0</ele><time>2026-04-04T07:48:49.956Z</time></trkpt><trkpt lat="44.4857994" lon="10.672615"><ele>307.0</ele><time>2026-04-04T07:48:50.957Z</time></trkpt><trkpt lat="44.485896" lon="10.6725976"><ele>308.0</ele><time>2026-04-04T07:48:51.957Z</time></trkpt><trkpt lat="44.4859825" lon="10.6725548"><ele>309.0</ele><time>2026-04-04T07:48:52.956Z</time></trkpt><trkpt lat="44.486076" lon="10.6725014"><ele>309.0</ele><time>2026-04-04T07:48:53.957Z</time></trkpt><trkpt lat="44.4861685" lon="10.6724611"><ele>309.0</ele><time>2026-04-04T07:48:54.956Z</time></trkpt><trkpt lat="44.4862421" lon="10.672445"><ele>309.0</ele><time>2026-04-04T07:48:55.957Z</time></trkpt><trkpt lat="44.4863002" lon="10.6724001"><ele>309.0</ele><time>2026-04-04T07:48:56.956Z</time></trkpt><trkpt lat="44.486339" lon="10.6723203"><ele>309.0</ele><time>2026-04-04T07:48:57.957Z</time></trkpt><trkpt lat="44.4863693" lon="10.6722135"><ele>309.0</ele><time>2026-04-04T07:48:58.957Z</time></trkpt><trkpt lat="44.4864091" lon="10.6721047"><ele>309.2</ele><time>2026-04-04T07:48:59.956Z</time></trkpt><trkpt lat="44.486463" lon="10.6720025"><ele>309.4</ele><time>2026-04-04T07:49:00.956Z</time></trkpt><trkpt lat="44.4865191" lon="10.6719033"><ele>309.6</ele><time>2026-04-04T07:49:01.957Z</time></trkpt><trkpt lat="44.4865949" lon="10.6718063"><ele>309.8</ele><time>2026-04-04T07:49:02.956Z</time></trkpt><trkpt lat="44.4866624" lon="10.6717259"><ele>310.0</ele><time>2026-04-04T07:49:03.957Z</time></trkpt><trkpt lat="44.4867301" lon="10.6716439"><ele>311.2857142857143</ele><time>2026-04-04T07:49:04.956Z</time></trkpt><trkpt lat="44.4867761" lon="10.6715639"><ele>312.57142857142856</ele><time>2026-04-04T07:49:05.957Z</time></trkpt><trkpt lat="44.486802" lon="10.6714795"><ele>313.8571428571429</ele><time>2026-04-04T07:49:06.957Z</time></trkpt><trkpt lat="44.4868134" lon="10.6713884"><ele>315.1428571428571</ele><time>2026-04-04T07:49:07.957Z</time></trkpt><trkpt lat="44.4868129" lon="10.6712993"><ele>316.4285714285714</ele><time>2026-04-04T07:49:08.957Z</time></trkpt><trkpt lat="44.4868098" lon="10.6711982"><ele>317.7142857142857</ele><time>2026-04-04T07:49:09.957Z</time></trkpt><trkpt lat="44.486812" lon="10.6710759"><ele>319.0</ele><time>2026-04-04T07:49:10.957Z</time></trkpt><trkpt lat="44.4868316" lon="10.6709428"><ele>320.0</ele><time>2026-04-04T07:49:11.956Z</time></trkpt><trkpt lat="44.4868676" lon="10.670818"><ele>321.0</ele><time>2026-04-04T07:49:12.957Z</time></trkpt><trkpt lat="44.4869074" lon="10.670689"><ele>322.0</ele><time>2026-04-04T07:49:13.956Z</time></trkpt><trkpt lat="44.4869264" lon="10.6705688"><ele>323.0</ele><time>2026-04-04T07:49:14.956Z</time></trkpt><trkpt lat="44.4869245" lon="10.6704577"><ele>324.0</ele><time>2026-04-04T07:49:15.957Z</time></trkpt><trkpt lat="44.4869111" lon="10.6703474"><ele>325.0</ele><time>2026-04-04T07:49:16.957Z</time></trkpt><trkpt lat="44.4869052" lon="10.6702322"><ele>326.3333333333333</ele><time>2026-04-04T07:49:17.957Z</time></trkpt><trkpt lat="44.4869127" lon="10.670115"><ele>327.66666666666663</ele><time>2026-04-04T07:49:18.957Z</time></trkpt><trkpt lat="44.4869197" lon="10.6699954"><ele>329.0</ele><time>2026-04-04T07:49:19.956Z</time></trkpt><trkpt lat="44.4869256" lon="10.6698859"><ele>330.3333333333333</ele><time>2026-04-04T07:49:20.957Z</time></trkpt><trkpt lat="44.4869536" lon="10.6697938"><ele>331.6666666666667</ele><time>2026-04-04T07:49:21.956Z</time></trkpt><trkpt lat="44.4869979" lon="10.6697304"><ele>333.0</ele><time>2026-04-04T07:49:22.956Z</time></trkpt><trkpt lat="44.4870678" lon="10.6696821"><ele>334.0</ele><time>2026-04-04T07:49:23.957Z</time></trkpt><trkpt lat="44.4871403" lon="10.6696421"><ele>335.0</ele><time>2026-04-04T07:49:24.957Z</time></trkpt><trkpt lat="44.4872251" lon="10.6696004"><ele>336.0</ele><time>2026-04-04T07:49:25.957Z</time></trkpt><trkpt lat="44.4873062" lon="10.6695454"><ele>337.0</ele><time>2026-04-04T07:49:26.957Z</time></trkpt><trkpt lat="44.4873828" lon="10.6694844"><ele>338.0</ele><time>2026-04-04T07:49:27.957Z</time></trkpt><trkpt lat="44.4874475" lon="10.6694007"><ele>339.0</ele><time>2026-04-04T07:49:28.957Z</time></trkpt><trkpt lat="44.4874876" lon="10.6692805"><ele>341.8333333333333</ele><time>2026-04-04T07:49:29.956Z</time></trkpt><trkpt lat="44.4875205" lon="10.6691531"><ele>344.6666666666667</ele><time>2026-04-04T07:49:30.957Z</time></trkpt><trkpt lat="44.4875434" lon="10.669034"><ele>347.5</ele><time>2026-04-04T07:49:31.956Z</time></trkpt><trkpt lat="44.487561" lon="10.6689127"><ele>350.33333333333337</ele><time>2026-04-04T07:49:32.957Z</time></trkpt><trkpt lat="44.4875501" lon="10.6688003"><ele>353.1666666666667</ele><time>2026-04-04T07:49:33.956Z</time></trkpt><trkpt lat="44.4875243" lon="10.6686867"><ele>356.0</ele><time>2026-04-04T07:49:34.956Z</time></trkpt><trkpt lat="44.4874997" lon="10.6685687"><ele>356.33333333333337</ele><time>2026-04-04T07:49:35.957Z</time></trkpt><trkpt lat="44.4874663" lon="10.6684728"><ele>356.6666666666667</ele><time>2026-04-04T07:49:36.957Z</time></trkpt><trkpt lat="44.4874207" lon="10.66839"><ele>357.0</ele><time>2026-04-04T07:49:37.956Z</time></trkpt><trkpt lat="44.4873558" lon="10.6683085"><ele>357.3333333333333</ele><time>2026-04-04T07:49:38.957Z</time></trkpt><trkpt lat="44.4872939" lon="10.668222"><ele>357.66666666666663</ele><time>2026-04-04T07:49:39.956Z</time></trkpt><trkpt lat="44.4872265" lon="10.6681353"><ele>358.0</ele><time>2026-04-04T07:49:40.957Z</time></trkpt><trkpt lat="44.4871617" lon="10.6680533"><ele>358.0</ele><time>2026-04-04T07:49:41.956Z</time></trkpt><trkpt lat="44.4870983" lon="10.6679602"><ele>358.0</ele><time>2026-04-04T07:49:42.956Z</time></trkpt><trkpt lat="44.4870499" lon="10.6678587"><ele>358.0</ele><time>2026-04-04T07:49:43.957Z</time></trkpt><trkpt lat="44.4870244" lon="10.6677459"><ele>358.0</ele><time>2026-04-04T07:49:44.957Z</time></trkpt><trkpt lat="44.4870183" lon="10.6676333"><ele>358.0</ele><time>2026-04-04T07:49:45.957Z</time></trkpt><trkpt lat="44.487022" lon="10.6675179"><ele>358.0</ele><time>2026-04-04T07:49:46.957Z</time></trkpt><trkpt lat="44.4870373" lon="10.6674159"><ele>358.0</ele><time>2026-04-04T07:49:47.956Z</time></trkpt><trkpt lat="44.4870631" lon="10.667309"><ele>358.0</ele><time>2026-04-04T07:49:48.957Z</time></trkpt><trkpt lat="44.4871048" lon="10.66722"><ele>358.0</ele><time>2026-04-04T07:49:49.956Z</time></trkpt><trkpt lat="44.4871585" lon="10.6671388"><ele>358.0</ele><time>2026-04-04T07:49:50.957Z</time></trkpt><trkpt lat="44.487208" lon="10.6670572"><ele>358.0</ele><time>2026-04-04T07:49:51.956Z</time></trkpt><trkpt lat="44.4872542" lon="10.6669618"><ele>358.0</ele><time>2026-04-04T07:49:52.957Z</time></trkpt><trkpt lat="44.4872702" lon="10.6668673"><ele>357.16666666666663</ele><time>2026-04-04T07:49:53.956Z</time></trkpt><trkpt lat="44.4872664" lon="10.6667682"><ele>356.3333333333333</ele><time>2026-04-04T07:49:54.956Z</time></trkpt><trkpt lat="44.4872571" lon="10.6666445"><ele>355.5</ele><time>2026-04-04T07:49:55.957Z</time></trkpt><trkpt lat="44.4872575" lon="10.6665032"><ele>354.6666666666667</ele><time>2026-04-04T07:49:56.957Z</time></trkpt><trkpt lat="44.4872889" lon="10.666384"><ele>353.83333333333337</ele><time>2026-04-04T07:49:57.957Z</time></trkpt><trkpt lat="44.4873347" lon="10.6662642"><ele>353.0</ele><time>2026-04-04T07:49:58.956Z</time></trkpt><trkpt lat="44.4873845" lon="10.6661475"><ele>351.83333333333337</ele><time>2026-04-04T07:49:59.956Z</time></trkpt><trkpt lat="44.4874375" lon="10.6660515"><ele>350.6666666666667</ele><time>2026-04-04T07:50:00.956Z</time></trkpt><trkpt lat="44.487494" lon="10.6659678"><ele>349.5</ele><time>2026-04-04T07:50:01.957Z</time></trkpt><trkpt lat="44.4875376" lon="10.6658845"><ele>348.3333333333333</ele><time>2026-04-04T07:50:02.956Z</time></trkpt><trkpt lat="44.4875659" lon="10.6657954"><ele>347.16666666666663</ele><time>2026-04-04T07:50:03.957Z</time></trkpt><trkpt lat="44.4875837" lon="10.6656876"><ele>346.0</ele><time>2026-04-04T07:50:05.957Z</time></trkpt><trkpt lat="44.4875822" lon="10.6655671"><ele>346.0</ele><time>2026-04-04T07:50:07.957Z</time></trkpt><trkpt lat="44.4876041" lon="10.665422"><ele>346.0</ele><time>2026-04-04T07:50:09.957Z</time></trkpt><trkpt lat="44.4876052" lon="10.665325"><ele>346.0</ele><time>2026-04-04T07:50:11.957Z</time></trkpt><trkpt lat="44.4876032" lon="10.6651718"><ele>346.0</ele><time>2026-04-04T07:50:13.957Z</time></trkpt><trkpt lat="44.4875848" lon="10.6649961"><ele>346.0</ele><time>2026-04-04T07:50:15.957Z</time></trkpt><trkpt lat="44.4875752" lon="10.6648979"><ele>345.0</ele><time>2026-04-04T07:50:16.957Z</time></trkpt><trkpt lat="44.4875718" lon="10.6647612"><ele>344.0</ele><time>2026-04-04T07:50:18.957Z</time></trkpt><trkpt lat="44.4876367" lon="10.6646808"><ele>343.0</ele><time>2026-04-04T07:50:20.956Z</time></trkpt><trkpt lat="44.487677" lon="10.664834"><ele>342.0</ele><time>2026-04-04T07:50:22.957Z</time></trkpt><trkpt lat="44.4876789" lon="10.6649846"><ele>341.0</ele><time>2026-04-04T07:50:23.957Z</time></trkpt><trkpt lat="44.4876934" lon="10.6651088"><ele>341.0</ele><time>2026-04-04T07:50:24.957Z</time></trkpt><trkpt lat="44.4877287" lon="10.665195"><ele>341.0</ele><time>2026-04-04T07:50:25.957Z</time></trkpt><trkpt lat="44.4877898" lon="10.6651465"><ele>341.0</ele><time>2026-04-04T07:50:27.957Z</time></trkpt><trkpt lat="44.4878046" lon="10.6650605"><ele>341.0</ele><time>2026-04-04T07:50:28.956Z</time></trkpt><trkpt lat="44.4878319" lon="10.6649325"><ele>341.0</ele><time>2026-04-04T07:50:29.957Z</time></trkpt><trkpt lat="44.4878574" lon="10.6648401"><ele>341.0</ele><time>2026-04-04T07:50:30.956Z</time></trkpt><trkpt lat="44.4878747" lon="10.6647463"><ele>341.0</ele><time>2026-04-04T07:50:31.956Z</time></trkpt><trkpt lat="44.4878904" lon="10.6646457"><ele>341.0</ele><time>2026-04-04T07:50:32.957Z</time></trkpt><trkpt lat="44.4879034" lon="10.6645298"><ele>341.0</ele><time>2026-04-04T07:50:33.957Z</time></trkpt><trkpt lat="44.4878985" lon="10.6643889"><ele>341.0</ele><time>2026-04-04T07:50:34.956Z</time></trkpt><trkpt lat="44.4878803" lon="10.6642807"><ele>341.0</ele><time>2026-04-04T07:50:35.956Z</time></trkpt><trkpt lat="44.4878122" lon="10.6641512"><ele>341.0</ele><time>2026-04-04T07:50:37.957Z</time></trkpt><trkpt lat="44.4876974" lon="10.6640455"><ele>340.1666666666667</ele><time>2026-04-04T07:50:39.956Z</time></trkpt><trkpt lat="44.4876253" lon="10.6639659"><ele>339.33333333333337</ele><time>2026-04-04T07:50:40.957Z</time></trkpt><trkpt lat="44.4875788" lon="10.6638842"><ele>338.5</ele><time>2026-04-04T07:50:41.957Z</time></trkpt><trkpt lat="44.4876034" lon="10.6637777"><ele>337.6666666666667</ele><time>2026-04-04T07:51:08.957Z</time></trkpt><trkpt lat="44.4875934" lon="10.6638772"><ele>336.8333333333333</ele><time>2026-04-04T07:51:15.979Z</time></trkpt><trkpt lat="44.4876222" lon="10.6639633"><ele>336.0</ele><time>2026-04-04T07:51:16.957Z</time></trkpt><trkpt lat="44.4876751" lon="10.6640456"><ele>336.0</ele><time>2026-04-04T07:51:17.956Z</time></trkpt><trkpt lat="44.487743" lon="10.6641102"><ele>336.0</ele><time>2026-04-04T07:51:18.957Z</time></trkpt><trkpt lat="44.4878376" lon="10.6641818"><ele>336.0</ele><time>2026-04-04T07:51:20.956Z</time></trkpt><trkpt lat="44.4878927" lon="10.6642895"><ele>336.0</ele><time>2026-04-04T07:51:22.957Z</time></trkpt><trkpt lat="44.4879106" lon="10.6644489"><ele>336.0</ele><time>2026-04-04T07:51:24.956Z</time></trkpt><trkpt lat="44.4878836" lon="10.6646205"><ele>336.8333333333333</ele><time>2026-04-04T07:51:26.957Z</time></trkpt><trkpt lat="44.4878682" lon="10.6647727"><ele>337.6666666666667</ele><time>2026-04-04T07:51:28.957Z</time></trkpt><trkpt lat="44.4878489" lon="10.6649158"><ele>338.5</ele><time>2026-04-04T07:51:30.957Z</time></trkpt><trkpt lat="44.4878241" lon="10.665"><ele>339.33333333333337</ele><time>2026-04-04T07:51:31.957Z</time></trkpt><trkpt lat="44.4878055" lon="10.6650992"><ele>340.1666666666667</ele><time>2026-04-04T07:51:32.957Z</time></trkpt><trkpt lat="44.4877811" lon="10.665182"><ele>341.0</ele><time>2026-04-04T07:51:33.957Z</time></trkpt><trkpt lat="44.487756" lon="10.6652804"><ele>341.0</ele><time>2026-04-04T07:51:35.957Z</time></trkpt><trkpt lat="44.4878112" lon="10.6652349"><ele>341.0</ele><time>2026-04-04T07:51:39.956Z</time></trkpt><trkpt lat="44.4878855" lon="10.6651096"><ele>341.0</ele><time>2026-04-04T07:51:41.957Z</time></trkpt><trkpt lat="44.4879208" lon="10.6650251"><ele>341.0</ele><time>2026-04-04T07:51:42.956Z</time></trkpt><trkpt lat="44.4879701" lon="10.664941"><ele>341.0</ele><time>2026-04-04T07:51:43.957Z</time></trkpt><trkpt lat="44.488016" lon="10.6648582"><ele>341.0</ele><time>2026-04-04T07:51:44.957Z</time></trkpt><trkpt lat="44.4880565" lon="10.6647723"><ele>341.6666666666667</ele><time>2026-04-04T07:51:45.956Z</time></trkpt><trkpt lat="44.4880927" lon="10.6646865"><ele>342.33333333333337</ele><time>2026-04-04T07:51:46.956Z</time></trkpt><trkpt lat="44.4881293" lon="10.6645941"><ele>343.0</ele><time>2026-04-04T07:51:47.957Z</time></trkpt><trkpt lat="44.4881606" lon="10.6645018"><ele>343.6666666666667</ele><time>2026-04-04T07:51:48.957Z</time></trkpt><trkpt lat="44.4881959" lon="10.6644045"><ele>344.3333333333333</ele><time>2026-04-04T07:51:49.957Z</time></trkpt><trkpt lat="44.4882359" lon="10.6643082"><ele>345.0</ele><time>2026-04-04T07:51:50.957Z</time></trkpt><trkpt lat="44.4882723" lon="10.6641986"><ele>346.0</ele><time>2026-04-04T07:51:51.957Z</time></trkpt><trkpt lat="44.488301" lon="10.6640847"><ele>347.0</ele><time>2026-04-04T07:51:52.956Z</time></trkpt><trkpt lat="44.4883315" lon="10.6639826"><ele>348.0</ele><time>2026-04-04T07:51:53.957Z</time></trkpt><trkpt lat="44.4883634" lon="10.6638953"><ele>349.0</ele><time>2026-04-04T07:51:54.956Z</time></trkpt><trkpt lat="44.4884028" lon="10.6638186"><ele>350.0</ele><time>2026-04-04T07:51:55.956Z</time></trkpt><trkpt lat="44.4884409" lon="10.6637458"><ele>351.0</ele><time>2026-04-04T07:51:56.957Z</time></trkpt><trkpt lat="44.4884778" lon="10.6636716"><ele>352.0</ele><time>2026-04-04T07:51:57.956Z</time></trkpt><trkpt lat="44.4885142" lon="10.6635913"><ele>352.57142857142856</ele><time>2026-04-04T07:51:58.957Z</time></trkpt><trkpt lat="44.4885405" lon="10.6635"><ele>353.1428571428571</ele><time>2026-04-04T07:51:59.957Z</time></trkpt><trkpt lat="44.4885696" lon="10.663412"><ele>353.71428571428567</ele><time>2026-04-04T07:52:00.957Z</time></trkpt><trkpt lat="44.4885939" lon="10.6633238"><ele>354.2857142857143</ele><time>2026-04-04T07:52:01.956Z</time></trkpt><trkpt lat="44.488619" lon="10.6632338"><ele>354.85714285714283</ele><time>2026-04-04T07:52:02.957Z</time></trkpt><trkpt lat="44.4886473" lon="10.6631382"><ele>355.4285714285714</ele><time>2026-04-04T07:52:03.957Z</time></trkpt><trkpt lat="44.4886829" lon="10.6630447"><ele>356.0</ele><time>2026-04-04T07:52:04.956Z</time></trkpt><trkpt lat="44.488726" lon="10.6629584"><ele>357.5</ele><time>2026-04-04T07:52:05.956Z</time></trkpt><trkpt lat="44.488773" lon="10.6628787"><ele>359.0</ele><time>2026-04-04T07:52:06.957Z</time></trkpt><trkpt lat="44.4888101" lon="10.662777"><ele>360.5</ele><time>2026-04-04T07:52:07.956Z</time></trkpt><trkpt lat="44.488848" lon="10.6626602"><ele>362.0</ele><time>2026-04-04T07:52:08.956Z</time></trkpt><trkpt lat="44.4888824" lon="10.6625411"><ele>363.5</ele><time>2026-04-04T07:52:09.956Z</time></trkpt><trkpt lat="44.4889042" lon="10.6624303"><ele>365.0</ele><time>2026-04-04T07:52:10.957Z</time></trkpt><trkpt lat="44.4889303" lon="10.6623309"><ele>365.6666666666667</ele><time>2026-04-04T07:52:11.956Z</time></trkpt><trkpt lat="44.4889544" lon="10.6622274"><ele>366.33333333333337</ele><time>2026-04-04T07:52:12.955Z</time></trkpt><trkpt lat="44.4889851" lon="10.6621205"><ele>367.0</ele><time>2026-04-04T07:52:13.956Z</time></trkpt><trkpt lat="44.4890362" lon="10.6620193"><ele>367.6666666666667</ele><time>2026-04-04T07:52:14.955Z</time></trkpt><trkpt lat="44.4890947" lon="10.6619173"><ele>368.3333333333333</ele><time>2026-04-04T07:52:15.956Z</time></trkpt><trkpt lat="44.489146" lon="10.6618144"><ele>369.0</ele><time>2026-04-04T07:52:16.956Z</time></trkpt><trkpt lat="44.4891983" lon="10.6617139"><ele>369.1666666666667</ele><time>2026-04-04T07:52:17.955Z</time></trkpt><trkpt lat="44.48924" lon="10.6616124"><ele>369.3333333333333</ele><time>2026-04-04T07:52:18.955Z</time></trkpt><trkpt lat="44.4892688" lon="10.6614978"><ele>369.5</ele><time>2026-04-04T07:52:19.956Z</time></trkpt><trkpt lat="44.4892823" lon="10.6613827"><ele>369.66666666666663</ele><time>2026-04-04T07:52:20.955Z</time></trkpt><trkpt lat="44.489282" lon="10.6612653"><ele>369.8333333333333</ele><time>2026-04-04T07:52:21.956Z</time></trkpt><trkpt lat="44.4892799" lon="10.6611488"><ele>370.0</ele><time>2026-04-04T07:52:22.955Z</time></trkpt><trkpt lat="44.4892727" lon="10.6610205"><ele>371.2</ele><time>2026-04-04T07:52:23.956Z</time></trkpt><trkpt lat="44.4892607" lon="10.6608806"><ele>372.4</ele><time>2026-04-04T07:52:24.956Z</time></trkpt><trkpt lat="44.489252" lon="10.6607364"><ele>373.6</ele><time>2026-04-04T07:52:25.956Z</time></trkpt><trkpt lat="44.4892457" lon="10.6606012"><ele>374.8</ele><time>2026-04-04T07:52:26.956Z</time></trkpt><trkpt lat="44.489248" lon="10.6604736"><ele>376.0</ele><time>2026-04-04T07:52:27.956Z</time></trkpt><trkpt lat="44.4892719" lon="10.6603531"><ele>378.8</ele><time>2026-04-04T07:52:28.956Z</time></trkpt><trkpt lat="44.4892837" lon="10.6602329"><ele>381.6</ele><time>2026-04-04T07:52:29.956Z</time></trkpt><trkpt lat="44.489273" lon="10.660104"><ele>384.4</ele><time>2026-04-04T07:52:30.956Z</time></trkpt><trkpt lat="44.4892742" lon="10.6599595"><ele>387.2</ele><time>2026-04-04T07:52:31.956Z</time></trkpt><trkpt lat="44.4892967" lon="10.6598321"><ele>390.0</ele><time>2026-04-04T07:52:32.956Z</time></trkpt><trkpt lat="44.4893328" lon="10.6597083"><ele>390.0</ele><time>2026-04-04T07:52:33.955Z</time></trkpt><trkpt lat="44.4893637" lon="10.6595834"><ele>390.0</ele><time>2026-04-04T07:52:34.956Z</time></trkpt><trkpt lat="44.4893989" lon="10.659444"><ele>390.0</ele><time>2026-04-04T07:52:35.956Z</time></trkpt><trkpt lat="44.4894287" lon="10.6593109"><ele>390.0</ele><time>2026-04-04T07:52:36.955Z</time></trkpt><trkpt lat="44.4894763" lon="10.6591824"><ele>390.0</ele><time>2026-04-04T07:52:37.955Z</time></trkpt><trkpt lat="44.4895316" lon="10.6590684"><ele>391.0</ele><time>2026-04-04T07:52:38.956Z</time></trkpt><trkpt lat="44.4895891" lon="10.6589602"><ele>392.0</ele><time>2026-04-04T07:52:39.956Z</time></trkpt><trkpt lat="44.4896277" lon="10.6588499"><ele>393.0</ele><time>2026-04-04T07:52:40.955Z</time></trkpt><trkpt lat="44.4896332" lon="10.6587306"><ele>394.0</ele><time>2026-04-04T07:52:41.956Z</time></trkpt><trkpt lat="44.4896249" lon="10.6586048"><ele>395.0</ele><time>2026-04-04T07:52:42.956Z</time></trkpt><trkpt lat="44.4896322" lon="10.6584854"><ele>396.0</ele><time>2026-04-04T07:52:43.956Z</time></trkpt><trkpt lat="44.4896452" lon="10.6583664"><ele>397.20000000000005</ele><time>2026-04-04T07:52:44.956Z</time></trkpt><trkpt lat="44.4896439" lon="10.658236"><ele>398.40000000000003</ele><time>2026-04-04T07:52:45.956Z</time></trkpt><trkpt lat="44.4896323" lon="10.6580853"><ele>399.6</ele><time>2026-04-04T07:52:46.956Z</time></trkpt><trkpt lat="44.4896203" lon="10.6579436"><ele>400.8</ele><time>2026-04-04T07:52:47.956Z</time></trkpt><trkpt lat="44.4896073" lon="10.6578011"><ele>402.0</ele><time>2026-04-04T07:52:48.956Z</time></trkpt><trkpt lat="44.4895906" lon="10.6576693"><ele>403.2857142857143</ele><time>2026-04-04T07:52:49.956Z</time></trkpt><trkpt lat="44.4895709" lon="10.6575449"><ele>404.5714285714286</ele><time>2026-04-04T07:52:50.955Z</time></trkpt><trkpt lat="44.4895607" lon="10.6574353"><ele>405.8571428571429</ele><time>2026-04-04T07:52:51.956Z</time></trkpt><trkpt lat="44.4895667" lon="10.6573446"><ele>407.1428571428571</ele><time>2026-04-04T07:52:52.956Z</time></trkpt><trkpt lat="44.4896101" lon="10.6572708"><ele>408.42857142857144</ele><time>2026-04-04T07:52:53.955Z</time></trkpt><trkpt lat="44.4896666" lon="10.6572078"><ele>409.7142857142857</ele><time>2026-04-04T07:52:54.955Z</time></trkpt><trkpt lat="44.4897321" lon="10.6571593"><ele>411.0</ele><time>2026-04-04T07:52:55.956Z</time></trkpt><trkpt lat="44.4897922" lon="10.6571195"><ele>411.0</ele><time>2026-04-04T07:52:56.955Z</time></trkpt><trkpt lat="44.4898475" lon="10.6569726"><ele>411.0</ele><time>2026-04-04T07:52:58.956Z</time></trkpt><trkpt lat="44.4898828" lon="10.6568232"><ele>411.0</ele><time>2026-04-04T07:53:00.956Z</time></trkpt><trkpt lat="44.4899606" lon="10.6567217"><ele>411.0</ele><time>2026-04-04T07:53:02.956Z</time></trkpt><trkpt lat="44.4900303" lon="10.656666"><ele>411.0</ele><time>2026-04-04T07:53:03.956Z</time></trkpt><trkpt lat="44.4901057" lon="10.6565996"><ele>410.20000000000005</ele><time>2026-04-04T07:53:04.956Z</time></trkpt><trkpt lat="44.4901853" lon="10.6565414"><ele>409.40000000000003</ele><time>2026-04-04T07:53:05.956Z</time></trkpt><trkpt lat="44.4902741" lon="10.65648"><ele>408.6</ele><time>2026-04-04T07:53:06.956Z</time></trkpt><trkpt lat="44.4903561" lon="10.6564255"><ele>407.8</ele><time>2026-04-04T07:53:07.956Z</time></trkpt><trkpt lat="44.4904465" lon="10.6563696"><ele>407.0</ele><time>2026-04-04T07:53:08.955Z</time></trkpt><trkpt lat="44.4905334" lon="10.6563265"><ele>407.0</ele><time>2026-04-04T07:53:09.955Z</time></trkpt><trkpt lat="44.490638" lon="10.6562776"><ele>407.0</ele><time>2026-04-04T07:53:10.956Z</time></trkpt><trkpt lat="44.4907568" lon="10.6562277"><ele>407.0</ele><time>2026-04-04T07:53:11.956Z</time></trkpt><trkpt lat="44.4908729" lon="10.6561764"><ele>407.0</ele><time>2026-04-04T07:53:12.956Z</time></trkpt><trkpt lat="44.4909816" lon="10.6561241"><ele>409.75</ele><time>2026-04-04T07:53:13.955Z</time></trkpt><trkpt lat="44.4910894" lon="10.6560704"><ele>412.5</ele><time>2026-04-04T07:53:14.956Z</time></trkpt><trkpt lat="44.4912036" lon="10.6560103"><ele>415.25</ele><time>2026-04-04T07:53:15.955Z</time></trkpt><trkpt lat="44.4913268" lon="10.6559412"><ele>418.0</ele><time>2026-04-04T07:53:16.956Z</time></trkpt><trkpt lat="44.491435" lon="10.6558616"><ele>418.59999999999997</ele><time>2026-04-04T07:53:17.955Z</time></trkpt><trkpt lat="44.4915224" lon="10.6557711"><ele>419.2</ele><time>2026-04-04T07:53:18.955Z</time></trkpt><trkpt lat="44.4916009" lon="10.6556874"><ele>419.8</ele><time>2026-04-04T07:53:19.955Z</time></trkpt><trkpt lat="44.4916825" lon="10.6556138"><ele>420.4</ele><time>2026-04-04T07:53:20.955Z</time></trkpt><trkpt lat="44.4917795" lon="10.6555492"><ele>421.0</ele><time>2026-04-04T07:53:21.955Z</time></trkpt><trkpt lat="44.4918755" lon="10.6555161"><ele>421.0</ele><time>2026-04-04T07:53:22.956Z</time></trkpt><trkpt lat="44.4919749" lon="10.6555023"><ele>421.0</ele><time>2026-04-04T07:53:23.955Z</time></trkpt><trkpt lat="44.4920648" lon="10.6555081"><ele>421.0</ele><time>2026-04-04T07:53:24.955Z</time></trkpt><trkpt lat="44.4921333" lon="10.6554989"><ele>421.0</ele><time>2026-04-04T07:53:25.956Z</time></trkpt><trkpt lat="44.4922204" lon="10.6554272"><ele>421.0</ele><time>2026-04-04T07:53:27.956Z</time></trkpt><trkpt lat="44.4922962" lon="10.6553406"><ele>422.6666666666667</ele><time>2026-04-04T07:53:29.956Z</time></trkpt><trkpt lat="44.4923372" lon="10.655213"><ele>424.33333333333337</ele><time>2026-04-04T07:53:31.955Z</time></trkpt><trkpt lat="44.4923364" lon="10.6551243"><ele>426.0</ele><time>2026-04-04T07:53:32.956Z</time></trkpt><trkpt lat="44.4923304" lon="10.6550188"><ele>427.66666666666663</ele><time>2026-04-04T07:53:33.956Z</time></trkpt><trkpt lat="44.4923342" lon="10.6549048"><ele>429.3333333333333</ele><time>2026-04-04T07:53:34.956Z</time></trkpt><trkpt lat="44.4923538" lon="10.6547972"><ele>431.0</ele><time>2026-04-04T07:53:35.955Z</time></trkpt><trkpt lat="44.4923899" lon="10.6546913"><ele>430.99999999999994</ele><time>2026-04-04T07:53:36.955Z</time></trkpt><trkpt lat="44.4924393" lon="10.6546032"><ele>431.0</ele><time>2026-04-04T07:53:37.955Z</time></trkpt><trkpt lat="44.4925074" lon="10.6545148"><ele>431.0</ele><time>2026-04-04T07:53:38.956Z</time></trkpt><trkpt lat="44.4925625" lon="10.6544139"><ele>431.0</ele><time>2026-04-04T07:53:39.956Z</time></trkpt><trkpt lat="44.4926022" lon="10.6543095"><ele>430.99999999999994</ele><time>2026-04-04T07:53:40.956Z</time></trkpt><trkpt lat="44.4926326" lon="10.6541935"><ele>431.0</ele><time>2026-04-04T07:53:41.956Z</time></trkpt><trkpt lat="44.4926606" lon="10.6540829"><ele>431.3333333333333</ele><time>2026-04-04T07:53:42.955Z</time></trkpt><trkpt lat="44.4926791" lon="10.6539847"><ele>431.66666666666663</ele><time>2026-04-04T07:53:43.955Z</time></trkpt><trkpt lat="44.4926971" lon="10.6538785"><ele>432.0</ele><time>2026-04-04T07:53:44.955Z</time></trkpt><trkpt lat="44.492708" lon="10.6537759"><ele>432.33333333333337</ele><time>2026-04-04T07:53:45.955Z</time></trkpt><trkpt lat="44.4926848" lon="10.6536808"><ele>432.6666666666667</ele><time>2026-04-04T07:53:46.956Z</time></trkpt><trkpt lat="44.4926432" lon="10.6535904"><ele>433.0</ele><time>2026-04-04T07:53:47.956Z</time></trkpt><trkpt lat="44.4925862" lon="10.653466"><ele>433.00000000000006</ele><time>2026-04-04T07:53:48.956Z</time></trkpt><trkpt lat="44.4925214" lon="10.6533415"><ele>433.0</ele><time>2026-04-04T07:53:49.956Z</time></trkpt><trkpt lat="44.4924644" lon="10.653226"><ele>433.0</ele><time>2026-04-04T07:53:50.956Z</time></trkpt><trkpt lat="44.4924196" lon="10.653137"><ele>433.0</ele><time>2026-04-04T07:53:51.956Z</time></trkpt><trkpt lat="44.4923948" lon="10.6530542"><ele>433.00000000000006</ele><time>2026-04-04T07:53:52.956Z</time></trkpt><trkpt lat="44.4923784" lon="10.6529383"><ele>433.0</ele><time>2026-04-04T07:53:53.956Z</time></trkpt><trkpt lat="44.4923506" lon="10.6528108"><ele>432.2</ele><time>2026-04-04T07:53:54.956Z</time></trkpt><trkpt lat="44.4922998" lon="10.6526771"><ele>431.4</ele><time>2026-04-04T07:53:55.955Z</time></trkpt><trkpt lat="44.4922531" lon="10.6525502"><ele>430.59999999999997</ele><time>2026-04-04T07:53:56.956Z</time></trkpt><trkpt lat="44.4922138" lon="10.6524182"><ele>429.79999999999995</ele><time>2026-04-04T07:53:57.955Z</time></trkpt><trkpt lat="44.4921809" lon="10.6522784"><ele>429.0</ele><time>2026-04-04T07:53:58.955Z</time></trkpt><trkpt lat="44.4921411" lon="10.6521565"><ele>429.0</ele><time>2026-04-04T07:53:59.956Z</time></trkpt><trkpt lat="44.492106" lon="10.6520417"><ele>429.0</ele><time>2026-04-04T07:54:00.956Z</time></trkpt><trkpt lat="44.4920837" lon="10.6519318"><ele>429.0</ele><time>2026-04-04T07:54:01.956Z</time></trkpt><trkpt lat="44.4920741" lon="10.6518137"><ele>429.0</ele><time>2026-04-04T07:54:02.956Z</time></trkpt><trkpt lat="44.4920559" lon="10.651691"><ele>429.0</ele><time>2026-04-04T07:54:03.955Z</time></trkpt><trkpt lat="44.4920217" lon="10.651549"><ele>430.79999999999995</ele><time>2026-04-04T07:54:04.956Z</time></trkpt><trkpt lat="44.4919863" lon="10.6514208"><ele>432.59999999999997</ele><time>2026-04-04T07:54:05.956Z</time></trkpt><trkpt lat="44.4919556" lon="10.6512991"><ele>434.4</ele><time>2026-04-04T07:54:06.955Z</time></trkpt><trkpt lat="44.491912" lon="10.6511931"><ele>436.2</ele><time>2026-04-04T07:54:07.956Z</time></trkpt><trkpt lat="44.4918687" lon="10.6510781"><ele>438.0</ele><time>2026-04-04T07:54:08.955Z</time></trkpt><trkpt lat="44.4918295" lon="10.6509679"><ele>438.0</ele><time>2026-04-04T07:54:09.955Z</time></trkpt><trkpt lat="44.4917965" lon="10.6508603"><ele>438.0</ele><time>2026-04-04T07:54:10.956Z</time></trkpt><trkpt lat="44.4917655" lon="10.6507539"><ele>438.0</ele><time>2026-04-04T07:54:11.956Z</time></trkpt><trkpt lat="44.4917349" lon="10.6506489"><ele>438.0</ele><time>2026-04-04T07:54:12.956Z</time></trkpt><trkpt lat="44.4917006" lon="10.6505444"><ele>438.0</ele><time>2026-04-04T07:54:13.956Z</time></trkpt><trkpt lat="44.4916603" lon="10.6504379"><ele>438.0</ele><time>2026-04-04T07:54:14.956Z</time></trkpt><trkpt lat="44.491621" lon="10.6503234"><ele>437.0</ele><time>2026-04-04T07:54:15.955Z</time></trkpt><trkpt lat="44.4915938" lon="10.6502138"><ele>436.0</ele><time>2026-04-04T07:54:16.956Z</time></trkpt><trkpt lat="44.4915753" lon="10.6500975"><ele>435.0</ele><time>2026-04-04T07:54:17.956Z</time></trkpt><trkpt lat="44.4915652" lon="10.6499823"><ele>434.0</ele><time>2026-04-04T07:54:18.956Z</time></trkpt><trkpt lat="44.4915534" lon="10.649871"><ele>433.0</ele><time>2026-04-04T07:54:19.956Z</time></trkpt><trkpt lat="44.4915434" lon="10.6497702"><ele>432.0</ele><time>2026-04-04T07:54:20.956Z</time></trkpt><trkpt lat="44.4915295" lon="10.6496733"><ele>432.0</ele><time>2026-04-04T07:54:21.956Z</time></trkpt><trkpt lat="44.4915121" lon="10.6495787"><ele>432.0</ele><time>2026-04-04T07:54:22.955Z</time></trkpt><trkpt lat="44.4914906" lon="10.64948"><ele>432.0</ele><time>2026-04-04T07:54:23.956Z</time></trkpt><trkpt lat="44.4914599" lon="10.6493841"><ele>432.0</ele><time>2026-04-04T07:54:24.956Z</time></trkpt><trkpt lat="44.4914221" lon="10.6492945"><ele>432.0</ele><time>2026-04-04T07:54:25.956Z</time></trkpt><trkpt lat="44.491363" lon="10.6492162"><ele>432.0</ele><time>2026-04-04T07:54:26.956Z</time></trkpt><trkpt lat="44.4912929" lon="10.6491543"><ele>429.0</ele><time>2026-04-04T07:54:27.955Z</time></trkpt><trkpt lat="44.4912236" lon="10.6491089"><ele>426.00000000000006</ele><time>2026-04-04T07:54:28.955Z</time></trkpt><trkpt lat="44.4911179" lon="10.6490988"><ele>423.0</ele><time>2026-04-04T07:54:30.956Z</time></trkpt><trkpt lat="44.4909895" lon="10.6491284"><ele>420.0</ele><time>2026-04-04T07:54:32.956Z</time></trkpt><trkpt lat="44.4909122" lon="10.6491469"><ele>417.0</ele><time>2026-04-04T07:54:33.956Z</time></trkpt><trkpt lat="44.4908461" lon="10.6491492"><ele>417.0</ele><time>2026-04-04T07:54:34.956Z</time></trkpt><trkpt lat="44.4907629" lon="10.6491431"><ele>417.0</ele><time>2026-04-04T07:54:36.956Z</time></trkpt><trkpt lat="44.4907004" lon="10.64909"><ele>417.0</ele><time>2026-04-04T07:54:40.955Z</time></trkpt><trkpt lat="44.4906075" lon="10.6489798"><ele>417.0</ele><time>2026-04-04T07:54:42.956Z</time></trkpt><trkpt lat="44.4905235" lon="10.6489594"><ele>417.0</ele><time>2026-04-04T07:54:44.955Z</time></trkpt><trkpt lat="44.4904393" lon="10.6489155"><ele>415.0</ele><time>2026-04-04T07:54:46.956Z</time></trkpt><trkpt lat="44.4903983" lon="10.6488222"><ele>413.0</ele><time>2026-04-04T07:54:47.955Z</time></trkpt><trkpt lat="44.4903491" lon="10.6486896"><ele>411.0</ele><time>2026-04-04T07:54:48.956Z</time></trkpt><trkpt lat="44.4902903" lon="10.6485241"><ele>409.0</ele><time>2026-04-04T07:54:49.956Z</time></trkpt><trkpt lat="44.4902319" lon="10.6483633"><ele>407.0</ele><time>2026-04-04T07:54:50.956Z</time></trkpt><trkpt lat="44.4901722" lon="10.6482178"><ele>406.99999999999994</ele><time>2026-04-04T07:54:51.956Z</time></trkpt><trkpt lat="44.4901166" lon="10.6480957"><ele>407.0</ele><time>2026-04-04T07:54:52.955Z</time></trkpt><trkpt lat="44.4900657" lon="10.6479737"><ele>407.0</ele><time>2026-04-04T07:54:53.956Z</time></trkpt><trkpt lat="44.4900327" lon="10.6478632"><ele>407.0</ele><time>2026-04-04T07:54:54.955Z</time></trkpt><trkpt lat="44.4900218" lon="10.6477504"><ele>406.99999999999994</ele><time>2026-04-04T07:54:55.956Z</time></trkpt><trkpt lat="44.490011" lon="10.6476455"><ele>407.0</ele><time>2026-04-04T07:54:56.956Z</time></trkpt><trkpt lat="44.4899942" lon="10.6475462"><ele>406.3333333333333</ele><time>2026-04-04T07:54:57.956Z</time></trkpt><trkpt lat="44.4899728" lon="10.6474388"><ele>405.66666666666663</ele><time>2026-04-04T07:54:58.955Z</time></trkpt><trkpt lat="44.4899328" lon="10.6473328"><ele>405.0</ele><time>2026-04-04T07:54:59.956Z</time></trkpt><trkpt lat="44.4898808" lon="10.6472332"><ele>404.33333333333337</ele><time>2026-04-04T07:55:00.956Z</time></trkpt><trkpt lat="44.4898255" lon="10.6471382"><ele>403.6666666666667</ele><time>2026-04-04T07:55:01.956Z</time></trkpt><trkpt lat="44.4897629" lon="10.6470387"><ele>403.0</ele><time>2026-04-04T07:55:02.956Z</time></trkpt><trkpt lat="44.4896941" lon="10.6469307"><ele>400.6666666666667</ele><time>2026-04-04T07:55:03.955Z</time></trkpt><trkpt lat="44.4896239" lon="10.6468324"><ele>398.33333333333337</ele><time>2026-04-04T07:55:04.956Z</time></trkpt><trkpt lat="44.4895495" lon="10.646746"><ele>396.0</ele><time>2026-04-04T07:55:05.956Z</time></trkpt><trkpt lat="44.4894782" lon="10.646667"><ele>393.66666666666663</ele><time>2026-04-04T07:55:06.956Z</time></trkpt><trkpt lat="44.4894161" lon="10.646592"><ele>391.3333333333333</ele><time>2026-04-04T07:55:07.956Z</time></trkpt><trkpt lat="44.4893691" lon="10.6465194"><ele>389.0</ele><time>2026-04-04T07:55:08.956Z</time></trkpt><trkpt lat="44.4893245" lon="10.6463829"><ele>387.0</ele><time>2026-04-04T07:55:10.956Z</time></trkpt><trkpt lat="44.48928" lon="10.6462581"><ele>385.0</ele><time>2026-04-04T07:55:12.955Z</time></trkpt><trkpt lat="44.4891853" lon="10.6461923"><ele>383.0</ele><time>2026-04-04T07:55:14.956Z</time></trkpt><trkpt lat="44.489089" lon="10.6461633"><ele>381.0</ele><time>2026-04-04T07:55:16.956Z</time></trkpt><trkpt lat="44.4890798" lon="10.6460132"><ele>379.0</ele><time>2026-04-04T07:55:18.956Z</time></trkpt><trkpt lat="44.489155" lon="10.6458705"><ele>377.0</ele><time>2026-04-04T07:55:20.955Z</time></trkpt><trkpt lat="44.489188" lon="10.6457333"><ele>375.0</ele><time>2026-04-04T07:55:22.956Z</time></trkpt><trkpt lat="44.4890985" lon="10.6456284"><ele>373.0</ele><time>2026-04-04T07:55:24.956Z</time></trkpt><trkpt lat="44.4890232" lon="10.6455885"><ele>371.0</ele><time>2026-04-04T07:55:25.955Z</time></trkpt><trkpt lat="44.4889355" lon="10.6455562"><ele>369.0</ele><time>2026-04-04T07:55:26.956Z</time></trkpt><trkpt lat="44.4888507" lon="10.6455228"><ele>369.0</ele><time>2026-04-04T07:55:27.956Z</time></trkpt><trkpt lat="44.4887622" lon="10.6454873"><ele>369.0</ele><time>2026-04-04T07:55:28.956Z</time></trkpt><trkpt lat="44.4886678" lon="10.6454574"><ele>369.0</ele><time>2026-04-04T07:55:29.956Z</time></trkpt><trkpt lat="44.488567" lon="10.6454433"><ele>369.0</ele><time>2026-04-04T07:55:30.956Z</time></trkpt><trkpt lat="44.4884676" lon="10.6454442"><ele>369.0</ele><time>2026-04-04T07:55:31.955Z</time></trkpt><trkpt lat="44.4883631" lon="10.6454478"><ele>367.0</ele><time>2026-04-04T07:55:32.956Z</time></trkpt><trkpt lat="44.4882589" lon="10.6454261"><ele>365.0</ele><time>2026-04-04T07:55:33.956Z</time></trkpt><trkpt lat="44.4881596" lon="10.6453925"><ele>363.0</ele><time>2026-04-04T07:55:34.956Z</time></trkpt><trkpt lat="44.488057" lon="10.6453468"><ele>361.0</ele><time>2026-04-04T07:55:35.955Z</time></trkpt><trkpt lat="44.4879466" lon="10.6453041"><ele>359.0</ele><time>2026-04-04T07:55:36.955Z</time></trkpt><trkpt lat="44.4878438" lon="10.6452622"><ele>354.79999999999995</ele><time>2026-04-04T07:55:37.956Z</time></trkpt><trkpt lat="44.4877456" lon="10.6452222"><ele>350.59999999999997</ele><time>2026-04-04T07:55:38.956Z</time></trkpt><trkpt lat="44.4876709" lon="10.6451671"><ele>346.4</ele><time>2026-04-04T07:55:39.956Z</time></trkpt><trkpt lat="44.4876162" lon="10.6450807"><ele>342.2</ele><time>2026-04-04T07:55:40.955Z</time></trkpt><trkpt lat="44.4875755" lon="10.6449568"><ele>338.0</ele><time>2026-04-04T07:55:41.955Z</time></trkpt><trkpt lat="44.4875561" lon="10.644827"><ele>338.0</ele><time>2026-04-04T07:55:42.955Z</time></trkpt><trkpt lat="44.4875011" lon="10.6447113"><ele>338.0</ele><time>2026-04-04T07:55:43.956Z</time></trkpt><trkpt lat="44.4874423" lon="10.6446043"><ele>338.0</ele><time>2026-04-04T07:55:44.955Z</time></trkpt><trkpt lat="44.4873841" lon="10.6445002"><ele>338.0</ele><time>2026-04-04T07:55:45.956Z</time></trkpt><trkpt lat="44.4873338" lon="10.6444052"><ele>338.0</ele><time>2026-04-04T07:55:46.955Z</time></trkpt><trkpt lat="44.4872944" lon="10.6443071"><ele>336.83333333333337</ele><time>2026-04-04T07:55:47.956Z</time></trkpt><trkpt lat="44.4872603" lon="10.6442139"><ele>335.6666666666667</ele><time>2026-04-04T07:55:48.956Z</time></trkpt><trkpt lat="44.4872068" lon="10.6441408"><ele>334.5</ele><time>2026-04-04T07:55:49.956Z</time></trkpt><trkpt lat="44.4871221" lon="10.6440867"><ele>333.3333333333333</ele><time>2026-04-04T07:55:50.956Z</time></trkpt><trkpt lat="44.4870361" lon="10.6440524"><ele>332.16666666666663</ele><time>2026-04-04T07:55:51.955Z</time></trkpt><trkpt lat="44.4869467" lon="10.6440146"><ele>331.0</ele><time>2026-04-04T07:55:52.956Z</time></trkpt><trkpt lat="44.4868517" lon="10.6439847"><ele>329.20000000000005</ele><time>2026-04-04T07:55:53.956Z</time></trkpt><trkpt lat="44.4867499" lon="10.6439602"><ele>327.40000000000003</ele><time>2026-04-04T07:55:54.956Z</time></trkpt><trkpt lat="44.4866451" lon="10.6439503"><ele>325.6</ele><time>2026-04-04T07:55:55.956Z</time></trkpt><trkpt lat="44.4865378" lon="10.6439467"><ele>323.8</ele><time>2026-04-04T07:55:56.955Z</time></trkpt><trkpt lat="44.486429" lon="10.6439488"><ele>322.0</ele><time>2026-04-04T07:55:57.955Z</time></trkpt><trkpt lat="44.4863194" lon="10.6439478"><ele>319.0</ele><time>2026-04-04T07:55:58.956Z</time></trkpt><trkpt lat="44.4862043" lon="10.6439462"><ele>316.0</ele><time>2026-04-04T07:55:59.955Z</time></trkpt><trkpt lat="44.4860915" lon="10.643941"><ele>313.0</ele><time>2026-04-04T07:56:00.956Z</time></trkpt><trkpt lat="44.485982" lon="10.6439342"><ele>310.0</ele><time>2026-04-04T07:56:01.955Z</time></trkpt><trkpt lat="44.4858713" lon="10.6439232"><ele>307.0</ele><time>2026-04-04T07:56:02.955Z</time></trkpt><trkpt lat="44.4857647" lon="10.643911"><ele>307.0</ele><time>2026-04-04T07:56:03.956Z</time></trkpt><trkpt lat="44.4856531" lon="10.6438948"><ele>307.0</ele><time>2026-04-04T07:56:04.955Z</time></trkpt><trkpt lat="44.4855459" lon="10.643881"><ele>307.0</ele><time>2026-04-04T07:56:05.955Z</time></trkpt><trkpt lat="44.4854395" lon="10.6438643"><ele>307.0</ele><time>2026-04-04T07:56:06.955Z</time></trkpt><trkpt lat="44.4853328" lon="10.6438359"><ele>307.0</ele><time>2026-04-04T07:56:07.956Z</time></trkpt><trkpt lat="44.4852339" lon="10.6438001"><ele>304.6</ele><time>2026-04-04T07:56:08.956Z</time></trkpt><trkpt lat="44.4851359" lon="10.6437457"><ele>302.2</ele><time>2026-04-04T07:56:09.955Z</time></trkpt><trkpt lat="44.4850395" lon="10.6436934"><ele>299.8</ele><time>2026-04-04T07:56:10.956Z</time></trkpt><trkpt lat="44.4849385" lon="10.6436676"><ele>297.4</ele><time>2026-04-04T07:56:11.955Z</time></trkpt><trkpt lat="44.4848447" lon="10.6436874"><ele>295.0</ele><time>2026-04-04T07:56:12.956Z</time></trkpt><trkpt lat="44.4847585" lon="10.6437552"><ele>295.0</ele><time>2026-04-04T07:56:13.956Z</time></trkpt><trkpt lat="44.4846805" lon="10.6438575"><ele>295.0</ele><time>2026-04-04T07:56:14.955Z</time></trkpt><trkpt lat="44.4845991" lon="10.6439734"><ele>295.0</ele><time>2026-04-04T07:56:15.956Z</time></trkpt><trkpt lat="44.4845017" lon="10.644091"><ele>295.0</ele><time>2026-04-04T07:56:16.956Z</time></trkpt><trkpt lat="44.4844091" lon="10.6441769"><ele>294.0</ele><time>2026-04-04T07:56:17.955Z</time></trkpt><trkpt lat="44.4843086" lon="10.6442455"><ele>293.0</ele><time>2026-04-04T07:56:18.956Z</time></trkpt><trkpt lat="44.4842165" lon="10.6443247"><ele>292.0</ele><time>2026-04-04T07:56:19.955Z</time></trkpt><trkpt lat="44.4841344" lon="10.6443931"><ele>291.0</ele><time>2026-04-04T07:56:20.956Z</time></trkpt><trkpt lat="44.4840708" lon="10.6444104"><ele>290.0</ele><time>2026-04-04T07:56:21.956Z</time></trkpt><trkpt lat="44.484008" lon="10.644394"><ele>289.0</ele><time>2026-04-04T07:56:22.956Z</time></trkpt><trkpt lat="44.4839832" lon="10.6442183"><ele>289.0</ele><time>2026-04-04T07:56:24.956Z</time></trkpt><trkpt lat="44.4839955" lon="10.6441048"><ele>289.0</ele><time>2026-04-04T07:56:25.955Z</time></trkpt><trkpt lat="44.4840405" lon="10.6439766"><ele>289.0</ele><time>2026-04-04T07:56:26.956Z</time></trkpt><trkpt lat="44.4840895" lon="10.6438493"><ele>289.0</ele><time>2026-04-04T07:56:27.955Z</time></trkpt><trkpt lat="44.4841379" lon="10.6437049"><ele>289.0</ele><time>2026-04-04T07:56:28.956Z</time></trkpt><trkpt lat="44.4841596" lon="10.643551"><ele>287.59999999999997</ele><time>2026-04-04T07:56:29.956Z</time></trkpt><trkpt lat="44.484174" lon="10.6433779"><ele>286.2</ele><time>2026-04-04T07:56:30.956Z</time></trkpt><trkpt lat="44.4841804" lon="10.6432251"><ele>284.79999999999995</ele><time>2026-04-04T07:56:31.956Z</time></trkpt><trkpt lat="44.4841755" lon="10.6430895"><ele>283.4</ele><time>2026-04-04T07:56:32.956Z</time></trkpt><trkpt lat="44.4841504" lon="10.6429717"><ele>282.0</ele><time>2026-04-04T07:56:33.956Z</time></trkpt><trkpt lat="44.4841" lon="10.6428659"><ele>280.2</ele><time>2026-04-04T07:56:34.955Z</time></trkpt><trkpt lat="44.484025" lon="10.6427871"><ele>278.4</ele><time>2026-04-04T07:56:35.955Z</time></trkpt><trkpt lat="44.4839408" lon="10.6427097"><ele>276.6</ele><time>2026-04-04T07:56:36.955Z</time></trkpt><trkpt lat="44.4838561" lon="10.6426154"><ele>274.8</ele><time>2026-04-04T07:56:37.956Z</time></trkpt><trkpt lat="44.4837751" lon="10.6425289"><ele>273.0</ele><time>2026-04-04T07:56:38.956Z</time></trkpt><trkpt lat="44.4836975" lon="10.6424217"><ele>270.8</ele><time>2026-04-04T07:56:39.956Z</time></trkpt><trkpt lat="44.4836388" lon="10.6422917"><ele>268.6</ele><time>2026-04-04T07:56:40.955Z</time></trkpt><trkpt lat="44.4836087" lon="10.6421362"><ele>266.4</ele><time>2026-04-04T07:56:41.955Z</time></trkpt><trkpt lat="44.4835894" lon="10.6419843"><ele>264.2</ele><time>2026-04-04T07:56:42.955Z</time></trkpt><trkpt lat="44.483555" lon="10.6418415"><ele>262.0</ele><time>2026-04-04T07:56:43.955Z</time></trkpt><trkpt lat="44.4835065" lon="10.6417297"><ele>260.8</ele><time>2026-04-04T07:56:44.956Z</time></trkpt><trkpt lat="44.4834289" lon="10.641635"><ele>259.6</ele><time>2026-04-04T07:56:45.956Z</time></trkpt><trkpt lat="44.4833482" lon="10.6415512"><ele>258.40000000000003</ele><time>2026-04-04T07:56:46.956Z</time></trkpt><trkpt lat="44.4832681" lon="10.641482"><ele>257.2</ele><time>2026-04-04T07:56:47.956Z</time></trkpt><trkpt lat="44.4831898" lon="10.6414204"><ele>256.0</ele><time>2026-04-04T07:56:48.956Z</time></trkpt><trkpt lat="44.4831172" lon="10.6413411"><ele>255.99999999999997</ele><time>2026-04-04T07:56:49.955Z</time></trkpt><trkpt lat="44.4830516" lon="10.6412522"><ele>256.0</ele><time>2026-04-04T07:56:50.956Z</time></trkpt><trkpt lat="44.4829973" lon="10.6411731"><ele>256.0</ele><time>2026-04-04T07:56:51.955Z</time></trkpt><trkpt lat="44.4829478" lon="10.6411074"><ele>256.0</ele><time>2026-04-04T07:56:52.956Z</time></trkpt><trkpt lat="44.4828797" lon="10.6410019"><ele>255.99999999999997</ele><time>2026-04-04T07:56:54.956Z</time></trkpt><trkpt lat="44.4828823" lon="10.6408664"><ele>256.0</ele><time>2026-04-04T07:56:56.956Z</time></trkpt><trkpt lat="44.4829336" lon="10.6407998"><ele>255.0</ele><time>2026-04-04T07:56:57.956Z</time></trkpt><trkpt lat="44.4829957" lon="10.6407391"><ele>254.00000000000003</ele><time>2026-04-04T07:56:58.956Z</time></trkpt><trkpt lat="44.4830724" lon="10.6406813"><ele>253.00000000000003</ele><time>2026-04-04T07:56:59.955Z</time></trkpt><trkpt lat="44.4831505" lon="10.6406101"><ele>252.0</ele><time>2026-04-04T07:57:00.955Z</time></trkpt><trkpt lat="44.4832311" lon="10.6405517"><ele>251.0</ele><time>2026-04-04T07:57:01.955Z</time></trkpt><trkpt lat="44.4833339" lon="10.6405042"><ele>251.0</ele><time>2026-04-04T07:57:02.956Z</time></trkpt><trkpt lat="44.4834368" lon="10.6404595"><ele>251.0</ele><time>2026-04-04T07:57:03.956Z</time></trkpt><trkpt lat="44.4835434" lon="10.6404073"><ele>251.0</ele><time>2026-04-04T07:57:04.956Z</time></trkpt><trkpt lat="44.4836561" lon="10.6403564"><ele>251.0</ele><time>2026-04-04T07:57:05.956Z</time></trkpt><trkpt lat="44.4837694" lon="10.6403033"><ele>250.75</ele><time>2026-04-04T07:57:06.956Z</time></trkpt><trkpt lat="44.4838792" lon="10.6402276"><ele>250.5</ele><time>2026-04-04T07:57:07.956Z</time></trkpt><trkpt lat="44.4839715" lon="10.6400849"><ele>250.25</ele><time>2026-04-04T07:57:08.956Z</time></trkpt><trkpt lat="44.4840263" lon="10.6399423"><ele>250.0</ele><time>2026-04-04T07:57:09.955Z</time></trkpt><trkpt lat="44.4840539" lon="10.6397794"><ele>250.0</ele><time>2026-04-04T07:57:10.956Z</time></trkpt><trkpt lat="44.4840353" lon="10.6396157"><ele>250.0</ele><time>2026-04-04T07:57:11.955Z</time></trkpt><trkpt lat="44.4839926" lon="10.6394644"><ele>250.0</ele><time>2026-04-04T07:57:12.956Z</time></trkpt><trkpt lat="44.4839309" lon="10.6393437"><ele>250.0</ele><time>2026-04-04T07:57:13.956Z</time></trkpt><trkpt lat="44.4838686" lon="10.63926"><ele>250.0</ele><time>2026-04-04T07:57:14.956Z</time></trkpt><trkpt lat="44.4837779" lon="10.6392376"><ele>249.8</ele><time>2026-04-04T07:57:15.955Z</time></trkpt><trkpt lat="44.4836923" lon="10.6392693"><ele>249.6</ele><time>2026-04-04T07:57:16.956Z</time></trkpt><trkpt lat="44.4836104" lon="10.6393371"><ele>249.39999999999998</ele><time>2026-04-04T07:57:17.956Z</time></trkpt><trkpt lat="44.4835233" lon="10.6394018"><ele>249.2</ele><time>2026-04-04T07:57:18.956Z</time></trkpt><trkpt lat="44.4834239" lon="10.6394728"><ele>249.0</ele><time>2026-04-04T07:57:19.956Z</time></trkpt><trkpt lat="44.4833143" lon="10.6395468"><ele>249.0</ele><time>2026-04-04T07:57:20.956Z</time></trkpt><trkpt lat="44.4831954" lon="10.6396221"><ele>249.0</ele><time>2026-04-04T07:57:21.955Z</time></trkpt><trkpt lat="44.4830674" lon="10.6397094"><ele>249.0</ele><time>2026-04-04T07:57:22.955Z</time></trkpt><trkpt lat="44.4829371" lon="10.639795"><ele>249.0</ele><time>2026-04-04T07:57:23.956Z</time></trkpt><trkpt lat="44.4828066" lon="10.6398761"><ele>247.75</ele><time>2026-04-04T07:57:24.955Z</time></trkpt><trkpt lat="44.4826761" lon="10.6399604"><ele>246.5</ele><time>2026-04-04T07:57:25.956Z</time></trkpt><trkpt lat="44.4825433" lon="10.6400525"><ele>245.25</ele><time>2026-04-04T07:57:26.955Z</time></trkpt><trkpt lat="44.4824081" lon="10.6401382"><ele>244.0</ele><time>2026-04-04T07:57:27.956Z</time></trkpt><trkpt lat="44.4822707" lon="10.6402193"><ele>244.0</ele><time>2026-04-04T07:57:28.956Z</time></trkpt><trkpt lat="44.4821332" lon="10.6402827"><ele>244.0</ele><time>2026-04-04T07:57:29.956Z</time></trkpt><trkpt lat="44.4819912" lon="10.6403306"><ele>244.0</ele><time>2026-04-04T07:57:30.956Z</time></trkpt><trkpt lat="44.4818494" lon="10.6403513"><ele>244.0</ele><time>2026-04-04T07:57:31.955Z</time></trkpt><trkpt lat="44.4817042" lon="10.6403573"><ele>244.0</ele><time>2026-04-04T07:57:32.956Z</time></trkpt><trkpt lat="44.4815697" lon="10.6403426"><ele>244.0</ele><time>2026-04-04T07:57:33.956Z</time></trkpt><trkpt lat="44.4814456" lon="10.6403088"><ele>244.0</ele><time>2026-04-04T07:57:34.956Z</time></trkpt><trkpt lat="44.4813314" lon="10.640244"><ele>244.0</ele><time>2026-04-04T07:57:35.956Z</time></trkpt><trkpt lat="44.4812109" lon="10.6401533"><ele>247.0</ele><time>2026-04-04T07:57:36.956Z</time></trkpt><trkpt lat="44.4811328" lon="10.6400103"><ele>250.0</ele><time>2026-04-04T07:57:37.955Z</time></trkpt><trkpt lat="44.4810731" lon="10.6398341"><ele>253.0</ele><time>2026-04-04T07:57:38.956Z</time></trkpt><trkpt lat="44.481031" lon="10.6396493"><ele>256.0</ele><time>2026-04-04T07:57:39.955Z</time></trkpt><trkpt lat="44.4809859" lon="10.639471"><ele>255.25</ele><time>2026-04-04T07:57:40.956Z</time></trkpt><trkpt lat="44.4809414" lon="10.6392938"><ele>254.5</ele><time>2026-04-04T07:57:41.956Z</time></trkpt><trkpt lat="44.4809051" lon="10.6391279"><ele>253.75</ele><time>2026-04-04T07:57:42.956Z</time></trkpt><trkpt lat="44.4808947" lon="10.6389808"><ele>253.0</ele><time>2026-04-04T07:57:43.955Z</time></trkpt><trkpt lat="44.4809263" lon="10.638856"><ele>253.0</ele><time>2026-04-04T07:57:44.956Z</time></trkpt><trkpt lat="44.4809855" lon="10.6387534"><ele>253.0</ele><time>2026-04-04T07:57:45.956Z</time></trkpt><trkpt lat="44.4810664" lon="10.6386506"><ele>253.0</ele><time>2026-04-04T07:57:46.956Z</time></trkpt><trkpt lat="44.4811612" lon="10.6385344"><ele>253.0</ele><time>2026-04-04T07:57:47.956Z</time></trkpt><trkpt lat="44.4812474" lon="10.6384"><ele>251.75</ele><time>2026-04-04T07:57:48.956Z</time></trkpt><trkpt lat="44.4813114" lon="10.6382434"><ele>250.5</ele><time>2026-04-04T07:57:49.955Z</time></trkpt><trkpt lat="44.4813691" lon="10.6380604"><ele>249.25</ele><time>2026-04-04T07:57:50.955Z</time></trkpt><trkpt lat="44.4814085" lon="10.6378692"><ele>248.0</ele><time>2026-04-04T07:57:51.956Z</time></trkpt><trkpt lat="44.4814403" lon="10.6376653"><ele>248.0</ele><time>2026-04-04T07:57:52.956Z</time></trkpt><trkpt lat="44.4814632" lon="10.6374501"><ele>248.0</ele><time>2026-04-04T07:57:53.956Z</time></trkpt><trkpt lat="44.4814814" lon="10.6372292"><ele>248.0</ele><time>2026-04-04T07:57:54.956Z</time></trkpt><trkpt lat="44.4814913" lon="10.6369971"><ele>248.33333333333334</ele><time>2026-04-04T07:57:55.956Z</time></trkpt><trkpt lat="44.481499" lon="10.6367543"><ele>248.66666666666669</ele><time>2026-04-04T07:57:56.956Z</time></trkpt><trkpt lat="44.4814881" lon="10.6365138"><ele>249.0</ele><time>2026-04-04T07:57:57.955Z</time></trkpt><trkpt lat="44.4814648" lon="10.6362811"><ele>249.0</ele><time>2026-04-04T07:57:58.956Z</time></trkpt><trkpt lat="44.4814332" lon="10.6360547"><ele>249.0</ele><time>2026-04-04T07:57:59.955Z</time></trkpt><trkpt lat="44.4814019" lon="10.6358234"><ele>249.0</ele><time>2026-04-04T07:58:00.956Z</time></trkpt><trkpt lat="44.4813639" lon="10.6355971"><ele>249.0</ele><time>2026-04-04T07:58:01.955Z</time></trkpt><trkpt lat="44.481316" lon="10.6353706"><ele>249.0</ele><time>2026-04-04T07:58:02.955Z</time></trkpt><trkpt lat="44.4812552" lon="10.6351465"><ele>249.0</ele><time>2026-04-04T07:58:03.956Z</time></trkpt><trkpt lat="44.4811735" lon="10.634927"><ele>250.33333333333331</ele><time>2026-04-04T07:58:04.956Z</time></trkpt><trkpt lat="44.4810808" lon="10.6347066"><ele>251.66666666666666</ele><time>2026-04-04T07:58:05.956Z</time></trkpt><trkpt lat="44.4809873" lon="10.6344857"><ele>253.0</ele><time>2026-04-04T07:58:06.956Z</time></trkpt><trkpt lat="44.4808909" lon="10.6342732"><ele>253.0</ele><time>2026-04-04T07:58:07.955Z</time></trkpt><trkpt lat="44.480796" lon="10.634057"><ele>253.0</ele><time>2026-04-04T07:58:08.956Z</time></trkpt><trkpt lat="44.4807022" lon="10.6338339"><ele>253.0</ele><time>2026-04-04T07:58:09.956Z</time></trkpt><trkpt lat="44.4806128" lon="10.6336139"><ele>253.33333333333331</ele><time>2026-04-04T07:58:10.956Z</time></trkpt><trkpt lat="44.4805354" lon="10.6333956"><ele>253.66666666666669</ele><time>2026-04-04T07:58:11.956Z</time></trkpt><trkpt lat="44.4804517" lon="10.6331762"><ele>254.0</ele><time>2026-04-04T07:58:12.956Z</time></trkpt><trkpt lat="44.4803688" lon="10.6329608"><ele>255.0</ele><time>2026-04-04T07:58:13.956Z</time></trkpt><trkpt lat="44.4802803" lon="10.6327552"><ele>256.0</ele><time>2026-04-04T07:58:14.955Z</time></trkpt><trkpt lat="44.4801831" lon="10.6325602"><ele>257.0</ele><time>2026-04-04T07:58:15.956Z</time></trkpt><trkpt lat="44.4800814" lon="10.6323702"><ele>257.0</ele><time>2026-04-04T07:58:16.956Z</time></trkpt><trkpt lat="44.4799682" lon="10.632188"><ele>257.0</ele><time>2026-04-04T07:58:17.956Z</time></trkpt><trkpt lat="44.4798583" lon="10.6320084"><ele>257.0</ele><time>2026-04-04T07:58:18.955Z</time></trkpt><trkpt lat="44.4797789" lon="10.6318088"><ele>258.33333333333337</ele><time>2026-04-04T07:58:19.956Z</time></trkpt><trkpt lat="44.4797292" lon="10.6315807"><ele>259.6666666666667</ele><time>2026-04-04T07:58:20.956Z</time></trkpt><trkpt lat="44.4796957" lon="10.6313539"><ele>261.0</ele><time>2026-04-04T07:58:21.955Z</time></trkpt><trkpt lat="44.4796686" lon="10.6311204"><ele>262.0</ele><time>2026-04-04T07:58:22.955Z</time></trkpt><trkpt lat="44.4796415" lon="10.6308825"><ele>263.0</ele><time>2026-04-04T07:58:23.956Z</time></trkpt><trkpt lat="44.4796307" lon="10.630653"><ele>264.0</ele><time>2026-04-04T07:58:24.955Z</time></trkpt><trkpt lat="44.4796281" lon="10.6304234"><ele>264.3333333333333</ele><time>2026-04-04T07:58:25.955Z</time></trkpt><trkpt lat="44.4796402" lon="10.6301858"><ele>264.66666666666663</ele><time>2026-04-04T07:58:26.956Z</time></trkpt><trkpt lat="44.4796758" lon="10.6299484"><ele>265.0</ele><time>2026-04-04T07:58:27.955Z</time></trkpt><trkpt lat="44.4797245" lon="10.6297175"><ele>265.0</ele><time>2026-04-04T07:58:28.956Z</time></trkpt><trkpt lat="44.4797841" lon="10.6294916"><ele>265.0</ele><time>2026-04-04T07:58:29.955Z</time></trkpt><trkpt lat="44.4798496" lon="10.6292675"><ele>265.0</ele><time>2026-04-04T07:58:30.955Z</time></trkpt><trkpt lat="44.4799115" lon="10.629043"><ele>264.3333333333333</ele><time>2026-04-04T07:58:31.956Z</time></trkpt><trkpt lat="44.479952" lon="10.6288223"><ele>263.6666666666667</ele><time>2026-04-04T07:58:32.955Z</time></trkpt><trkpt lat="44.4799636" lon="10.6286029"><ele>263.0</ele><time>2026-04-04T07:58:33.955Z</time></trkpt><trkpt lat="44.4799518" lon="10.6283719"><ele>262.33333333333337</ele><time>2026-04-04T07:58:34.956Z</time></trkpt><trkpt lat="44.4799143" lon="10.6281458"><ele>261.6666666666667</ele><time>2026-04-04T07:58:35.956Z</time></trkpt><trkpt lat="44.4798608" lon="10.6279164"><ele>261.0</ele><time>2026-04-04T07:58:36.956Z</time></trkpt><trkpt lat="44.4797932" lon="10.6276932"><ele>263.0</ele><time>2026-04-04T07:58:37.956Z</time></trkpt><trkpt lat="44.4797243" lon="10.6274721"><ele>265.0</ele><time>2026-04-04T07:58:38.956Z</time></trkpt><trkpt lat="44.4796566" lon="10.6272489"><ele>267.0</ele><time>2026-04-04T07:58:39.955Z</time></trkpt><trkpt lat="44.4795864" lon="10.6270255"><ele>266.3333333333333</ele><time>2026-04-04T07:58:40.956Z</time></trkpt><trkpt lat="44.479516" lon="10.6268002"><ele>265.66666666666663</ele><time>2026-04-04T07:58:41.956Z</time></trkpt><trkpt lat="44.4794476" lon="10.626569"><ele>265.0</ele><time>2026-04-04T07:58:42.956Z</time></trkpt><trkpt lat="44.47938" lon="10.6263411"><ele>265.66666666666663</ele><time>2026-04-04T07:58:43.955Z</time></trkpt><trkpt lat="44.4793087" lon="10.6261047"><ele>266.3333333333333</ele><time>2026-04-04T07:58:44.956Z</time></trkpt><trkpt lat="44.4792429" lon="10.625869"><ele>267.0</ele><time>2026-04-04T07:58:45.956Z</time></trkpt><trkpt lat="44.4791884" lon="10.6256228"><ele>267.0</ele><time>2026-04-04T07:58:46.956Z</time></trkpt><trkpt lat="44.4791423" lon="10.6253814"><ele>267.0</ele><time>2026-04-04T07:58:47.956Z</time></trkpt><trkpt lat="44.4791064" lon="10.6251274"><ele>267.0</ele><time>2026-04-04T07:58:48.956Z</time></trkpt><trkpt lat="44.4790835" lon="10.6248735"><ele>266.6666666666667</ele><time>2026-04-04T07:58:49.956Z</time></trkpt><trkpt lat="44.4790671" lon="10.6246214"><ele>266.33333333333337</ele><time>2026-04-04T07:58:50.956Z</time></trkpt><trkpt lat="44.4790482" lon="10.6243655"><ele>266.0</ele><time>2026-04-04T07:58:51.955Z</time></trkpt><trkpt lat="44.4790266" lon="10.6241117"><ele>266.0</ele><time>2026-04-04T07:58:52.956Z</time></trkpt><trkpt lat="44.4790043" lon="10.6238605"><ele>266.0</ele><time>2026-04-04T07:58:53.955Z</time></trkpt><trkpt lat="44.4789787" lon="10.6236104"><ele>266.0</ele><time>2026-04-04T07:58:54.956Z</time></trkpt><trkpt lat="44.478953" lon="10.6233647"><ele>267.0</ele><time>2026-04-04T07:58:55.956Z</time></trkpt><trkpt lat="44.47893" lon="10.6231225"><ele>268.0</ele><time>2026-04-04T07:58:56.956Z</time></trkpt><trkpt lat="44.4789018" lon="10.6228884"><ele>269.0</ele><time>2026-04-04T07:58:57.956Z</time></trkpt><trkpt lat="44.4788779" lon="10.6226491"><ele>270.0</ele><time>2026-04-04T07:58:58.956Z</time></trkpt><trkpt lat="44.4788568" lon="10.622411"><ele>271.0</ele><time>2026-04-04T07:58:59.956Z</time></trkpt><trkpt lat="44.4788365" lon="10.6221732"><ele>272.0</ele><time>2026-04-04T07:59:00.956Z</time></trkpt><trkpt lat="44.478815" lon="10.621938"><ele>273.0</ele><time>2026-04-04T07:59:01.955Z</time></trkpt><trkpt lat="44.4787936" lon="10.6216993"><ele>274.0</ele><time>2026-04-04T07:59:02.956Z</time></trkpt><trkpt lat="44.4787769" lon="10.6214594"><ele>275.0</ele><time>2026-04-04T07:59:03.956Z</time></trkpt><trkpt lat="44.4787615" lon="10.6212157"><ele>275.6666666666667</ele><time>2026-04-04T07:59:04.956Z</time></trkpt><trkpt lat="44.4787448" lon="10.6209699"><ele>276.3333333333333</ele><time>2026-04-04T07:59:05.956Z</time></trkpt><trkpt lat="44.4787351" lon="10.6207124"><ele>277.0</ele><time>2026-04-04T07:59:06.955Z</time></trkpt><trkpt lat="44.4787239" lon="10.6204616"><ele>276.66666666666663</ele><time>2026-04-04T07:59:07.955Z</time></trkpt><trkpt lat="44.4787137" lon="10.6202155"><ele>276.3333333333333</ele><time>2026-04-04T07:59:08.956Z</time></trkpt><trkpt lat="44.4787075" lon="10.6199675"><ele>276.0</ele><time>2026-04-04T07:59:09.956Z</time></trkpt><trkpt lat="44.4787004" lon="10.6197164"><ele>276.3333333333333</ele><time>2026-04-04T07:59:10.956Z</time></trkpt><trkpt lat="44.4786925" lon="10.6194646"><ele>276.66666666666663</ele><time>2026-04-04T07:59:11.956Z</time></trkpt><trkpt lat="44.4786828" lon="10.6192097"><ele>277.0</ele><time>2026-04-04T07:59:12.955Z</time></trkpt><trkpt lat="44.4786683" lon="10.618953"><ele>277.0</ele><time>2026-04-04T07:59:13.955Z</time></trkpt><trkpt lat="44.4786577" lon="10.6187009"><ele>277.0</ele><time>2026-04-04T07:59:14.955Z</time></trkpt><trkpt lat="44.4786517" lon="10.6184595"><ele>277.0</ele><time>2026-04-04T07:59:15.956Z</time></trkpt><trkpt lat="44.4786447" lon="10.6182239"><ele>278.0</ele><time>2026-04-04T07:59:16.956Z</time></trkpt><trkpt lat="44.4786359" lon="10.617984"><ele>279.0</ele><time>2026-04-04T07:59:17.955Z</time></trkpt><trkpt lat="44.4786246" lon="10.6177426"><ele>280.0</ele><time>2026-04-04T07:59:18.956Z</time></trkpt><trkpt lat="44.4786148" lon="10.6175085"><ele>281.0</ele><time>2026-04-04T07:59:19.955Z</time></trkpt><trkpt lat="44.4786183" lon="10.6172882"><ele>282.0</ele><time>2026-04-04T07:59:20.956Z</time></trkpt><trkpt lat="44.4786423" lon="10.617083"><ele>283.0</ele><time>2026-04-04T07:59:21.956Z</time></trkpt><trkpt lat="44.4786699" lon="10.6168804"><ele>284.0</ele><time>2026-04-04T07:59:22.955Z</time></trkpt><trkpt lat="44.4786812" lon="10.61667"><ele>285.0</ele><time>2026-04-04T07:59:23.956Z</time></trkpt><trkpt lat="44.4786743" lon="10.6164585"><ele>286.0</ele><time>2026-04-04T07:59:24.955Z</time></trkpt><trkpt lat="44.4786526" lon="10.6162442"><ele>286.66666666666663</ele><time>2026-04-04T07:59:25.956Z</time></trkpt><trkpt lat="44.4786178" lon="10.6160245"><ele>287.3333333333333</ele><time>2026-04-04T07:59:26.956Z</time></trkpt><trkpt lat="44.4785596" lon="10.6158165"><ele>288.0</ele><time>2026-04-04T07:59:27.955Z</time></trkpt><trkpt lat="44.4784978" lon="10.615623"><ele>288.0</ele><time>2026-04-04T07:59:28.956Z</time></trkpt><trkpt lat="44.4784508" lon="10.6154297"><ele>288.0</ele><time>2026-04-04T07:59:29.956Z</time></trkpt><trkpt lat="44.4784159" lon="10.6152284"><ele>288.0</ele><time>2026-04-04T07:59:30.955Z</time></trkpt><trkpt lat="44.4783866" lon="10.6150221"><ele>288.0</ele><time>2026-04-04T07:59:31.956Z</time></trkpt><trkpt lat="44.4783675" lon="10.6148122"><ele>288.3333333333333</ele><time>2026-04-04T07:59:32.956Z</time></trkpt><trkpt lat="44.4783605" lon="10.6145905"><ele>288.66666666666663</ele><time>2026-04-04T07:59:33.955Z</time></trkpt><trkpt lat="44.4783678" lon="10.6143744"><ele>289.0</ele><time>2026-04-04T07:59:34.955Z</time></trkpt><trkpt lat="44.4783816" lon="10.6141664"><ele>289.5</ele><time>2026-04-04T07:59:35.956Z</time></trkpt><trkpt lat="44.4784106" lon="10.6139742"><ele>290.0</ele><time>2026-04-04T07:59:36.956Z</time></trkpt><trkpt lat="44.4784396" lon="10.6137972"><ele>290.5</ele><time>2026-04-04T07:59:37.955Z</time></trkpt><trkpt lat="44.4784657" lon="10.6136673"><ele>291.0</ele><time>2026-04-04T07:59:38.955Z</time></trkpt><trkpt lat="44.4784735" lon="10.6135421"><ele>291.6</ele><time>2026-04-04T07:59:39.956Z</time></trkpt><trkpt lat="44.4784525" lon="10.6134273"><ele>292.20000000000005</ele><time>2026-04-04T07:59:40.955Z</time></trkpt><trkpt lat="44.4783871" lon="10.6133316"><ele>292.79999999999995</ele><time>2026-04-04T07:59:41.956Z</time></trkpt><trkpt lat="44.4783046" lon="10.6132427"><ele>293.4</ele><time>2026-04-04T07:59:42.956Z</time></trkpt><trkpt lat="44.4782127" lon="10.6131577"><ele>294.0</ele><time>2026-04-04T07:59:43.956Z</time></trkpt><trkpt lat="44.4781117" lon="10.6130798"><ele>294.0</ele><time>2026-04-04T07:59:44.955Z</time></trkpt><trkpt lat="44.4780166" lon="10.612991"><ele>294.0</ele><time>2026-04-04T07:59:45.956Z</time></trkpt><trkpt lat="44.4779448" lon="10.6128665"><ele>294.0</ele><time>2026-04-04T07:59:46.956Z</time></trkpt><trkpt lat="44.4779137" lon="10.6127052"><ele>294.0</ele><time>2026-04-04T07:59:47.956Z</time></trkpt><trkpt lat="44.4778955" lon="10.6125507"><ele>295.5</ele><time>2026-04-04T07:59:48.956Z</time></trkpt><trkpt lat="44.4778971" lon="10.6123878"><ele>297.0</ele><time>2026-04-04T07:59:49.955Z</time></trkpt><trkpt lat="44.4779088" lon="10.6122281"><ele>298.5</ele><time>2026-04-04T07:59:50.956Z</time></trkpt><trkpt lat="44.4779088" lon="10.6120719"><ele>300.0</ele><time>2026-04-04T07:59:51.955Z</time></trkpt><trkpt lat="44.4778849" lon="10.6119106"><ele>300.8</ele><time>2026-04-04T07:59:52.955Z</time></trkpt><trkpt lat="44.4778304" lon="10.6117612"><ele>301.6</ele><time>2026-04-04T07:59:53.956Z</time></trkpt><trkpt lat="44.477753" lon="10.6116503"><ele>302.4</ele><time>2026-04-04T07:59:54.956Z</time></trkpt><trkpt lat="44.4776769" lon="10.6115478"><ele>303.2</ele><time>2026-04-04T07:59:55.956Z</time></trkpt><trkpt lat="44.4775942" lon="10.6114393"><ele>304.0</ele><time>2026-04-04T07:59:56.956Z</time></trkpt><trkpt lat="44.4775265" lon="10.6113323"><ele>304.0</ele><time>2026-04-04T07:59:57.955Z</time></trkpt><trkpt lat="44.4774623" lon="10.6112444"><ele>304.0</ele><time>2026-04-04T07:59:58.956Z</time></trkpt><trkpt lat="44.4773977" lon="10.6111603"><ele>304.0</ele><time>2026-04-04T07:59:59.956Z</time></trkpt><trkpt lat="44.4773227" lon="10.6110883"><ele>304.0</ele><time>2026-04-04T08:00:00.956Z</time></trkpt><trkpt lat="44.4772486" lon="10.6110212"><ele>304.0</ele><time>2026-04-04T08:00:01.956Z</time></trkpt><trkpt lat="44.477187" lon="10.610934"><ele>304.0</ele><time>2026-04-04T08:00:02.956Z</time></trkpt><trkpt lat="44.4771314" lon="10.6108556"><ele>306.2</ele><time>2026-04-04T08:00:03.955Z</time></trkpt><trkpt lat="44.4770648" lon="10.6107717"><ele>308.4</ele><time>2026-04-04T08:00:04.956Z</time></trkpt><trkpt lat="44.4769957" lon="10.6107107"><ele>310.6</ele><time>2026-04-04T08:00:05.956Z</time></trkpt><trkpt lat="44.4769086" lon="10.6106634"><ele>312.8</ele><time>2026-04-04T08:00:06.956Z</time></trkpt><trkpt lat="44.4768131" lon="10.6106037"><ele>315.0</ele><time>2026-04-04T08:00:07.956Z</time></trkpt><trkpt lat="44.4767302" lon="10.61053"><ele>315.0</ele><time>2026-04-04T08:00:08.956Z</time></trkpt><trkpt lat="44.4766597" lon="10.6104687"><ele>315.0</ele><time>2026-04-04T08:00:09.956Z</time></trkpt><trkpt lat="44.476567" lon="10.6104383"><ele>315.0</ele><time>2026-04-04T08:00:10.956Z</time></trkpt><trkpt lat="44.4764692" lon="10.6103992"><ele>315.0</ele><time>2026-04-04T08:00:11.955Z</time></trkpt><trkpt lat="44.4763656" lon="10.6103473"><ele>315.0</ele><time>2026-04-04T08:00:12.955Z</time></trkpt><trkpt lat="44.4762761" lon="10.6102973"><ele>317.3333333333333</ele><time>2026-04-04T08:00:13.956Z</time></trkpt><trkpt lat="44.4761961" lon="10.6102317"><ele>319.6666666666667</ele><time>2026-04-04T08:00:14.956Z</time></trkpt><trkpt lat="44.476127" lon="10.610126"><ele>322.0</ele><time>2026-04-04T08:00:15.955Z</time></trkpt><trkpt lat="44.4760562" lon="10.610018"><ele>324.33333333333337</ele><time>2026-04-04T08:00:16.955Z</time></trkpt><trkpt lat="44.4760012" lon="10.609939"><ele>326.6666666666667</ele><time>2026-04-04T08:00:17.956Z</time></trkpt><trkpt lat="44.4759495" lon="10.6098828"><ele>329.0</ele><time>2026-04-04T08:00:18.955Z</time></trkpt><trkpt lat="44.4758834" lon="10.6098607"><ele>329.0</ele><time>2026-04-04T08:00:19.956Z</time></trkpt><trkpt lat="44.4758044" lon="10.6098751"><ele>329.0</ele><time>2026-04-04T08:00:20.955Z</time></trkpt><trkpt lat="44.4757138" lon="10.6099"><ele>329.0</ele><time>2026-04-04T08:00:21.956Z</time></trkpt><trkpt lat="44.4756192" lon="10.6098901"><ele>329.0</ele><time>2026-04-04T08:00:22.956Z</time></trkpt><trkpt lat="44.4755094" lon="10.6098539"><ele>329.0</ele><time>2026-04-04T08:00:23.955Z</time></trkpt><trkpt lat="44.4754021" lon="10.6098006"><ele>330.4</ele><time>2026-04-04T08:00:24.956Z</time></trkpt><trkpt lat="44.475299" lon="10.6097663"><ele>331.79999999999995</ele><time>2026-04-04T08:00:25.955Z</time></trkpt><trkpt lat="44.4751941" lon="10.6097736"><ele>333.20000000000005</ele><time>2026-04-04T08:00:26.956Z</time></trkpt><trkpt lat="44.4750821" lon="10.6097892"><ele>334.6</ele><time>2026-04-04T08:00:27.955Z</time></trkpt><trkpt lat="44.4749681" lon="10.6097793"><ele>336.0</ele><time>2026-04-04T08:00:28.955Z</time></trkpt><trkpt lat="44.4748445" lon="10.6097607"><ele>336.0</ele><time>2026-04-04T08:00:29.956Z</time></trkpt><trkpt lat="44.4747225" lon="10.6097733"><ele>336.0</ele><time>2026-04-04T08:00:30.956Z</time></trkpt><trkpt lat="44.4746095" lon="10.6097951"><ele>336.0</ele><time>2026-04-04T08:00:31.955Z</time></trkpt><trkpt lat="44.4744991" lon="10.6098134"><ele>336.0</ele><time>2026-04-04T08:00:32.956Z</time></trkpt><trkpt lat="44.4743916" lon="10.6098235"><ele>338.0</ele><time>2026-04-04T08:00:33.955Z</time></trkpt><trkpt lat="44.4742954" lon="10.6098267"><ele>340.0</ele><time>2026-04-04T08:00:34.956Z</time></trkpt><trkpt lat="44.4742071" lon="10.6098152"><ele>342.0</ele><time>2026-04-04T08:00:35.955Z</time></trkpt><trkpt lat="44.474093" lon="10.6098002"><ele>344.0</ele><time>2026-04-04T08:00:36.956Z</time></trkpt><trkpt lat="44.4739737" lon="10.6097707"><ele>346.0</ele><time>2026-04-04T08:00:37.956Z</time></trkpt><trkpt lat="44.4738595" lon="10.6097388"><ele>348.0</ele><time>2026-04-04T08:00:38.956Z</time></trkpt><trkpt lat="44.4737461" lon="10.6097233"><ele>350.0</ele><time>2026-04-04T08:00:39.956Z</time></trkpt><trkpt lat="44.4736319" lon="10.6097259"><ele>352.0</ele><time>2026-04-04T08:00:40.956Z</time></trkpt><trkpt lat="44.473517" lon="10.6097278"><ele>354.0</ele><time>2026-04-04T08:00:41.956Z</time></trkpt><trkpt lat="44.4733891" lon="10.609724"><ele>354.0</ele><time>2026-04-04T08:00:42.956Z</time></trkpt><trkpt lat="44.4732638" lon="10.6097215"><ele>354.0</ele><time>2026-04-04T08:00:43.956Z</time></trkpt><trkpt lat="44.4731423" lon="10.609721"><ele>354.0</ele><time>2026-04-04T08:00:44.955Z</time></trkpt><trkpt lat="44.4730422" lon="10.6097148"><ele>354.0</ele><time>2026-04-04T08:00:45.955Z</time></trkpt><trkpt lat="44.4729602" lon="10.6096819"><ele>354.0</ele><time>2026-04-04T08:00:46.955Z</time></trkpt><trkpt lat="44.4728811" lon="10.6096451"><ele>354.79999999999995</ele><time>2026-04-04T08:00:47.956Z</time></trkpt><trkpt lat="44.4728096" lon="10.6095908"><ele>355.59999999999997</ele><time>2026-04-04T08:00:48.955Z</time></trkpt><trkpt lat="44.4727403" lon="10.6095082"><ele>356.4</ele><time>2026-04-04T08:00:49.955Z</time></trkpt><trkpt lat="44.4726575" lon="10.6093993"><ele>357.2</ele><time>2026-04-04T08:00:50.956Z</time></trkpt><trkpt lat="44.4725604" lon="10.609279"><ele>358.0</ele><time>2026-04-04T08:00:51.956Z</time></trkpt><trkpt lat="44.4724569" lon="10.6091485"><ele>360.25</ele><time>2026-04-04T08:00:52.956Z</time></trkpt><trkpt lat="44.4723496" lon="10.6090209"><ele>362.5</ele><time>2026-04-04T08:00:53.956Z</time></trkpt><trkpt lat="44.4722586" lon="10.6089291"><ele>364.75</ele><time>2026-04-04T08:00:54.955Z</time></trkpt><trkpt lat="44.4721701" lon="10.6088588"><ele>367.0</ele><time>2026-04-04T08:00:55.955Z</time></trkpt><trkpt lat="44.4720801" lon="10.6088089"><ele>368.6</ele><time>2026-04-04T08:00:56.955Z</time></trkpt><trkpt lat="44.4719896" lon="10.6087643"><ele>370.20000000000005</ele><time>2026-04-04T08:00:57.956Z</time></trkpt><trkpt lat="44.4719167" lon="10.6087003"><ele>371.8</ele><time>2026-04-04T08:00:58.956Z</time></trkpt><trkpt lat="44.4718432" lon="10.6086034"><ele>373.4</ele><time>2026-04-04T08:00:59.956Z</time></trkpt><trkpt lat="44.4717663" lon="10.608501"><ele>375.0</ele><time>2026-04-04T08:01:00.956Z</time></trkpt><trkpt lat="44.4716891" lon="10.608429"><ele>375.6</ele><time>2026-04-04T08:01:01.956Z</time></trkpt><trkpt lat="44.4715948" lon="10.6083713"><ele>376.2</ele><time>2026-04-04T08:01:02.956Z</time></trkpt><trkpt lat="44.4714934" lon="10.6083052"><ele>376.79999999999995</ele><time>2026-04-04T08:01:03.955Z</time></trkpt><trkpt lat="44.4713957" lon="10.6082273"><ele>377.4</ele><time>2026-04-04T08:01:04.956Z</time></trkpt><trkpt lat="44.4712928" lon="10.6081526"><ele>378.0</ele><time>2026-04-04T08:01:05.956Z</time></trkpt><trkpt lat="44.4711898" lon="10.6080709"><ele>379.0</ele><time>2026-04-04T08:01:06.955Z</time></trkpt><trkpt lat="44.4710873" lon="10.6079948"><ele>380.0</ele><time>2026-04-04T08:01:07.956Z</time></trkpt><trkpt lat="44.4709943" lon="10.6079065"><ele>381.0</ele><time>2026-04-04T08:01:08.955Z</time></trkpt><trkpt lat="44.4709155" lon="10.6078298"><ele>382.0</ele><time>2026-04-04T08:01:09.955Z</time></trkpt><trkpt lat="44.470829" lon="10.6077809"><ele>383.0</ele><time>2026-04-04T08:01:10.956Z</time></trkpt><trkpt lat="44.4707497" lon="10.6077461"><ele>384.0</ele><time>2026-04-04T08:01:11.956Z</time></trkpt><trkpt lat="44.4706626" lon="10.6077151"><ele>385.0</ele><time>2026-04-04T08:01:12.956Z</time></trkpt><trkpt lat="44.4705659" lon="10.6076487"><ele>386.0</ele><time>2026-04-04T08:01:13.956Z</time></trkpt><trkpt lat="44.4704668" lon="10.6075667"><ele>387.0</ele><time>2026-04-04T08:01:14.955Z</time></trkpt><trkpt lat="44.470363" lon="10.6074846"><ele>388.0</ele><time>2026-04-04T08:01:15.956Z</time></trkpt><trkpt lat="44.470247" lon="10.6074042"><ele>390.79999999999995</ele><time>2026-04-04T08:01:16.956Z</time></trkpt><trkpt lat="44.470129" lon="10.607319"><ele>393.6</ele><time>2026-04-04T08:01:17.956Z</time></trkpt><trkpt lat="44.4700264" lon="10.6072666"><ele>396.4</ele><time>2026-04-04T08:01:18.956Z</time></trkpt><trkpt lat="44.4699412" lon="10.6072436"><ele>399.20000000000005</ele><time>2026-04-04T08:01:19.956Z</time></trkpt><trkpt lat="44.4698447" lon="10.6072186"><ele>402.0</ele><time>2026-04-04T08:01:20.956Z</time></trkpt><trkpt lat="44.4697515" lon="10.6071796"><ele>402.0</ele><time>2026-04-04T08:01:21.956Z</time></trkpt><trkpt lat="44.4696679" lon="10.6071192"><ele>402.0</ele><time>2026-04-04T08:01:22.955Z</time></trkpt><trkpt lat="44.4695975" lon="10.607014"><ele>402.0</ele><time>2026-04-04T08:01:23.955Z</time></trkpt><trkpt lat="44.4695251" lon="10.6068886"><ele>402.0</ele><time>2026-04-04T08:01:24.955Z</time></trkpt><trkpt lat="44.4694599" lon="10.6067758"><ele>402.0</ele><time>2026-04-04T08:01:25.956Z</time></trkpt><trkpt lat="44.4693873" lon="10.6066751"><ele>403.8</ele><time>2026-04-04T08:01:26.955Z</time></trkpt><trkpt lat="44.46931" lon="10.6065875"><ele>405.6</ele><time>2026-04-04T08:01:27.956Z</time></trkpt><trkpt lat="44.4692179" lon="10.6065189"><ele>407.40000000000003</ele><time>2026-04-04T08:01:28.956Z</time></trkpt><trkpt lat="44.4691222" lon="10.6064564"><ele>409.20000000000005</ele><time>2026-04-04T08:01:29.956Z</time></trkpt><trkpt lat="44.4690229" lon="10.606406"><ele>411.0</ele><time>2026-04-04T08:01:30.956Z</time></trkpt><trkpt lat="44.4689249" lon="10.6063467"><ele>411.0</ele><time>2026-04-04T08:01:31.956Z</time></trkpt><trkpt lat="44.4688355" lon="10.6062759"><ele>411.0</ele><time>2026-04-04T08:01:32.956Z</time></trkpt><trkpt lat="44.4687548" lon="10.6061865"><ele>411.0</ele><time>2026-04-04T08:01:33.956Z</time></trkpt><trkpt lat="44.4686629" lon="10.6060808"><ele>411.0</ele><time>2026-04-04T08:01:34.956Z</time></trkpt><trkpt lat="44.4685761" lon="10.6059833"><ele>411.0</ele><time>2026-04-04T08:01:35.955Z</time></trkpt><trkpt lat="44.4684897" lon="10.6059002"><ele>413.0</ele><time>2026-04-04T08:01:36.956Z</time></trkpt><trkpt lat="44.4683998" lon="10.6058156"><ele>415.0</ele><time>2026-04-04T08:01:37.955Z</time></trkpt><trkpt lat="44.4683012" lon="10.6057274"><ele>417.0</ele><time>2026-04-04T08:01:38.956Z</time></trkpt><trkpt lat="44.4682007" lon="10.6056368"><ele>419.0</ele><time>2026-04-04T08:01:39.956Z</time></trkpt><trkpt lat="44.4681072" lon="10.6055426"><ele>419.0</ele><time>2026-04-04T08:01:40.956Z</time></trkpt><trkpt lat="44.4680213" lon="10.605441"><ele>419.0</ele><time>2026-04-04T08:01:41.955Z</time></trkpt><trkpt lat="44.4679385" lon="10.6053366"><ele>419.0</ele><time>2026-04-04T08:01:42.956Z</time></trkpt><trkpt lat="44.4678478" lon="10.6052301"><ele>419.0</ele><time>2026-04-04T08:01:43.956Z</time></trkpt><trkpt lat="44.467764" lon="10.6051259"><ele>420.75</ele><time>2026-04-04T08:01:44.955Z</time></trkpt><trkpt lat="44.4676792" lon="10.6050092"><ele>422.5</ele><time>2026-04-04T08:01:45.955Z</time></trkpt><trkpt lat="44.4675997" lon="10.6048852"><ele>424.25</ele><time>2026-04-04T08:01:46.956Z</time></trkpt><trkpt lat="44.4675374" lon="10.6047338"><ele>426.0</ele><time>2026-04-04T08:01:47.955Z</time></trkpt><trkpt lat="44.467484" lon="10.6045894"><ele>425.6</ele><time>2026-04-04T08:01:48.956Z</time></trkpt><trkpt lat="44.4674424" lon="10.6044442"><ele>425.20000000000005</ele><time>2026-04-04T08:01:49.956Z</time></trkpt><trkpt lat="44.4673996" lon="10.6043057"><ele>424.79999999999995</ele><time>2026-04-04T08:01:50.956Z</time></trkpt><trkpt lat="44.4673555" lon="10.6041907"><ele>424.4</ele><time>2026-04-04T08:01:51.955Z</time></trkpt><trkpt lat="44.4673117" lon="10.6040976"><ele>424.0</ele><time>2026-04-04T08:01:52.956Z</time></trkpt><trkpt lat="44.4672656" lon="10.6040333"><ele>424.0</ele><time>2026-04-04T08:01:53.955Z</time></trkpt><trkpt lat="44.4671327" lon="10.6039719"><ele>424.0</ele><time>2026-04-04T08:01:55.956Z</time></trkpt><trkpt lat="44.4670469" lon="10.6039194"><ele>424.0</ele><time>2026-04-04T08:01:56.956Z</time></trkpt><trkpt lat="44.4669635" lon="10.6038454"><ele>424.0</ele><time>2026-04-04T08:01:57.955Z</time></trkpt><trkpt lat="44.4668864" lon="10.6037338"><ele>424.0</ele><time>2026-04-04T08:01:58.955Z</time></trkpt><trkpt lat="44.4668243" lon="10.603603"><ele>425.00000000000006</ele><time>2026-04-04T08:01:59.955Z</time></trkpt><trkpt lat="44.4667736" lon="10.6034692"><ele>426.0</ele><time>2026-04-04T08:02:00.956Z</time></trkpt><trkpt lat="44.4667261" lon="10.6033495"><ele>427.0</ele><time>2026-04-04T08:02:01.955Z</time></trkpt><trkpt lat="44.4666802" lon="10.603251"><ele>428.0</ele><time>2026-04-04T08:02:02.956Z</time></trkpt><trkpt lat="44.4666336" lon="10.6031669"><ele>429.00000000000006</ele><time>2026-04-04T08:02:03.955Z</time></trkpt><trkpt lat="44.4665887" lon="10.6030872"><ele>430.0</ele><time>2026-04-04T08:02:04.956Z</time></trkpt><trkpt lat="44.4665354" lon="10.6030037"><ele>430.0</ele><time>2026-04-04T08:02:05.955Z</time></trkpt><trkpt lat="44.4664541" lon="10.602924"><ele>430.0</ele><time>2026-04-04T08:02:06.956Z</time></trkpt><trkpt lat="44.4663702" lon="10.602851"><ele>430.0</ele><time>2026-04-04T08:02:07.956Z</time></trkpt><trkpt lat="44.4662801" lon="10.6027725"><ele>430.0</ele><time>2026-04-04T08:02:08.956Z</time></trkpt><trkpt lat="44.4661882" lon="10.602701"><ele>430.0</ele><time>2026-04-04T08:02:09.956Z</time></trkpt><trkpt lat="44.4660973" lon="10.602631"><ele>431.6</ele><time>2026-04-04T08:02:10.955Z</time></trkpt><trkpt lat="44.4660059" lon="10.6025568"><ele>433.2</ele><time>2026-04-04T08:02:11.955Z</time></trkpt><trkpt lat="44.4659111" lon="10.6024952"><ele>434.79999999999995</ele><time>2026-04-04T08:02:12.956Z</time></trkpt><trkpt lat="44.4658337" lon="10.6024386"><ele>436.4</ele><time>2026-04-04T08:02:13.955Z</time></trkpt><trkpt lat="44.4657676" lon="10.6023671"><ele>438.0</ele><time>2026-04-04T08:02:14.956Z</time></trkpt><trkpt lat="44.4657404" lon="10.6022229"><ele>438.0</ele><time>2026-04-04T08:02:16.956Z</time></trkpt><trkpt lat="44.4657742" lon="10.6021452"><ele>437.99999999999994</ele><time>2026-04-04T08:02:17.956Z</time></trkpt><trkpt lat="44.4658214" lon="10.6020525"><ele>437.99999999999994</ele><time>2026-04-04T08:02:18.956Z</time></trkpt><trkpt lat="44.4658818" lon="10.6019418"><ele>438.0</ele><time>2026-04-04T08:02:19.955Z</time></trkpt><trkpt lat="44.4659535" lon="10.6018023"><ele>438.0</ele><time>2026-04-04T08:02:20.956Z</time></trkpt><trkpt lat="44.4660107" lon="10.6016744"><ele>438.6666666666667</ele><time>2026-04-04T08:02:21.956Z</time></trkpt><trkpt lat="44.4660203" lon="10.6015572"><ele>439.33333333333337</ele><time>2026-04-04T08:02:22.955Z</time></trkpt><trkpt lat="44.4659951" lon="10.6014688"><ele>440.0</ele><time>2026-04-04T08:02:23.956Z</time></trkpt><trkpt lat="44.4659517" lon="10.601373"><ele>440.6666666666667</ele><time>2026-04-04T08:02:24.956Z</time></trkpt><trkpt lat="44.4658733" lon="10.6012738"><ele>441.33333333333337</ele><time>2026-04-04T08:02:25.956Z</time></trkpt><trkpt lat="44.4658032" lon="10.6011655"><ele>442.0</ele><time>2026-04-04T08:02:26.955Z</time></trkpt><trkpt lat="44.465738" lon="10.6010037"><ele>443.5</ele><time>2026-04-04T08:02:27.955Z</time></trkpt><trkpt lat="44.4656871" lon="10.6008389"><ele>445.0</ele><time>2026-04-04T08:02:28.956Z</time></trkpt><trkpt lat="44.4656435" lon="10.6006507"><ele>446.5</ele><time>2026-04-04T08:02:29.956Z</time></trkpt><trkpt lat="44.4655903" lon="10.6004741"><ele>448.0</ele><time>2026-04-04T08:02:30.956Z</time></trkpt><trkpt lat="44.4655328" lon="10.6003009"><ele>448.5</ele><time>2026-04-04T08:02:31.955Z</time></trkpt><trkpt lat="44.4654873" lon="10.6001349"><ele>449.0</ele><time>2026-04-04T08:02:32.956Z</time></trkpt><trkpt lat="44.4654578" lon="10.5999628"><ele>449.5</ele><time>2026-04-04T08:02:33.956Z</time></trkpt><trkpt lat="44.4654393" lon="10.5997917"><ele>450.0</ele><time>2026-04-04T08:02:34.956Z</time></trkpt><trkpt lat="44.4654174" lon="10.5996289"><ele>452.0</ele><time>2026-04-04T08:02:35.956Z</time></trkpt><trkpt lat="44.4653861" lon="10.5994716"><ele>454.0</ele><time>2026-04-04T08:02:36.956Z</time></trkpt><trkpt lat="44.4653484" lon="10.599321"><ele>456.0</ele><time>2026-04-04T08:02:37.955Z</time></trkpt><trkpt lat="44.4653075" lon="10.5991922"><ele>458.0</ele><time>2026-04-04T08:02:38.956Z</time></trkpt><trkpt lat="44.4652461" lon="10.5990929"><ele>460.0</ele><time>2026-04-04T08:02:39.956Z</time></trkpt><trkpt lat="44.4651855" lon="10.5990352"><ele>460.0</ele><time>2026-04-04T08:02:40.956Z</time></trkpt><trkpt lat="44.4651119" lon="10.5989793"><ele>460.0</ele><time>2026-04-04T08:02:41.955Z</time></trkpt><trkpt lat="44.4650327" lon="10.5989322"><ele>460.0</ele><time>2026-04-04T08:02:42.955Z</time></trkpt><trkpt lat="44.4649397" lon="10.5988845"><ele>460.0</ele><time>2026-04-04T08:02:43.956Z</time></trkpt><trkpt lat="44.4648326" lon="10.5988306"><ele>460.0</ele><time>2026-04-04T08:02:44.956Z</time></trkpt><trkpt lat="44.4647273" lon="10.5987641"><ele>460.0</ele><time>2026-04-04T08:02:45.956Z</time></trkpt><trkpt lat="44.4646266" lon="10.5986916"><ele>460.0</ele><time>2026-04-04T08:02:46.955Z</time></trkpt><trkpt lat="44.4645263" lon="10.5986172"><ele>460.0</ele><time>2026-04-04T08:02:47.956Z</time></trkpt><trkpt lat="44.46443" lon="10.5985467"><ele>460.0</ele><time>2026-04-04T08:02:48.955Z</time></trkpt><trkpt lat="44.4643346" lon="10.5984853"><ele>460.0</ele><time>2026-04-04T08:02:49.956Z</time></trkpt><trkpt lat="44.4642444" lon="10.5984256"><ele>461.83333333333337</ele><time>2026-04-04T08:02:50.956Z</time></trkpt><trkpt lat="44.464174" lon="10.5983532"><ele>463.6666666666667</ele><time>2026-04-04T08:02:51.956Z</time></trkpt><trkpt lat="44.4641405" lon="10.5982608"><ele>465.5</ele><time>2026-04-04T08:02:52.956Z</time></trkpt><trkpt lat="44.4641413" lon="10.5981642"><ele>467.33333333333337</ele><time>2026-04-04T08:02:53.956Z</time></trkpt><trkpt lat="44.4641705" lon="10.598059"><ele>469.1666666666667</ele><time>2026-04-04T08:02:54.956Z</time></trkpt><trkpt lat="44.4642116" lon="10.5979647"><ele>471.0</ele><time>2026-04-04T08:02:55.956Z</time></trkpt><trkpt lat="44.464258" lon="10.5978589"><ele>472.5</ele><time>2026-04-04T08:02:56.956Z</time></trkpt><trkpt lat="44.4642995" lon="10.5977511"><ele>474.0</ele><time>2026-04-04T08:02:57.956Z</time></trkpt><trkpt lat="44.4643388" lon="10.597645"><ele>475.5</ele><time>2026-04-04T08:02:58.956Z</time></trkpt><trkpt lat="44.4643819" lon="10.59754"><ele>477.0</ele><time>2026-04-04T08:02:59.955Z</time></trkpt><trkpt lat="44.4644327" lon="10.5974371"><ele>478.5</ele><time>2026-04-04T08:03:00.956Z</time></trkpt><trkpt lat="44.4644909" lon="10.5973305"><ele>480.0</ele><time>2026-04-04T08:03:01.956Z</time></trkpt><trkpt lat="44.4645503" lon="10.597253"><ele>480.0</ele><time>2026-04-04T08:03:02.955Z</time></trkpt><trkpt lat="44.4646105" lon="10.5971751"><ele>480.0</ele><time>2026-04-04T08:03:03.955Z</time></trkpt><trkpt lat="44.4646673" lon="10.5971035"><ele>480.0</ele><time>2026-04-04T08:03:04.955Z</time></trkpt><trkpt lat="44.4647067" lon="10.5970313"><ele>480.0</ele><time>2026-04-04T08:03:05.955Z</time></trkpt><trkpt lat="44.4647399" lon="10.5969502"><ele>480.0</ele><time>2026-04-04T08:03:06.956Z</time></trkpt><trkpt lat="44.4647453" lon="10.5968489"><ele>480.0</ele><time>2026-04-04T08:03:07.956Z</time></trkpt><trkpt lat="44.4647046" lon="10.5967445"><ele>480.0</ele><time>2026-04-04T08:03:08.956Z</time></trkpt><trkpt lat="44.4646436" lon="10.5966546"><ele>481.0</ele><time>2026-04-04T08:03:09.956Z</time></trkpt><trkpt lat="44.4645644" lon="10.5965757"><ele>482.0</ele><time>2026-04-04T08:03:10.956Z</time></trkpt><trkpt lat="44.464475" lon="10.5964893"><ele>483.0</ele><time>2026-04-04T08:03:11.955Z</time></trkpt><trkpt lat="44.4643797" lon="10.5963875"><ele>484.0</ele><time>2026-04-04T08:03:12.955Z</time></trkpt><trkpt lat="44.4642924" lon="10.5962794"><ele>485.0</ele><time>2026-04-04T08:03:13.956Z</time></trkpt><trkpt lat="44.4642241" lon="10.5961503"><ele>486.8</ele><time>2026-04-04T08:03:14.956Z</time></trkpt><trkpt lat="44.4641819" lon="10.5960223"><ele>488.6</ele><time>2026-04-04T08:03:15.955Z</time></trkpt><trkpt lat="44.4641361" lon="10.5959052"><ele>490.4</ele><time>2026-04-04T08:03:16.955Z</time></trkpt><trkpt lat="44.4640714" lon="10.5958038"><ele>492.2</ele><time>2026-04-04T08:03:17.955Z</time></trkpt><trkpt lat="44.4639926" lon="10.5957204"><ele>494.0</ele><time>2026-04-04T08:03:18.954Z</time></trkpt><trkpt lat="44.463914" lon="10.5956605"><ele>493.99999999999994</ele><time>2026-04-04T08:03:19.954Z</time></trkpt><trkpt lat="44.4638421" lon="10.5956007"><ele>494.0</ele><time>2026-04-04T08:03:20.955Z</time></trkpt><trkpt lat="44.4637794" lon="10.5955246"><ele>494.0</ele><time>2026-04-04T08:03:21.955Z</time></trkpt><trkpt lat="44.4637219" lon="10.5954423"><ele>494.0</ele><time>2026-04-04T08:03:22.954Z</time></trkpt><trkpt lat="44.4636625" lon="10.5953594"><ele>493.99999999999994</ele><time>2026-04-04T08:03:23.955Z</time></trkpt><trkpt lat="44.463601" lon="10.5952728"><ele>494.0</ele><time>2026-04-04T08:03:24.955Z</time></trkpt><trkpt lat="44.4635395" lon="10.5951776"><ele>498.6</ele><time>2026-04-04T08:03:25.955Z</time></trkpt><trkpt lat="44.4634724" lon="10.5950766"><ele>503.2</ele><time>2026-04-04T08:03:26.955Z</time></trkpt><trkpt lat="44.4634006" lon="10.5949716"><ele>507.80000000000007</ele><time>2026-04-04T08:03:27.954Z</time></trkpt><trkpt lat="44.4633229" lon="10.5948818"><ele>512.4</ele><time>2026-04-04T08:03:28.955Z</time></trkpt><trkpt lat="44.4632479" lon="10.5948098"><ele>517.0</ele><time>2026-04-04T08:03:29.954Z</time></trkpt><trkpt lat="44.463171" lon="10.5947701"><ele>517.0</ele><time>2026-04-04T08:03:30.955Z</time></trkpt><trkpt lat="44.4630831" lon="10.5947699"><ele>517.0</ele><time>2026-04-04T08:03:31.954Z</time></trkpt><trkpt lat="44.4629988" lon="10.5947736"><ele>517.0</ele><time>2026-04-04T08:03:32.955Z</time></trkpt><trkpt lat="44.4629265" lon="10.5947689"><ele>517.0</ele><time>2026-04-04T08:03:33.955Z</time></trkpt><trkpt lat="44.4628587" lon="10.5947499"><ele>517.0</ele><time>2026-04-04T08:03:34.955Z</time></trkpt><trkpt lat="44.4627915" lon="10.5947291"><ele>517.0</ele><time>2026-04-04T08:03:35.954Z</time></trkpt><trkpt lat="44.462721" lon="10.5947015"><ele>519.1666666666667</ele><time>2026-04-04T08:03:36.955Z</time></trkpt><trkpt lat="44.4626528" lon="10.594667"><ele>521.3333333333334</ele><time>2026-04-04T08:03:37.954Z</time></trkpt><trkpt lat="44.462576" lon="10.5946254"><ele>523.5</ele><time>2026-04-04T08:03:38.955Z</time></trkpt><trkpt lat="44.4624981" lon="10.5945794"><ele>525.6666666666666</ele><time>2026-04-04T08:03:39.954Z</time></trkpt><trkpt lat="44.4624196" lon="10.5945384"><ele>527.8333333333333</ele><time>2026-04-04T08:03:40.955Z</time></trkpt><trkpt lat="44.4623446" lon="10.5944878"><ele>530.0</ele><time>2026-04-04T08:03:41.955Z</time></trkpt><trkpt lat="44.4622788" lon="10.5944257"><ele>531.1666666666666</ele><time>2026-04-04T08:03:42.955Z</time></trkpt><trkpt lat="44.4622127" lon="10.5943494"><ele>532.3333333333333</ele><time>2026-04-04T08:03:43.955Z</time></trkpt><trkpt lat="44.4621497" lon="10.5942648"><ele>533.5</ele><time>2026-04-04T08:03:44.954Z</time></trkpt><trkpt lat="44.4620821" lon="10.5941879"><ele>534.6666666666666</ele><time>2026-04-04T08:03:45.955Z</time></trkpt><trkpt lat="44.462015" lon="10.5941233"><ele>535.8333333333334</ele><time>2026-04-04T08:03:46.955Z</time></trkpt><trkpt lat="44.4619495" lon="10.5940708"><ele>537.0</ele><time>2026-04-04T08:03:47.955Z</time></trkpt><trkpt lat="44.4618854" lon="10.5940231"><ele>538.3333333333334</ele><time>2026-04-04T08:03:48.955Z</time></trkpt><trkpt lat="44.4618238" lon="10.5939701"><ele>539.6666666666666</ele><time>2026-04-04T08:03:49.955Z</time></trkpt><trkpt lat="44.4617561" lon="10.5939216"><ele>541.0</ele><time>2026-04-04T08:03:50.954Z</time></trkpt><trkpt lat="44.4616786" lon="10.5938657"><ele>542.3333333333333</ele><time>2026-04-04T08:03:51.955Z</time></trkpt><trkpt lat="44.4616036" lon="10.5938016"><ele>543.6666666666666</ele><time>2026-04-04T08:03:52.955Z</time></trkpt><trkpt lat="44.461535" lon="10.5937372"><ele>545.0</ele><time>2026-04-04T08:03:53.954Z</time></trkpt><trkpt lat="44.4614596" lon="10.5936653"><ele>546.6</ele><time>2026-04-04T08:03:54.955Z</time></trkpt><trkpt lat="44.4613888" lon="10.5935899"><ele>548.2</ele><time>2026-04-04T08:03:55.955Z</time></trkpt><trkpt lat="44.461323" lon="10.5935151"><ele>549.8</ele><time>2026-04-04T08:03:56.955Z</time></trkpt><trkpt lat="44.4612569" lon="10.5934269"><ele>551.4</ele><time>2026-04-04T08:03:57.955Z</time></trkpt><trkpt lat="44.4611877" lon="10.593334"><ele>553.0</ele><time>2026-04-04T08:03:58.955Z</time></trkpt><trkpt lat="44.4611155" lon="10.5932353"><ele>555.4</ele><time>2026-04-04T08:03:59.954Z</time></trkpt><trkpt lat="44.4610402" lon="10.5931365"><ele>557.8</ele><time>2026-04-04T08:04:00.955Z</time></trkpt><trkpt lat="44.4609662" lon="10.5930356"><ele>560.2</ele><time>2026-04-04T08:04:01.955Z</time></trkpt><trkpt lat="44.4608881" lon="10.5929278"><ele>562.6</ele><time>2026-04-04T08:04:02.954Z</time></trkpt><trkpt lat="44.4608145" lon="10.5928146"><ele>565.0</ele><time>2026-04-04T08:04:03.955Z</time></trkpt><trkpt lat="44.4607477" lon="10.5926953"><ele>566.2</ele><time>2026-04-04T08:04:04.955Z</time></trkpt><trkpt lat="44.4606791" lon="10.592589"><ele>567.4</ele><time>2026-04-04T08:04:05.955Z</time></trkpt><trkpt lat="44.4606083" lon="10.592498"><ele>568.6</ele><time>2026-04-04T08:04:06.954Z</time></trkpt><trkpt lat="44.4605317" lon="10.5924397"><ele>569.8</ele><time>2026-04-04T08:04:07.955Z</time></trkpt><trkpt lat="44.4604462" lon="10.5924133"><ele>571.0</ele><time>2026-04-04T08:04:08.954Z</time></trkpt><trkpt lat="44.4603595" lon="10.5924263"><ele>573.5</ele><time>2026-04-04T08:04:09.955Z</time></trkpt><trkpt lat="44.4602696" lon="10.5924555"><ele>576.0</ele><time>2026-04-04T08:04:10.955Z</time></trkpt><trkpt lat="44.4601825" lon="10.5924677"><ele>578.5</ele><time>2026-04-04T08:04:11.955Z</time></trkpt><trkpt lat="44.4601139" lon="10.5924549"><ele>581.0</ele><time>2026-04-04T08:04:12.955Z</time></trkpt><trkpt lat="44.4600554" lon="10.5924042"><ele>583.5</ele><time>2026-04-04T08:04:13.955Z</time></trkpt><trkpt lat="44.46001" lon="10.5923296"><ele>586.0</ele><time>2026-04-04T08:04:14.955Z</time></trkpt><trkpt lat="44.4599655" lon="10.5922523"><ele>586.0</ele><time>2026-04-04T08:04:15.954Z</time></trkpt><trkpt lat="44.459922" lon="10.5921712"><ele>586.0</ele><time>2026-04-04T08:04:16.954Z</time></trkpt><trkpt lat="44.4598852" lon="10.5920864"><ele>586.0</ele><time>2026-04-04T08:04:17.955Z</time></trkpt><trkpt lat="44.4598544" lon="10.5920004"><ele>586.0</ele><time>2026-04-04T08:04:18.955Z</time></trkpt><trkpt lat="44.4598319" lon="10.5919169"><ele>586.0</ele><time>2026-04-04T08:04:19.955Z</time></trkpt><trkpt lat="44.459791" lon="10.5917828"><ele>586.0</ele><time>2026-04-04T08:04:21.955Z</time></trkpt><trkpt lat="44.4597521" lon="10.5916482"><ele>587.5</ele><time>2026-04-04T08:04:23.955Z</time></trkpt><trkpt lat="44.4597231" lon="10.5915077"><ele>589.0</ele><time>2026-04-04T08:04:25.955Z</time></trkpt><trkpt lat="44.4597012" lon="10.5914244"><ele>590.5</ele><time>2026-04-04T08:04:26.954Z</time></trkpt><trkpt lat="44.459676" lon="10.5913324"><ele>592.0</ele><time>2026-04-04T08:04:27.955Z</time></trkpt><trkpt lat="44.4596464" lon="10.5912323"><ele>593.5</ele><time>2026-04-04T08:04:28.955Z</time></trkpt><trkpt lat="44.4596132" lon="10.5911346"><ele>595.0</ele><time>2026-04-04T08:04:29.955Z</time></trkpt><trkpt lat="44.4595749" lon="10.5910396"><ele>597.5</ele><time>2026-04-04T08:04:30.954Z</time></trkpt><trkpt lat="44.4595352" lon="10.5909463"><ele>600.0</ele><time>2026-04-04T08:04:31.954Z</time></trkpt><trkpt lat="44.4594929" lon="10.5908406"><ele>602.5</ele><time>2026-04-04T08:04:32.954Z</time></trkpt><trkpt lat="44.4594442" lon="10.590738"><ele>605.0</ele><time>2026-04-04T08:04:33.955Z</time></trkpt><trkpt lat="44.4593886" lon="10.5906324"><ele>607.5</ele><time>2026-04-04T08:04:34.955Z</time></trkpt><trkpt lat="44.4593332" lon="10.5905242"><ele>610.0</ele><time>2026-04-04T08:04:35.955Z</time></trkpt><trkpt lat="44.4592775" lon="10.5904142"><ele>611.3333333333334</ele><time>2026-04-04T08:04:36.955Z</time></trkpt><trkpt lat="44.4592251" lon="10.5903072"><ele>612.6666666666667</ele><time>2026-04-04T08:04:37.955Z</time></trkpt><trkpt lat="44.4591752" lon="10.5902036"><ele>614.0</ele><time>2026-04-04T08:04:38.955Z</time></trkpt><trkpt lat="44.4591264" lon="10.5900965"><ele>615.3333333333334</ele><time>2026-04-04T08:04:39.955Z</time></trkpt><trkpt lat="44.4590859" lon="10.589987"><ele>616.6666666666666</ele><time>2026-04-04T08:04:40.955Z</time></trkpt><trkpt lat="44.4590485" lon="10.5898759"><ele>618.0</ele><time>2026-04-04T08:04:41.955Z</time></trkpt><trkpt lat="44.4590146" lon="10.5897648"><ele>618.0</ele><time>2026-04-04T08:04:42.955Z</time></trkpt><trkpt lat="44.4589999" lon="10.5896732"><ele>618.0</ele><time>2026-04-04T08:04:43.954Z</time></trkpt><trkpt lat="44.4589706" lon="10.5895459"><ele>618.0</ele><time>2026-04-04T08:04:45.955Z</time></trkpt><trkpt lat="44.4588837" lon="10.5894699"><ele>618.0</ele><time>2026-04-04T08:04:47.955Z</time></trkpt><trkpt lat="44.4587763" lon="10.589523"><ele>618.0</ele><time>2026-04-04T08:04:49.955Z</time></trkpt><trkpt lat="44.4587162" lon="10.5896396"><ele>621.8</ele><time>2026-04-04T08:04:51.955Z</time></trkpt><trkpt lat="44.4586438" lon="10.589771"><ele>625.5999999999999</ele><time>2026-04-04T08:04:53.955Z</time></trkpt><trkpt lat="44.458543" lon="10.5897789"><ele>629.4000000000001</ele><time>2026-04-04T08:04:55.955Z</time></trkpt><trkpt lat="44.4584723" lon="10.5896632"><ele>633.2</ele><time>2026-04-04T08:04:57.955Z</time></trkpt><trkpt lat="44.4584126" lon="10.5895188"><ele>637.0</ele><time>2026-04-04T08:04:59.955Z</time></trkpt><trkpt lat="44.4583674" lon="10.5894471"><ele>637.6666666666667</ele><time>2026-04-04T08:05:00.954Z</time></trkpt><trkpt lat="44.4583052" lon="10.5894087"><ele>638.3333333333334</ele><time>2026-04-04T08:05:01.955Z</time></trkpt><trkpt lat="44.4582439" lon="10.5893767"><ele>639.0</ele><time>2026-04-04T08:05:02.954Z</time></trkpt><trkpt lat="44.4581166" lon="10.5893463"><ele>639.6666666666666</ele><time>2026-04-04T08:05:04.955Z</time></trkpt><trkpt lat="44.4580453" lon="10.5893247"><ele>640.3333333333333</ele><time>2026-04-04T08:05:05.955Z</time></trkpt><trkpt lat="44.4579742" lon="10.589277"><ele>641.0</ele><time>2026-04-04T08:05:06.955Z</time></trkpt><trkpt lat="44.4579007" lon="10.5892095"><ele>642.8333333333333</ele><time>2026-04-04T08:05:07.954Z</time></trkpt><trkpt lat="44.4578331" lon="10.5891195"><ele>644.6666666666666</ele><time>2026-04-04T08:05:08.955Z</time></trkpt><trkpt lat="44.4577701" lon="10.5890273"><ele>646.5</ele><time>2026-04-04T08:05:09.955Z</time></trkpt><trkpt lat="44.4577131" lon="10.5889429"><ele>648.3333333333334</ele><time>2026-04-04T08:05:10.955Z</time></trkpt><trkpt lat="44.4576564" lon="10.5888677"><ele>650.1666666666667</ele><time>2026-04-04T08:05:11.955Z</time></trkpt><trkpt lat="44.4575969" lon="10.5888086"><ele>652.0</ele><time>2026-04-04T08:05:12.955Z</time></trkpt><trkpt lat="44.4574861" lon="10.5887241"><ele>652.2</ele><time>2026-04-04T08:05:14.955Z</time></trkpt><trkpt lat="44.4573722" lon="10.5886574"><ele>652.4000000000001</ele><time>2026-04-04T08:05:16.955Z</time></trkpt><trkpt lat="44.4572562" lon="10.5885799"><ele>652.5999999999999</ele><time>2026-04-04T08:05:18.955Z</time></trkpt><trkpt lat="44.4571837" lon="10.5885419"><ele>652.8</ele><time>2026-04-04T08:05:19.954Z</time></trkpt><trkpt lat="44.4571036" lon="10.5885005"><ele>653.0</ele><time>2026-04-04T08:05:20.955Z</time></trkpt><trkpt lat="44.4570184" lon="10.5884525"><ele>655.8</ele><time>2026-04-04T08:05:21.955Z</time></trkpt><trkpt lat="44.456932" lon="10.5883948"><ele>658.5999999999999</ele><time>2026-04-04T08:05:22.955Z</time></trkpt><trkpt lat="44.4568414" lon="10.5883312"><ele>661.4000000000001</ele><time>2026-04-04T08:05:23.955Z</time></trkpt><trkpt lat="44.456743" lon="10.5882563"><ele>664.2</ele><time>2026-04-04T08:05:24.954Z</time></trkpt><trkpt lat="44.4566517" lon="10.5881638"><ele>667.0</ele><time>2026-04-04T08:05:25.955Z</time></trkpt><trkpt lat="44.4565872" lon="10.5880295"><ele>667.0</ele><time>2026-04-04T08:05:26.954Z</time></trkpt><trkpt lat="44.4565588" lon="10.5878752"><ele>667.0</ele><time>2026-04-04T08:05:27.955Z</time></trkpt><trkpt lat="44.4565399" lon="10.587715"><ele>667.0</ele><time>2026-04-04T08:05:28.954Z</time></trkpt><trkpt lat="44.4565331" lon="10.5875526"><ele>667.0</ele><time>2026-04-04T08:05:29.954Z</time></trkpt><trkpt lat="44.4565341" lon="10.5874036"><ele>667.4000000000001</ele><time>2026-04-04T08:05:30.955Z</time></trkpt><trkpt lat="44.4565535" lon="10.5872777"><ele>667.8000000000001</ele><time>2026-04-04T08:05:31.955Z</time></trkpt><trkpt lat="44.4565761" lon="10.5871657"><ele>668.2</ele><time>2026-04-04T08:05:32.955Z</time></trkpt><trkpt lat="44.4565964" lon="10.5870422"><ele>668.6</ele><time>2026-04-04T08:05:33.955Z</time></trkpt><trkpt lat="44.4566027" lon="10.5869024"><ele>669.0</ele><time>2026-04-04T08:05:34.955Z</time></trkpt><trkpt lat="44.4565823" lon="10.5867583"><ele>670.2</ele><time>2026-04-04T08:05:35.954Z</time></trkpt><trkpt lat="44.4565459" lon="10.5866256"><ele>671.4000000000001</ele><time>2026-04-04T08:05:36.955Z</time></trkpt><trkpt lat="44.4565066" lon="10.5864967"><ele>672.6</ele><time>2026-04-04T08:05:37.955Z</time></trkpt><trkpt lat="44.4564751" lon="10.5863669"><ele>673.8</ele><time>2026-04-04T08:05:38.955Z</time></trkpt><trkpt lat="44.4564549" lon="10.5862377"><ele>675.0</ele><time>2026-04-04T08:05:39.955Z</time></trkpt><trkpt lat="44.4564266" lon="10.5861248"><ele>675.1666666666666</ele><time>2026-04-04T08:05:40.954Z</time></trkpt><trkpt lat="44.4564021" lon="10.5860285"><ele>675.3333333333334</ele><time>2026-04-04T08:05:41.954Z</time></trkpt><trkpt lat="44.4563863" lon="10.5859357"><ele>675.5</ele><time>2026-04-04T08:05:42.955Z</time></trkpt><trkpt lat="44.4563707" lon="10.5858479"><ele>675.6666666666667</ele><time>2026-04-04T08:05:43.955Z</time></trkpt><trkpt lat="44.4563523" lon="10.5857586"><ele>675.8333333333334</ele><time>2026-04-04T08:05:44.955Z</time></trkpt><trkpt lat="44.456319" lon="10.5856125"><ele>676.0</ele><time>2026-04-04T08:05:46.955Z</time></trkpt><trkpt lat="44.4562863" lon="10.5854856"><ele>677.8333333333334</ele><time>2026-04-04T08:05:48.954Z</time></trkpt><trkpt lat="44.4562421" lon="10.5854079"><ele>679.6666666666667</ele><time>2026-04-04T08:05:50.955Z</time></trkpt><trkpt lat="44.4561425" lon="10.5854404"><ele>681.5</ele><time>2026-04-04T08:05:52.955Z</time></trkpt><trkpt lat="44.4560808" lon="10.5854855"><ele>683.3333333333334</ele><time>2026-04-04T08:05:53.955Z</time></trkpt><trkpt lat="44.4560217" lon="10.5855184"><ele>685.1666666666666</ele><time>2026-04-04T08:05:54.954Z</time></trkpt><trkpt lat="44.4559258" lon="10.5855473"><ele>687.0</ele><time>2026-04-04T08:05:56.955Z</time></trkpt><trkpt lat="44.4558361" lon="10.5855019"><ele>687.0</ele><time>2026-04-04T08:05:58.955Z</time></trkpt><trkpt lat="44.4557468" lon="10.5854596"><ele>687.0</ele><time>2026-04-04T08:06:00.954Z</time></trkpt><trkpt lat="44.4556708" lon="10.5854183"><ele>687.0</ele><time>2026-04-04T08:06:02.954Z</time></trkpt><trkpt lat="44.455573" lon="10.5853212"><ele>687.0</ele><time>2026-04-04T08:07:20.955Z</time></trkpt><trkpt lat="44.4555056" lon="10.5852105"><ele>687.0</ele><time>2026-04-04T08:07:22.955Z</time></trkpt><trkpt lat="44.4554604" lon="10.5851232"><ele>686.6666666666666</ele><time>2026-04-04T08:07:23.955Z</time></trkpt><trkpt lat="44.4554301" lon="10.5850212"><ele>686.3333333333334</ele><time>2026-04-04T08:07:24.955Z</time></trkpt><trkpt lat="44.4554143" lon="10.5849024"><ele>686.0</ele><time>2026-04-04T08:07:25.954Z</time></trkpt><trkpt lat="44.4553971" lon="10.5847846"><ele>685.6666666666667</ele><time>2026-04-04T08:07:26.954Z</time></trkpt><trkpt lat="44.4553824" lon="10.584663"><ele>685.3333333333334</ele><time>2026-04-04T08:07:27.954Z</time></trkpt><trkpt lat="44.4553816" lon="10.584548"><ele>685.0</ele><time>2026-04-04T08:07:28.954Z</time></trkpt><trkpt lat="44.4553851" lon="10.5844307"><ele>684.6666666666667</ele><time>2026-04-04T08:07:29.954Z</time></trkpt><trkpt lat="44.4553804" lon="10.5843191"><ele>684.3333333333334</ele><time>2026-04-04T08:07:30.955Z</time></trkpt><trkpt lat="44.4553724" lon="10.5842165"><ele>684.0</ele><time>2026-04-04T08:07:31.955Z</time></trkpt><trkpt lat="44.4553617" lon="10.5841178"><ele>683.6666666666666</ele><time>2026-04-04T08:07:32.955Z</time></trkpt><trkpt lat="44.4553436" lon="10.5839969"><ele>683.3333333333333</ele><time>2026-04-04T08:07:34.955Z</time></trkpt><trkpt lat="44.4554106" lon="10.5839731"><ele>683.0</ele><time>2026-04-04T08:07:48.955Z</time></trkpt><trkpt lat="44.4555219" lon="10.5840423"><ele>683.0</ele><time>2026-04-04T08:07:50.954Z</time></trkpt><trkpt lat="44.4555903" lon="10.5840874"><ele>683.0</ele><time>2026-04-04T08:07:51.955Z</time></trkpt><trkpt lat="44.4556593" lon="10.5841215"><ele>683.0</ele><time>2026-04-04T08:07:52.955Z</time></trkpt><trkpt lat="44.4557633" lon="10.58419"><ele>683.0</ele><time>2026-04-04T08:07:54.955Z</time></trkpt><trkpt lat="44.4558699" lon="10.5841987"><ele>683.0</ele><time>2026-04-04T08:07:56.955Z</time></trkpt><trkpt lat="44.4559376" lon="10.5841266"><ele>683.0</ele><time>2026-04-04T08:07:59.955Z</time></trkpt><trkpt lat="44.455944" lon="10.58403"><ele>683.0</ele><time>2026-04-04T08:08:01.955Z</time></trkpt><trkpt lat="44.4558932" lon="10.5838443"><ele>683.0</ele><time>2026-04-04T08:08:03.955Z</time></trkpt><trkpt lat="44.4558823" lon="10.583742"><ele>683.0</ele><time>2026-04-04T08:08:04.955Z</time></trkpt><trkpt lat="44.4558633" lon="10.5836322"><ele>683.0</ele><time>2026-04-04T08:08:05.954Z</time></trkpt><trkpt lat="44.4558267" lon="10.5835466"><ele>683.0</ele><time>2026-04-04T08:08:06.955Z</time></trkpt><trkpt lat="44.4557739" lon="10.5834534"><ele>683.5</ele><time>2026-04-04T08:08:07.954Z</time></trkpt><trkpt lat="44.45573" lon="10.5833579"><ele>684.0</ele><time>2026-04-04T08:08:08.954Z</time></trkpt><trkpt lat="44.45568" lon="10.5832556"><ele>684.5</ele><time>2026-04-04T08:08:09.955Z</time></trkpt><trkpt lat="44.455628" lon="10.5831557"><ele>685.0</ele><time>2026-04-04T08:08:10.954Z</time></trkpt><trkpt lat="44.4555785" lon="10.5830525"><ele>685.5</ele><time>2026-04-04T08:08:11.955Z</time></trkpt><trkpt lat="44.4555301" lon="10.5829476"><ele>686.0</ele><time>2026-04-04T08:08:12.955Z</time></trkpt><trkpt lat="44.4554928" lon="10.5828371"><ele>684.4</ele><time>2026-04-04T08:08:13.954Z</time></trkpt><trkpt lat="44.4554503" lon="10.5827167"><ele>682.8</ele><time>2026-04-04T08:08:14.955Z</time></trkpt><trkpt lat="44.4554072" lon="10.5825923"><ele>681.1999999999999</ele><time>2026-04-04T08:08:15.955Z</time></trkpt><trkpt lat="44.4553542" lon="10.5824663"><ele>679.5999999999999</ele><time>2026-04-04T08:08:16.955Z</time></trkpt><trkpt lat="44.4552975" lon="10.5823403"><ele>678.0</ele><time>2026-04-04T08:08:17.955Z</time></trkpt><trkpt lat="44.4552336" lon="10.5822131"><ele>678.0</ele><time>2026-04-04T08:08:18.954Z</time></trkpt><trkpt lat="44.4551688" lon="10.5821052"><ele>678.0</ele><time>2026-04-04T08:08:19.954Z</time></trkpt><trkpt lat="44.4551082" lon="10.5820114"><ele>678.0</ele><time>2026-04-04T08:08:20.955Z</time></trkpt><trkpt lat="44.4550489" lon="10.5819078"><ele>678.0</ele><time>2026-04-04T08:08:21.954Z</time></trkpt><trkpt lat="44.4550089" lon="10.5817922"><ele>678.0</ele><time>2026-04-04T08:08:22.955Z</time></trkpt><trkpt lat="44.4549791" lon="10.5816726"><ele>679.8</ele><time>2026-04-04T08:08:23.954Z</time></trkpt><trkpt lat="44.4549367" lon="10.581554"><ele>681.5999999999999</ele><time>2026-04-04T08:08:24.955Z</time></trkpt><trkpt lat="44.4548855" lon="10.5814454"><ele>683.4000000000001</ele><time>2026-04-04T08:08:25.955Z</time></trkpt><trkpt lat="44.4548171" lon="10.581344"><ele>685.2</ele><time>2026-04-04T08:08:26.954Z</time></trkpt><trkpt lat="44.4547386" lon="10.5812512"><ele>687.0</ele><time>2026-04-04T08:08:27.955Z</time></trkpt><trkpt lat="44.4546532" lon="10.581167"><ele>685.4000000000001</ele><time>2026-04-04T08:08:28.955Z</time></trkpt><trkpt lat="44.4545644" lon="10.5810795"><ele>683.8000000000001</ele><time>2026-04-04T08:08:29.955Z</time></trkpt><trkpt lat="44.4544815" lon="10.5810042"><ele>682.2</ele><time>2026-04-04T08:08:30.955Z</time></trkpt><trkpt lat="44.4544129" lon="10.5809198"><ele>680.6</ele><time>2026-04-04T08:08:31.954Z</time></trkpt><trkpt lat="44.4543634" lon="10.58081"><ele>679.0</ele><time>2026-04-04T08:08:32.954Z</time></trkpt><trkpt lat="44.4543141" lon="10.5806764"><ele>679.0</ele><time>2026-04-04T08:08:33.955Z</time></trkpt><trkpt lat="44.4542772" lon="10.5805234"><ele>679.0</ele><time>2026-04-04T08:08:34.955Z</time></trkpt><trkpt lat="44.4542451" lon="10.5803632"><ele>679.0</ele><time>2026-04-04T08:08:35.955Z</time></trkpt><trkpt lat="44.4542158" lon="10.5802149"><ele>679.0</ele><time>2026-04-04T08:08:36.955Z</time></trkpt><trkpt lat="44.4541856" lon="10.58008"><ele>679.0</ele><time>2026-04-04T08:08:37.954Z</time></trkpt><trkpt lat="44.4541671" lon="10.5799404"><ele>679.4000000000001</ele><time>2026-04-04T08:08:38.954Z</time></trkpt><trkpt lat="44.4541573" lon="10.5797922"><ele>679.8</ele><time>2026-04-04T08:08:39.955Z</time></trkpt><trkpt lat="44.4541472" lon="10.5796314"><ele>680.2</ele><time>2026-04-04T08:08:40.955Z</time></trkpt><trkpt lat="44.4541431" lon="10.5794751"><ele>680.5999999999999</ele><time>2026-04-04T08:08:41.955Z</time></trkpt><trkpt lat="44.454145" lon="10.5793127"><ele>681.0</ele><time>2026-04-04T08:08:42.955Z</time></trkpt><trkpt lat="44.4541349" lon="10.5791633"><ele>681.0</ele><time>2026-04-04T08:08:43.955Z</time></trkpt><trkpt lat="44.4541003" lon="10.5790152"><ele>681.0</ele><time>2026-04-04T08:08:44.955Z</time></trkpt><trkpt lat="44.4540681" lon="10.5788634"><ele>681.0</ele><time>2026-04-04T08:08:45.954Z</time></trkpt><trkpt lat="44.4540373" lon="10.5787322"><ele>681.0</ele><time>2026-04-04T08:08:46.955Z</time></trkpt><trkpt lat="44.4540216" lon="10.5786124"><ele>681.0</ele><time>2026-04-04T08:08:47.954Z</time></trkpt><trkpt lat="44.4540129" lon="10.5785061"><ele>680.5</ele><time>2026-04-04T08:08:48.955Z</time></trkpt><trkpt lat="44.4540118" lon="10.5783658"><ele>680.0</ele><time>2026-04-04T08:08:49.955Z</time></trkpt><trkpt lat="44.4540214" lon="10.5781979"><ele>679.5</ele><time>2026-04-04T08:08:50.954Z</time></trkpt><trkpt lat="44.4540263" lon="10.5780177"><ele>679.0</ele><time>2026-04-04T08:08:51.955Z</time></trkpt><trkpt lat="44.4540204" lon="10.5778422"><ele>679.0</ele><time>2026-04-04T08:08:52.955Z</time></trkpt><trkpt lat="44.4540145" lon="10.5776513"><ele>679.0</ele><time>2026-04-04T08:08:53.954Z</time></trkpt><trkpt lat="44.4540039" lon="10.5774735"><ele>679.0</ele><time>2026-04-04T08:08:54.954Z</time></trkpt><trkpt lat="44.4539904" lon="10.5773025"><ele>679.0</ele><time>2026-04-04T08:08:55.955Z</time></trkpt><trkpt lat="44.453975" lon="10.5771485"><ele>680.8000000000001</ele><time>2026-04-04T08:08:56.954Z</time></trkpt><trkpt lat="44.453977" lon="10.5769998"><ele>682.6</ele><time>2026-04-04T08:08:57.954Z</time></trkpt><trkpt lat="44.4539797" lon="10.5768656"><ele>684.4</ele><time>2026-04-04T08:08:58.955Z</time></trkpt><trkpt lat="44.4539728" lon="10.5767264"><ele>686.2</ele><time>2026-04-04T08:08:59.955Z</time></trkpt><trkpt lat="44.4539359" lon="10.5765841"><ele>688.0</ele><time>2026-04-04T08:09:00.955Z</time></trkpt><trkpt lat="44.4538713" lon="10.5764436"><ele>688.0</ele><time>2026-04-04T08:09:01.955Z</time></trkpt><trkpt lat="44.4538009" lon="10.5763125"><ele>688.0</ele><time>2026-04-04T08:09:02.955Z</time></trkpt><trkpt lat="44.4537414" lon="10.5761731"><ele>688.0</ele><time>2026-04-04T08:09:03.955Z</time></trkpt><trkpt lat="44.4537021" lon="10.5760334"><ele>688.0</ele><time>2026-04-04T08:09:04.954Z</time></trkpt><trkpt lat="44.453674" lon="10.5758833"><ele>690.2</ele><time>2026-04-04T08:09:05.955Z</time></trkpt><trkpt lat="44.4536425" lon="10.5757333"><ele>692.4</ele><time>2026-04-04T08:09:06.954Z</time></trkpt><trkpt lat="44.4536044" lon="10.575589"><ele>694.6</ele><time>2026-04-04T08:09:07.955Z</time></trkpt><trkpt lat="44.4535588" lon="10.575447"><ele>696.8000000000001</ele><time>2026-04-04T08:09:08.955Z</time></trkpt><trkpt lat="44.4535181" lon="10.5753329"><ele>699.0</ele><time>2026-04-04T08:09:09.955Z</time></trkpt><trkpt lat="44.4534811" lon="10.5752314"><ele>699.0</ele><time>2026-04-04T08:09:10.954Z</time></trkpt><trkpt lat="44.4534393" lon="10.5751336"><ele>699.0</ele><time>2026-04-04T08:09:11.955Z</time></trkpt><trkpt lat="44.4533783" lon="10.5750305"><ele>699.0</ele><time>2026-04-04T08:09:12.955Z</time></trkpt><trkpt lat="44.4533138" lon="10.5749273"><ele>699.0</ele><time>2026-04-04T08:09:13.955Z</time></trkpt><trkpt lat="44.4532405" lon="10.5748503"><ele>699.0</ele><time>2026-04-04T08:09:14.955Z</time></trkpt><trkpt lat="44.4531519" lon="10.5747779"><ele>699.0</ele><time>2026-04-04T08:09:15.954Z</time></trkpt><trkpt lat="44.4530641" lon="10.5746787"><ele>699.0</ele><time>2026-04-04T08:09:16.955Z</time></trkpt><trkpt lat="44.4529867" lon="10.5745598"><ele>699.0</ele><time>2026-04-04T08:09:17.954Z</time></trkpt><trkpt lat="44.4529204" lon="10.5744159"><ele>699.0</ele><time>2026-04-04T08:09:18.954Z</time></trkpt><trkpt lat="44.4528478" lon="10.5742882"><ele>701.0</ele><time>2026-04-04T08:09:19.954Z</time></trkpt><trkpt lat="44.4527668" lon="10.5742097"><ele>703.0</ele><time>2026-04-04T08:09:20.955Z</time></trkpt><trkpt lat="44.4526647" lon="10.5741486"><ele>705.0</ele><time>2026-04-04T08:09:21.955Z</time></trkpt><trkpt lat="44.4525504" lon="10.5741132"><ele>707.0</ele><time>2026-04-04T08:09:22.955Z</time></trkpt><trkpt lat="44.4524326" lon="10.5740719"><ele>709.0</ele><time>2026-04-04T08:09:23.955Z</time></trkpt><trkpt lat="44.4523117" lon="10.5740247"><ele>709.0</ele><time>2026-04-04T08:09:24.955Z</time></trkpt><trkpt lat="44.4522135" lon="10.5739653"><ele>709.0</ele><time>2026-04-04T08:09:25.955Z</time></trkpt><trkpt lat="44.4521382" lon="10.5739226"><ele>709.0</ele><time>2026-04-04T08:09:26.955Z</time></trkpt><trkpt lat="44.4520931" lon="10.5738494"><ele>709.0</ele><time>2026-04-04T08:09:27.955Z</time></trkpt><trkpt lat="44.4520646" lon="10.5737556"><ele>709.0</ele><time>2026-04-04T08:09:28.955Z</time></trkpt><trkpt lat="44.4520493" lon="10.5736462"><ele>709.0</ele><time>2026-04-04T08:09:29.955Z</time></trkpt><trkpt lat="44.452016" lon="10.5735053"><ele>707.25</ele><time>2026-04-04T08:09:30.954Z</time></trkpt><trkpt lat="44.4519763" lon="10.5733324"><ele>705.5</ele><time>2026-04-04T08:09:31.955Z</time></trkpt><trkpt lat="44.4519495" lon="10.5731567"><ele>703.75</ele><time>2026-04-04T08:09:32.955Z</time></trkpt><trkpt lat="44.4519395" lon="10.5729907"><ele>702.0</ele><time>2026-04-04T08:09:33.955Z</time></trkpt><trkpt lat="44.4519395" lon="10.5728172"><ele>702.0</ele><time>2026-04-04T08:09:34.955Z</time></trkpt><trkpt lat="44.4519489" lon="10.5726449"><ele>702.0</ele><time>2026-04-04T08:09:35.955Z</time></trkpt><trkpt lat="44.451947" lon="10.5724639"><ele>702.0</ele><time>2026-04-04T08:09:36.955Z</time></trkpt><trkpt lat="44.4519251" lon="10.572276"><ele>702.0</ele><time>2026-04-04T08:09:37.955Z</time></trkpt><trkpt lat="44.4518796" lon="10.5720867"><ele>702.4000000000001</ele><time>2026-04-04T08:09:38.954Z</time></trkpt><trkpt lat="44.4518437" lon="10.5719508"><ele>702.8000000000001</ele><time>2026-04-04T08:09:39.955Z</time></trkpt><trkpt lat="44.4518475" lon="10.5718296"><ele>703.2</ele><time>2026-04-04T08:09:40.955Z</time></trkpt><trkpt lat="44.4518986" lon="10.5716838"><ele>703.6</ele><time>2026-04-04T08:09:41.954Z</time></trkpt><trkpt lat="44.4519534" lon="10.5715224"><ele>704.0</ele><time>2026-04-04T08:09:42.954Z</time></trkpt><trkpt lat="44.4520046" lon="10.5713358"><ele>702.5</ele><time>2026-04-04T08:09:43.955Z</time></trkpt><trkpt lat="44.4520372" lon="10.571161"><ele>701.0</ele><time>2026-04-04T08:09:44.954Z</time></trkpt><trkpt lat="44.4520257" lon="10.5709526"><ele>699.5</ele><time>2026-04-04T08:09:45.955Z</time></trkpt><trkpt lat="44.4519965" lon="10.5707497"><ele>698.0</ele><time>2026-04-04T08:09:46.955Z</time></trkpt><trkpt lat="44.4519568" lon="10.5705374"><ele>698.0</ele><time>2026-04-04T08:09:47.955Z</time></trkpt><trkpt lat="44.451919" lon="10.5703244"><ele>698.0</ele><time>2026-04-04T08:09:48.954Z</time></trkpt><trkpt lat="44.4518929" lon="10.5701044"><ele>698.0</ele><time>2026-04-04T08:09:49.955Z</time></trkpt><trkpt lat="44.4518651" lon="10.5698993"><ele>698.0</ele><time>2026-04-04T08:09:50.955Z</time></trkpt><trkpt lat="44.4518303" lon="10.5696991"><ele>698.0</ele><time>2026-04-04T08:09:51.955Z</time></trkpt><trkpt lat="44.4517949" lon="10.5694985"><ele>698.0</ele><time>2026-04-04T08:09:52.955Z</time></trkpt><trkpt lat="44.4517595" lon="10.56929"><ele>698.0</ele><time>2026-04-04T08:09:53.954Z</time></trkpt><trkpt lat="44.451723" lon="10.5690948"><ele>700.0</ele><time>2026-04-04T08:09:54.954Z</time></trkpt><trkpt lat="44.4516835" lon="10.568918"><ele>702.0</ele><time>2026-04-04T08:09:55.955Z</time></trkpt><trkpt lat="44.4516475" lon="10.5687704"><ele>704.0</ele><time>2026-04-04T08:09:56.955Z</time></trkpt><trkpt lat="44.4516168" lon="10.5686398"><ele>706.0</ele><time>2026-04-04T08:09:57.955Z</time></trkpt><trkpt lat="44.4516043" lon="10.5685089"><ele>708.0</ele><time>2026-04-04T08:09:58.955Z</time></trkpt><trkpt lat="44.4516117" lon="10.5683483"><ele>707.75</ele><time>2026-04-04T08:09:59.955Z</time></trkpt><trkpt lat="44.4516282" lon="10.5681743"><ele>707.5</ele><time>2026-04-04T08:10:00.954Z</time></trkpt><trkpt lat="44.4516411" lon="10.5680105"><ele>707.25</ele><time>2026-04-04T08:10:01.955Z</time></trkpt><trkpt lat="44.4516492" lon="10.5678576"><ele>707.0</ele><time>2026-04-04T08:10:02.955Z</time></trkpt><trkpt lat="44.4516499" lon="10.567721"><ele>707.0</ele><time>2026-04-04T08:10:03.954Z</time></trkpt><trkpt lat="44.4516262" lon="10.5675786"><ele>707.0</ele><time>2026-04-04T08:10:04.954Z</time></trkpt><trkpt lat="44.4515891" lon="10.5674336"><ele>707.0</ele><time>2026-04-04T08:10:05.955Z</time></trkpt><trkpt lat="44.4515578" lon="10.5673016"><ele>707.0</ele><time>2026-04-04T08:10:06.954Z</time></trkpt><trkpt lat="44.4515488" lon="10.5671437"><ele>707.0</ele><time>2026-04-04T08:10:07.954Z</time></trkpt><trkpt lat="44.4515487" lon="10.566999"><ele>708.0</ele><time>2026-04-04T08:10:08.955Z</time></trkpt><trkpt lat="44.4515294" lon="10.5668552"><ele>709.0</ele><time>2026-04-04T08:10:09.954Z</time></trkpt><trkpt lat="44.4515057" lon="10.5667238"><ele>710.0</ele><time>2026-04-04T08:10:10.954Z</time></trkpt><trkpt lat="44.4515023" lon="10.5665952"><ele>711.0</ele><time>2026-04-04T08:10:11.955Z</time></trkpt><trkpt lat="44.4514793" lon="10.5665021"><ele>712.0</ele><time>2026-04-04T08:10:12.954Z</time></trkpt><trkpt lat="44.4514597" lon="10.566362"><ele>712.0</ele><time>2026-04-04T08:10:14.955Z</time></trkpt><trkpt lat="44.4514617" lon="10.5662255"><ele>712.0</ele><time>2026-04-04T08:10:16.954Z</time></trkpt><trkpt lat="44.451453" lon="10.5660464"><ele>712.0</ele><time>2026-04-04T08:10:18.954Z</time></trkpt><trkpt lat="44.4514345" lon="10.5659606"><ele>712.0</ele><time>2026-04-04T08:10:19.954Z</time></trkpt><trkpt lat="44.4514157" lon="10.5658724"><ele>712.0</ele><time>2026-04-04T08:10:20.955Z</time></trkpt><trkpt lat="44.4514018" lon="10.5657804"><ele>712.0</ele><time>2026-04-04T08:10:21.955Z</time></trkpt><trkpt lat="44.4513713" lon="10.56562"><ele>713.0</ele><time>2026-04-04T08:10:23.955Z</time></trkpt><trkpt lat="44.4513598" lon="10.5655303"><ele>714.0</ele><time>2026-04-04T08:10:24.955Z</time></trkpt><trkpt lat="44.4513551" lon="10.5654367"><ele>715.0</ele><time>2026-04-04T08:10:25.954Z</time></trkpt><trkpt lat="44.4513458" lon="10.5653321"><ele>716.0</ele><time>2026-04-04T08:10:26.954Z</time></trkpt><trkpt lat="44.4513369" lon="10.565222"><ele>717.0</ele><time>2026-04-04T08:10:27.955Z</time></trkpt><trkpt lat="44.4513248" lon="10.5651073"><ele>718.0</ele><time>2026-04-04T08:10:28.955Z</time></trkpt><trkpt lat="44.4513146" lon="10.5649886"><ele>718.5999999999999</ele><time>2026-04-04T08:10:29.955Z</time></trkpt><trkpt lat="44.4513111" lon="10.5648691"><ele>719.1999999999999</ele><time>2026-04-04T08:10:30.955Z</time></trkpt><trkpt lat="44.4513192" lon="10.5647443"><ele>719.8</ele><time>2026-04-04T08:10:31.955Z</time></trkpt><trkpt lat="44.451338" lon="10.5646166"><ele>720.4</ele><time>2026-04-04T08:10:32.954Z</time></trkpt><trkpt lat="44.4513668" lon="10.5644879"><ele>721.0</ele><time>2026-04-04T08:10:33.955Z</time></trkpt><trkpt lat="44.451397" lon="10.5643666"><ele>721.4</ele><time>2026-04-04T08:10:34.955Z</time></trkpt><trkpt lat="44.4514183" lon="10.5642483"><ele>721.8</ele><time>2026-04-04T08:10:35.955Z</time></trkpt><trkpt lat="44.4514255" lon="10.5641128"><ele>722.1999999999999</ele><time>2026-04-04T08:10:36.954Z</time></trkpt><trkpt lat="44.4514208" lon="10.5639866"><ele>722.5999999999999</ele><time>2026-04-04T08:10:37.955Z</time></trkpt><trkpt lat="44.4514144" lon="10.5638515"><ele>723.0</ele><time>2026-04-04T08:10:38.955Z</time></trkpt><trkpt lat="44.4514217" lon="10.5637175"><ele>721.5</ele><time>2026-04-04T08:10:39.955Z</time></trkpt><trkpt lat="44.4514644" lon="10.5635726"><ele>720.0</ele><time>2026-04-04T08:10:40.955Z</time></trkpt><trkpt lat="44.4515319" lon="10.5634373"><ele>718.5</ele><time>2026-04-04T08:10:41.955Z</time></trkpt><trkpt lat="44.4516145" lon="10.5633086"><ele>717.0</ele><time>2026-04-04T08:10:42.954Z</time></trkpt><trkpt lat="44.4517003" lon="10.5631667"><ele>717.0</ele><time>2026-04-04T08:10:43.955Z</time></trkpt><trkpt lat="44.4517754" lon="10.5630092"><ele>717.0</ele><time>2026-04-04T08:10:44.954Z</time></trkpt><trkpt lat="44.4518362" lon="10.5628413"><ele>717.0</ele><time>2026-04-04T08:10:45.955Z</time></trkpt><trkpt lat="44.4518732" lon="10.5626594"><ele>717.0</ele><time>2026-04-04T08:10:46.955Z</time></trkpt><trkpt lat="44.4518933" lon="10.5624571"><ele>713.25</ele><time>2026-04-04T08:10:47.954Z</time></trkpt><trkpt lat="44.4519244" lon="10.562267"><ele>709.5</ele><time>2026-04-04T08:10:48.955Z</time></trkpt><trkpt lat="44.4519693" lon="10.5621051"><ele>705.75</ele><time>2026-04-04T08:10:49.955Z</time></trkpt><trkpt lat="44.4520143" lon="10.561936"><ele>702.0</ele><time>2026-04-04T08:10:50.954Z</time></trkpt><trkpt lat="44.4520342" lon="10.5617513"><ele>699.75</ele><time>2026-04-04T08:10:51.954Z</time></trkpt><trkpt lat="44.4520473" lon="10.5615386"><ele>697.5</ele><time>2026-04-04T08:10:52.954Z</time></trkpt><trkpt lat="44.4520473" lon="10.5613324"><ele>695.25</ele><time>2026-04-04T08:10:53.955Z</time></trkpt><trkpt lat="44.452024" lon="10.5611439"><ele>693.0</ele><time>2026-04-04T08:10:54.955Z</time></trkpt><trkpt lat="44.4520086" lon="10.5609764"><ele>691.75</ele><time>2026-04-04T08:10:55.955Z</time></trkpt><trkpt lat="44.4520021" lon="10.5608139"><ele>690.5</ele><time>2026-04-04T08:10:56.955Z</time></trkpt><trkpt lat="44.4520207" lon="10.5606516"><ele>689.25</ele><time>2026-04-04T08:10:57.955Z</time></trkpt><trkpt lat="44.4520665" lon="10.5604979"><ele>688.0</ele><time>2026-04-04T08:10:58.955Z</time></trkpt><trkpt lat="44.4521331" lon="10.5603557"><ele>696.5</ele><time>2026-04-04T08:10:59.955Z</time></trkpt><trkpt lat="44.4522176" lon="10.5602613"><ele>705.0</ele><time>2026-04-04T08:11:00.955Z</time></trkpt><trkpt lat="44.4523187" lon="10.5601894"><ele>713.5</ele><time>2026-04-04T08:11:01.955Z</time></trkpt><trkpt lat="44.4524294" lon="10.5601132"><ele>722.0</ele><time>2026-04-04T08:11:02.954Z</time></trkpt><trkpt lat="44.452546" lon="10.5600224"><ele>722.0</ele><time>2026-04-04T08:11:03.955Z</time></trkpt><trkpt lat="44.4526603" lon="10.5599189"><ele>722.0</ele><time>2026-04-04T08:11:04.955Z</time></trkpt><trkpt lat="44.4527721" lon="10.5598148"><ele>722.0</ele><time>2026-04-04T08:11:05.955Z</time></trkpt><trkpt lat="44.4528811" lon="10.5597122"><ele>722.0</ele><time>2026-04-04T08:11:06.955Z</time></trkpt><trkpt lat="44.4529655" lon="10.5596156"><ele>721.4000000000001</ele><time>2026-04-04T08:11:07.954Z</time></trkpt><trkpt lat="44.4530289" lon="10.5595262"><ele>720.8000000000001</ele><time>2026-04-04T08:11:08.955Z</time></trkpt><trkpt lat="44.4530785" lon="10.5594291"><ele>720.2</ele><time>2026-04-04T08:11:09.954Z</time></trkpt><trkpt lat="44.4531104" lon="10.559329"><ele>719.6</ele><time>2026-04-04T08:11:10.955Z</time></trkpt><trkpt lat="44.4531205" lon="10.5591959"><ele>719.0</ele><time>2026-04-04T08:11:11.955Z</time></trkpt><trkpt lat="44.4531325" lon="10.5590539"><ele>719.0</ele><time>2026-04-04T08:11:12.955Z</time></trkpt><trkpt lat="44.4531634" lon="10.5589094"><ele>719.0</ele><time>2026-04-04T08:11:13.954Z</time></trkpt><trkpt lat="44.4532024" lon="10.5587646"><ele>719.0</ele><time>2026-04-04T08:11:14.955Z</time></trkpt><trkpt lat="44.453237" lon="10.5586211"><ele>719.0</ele><time>2026-04-04T08:11:15.954Z</time></trkpt><trkpt lat="44.4532765" lon="10.5584783"><ele>719.0</ele><time>2026-04-04T08:11:16.955Z</time></trkpt><trkpt lat="44.45333" lon="10.5583285"><ele>716.25</ele><time>2026-04-04T08:11:17.955Z</time></trkpt><trkpt lat="44.4533962" lon="10.558189"><ele>713.5</ele><time>2026-04-04T08:11:18.954Z</time></trkpt><trkpt lat="44.453431" lon="10.5580461"><ele>710.75</ele><time>2026-04-04T08:11:19.955Z</time></trkpt><trkpt lat="44.4534129" lon="10.5578858"><ele>708.0</ele><time>2026-04-04T08:11:20.955Z</time></trkpt><trkpt lat="44.4533535" lon="10.5577396"><ele>706.5</ele><time>2026-04-04T08:11:21.955Z</time></trkpt><trkpt lat="44.4532769" lon="10.5576108"><ele>705.0</ele><time>2026-04-04T08:11:22.955Z</time></trkpt><trkpt lat="44.4532281" lon="10.5574706"><ele>703.5</ele><time>2026-04-04T08:11:23.954Z</time></trkpt><trkpt lat="44.4532181" lon="10.5573085"><ele>702.0</ele><time>2026-04-04T08:11:24.955Z</time></trkpt><trkpt lat="44.4532371" lon="10.5571515"><ele>699.5</ele><time>2026-04-04T08:11:25.955Z</time></trkpt><trkpt lat="44.4532761" lon="10.5569959"><ele>697.0</ele><time>2026-04-04T08:11:26.955Z</time></trkpt><trkpt lat="44.4533388" lon="10.5568435"><ele>694.5</ele><time>2026-04-04T08:11:27.955Z</time></trkpt><trkpt lat="44.4534044" lon="10.5566864"><ele>692.0</ele><time>2026-04-04T08:11:28.955Z</time></trkpt><trkpt lat="44.4534488" lon="10.5565232"><ele>692.0</ele><time>2026-04-04T08:11:29.955Z</time></trkpt><trkpt lat="44.4534739" lon="10.5563496"><ele>692.0</ele><time>2026-04-04T08:11:30.955Z</time></trkpt><trkpt lat="44.4534909" lon="10.5561797"><ele>692.0</ele><time>2026-04-04T08:11:31.955Z</time></trkpt><trkpt lat="44.4535066" lon="10.5559965"><ele>692.0</ele><time>2026-04-04T08:11:32.955Z</time></trkpt><trkpt lat="44.4535163" lon="10.5558079"><ele>691.5</ele><time>2026-04-04T08:11:33.955Z</time></trkpt><trkpt lat="44.4535176" lon="10.5556226"><ele>691.0</ele><time>2026-04-04T08:11:34.955Z</time></trkpt><trkpt lat="44.4535264" lon="10.5554297"><ele>690.5</ele><time>2026-04-04T08:11:35.955Z</time></trkpt><trkpt lat="44.453547" lon="10.5552473"><ele>690.0</ele><time>2026-04-04T08:11:36.955Z</time></trkpt><trkpt lat="44.4535839" lon="10.5550894"><ele>690.0</ele><time>2026-04-04T08:11:37.955Z</time></trkpt><trkpt lat="44.4536313" lon="10.5549447"><ele>690.0</ele><time>2026-04-04T08:11:38.955Z</time></trkpt><trkpt lat="44.4536812" lon="10.5547911"><ele>690.0</ele><time>2026-04-04T08:11:39.955Z</time></trkpt><trkpt lat="44.4537133" lon="10.5546169"><ele>690.0</ele><time>2026-04-04T08:11:40.955Z</time></trkpt><trkpt lat="44.4537105" lon="10.5544336"><ele>691.25</ele><time>2026-04-04T08:11:41.954Z</time></trkpt><trkpt lat="44.4536883" lon="10.5542566"><ele>692.5</ele><time>2026-04-04T08:11:42.954Z</time></trkpt><trkpt lat="44.4536527" lon="10.5540999"><ele>693.75</ele><time>2026-04-04T08:11:43.954Z</time></trkpt><trkpt lat="44.4536036" lon="10.5539715"><ele>695.0</ele><time>2026-04-04T08:11:44.955Z</time></trkpt><trkpt lat="44.4535293" lon="10.5538377"><ele>695.0</ele><time>2026-04-04T08:11:45.955Z</time></trkpt><trkpt lat="44.4534651" lon="10.5537121"><ele>695.0</ele><time>2026-04-04T08:11:46.954Z</time></trkpt><trkpt lat="44.4534286" lon="10.5535707"><ele>695.0</ele><time>2026-04-04T08:11:47.955Z</time></trkpt><trkpt lat="44.4534269" lon="10.5534245"><ele>695.0</ele><time>2026-04-04T08:11:48.954Z</time></trkpt><trkpt lat="44.453442" lon="10.5532742"><ele>695.0</ele><time>2026-04-04T08:11:49.955Z</time></trkpt><trkpt lat="44.4534587" lon="10.5531166"><ele>694.25</ele><time>2026-04-04T08:11:50.954Z</time></trkpt><trkpt lat="44.4534642" lon="10.5529583"><ele>693.5</ele><time>2026-04-04T08:11:51.955Z</time></trkpt><trkpt lat="44.4534767" lon="10.5527935"><ele>692.75</ele><time>2026-04-04T08:11:52.954Z</time></trkpt><trkpt lat="44.4534976" lon="10.5526294"><ele>692.0</ele><time>2026-04-04T08:11:53.955Z</time></trkpt><trkpt lat="44.4535303" lon="10.5524672"><ele>694.4000000000001</ele><time>2026-04-04T08:11:54.954Z</time></trkpt><trkpt lat="44.4535536" lon="10.5523187"><ele>696.8000000000001</ele><time>2026-04-04T08:11:55.955Z</time></trkpt><trkpt lat="44.4535407" lon="10.5521755"><ele>699.2</ele><time>2026-04-04T08:11:56.954Z</time></trkpt><trkpt lat="44.4534964" lon="10.5520465"><ele>701.6</ele><time>2026-04-04T08:11:57.954Z</time></trkpt><trkpt lat="44.4534298" lon="10.5519083"><ele>704.0</ele><time>2026-04-04T08:11:58.955Z</time></trkpt><trkpt lat="44.4533735" lon="10.5517602"><ele>702.8000000000001</ele><time>2026-04-04T08:11:59.955Z</time></trkpt><trkpt lat="44.4533296" lon="10.5516206"><ele>701.6</ele><time>2026-04-04T08:12:00.955Z</time></trkpt><trkpt lat="44.4532791" lon="10.5514818"><ele>700.4</ele><time>2026-04-04T08:12:01.955Z</time></trkpt><trkpt lat="44.4532222" lon="10.5513482"><ele>699.2</ele><time>2026-04-04T08:12:02.955Z</time></trkpt><trkpt lat="44.453149" lon="10.5512271"><ele>698.0</ele><time>2026-04-04T08:12:03.955Z</time></trkpt><trkpt lat="44.45306" lon="10.5511284"><ele>698.0</ele><time>2026-04-04T08:12:04.955Z</time></trkpt><trkpt lat="44.4529615" lon="10.5510466"><ele>698.0</ele><time>2026-04-04T08:12:05.954Z</time></trkpt><trkpt lat="44.4528498" lon="10.5509836"><ele>698.0</ele><time>2026-04-04T08:12:06.954Z</time></trkpt><trkpt lat="44.4527367" lon="10.550938"><ele>698.0</ele><time>2026-04-04T08:12:07.955Z</time></trkpt><trkpt lat="44.4526327" lon="10.5509036"><ele>701.5999999999999</ele><time>2026-04-04T08:12:08.954Z</time></trkpt><trkpt lat="44.4525342" lon="10.5508572"><ele>705.1999999999999</ele><time>2026-04-04T08:12:09.955Z</time></trkpt><trkpt lat="44.4524532" lon="10.5508052"><ele>708.8</ele><time>2026-04-04T08:12:10.954Z</time></trkpt><trkpt lat="44.4523904" lon="10.5507448"><ele>712.4</ele><time>2026-04-04T08:12:11.954Z</time></trkpt><trkpt lat="44.4523485" lon="10.550597"><ele>716.0</ele><time>2026-04-04T08:12:13.955Z</time></trkpt><trkpt lat="44.4523737" lon="10.5505035"><ele>716.0</ele><time>2026-04-04T08:12:14.954Z</time></trkpt><trkpt lat="44.4524352" lon="10.5503968"><ele>716.0</ele><time>2026-04-04T08:12:15.954Z</time></trkpt><trkpt lat="44.45251" lon="10.5502915"><ele>716.0</ele><time>2026-04-04T08:12:16.955Z</time></trkpt><trkpt lat="44.4525612" lon="10.5502005"><ele>716.0</ele><time>2026-04-04T08:12:17.955Z</time></trkpt><trkpt lat="44.4525746" lon="10.5500923"><ele>716.0</ele><time>2026-04-04T08:12:18.955Z</time></trkpt><trkpt lat="44.452575" lon="10.5499523"><ele>719.0</ele><time>2026-04-04T08:12:19.955Z</time></trkpt><trkpt lat="44.4525529" lon="10.5498088"><ele>722.0</ele><time>2026-04-04T08:12:20.955Z</time></trkpt><trkpt lat="44.452525" lon="10.549645"><ele>725.0</ele><time>2026-04-04T08:12:21.954Z</time></trkpt><trkpt lat="44.4525261" lon="10.549478"><ele>728.0</ele><time>2026-04-04T08:12:22.955Z</time></trkpt><trkpt lat="44.4525541" lon="10.5493255"><ele>729.8</ele><time>2026-04-04T08:12:23.955Z</time></trkpt><trkpt lat="44.4526055" lon="10.5492017"><ele>731.5999999999999</ele><time>2026-04-04T08:12:24.955Z</time></trkpt><trkpt lat="44.4526539" lon="10.5490811"><ele>733.4000000000001</ele><time>2026-04-04T08:12:25.954Z</time></trkpt><trkpt lat="44.4526738" lon="10.5489517"><ele>735.2</ele><time>2026-04-04T08:12:26.954Z</time></trkpt><trkpt lat="44.4526816" lon="10.5488137"><ele>737.0</ele><time>2026-04-04T08:12:27.955Z</time></trkpt><trkpt lat="44.4527101" lon="10.5486571"><ele>738.2</ele><time>2026-04-04T08:12:28.954Z</time></trkpt><trkpt lat="44.4527548" lon="10.5485198"><ele>739.4000000000001</ele><time>2026-04-04T08:12:29.955Z</time></trkpt><trkpt lat="44.4528156" lon="10.5484181"><ele>740.5999999999999</ele><time>2026-04-04T08:12:30.955Z</time></trkpt><trkpt lat="44.4528624" lon="10.5483315"><ele>741.8</ele><time>2026-04-04T08:12:31.955Z</time></trkpt><trkpt lat="44.4528984" lon="10.5482511"><ele>743.0</ele><time>2026-04-04T08:12:32.954Z</time></trkpt><trkpt lat="44.4529638" lon="10.5481285"><ele>743.0</ele><time>2026-04-04T08:12:34.955Z</time></trkpt><trkpt lat="44.4529944" lon="10.5479972"><ele>743.0</ele><time>2026-04-04T08:12:36.955Z</time></trkpt><trkpt lat="44.4529347" lon="10.5479074"><ele>743.0</ele><time>2026-04-04T08:12:38.955Z</time></trkpt><trkpt lat="44.4528554" lon="10.5478"><ele>743.0</ele><time>2026-04-04T08:12:40.955Z</time></trkpt><trkpt lat="44.4527697" lon="10.5476751"><ele>743.0</ele><time>2026-04-04T08:12:42.955Z</time></trkpt><trkpt lat="44.4527168" lon="10.5476015"><ele>740.8333333333333</ele><time>2026-04-04T08:12:43.955Z</time></trkpt><trkpt lat="44.4526655" lon="10.5475275"><ele>738.6666666666666</ele><time>2026-04-04T08:12:44.955Z</time></trkpt><trkpt lat="44.4526143" lon="10.5474482"><ele>736.5</ele><time>2026-04-04T08:12:45.955Z</time></trkpt><trkpt lat="44.4525587" lon="10.5473707"><ele>734.3333333333334</ele><time>2026-04-04T08:12:46.954Z</time></trkpt><trkpt lat="44.4525156" lon="10.5472816"><ele>732.1666666666667</ele><time>2026-04-04T08:12:47.955Z</time></trkpt><trkpt lat="44.4524848" lon="10.5471824"><ele>730.0</ele><time>2026-04-04T08:12:48.955Z</time></trkpt><trkpt lat="44.4524585" lon="10.5470788"><ele>727.8</ele><time>2026-04-04T08:12:49.955Z</time></trkpt><trkpt lat="44.4524609" lon="10.5469815"><ele>725.6</ele><time>2026-04-04T08:12:50.955Z</time></trkpt><trkpt lat="44.4524855" lon="10.5468611"><ele>723.4000000000001</ele><time>2026-04-04T08:12:51.955Z</time></trkpt><trkpt lat="44.4525196" lon="10.5467216"><ele>721.2</ele><time>2026-04-04T08:12:52.955Z</time></trkpt><trkpt lat="44.4525563" lon="10.5465676"><ele>719.0</ele><time>2026-04-04T08:12:53.954Z</time></trkpt><trkpt lat="44.4525895" lon="10.5464316"><ele>719.0</ele><time>2026-04-04T08:12:54.955Z</time></trkpt><trkpt lat="44.4526067" lon="10.5463051"><ele>719.0</ele><time>2026-04-04T08:12:55.955Z</time></trkpt><trkpt lat="44.4526241" lon="10.5461725"><ele>719.0</ele><time>2026-04-04T08:12:56.955Z</time></trkpt><trkpt lat="44.452621" lon="10.5460386"><ele>719.0</ele><time>2026-04-04T08:12:57.955Z</time></trkpt><trkpt lat="44.4526264" lon="10.5459077"><ele>719.0</ele><time>2026-04-04T08:12:58.955Z</time></trkpt><trkpt lat="44.452644" lon="10.545791"><ele>718.3333333333333</ele><time>2026-04-04T08:12:59.954Z</time></trkpt><trkpt lat="44.4526649" lon="10.5456897"><ele>717.6666666666666</ele><time>2026-04-04T08:13:00.955Z</time></trkpt><trkpt lat="44.4526669" lon="10.5455894"><ele>717.0</ele><time>2026-04-04T08:13:01.955Z</time></trkpt><trkpt lat="44.452658" lon="10.5454819"><ele>716.3333333333334</ele><time>2026-04-04T08:13:02.955Z</time></trkpt><trkpt lat="44.4526236" lon="10.5453751"><ele>715.6666666666667</ele><time>2026-04-04T08:13:03.954Z</time></trkpt><trkpt lat="44.4525802" lon="10.5452597"><ele>715.0</ele><time>2026-04-04T08:13:04.954Z</time></trkpt><trkpt lat="44.4525428" lon="10.5451372"><ele>712.4</ele><time>2026-04-04T08:13:05.954Z</time></trkpt><trkpt lat="44.452503" lon="10.5450229"><ele>709.8</ele><time>2026-04-04T08:13:06.953Z</time></trkpt><trkpt lat="44.4524453" lon="10.5449185"><ele>707.2</ele><time>2026-04-04T08:13:07.954Z</time></trkpt><trkpt lat="44.4523878" lon="10.5447975"><ele>704.6</ele><time>2026-04-04T08:13:08.954Z</time></trkpt><trkpt lat="44.452333" lon="10.5446701"><ele>702.0</ele><time>2026-04-04T08:13:09.954Z</time></trkpt><trkpt lat="44.4522865" lon="10.5445494"><ele>702.3333333333334</ele><time>2026-04-04T08:13:10.953Z</time></trkpt><trkpt lat="44.4522489" lon="10.5444428"><ele>702.6666666666666</ele><time>2026-04-04T08:13:11.954Z</time></trkpt><trkpt lat="44.4522007" lon="10.5443611"><ele>703.0</ele><time>2026-04-04T08:13:12.954Z</time></trkpt><trkpt lat="44.4521363" lon="10.5443172"><ele>703.3333333333333</ele><time>2026-04-04T08:13:13.954Z</time></trkpt><trkpt lat="44.452048" lon="10.5443125"><ele>703.6666666666666</ele><time>2026-04-04T08:13:14.954Z</time></trkpt><trkpt lat="44.4519391" lon="10.5443431"><ele>704.0</ele><time>2026-04-04T08:13:15.954Z</time></trkpt><trkpt lat="44.4518339" lon="10.5443734"><ele>704.0</ele><time>2026-04-04T08:13:16.954Z</time></trkpt><trkpt lat="44.4517415" lon="10.5443729"><ele>704.0</ele><time>2026-04-04T08:13:17.953Z</time></trkpt><trkpt lat="44.4516563" lon="10.5443302"><ele>704.0</ele><time>2026-04-04T08:13:18.954Z</time></trkpt><trkpt lat="44.4515891" lon="10.5442385"><ele>704.0</ele><time>2026-04-04T08:13:19.953Z</time></trkpt><trkpt lat="44.4515402" lon="10.5441317"><ele>704.0</ele><time>2026-04-04T08:13:20.954Z</time></trkpt><trkpt lat="44.4514816" lon="10.5440174"><ele>704.0</ele><time>2026-04-04T08:13:21.954Z</time></trkpt><trkpt lat="44.451436" lon="10.5439188"><ele>704.0</ele><time>2026-04-04T08:13:22.953Z</time></trkpt><trkpt lat="44.4513764" lon="10.5437964"><ele>704.0</ele><time>2026-04-04T08:13:24.954Z</time></trkpt><trkpt lat="44.4512848" lon="10.5436954"><ele>704.0</ele><time>2026-04-04T08:13:26.954Z</time></trkpt><trkpt lat="44.4512049" lon="10.5435816"><ele>704.0</ele><time>2026-04-04T08:13:28.954Z</time></trkpt><trkpt lat="44.4511673" lon="10.543417"><ele>707.6666666666666</ele><time>2026-04-04T08:13:30.954Z</time></trkpt><trkpt lat="44.4511538" lon="10.5433233"><ele>711.3333333333333</ele><time>2026-04-04T08:13:31.954Z</time></trkpt><trkpt lat="44.4511512" lon="10.5432315"><ele>715.0</ele><time>2026-04-04T08:13:32.954Z</time></trkpt><trkpt lat="44.4511586" lon="10.5431399"><ele>718.6666666666666</ele><time>2026-04-04T08:13:33.954Z</time></trkpt><trkpt lat="44.4511783" lon="10.5430518"><ele>722.3333333333334</ele><time>2026-04-04T08:13:34.954Z</time></trkpt><trkpt lat="44.4511959" lon="10.5429599"><ele>726.0</ele><time>2026-04-04T08:13:35.954Z</time></trkpt><trkpt lat="44.4512491" lon="10.5427996"><ele>728.0</ele><time>2026-04-04T08:13:37.954Z</time></trkpt><trkpt lat="44.4513265" lon="10.5426737"><ele>730.0</ele><time>2026-04-04T08:13:39.954Z</time></trkpt><trkpt lat="44.4513679" lon="10.5425257"><ele>732.0</ele><time>2026-04-04T08:13:41.954Z</time></trkpt><trkpt lat="44.4513205" lon="10.5423823"><ele>734.0</ele><time>2026-04-04T08:13:43.954Z</time></trkpt><trkpt lat="44.4512819" lon="10.5422996"><ele>736.0</ele><time>2026-04-04T08:13:44.953Z</time></trkpt><trkpt lat="44.4512554" lon="10.5422132"><ele>736.0</ele><time>2026-04-04T08:13:45.954Z</time></trkpt><trkpt lat="44.4512247" lon="10.5421311"><ele>736.0</ele><time>2026-04-04T08:13:46.954Z</time></trkpt><trkpt lat="44.4511903" lon="10.5420401"><ele>736.0</ele><time>2026-04-04T08:13:47.954Z</time></trkpt><trkpt lat="44.4511518" lon="10.5419569"><ele>736.0</ele><time>2026-04-04T08:13:48.954Z</time></trkpt><trkpt lat="44.4511041" lon="10.5418415"><ele>736.0</ele><time>2026-04-04T08:13:49.954Z</time></trkpt><trkpt lat="44.4510703" lon="10.5417312"><ele>736.0</ele><time>2026-04-04T08:13:50.953Z</time></trkpt><trkpt lat="44.4510875" lon="10.5416179"><ele>737.0</ele><time>2026-04-04T08:13:52.953Z</time></trkpt><trkpt lat="44.4511495" lon="10.5414937"><ele>738.0</ele><time>2026-04-04T08:15:07.954Z</time></trkpt><trkpt lat="44.4511456" lon="10.5413814"><ele>739.0</ele><time>2026-04-04T08:15:09.954Z</time></trkpt><trkpt lat="44.4511588" lon="10.5412779"><ele>740.0</ele><time>2026-04-04T08:15:11.954Z</time></trkpt><trkpt lat="44.451164" lon="10.5411858"><ele>741.0</ele><time>2026-04-04T08:15:13.953Z</time></trkpt><trkpt lat="44.4511718" lon="10.5410576"><ele>742.0</ele><time>2026-04-04T08:15:16.954Z</time></trkpt><trkpt lat="44.4511935" lon="10.5409665"><ele>744.0</ele><time>2026-04-04T08:15:18.953Z</time></trkpt><trkpt lat="44.4512311" lon="10.5408531"><ele>746.0</ele><time>2026-04-04T08:15:21.953Z</time></trkpt><trkpt lat="44.451294" lon="10.5408064"><ele>748.0</ele><time>2026-04-04T08:15:24.954Z</time></trkpt><trkpt lat="44.4513797" lon="10.5407451"><ele>750.0</ele><time>2026-04-04T08:15:27.954Z</time></trkpt><trkpt lat="44.451442" lon="10.5407123"><ele>752.0</ele><time>2026-04-04T08:15:29.954Z</time></trkpt><trkpt lat="44.4515027" lon="10.5406875"><ele>754.0</ele><time>2026-04-04T08:15:31.954Z</time></trkpt><trkpt lat="44.4515909" lon="10.5406486"><ele>753.4285714285713</ele><time>2026-04-04T08:15:34.954Z</time></trkpt><trkpt lat="44.4516546" lon="10.5405992"><ele>752.8571428571429</ele><time>2026-04-04T08:15:36.953Z</time></trkpt><trkpt lat="44.4517217" lon="10.540525"><ele>752.2857142857142</ele><time>2026-04-04T08:15:38.954Z</time></trkpt><trkpt lat="44.4517851" lon="10.5404423"><ele>751.7142857142857</ele><time>2026-04-04T08:15:40.954Z</time></trkpt><trkpt lat="44.4518358" lon="10.5403805"><ele>751.1428571428571</ele><time>2026-04-04T08:15:42.954Z</time></trkpt><trkpt lat="44.4518791" lon="10.5403053"><ele>750.5714285714286</ele><time>2026-04-04T08:15:44.953Z</time></trkpt><trkpt lat="44.4518895" lon="10.5402125"><ele>750.0</ele><time>2026-04-04T08:15:46.953Z</time></trkpt><trkpt lat="44.451892" lon="10.540117"><ele>750.0</ele><time>2026-04-04T08:15:48.953Z</time></trkpt><trkpt lat="44.4519047" lon="10.540022"><ele>750.0</ele><time>2026-04-04T08:15:50.954Z</time></trkpt><trkpt lat="44.4519164" lon="10.5399249"><ele>750.0</ele><time>2026-04-04T08:15:52.954Z</time></trkpt><trkpt lat="44.4519384" lon="10.5398333"><ele>750.0</ele><time>2026-04-04T08:15:54.954Z</time></trkpt><trkpt lat="44.4519722" lon="10.5397025"><ele>750.0</ele><time>2026-04-04T08:15:57.953Z</time></trkpt><trkpt lat="44.4519594" lon="10.5395749"><ele>750.0</ele><time>2026-04-04T08:15:59.954Z</time></trkpt><trkpt lat="44.4519116" lon="10.5394389"><ele>751.0</ele><time>2026-04-04T08:16:01.954Z</time></trkpt><trkpt lat="44.4518756" lon="10.5393534"><ele>752.0</ele><time>2026-04-04T08:16:02.953Z</time></trkpt><trkpt lat="44.451854" lon="10.5392605"><ele>753.0</ele><time>2026-04-04T08:16:03.954Z</time></trkpt><trkpt lat="44.4518403" lon="10.53916"><ele>754.0</ele><time>2026-04-04T08:16:04.954Z</time></trkpt><trkpt lat="44.4518276" lon="10.5390523"><ele>755.0</ele><time>2026-04-04T08:16:05.954Z</time></trkpt><trkpt lat="44.4518335" lon="10.5389492"><ele>756.0</ele><time>2026-04-04T08:16:06.953Z</time></trkpt><trkpt lat="44.4518517" lon="10.5388404"><ele>757.0</ele><time>2026-04-04T08:16:07.953Z</time></trkpt><trkpt lat="44.4518807" lon="10.538725"><ele>756.3333333333334</ele><time>2026-04-04T08:16:08.954Z</time></trkpt><trkpt lat="44.4519325" lon="10.5386303"><ele>755.6666666666667</ele><time>2026-04-04T08:16:09.954Z</time></trkpt><trkpt lat="44.4519874" lon="10.5385437"><ele>755.0</ele><time>2026-04-04T08:16:10.954Z</time></trkpt><trkpt lat="44.4520412" lon="10.5384595"><ele>754.3333333333334</ele><time>2026-04-04T08:16:11.954Z</time></trkpt><trkpt lat="44.4520922" lon="10.5383735"><ele>753.6666666666666</ele><time>2026-04-04T08:16:12.953Z</time></trkpt><trkpt lat="44.4521024" lon="10.5382825"><ele>753.0</ele><time>2026-04-04T08:16:13.954Z</time></trkpt><trkpt lat="44.4520864" lon="10.5381926"><ele>753.0</ele><time>2026-04-04T08:16:14.954Z</time></trkpt><trkpt lat="44.4520538" lon="10.538111"><ele>753.0</ele><time>2026-04-04T08:16:15.954Z</time></trkpt><trkpt lat="44.4520152" lon="10.5380058"><ele>753.0</ele><time>2026-04-04T08:16:16.954Z</time></trkpt><trkpt lat="44.4519639" lon="10.5378985"><ele>753.0</ele><time>2026-04-04T08:16:17.954Z</time></trkpt><trkpt lat="44.4519032" lon="10.5377833"><ele>753.0</ele><time>2026-04-04T08:16:18.954Z</time></trkpt><trkpt lat="44.4518538" lon="10.5376521"><ele>751.0</ele><time>2026-04-04T08:16:19.954Z</time></trkpt><trkpt lat="44.4518103" lon="10.5374836"><ele>749.0</ele><time>2026-04-04T08:16:20.954Z</time></trkpt><trkpt lat="44.4517903" lon="10.5373279"><ele>747.0</ele><time>2026-04-04T08:16:21.953Z</time></trkpt><trkpt lat="44.4517747" lon="10.5371817"><ele>745.0</ele><time>2026-04-04T08:16:22.953Z</time></trkpt><trkpt lat="44.4517294" lon="10.537017"><ele>739.75</ele><time>2026-04-04T08:16:23.953Z</time></trkpt><trkpt lat="44.4516629" lon="10.5368538"><ele>734.5</ele><time>2026-04-04T08:16:24.953Z</time></trkpt><trkpt lat="44.4516015" lon="10.5367123"><ele>729.25</ele><time>2026-04-04T08:16:25.954Z</time></trkpt><trkpt lat="44.4515483" lon="10.5366059"><ele>724.0</ele><time>2026-04-04T08:16:26.953Z</time></trkpt><trkpt lat="44.4514924" lon="10.5364552"><ele>724.0</ele><time>2026-04-04T08:16:27.953Z</time></trkpt><trkpt lat="44.4514291" lon="10.5362878"><ele>724.0</ele><time>2026-04-04T08:16:28.954Z</time></trkpt><trkpt lat="44.4513973" lon="10.5361431"><ele>724.0</ele><time>2026-04-04T08:16:29.954Z</time></trkpt><trkpt lat="44.4513627" lon="10.5359891"><ele>724.0</ele><time>2026-04-04T08:16:30.954Z</time></trkpt><trkpt lat="44.4513308" lon="10.5358401"><ele>722.6</ele><time>2026-04-04T08:16:31.954Z</time></trkpt><trkpt lat="44.451292" lon="10.535708"><ele>721.2</ele><time>2026-04-04T08:16:32.954Z</time></trkpt><trkpt lat="44.4512651" lon="10.5355941"><ele>719.8000000000001</ele><time>2026-04-04T08:16:33.954Z</time></trkpt><trkpt lat="44.4512664" lon="10.5354812"><ele>718.4000000000001</ele><time>2026-04-04T08:16:34.953Z</time></trkpt><trkpt lat="44.4512881" lon="10.5353366"><ele>717.0</ele><time>2026-04-04T08:16:35.954Z</time></trkpt><trkpt lat="44.4513198" lon="10.5351988"><ele>716.8</ele><time>2026-04-04T08:16:36.954Z</time></trkpt><trkpt lat="44.4513355" lon="10.5350765"><ele>716.6</ele><time>2026-04-04T08:16:37.953Z</time></trkpt><trkpt lat="44.4513253" lon="10.5349647"><ele>716.4</ele><time>2026-04-04T08:16:38.954Z</time></trkpt><trkpt lat="44.4513168" lon="10.5348487"><ele>716.1999999999999</ele><time>2026-04-04T08:16:39.953Z</time></trkpt><trkpt lat="44.451228" lon="10.5347191"><ele>716.0</ele><time>2026-04-04T08:16:41.953Z</time></trkpt><trkpt lat="44.4511164" lon="10.5347529"><ele>722.1999999999999</ele><time>2026-04-04T08:16:43.954Z</time></trkpt><trkpt lat="44.4510543" lon="10.534785"><ele>728.4</ele><time>2026-04-04T08:16:44.953Z</time></trkpt><trkpt lat="44.450986" lon="10.534772"><ele>734.6</ele><time>2026-04-04T08:16:45.953Z</time></trkpt><trkpt lat="44.4508898" lon="10.5347182"><ele>740.8</ele><time>2026-04-04T08:16:46.954Z</time></trkpt><trkpt lat="44.4507864" lon="10.5346497"><ele>747.0</ele><time>2026-04-04T08:16:47.954Z</time></trkpt><trkpt lat="44.4506937" lon="10.5345847"><ele>747.0</ele><time>2026-04-04T08:16:48.954Z</time></trkpt><trkpt lat="44.4505945" lon="10.5345543"><ele>747.0</ele><time>2026-04-04T08:16:49.954Z</time></trkpt><trkpt lat="44.4505023" lon="10.5345774"><ele>747.0</ele><time>2026-04-04T08:16:50.954Z</time></trkpt><trkpt lat="44.4504371" lon="10.5346378"><ele>747.0</ele><time>2026-04-04T08:16:51.954Z</time></trkpt><trkpt lat="44.450312" lon="10.5345913"><ele>747.0</ele><time>2026-04-04T08:16:53.953Z</time></trkpt><trkpt lat="44.4502598" lon="10.5345107"><ele>744.4000000000001</ele><time>2026-04-04T08:16:54.954Z</time></trkpt><trkpt lat="44.4501943" lon="10.5344674"><ele>741.8000000000001</ele><time>2026-04-04T08:16:56.953Z</time></trkpt><trkpt lat="44.4501294" lon="10.5345146"><ele>739.2</ele><time>2026-04-04T08:16:57.953Z</time></trkpt><trkpt lat="44.4500205" lon="10.5345858"><ele>736.6</ele><time>2026-04-04T08:16:58.953Z</time></trkpt><trkpt lat="44.4499219" lon="10.534651"><ele>734.0</ele><time>2026-04-04T08:16:59.954Z</time></trkpt><trkpt lat="44.4498066" lon="10.5345242"><ele>734.0</ele><time>2026-04-04T08:17:01.954Z</time></trkpt><trkpt lat="44.4497363" lon="10.5344185"><ele>734.0</ele><time>2026-04-04T08:17:02.954Z</time></trkpt><trkpt lat="44.4496696" lon="10.5343181"><ele>734.0</ele><time>2026-04-04T08:17:03.954Z</time></trkpt><trkpt lat="44.4495968" lon="10.5342043"><ele>734.0</ele><time>2026-04-04T08:17:04.954Z</time></trkpt><trkpt lat="44.4495517" lon="10.5340768"><ele>734.0</ele><time>2026-04-04T08:17:05.954Z</time></trkpt><trkpt lat="44.4495331" lon="10.5339861"><ele>735.2</ele><time>2026-04-04T08:17:06.954Z</time></trkpt><trkpt lat="44.4494355" lon="10.5338799"><ele>736.4000000000001</ele><time>2026-04-04T08:17:08.954Z</time></trkpt><trkpt lat="44.4493469" lon="10.533852"><ele>737.6</ele><time>2026-04-04T08:17:09.953Z</time></trkpt><trkpt lat="44.4492426" lon="10.5337959"><ele>738.8</ele><time>2026-04-04T08:17:10.954Z</time></trkpt><trkpt lat="44.44917" lon="10.5337218"><ele>740.0</ele><time>2026-04-04T08:17:11.954Z</time></trkpt><trkpt lat="44.4491034" lon="10.5336458"><ele>740.0</ele><time>2026-04-04T08:17:12.954Z</time></trkpt><trkpt lat="44.4490528" lon="10.5335327"><ele>740.0</ele><time>2026-04-04T08:17:13.954Z</time></trkpt><trkpt lat="44.4490215" lon="10.5333899"><ele>740.0</ele><time>2026-04-04T08:17:14.954Z</time></trkpt><trkpt lat="44.448982" lon="10.5332373"><ele>740.0</ele><time>2026-04-04T08:17:15.954Z</time></trkpt><trkpt lat="44.4489476" lon="10.5330787"><ele>740.0</ele><time>2026-04-04T08:17:16.954Z</time></trkpt><trkpt lat="44.4489181" lon="10.5329373"><ele>740.2</ele><time>2026-04-04T08:17:17.953Z</time></trkpt><trkpt lat="44.4488902" lon="10.5328088"><ele>740.4</ele><time>2026-04-04T08:17:18.954Z</time></trkpt><trkpt lat="44.4488432" lon="10.5326898"><ele>740.5999999999999</ele><time>2026-04-04T08:17:19.953Z</time></trkpt><trkpt lat="44.4488203" lon="10.5325885"><ele>740.8</ele><time>2026-04-04T08:17:20.954Z</time></trkpt><trkpt lat="44.4488295" lon="10.5324658"><ele>741.0</ele><time>2026-04-04T08:17:21.954Z</time></trkpt><trkpt lat="44.4488734" lon="10.5323444"><ele>741.0</ele><time>2026-04-04T08:17:22.954Z</time></trkpt><trkpt lat="44.44892" lon="10.5322466"><ele>741.0</ele><time>2026-04-04T08:17:23.953Z</time></trkpt><trkpt lat="44.4489418" lon="10.5321559"><ele>741.0</ele><time>2026-04-04T08:17:24.954Z</time></trkpt><trkpt lat="44.4489334" lon="10.5320393"><ele>741.0</ele><time>2026-04-04T08:17:25.953Z</time></trkpt><trkpt lat="44.4488973" lon="10.5319367"><ele>741.0</ele><time>2026-04-04T08:17:26.953Z</time></trkpt><trkpt lat="44.4488537" lon="10.5318687"><ele>741.0</ele><time>2026-04-04T08:17:27.954Z</time></trkpt><trkpt lat="44.4488186" lon="10.5317875"><ele>743.8333333333334</ele><time>2026-04-04T08:17:28.954Z</time></trkpt><trkpt lat="44.4488042" lon="10.5316887"><ele>746.6666666666666</ele><time>2026-04-04T08:17:29.954Z</time></trkpt><trkpt lat="44.4488059" lon="10.5315816"><ele>749.5</ele><time>2026-04-04T08:17:30.954Z</time></trkpt><trkpt lat="44.448818" lon="10.5314619"><ele>752.3333333333333</ele><time>2026-04-04T08:17:31.954Z</time></trkpt><trkpt lat="44.4488313" lon="10.5313405"><ele>755.1666666666666</ele><time>2026-04-04T08:17:32.953Z</time></trkpt><trkpt lat="44.4488355" lon="10.531221"><ele>758.0</ele><time>2026-04-04T08:17:33.954Z</time></trkpt><trkpt lat="44.4488318" lon="10.5310936"><ele>759.1666666666666</ele><time>2026-04-04T08:17:34.954Z</time></trkpt><trkpt lat="44.4488225" lon="10.5309746"><ele>760.3333333333333</ele><time>2026-04-04T08:17:35.953Z</time></trkpt><trkpt lat="44.4488034" lon="10.5308651"><ele>761.5</ele><time>2026-04-04T08:17:36.954Z</time></trkpt><trkpt lat="44.4487889" lon="10.5307341"><ele>762.6666666666666</ele><time>2026-04-04T08:17:37.954Z</time></trkpt><trkpt lat="44.4487651" lon="10.5306061"><ele>763.8333333333334</ele><time>2026-04-04T08:17:38.954Z</time></trkpt><trkpt lat="44.4487345" lon="10.5304948"><ele>765.0</ele><time>2026-04-04T08:17:39.953Z</time></trkpt><trkpt lat="44.4487116" lon="10.5304039"><ele>761.0</ele><time>2026-04-04T08:17:40.954Z</time></trkpt><trkpt lat="44.4487093" lon="10.530258"><ele>757.0</ele><time>2026-04-04T08:17:42.954Z</time></trkpt><trkpt lat="44.4487139" lon="10.5301207"><ele>753.0</ele><time>2026-04-04T08:17:44.954Z</time></trkpt><trkpt lat="44.4487213" lon="10.5299782"><ele>749.0</ele><time>2026-04-04T08:17:46.954Z</time></trkpt><trkpt lat="44.4486534" lon="10.5299116"><ele>745.0</ele><time>2026-04-04T08:17:55.953Z</time></trkpt><trkpt lat="44.4485278" lon="10.5299509"><ele>745.0</ele><time>2026-04-04T08:17:57.953Z</time></trkpt><trkpt lat="44.4484592" lon="10.5299504"><ele>745.0</ele><time>2026-04-04T08:17:58.954Z</time></trkpt><trkpt lat="44.4483832" lon="10.5299248"><ele>745.0</ele><time>2026-04-04T08:17:59.953Z</time></trkpt><trkpt lat="44.4482972" lon="10.5299042"><ele>745.0</ele><time>2026-04-04T08:18:00.954Z</time></trkpt><trkpt lat="44.4482046" lon="10.5298794"><ele>745.0</ele><time>2026-04-04T08:18:01.953Z</time></trkpt><trkpt lat="44.4481129" lon="10.5298498"><ele>745.0</ele><time>2026-04-04T08:18:02.954Z</time></trkpt><trkpt lat="44.4480326" lon="10.5298001"><ele>745.0</ele><time>2026-04-04T08:18:03.954Z</time></trkpt><trkpt lat="44.4479645" lon="10.5297362"><ele>745.0</ele><time>2026-04-04T08:18:04.953Z</time></trkpt><trkpt lat="44.4479087" lon="10.5296633"><ele>745.0</ele><time>2026-04-04T08:18:05.954Z</time></trkpt><trkpt lat="44.4478762" lon="10.5295051"><ele>745.0</ele><time>2026-04-04T08:18:07.953Z</time></trkpt><trkpt lat="44.4479148" lon="10.5294051"><ele>745.0</ele><time>2026-04-04T08:18:08.954Z</time></trkpt><trkpt lat="44.4479743" lon="10.5293077"><ele>745.0</ele><time>2026-04-04T08:18:09.954Z</time></trkpt><trkpt lat="44.4480469" lon="10.5292132"><ele>746.0</ele><time>2026-04-04T08:18:10.954Z</time></trkpt><trkpt lat="44.4481072" lon="10.5291103"><ele>747.0</ele><time>2026-04-04T08:18:11.954Z</time></trkpt><trkpt lat="44.4481574" lon="10.528997"><ele>748.0</ele><time>2026-04-04T08:18:12.954Z</time></trkpt><trkpt lat="44.4481786" lon="10.5288635"><ele>749.0</ele><time>2026-04-04T08:18:13.954Z</time></trkpt><trkpt lat="44.4481712" lon="10.5287208"><ele>750.0</ele><time>2026-04-04T08:18:14.954Z</time></trkpt><trkpt lat="44.4481505" lon="10.5285854"><ele>751.4</ele><time>2026-04-04T08:18:15.954Z</time></trkpt><trkpt lat="44.4481404" lon="10.52845"><ele>752.8</ele><time>2026-04-04T08:18:16.953Z</time></trkpt><trkpt lat="44.4481176" lon="10.5283264"><ele>754.2</ele><time>2026-04-04T08:18:17.953Z</time></trkpt><trkpt lat="44.4480601" lon="10.528224"><ele>755.6</ele><time>2026-04-04T08:18:18.953Z</time></trkpt><trkpt lat="44.4479839" lon="10.5281264"><ele>757.0</ele><time>2026-04-04T08:18:19.953Z</time></trkpt><trkpt lat="44.447912" lon="10.5280314"><ele>750.8</ele><time>2026-04-04T08:18:20.954Z</time></trkpt><trkpt lat="44.4478608" lon="10.5279363"><ele>744.6</ele><time>2026-04-04T08:18:21.954Z</time></trkpt><trkpt lat="44.4478526" lon="10.527806"><ele>738.4</ele><time>2026-04-04T08:18:22.954Z</time></trkpt><trkpt lat="44.4478639" lon="10.5276796"><ele>732.1999999999999</ele><time>2026-04-04T08:18:23.954Z</time></trkpt><trkpt lat="44.4478769" lon="10.5275535"><ele>726.0</ele><time>2026-04-04T08:18:24.954Z</time></trkpt><trkpt lat="44.4478755" lon="10.5274278"><ele>726.0</ele><time>2026-04-04T08:18:25.953Z</time></trkpt><trkpt lat="44.447858" lon="10.5273002"><ele>726.0</ele><time>2026-04-04T08:18:26.954Z</time></trkpt><trkpt lat="44.4478239" lon="10.5271926"><ele>726.0</ele><time>2026-04-04T08:18:27.954Z</time></trkpt><trkpt lat="44.4477713" lon="10.5270955"><ele>726.0</ele><time>2026-04-04T08:18:28.954Z</time></trkpt><trkpt lat="44.4476937" lon="10.5270175"><ele>726.0</ele><time>2026-04-04T08:18:29.954Z</time></trkpt><trkpt lat="44.4475942" lon="10.5269843"><ele>726.0</ele><time>2026-04-04T08:18:30.954Z</time></trkpt><trkpt lat="44.4474868" lon="10.5269847"><ele>726.0</ele><time>2026-04-04T08:18:31.954Z</time></trkpt><trkpt lat="44.4473732" lon="10.5270161"><ele>726.0</ele><time>2026-04-04T08:18:32.953Z</time></trkpt><trkpt lat="44.4472543" lon="10.5270435"><ele>726.0</ele><time>2026-04-04T08:18:33.954Z</time></trkpt><trkpt lat="44.4471318" lon="10.5270931"><ele>720.5</ele><time>2026-04-04T08:18:34.953Z</time></trkpt><trkpt lat="44.4470065" lon="10.5271452"><ele>715.0</ele><time>2026-04-04T08:18:35.954Z</time></trkpt><trkpt lat="44.4468917" lon="10.527198"><ele>709.5</ele><time>2026-04-04T08:18:36.954Z</time></trkpt><trkpt lat="44.4467867" lon="10.5272495"><ele>704.0</ele><time>2026-04-04T08:18:37.954Z</time></trkpt><trkpt lat="44.4466953" lon="10.5272453"><ele>704.0</ele><time>2026-04-04T08:18:38.954Z</time></trkpt><trkpt lat="44.446614" lon="10.5271671"><ele>704.0</ele><time>2026-04-04T08:18:39.954Z</time></trkpt><trkpt lat="44.4465444" lon="10.5270456"><ele>704.0</ele><time>2026-04-04T08:18:40.954Z</time></trkpt><trkpt lat="44.4464894" lon="10.5269179"><ele>704.0</ele><time>2026-04-04T08:18:41.954Z</time></trkpt><trkpt lat="44.4464333" lon="10.5267856"><ele>704.0</ele><time>2026-04-04T08:18:42.953Z</time></trkpt><trkpt lat="44.446383" lon="10.5266316"><ele>703.0</ele><time>2026-04-04T08:18:43.953Z</time></trkpt><trkpt lat="44.4463213" lon="10.5264729"><ele>702.0</ele><time>2026-04-04T08:18:44.954Z</time></trkpt><trkpt lat="44.4462503" lon="10.5263233"><ele>701.0</ele><time>2026-04-04T08:18:45.953Z</time></trkpt><trkpt lat="44.4461653" lon="10.5261801"><ele>700.0</ele><time>2026-04-04T08:18:46.954Z</time></trkpt><trkpt lat="44.4460867" lon="10.5260356"><ele>705.0</ele><time>2026-04-04T08:18:47.954Z</time></trkpt><trkpt lat="44.4460109" lon="10.5258896"><ele>710.0</ele><time>2026-04-04T08:18:48.953Z</time></trkpt><trkpt lat="44.4459356" lon="10.5257677"><ele>715.0</ele><time>2026-04-04T08:18:49.953Z</time></trkpt><trkpt lat="44.4458582" lon="10.525668"><ele>720.0</ele><time>2026-04-04T08:18:50.953Z</time></trkpt><trkpt lat="44.4457644" lon="10.5256218"><ele>725.0</ele><time>2026-04-04T08:18:51.954Z</time></trkpt><trkpt lat="44.4456617" lon="10.5256112"><ele>725.0</ele><time>2026-04-04T08:18:52.954Z</time></trkpt><trkpt lat="44.4455783" lon="10.5256175"><ele>725.0</ele><time>2026-04-04T08:18:53.953Z</time></trkpt><trkpt lat="44.4454894" lon="10.5256408"><ele>725.0</ele><time>2026-04-04T08:18:54.953Z</time></trkpt><trkpt lat="44.4453954" lon="10.5256576"><ele>725.0</ele><time>2026-04-04T08:18:55.953Z</time></trkpt><trkpt lat="44.445292" lon="10.525656"><ele>725.0</ele><time>2026-04-04T08:18:56.953Z</time></trkpt><trkpt lat="44.4451975" lon="10.5255959"><ele>722.2</ele><time>2026-04-04T08:18:57.953Z</time></trkpt><trkpt lat="44.4451072" lon="10.5254935"><ele>719.4</ele><time>2026-04-04T08:18:58.954Z</time></trkpt><trkpt lat="44.4450256" lon="10.5253788"><ele>716.5999999999999</ele><time>2026-04-04T08:18:59.954Z</time></trkpt><trkpt lat="44.4449583" lon="10.5252617"><ele>713.8</ele><time>2026-04-04T08:19:00.954Z</time></trkpt><trkpt lat="44.4449122" lon="10.5251223"><ele>711.0</ele><time>2026-04-04T08:19:01.954Z</time></trkpt><trkpt lat="44.4448916" lon="10.524972"><ele>711.0</ele><time>2026-04-04T08:19:02.954Z</time></trkpt><trkpt lat="44.4448751" lon="10.524828"><ele>711.0</ele><time>2026-04-04T08:19:03.954Z</time></trkpt><trkpt lat="44.4448471" lon="10.524687"><ele>711.0</ele><time>2026-04-04T08:19:04.954Z</time></trkpt><trkpt lat="44.444812" lon="10.5245434"><ele>711.0</ele><time>2026-04-04T08:19:05.954Z</time></trkpt><trkpt lat="44.4447761" lon="10.5244019"><ele>711.0</ele><time>2026-04-04T08:19:06.953Z</time></trkpt><trkpt lat="44.444742" lon="10.5242696"><ele>712.0</ele><time>2026-04-04T08:19:07.954Z</time></trkpt><trkpt lat="44.4447065" lon="10.5241603"><ele>713.0</ele><time>2026-04-04T08:19:08.953Z</time></trkpt><trkpt lat="44.4446646" lon="10.5240922"><ele>714.0</ele><time>2026-04-04T08:19:09.954Z</time></trkpt><trkpt lat="44.4445653" lon="10.5241465"><ele>715.0</ele><time>2026-04-04T08:19:11.953Z</time></trkpt><trkpt lat="44.4445613" lon="10.5242359"><ele>716.0</ele><time>2026-04-04T08:19:12.953Z</time></trkpt><trkpt lat="44.4445706" lon="10.5243465"><ele>717.0</ele><time>2026-04-04T08:19:13.954Z</time></trkpt><trkpt lat="44.4445744" lon="10.5244864"><ele>708.0</ele><time>2026-04-04T08:19:14.953Z</time></trkpt><trkpt lat="44.4445571" lon="10.5246411"><ele>699.0</ele><time>2026-04-04T08:19:15.954Z</time></trkpt><trkpt lat="44.4445181" lon="10.5247941"><ele>690.0</ele><time>2026-04-04T08:19:16.954Z</time></trkpt><trkpt lat="44.4444797" lon="10.5249395"><ele>681.0</ele><time>2026-04-04T08:19:17.954Z</time></trkpt><trkpt lat="44.4444669" lon="10.5251111"><ele>681.0</ele><time>2026-04-04T08:19:18.954Z</time></trkpt><trkpt lat="44.4444684" lon="10.5253"><ele>681.0</ele><time>2026-04-04T08:19:19.954Z</time></trkpt><trkpt lat="44.4444723" lon="10.5254825"><ele>681.0</ele><time>2026-04-04T08:19:20.954Z</time></trkpt><trkpt lat="44.4444684" lon="10.5256499"><ele>681.0</ele><time>2026-04-04T08:19:21.953Z</time></trkpt><trkpt lat="44.4444755" lon="10.5257901"><ele>679.5999999999999</ele><time>2026-04-04T08:19:22.954Z</time></trkpt><trkpt lat="44.4444945" lon="10.5259015"><ele>678.2</ele><time>2026-04-04T08:19:23.954Z</time></trkpt><trkpt lat="44.444539" lon="10.5260175"><ele>676.8</ele><time>2026-04-04T08:19:25.954Z</time></trkpt><trkpt lat="44.4445661" lon="10.5261016"><ele>675.4000000000001</ele><time>2026-04-04T08:19:37.954Z</time></trkpt><trkpt lat="44.4446257" lon="10.526194"><ele>674.0</ele><time>2026-04-04T08:20:04.954Z</time></trkpt><trkpt lat="44.4447304" lon="10.5262988"><ele>674.0</ele><time>2026-04-04T08:20:06.953Z</time></trkpt><trkpt lat="44.4448125" lon="10.5263649"><ele>674.0</ele><time>2026-04-04T08:20:07.954Z</time></trkpt><trkpt lat="44.4449087" lon="10.5264506"><ele>674.0</ele><time>2026-04-04T08:20:08.954Z</time></trkpt><trkpt lat="44.4450023" lon="10.5265716"><ele>674.0</ele><time>2026-04-04T08:20:09.954Z</time></trkpt><trkpt lat="44.4450834" lon="10.5267088"><ele>674.0</ele><time>2026-04-04T08:20:10.954Z</time></trkpt><trkpt lat="44.4451574" lon="10.5268505"><ele>674.0</ele><time>2026-04-04T08:20:11.954Z</time></trkpt><trkpt lat="44.4452349" lon="10.5269867"><ele>674.0</ele><time>2026-04-04T08:20:12.954Z</time></trkpt><trkpt lat="44.4453149" lon="10.5271245"><ele>674.0</ele><time>2026-04-04T08:20:13.953Z</time></trkpt><trkpt lat="44.4454099" lon="10.5272641"><ele>674.4000000000001</ele><time>2026-04-04T08:20:14.953Z</time></trkpt><trkpt lat="44.4455159" lon="10.5273696"><ele>674.8</ele><time>2026-04-04T08:20:15.954Z</time></trkpt><trkpt lat="44.44561" lon="10.527448"><ele>675.2</ele><time>2026-04-04T08:20:16.953Z</time></trkpt><trkpt lat="44.4456834" lon="10.5275165"><ele>675.5999999999999</ele><time>2026-04-04T08:20:17.954Z</time></trkpt><trkpt lat="44.4457427" lon="10.5276481"><ele>676.0</ele><time>2026-04-04T08:20:19.953Z</time></trkpt><trkpt lat="44.4456601" lon="10.5277202"><ele>676.0</ele><time>2026-04-04T08:20:21.953Z</time></trkpt><trkpt lat="44.4455808" lon="10.5276755"><ele>676.0</ele><time>2026-04-04T08:20:22.953Z</time></trkpt><trkpt lat="44.4454921" lon="10.5276281"><ele>676.0</ele><time>2026-04-04T08:20:23.954Z</time></trkpt><trkpt lat="44.4453905" lon="10.5275747"><ele>676.0</ele><time>2026-04-04T08:20:24.953Z</time></trkpt><trkpt lat="44.4452973" lon="10.5275074"><ele>676.0</ele><time>2026-04-04T08:20:25.954Z</time></trkpt><trkpt lat="44.4452178" lon="10.527416"><ele>669.25</ele><time>2026-04-04T08:20:26.954Z</time></trkpt><trkpt lat="44.4451372" lon="10.5273089"><ele>662.5</ele><time>2026-04-04T08:20:27.954Z</time></trkpt><trkpt lat="44.4450438" lon="10.5272025"><ele>655.75</ele><time>2026-04-04T08:20:28.953Z</time></trkpt><trkpt lat="44.4449316" lon="10.5271211"><ele>649.0</ele><time>2026-04-04T08:20:29.954Z</time></trkpt><trkpt lat="44.4448117" lon="10.5270692"><ele>645.5</ele><time>2026-04-04T08:20:30.954Z</time></trkpt><trkpt lat="44.4446798" lon="10.5270519"><ele>642.0</ele><time>2026-04-04T08:20:31.953Z</time></trkpt><trkpt lat="44.4445492" lon="10.5270742"><ele>638.5</ele><time>2026-04-04T08:20:32.953Z</time></trkpt><trkpt lat="44.4444429" lon="10.5271602"><ele>635.0</ele><time>2026-04-04T08:20:33.954Z</time></trkpt><trkpt lat="44.4443571" lon="10.5272688"><ele>635.0</ele><time>2026-04-04T08:20:34.953Z</time></trkpt><trkpt lat="44.4442703" lon="10.5273628"><ele>635.0</ele><time>2026-04-04T08:20:35.953Z</time></trkpt><trkpt lat="44.4441859" lon="10.5274063"><ele>635.0</ele><time>2026-04-04T08:20:36.954Z</time></trkpt><trkpt lat="44.4441027" lon="10.5274121"><ele>635.0</ele><time>2026-04-04T08:20:37.953Z</time></trkpt><trkpt lat="44.444015" lon="10.5273721"><ele>635.0</ele><time>2026-04-04T08:20:38.954Z</time></trkpt><trkpt lat="44.4439312" lon="10.5273126"><ele>635.0</ele><time>2026-04-04T08:20:39.954Z</time></trkpt><trkpt lat="44.4438609" lon="10.527218"><ele>635.0</ele><time>2026-04-04T08:20:40.953Z</time></trkpt><trkpt lat="44.4438015" lon="10.5271109"><ele>635.0</ele><time>2026-04-04T08:20:41.954Z</time></trkpt><trkpt lat="44.443726" lon="10.5270088"><ele>635.0</ele><time>2026-04-04T08:20:42.954Z</time></trkpt><trkpt lat="44.4436242" lon="10.5269582"><ele>635.0</ele><time>2026-04-04T08:20:43.954Z</time></trkpt><trkpt lat="44.443504" lon="10.5269456"><ele>636.5</ele><time>2026-04-04T08:20:44.954Z</time></trkpt><trkpt lat="44.4433912" lon="10.5269423"><ele>638.0</ele><time>2026-04-04T08:20:45.954Z</time></trkpt><trkpt lat="44.4432779" lon="10.5269168"><ele>639.5</ele><time>2026-04-04T08:20:46.954Z</time></trkpt><trkpt lat="44.4431689" lon="10.5268959"><ele>641.0</ele><time>2026-04-04T08:20:47.954Z</time></trkpt><trkpt lat="44.4430534" lon="10.5268722"><ele>637.75</ele><time>2026-04-04T08:20:48.954Z</time></trkpt><trkpt lat="44.4429393" lon="10.5268412"><ele>634.5</ele><time>2026-04-04T08:20:49.954Z</time></trkpt><trkpt lat="44.4428163" lon="10.526797"><ele>631.25</ele><time>2026-04-04T08:20:50.953Z</time></trkpt><trkpt lat="44.4427002" lon="10.5267472"><ele>628.0</ele><time>2026-04-04T08:20:51.953Z</time></trkpt><trkpt lat="44.4425883" lon="10.526685"><ele>628.0</ele><time>2026-04-04T08:20:52.954Z</time></trkpt><trkpt lat="44.4424828" lon="10.5266216"><ele>628.0</ele><time>2026-04-04T08:20:53.954Z</time></trkpt><trkpt lat="44.4423871" lon="10.526556"><ele>628.0</ele><time>2026-04-04T08:20:54.954Z</time></trkpt><trkpt lat="44.4423008" lon="10.5264913"><ele>628.0</ele><time>2026-04-04T08:20:55.954Z</time></trkpt><trkpt lat="44.4422202" lon="10.5264271"><ele>628.0</ele><time>2026-04-04T08:20:56.953Z</time></trkpt><trkpt lat="44.442139" lon="10.5263724"><ele>626.1999999999999</ele><time>2026-04-04T08:20:57.953Z</time></trkpt><trkpt lat="44.442055" lon="10.526321"><ele>624.4</ele><time>2026-04-04T08:20:58.954Z</time></trkpt><trkpt lat="44.4419705" lon="10.5262706"><ele>622.5999999999999</ele><time>2026-04-04T08:20:59.953Z</time></trkpt><trkpt lat="44.4418858" lon="10.5262263"><ele>620.8</ele><time>2026-04-04T08:21:00.953Z</time></trkpt><trkpt lat="44.4417948" lon="10.5261827"><ele>619.0</ele><time>2026-04-04T08:21:01.953Z</time></trkpt><trkpt lat="44.4417081" lon="10.5261278"><ele>619.0</ele><time>2026-04-04T08:21:02.954Z</time></trkpt><trkpt lat="44.4416241" lon="10.5260643"><ele>619.0</ele><time>2026-04-04T08:21:03.954Z</time></trkpt><trkpt lat="44.441559" lon="10.5259789"><ele>619.0</ele><time>2026-04-04T08:21:04.954Z</time></trkpt><trkpt lat="44.4415055" lon="10.5258601"><ele>619.0</ele><time>2026-04-04T08:21:05.954Z</time></trkpt><trkpt lat="44.4414614" lon="10.5257273"><ele>619.0</ele><time>2026-04-04T08:21:06.953Z</time></trkpt><trkpt lat="44.4414229" lon="10.5256047"><ele>619.0</ele><time>2026-04-04T08:21:07.954Z</time></trkpt><trkpt lat="44.4413797" lon="10.5254759"><ele>619.0</ele><time>2026-04-04T08:21:08.953Z</time></trkpt><trkpt lat="44.4413443" lon="10.5253488"><ele>619.0</ele><time>2026-04-04T08:21:09.954Z</time></trkpt><trkpt lat="44.4413078" lon="10.5252259"><ele>619.0</ele><time>2026-04-04T08:21:10.954Z</time></trkpt><trkpt lat="44.4412729" lon="10.5251111"><ele>619.0</ele><time>2026-04-04T08:21:11.954Z</time></trkpt><trkpt lat="44.4412435" lon="10.5250007"><ele>616.5</ele><time>2026-04-04T08:21:12.954Z</time></trkpt><trkpt lat="44.4412092" lon="10.5248981"><ele>614.0</ele><time>2026-04-04T08:21:13.953Z</time></trkpt><trkpt lat="44.4411708" lon="10.5247979"><ele>611.5</ele><time>2026-04-04T08:21:14.953Z</time></trkpt><trkpt lat="44.4411077" lon="10.5247317"><ele>609.0</ele><time>2026-04-04T08:21:15.954Z</time></trkpt><trkpt lat="44.4410362" lon="10.5246878"><ele>606.5</ele><time>2026-04-04T08:21:16.953Z</time></trkpt><trkpt lat="44.4409606" lon="10.5246441"><ele>604.0</ele><time>2026-04-04T08:21:17.953Z</time></trkpt><trkpt lat="44.4408843" lon="10.5245946"><ele>604.6666666666667</ele><time>2026-04-04T08:21:18.953Z</time></trkpt><trkpt lat="44.4408152" lon="10.5245377"><ele>605.3333333333334</ele><time>2026-04-04T08:21:19.954Z</time></trkpt><trkpt lat="44.4407081" lon="10.5244416"><ele>606.0</ele><time>2026-04-04T08:21:21.953Z</time></trkpt><trkpt lat="44.4406408" lon="10.5244069"><ele>606.6666666666666</ele><time>2026-04-04T08:21:22.954Z</time></trkpt><trkpt lat="44.4405635" lon="10.524381"><ele>607.3333333333333</ele><time>2026-04-04T08:21:23.953Z</time></trkpt><trkpt lat="44.4404811" lon="10.5243752"><ele>608.0</ele><time>2026-04-04T08:21:24.954Z</time></trkpt><trkpt lat="44.4404005" lon="10.5243517"><ele>606.1428571428571</ele><time>2026-04-04T08:21:25.953Z</time></trkpt><trkpt lat="44.4403257" lon="10.5243358"><ele>604.2857142857143</ele><time>2026-04-04T08:21:26.954Z</time></trkpt><trkpt lat="44.440251" lon="10.5243345"><ele>602.4285714285714</ele><time>2026-04-04T08:21:27.954Z</time></trkpt><trkpt lat="44.4401797" lon="10.5243277"><ele>600.5714285714286</ele><time>2026-04-04T08:21:28.953Z</time></trkpt><trkpt lat="44.440109" lon="10.5243189"><ele>598.7142857142858</ele><time>2026-04-04T08:21:29.954Z</time></trkpt><trkpt lat="44.4400379" lon="10.5243022"><ele>596.8571428571429</ele><time>2026-04-04T08:21:30.953Z</time></trkpt><trkpt lat="44.4399773" lon="10.5242778"><ele>595.0</ele><time>2026-04-04T08:21:31.954Z</time></trkpt><trkpt lat="44.4398978" lon="10.5241515"><ele>595.0</ele><time>2026-04-04T08:21:33.954Z</time></trkpt><trkpt lat="44.4398657" lon="10.5240493"><ele>595.0</ele><time>2026-04-04T08:21:34.954Z</time></trkpt><trkpt lat="44.439828" lon="10.5239501"><ele>595.0</ele><time>2026-04-04T08:21:35.953Z</time></trkpt><trkpt lat="44.4397913" lon="10.5238503"><ele>595.0</ele><time>2026-04-04T08:21:36.954Z</time></trkpt><trkpt lat="44.4397399" lon="10.5237587"><ele>595.0</ele><time>2026-04-04T08:21:37.954Z</time></trkpt><trkpt lat="44.4396831" lon="10.523675"><ele>595.0</ele><time>2026-04-04T08:21:38.954Z</time></trkpt><trkpt lat="44.4396264" lon="10.5236054"><ele>591.1666666666667</ele><time>2026-04-04T08:21:39.954Z</time></trkpt><trkpt lat="44.4395743" lon="10.5235518"><ele>587.3333333333334</ele><time>2026-04-04T08:21:40.954Z</time></trkpt><trkpt lat="44.4394797" lon="10.5234613"><ele>583.5</ele><time>2026-04-04T08:21:42.954Z</time></trkpt><trkpt lat="44.4394314" lon="10.523395"><ele>579.6666666666666</ele><time>2026-04-04T08:21:43.954Z</time></trkpt><trkpt lat="44.4393886" lon="10.5233084"><ele>575.8333333333333</ele><time>2026-04-04T08:21:44.954Z</time></trkpt><trkpt lat="44.4393534" lon="10.5232005"><ele>572.0</ele><time>2026-04-04T08:21:45.954Z</time></trkpt><trkpt lat="44.4393347" lon="10.5231076"><ele>571.9999999999999</ele><time>2026-04-04T08:21:46.953Z</time></trkpt><trkpt lat="44.4393086" lon="10.5230194"><ele>572.0</ele><time>2026-04-04T08:21:47.953Z</time></trkpt><trkpt lat="44.4392692" lon="10.5229463"><ele>572.0</ele><time>2026-04-04T08:21:48.954Z</time></trkpt><trkpt lat="44.4392213" lon="10.5228753"><ele>572.0</ele><time>2026-04-04T08:21:49.953Z</time></trkpt><trkpt lat="44.4391755" lon="10.522808"><ele>572.0</ele><time>2026-04-04T08:21:50.954Z</time></trkpt><trkpt lat="44.4391439" lon="10.5227289"><ele>571.9999999999999</ele><time>2026-04-04T08:21:51.954Z</time></trkpt><trkpt lat="44.4391249" lon="10.5226402"><ele>572.0</ele><time>2026-04-04T08:21:52.954Z</time></trkpt><trkpt lat="44.4391052" lon="10.5225438"><ele>571.2</ele><time>2026-04-04T08:21:53.954Z</time></trkpt><trkpt lat="44.4390904" lon="10.5223853"><ele>570.4000000000001</ele><time>2026-04-04T08:21:55.954Z</time></trkpt><trkpt lat="44.4391294" lon="10.5222492"><ele>569.5999999999999</ele><time>2026-04-04T08:21:57.954Z</time></trkpt><trkpt lat="44.43921" lon="10.5221061"><ele>568.8</ele><time>2026-04-04T08:21:59.954Z</time></trkpt><trkpt lat="44.4392598" lon="10.5220402"><ele>568.0</ele><time>2026-04-04T08:22:00.954Z</time></trkpt><trkpt lat="44.439314" lon="10.5219249"><ele>567.0</ele><time>2026-04-04T08:22:02.954Z</time></trkpt><trkpt lat="44.4392616" lon="10.5218157"><ele>566.0</ele><time>2026-04-04T08:22:04.953Z</time></trkpt><trkpt lat="44.4391939" lon="10.5217797"><ele>565.0</ele><time>2026-04-04T08:22:05.954Z</time></trkpt><trkpt lat="44.4391115" lon="10.5217318"><ele>564.0</ele><time>2026-04-04T08:22:06.954Z</time></trkpt><trkpt lat="44.4390382" lon="10.5216752"><ele>563.0</ele><time>2026-04-04T08:22:07.954Z</time></trkpt><trkpt lat="44.4389706" lon="10.5216129"><ele>562.0</ele><time>2026-04-04T08:22:08.954Z</time></trkpt><trkpt lat="44.4389056" lon="10.5215524"><ele>562.0</ele><time>2026-04-04T08:22:09.953Z</time></trkpt><trkpt lat="44.4388421" lon="10.5214918"><ele>562.0</ele><time>2026-04-04T08:22:10.954Z</time></trkpt><trkpt lat="44.4387899" lon="10.5214296"><ele>562.0</ele><time>2026-04-04T08:22:11.954Z</time></trkpt><trkpt lat="44.4387339" lon="10.5212659"><ele>562.0</ele><time>2026-04-04T08:22:13.953Z</time></trkpt><trkpt lat="44.4387058" lon="10.521115"><ele>562.0</ele><time>2026-04-04T08:22:15.954Z</time></trkpt><trkpt lat="44.4386646" lon="10.5210416"><ele>561.6666666666667</ele><time>2026-04-04T08:22:17.954Z</time></trkpt><trkpt lat="44.4385738" lon="10.5211269"><ele>561.3333333333334</ele><time>2026-04-04T08:22:19.954Z</time></trkpt><trkpt lat="44.4385146" lon="10.5212156"><ele>561.0</ele><time>2026-04-04T08:22:20.953Z</time></trkpt><trkpt lat="44.4384606" lon="10.5212811"><ele>560.6666666666666</ele><time>2026-04-04T08:22:21.953Z</time></trkpt><trkpt lat="44.4383977" lon="10.5213136"><ele>560.3333333333333</ele><time>2026-04-04T08:22:22.953Z</time></trkpt><trkpt lat="44.4383287" lon="10.5213333"><ele>560.0</ele><time>2026-04-04T08:22:23.954Z</time></trkpt><trkpt lat="44.4382644" lon="10.5213325"><ele>560.0</ele><time>2026-04-04T08:22:24.953Z</time></trkpt><trkpt lat="44.43818" lon="10.5212919"><ele>560.0</ele><time>2026-04-04T08:22:26.954Z</time></trkpt><trkpt lat="44.4381144" lon="10.5212262"><ele>560.0</ele><time>2026-04-04T08:22:29.953Z</time></trkpt><trkpt lat="44.4380655" lon="10.52106"><ele>560.0</ele><time>2026-04-04T08:22:31.954Z</time></trkpt><trkpt lat="44.4380385" lon="10.5209502"><ele>560.0</ele><time>2026-04-04T08:22:32.954Z</time></trkpt><trkpt lat="44.4380229" lon="10.5208542"><ele>560.0</ele><time>2026-04-04T08:22:33.953Z</time></trkpt><trkpt lat="44.4380026" lon="10.5207622"><ele>560.0</ele><time>2026-04-04T08:22:34.954Z</time></trkpt><trkpt lat="44.4379892" lon="10.5206702"><ele>560.0</ele><time>2026-04-04T08:22:35.954Z</time></trkpt><trkpt lat="44.4379568" lon="10.5205268"><ele>560.0</ele><time>2026-04-04T08:22:37.954Z</time></trkpt><trkpt lat="44.4378928" lon="10.5204918"><ele>560.0</ele><time>2026-04-04T08:22:39.954Z</time></trkpt><trkpt lat="44.4378022" lon="10.5205327"><ele>560.0</ele><time>2026-04-04T08:22:41.953Z</time></trkpt><trkpt lat="44.4377202" lon="10.5205852"><ele>558.0</ele><time>2026-04-04T08:22:43.954Z</time></trkpt><trkpt lat="44.4376061" lon="10.5206546"><ele>556.0</ele><time>2026-04-04T08:22:45.953Z</time></trkpt><trkpt lat="44.4375447" lon="10.5206798"><ele>554.0</ele><time>2026-04-04T08:22:46.953Z</time></trkpt><trkpt lat="44.4374776" lon="10.5207064"><ele>552.0</ele><time>2026-04-04T08:22:47.954Z</time></trkpt><trkpt lat="44.4373521" lon="10.5206741"><ele>550.0</ele><time>2026-04-04T08:22:49.954Z</time></trkpt><trkpt lat="44.4372948" lon="10.520633"><ele>550.0</ele><time>2026-04-04T08:22:50.953Z</time></trkpt><trkpt lat="44.4372337" lon="10.5205841"><ele>550.0</ele><time>2026-04-04T08:22:51.953Z</time></trkpt><trkpt lat="44.4371821" lon="10.5205092"><ele>550.0</ele><time>2026-04-04T08:22:52.954Z</time></trkpt><trkpt lat="44.437142" lon="10.5204257"><ele>550.0</ele><time>2026-04-04T08:22:53.953Z</time></trkpt><trkpt lat="44.4370898" lon="10.5203506"><ele>550.0</ele><time>2026-04-04T08:22:54.954Z</time></trkpt><trkpt lat="44.4370284" lon="10.5202919"><ele>550.0</ele><time>2026-04-04T08:22:55.954Z</time></trkpt><trkpt lat="44.4369705" lon="10.520236"><ele>550.0</ele><time>2026-04-04T08:22:56.954Z</time></trkpt><trkpt lat="44.4368669" lon="10.5201121"><ele>550.2857142857143</ele><time>2026-04-04T08:22:58.954Z</time></trkpt><trkpt lat="44.4368013" lon="10.5200513"><ele>550.5714285714286</ele><time>2026-04-04T08:22:59.954Z</time></trkpt><trkpt lat="44.4367403" lon="10.5199999"><ele>550.8571428571429</ele><time>2026-04-04T08:23:00.954Z</time></trkpt><trkpt lat="44.4366777" lon="10.5199456"><ele>551.1428571428571</ele><time>2026-04-04T08:23:01.953Z</time></trkpt><trkpt lat="44.4366186" lon="10.5198947"><ele>551.4285714285714</ele><time>2026-04-04T08:23:02.954Z</time></trkpt><trkpt lat="44.4365614" lon="10.5198433"><ele>551.7142857142858</ele><time>2026-04-04T08:23:03.954Z</time></trkpt><trkpt lat="44.4365057" lon="10.5197907"><ele>552.0</ele><time>2026-04-04T08:23:04.954Z</time></trkpt><trkpt lat="44.4364415" lon="10.5197311"><ele>552.0</ele><time>2026-04-04T08:23:05.954Z</time></trkpt><trkpt lat="44.4363874" lon="10.5196647"><ele>552.0</ele><time>2026-04-04T08:23:06.953Z</time></trkpt><trkpt lat="44.4363359" lon="10.5195952"><ele>552.0</ele><time>2026-04-04T08:23:07.954Z</time></trkpt><trkpt lat="44.4362977" lon="10.5195144"><ele>552.0</ele><time>2026-04-04T08:23:08.954Z</time></trkpt><trkpt lat="44.4362577" lon="10.5194276"><ele>552.0</ele><time>2026-04-04T08:23:09.954Z</time></trkpt><trkpt lat="44.4362119" lon="10.5193451"><ele>552.0</ele><time>2026-04-04T08:23:10.953Z</time></trkpt><trkpt lat="44.4361639" lon="10.5192718"><ele>552.0</ele><time>2026-04-04T08:23:11.953Z</time></trkpt><trkpt lat="44.4360809" lon="10.5191618"><ele>552.2</ele><time>2026-04-04T08:23:13.954Z</time></trkpt><trkpt lat="44.4360247" lon="10.5190162"><ele>552.4000000000001</ele><time>2026-04-04T08:23:15.953Z</time></trkpt><trkpt lat="44.4359922" lon="10.5189331"><ele>552.5999999999999</ele><time>2026-04-04T08:23:16.954Z</time></trkpt><trkpt lat="44.4359569" lon="10.5188541"><ele>552.8</ele><time>2026-04-04T08:23:17.954Z</time></trkpt><trkpt lat="44.4358848" lon="10.5187261"><ele>553.0</ele><time>2026-04-04T08:23:19.953Z</time></trkpt><trkpt lat="44.4358195" lon="10.5186082"><ele>553.0</ele><time>2026-04-04T08:23:21.953Z</time></trkpt><trkpt lat="44.4357577" lon="10.5185062"><ele>553.0</ele><time>2026-04-04T08:23:23.953Z</time></trkpt><trkpt lat="44.4357316" lon="10.5183448"><ele>553.0</ele><time>2026-04-04T08:23:25.954Z</time></trkpt><trkpt lat="44.4357077" lon="10.5182461"><ele>553.0</ele><time>2026-04-04T08:23:26.953Z</time></trkpt><trkpt lat="44.4356798" lon="10.5181402"><ele>553.0</ele><time>2026-04-04T08:23:27.953Z</time></trkpt><trkpt lat="44.4356746" lon="10.5180367"><ele>553.0</ele><time>2026-04-04T08:23:28.953Z</time></trkpt><trkpt lat="44.4356957" lon="10.5178815"><ele>554.3333333333334</ele><time>2026-04-04T08:23:30.953Z</time></trkpt><trkpt lat="44.4356873" lon="10.5177135"><ele>555.6666666666667</ele><time>2026-04-04T08:23:32.953Z</time></trkpt><trkpt lat="44.4356449" lon="10.5176428"><ele>557.0</ele><time>2026-04-04T08:23:33.954Z</time></trkpt><trkpt lat="44.4355811" lon="10.5175757"><ele>558.3333333333334</ele><time>2026-04-04T08:23:34.953Z</time></trkpt><trkpt lat="44.4355224" lon="10.5175146"><ele>559.6666666666666</ele><time>2026-04-04T08:23:35.954Z</time></trkpt><trkpt lat="44.4354862" lon="10.5174374"><ele>561.0</ele><time>2026-04-04T08:23:36.954Z</time></trkpt><trkpt lat="44.4354849" lon="10.5173025"><ele>561.0</ele><time>2026-04-04T08:23:38.953Z</time></trkpt><trkpt lat="44.4354758" lon="10.5171891"><ele>561.0</ele><time>2026-04-04T08:23:41.954Z</time></trkpt><trkpt lat="44.4354093" lon="10.5171338"><ele>561.0</ele><time>2026-04-04T08:23:43.953Z</time></trkpt><trkpt lat="44.4353339" lon="10.5171835"><ele>561.0</ele><time>2026-04-04T08:24:12.954Z</time></trkpt><trkpt lat="44.4352633" lon="10.5172817"><ele>561.0</ele><time>2026-04-04T08:24:14.954Z</time></trkpt><trkpt lat="44.4351883" lon="10.5173421"><ele>561.0</ele><time>2026-04-04T08:24:16.954Z</time></trkpt><trkpt lat="44.4351253" lon="10.5173822"><ele>561.0</ele><time>2026-04-04T08:24:22.954Z</time></trkpt><trkpt lat="44.4351189" lon="10.5174772"><ele>561.0</ele><time>2026-04-04T08:24:26.954Z</time></trkpt><trkpt lat="44.4350674" lon="10.5176146"><ele>561.0</ele><time>2026-04-04T08:24:28.954Z</time></trkpt><trkpt lat="44.4350195" lon="10.5176743"><ele>561.0</ele><time>2026-04-04T08:24:29.954Z</time></trkpt><trkpt lat="44.4349347" lon="10.5177703"><ele>561.0</ele><time>2026-04-04T08:24:31.953Z</time></trkpt><trkpt lat="44.4348483" lon="10.5178793"><ele>559.6666666666666</ele><time>2026-04-04T08:24:33.954Z</time></trkpt><trkpt lat="44.4347868" lon="10.5179625"><ele>558.3333333333334</ele><time>2026-04-04T08:24:35.953Z</time></trkpt><trkpt lat="44.434775" lon="10.5180931"><ele>557.0</ele><time>2026-04-04T08:24:37.953Z</time></trkpt><trkpt lat="44.4347799" lon="10.5182263"><ele>555.6666666666667</ele><time>2026-04-04T08:24:38.954Z</time></trkpt><trkpt lat="44.4347691" lon="10.5183594"><ele>554.3333333333334</ele><time>2026-04-04T08:24:39.954Z</time></trkpt><trkpt lat="44.4347534" lon="10.5184672"><ele>553.0</ele><time>2026-04-04T08:24:40.953Z</time></trkpt><trkpt lat="44.4347609" lon="10.5185953"><ele>552.0</ele><time>2026-04-04T08:24:42.954Z</time></trkpt><trkpt lat="44.4347664" lon="10.5187654"><ele>551.0</ele><time>2026-04-04T08:24:44.954Z</time></trkpt><trkpt lat="44.4347647" lon="10.5188697"><ele>550.0</ele><time>2026-04-04T08:24:45.954Z</time></trkpt><trkpt lat="44.4347629" lon="10.5189907"><ele>549.0</ele><time>2026-04-04T08:24:47.952Z</time></trkpt><trkpt lat="44.4347674" lon="10.5190918"><ele>548.0</ele><time>2026-04-04T08:24:50.953Z</time></trkpt><trkpt lat="44.4347452" lon="10.5191934"><ele>547.0</ele><time>2026-04-04T08:24:53.953Z</time></trkpt><trkpt lat="44.4346993" lon="10.5192626"><ele>547.0</ele><time>2026-04-04T08:25:21.953Z</time></trkpt><trkpt lat="44.4346405" lon="10.5193119"><ele>547.0</ele><time>2026-04-04T08:25:23.953Z</time></trkpt><trkpt lat="44.4345543" lon="10.519357"><ele>547.0</ele><time>2026-04-04T08:25:25.953Z</time></trkpt><trkpt lat="44.4344754" lon="10.5194331"><ele>547.0</ele><time>2026-04-04T08:25:27.953Z</time></trkpt><trkpt lat="44.4344401" lon="10.5195366"><ele>547.0</ele><time>2026-04-04T08:25:28.952Z</time></trkpt><trkpt lat="44.434384" lon="10.519668"><ele>547.0</ele><time>2026-04-04T08:25:29.952Z</time></trkpt><trkpt lat="44.434314" lon="10.519793"><ele>550.6</ele><time>2026-04-04T08:25:31.953Z</time></trkpt><trkpt lat="44.43428" lon="10.5199573"><ele>554.2</ele><time>2026-04-04T08:25:33.953Z</time></trkpt><trkpt lat="44.4342209" lon="10.5200693"><ele>557.8</ele><time>2026-04-04T08:25:35.953Z</time></trkpt><trkpt lat="44.4341931" lon="10.5201509"><ele>561.4</ele><time>2026-04-04T08:25:37.953Z</time></trkpt><trkpt lat="44.4341805" lon="10.5202493"><ele>565.0</ele><time>2026-04-04T08:25:39.952Z</time></trkpt><trkpt lat="44.4341582" lon="10.520388"><ele>565.0</ele><time>2026-04-04T08:25:41.953Z</time></trkpt><trkpt lat="44.4341138" lon="10.5204895"><ele>565.0</ele><time>2026-04-04T08:25:43.953Z</time></trkpt><trkpt lat="44.4340468" lon="10.52058"><ele>565.0</ele><time>2026-04-04T08:25:45.952Z</time></trkpt><trkpt lat="44.4339939" lon="10.5206878"><ele>565.0</ele><time>2026-04-04T08:25:47.952Z</time></trkpt><trkpt lat="44.4339428" lon="10.520823"><ele>565.0</ele><time>2026-04-04T08:25:49.953Z</time></trkpt><trkpt lat="44.4338684" lon="10.5209043"><ele>565.0</ele><time>2026-04-04T08:25:51.953Z</time></trkpt><trkpt lat="44.4338058" lon="10.5209639"><ele>565.0</ele><time>2026-04-04T08:25:53.953Z</time></trkpt><trkpt lat="44.4337368" lon="10.5210523"><ele>565.0</ele><time>2026-04-04T08:25:55.953Z</time></trkpt><trkpt lat="44.4336917" lon="10.5211711"><ele>565.0</ele><time>2026-04-04T08:25:57.953Z</time></trkpt><trkpt lat="44.4336852" lon="10.5213206"><ele>565.0</ele><time>2026-04-04T08:25:59.952Z</time></trkpt><trkpt lat="44.433672" lon="10.5214213"><ele>565.0</ele><time>2026-04-04T08:26:01.952Z</time></trkpt><trkpt lat="44.4336205" lon="10.5215359"><ele>568.6</ele><time>2026-04-04T08:26:03.952Z</time></trkpt><trkpt lat="44.4335534" lon="10.5216392"><ele>572.2</ele><time>2026-04-04T08:26:05.953Z</time></trkpt><trkpt lat="44.4334957" lon="10.5217533"><ele>575.8</ele><time>2026-04-04T08:26:07.953Z</time></trkpt><trkpt lat="44.4334105" lon="10.5218232"><ele>579.4</ele><time>2026-04-04T08:26:09.952Z</time></trkpt><trkpt lat="44.433323" lon="10.5217761"><ele>583.0</ele><time>2026-04-04T08:26:11.953Z</time></trkpt><trkpt lat="44.4332403" lon="10.5216956"><ele>583.0</ele><time>2026-04-04T08:26:13.952Z</time></trkpt><trkpt lat="44.4331534" lon="10.5216569"><ele>583.0</ele><time>2026-04-04T08:26:15.952Z</time></trkpt><trkpt lat="44.4330565" lon="10.521665"><ele>583.0</ele><time>2026-04-04T08:26:17.953Z</time></trkpt><trkpt lat="44.4329705" lon="10.5216798"><ele>583.0</ele><time>2026-04-04T08:26:19.953Z</time></trkpt><trkpt lat="44.4328885" lon="10.5217193"><ele>583.0</ele><time>2026-04-04T08:26:21.952Z</time></trkpt><trkpt lat="44.4328714" lon="10.5218178"><ele>583.0</ele><time>2026-04-04T08:26:23.953Z</time></trkpt><trkpt lat="44.4328658" lon="10.5219198"><ele>581.8</ele><time>2026-04-04T08:26:25.953Z</time></trkpt><trkpt lat="44.4328195" lon="10.5220458"><ele>580.5999999999999</ele><time>2026-04-04T08:26:27.953Z</time></trkpt><trkpt lat="44.432744" lon="10.522138"><ele>579.4000000000001</ele><time>2026-04-04T08:26:29.953Z</time></trkpt><trkpt lat="44.4326509" lon="10.5222077"><ele>578.2</ele><time>2026-04-04T08:26:31.952Z</time></trkpt><trkpt lat="44.4325783" lon="10.5222299"><ele>577.0</ele><time>2026-04-04T08:26:33.953Z</time></trkpt><trkpt lat="44.4324984" lon="10.5221843"><ele>577.0</ele><time>2026-04-04T08:26:35.952Z</time></trkpt><trkpt lat="44.4324212" lon="10.5221351"><ele>577.0</ele><time>2026-04-04T08:26:37.953Z</time></trkpt><trkpt lat="44.432334" lon="10.5222066"><ele>577.0</ele><time>2026-04-04T08:26:39.953Z</time></trkpt><trkpt lat="44.4322286" lon="10.5221859"><ele>577.0</ele><time>2026-04-04T08:26:41.952Z</time></trkpt><trkpt lat="44.4321705" lon="10.5221303"><ele>577.0</ele><time>2026-04-04T08:26:42.953Z</time></trkpt><trkpt lat="44.4321134" lon="10.522061"><ele>577.0</ele><time>2026-04-04T08:26:43.953Z</time></trkpt><trkpt lat="44.4320469" lon="10.5219979"><ele>580.8333333333334</ele><time>2026-04-04T08:26:44.952Z</time></trkpt><trkpt lat="44.4319839" lon="10.5219765"><ele>584.6666666666667</ele><time>2026-04-04T08:26:45.953Z</time></trkpt><trkpt lat="44.4319095" lon="10.5220134"><ele>588.5</ele><time>2026-04-04T08:26:46.953Z</time></trkpt><trkpt lat="44.4318462" lon="10.5220759"><ele>592.3333333333334</ele><time>2026-04-04T08:26:47.952Z</time></trkpt><trkpt lat="44.4317904" lon="10.5221705"><ele>596.1666666666666</ele><time>2026-04-04T08:26:48.952Z</time></trkpt><trkpt lat="44.4317312" lon="10.5222724"><ele>600.0</ele><time>2026-04-04T08:26:49.952Z</time></trkpt><trkpt lat="44.4316682" lon="10.522367"><ele>600.0</ele><time>2026-04-04T08:26:50.952Z</time></trkpt><trkpt lat="44.4316023" lon="10.5224753"><ele>600.0</ele><time>2026-04-04T08:26:51.953Z</time></trkpt><trkpt lat="44.4315293" lon="10.5225594"><ele>600.0</ele><time>2026-04-04T08:26:52.953Z</time></trkpt><trkpt lat="44.4314573" lon="10.5226282"><ele>600.0</ele><time>2026-04-04T08:26:53.953Z</time></trkpt><trkpt lat="44.4313991" lon="10.5227358"><ele>600.0</ele><time>2026-04-04T08:26:54.953Z</time></trkpt><trkpt lat="44.431362" lon="10.5228523"><ele>598.4285714285713</ele><time>2026-04-04T08:26:55.953Z</time></trkpt><trkpt lat="44.4313297" lon="10.5229512"><ele>596.8571428571429</ele><time>2026-04-04T08:26:56.953Z</time></trkpt><trkpt lat="44.4312802" lon="10.5230259"><ele>595.2857142857142</ele><time>2026-04-04T08:26:57.952Z</time></trkpt><trkpt lat="44.4312296" lon="10.5230958"><ele>593.7142857142857</ele><time>2026-04-04T08:26:58.953Z</time></trkpt><trkpt lat="44.4311759" lon="10.5231604"><ele>592.1428571428571</ele><time>2026-04-04T08:26:59.953Z</time></trkpt><trkpt lat="44.4311253" lon="10.5232333"><ele>590.5714285714286</ele><time>2026-04-04T08:27:00.953Z</time></trkpt><trkpt lat="44.4310834" lon="10.5233217"><ele>589.0</ele><time>2026-04-04T08:27:01.952Z</time></trkpt><trkpt lat="44.4310504" lon="10.5234104"><ele>592.6</ele><time>2026-04-04T08:27:02.953Z</time></trkpt><trkpt lat="44.4310212" lon="10.523588"><ele>596.2</ele><time>2026-04-04T08:27:04.952Z</time></trkpt><trkpt lat="44.4310322" lon="10.5237006"><ele>599.8000000000001</ele><time>2026-04-04T08:27:05.953Z</time></trkpt><trkpt lat="44.4310593" lon="10.5238113"><ele>603.4</ele><time>2026-04-04T08:27:06.953Z</time></trkpt><trkpt lat="44.4311098" lon="10.5239152"><ele>607.0</ele><time>2026-04-04T08:27:07.953Z</time></trkpt><trkpt lat="44.4311427" lon="10.5240165"><ele>607.0</ele><time>2026-04-04T08:27:08.952Z</time></trkpt><trkpt lat="44.4311696" lon="10.5241123"><ele>607.0</ele><time>2026-04-04T08:27:09.953Z</time></trkpt><trkpt lat="44.4311794" lon="10.5242163"><ele>607.0</ele><time>2026-04-04T08:27:10.953Z</time></trkpt><trkpt lat="44.4311803" lon="10.5243085"><ele>607.0</ele><time>2026-04-04T08:27:11.953Z</time></trkpt><trkpt lat="44.4311834" lon="10.5244156"><ele>607.0</ele><time>2026-04-04T08:27:13.953Z</time></trkpt><trkpt lat="44.431079" lon="10.5243869"><ele>607.0</ele><time>2026-04-04T08:27:39.953Z</time></trkpt><trkpt lat="44.4309528" lon="10.5243469"><ele>607.0</ele><time>2026-04-04T08:27:41.953Z</time></trkpt><trkpt lat="44.4308828" lon="10.5243095"><ele>607.0</ele><time>2026-04-04T08:27:42.952Z</time></trkpt><trkpt lat="44.4307936" lon="10.5242851"><ele>607.0</ele><time>2026-04-04T08:27:43.953Z</time></trkpt><trkpt lat="44.4306985" lon="10.5242715"><ele>607.0</ele><time>2026-04-04T08:27:44.953Z</time></trkpt><trkpt lat="44.4306101" lon="10.5242791"><ele>607.0</ele><time>2026-04-04T08:27:45.952Z</time></trkpt><trkpt lat="44.4305482" lon="10.5242987"><ele>607.0</ele><time>2026-04-04T08:27:46.953Z</time></trkpt><trkpt lat="44.4304646" lon="10.5242813"><ele>607.0</ele><time>2026-04-04T08:28:04.953Z</time></trkpt><trkpt lat="44.4303792" lon="10.5242549"><ele>607.0</ele><time>2026-04-04T08:28:06.953Z</time></trkpt><trkpt lat="44.430316" lon="10.5241961"><ele>607.0</ele><time>2026-04-04T08:28:08.953Z</time></trkpt><trkpt lat="44.4302473" lon="10.5241638"><ele>607.0</ele><time>2026-04-04T08:28:10.952Z</time></trkpt><trkpt lat="44.4301507" lon="10.5241624"><ele>607.0</ele><time>2026-04-04T08:28:12.953Z</time></trkpt><trkpt lat="44.430044" lon="10.524193"><ele>607.0</ele><time>2026-04-04T08:28:14.952Z</time></trkpt><trkpt lat="44.4299183" lon="10.5242055"><ele>607.0</ele><time>2026-04-04T08:28:16.952Z</time></trkpt><trkpt lat="44.4298474" lon="10.5241891"><ele>607.0</ele><time>2026-04-04T08:28:17.953Z</time></trkpt><trkpt lat="44.4297723" lon="10.5241732"><ele>607.0</ele><time>2026-04-04T08:28:18.952Z</time></trkpt><trkpt lat="44.4296891" lon="10.524112"><ele>607.0</ele><time>2026-04-04T08:28:19.952Z</time></trkpt><trkpt lat="44.42963" lon="10.5240388"><ele>607.0</ele><time>2026-04-04T08:28:20.952Z</time></trkpt><trkpt lat="44.4295797" lon="10.5239352"><ele>607.0</ele><time>2026-04-04T08:28:21.952Z</time></trkpt><trkpt lat="44.4295231" lon="10.5238072"><ele>606.2</ele><time>2026-04-04T08:28:22.953Z</time></trkpt><trkpt lat="44.4294677" lon="10.5236741"><ele>605.4000000000001</ele><time>2026-04-04T08:28:23.953Z</time></trkpt><trkpt lat="44.4294079" lon="10.5235442"><ele>604.5999999999999</ele><time>2026-04-04T08:28:24.953Z</time></trkpt><trkpt lat="44.429359" lon="10.5234121"><ele>603.8</ele><time>2026-04-04T08:28:25.953Z</time></trkpt><trkpt lat="44.4293195" lon="10.5232931"><ele>603.0</ele><time>2026-04-04T08:28:26.953Z</time></trkpt><trkpt lat="44.429295" lon="10.5231821"><ele>603.0</ele><time>2026-04-04T08:28:27.952Z</time></trkpt><trkpt lat="44.4292669" lon="10.5230831"><ele>603.0</ele><time>2026-04-04T08:28:28.952Z</time></trkpt><trkpt lat="44.4292302" lon="10.522994"><ele>603.0</ele><time>2026-04-04T08:28:29.953Z</time></trkpt><trkpt lat="44.4291871" lon="10.5229025"><ele>603.0</ele><time>2026-04-04T08:28:30.952Z</time></trkpt><trkpt lat="44.4291453" lon="10.5228049"><ele>603.0</ele><time>2026-04-04T08:28:31.953Z</time></trkpt><trkpt lat="44.4291027" lon="10.5226992"><ele>603.0</ele><time>2026-04-04T08:28:32.953Z</time></trkpt><trkpt lat="44.4290607" lon="10.5225858"><ele>604.3333333333334</ele><time>2026-04-04T08:28:33.952Z</time></trkpt><trkpt lat="44.4290199" lon="10.5224699"><ele>605.6666666666666</ele><time>2026-04-04T08:28:34.953Z</time></trkpt><trkpt lat="44.4289783" lon="10.5223617"><ele>607.0</ele><time>2026-04-04T08:28:35.952Z</time></trkpt><trkpt lat="44.4289385" lon="10.5222606"><ele>608.3333333333333</ele><time>2026-04-04T08:28:36.953Z</time></trkpt><trkpt lat="44.42889" lon="10.5221565"><ele>609.6666666666666</ele><time>2026-04-04T08:28:38.953Z</time></trkpt><trkpt lat="44.4288847" lon="10.5220507"><ele>611.0</ele><time>2026-04-04T08:28:42.952Z</time></trkpt><trkpt lat="44.4288336" lon="10.5219921"><ele>609.0</ele><time>2026-04-04T08:28:44.953Z</time></trkpt><trkpt lat="44.4287442" lon="10.5220688"><ele>607.0</ele><time>2026-04-04T08:28:46.952Z</time></trkpt><trkpt lat="44.428681" lon="10.5221195"><ele>605.0</ele><time>2026-04-04T08:28:47.952Z</time></trkpt><trkpt lat="44.4285999" lon="10.5221653"><ele>603.0</ele><time>2026-04-04T08:28:48.953Z</time></trkpt><trkpt lat="44.4285006" lon="10.5221995"><ele>601.0</ele><time>2026-04-04T08:28:49.953Z</time></trkpt><trkpt lat="44.4284086" lon="10.5222273"><ele>601.0</ele><time>2026-04-04T08:28:50.953Z</time></trkpt><trkpt lat="44.42832" lon="10.5222373"><ele>601.0</ele><time>2026-04-04T08:28:51.952Z</time></trkpt><trkpt lat="44.4282271" lon="10.5222195"><ele>601.0</ele><time>2026-04-04T08:28:52.953Z</time></trkpt><trkpt lat="44.4281285" lon="10.5222154"><ele>601.0</ele><time>2026-04-04T08:28:53.953Z</time></trkpt><trkpt lat="44.428037" lon="10.5222252"><ele>601.0</ele><time>2026-04-04T08:28:54.953Z</time></trkpt><trkpt lat="44.4279449" lon="10.5222439"><ele>600.7142857142857</ele><time>2026-04-04T08:28:55.952Z</time></trkpt><trkpt lat="44.4278638" lon="10.5222527"><ele>600.4285714285714</ele><time>2026-04-04T08:28:56.952Z</time></trkpt><trkpt lat="44.4277818" lon="10.522254"><ele>600.1428571428571</ele><time>2026-04-04T08:28:57.953Z</time></trkpt><trkpt lat="44.4277027" lon="10.5222413"><ele>599.8571428571429</ele><time>2026-04-04T08:28:58.953Z</time></trkpt><trkpt lat="44.4276414" lon="10.5222204"><ele>599.5714285714286</ele><time>2026-04-04T08:28:59.953Z</time></trkpt><trkpt lat="44.4275852" lon="10.5221669"><ele>599.2857142857143</ele><time>2026-04-04T08:29:00.953Z</time></trkpt><trkpt lat="44.4275281" lon="10.5220991"><ele>599.0</ele><time>2026-04-04T08:29:01.953Z</time></trkpt><trkpt lat="44.4274628" lon="10.5220496"><ele>599.0</ele><time>2026-04-04T08:29:02.953Z</time></trkpt><trkpt lat="44.4273893" lon="10.5220303"><ele>599.0</ele><time>2026-04-04T08:29:03.952Z</time></trkpt><trkpt lat="44.4273132" lon="10.522059"><ele>599.0</ele><time>2026-04-04T08:29:04.953Z</time></trkpt><trkpt lat="44.4272462" lon="10.5221132"><ele>599.0</ele><time>2026-04-04T08:29:05.953Z</time></trkpt><trkpt lat="44.427188" lon="10.5221759"><ele>599.0</ele><time>2026-04-04T08:29:06.953Z</time></trkpt><trkpt lat="44.42713" lon="10.5222234"><ele>599.0</ele><time>2026-04-04T08:29:07.953Z</time></trkpt><trkpt lat="44.4270159" lon="10.5222118"><ele>600.2</ele><time>2026-04-04T08:29:09.952Z</time></trkpt><trkpt lat="44.4269603" lon="10.5221611"><ele>601.4</ele><time>2026-04-04T08:29:10.952Z</time></trkpt><trkpt lat="44.4268546" lon="10.5221465"><ele>602.6</ele><time>2026-04-04T08:29:12.953Z</time></trkpt><trkpt lat="44.4267979" lon="10.5221888"><ele>603.8</ele><time>2026-04-04T08:29:13.953Z</time></trkpt><trkpt lat="44.4267413" lon="10.5223158"><ele>605.0</ele><time>2026-04-04T08:29:15.953Z</time></trkpt><trkpt lat="44.4267287" lon="10.5224639"><ele>605.0</ele><time>2026-04-04T08:29:17.953Z</time></trkpt><trkpt lat="44.4266718" lon="10.5225827"><ele>605.0</ele><time>2026-04-04T08:29:19.953Z</time></trkpt><trkpt lat="44.4265548" lon="10.5226175"><ele>605.0</ele><time>2026-04-04T08:29:21.952Z</time></trkpt><trkpt lat="44.4264935" lon="10.5226596"><ele>605.0</ele><time>2026-04-04T08:29:22.953Z</time></trkpt><trkpt lat="44.4263728" lon="10.5226929"><ele>605.0</ele><time>2026-04-04T08:29:24.952Z</time></trkpt><trkpt lat="44.4263037" lon="10.5226917"><ele>605.8571428571429</ele><time>2026-04-04T08:29:25.952Z</time></trkpt><trkpt lat="44.4262363" lon="10.5226992"><ele>606.7142857142858</ele><time>2026-04-04T08:29:26.953Z</time></trkpt><trkpt lat="44.4261601" lon="10.52273"><ele>607.5714285714287</ele><time>2026-04-04T08:29:27.952Z</time></trkpt><trkpt lat="44.4260862" lon="10.5227778"><ele>608.4285714285714</ele><time>2026-04-04T08:29:28.953Z</time></trkpt><trkpt lat="44.4260234" lon="10.5228526"><ele>609.2857142857143</ele><time>2026-04-04T08:29:29.953Z</time></trkpt><trkpt lat="44.4259754" lon="10.5229282"><ele>610.1428571428572</ele><time>2026-04-04T08:29:30.952Z</time></trkpt><trkpt lat="44.4259336" lon="10.5229991"><ele>611.0</ele><time>2026-04-04T08:29:31.953Z</time></trkpt><trkpt lat="44.4258292" lon="10.5230732"><ele>609.5</ele><time>2026-04-04T08:29:33.953Z</time></trkpt><trkpt lat="44.4257543" lon="10.5231095"><ele>608.0</ele><time>2026-04-04T08:29:34.953Z</time></trkpt><trkpt lat="44.4256725" lon="10.5231421"><ele>606.5</ele><time>2026-04-04T08:29:35.953Z</time></trkpt><trkpt lat="44.425608" lon="10.5232125"><ele>605.0</ele><time>2026-04-04T08:29:36.953Z</time></trkpt><trkpt lat="44.4255659" lon="10.5232903"><ele>603.5</ele><time>2026-04-04T08:29:37.953Z</time></trkpt><trkpt lat="44.4254781" lon="10.5234045"><ele>602.0</ele><time>2026-04-04T08:29:39.952Z</time></trkpt><trkpt lat="44.4254187" lon="10.5234343"><ele>602.0</ele><time>2026-04-04T08:29:40.952Z</time></trkpt><trkpt lat="44.4253516" lon="10.5234347"><ele>602.0</ele><time>2026-04-04T08:29:41.953Z</time></trkpt><trkpt lat="44.4252835" lon="10.5234301"><ele>602.0</ele><time>2026-04-04T08:29:42.953Z</time></trkpt><trkpt lat="44.4252062" lon="10.5234283"><ele>602.0</ele><time>2026-04-04T08:29:43.953Z</time></trkpt><trkpt lat="44.4251264" lon="10.5234427"><ele>602.0</ele><time>2026-04-04T08:29:44.953Z</time></trkpt><trkpt lat="44.4250515" lon="10.5234639"><ele>602.0</ele><time>2026-04-04T08:29:45.953Z</time></trkpt><trkpt lat="44.4249444" lon="10.5234355"><ele>602.0</ele><time>2026-04-04T08:29:47.953Z</time></trkpt><trkpt lat="44.424863" lon="10.523396"><ele>602.0</ele><time>2026-04-04T08:29:49.953Z</time></trkpt><trkpt lat="44.4248025" lon="10.5234288"><ele>602.0</ele><time>2026-04-04T08:29:50.953Z</time></trkpt><trkpt lat="44.4247419" lon="10.5234928"><ele>602.0</ele><time>2026-04-04T08:29:51.952Z</time></trkpt><trkpt lat="44.424677" lon="10.5235713"><ele>602.0</ele><time>2026-04-04T08:29:52.953Z</time></trkpt><trkpt lat="44.4246078" lon="10.5236549"><ele>602.0</ele><time>2026-04-04T08:29:53.952Z</time></trkpt><trkpt lat="44.4245367" lon="10.5237306"><ele>602.0</ele><time>2026-04-04T08:29:54.952Z</time></trkpt><trkpt lat="44.4244615" lon="10.5237992"><ele>602.0</ele><time>2026-04-04T08:29:55.952Z</time></trkpt><trkpt lat="44.4243695" lon="10.5238244"><ele>602.0</ele><time>2026-04-04T08:29:56.952Z</time></trkpt><trkpt lat="44.4242834" lon="10.5238226"><ele>602.0</ele><time>2026-04-04T08:29:57.953Z</time></trkpt><trkpt lat="44.4242075" lon="10.5238018"><ele>602.0</ele><time>2026-04-04T08:29:58.953Z</time></trkpt><trkpt lat="44.4241304" lon="10.5237769"><ele>602.0</ele><time>2026-04-04T08:29:59.952Z</time></trkpt><trkpt lat="44.4240444" lon="10.5237464"><ele>602.2</ele><time>2026-04-04T08:30:00.952Z</time></trkpt><trkpt lat="44.4239557" lon="10.5237177"><ele>602.4000000000001</ele><time>2026-04-04T08:30:01.952Z</time></trkpt><trkpt lat="44.4238651" lon="10.5236953"><ele>602.5999999999999</ele><time>2026-04-04T08:30:02.952Z</time></trkpt><trkpt lat="44.4237668" lon="10.5236689"><ele>602.8</ele><time>2026-04-04T08:30:03.953Z</time></trkpt><trkpt lat="44.4236644" lon="10.5236397"><ele>603.0</ele><time>2026-04-04T08:30:04.953Z</time></trkpt><trkpt lat="44.4235636" lon="10.5235987"><ele>603.0</ele><time>2026-04-04T08:30:05.953Z</time></trkpt><trkpt lat="44.423457" lon="10.5235684"><ele>603.0</ele><time>2026-04-04T08:30:06.953Z</time></trkpt><trkpt lat="44.4233474" lon="10.5235474"><ele>603.0</ele><time>2026-04-04T08:30:07.953Z</time></trkpt><trkpt lat="44.4232358" lon="10.5235229"><ele>603.0</ele><time>2026-04-04T08:30:08.953Z</time></trkpt><trkpt lat="44.4231247" lon="10.5235049"><ele>603.0</ele><time>2026-04-04T08:30:09.952Z</time></trkpt><trkpt lat="44.4230135" lon="10.5234883"><ele>604.6</ele><time>2026-04-04T08:30:10.953Z</time></trkpt><trkpt lat="44.4229" lon="10.5234674"><ele>606.1999999999999</ele><time>2026-04-04T08:30:11.952Z</time></trkpt><trkpt lat="44.4227854" lon="10.5234508"><ele>607.8</ele><time>2026-04-04T08:30:12.952Z</time></trkpt><trkpt lat="44.4226719" lon="10.5234343"><ele>609.4</ele><time>2026-04-04T08:30:13.952Z</time></trkpt><trkpt lat="44.4225691" lon="10.523414"><ele>611.0</ele><time>2026-04-04T08:30:14.953Z</time></trkpt><trkpt lat="44.4224836" lon="10.5233959"><ele>611.0000000000001</ele><time>2026-04-04T08:30:15.952Z</time></trkpt><trkpt lat="44.4224079" lon="10.5233753"><ele>611.0</ele><time>2026-04-04T08:30:16.953Z</time></trkpt><trkpt lat="44.4223383" lon="10.5233567"><ele>611.0</ele><time>2026-04-04T08:30:17.952Z</time></trkpt><trkpt lat="44.4222727" lon="10.5233296"><ele>611.0</ele><time>2026-04-04T08:30:18.953Z</time></trkpt><trkpt lat="44.4222108" lon="10.5232825"><ele>611.0</ele><time>2026-04-04T08:30:19.953Z</time></trkpt><trkpt lat="44.4221637" lon="10.5232209"><ele>611.0000000000001</ele><time>2026-04-04T08:30:20.953Z</time></trkpt><trkpt lat="44.4221202" lon="10.5231538"><ele>611.0</ele><time>2026-04-04T08:30:21.953Z</time></trkpt><trkpt lat="44.4220711" lon="10.5230967"><ele>610.4285714285714</ele><time>2026-04-04T08:30:22.952Z</time></trkpt><trkpt lat="44.4220139" lon="10.5230462"><ele>609.8571428571429</ele><time>2026-04-04T08:30:23.952Z</time></trkpt><trkpt lat="44.4219567" lon="10.5230082"><ele>609.2857142857142</ele><time>2026-04-04T08:30:24.952Z</time></trkpt><trkpt lat="44.4218969" lon="10.5229723"><ele>608.7142857142858</ele><time>2026-04-04T08:30:25.953Z</time></trkpt><trkpt lat="44.4218291" lon="10.5229598"><ele>608.1428571428571</ele><time>2026-04-04T08:30:26.953Z</time></trkpt><trkpt lat="44.4217644" lon="10.5229479"><ele>607.5714285714286</ele><time>2026-04-04T08:30:27.952Z</time></trkpt><trkpt lat="44.4216775" lon="10.5229407"><ele>607.0</ele><time>2026-04-04T08:30:29.953Z</time></trkpt><trkpt lat="44.4215944" lon="10.5229043"><ele>606.6</ele><time>2026-04-04T08:30:32.952Z</time></trkpt><trkpt lat="44.4215075" lon="10.5228451"><ele>606.2</ele><time>2026-04-04T08:30:34.953Z</time></trkpt><trkpt lat="44.421399" lon="10.5227669"><ele>605.8</ele><time>2026-04-04T08:30:36.952Z</time></trkpt><trkpt lat="44.4212868" lon="10.522692"><ele>605.4</ele><time>2026-04-04T08:30:38.953Z</time></trkpt><trkpt lat="44.4212291" lon="10.5226531"><ele>605.0</ele><time>2026-04-04T08:30:39.952Z</time></trkpt><trkpt lat="44.421173" lon="10.5226122"><ele>604.8333333333333</ele><time>2026-04-04T08:30:40.953Z</time></trkpt><trkpt lat="44.4210848" lon="10.5225214"><ele>604.6666666666666</ele><time>2026-04-04T08:30:42.953Z</time></trkpt><trkpt lat="44.421032" lon="10.5224398"><ele>604.5</ele><time>2026-04-04T08:30:44.953Z</time></trkpt><trkpt lat="44.4209814" lon="10.522344"><ele>604.3333333333334</ele><time>2026-04-04T08:30:46.953Z</time></trkpt><trkpt lat="44.4209342" lon="10.522254"><ele>604.1666666666667</ele><time>2026-04-04T08:30:48.952Z</time></trkpt><trkpt lat="44.4208796" lon="10.5221604"><ele>604.0</ele><time>2026-04-04T08:30:51.953Z</time></trkpt><trkpt lat="44.4208241" lon="10.5220561"><ele>604.0</ele><time>2026-04-04T08:30:54.952Z</time></trkpt><trkpt lat="44.420778" lon="10.5219807"><ele>604.0</ele><time>2026-04-04T08:30:56.953Z</time></trkpt><trkpt lat="44.4207122" lon="10.5218916"><ele>604.0</ele><time>2026-04-04T08:30:58.953Z</time></trkpt><trkpt lat="44.4206566" lon="10.5217925"><ele>604.0</ele><time>2026-04-04T08:31:00.953Z</time></trkpt><trkpt lat="44.4205984" lon="10.5216849"><ele>604.0</ele><time>2026-04-04T08:31:02.953Z</time></trkpt><trkpt lat="44.4205286" lon="10.5215711"><ele>602.5</ele><time>2026-04-04T08:31:04.952Z</time></trkpt><trkpt lat="44.4204799" lon="10.5214957"><ele>601.0</ele><time>2026-04-04T08:31:06.953Z</time></trkpt><trkpt lat="44.4204194" lon="10.5214285"><ele>599.5</ele><time>2026-04-04T08:32:04.953Z</time></trkpt><trkpt lat="44.4203522" lon="10.5213628"><ele>598.0</ele><time>2026-04-04T08:32:07.952Z</time></trkpt><trkpt lat="44.4202823" lon="10.5212764"><ele>596.5</ele><time>2026-04-04T08:32:36.952Z</time></trkpt><trkpt lat="44.4202116" lon="10.5212224"><ele>595.0</ele><time>2026-04-04T08:32:37.953Z</time></trkpt><trkpt lat="44.4201448" lon="10.5211607"><ele>594.6666666666667</ele><time>2026-04-04T08:32:38.953Z</time></trkpt><trkpt lat="44.4200799" lon="10.5210974"><ele>594.3333333333334</ele><time>2026-04-04T08:32:39.953Z</time></trkpt><trkpt lat="44.4200103" lon="10.5210463"><ele>594.0</ele><time>2026-04-04T08:32:40.953Z</time></trkpt><trkpt lat="44.4199299" lon="10.5210027"><ele>593.6666666666666</ele><time>2026-04-04T08:32:41.953Z</time></trkpt><trkpt lat="44.4198449" lon="10.5209785"><ele>593.3333333333333</ele><time>2026-04-04T08:32:42.953Z</time></trkpt><trkpt lat="44.4197582" lon="10.5209659"><ele>593.0</ele><time>2026-04-04T08:32:43.953Z</time></trkpt><trkpt lat="44.419677" lon="10.5209567"><ele>591.1666666666666</ele><time>2026-04-04T08:32:44.952Z</time></trkpt><trkpt lat="44.4195994" lon="10.5209176"><ele>589.3333333333333</ele><time>2026-04-04T08:32:45.953Z</time></trkpt><trkpt lat="44.419543" lon="10.520848"><ele>587.5</ele><time>2026-04-04T08:32:46.953Z</time></trkpt><trkpt lat="44.4194887" lon="10.5207596"><ele>585.6666666666666</ele><time>2026-04-04T08:32:47.952Z</time></trkpt><trkpt lat="44.4194501" lon="10.5206593"><ele>583.8333333333334</ele><time>2026-04-04T08:32:48.952Z</time></trkpt><trkpt lat="44.4194066" lon="10.5205564"><ele>582.0</ele><time>2026-04-04T08:32:49.952Z</time></trkpt><trkpt lat="44.4193702" lon="10.5204414"><ele>584.2</ele><time>2026-04-04T08:32:50.953Z</time></trkpt><trkpt lat="44.4193282" lon="10.5203335"><ele>586.4000000000001</ele><time>2026-04-04T08:32:51.953Z</time></trkpt><trkpt lat="44.4192818" lon="10.5202236"><ele>588.5999999999999</ele><time>2026-04-04T08:32:52.953Z</time></trkpt><trkpt lat="44.4192271" lon="10.5201092"><ele>590.8</ele><time>2026-04-04T08:32:53.952Z</time></trkpt><trkpt lat="44.4191639" lon="10.5200005"><ele>593.0</ele><time>2026-04-04T08:32:54.953Z</time></trkpt><trkpt lat="44.4191164" lon="10.5198831"><ele>593.0</ele><time>2026-04-04T08:32:55.952Z</time></trkpt><trkpt lat="44.4190784" lon="10.5197686"><ele>593.0</ele><time>2026-04-04T08:32:56.953Z</time></trkpt><trkpt lat="44.4190392" lon="10.5196927"><ele>593.0</ele><time>2026-04-04T08:32:57.952Z</time></trkpt><trkpt lat="44.4189691" lon="10.5196215"><ele>593.0</ele><time>2026-04-04T08:32:58.952Z</time></trkpt><trkpt lat="44.4188801" lon="10.5195578"><ele>593.0</ele><time>2026-04-04T08:32:59.953Z</time></trkpt><trkpt lat="44.4187895" lon="10.5194904"><ele>593.0</ele><time>2026-04-04T08:33:00.953Z</time></trkpt><trkpt lat="44.4187138" lon="10.5194102"><ele>594.0</ele><time>2026-04-04T08:33:01.953Z</time></trkpt><trkpt lat="44.4186375" lon="10.5193233"><ele>595.0</ele><time>2026-04-04T08:33:02.952Z</time></trkpt><trkpt lat="44.4185625" lon="10.5192477"><ele>596.0</ele><time>2026-04-04T08:33:03.953Z</time></trkpt><trkpt lat="44.418494" lon="10.5191883"><ele>597.0</ele><time>2026-04-04T08:33:04.953Z</time></trkpt><trkpt lat="44.4184144" lon="10.5191415"><ele>598.0</ele><time>2026-04-04T08:33:05.953Z</time></trkpt><trkpt lat="44.4183341" lon="10.5191041"><ele>599.0</ele><time>2026-04-04T08:33:06.953Z</time></trkpt><trkpt lat="44.4182541" lon="10.51906"><ele>599.0</ele><time>2026-04-04T08:33:07.953Z</time></trkpt><trkpt lat="44.4181738" lon="10.51901"><ele>599.0</ele><time>2026-04-04T08:33:08.952Z</time></trkpt><trkpt lat="44.4181003" lon="10.5189405"><ele>599.0</ele><time>2026-04-04T08:33:09.953Z</time></trkpt><trkpt lat="44.4180363" lon="10.5188633"><ele>599.0</ele><time>2026-04-04T08:33:10.953Z</time></trkpt><trkpt lat="44.4179725" lon="10.5187919"><ele>599.0</ele><time>2026-04-04T08:33:11.952Z</time></trkpt><trkpt lat="44.4179033" lon="10.5187281"><ele>599.0</ele><time>2026-04-04T08:33:12.952Z</time></trkpt><trkpt lat="44.4178269" lon="10.5186743"><ele>598.6666666666666</ele><time>2026-04-04T08:33:13.953Z</time></trkpt><trkpt lat="44.4177564" lon="10.518626"><ele>598.3333333333333</ele><time>2026-04-04T08:33:14.952Z</time></trkpt><trkpt lat="44.4176881" lon="10.5185717"><ele>598.0</ele><time>2026-04-04T08:33:15.952Z</time></trkpt><trkpt lat="44.4176246" lon="10.5185107"><ele>597.6666666666666</ele><time>2026-04-04T08:33:16.953Z</time></trkpt><trkpt lat="44.4175672" lon="10.5184373"><ele>597.3333333333334</ele><time>2026-04-04T08:33:17.953Z</time></trkpt><trkpt lat="44.4175096" lon="10.5183622"><ele>597.0</ele><time>2026-04-04T08:33:18.952Z</time></trkpt><trkpt lat="44.4174547" lon="10.5182731"><ele>597.0</ele><time>2026-04-04T08:33:19.952Z</time></trkpt><trkpt lat="44.4174017" lon="10.5181873"><ele>597.0</ele><time>2026-04-04T08:33:20.952Z</time></trkpt><trkpt lat="44.4173592" lon="10.518091"><ele>597.0</ele><time>2026-04-04T08:33:21.953Z</time></trkpt><trkpt lat="44.4173184" lon="10.5179885"><ele>597.0</ele><time>2026-04-04T08:33:22.953Z</time></trkpt><trkpt lat="44.4172717" lon="10.5178757"><ele>597.0</ele><time>2026-04-04T08:33:23.952Z</time></trkpt><trkpt lat="44.417229" lon="10.5177626"><ele>597.0</ele><time>2026-04-04T08:33:24.953Z</time></trkpt><trkpt lat="44.4171839" lon="10.5176496"><ele>594.0</ele><time>2026-04-04T08:33:25.953Z</time></trkpt><trkpt lat="44.4171387" lon="10.5175315"><ele>591.0</ele><time>2026-04-04T08:33:26.953Z</time></trkpt><trkpt lat="44.4171023" lon="10.517417"><ele>588.0</ele><time>2026-04-04T08:33:27.953Z</time></trkpt><trkpt lat="44.4170737" lon="10.5173035"><ele>585.0</ele><time>2026-04-04T08:33:28.952Z</time></trkpt><trkpt lat="44.4170383" lon="10.5171918"><ele>582.0</ele><time>2026-04-04T08:33:29.952Z</time></trkpt><trkpt lat="44.4170051" lon="10.5170688"><ele>581.6666666666666</ele><time>2026-04-04T08:33:30.952Z</time></trkpt><trkpt lat="44.4169843" lon="10.516935"><ele>581.3333333333334</ele><time>2026-04-04T08:33:31.953Z</time></trkpt><trkpt lat="44.4169619" lon="10.516809"><ele>581.0</ele><time>2026-04-04T08:33:32.953Z</time></trkpt><trkpt lat="44.4169383" lon="10.5166894"><ele>580.6666666666667</ele><time>2026-04-04T08:33:33.952Z</time></trkpt><trkpt lat="44.4169167" lon="10.5165779"><ele>580.3333333333334</ele><time>2026-04-04T08:33:34.952Z</time></trkpt><trkpt lat="44.4169003" lon="10.5164707"><ele>580.0</ele><time>2026-04-04T08:33:35.952Z</time></trkpt><trkpt lat="44.4169019" lon="10.5163766"><ele>580.0</ele><time>2026-04-04T08:33:36.953Z</time></trkpt><trkpt lat="44.4169306" lon="10.5162844"><ele>580.0</ele><time>2026-04-04T08:33:37.953Z</time></trkpt><trkpt lat="44.4169649" lon="10.5161859"><ele>580.0</ele><time>2026-04-04T08:33:38.953Z</time></trkpt><trkpt lat="44.4169827" lon="10.5160682"><ele>580.0</ele><time>2026-04-04T08:33:39.953Z</time></trkpt><trkpt lat="44.4169926" lon="10.5159369"><ele>580.0</ele><time>2026-04-04T08:33:40.952Z</time></trkpt><trkpt lat="44.4170087" lon="10.5158127"><ele>580.0</ele><time>2026-04-04T08:33:41.953Z</time></trkpt><trkpt lat="44.4170454" lon="10.5157009"><ele>580.0</ele><time>2026-04-04T08:33:42.952Z</time></trkpt><trkpt lat="44.417077" lon="10.5156069"><ele>580.0</ele><time>2026-04-04T08:33:43.952Z</time></trkpt><trkpt lat="44.4171162" lon="10.5154598"><ele>580.0</ele><time>2026-04-04T08:33:45.953Z</time></trkpt><trkpt lat="44.4170741" lon="10.5153176"><ele>580.0</ele><time>2026-04-04T08:33:47.952Z</time></trkpt><trkpt lat="44.41703" lon="10.5152306"><ele>580.0</ele><time>2026-04-04T08:33:48.953Z</time></trkpt><trkpt lat="44.416968" lon="10.5151556"><ele>578.6666666666667</ele><time>2026-04-04T08:33:49.953Z</time></trkpt><trkpt lat="44.4169144" lon="10.5150901"><ele>577.3333333333334</ele><time>2026-04-04T08:33:50.953Z</time></trkpt><trkpt lat="44.4168597" lon="10.5150152"><ele>576.0</ele><time>2026-04-04T08:33:51.953Z</time></trkpt><trkpt lat="44.4167915" lon="10.5149403"><ele>574.6666666666666</ele><time>2026-04-04T08:33:52.953Z</time></trkpt><trkpt lat="44.4167357" lon="10.5148701"><ele>573.3333333333333</ele><time>2026-04-04T08:33:53.953Z</time></trkpt><trkpt lat="44.4166946" lon="10.5147799"><ele>572.0</ele><time>2026-04-04T08:33:54.953Z</time></trkpt><trkpt lat="44.4166772" lon="10.5146903"><ele>571.9999999999999</ele><time>2026-04-04T08:33:55.952Z</time></trkpt><trkpt lat="44.4166607" lon="10.5145992"><ele>572.0</ele><time>2026-04-04T08:33:56.953Z</time></trkpt><trkpt lat="44.4166454" lon="10.5145102"><ele>572.0</ele><time>2026-04-04T08:33:57.953Z</time></trkpt><trkpt lat="44.4166353" lon="10.5144091"><ele>572.0</ele><time>2026-04-04T08:33:58.952Z</time></trkpt><trkpt lat="44.4166271" lon="10.5142992"><ele>572.0</ele><time>2026-04-04T08:33:59.953Z</time></trkpt><trkpt lat="44.4166244" lon="10.5141899"><ele>571.9999999999999</ele><time>2026-04-04T08:34:00.953Z</time></trkpt><trkpt lat="44.4166246" lon="10.5140785"><ele>572.0</ele><time>2026-04-04T08:34:01.953Z</time></trkpt><trkpt lat="44.4166285" lon="10.5139779"><ele>569.2</ele><time>2026-04-04T08:34:02.953Z</time></trkpt><trkpt lat="44.4166403" lon="10.5138242"><ele>566.4000000000001</ele><time>2026-04-04T08:34:04.953Z</time></trkpt><trkpt lat="44.4166718" lon="10.513709"><ele>563.5999999999999</ele><time>2026-04-04T08:34:06.952Z</time></trkpt><trkpt lat="44.416599" lon="10.5136033"><ele>560.8</ele><time>2026-04-04T08:34:08.952Z</time></trkpt><trkpt lat="44.4165055" lon="10.5135003"><ele>558.0</ele><time>2026-04-04T08:34:10.953Z</time></trkpt><trkpt lat="44.4164282" lon="10.5133694"><ele>555.4</ele><time>2026-04-04T08:34:12.953Z</time></trkpt><trkpt lat="44.416484" lon="10.5132192"><ele>552.8</ele><time>2026-04-04T08:34:14.953Z</time></trkpt><trkpt lat="44.4165392" lon="10.5130929"><ele>550.2</ele><time>2026-04-04T08:34:16.953Z</time></trkpt><trkpt lat="44.4165051" lon="10.5129591"><ele>547.6</ele><time>2026-04-04T08:34:18.952Z</time></trkpt><trkpt lat="44.4164829" lon="10.5128061"><ele>545.0</ele><time>2026-04-04T08:34:20.953Z</time></trkpt><trkpt lat="44.4164871" lon="10.5127139"><ele>542.3333333333333</ele><time>2026-04-04T08:34:21.952Z</time></trkpt><trkpt lat="44.4164933" lon="10.5126178"><ele>539.6666666666666</ele><time>2026-04-04T08:34:22.953Z</time></trkpt><trkpt lat="44.416485" lon="10.5124807"><ele>537.0</ele><time>2026-04-04T08:34:24.952Z</time></trkpt><trkpt lat="44.4164371" lon="10.5124017"><ele>534.3333333333334</ele><time>2026-04-04T08:34:27.952Z</time></trkpt><trkpt lat="44.416391" lon="10.5123316"><ele>531.6666666666667</ele><time>2026-04-04T08:34:30.953Z</time></trkpt><trkpt lat="44.4163314" lon="10.5123014"><ele>529.0</ele><time>2026-04-04T08:34:31.953Z</time></trkpt><trkpt lat="44.4162174" lon="10.5122423"><ele>526.1666666666667</ele><time>2026-04-04T08:34:33.953Z</time></trkpt><trkpt lat="44.4161501" lon="10.5122091"><ele>523.3333333333334</ele><time>2026-04-04T08:34:34.953Z</time></trkpt><trkpt lat="44.4160763" lon="10.5121543"><ele>520.5</ele><time>2026-04-04T08:34:35.953Z</time></trkpt><trkpt lat="44.4160307" lon="10.5120823"><ele>517.6666666666666</ele><time>2026-04-04T08:34:36.953Z</time></trkpt><trkpt lat="44.4160179" lon="10.5119124"><ele>514.8333333333333</ele><time>2026-04-04T08:34:38.953Z</time></trkpt><trkpt lat="44.4160199" lon="10.5117679"><ele>512.0</ele><time>2026-04-04T08:34:40.953Z</time></trkpt><trkpt lat="44.4160264" lon="10.5116356"><ele>509.99999999999994</ele><time>2026-04-04T08:34:42.953Z</time></trkpt><trkpt lat="44.415998" lon="10.5115533"><ele>508.0</ele><time>2026-04-04T08:34:45.953Z</time></trkpt><trkpt lat="44.4158812" lon="10.5116039"><ele>506.0</ele><time>2026-04-04T08:35:24.952Z</time></trkpt><trkpt lat="44.4158118" lon="10.5116625"><ele>504.0</ele><time>2026-04-04T08:35:25.951Z</time></trkpt><trkpt lat="44.4157762" lon="10.511792"><ele>501.99999999999994</ele><time>2026-04-04T08:35:27.952Z</time></trkpt><trkpt lat="44.415787" lon="10.5118919"><ele>500.0</ele><time>2026-04-04T08:35:28.952Z</time></trkpt><trkpt lat="44.4157769" lon="10.5120063"><ele>502.4</ele><time>2026-04-04T08:35:29.952Z</time></trkpt><trkpt lat="44.4157428" lon="10.5121382"><ele>504.8</ele><time>2026-04-04T08:35:30.951Z</time></trkpt><trkpt lat="44.415703" lon="10.5122288"><ele>507.20000000000005</ele><time>2026-04-04T08:35:31.952Z</time></trkpt><trkpt lat="44.4156423" lon="10.5123201"><ele>509.6</ele><time>2026-04-04T08:35:33.952Z</time></trkpt><trkpt lat="44.4156" lon="10.5123941"><ele>512.0</ele><time>2026-04-04T08:35:35.951Z</time></trkpt><trkpt lat="44.4155218" lon="10.5125211"><ele>510.0</ele><time>2026-04-04T08:35:37.951Z</time></trkpt><trkpt lat="44.4154734" lon="10.5125903"><ele>507.99999999999994</ele><time>2026-04-04T08:35:38.951Z</time></trkpt><trkpt lat="44.415424" lon="10.5126552"><ele>506.0</ele><time>2026-04-04T08:35:39.952Z</time></trkpt><trkpt lat="44.4153765" lon="10.5127207"><ele>504.0</ele><time>2026-04-04T08:35:40.952Z</time></trkpt><trkpt lat="44.4153183" lon="10.5127793"><ele>501.99999999999994</ele><time>2026-04-04T08:35:41.952Z</time></trkpt><trkpt lat="44.4152548" lon="10.5128326"><ele>500.0</ele><time>2026-04-04T08:35:42.951Z</time></trkpt><trkpt lat="44.415192" lon="10.5128939"><ele>498.0</ele><time>2026-04-04T08:35:43.951Z</time></trkpt><trkpt lat="44.4151372" lon="10.5129595"><ele>498.0</ele><time>2026-04-04T08:35:44.952Z</time></trkpt><trkpt lat="44.4150706" lon="10.5130646"><ele>498.0</ele><time>2026-04-04T08:35:46.952Z</time></trkpt><trkpt lat="44.4150265" lon="10.513132"><ele>498.0</ele><time>2026-04-04T08:35:48.951Z</time></trkpt><trkpt lat="44.4149471" lon="10.5131414"><ele>498.0</ele><time>2026-04-04T08:35:49.952Z</time></trkpt><trkpt lat="44.4148524" lon="10.5130881"><ele>498.0</ele><time>2026-04-04T08:35:50.951Z</time></trkpt><trkpt lat="44.4147986" lon="10.5130181"><ele>498.0</ele><time>2026-04-04T08:35:51.951Z</time></trkpt><trkpt lat="44.4147513" lon="10.5128666"><ele>496.5</ele><time>2026-04-04T08:35:53.952Z</time></trkpt><trkpt lat="44.4147388" lon="10.5127529"><ele>495.0</ele><time>2026-04-04T08:35:54.952Z</time></trkpt><trkpt lat="44.4147215" lon="10.5126087"><ele>493.5</ele><time>2026-04-04T08:35:55.952Z</time></trkpt><trkpt lat="44.4147078" lon="10.5124862"><ele>492.0</ele><time>2026-04-04T08:35:56.951Z</time></trkpt><trkpt lat="44.414699" lon="10.5123727"><ele>490.5</ele><time>2026-04-04T08:35:57.952Z</time></trkpt><trkpt lat="44.4146913" lon="10.5122811"><ele>489.0</ele><time>2026-04-04T08:35:58.952Z</time></trkpt><trkpt lat="44.4146617" lon="10.5121367"><ele>486.4</ele><time>2026-04-04T08:36:00.951Z</time></trkpt><trkpt lat="44.4146783" lon="10.5119854"><ele>483.79999999999995</ele><time>2026-04-04T08:36:02.952Z</time></trkpt><trkpt lat="44.4146925" lon="10.5118293"><ele>481.20000000000005</ele><time>2026-04-04T08:36:04.952Z</time></trkpt><trkpt lat="44.4146826" lon="10.511727"><ele>478.6</ele><time>2026-04-04T08:36:05.952Z</time></trkpt><trkpt lat="44.4146353" lon="10.5116581"><ele>476.0</ele><time>2026-04-04T08:36:06.952Z</time></trkpt><trkpt lat="44.4145262" lon="10.5116527"><ele>473.8333333333333</ele><time>2026-04-04T08:36:08.952Z</time></trkpt><trkpt lat="44.4144273" lon="10.5117179"><ele>471.66666666666663</ele><time>2026-04-04T08:36:10.951Z</time></trkpt><trkpt lat="44.4143426" lon="10.5118218"><ele>469.5</ele><time>2026-04-04T08:36:12.952Z</time></trkpt><trkpt lat="44.414281" lon="10.5118898"><ele>467.33333333333337</ele><time>2026-04-04T08:36:13.952Z</time></trkpt><trkpt lat="44.4142223" lon="10.511959"><ele>465.1666666666667</ele><time>2026-04-04T08:36:14.952Z</time></trkpt><trkpt lat="44.4141754" lon="10.5120317"><ele>463.0</ele><time>2026-04-04T08:36:15.952Z</time></trkpt><trkpt lat="44.4141355" lon="10.5121033"><ele>463.00000000000006</ele><time>2026-04-04T08:36:16.951Z</time></trkpt><trkpt lat="44.4140828" lon="10.5121772"><ele>463.0</ele><time>2026-04-04T08:36:17.952Z</time></trkpt><trkpt lat="44.4140245" lon="10.512237"><ele>463.0</ele><time>2026-04-04T08:36:18.952Z</time></trkpt><trkpt lat="44.4139592" lon="10.5122857"><ele>463.0</ele><time>2026-04-04T08:36:19.951Z</time></trkpt><trkpt lat="44.4138887" lon="10.5123282"><ele>463.00000000000006</ele><time>2026-04-04T08:36:20.952Z</time></trkpt><trkpt lat="44.4138107" lon="10.5123541"><ele>463.0</ele><time>2026-04-04T08:36:21.952Z</time></trkpt><trkpt lat="44.4137412" lon="10.5123828"><ele>458.1666666666667</ele><time>2026-04-04T08:36:22.952Z</time></trkpt><trkpt lat="44.4136751" lon="10.5123968"><ele>453.33333333333337</ele><time>2026-04-04T08:36:23.951Z</time></trkpt><trkpt lat="44.4136061" lon="10.5124183"><ele>448.5</ele><time>2026-04-04T08:36:24.952Z</time></trkpt><trkpt lat="44.4135192" lon="10.512458"><ele>443.66666666666663</ele><time>2026-04-04T08:36:25.952Z</time></trkpt><trkpt lat="44.4134278" lon="10.5125112"><ele>438.8333333333333</ele><time>2026-04-04T08:36:26.952Z</time></trkpt><trkpt lat="44.4133375" lon="10.5125867"><ele>434.0</ele><time>2026-04-04T08:36:27.952Z</time></trkpt><trkpt lat="44.4132422" lon="10.5126519"><ele>434.0</ele><time>2026-04-04T08:36:28.951Z</time></trkpt><trkpt lat="44.4131466" lon="10.5127083"><ele>434.0</ele><time>2026-04-04T08:36:29.951Z</time></trkpt><trkpt lat="44.4130555" lon="10.5127607"><ele>434.0</ele><time>2026-04-04T08:36:30.951Z</time></trkpt><trkpt lat="44.4129673" lon="10.5128089"><ele>434.0</ele><time>2026-04-04T08:36:31.952Z</time></trkpt><trkpt lat="44.4128826" lon="10.5128599"><ele>434.0</ele><time>2026-04-04T08:36:32.951Z</time></trkpt><trkpt lat="44.4128079" lon="10.5129163"><ele>432.49999999999994</ele><time>2026-04-04T08:36:33.952Z</time></trkpt><trkpt lat="44.4127496" lon="10.5129696"><ele>431.0</ele><time>2026-04-04T08:36:34.952Z</time></trkpt><trkpt lat="44.4127002" lon="10.513057"><ele>429.5</ele><time>2026-04-04T08:36:35.951Z</time></trkpt><trkpt lat="44.4126536" lon="10.5131599"><ele>428.0</ele><time>2026-04-04T08:36:36.952Z</time></trkpt><trkpt lat="44.4125923" lon="10.5132619"><ele>426.49999999999994</ele><time>2026-04-04T08:36:37.951Z</time></trkpt><trkpt lat="44.4125209" lon="10.5133417"><ele>425.0</ele><time>2026-04-04T08:36:38.952Z</time></trkpt><trkpt lat="44.4124327" lon="10.5133996"><ele>425.0</ele><time>2026-04-04T08:36:39.952Z</time></trkpt><trkpt lat="44.4123477" lon="10.5134842"><ele>425.0</ele><time>2026-04-04T08:36:40.952Z</time></trkpt><trkpt lat="44.4122899" lon="10.5135777"><ele>425.0</ele><time>2026-04-04T08:36:41.952Z</time></trkpt><trkpt lat="44.412246" lon="10.5136783"><ele>425.0</ele><time>2026-04-04T08:36:42.951Z</time></trkpt><trkpt lat="44.4122122" lon="10.5138081"><ele>425.0</ele><time>2026-04-04T08:36:43.952Z</time></trkpt><trkpt lat="44.4121893" lon="10.5139543"><ele>426.2</ele><time>2026-04-04T08:36:44.952Z</time></trkpt><trkpt lat="44.4121699" lon="10.514119"><ele>427.4</ele><time>2026-04-04T08:36:45.952Z</time></trkpt><trkpt lat="44.4121495" lon="10.5142819"><ele>428.6</ele><time>2026-04-04T08:36:46.952Z</time></trkpt><trkpt lat="44.4121362" lon="10.5144302"><ele>429.8</ele><time>2026-04-04T08:36:47.952Z</time></trkpt><trkpt lat="44.4121196" lon="10.514575"><ele>431.0</ele><time>2026-04-04T08:36:48.951Z</time></trkpt><trkpt lat="44.4120963" lon="10.51472"><ele>428.4</ele><time>2026-04-04T08:36:49.952Z</time></trkpt><trkpt lat="44.4120663" lon="10.5148637"><ele>425.8</ele><time>2026-04-04T08:36:50.952Z</time></trkpt><trkpt lat="44.4120198" lon="10.5149897"><ele>423.2</ele><time>2026-04-04T08:36:51.952Z</time></trkpt><trkpt lat="44.4119537" lon="10.5150972"><ele>420.59999999999997</ele><time>2026-04-04T08:36:52.952Z</time></trkpt><trkpt lat="44.4118698" lon="10.515179"><ele>418.0</ele><time>2026-04-04T08:36:53.952Z</time></trkpt><trkpt lat="44.411774" lon="10.5152511"><ele>418.00000000000006</ele><time>2026-04-04T08:36:54.952Z</time></trkpt><trkpt lat="44.411672" lon="10.5153001"><ele>418.0</ele><time>2026-04-04T08:36:55.951Z</time></trkpt><trkpt lat="44.4115744" lon="10.5153236"><ele>418.0</ele><time>2026-04-04T08:36:56.952Z</time></trkpt><trkpt lat="44.4114893" lon="10.5153191"><ele>418.0</ele><time>2026-04-04T08:36:57.952Z</time></trkpt><trkpt lat="44.4114089" lon="10.5152967"><ele>418.00000000000006</ele><time>2026-04-04T08:36:58.952Z</time></trkpt><trkpt lat="44.4113493" lon="10.5152449"><ele>418.0</ele><time>2026-04-04T08:36:59.952Z</time></trkpt><trkpt lat="44.4113055" lon="10.5151472"><ele>416.5</ele><time>2026-04-04T08:37:00.951Z</time></trkpt><trkpt lat="44.4112576" lon="10.5150242"><ele>415.0</ele><time>2026-04-04T08:37:01.952Z</time></trkpt><trkpt lat="44.4111881" lon="10.5148795"><ele>413.5</ele><time>2026-04-04T08:37:02.952Z</time></trkpt><trkpt lat="44.4111186" lon="10.5147122"><ele>412.0</ele><time>2026-04-04T08:37:03.952Z</time></trkpt><trkpt lat="44.4110668" lon="10.5145319"><ele>412.0</ele><time>2026-04-04T08:37:04.951Z</time></trkpt><trkpt lat="44.4110333" lon="10.5143437"><ele>412.0</ele><time>2026-04-04T08:37:05.952Z</time></trkpt><trkpt lat="44.4110058" lon="10.5141588"><ele>412.0</ele><time>2026-04-04T08:37:06.952Z</time></trkpt><trkpt lat="44.4109744" lon="10.513987"><ele>412.0</ele><time>2026-04-04T08:37:07.951Z</time></trkpt><trkpt lat="44.4109314" lon="10.5138363"><ele>408.25</ele><time>2026-04-04T08:37:08.952Z</time></trkpt><trkpt lat="44.4108599" lon="10.5137112"><ele>404.5</ele><time>2026-04-04T08:37:09.951Z</time></trkpt><trkpt lat="44.410773" lon="10.5136083"><ele>400.75</ele><time>2026-04-04T08:37:10.952Z</time></trkpt><trkpt lat="44.4106714" lon="10.5135155"><ele>397.0</ele><time>2026-04-04T08:37:11.951Z</time></trkpt><trkpt lat="44.4105873" lon="10.513419"><ele>397.0</ele><time>2026-04-04T08:37:12.952Z</time></trkpt><trkpt lat="44.4105085" lon="10.5132987"><ele>397.0</ele><time>2026-04-04T08:37:13.952Z</time></trkpt><trkpt lat="44.4104388" lon="10.5131727"><ele>397.0</ele><time>2026-04-04T08:37:14.952Z</time></trkpt><trkpt lat="44.410365" lon="10.5130611"><ele>397.0</ele><time>2026-04-04T08:37:15.952Z</time></trkpt><trkpt lat="44.4102708" lon="10.5129694"><ele>396.40000000000003</ele><time>2026-04-04T08:37:16.952Z</time></trkpt><trkpt lat="44.4101647" lon="10.5129152"><ele>395.8</ele><time>2026-04-04T08:37:17.951Z</time></trkpt><trkpt lat="44.4100569" lon="10.5128845"><ele>395.2</ele><time>2026-04-04T08:37:18.951Z</time></trkpt><trkpt lat="44.4099556" lon="10.5128804"><ele>394.6</ele><time>2026-04-04T08:37:19.951Z</time></trkpt><trkpt lat="44.4098555" lon="10.512903"><ele>394.0</ele><time>2026-04-04T08:37:20.952Z</time></trkpt><trkpt lat="44.4097511" lon="10.5129657"><ele>389.75</ele><time>2026-04-04T08:37:21.952Z</time></trkpt><trkpt lat="44.4096476" lon="10.5130584"><ele>385.5</ele><time>2026-04-04T08:37:22.952Z</time></trkpt><trkpt lat="44.4095435" lon="10.5131549"><ele>381.25</ele><time>2026-04-04T08:37:23.952Z</time></trkpt><trkpt lat="44.4094326" lon="10.5132248"><ele>377.0</ele><time>2026-04-04T08:37:24.952Z</time></trkpt><trkpt lat="44.4093183" lon="10.5132806"><ele>377.0</ele><time>2026-04-04T08:37:25.952Z</time></trkpt><trkpt lat="44.4092042" lon="10.5133343"><ele>377.0</ele><time>2026-04-04T08:37:26.951Z</time></trkpt><trkpt lat="44.4090936" lon="10.5133894"><ele>377.0</ele><time>2026-04-04T08:37:27.952Z</time></trkpt><trkpt lat="44.4089868" lon="10.5134372"><ele>377.0</ele><time>2026-04-04T08:37:28.952Z</time></trkpt><trkpt lat="44.4088791" lon="10.5134916"><ele>374.0</ele><time>2026-04-04T08:37:29.952Z</time></trkpt><trkpt lat="44.4087837" lon="10.5135683"><ele>371.0</ele><time>2026-04-04T08:37:30.952Z</time></trkpt><trkpt lat="44.4087097" lon="10.5136618"><ele>368.0</ele><time>2026-04-04T08:37:31.952Z</time></trkpt><trkpt lat="44.4086431" lon="10.5137788"><ele>365.0</ele><time>2026-04-04T08:37:32.952Z</time></trkpt><trkpt lat="44.4085856" lon="10.5138915"><ele>362.0</ele><time>2026-04-04T08:37:33.952Z</time></trkpt><trkpt lat="44.4085388" lon="10.5139758"><ele>362.0</ele><time>2026-04-04T08:37:34.951Z</time></trkpt><trkpt lat="44.4084687" lon="10.5140701"><ele>362.0</ele><time>2026-04-04T08:37:36.951Z</time></trkpt><trkpt lat="44.4084461" lon="10.5142151"><ele>362.0</ele><time>2026-04-04T08:37:39.952Z</time></trkpt><trkpt lat="44.4084694" lon="10.5143225"><ele>362.0</ele><time>2026-04-04T08:37:40.951Z</time></trkpt><trkpt lat="44.4085063" lon="10.5144286"><ele>362.0</ele><time>2026-04-04T08:37:41.952Z</time></trkpt><trkpt lat="44.4085517" lon="10.5145577"><ele>360.5</ele><time>2026-04-04T08:37:42.952Z</time></trkpt><trkpt lat="44.4085924" lon="10.5147083"><ele>359.0</ele><time>2026-04-04T08:37:43.952Z</time></trkpt><trkpt lat="44.408635" lon="10.514869"><ele>357.5</ele><time>2026-04-04T08:37:44.951Z</time></trkpt><trkpt lat="44.4086706" lon="10.5150435"><ele>356.0</ele><time>2026-04-04T08:37:45.951Z</time></trkpt><trkpt lat="44.408698" lon="10.5152207"><ele>356.0</ele><time>2026-04-04T08:37:46.951Z</time></trkpt><trkpt lat="44.4087129" lon="10.5153994"><ele>356.0</ele><time>2026-04-04T08:37:47.951Z</time></trkpt><trkpt lat="44.4087136" lon="10.5155721"><ele>356.0</ele><time>2026-04-04T08:37:48.952Z</time></trkpt><trkpt lat="44.4087126" lon="10.5157414"><ele>356.0</ele><time>2026-04-04T08:37:49.952Z</time></trkpt><trkpt lat="44.4087101" lon="10.5158987"><ele>355.8</ele><time>2026-04-04T08:37:50.952Z</time></trkpt><trkpt lat="44.4087021" lon="10.5160549"><ele>355.6</ele><time>2026-04-04T08:37:51.952Z</time></trkpt><trkpt lat="44.4086822" lon="10.5161955"><ele>355.4</ele><time>2026-04-04T08:37:52.951Z</time></trkpt><trkpt lat="44.4086653" lon="10.5163306"><ele>355.2</ele><time>2026-04-04T08:37:53.952Z</time></trkpt><trkpt lat="44.4086489" lon="10.5164701"><ele>355.0</ele><time>2026-04-04T08:37:54.952Z</time></trkpt><trkpt lat="44.408622" lon="10.5166314"><ele>355.0</ele><time>2026-04-04T08:37:55.952Z</time></trkpt><trkpt lat="44.4085832" lon="10.5168208"><ele>355.0</ele><time>2026-04-04T08:37:56.952Z</time></trkpt><trkpt lat="44.4085309" lon="10.5170214"><ele>355.0</ele><time>2026-04-04T08:37:57.952Z</time></trkpt><trkpt lat="44.4084688" lon="10.5172409"><ele>358.66666666666663</ele><time>2026-04-04T08:37:58.951Z</time></trkpt><trkpt lat="44.4083916" lon="10.5174724"><ele>362.3333333333333</ele><time>2026-04-04T08:37:59.952Z</time></trkpt><trkpt lat="44.4082974" lon="10.5176955"><ele>366.0</ele><time>2026-04-04T08:38:00.951Z</time></trkpt><trkpt lat="44.4082153" lon="10.5178908"><ele>366.8</ele><time>2026-04-04T08:38:01.952Z</time></trkpt><trkpt lat="44.4081423" lon="10.5180609"><ele>367.6</ele><time>2026-04-04T08:38:02.951Z</time></trkpt><trkpt lat="44.4080805" lon="10.5182117"><ele>368.4</ele><time>2026-04-04T08:38:03.952Z</time></trkpt><trkpt lat="44.4080371" lon="10.5183279"><ele>369.2</ele><time>2026-04-04T08:38:04.952Z</time></trkpt><trkpt lat="44.4080209" lon="10.5184401"><ele>370.0</ele><time>2026-04-04T08:38:05.951Z</time></trkpt><trkpt lat="44.4080488" lon="10.5185605"><ele>370.0</ele><time>2026-04-04T08:38:06.952Z</time></trkpt><trkpt lat="44.4081075" lon="10.5186888"><ele>370.0</ele><time>2026-04-04T08:38:07.951Z</time></trkpt><trkpt lat="44.4081771" lon="10.5188351"><ele>370.0</ele><time>2026-04-04T08:38:08.952Z</time></trkpt><trkpt lat="44.4082313" lon="10.5189986"><ele>370.0</ele><time>2026-04-04T08:38:09.952Z</time></trkpt><trkpt lat="44.4082762" lon="10.5191543"><ele>368.5</ele><time>2026-04-04T08:38:10.951Z</time></trkpt><trkpt lat="44.40832" lon="10.5193069"><ele>367.0</ele><time>2026-04-04T08:38:11.952Z</time></trkpt><trkpt lat="44.4083551" lon="10.5194561"><ele>365.5</ele><time>2026-04-04T08:38:12.952Z</time></trkpt><trkpt lat="44.4083715" lon="10.5196095"><ele>364.0</ele><time>2026-04-04T08:38:13.952Z</time></trkpt><trkpt lat="44.4083683" lon="10.5197688"><ele>362.75</ele><time>2026-04-04T08:38:14.952Z</time></trkpt><trkpt lat="44.4083474" lon="10.5199289"><ele>361.5</ele><time>2026-04-04T08:38:15.951Z</time></trkpt><trkpt lat="44.4083245" lon="10.5200998"><ele>360.25</ele><time>2026-04-04T08:38:16.951Z</time></trkpt><trkpt lat="44.4083038" lon="10.5202743"><ele>359.0</ele><time>2026-04-04T08:38:17.952Z</time></trkpt><trkpt lat="44.4082942" lon="10.5204449"><ele>358.5</ele><time>2026-04-04T08:38:18.951Z</time></trkpt><trkpt lat="44.4082869" lon="10.5206149"><ele>358.0</ele><time>2026-04-04T08:38:19.952Z</time></trkpt><trkpt lat="44.4082899" lon="10.52078"><ele>357.5</ele><time>2026-04-04T08:38:20.951Z</time></trkpt><trkpt lat="44.4083048" lon="10.5209459"><ele>357.0</ele><time>2026-04-04T08:38:21.952Z</time></trkpt><trkpt lat="44.4083339" lon="10.5211124"><ele>355.5</ele><time>2026-04-04T08:38:22.952Z</time></trkpt><trkpt lat="44.4083735" lon="10.5212772"><ele>354.0</ele><time>2026-04-04T08:38:23.952Z</time></trkpt><trkpt lat="44.4084299" lon="10.5214477"><ele>352.5</ele><time>2026-04-04T08:38:24.951Z</time></trkpt><trkpt lat="44.4084957" lon="10.5216154"><ele>351.0</ele><time>2026-04-04T08:38:25.951Z</time></trkpt><trkpt lat="44.4085691" lon="10.5217624"><ele>351.0</ele><time>2026-04-04T08:38:26.952Z</time></trkpt><trkpt lat="44.4086504" lon="10.5218984"><ele>351.0</ele><time>2026-04-04T08:38:27.951Z</time></trkpt><trkpt lat="44.4087424" lon="10.5220147"><ele>351.0</ele><time>2026-04-04T08:38:28.952Z</time></trkpt><trkpt lat="44.4088422" lon="10.5221213"><ele>351.0</ele><time>2026-04-04T08:38:29.952Z</time></trkpt><trkpt lat="44.4089411" lon="10.5222163"><ele>351.8</ele><time>2026-04-04T08:38:30.951Z</time></trkpt><trkpt lat="44.4090312" lon="10.5222994"><ele>352.6</ele><time>2026-04-04T08:38:31.952Z</time></trkpt><trkpt lat="44.4091184" lon="10.5223771"><ele>353.4</ele><time>2026-04-04T08:38:32.952Z</time></trkpt><trkpt lat="44.4092055" lon="10.5224354"><ele>354.2</ele><time>2026-04-04T08:38:33.952Z</time></trkpt><trkpt lat="44.4092902" lon="10.5224766"><ele>355.0</ele><time>2026-04-04T08:38:34.951Z</time></trkpt><trkpt lat="44.4093622" lon="10.5225167"><ele>355.0</ele><time>2026-04-04T08:38:35.951Z</time></trkpt><trkpt lat="44.4094184" lon="10.5225811"><ele>355.0</ele><time>2026-04-04T08:38:36.952Z</time></trkpt><trkpt lat="44.4094486" lon="10.5226838"><ele>355.0</ele><time>2026-04-04T08:38:37.951Z</time></trkpt><trkpt lat="44.4094302" lon="10.5227948"><ele>355.0</ele><time>2026-04-04T08:38:38.952Z</time></trkpt><trkpt lat="44.4093957" lon="10.5229101"><ele>355.0</ele><time>2026-04-04T08:38:39.951Z</time></trkpt><trkpt lat="44.4093591" lon="10.5230359"><ele>355.0</ele><time>2026-04-04T08:38:40.952Z</time></trkpt><trkpt lat="44.4093178" lon="10.5231662"><ele>354.0</ele><time>2026-04-04T08:38:41.952Z</time></trkpt><trkpt lat="44.4092803" lon="10.5233056"><ele>353.0</ele><time>2026-04-04T08:38:42.952Z</time></trkpt><trkpt lat="44.4092394" lon="10.5234357"><ele>352.0</ele><time>2026-04-04T08:38:43.952Z</time></trkpt><trkpt lat="44.4092062" lon="10.5235568"><ele>351.0</ele><time>2026-04-04T08:38:44.951Z</time></trkpt><trkpt lat="44.4091828" lon="10.5236477"><ele>350.0</ele><time>2026-04-04T08:38:45.952Z</time></trkpt><trkpt lat="44.4091437" lon="10.5237467"><ele>350.0</ele><time>2026-04-04T08:38:47.952Z</time></trkpt><trkpt lat="44.4090568" lon="10.5237634"><ele>350.0</ele><time>2026-04-04T08:38:53.951Z</time></trkpt><trkpt lat="44.4089373" lon="10.5236715"><ele>350.0</ele><time>2026-04-04T08:38:55.952Z</time></trkpt><trkpt lat="44.4088653" lon="10.5236114"><ele>350.0</ele><time>2026-04-04T08:38:56.951Z</time></trkpt><trkpt lat="44.4087853" lon="10.523546"><ele>350.0</ele><time>2026-04-04T08:38:57.952Z</time></trkpt><trkpt lat="44.4087018" lon="10.5234828"><ele>349.0</ele><time>2026-04-04T08:38:58.951Z</time></trkpt><trkpt lat="44.4086114" lon="10.5234456"><ele>348.0</ele><time>2026-04-04T08:38:59.952Z</time></trkpt><trkpt lat="44.4085164" lon="10.5234162"><ele>347.0</ele><time>2026-04-04T08:39:00.952Z</time></trkpt><trkpt lat="44.4084168" lon="10.52337"><ele>346.0</ele><time>2026-04-04T08:39:01.951Z</time></trkpt><trkpt lat="44.4083124" lon="10.5233277"><ele>345.0</ele><time>2026-04-04T08:39:02.952Z</time></trkpt><trkpt lat="44.4081964" lon="10.5232755"><ele>345.0</ele><time>2026-04-04T08:39:03.952Z</time></trkpt><trkpt lat="44.4080746" lon="10.5232043"><ele>345.0</ele><time>2026-04-04T08:39:04.952Z</time></trkpt><trkpt lat="44.4079563" lon="10.523118"><ele>345.0</ele><time>2026-04-04T08:39:05.952Z</time></trkpt><trkpt lat="44.4078303" lon="10.5230202"><ele>345.0</ele><time>2026-04-04T08:39:06.951Z</time></trkpt><trkpt lat="44.4076986" lon="10.5229143"><ele>346.0</ele><time>2026-04-04T08:39:07.951Z</time></trkpt><trkpt lat="44.4075722" lon="10.5227961"><ele>347.0</ele><time>2026-04-04T08:39:08.952Z</time></trkpt><trkpt lat="44.4074519" lon="10.522682"><ele>348.0</ele><time>2026-04-04T08:39:09.952Z</time></trkpt><trkpt lat="44.4073287" lon="10.5225686"><ele>349.0</ele><time>2026-04-04T08:39:10.952Z</time></trkpt><trkpt lat="44.4072053" lon="10.5224603"><ele>351.0</ele><time>2026-04-04T08:39:11.952Z</time></trkpt><trkpt lat="44.4070877" lon="10.5223573"><ele>353.0</ele><time>2026-04-04T08:39:12.952Z</time></trkpt><trkpt lat="44.4069798" lon="10.5222668"><ele>355.0</ele><time>2026-04-04T08:39:13.952Z</time></trkpt><trkpt lat="44.4068776" lon="10.5221627"><ele>357.0</ele><time>2026-04-04T08:39:14.952Z</time></trkpt><trkpt lat="44.4067793" lon="10.5220403"><ele>357.0</ele><time>2026-04-04T08:39:15.951Z</time></trkpt><trkpt lat="44.4066952" lon="10.5218934"><ele>357.0</ele><time>2026-04-04T08:39:16.951Z</time></trkpt><trkpt lat="44.4066268" lon="10.5217204"><ele>357.0</ele><time>2026-04-04T08:39:17.952Z</time></trkpt><trkpt lat="44.4065675" lon="10.5215383"><ele>357.0</ele><time>2026-04-04T08:39:18.952Z</time></trkpt><trkpt lat="44.4065076" lon="10.5213491"><ele>353.6666666666667</ele><time>2026-04-04T08:39:19.952Z</time></trkpt><trkpt lat="44.4064423" lon="10.5211545"><ele>350.33333333333337</ele><time>2026-04-04T08:39:20.951Z</time></trkpt><trkpt lat="44.4063775" lon="10.520954"><ele>347.0</ele><time>2026-04-04T08:39:21.952Z</time></trkpt><trkpt lat="44.4063215" lon="10.5207446"><ele>356.6666666666667</ele><time>2026-04-04T08:39:22.951Z</time></trkpt><trkpt lat="44.4062611" lon="10.5205188"><ele>366.3333333333333</ele><time>2026-04-04T08:39:23.952Z</time></trkpt><trkpt lat="44.4062094" lon="10.5202899"><ele>376.0</ele><time>2026-04-04T08:39:24.952Z</time></trkpt><trkpt lat="44.4061702" lon="10.52006"><ele>376.0</ele><time>2026-04-04T08:39:25.952Z</time></trkpt><trkpt lat="44.4061321" lon="10.5198279"><ele>376.0</ele><time>2026-04-04T08:39:26.951Z</time></trkpt><trkpt lat="44.406088" lon="10.5195991"><ele>376.0</ele><time>2026-04-04T08:39:27.952Z</time></trkpt><trkpt lat="44.4060492" lon="10.5193694"><ele>375.66666666666663</ele><time>2026-04-04T08:39:28.951Z</time></trkpt><trkpt lat="44.4060192" lon="10.5191302"><ele>375.3333333333333</ele><time>2026-04-04T08:39:29.952Z</time></trkpt><trkpt lat="44.4060022" lon="10.5188897"><ele>375.0</ele><time>2026-04-04T08:39:30.952Z</time></trkpt><trkpt lat="44.4059999" lon="10.5186517"><ele>374.6666666666667</ele><time>2026-04-04T08:39:31.952Z</time></trkpt><trkpt lat="44.4060019" lon="10.5184205"><ele>374.33333333333337</ele><time>2026-04-04T08:39:32.951Z</time></trkpt><trkpt lat="44.4060051" lon="10.5181822"><ele>374.0</ele><time>2026-04-04T08:39:33.952Z</time></trkpt><trkpt lat="44.4060051" lon="10.5179333"><ele>374.0</ele><time>2026-04-04T08:39:34.952Z</time></trkpt><trkpt lat="44.4060061" lon="10.5176838"><ele>374.0</ele><time>2026-04-04T08:39:35.951Z</time></trkpt><trkpt lat="44.4060034" lon="10.5174396"><ele>374.0</ele><time>2026-04-04T08:39:36.952Z</time></trkpt><trkpt lat="44.4060023" lon="10.5171915"><ele>373.33333333333337</ele><time>2026-04-04T08:39:37.952Z</time></trkpt><trkpt lat="44.4060037" lon="10.5169441"><ele>372.6666666666667</ele><time>2026-04-04T08:39:38.952Z</time></trkpt><trkpt lat="44.4060066" lon="10.5166945"><ele>372.0</ele><time>2026-04-04T08:39:39.952Z</time></trkpt><trkpt lat="44.4060067" lon="10.5164497"><ele>370.6666666666667</ele><time>2026-04-04T08:39:40.952Z</time></trkpt><trkpt lat="44.4060072" lon="10.5162059"><ele>369.33333333333337</ele><time>2026-04-04T08:39:41.952Z</time></trkpt><trkpt lat="44.4060145" lon="10.5159621"><ele>368.0</ele><time>2026-04-04T08:39:42.952Z</time></trkpt><trkpt lat="44.4060409" lon="10.5157227"><ele>368.0</ele><time>2026-04-04T08:39:43.952Z</time></trkpt><trkpt lat="44.4060891" lon="10.5154969"><ele>368.0</ele><time>2026-04-04T08:39:44.952Z</time></trkpt><trkpt lat="44.4061544" lon="10.5152743"><ele>368.0</ele><time>2026-04-04T08:39:45.951Z</time></trkpt><trkpt lat="44.4062239" lon="10.5150578"><ele>369.6666666666667</ele><time>2026-04-04T08:39:46.952Z</time></trkpt><trkpt lat="44.4062959" lon="10.5148466"><ele>371.3333333333333</ele><time>2026-04-04T08:39:47.952Z</time></trkpt><trkpt lat="44.4063514" lon="10.5146277"><ele>373.0</ele><time>2026-04-04T08:39:48.952Z</time></trkpt><trkpt lat="44.406391" lon="10.5144072"><ele>367.66666666666663</ele><time>2026-04-04T08:39:49.952Z</time></trkpt><trkpt lat="44.4064019" lon="10.5141701"><ele>362.3333333333333</ele><time>2026-04-04T08:39:50.952Z</time></trkpt><trkpt lat="44.4063922" lon="10.5139401"><ele>357.0</ele><time>2026-04-04T08:39:51.952Z</time></trkpt><trkpt lat="44.4063466" lon="10.5137128"><ele>363.6666666666667</ele><time>2026-04-04T08:39:52.952Z</time></trkpt><trkpt lat="44.4062785" lon="10.513501"><ele>370.33333333333337</ele><time>2026-04-04T08:39:53.951Z</time></trkpt><trkpt lat="44.4061875" lon="10.5132993"><ele>377.0</ele><time>2026-04-04T08:39:54.952Z</time></trkpt><trkpt lat="44.4060771" lon="10.5130956"><ele>374.6666666666667</ele><time>2026-04-04T08:39:55.951Z</time></trkpt><trkpt lat="44.4059658" lon="10.5128933"><ele>372.3333333333333</ele><time>2026-04-04T08:39:56.951Z</time></trkpt><trkpt lat="44.4058529" lon="10.5126799"><ele>370.0</ele><time>2026-04-04T08:39:57.952Z</time></trkpt><trkpt lat="44.4057606" lon="10.5124644"><ele>370.0</ele><time>2026-04-04T08:39:58.951Z</time></trkpt><trkpt lat="44.405682" lon="10.5122545"><ele>370.0</ele><time>2026-04-04T08:39:59.952Z</time></trkpt><trkpt lat="44.4056167" lon="10.5120444"><ele>370.0</ele><time>2026-04-04T08:40:00.952Z</time></trkpt><trkpt lat="44.4055528" lon="10.5118325"><ele>373.66666666666663</ele><time>2026-04-04T08:40:01.951Z</time></trkpt><trkpt lat="44.4054797" lon="10.5116219"><ele>377.3333333333333</ele><time>2026-04-04T08:40:02.952Z</time></trkpt><trkpt lat="44.4054069" lon="10.5114124"><ele>381.0</ele><time>2026-04-04T08:40:03.952Z</time></trkpt><trkpt lat="44.4053313" lon="10.5112027"><ele>381.0</ele><time>2026-04-04T08:40:04.952Z</time></trkpt><trkpt lat="44.4052601" lon="10.5109926"><ele>381.0</ele><time>2026-04-04T08:40:05.952Z</time></trkpt><trkpt lat="44.405199" lon="10.5107753"><ele>381.0</ele><time>2026-04-04T08:40:06.952Z</time></trkpt><trkpt lat="44.4051516" lon="10.510546"><ele>377.6666666666667</ele><time>2026-04-04T08:40:07.952Z</time></trkpt><trkpt lat="44.4051176" lon="10.5103146"><ele>374.33333333333337</ele><time>2026-04-04T08:40:08.952Z</time></trkpt><trkpt lat="44.4050964" lon="10.5100743"><ele>371.0</ele><time>2026-04-04T08:40:09.952Z</time></trkpt><trkpt lat="44.4050777" lon="10.5098334"><ele>371.0</ele><time>2026-04-04T08:40:10.952Z</time></trkpt><trkpt lat="44.4050577" lon="10.5095931"><ele>371.0</ele><time>2026-04-04T08:40:11.951Z</time></trkpt><trkpt lat="44.4050316" lon="10.5093552"><ele>371.0</ele><time>2026-04-04T08:40:12.951Z</time></trkpt><trkpt lat="44.4049964" lon="10.5091305"><ele>369.0</ele><time>2026-04-04T08:40:13.952Z</time></trkpt><trkpt lat="44.4049616" lon="10.5089063"><ele>367.0</ele><time>2026-04-04T08:40:14.951Z</time></trkpt><trkpt lat="44.4049208" lon="10.5086796"><ele>365.0</ele><time>2026-04-04T08:40:15.952Z</time></trkpt><trkpt lat="44.4048697" lon="10.5084539"><ele>363.6666666666667</ele><time>2026-04-04T08:40:16.951Z</time></trkpt><trkpt lat="44.4048125" lon="10.5082367"><ele>362.3333333333333</ele><time>2026-04-04T08:40:17.952Z</time></trkpt><trkpt lat="44.4047538" lon="10.5080173"><ele>361.0</ele><time>2026-04-04T08:40:18.952Z</time></trkpt><trkpt lat="44.4046921" lon="10.5077953"><ele>367.0</ele><time>2026-04-04T08:40:19.951Z</time></trkpt><trkpt lat="44.4046571" lon="10.5075636"><ele>373.0</ele><time>2026-04-04T08:40:20.951Z</time></trkpt><trkpt lat="44.4046455" lon="10.5073299"><ele>379.0</ele><time>2026-04-04T08:40:21.951Z</time></trkpt><trkpt lat="44.4046478" lon="10.5070903"><ele>381.3333333333333</ele><time>2026-04-04T08:40:22.952Z</time></trkpt><trkpt lat="44.404648" lon="10.5068528"><ele>383.66666666666663</ele><time>2026-04-04T08:40:23.951Z</time></trkpt><trkpt lat="44.4046446" lon="10.5066009"><ele>386.0</ele><time>2026-04-04T08:40:24.952Z</time></trkpt><trkpt lat="44.4046359" lon="10.5063517"><ele>387.3333333333333</ele><time>2026-04-04T08:40:25.952Z</time></trkpt><trkpt lat="44.4046298" lon="10.5061039"><ele>388.66666666666663</ele><time>2026-04-04T08:40:26.952Z</time></trkpt><trkpt lat="44.4046341" lon="10.5058549"><ele>390.0</ele><time>2026-04-04T08:40:27.951Z</time></trkpt><trkpt lat="44.4046551" lon="10.5056054"><ele>380.0</ele><time>2026-04-04T08:40:28.952Z</time></trkpt><trkpt lat="44.404697" lon="10.5053562"><ele>370.0</ele><time>2026-04-04T08:40:29.952Z</time></trkpt><trkpt lat="44.4047487" lon="10.5051123"><ele>360.0</ele><time>2026-04-04T08:40:30.951Z</time></trkpt><trkpt lat="44.4048059" lon="10.5048723"><ele>360.0</ele><time>2026-04-04T08:40:31.951Z</time></trkpt><trkpt lat="44.4048651" lon="10.5046279"><ele>360.0</ele><time>2026-04-04T08:40:32.952Z</time></trkpt><trkpt lat="44.4049195" lon="10.5043785"><ele>360.0</ele><time>2026-04-04T08:40:33.952Z</time></trkpt><trkpt lat="44.4049716" lon="10.5041308"><ele>360.6666666666667</ele><time>2026-04-04T08:40:34.952Z</time></trkpt><trkpt lat="44.4050052" lon="10.5038746"><ele>361.33333333333337</ele><time>2026-04-04T08:40:35.952Z</time></trkpt><trkpt lat="44.4050288" lon="10.5036181"><ele>362.0</ele><time>2026-04-04T08:40:36.952Z</time></trkpt><trkpt lat="44.4050366" lon="10.5033857"><ele>362.0</ele><time>2026-04-04T08:40:37.951Z</time></trkpt><trkpt lat="44.4050399" lon="10.5031749"><ele>362.0</ele><time>2026-04-04T08:40:38.952Z</time></trkpt><trkpt lat="44.4050416" lon="10.5030074"><ele>362.0</ele><time>2026-04-04T08:40:39.952Z</time></trkpt><trkpt lat="44.4050442" lon="10.5028553"><ele>362.0</ele><time>2026-04-04T08:40:40.952Z</time></trkpt><trkpt lat="44.4050423" lon="10.5027222"><ele>362.0</ele><time>2026-04-04T08:40:41.951Z</time></trkpt><trkpt lat="44.4050466" lon="10.5026086"><ele>362.0</ele><time>2026-04-04T08:40:42.951Z</time></trkpt><trkpt lat="44.4050532" lon="10.5025201"><ele>362.0</ele><time>2026-04-04T08:40:43.952Z</time></trkpt><trkpt lat="44.4050638" lon="10.502426"><ele>362.0</ele><time>2026-04-04T08:40:47.952Z</time></trkpt><trkpt lat="44.4050007" lon="10.5024933"><ele>362.0</ele><time>2026-04-04T08:40:52.951Z</time></trkpt><trkpt lat="44.4049022" lon="10.5024614"><ele>362.0</ele><time>2026-04-04T08:40:54.951Z</time></trkpt><trkpt lat="44.404806" lon="10.5023321"><ele>362.0</ele><time>2026-04-04T08:40:56.952Z</time></trkpt><trkpt lat="44.4047413" lon="10.5022326"><ele>362.0</ele><time>2026-04-04T08:40:57.952Z</time></trkpt><trkpt lat="44.4046785" lon="10.5021307"><ele>362.0</ele><time>2026-04-04T08:40:58.952Z</time></trkpt><trkpt lat="44.40462" lon="10.5020068"><ele>362.0</ele><time>2026-04-04T08:40:59.952Z</time></trkpt><trkpt lat="44.4045558" lon="10.5018617"><ele>362.0</ele><time>2026-04-04T08:41:00.952Z</time></trkpt><trkpt lat="44.4044948" lon="10.5017062"><ele>367.5</ele><time>2026-04-04T08:41:01.951Z</time></trkpt><trkpt lat="44.4044415" lon="10.5015371"><ele>373.0</ele><time>2026-04-04T08:41:02.951Z</time></trkpt><trkpt lat="44.4043925" lon="10.5013655"><ele>378.5</ele><time>2026-04-04T08:41:03.952Z</time></trkpt><trkpt lat="44.4043444" lon="10.5011949"><ele>384.0</ele><time>2026-04-04T08:41:04.952Z</time></trkpt><trkpt lat="44.4043095" lon="10.5010521"><ele>384.0</ele><time>2026-04-04T08:41:05.952Z</time></trkpt><trkpt lat="44.404281" lon="10.5009209"><ele>384.0</ele><time>2026-04-04T08:41:06.952Z</time></trkpt><trkpt lat="44.404252" lon="10.5008256"><ele>384.0</ele><time>2026-04-04T08:41:07.952Z</time></trkpt><trkpt lat="44.4041686" lon="10.5007382"><ele>384.0</ele><time>2026-04-04T08:41:09.952Z</time></trkpt><trkpt lat="44.4040981" lon="10.5007438"><ele>384.0</ele><time>2026-04-04T08:41:10.952Z</time></trkpt><trkpt lat="44.4039921" lon="10.5007868"><ele>384.0</ele><time>2026-04-04T08:41:12.952Z</time></trkpt><trkpt lat="44.4039245" lon="10.5007789"><ele>384.0</ele><time>2026-04-04T08:41:13.952Z</time></trkpt><trkpt lat="44.4038453" lon="10.5007557"><ele>384.0</ele><time>2026-04-04T08:41:14.951Z</time></trkpt><trkpt lat="44.4037708" lon="10.5007253"><ele>384.0</ele><time>2026-04-04T08:41:15.951Z</time></trkpt><trkpt lat="44.4036901" lon="10.5006928"><ele>384.0</ele><time>2026-04-04T08:41:16.952Z</time></trkpt><trkpt lat="44.4035982" lon="10.5006616"><ele>384.0</ele><time>2026-04-04T08:41:17.952Z</time></trkpt><trkpt lat="44.4034949" lon="10.5006373"><ele>386.2</ele><time>2026-04-04T08:41:18.952Z</time></trkpt><trkpt lat="44.4033917" lon="10.5005999"><ele>388.4</ele><time>2026-04-04T08:41:19.951Z</time></trkpt><trkpt lat="44.4032918" lon="10.5005574"><ele>390.6</ele><time>2026-04-04T08:41:20.952Z</time></trkpt><trkpt lat="44.4031901" lon="10.5005195"><ele>392.8</ele><time>2026-04-04T08:41:21.952Z</time></trkpt><trkpt lat="44.4030906" lon="10.5004889"><ele>395.0</ele><time>2026-04-04T08:41:22.951Z</time></trkpt><trkpt lat="44.4029901" lon="10.5004782"><ele>399.6</ele><time>2026-04-04T08:41:23.952Z</time></trkpt><trkpt lat="44.4028962" lon="10.5004928"><ele>404.2</ele><time>2026-04-04T08:41:24.952Z</time></trkpt><trkpt lat="44.4028329" lon="10.5005729"><ele>408.79999999999995</ele><time>2026-04-04T08:41:25.952Z</time></trkpt><trkpt lat="44.4027959" lon="10.5006926"><ele>413.4</ele><time>2026-04-04T08:41:26.951Z</time></trkpt><trkpt lat="44.4027724" lon="10.5008326"><ele>418.0</ele><time>2026-04-04T08:41:27.952Z</time></trkpt><trkpt lat="44.4027667" lon="10.5009858"><ele>418.0</ele><time>2026-04-04T08:41:28.951Z</time></trkpt><trkpt lat="44.4027771" lon="10.5011489"><ele>418.0</ele><time>2026-04-04T08:41:29.952Z</time></trkpt><trkpt lat="44.4027933" lon="10.5013113"><ele>418.0</ele><time>2026-04-04T08:41:30.952Z</time></trkpt><trkpt lat="44.4028148" lon="10.5014836"><ele>418.0</ele><time>2026-04-04T08:41:31.951Z</time></trkpt><trkpt lat="44.4028259" lon="10.5016606"><ele>420.0</ele><time>2026-04-04T08:41:32.952Z</time></trkpt><trkpt lat="44.4028282" lon="10.5018574"><ele>422.0</ele><time>2026-04-04T08:41:33.952Z</time></trkpt><trkpt lat="44.4028508" lon="10.5020468"><ele>424.0</ele><time>2026-04-04T08:41:34.952Z</time></trkpt><trkpt lat="44.4028961" lon="10.5022439"><ele>426.0</ele><time>2026-04-04T08:41:35.952Z</time></trkpt><trkpt lat="44.4029401" lon="10.5024175"><ele>427.20000000000005</ele><time>2026-04-04T08:41:36.952Z</time></trkpt><trkpt lat="44.4029663" lon="10.5025649"><ele>428.40000000000003</ele><time>2026-04-04T08:41:37.952Z</time></trkpt><trkpt lat="44.4029746" lon="10.5026846"><ele>429.6</ele><time>2026-04-04T08:41:38.952Z</time></trkpt><trkpt lat="44.4028705" lon="10.5027885"><ele>430.8</ele><time>2026-04-04T08:41:40.951Z</time></trkpt><trkpt lat="44.4027799" lon="10.5027936"><ele>432.0</ele><time>2026-04-04T08:41:41.952Z</time></trkpt><trkpt lat="44.402678" lon="10.5027831"><ele>432.0</ele><time>2026-04-04T08:41:42.952Z</time></trkpt><trkpt lat="44.402565" lon="10.5027601"><ele>432.0</ele><time>2026-04-04T08:41:43.951Z</time></trkpt><trkpt lat="44.4024512" lon="10.5027234"><ele>432.0</ele><time>2026-04-04T08:41:44.952Z</time></trkpt><trkpt lat="44.4023403" lon="10.5026747"><ele>432.0</ele><time>2026-04-04T08:41:45.952Z</time></trkpt><trkpt lat="44.4022332" lon="10.5026057"><ele>435.75</ele><time>2026-04-04T08:41:46.952Z</time></trkpt><trkpt lat="44.4021321" lon="10.5024839"><ele>439.5</ele><time>2026-04-04T08:41:47.952Z</time></trkpt><trkpt lat="44.4020567" lon="10.5023408"><ele>443.25</ele><time>2026-04-04T08:41:48.952Z</time></trkpt><trkpt lat="44.4019919" lon="10.5021843"><ele>447.0</ele><time>2026-04-04T08:41:49.952Z</time></trkpt><trkpt lat="44.4019091" lon="10.5020405"><ele>448.75</ele><time>2026-04-04T08:41:50.951Z</time></trkpt><trkpt lat="44.401815" lon="10.5019124"><ele>450.5</ele><time>2026-04-04T08:41:51.951Z</time></trkpt><trkpt lat="44.4017153" lon="10.5017779"><ele>452.25</ele><time>2026-04-04T08:41:52.951Z</time></trkpt><trkpt lat="44.4016281" lon="10.5016339"><ele>454.0</ele><time>2026-04-04T08:41:53.951Z</time></trkpt><trkpt lat="44.4015517" lon="10.5014735"><ele>454.0</ele><time>2026-04-04T08:41:54.952Z</time></trkpt><trkpt lat="44.4014738" lon="10.5013404"><ele>454.0</ele><time>2026-04-04T08:41:55.952Z</time></trkpt><trkpt lat="44.4013708" lon="10.5012352"><ele>454.0</ele><time>2026-04-04T08:41:56.952Z</time></trkpt><trkpt lat="44.4012752" lon="10.5011597"><ele>454.0</ele><time>2026-04-04T08:41:57.951Z</time></trkpt><trkpt lat="44.4011787" lon="10.501092"><ele>456.33333333333337</ele><time>2026-04-04T08:41:58.951Z</time></trkpt><trkpt lat="44.4010922" lon="10.5010477"><ele>458.6666666666667</ele><time>2026-04-04T08:41:59.952Z</time></trkpt><trkpt lat="44.4010112" lon="10.5010471"><ele>461.0</ele><time>2026-04-04T08:42:00.951Z</time></trkpt><trkpt lat="44.4009586" lon="10.5010978"><ele>463.33333333333337</ele><time>2026-04-04T08:42:01.952Z</time></trkpt><trkpt lat="44.4009069" lon="10.5011904"><ele>465.6666666666667</ele><time>2026-04-04T08:42:02.952Z</time></trkpt><trkpt lat="44.400854" lon="10.5012723"><ele>468.0</ele><time>2026-04-04T08:42:03.952Z</time></trkpt><trkpt lat="44.4007738" lon="10.501324"><ele>468.0</ele><time>2026-04-04T08:42:04.951Z</time></trkpt><trkpt lat="44.4006692" lon="10.5013679"><ele>468.0</ele><time>2026-04-04T08:42:05.952Z</time></trkpt><trkpt lat="44.4005551" lon="10.5014094"><ele>468.0</ele><time>2026-04-04T08:42:06.952Z</time></trkpt><trkpt lat="44.400442" lon="10.5014557"><ele>468.0</ele><time>2026-04-04T08:42:07.952Z</time></trkpt><trkpt lat="44.4003287" lon="10.5014888"><ele>469.8333333333333</ele><time>2026-04-04T08:42:08.951Z</time></trkpt><trkpt lat="44.4002256" lon="10.5015204"><ele>471.66666666666663</ele><time>2026-04-04T08:42:09.951Z</time></trkpt><trkpt lat="44.4001396" lon="10.5015375"><ele>473.5</ele><time>2026-04-04T08:42:10.952Z</time></trkpt><trkpt lat="44.4000655" lon="10.501538"><ele>475.3333333333333</ele><time>2026-04-04T08:42:11.951Z</time></trkpt><trkpt lat="44.3999799" lon="10.5014836"><ele>477.16666666666663</ele><time>2026-04-04T08:42:13.951Z</time></trkpt><trkpt lat="44.4000397" lon="10.5014044"><ele>479.0</ele><time>2026-04-04T08:45:08.951Z</time></trkpt><trkpt lat="44.400131" lon="10.5013737"><ele>478.99999999999994</ele><time>2026-04-04T08:45:10.951Z</time></trkpt><trkpt lat="44.4002283" lon="10.5013152"><ele>479.0</ele><time>2026-04-04T08:45:12.951Z</time></trkpt><trkpt lat="44.4002928" lon="10.501244"><ele>479.0</ele><time>2026-04-04T08:45:14.951Z</time></trkpt><trkpt lat="44.4003501" lon="10.5011212"><ele>479.0</ele><time>2026-04-04T08:45:16.951Z</time></trkpt><trkpt lat="44.400366" lon="10.5010334"><ele>478.99999999999994</ele><time>2026-04-04T08:45:17.951Z</time></trkpt><trkpt lat="44.400362" lon="10.5009306"><ele>479.0</ele><time>2026-04-04T08:45:18.951Z</time></trkpt><trkpt lat="44.4003558" lon="10.5008094"><ele>483.6</ele><time>2026-04-04T08:45:19.95Z</time></trkpt><trkpt lat="44.4003449" lon="10.5006852"><ele>488.2</ele><time>2026-04-04T08:45:20.95Z</time></trkpt><trkpt lat="44.400314" lon="10.5005709"><ele>492.80000000000007</ele><time>2026-04-04T08:45:21.95Z</time></trkpt><trkpt lat="44.400246" lon="10.5004667"><ele>497.40000000000003</ele><time>2026-04-04T08:45:22.951Z</time></trkpt><trkpt lat="44.4001689" lon="10.5003782"><ele>502.0</ele><time>2026-04-04T08:45:23.951Z</time></trkpt><trkpt lat="44.4000864" lon="10.5002902"><ele>502.50000000000006</ele><time>2026-04-04T08:45:24.95Z</time></trkpt><trkpt lat="44.4000296" lon="10.5001918"><ele>503.0</ele><time>2026-04-04T08:45:25.95Z</time></trkpt><trkpt lat="44.3999911" lon="10.5000772"><ele>503.5</ele><time>2026-04-04T08:45:26.951Z</time></trkpt><trkpt lat="44.3999537" lon="10.4999843"><ele>504.0</ele><time>2026-04-04T08:45:27.95Z</time></trkpt><trkpt lat="44.3998893" lon="10.4999335"><ele>504.50000000000006</ele><time>2026-04-04T08:45:28.951Z</time></trkpt><trkpt lat="44.3998113" lon="10.4999151"><ele>505.0</ele><time>2026-04-04T08:45:29.95Z</time></trkpt><trkpt lat="44.3997293" lon="10.499913"><ele>507.33333333333337</ele><time>2026-04-04T08:45:30.951Z</time></trkpt><trkpt lat="44.3996461" lon="10.4999114"><ele>509.6666666666667</ele><time>2026-04-04T08:45:31.951Z</time></trkpt><trkpt lat="44.3995637" lon="10.4998915"><ele>512.0</ele><time>2026-04-04T08:45:32.951Z</time></trkpt><trkpt lat="44.399482" lon="10.4998758"><ele>514.3333333333334</ele><time>2026-04-04T08:45:33.951Z</time></trkpt><trkpt lat="44.3994007" lon="10.4998823"><ele>516.6666666666666</ele><time>2026-04-04T08:45:34.951Z</time></trkpt><trkpt lat="44.3993224" lon="10.4999114"><ele>519.0</ele><time>2026-04-04T08:45:35.95Z</time></trkpt><trkpt lat="44.3992437" lon="10.4999398"><ele>519.0</ele><time>2026-04-04T08:45:36.951Z</time></trkpt><trkpt lat="44.3991721" lon="10.4999619"><ele>519.0</ele><time>2026-04-04T08:45:37.951Z</time></trkpt><trkpt lat="44.3990926" lon="10.499962"><ele>519.0</ele><time>2026-04-04T08:45:38.951Z</time></trkpt><trkpt lat="44.399018" lon="10.4999438"><ele>519.0</ele><time>2026-04-04T08:45:39.951Z</time></trkpt><trkpt lat="44.3989532" lon="10.4998934"><ele>519.0</ele><time>2026-04-04T08:45:40.951Z</time></trkpt><trkpt lat="44.3988912" lon="10.4998135"><ele>519.0</ele><time>2026-04-04T08:45:41.951Z</time></trkpt><trkpt lat="44.3988315" lon="10.4997376"><ele>520.3333333333334</ele><time>2026-04-04T08:45:42.95Z</time></trkpt><trkpt lat="44.398764" lon="10.4996641"><ele>521.6666666666666</ele><time>2026-04-04T08:45:43.951Z</time></trkpt><trkpt lat="44.3986914" lon="10.4995957"><ele>523.0</ele><time>2026-04-04T08:45:44.951Z</time></trkpt><trkpt lat="44.3986156" lon="10.4995245"><ele>524.3333333333333</ele><time>2026-04-04T08:45:45.95Z</time></trkpt><trkpt lat="44.3985379" lon="10.4994543"><ele>525.6666666666666</ele><time>2026-04-04T08:45:46.95Z</time></trkpt><trkpt lat="44.3984535" lon="10.4994131"><ele>527.0</ele><time>2026-04-04T08:45:47.95Z</time></trkpt><trkpt lat="44.398372" lon="10.4994135"><ele>527.0</ele><time>2026-04-04T08:45:48.951Z</time></trkpt><trkpt lat="44.3982891" lon="10.4994306"><ele>527.0</ele><time>2026-04-04T08:45:49.951Z</time></trkpt><trkpt lat="44.3982184" lon="10.4994394"><ele>527.0</ele><time>2026-04-04T08:45:50.951Z</time></trkpt><trkpt lat="44.3981051" lon="10.4993882"><ele>527.0</ele><time>2026-04-04T08:45:52.951Z</time></trkpt><trkpt lat="44.3980481" lon="10.4993416"><ele>527.0</ele><time>2026-04-04T08:45:53.951Z</time></trkpt><trkpt lat="44.397976" lon="10.4992883"><ele>527.0</ele><time>2026-04-04T08:45:54.951Z</time></trkpt><trkpt lat="44.3978939" lon="10.4992374"><ele>529.6666666666666</ele><time>2026-04-04T08:45:55.951Z</time></trkpt><trkpt lat="44.3978121" lon="10.4991821"><ele>532.3333333333333</ele><time>2026-04-04T08:45:56.951Z</time></trkpt><trkpt lat="44.3977391" lon="10.499107"><ele>535.0</ele><time>2026-04-04T08:45:57.95Z</time></trkpt><trkpt lat="44.3976728" lon="10.4990359"><ele>537.6666666666666</ele><time>2026-04-04T08:45:58.95Z</time></trkpt><trkpt lat="44.3975939" lon="10.4989823"><ele>540.3333333333334</ele><time>2026-04-04T08:45:59.951Z</time></trkpt><trkpt lat="44.3975049" lon="10.4989422"><ele>543.0</ele><time>2026-04-04T08:46:00.951Z</time></trkpt><trkpt lat="44.3974231" lon="10.4989013"><ele>543.0</ele><time>2026-04-04T08:46:01.95Z</time></trkpt><trkpt lat="44.3973486" lon="10.4988454"><ele>543.0</ele><time>2026-04-04T08:46:02.95Z</time></trkpt><trkpt lat="44.3972934" lon="10.4987728"><ele>543.0</ele><time>2026-04-04T08:46:03.951Z</time></trkpt><trkpt lat="44.3972601" lon="10.4986724"><ele>543.0</ele><time>2026-04-04T08:46:04.951Z</time></trkpt><trkpt lat="44.3972273" lon="10.4985616"><ele>543.0</ele><time>2026-04-04T08:46:05.95Z</time></trkpt><trkpt lat="44.3972088" lon="10.4984617"><ele>543.0</ele><time>2026-04-04T08:46:06.951Z</time></trkpt><trkpt lat="44.3971693" lon="10.4983745"><ele>544.6666666666666</ele><time>2026-04-04T08:46:07.951Z</time></trkpt><trkpt lat="44.3971185" lon="10.4982989"><ele>546.3333333333334</ele><time>2026-04-04T08:46:08.95Z</time></trkpt><trkpt lat="44.3970543" lon="10.4982175"><ele>548.0</ele><time>2026-04-04T08:46:09.951Z</time></trkpt><trkpt lat="44.3969868" lon="10.4981376"><ele>549.6666666666667</ele><time>2026-04-04T08:46:10.95Z</time></trkpt><trkpt lat="44.3969273" lon="10.4980432"><ele>551.3333333333334</ele><time>2026-04-04T08:46:11.951Z</time></trkpt><trkpt lat="44.3968749" lon="10.4979398"><ele>553.0</ele><time>2026-04-04T08:46:12.951Z</time></trkpt><trkpt lat="44.3968256" lon="10.4978381"><ele>553.0</ele><time>2026-04-04T08:46:13.951Z</time></trkpt><trkpt lat="44.3967755" lon="10.4977299"><ele>553.0</ele><time>2026-04-04T08:46:14.951Z</time></trkpt><trkpt lat="44.3967354" lon="10.4976214"><ele>553.0</ele><time>2026-04-04T08:46:15.95Z</time></trkpt><trkpt lat="44.3966821" lon="10.4975026"><ele>553.0</ele><time>2026-04-04T08:46:16.951Z</time></trkpt><trkpt lat="44.3966267" lon="10.4973882"><ele>553.0</ele><time>2026-04-04T08:46:17.951Z</time></trkpt><trkpt lat="44.3965595" lon="10.4972769"><ele>553.0</ele><time>2026-04-04T08:46:18.951Z</time></trkpt><trkpt lat="44.3964899" lon="10.497171"><ele>553.0</ele><time>2026-04-04T08:46:19.951Z</time></trkpt><trkpt lat="44.3964173" lon="10.4970667"><ele>553.0</ele><time>2026-04-04T08:46:20.951Z</time></trkpt><trkpt lat="44.396345" lon="10.4969614"><ele>553.0</ele><time>2026-04-04T08:46:21.951Z</time></trkpt><trkpt lat="44.3962754" lon="10.4968531"><ele>553.0</ele><time>2026-04-04T08:46:22.951Z</time></trkpt><trkpt lat="44.3962013" lon="10.4967408"><ele>555.4</ele><time>2026-04-04T08:46:23.951Z</time></trkpt><trkpt lat="44.3961296" lon="10.4966376"><ele>557.8</ele><time>2026-04-04T08:46:24.95Z</time></trkpt><trkpt lat="44.3960533" lon="10.4965488"><ele>560.2</ele><time>2026-04-04T08:46:25.951Z</time></trkpt><trkpt lat="44.3959801" lon="10.49646"><ele>562.6</ele><time>2026-04-04T08:46:26.951Z</time></trkpt><trkpt lat="44.3959193" lon="10.4963491"><ele>565.0</ele><time>2026-04-04T08:46:27.951Z</time></trkpt><trkpt lat="44.3958646" lon="10.4962293"><ele>565.0</ele><time>2026-04-04T08:46:28.951Z</time></trkpt><trkpt lat="44.395819" lon="10.496106"><ele>565.0</ele><time>2026-04-04T08:46:29.951Z</time></trkpt><trkpt lat="44.3957752" lon="10.4959756"><ele>565.0</ele><time>2026-04-04T08:46:30.95Z</time></trkpt><trkpt lat="44.3957303" lon="10.4958439"><ele>565.0</ele><time>2026-04-04T08:46:31.951Z</time></trkpt><trkpt lat="44.395691" lon="10.4957159"><ele>565.0</ele><time>2026-04-04T08:46:32.951Z</time></trkpt><trkpt lat="44.3956485" lon="10.4955933"><ele>565.0</ele><time>2026-04-04T08:46:33.95Z</time></trkpt><trkpt lat="44.3956066" lon="10.4954822"><ele>565.0</ele><time>2026-04-04T08:46:34.951Z</time></trkpt><trkpt lat="44.3955655" lon="10.4953691"><ele>565.0</ele><time>2026-04-04T08:46:35.951Z</time></trkpt><trkpt lat="44.3955417" lon="10.4952429"><ele>565.0</ele><time>2026-04-04T08:46:36.951Z</time></trkpt><trkpt lat="44.3955291" lon="10.4951129"><ele>565.0</ele><time>2026-04-04T08:46:37.951Z</time></trkpt><trkpt lat="44.3955142" lon="10.4949723"><ele>565.4</ele><time>2026-04-04T08:46:38.951Z</time></trkpt><trkpt lat="44.3955073" lon="10.4948298"><ele>565.8</ele><time>2026-04-04T08:46:39.951Z</time></trkpt><trkpt lat="44.3955082" lon="10.4946905"><ele>566.2</ele><time>2026-04-04T08:46:40.95Z</time></trkpt><trkpt lat="44.3955105" lon="10.4945488"><ele>566.6</ele><time>2026-04-04T08:46:41.951Z</time></trkpt><trkpt lat="44.3955168" lon="10.4944173"><ele>567.0</ele><time>2026-04-04T08:46:42.951Z</time></trkpt><trkpt lat="44.3955198" lon="10.4942868"><ele>568.8000000000001</ele><time>2026-04-04T08:46:43.95Z</time></trkpt><trkpt lat="44.3955176" lon="10.4941584"><ele>570.6</ele><time>2026-04-04T08:46:44.951Z</time></trkpt><trkpt lat="44.3955142" lon="10.4940295"><ele>572.4000000000001</ele><time>2026-04-04T08:46:45.951Z</time></trkpt><trkpt lat="44.3955042" lon="10.4939027"><ele>574.2</ele><time>2026-04-04T08:46:46.951Z</time></trkpt><trkpt lat="44.395491" lon="10.4937721"><ele>576.0</ele><time>2026-04-04T08:46:47.951Z</time></trkpt><trkpt lat="44.3954842" lon="10.4936377"><ele>580.1666666666666</ele><time>2026-04-04T08:46:48.951Z</time></trkpt><trkpt lat="44.3954766" lon="10.4935182"><ele>584.3333333333334</ele><time>2026-04-04T08:46:49.951Z</time></trkpt><trkpt lat="44.3954649" lon="10.4933998"><ele>588.5</ele><time>2026-04-04T08:46:50.951Z</time></trkpt><trkpt lat="44.3954474" lon="10.4932844"><ele>592.6666666666667</ele><time>2026-04-04T08:46:51.951Z</time></trkpt><trkpt lat="44.3954127" lon="10.4931592"><ele>596.8333333333334</ele><time>2026-04-04T08:46:52.951Z</time></trkpt><trkpt lat="44.3953827" lon="10.4930285"><ele>601.0</ele><time>2026-04-04T08:46:53.951Z</time></trkpt><trkpt lat="44.3953561" lon="10.4928973"><ele>602.0</ele><time>2026-04-04T08:46:54.951Z</time></trkpt><trkpt lat="44.3953389" lon="10.4927625"><ele>603.0</ele><time>2026-04-04T08:46:55.95Z</time></trkpt><trkpt lat="44.3953319" lon="10.4926271"><ele>604.0</ele><time>2026-04-04T08:46:56.95Z</time></trkpt><trkpt lat="44.3953497" lon="10.4924971"><ele>605.0</ele><time>2026-04-04T08:46:57.95Z</time></trkpt><trkpt lat="44.3953701" lon="10.4923695"><ele>606.0</ele><time>2026-04-04T08:46:58.95Z</time></trkpt><trkpt lat="44.3953706" lon="10.4922358"><ele>606.0</ele><time>2026-04-04T08:46:59.95Z</time></trkpt><trkpt lat="44.3953459" lon="10.4921124"><ele>606.0</ele><time>2026-04-04T08:47:00.951Z</time></trkpt><trkpt lat="44.3953231" lon="10.4919777"><ele>606.0</ele><time>2026-04-04T08:47:01.951Z</time></trkpt><trkpt lat="44.39531" lon="10.4918359"><ele>606.0</ele><time>2026-04-04T08:47:02.95Z</time></trkpt><trkpt lat="44.395285" lon="10.4916998"><ele>606.0</ele><time>2026-04-04T08:47:03.951Z</time></trkpt><trkpt lat="44.3952643" lon="10.4915606"><ele>606.0</ele><time>2026-04-04T08:47:04.951Z</time></trkpt><trkpt lat="44.3952407" lon="10.4914166"><ele>606.0</ele><time>2026-04-04T08:47:05.95Z</time></trkpt><trkpt lat="44.3952184" lon="10.4912654"><ele>606.0</ele><time>2026-04-04T08:47:06.95Z</time></trkpt><trkpt lat="44.3951916" lon="10.4911205"><ele>606.0</ele><time>2026-04-04T08:47:07.95Z</time></trkpt><trkpt lat="44.3951584" lon="10.4909701"><ele>606.0</ele><time>2026-04-04T08:47:08.951Z</time></trkpt><trkpt lat="44.3951225" lon="10.4908155"><ele>604.25</ele><time>2026-04-04T08:47:09.951Z</time></trkpt><trkpt lat="44.3950915" lon="10.4906492"><ele>602.5</ele><time>2026-04-04T08:47:10.95Z</time></trkpt><trkpt lat="44.3950609" lon="10.4904685"><ele>600.75</ele><time>2026-04-04T08:47:11.951Z</time></trkpt><trkpt lat="44.3950513" lon="10.4902935"><ele>599.0</ele><time>2026-04-04T08:47:12.951Z</time></trkpt><trkpt lat="44.3950512" lon="10.4901078"><ele>595.5</ele><time>2026-04-04T08:47:13.951Z</time></trkpt><trkpt lat="44.3950513" lon="10.4899373"><ele>592.0</ele><time>2026-04-04T08:47:14.95Z</time></trkpt><trkpt lat="44.3950453" lon="10.4897698"><ele>588.5</ele><time>2026-04-04T08:47:15.951Z</time></trkpt><trkpt lat="44.3950609" lon="10.4896032"><ele>585.0</ele><time>2026-04-04T08:47:16.951Z</time></trkpt><trkpt lat="44.3950781" lon="10.4894175"><ele>584.0</ele><time>2026-04-04T08:47:17.95Z</time></trkpt><trkpt lat="44.3950985" lon="10.4892125"><ele>583.0</ele><time>2026-04-04T08:47:18.951Z</time></trkpt><trkpt lat="44.3951097" lon="10.4890098"><ele>582.0</ele><time>2026-04-04T08:47:19.95Z</time></trkpt><trkpt lat="44.3951079" lon="10.4888141"><ele>581.0</ele><time>2026-04-04T08:47:20.951Z</time></trkpt><trkpt lat="44.3951067" lon="10.4886287"><ele>581.0</ele><time>2026-04-04T08:47:21.951Z</time></trkpt><trkpt lat="44.3951173" lon="10.4884592"><ele>581.0</ele><time>2026-04-04T08:47:22.951Z</time></trkpt><trkpt lat="44.3951377" lon="10.4882847"><ele>581.0</ele><time>2026-04-04T08:47:23.951Z</time></trkpt><trkpt lat="44.395172" lon="10.488109"><ele>581.0</ele><time>2026-04-04T08:47:24.95Z</time></trkpt><trkpt lat="44.3952044" lon="10.4879324"><ele>581.75</ele><time>2026-04-04T08:47:25.951Z</time></trkpt><trkpt lat="44.3952405" lon="10.4877787"><ele>582.5</ele><time>2026-04-04T08:47:26.95Z</time></trkpt><trkpt lat="44.3952813" lon="10.4876357"><ele>583.25</ele><time>2026-04-04T08:47:27.951Z</time></trkpt><trkpt lat="44.3953282" lon="10.4874921"><ele>584.0</ele><time>2026-04-04T08:47:28.95Z</time></trkpt><trkpt lat="44.3954045" lon="10.4873654"><ele>584.0</ele><time>2026-04-04T08:47:29.95Z</time></trkpt><trkpt lat="44.3954986" lon="10.4872812"><ele>584.0</ele><time>2026-04-04T08:47:30.951Z</time></trkpt><trkpt lat="44.3955765" lon="10.4872063"><ele>584.0</ele><time>2026-04-04T08:47:31.951Z</time></trkpt><trkpt lat="44.3956367" lon="10.487109"><ele>584.0</ele><time>2026-04-04T08:47:32.951Z</time></trkpt><trkpt lat="44.3956747" lon="10.4869939"><ele>584.0</ele><time>2026-04-04T08:47:33.951Z</time></trkpt><trkpt lat="44.3957036" lon="10.4868704"><ele>583.0</ele><time>2026-04-04T08:47:34.951Z</time></trkpt><trkpt lat="44.3957243" lon="10.486747"><ele>582.0</ele><time>2026-04-04T08:47:35.95Z</time></trkpt><trkpt lat="44.39572" lon="10.4866459"><ele>581.0</ele><time>2026-04-04T08:47:36.951Z</time></trkpt><trkpt lat="44.3956976" lon="10.4865411"><ele>580.0</ele><time>2026-04-04T08:47:37.95Z</time></trkpt><trkpt lat="44.3956649" lon="10.4864248"><ele>579.0</ele><time>2026-04-04T08:47:38.951Z</time></trkpt><trkpt lat="44.3956202" lon="10.4863202"><ele>578.0</ele><time>2026-04-04T08:47:39.95Z</time></trkpt><trkpt lat="44.3955694" lon="10.486224"><ele>578.0</ele><time>2026-04-04T08:47:40.951Z</time></trkpt><trkpt lat="44.3955081" lon="10.4861396"><ele>578.0</ele><time>2026-04-04T08:47:41.95Z</time></trkpt><trkpt lat="44.3954324" lon="10.486041"><ele>578.0</ele><time>2026-04-04T08:47:42.951Z</time></trkpt><trkpt lat="44.3953519" lon="10.4859283"><ele>578.0</ele><time>2026-04-04T08:47:43.951Z</time></trkpt><trkpt lat="44.3952643" lon="10.4857993"><ele>578.0</ele><time>2026-04-04T08:47:44.951Z</time></trkpt><trkpt lat="44.3951737" lon="10.4856625"><ele>580.0</ele><time>2026-04-04T08:47:45.95Z</time></trkpt><trkpt lat="44.3950854" lon="10.4855084"><ele>582.0</ele><time>2026-04-04T08:47:46.951Z</time></trkpt><trkpt lat="44.3950168" lon="10.4853379"><ele>584.0</ele><time>2026-04-04T08:47:47.95Z</time></trkpt><trkpt lat="44.3949598" lon="10.4851533"><ele>586.0</ele><time>2026-04-04T08:47:48.951Z</time></trkpt><trkpt lat="44.3949167" lon="10.4849684"><ele>586.0</ele><time>2026-04-04T08:47:49.951Z</time></trkpt><trkpt lat="44.3948846" lon="10.4847716"><ele>586.0</ele><time>2026-04-04T08:47:50.951Z</time></trkpt><trkpt lat="44.3948587" lon="10.4845799"><ele>586.0</ele><time>2026-04-04T08:47:51.95Z</time></trkpt><trkpt lat="44.394849" lon="10.4843891"><ele>586.0</ele><time>2026-04-04T08:47:52.951Z</time></trkpt><trkpt lat="44.3948768" lon="10.4842028"><ele>583.25</ele><time>2026-04-04T08:47:53.951Z</time></trkpt><trkpt lat="44.3949308" lon="10.4840173"><ele>580.5</ele><time>2026-04-04T08:47:54.95Z</time></trkpt><trkpt lat="44.3949986" lon="10.4838358"><ele>577.75</ele><time>2026-04-04T08:47:55.951Z</time></trkpt><trkpt lat="44.3950503" lon="10.4836422"><ele>575.0</ele><time>2026-04-04T08:47:56.95Z</time></trkpt><trkpt lat="44.3950891" lon="10.4834533"><ele>574.5</ele><time>2026-04-04T08:47:57.951Z</time></trkpt><trkpt lat="44.3951126" lon="10.4832666"><ele>574.0</ele><time>2026-04-04T08:47:58.951Z</time></trkpt><trkpt lat="44.3951061" lon="10.4830901"><ele>573.5</ele><time>2026-04-04T08:47:59.951Z</time></trkpt><trkpt lat="44.395077" lon="10.4829487"><ele>573.0</ele><time>2026-04-04T08:48:00.951Z</time></trkpt><trkpt lat="44.3950501" lon="10.4828274"><ele>572.8333333333334</ele><time>2026-04-04T08:48:01.951Z</time></trkpt><trkpt lat="44.3950501" lon="10.4827316"><ele>572.6666666666666</ele><time>2026-04-04T08:48:02.951Z</time></trkpt><trkpt lat="44.3950493" lon="10.4825904"><ele>572.5</ele><time>2026-04-04T08:48:04.951Z</time></trkpt><trkpt lat="44.395011" lon="10.4824899"><ele>572.3333333333333</ele><time>2026-04-04T08:48:31.951Z</time></trkpt><trkpt lat="44.3949858" lon="10.4824087"><ele>572.1666666666666</ele><time>2026-04-04T08:48:32.951Z</time></trkpt><trkpt lat="44.394957" lon="10.4823147"><ele>572.0</ele><time>2026-04-04T08:48:33.951Z</time></trkpt><trkpt lat="44.3949366" lon="10.4821966"><ele>571.8000000000001</ele><time>2026-04-04T08:48:34.95Z</time></trkpt><trkpt lat="44.3949152" lon="10.4820692"><ele>571.6</ele><time>2026-04-04T08:48:35.951Z</time></trkpt><trkpt lat="44.394876" lon="10.4819371"><ele>571.4000000000001</ele><time>2026-04-04T08:48:36.951Z</time></trkpt><trkpt lat="44.3948228" lon="10.4818071"><ele>571.2</ele><time>2026-04-04T08:48:37.951Z</time></trkpt><trkpt lat="44.3947454" lon="10.4816816"><ele>571.0</ele><time>2026-04-04T08:48:38.951Z</time></trkpt><trkpt lat="44.394652" lon="10.4815891"><ele>571.0</ele><time>2026-04-04T08:48:39.951Z</time></trkpt><trkpt lat="44.3945517" lon="10.4815356"><ele>571.0</ele><time>2026-04-04T08:48:40.951Z</time></trkpt><trkpt lat="44.3944464" lon="10.4815308"><ele>571.0</ele><time>2026-04-04T08:48:41.951Z</time></trkpt><trkpt lat="44.3943418" lon="10.4815694"><ele>571.0</ele><time>2026-04-04T08:48:42.951Z</time></trkpt><trkpt lat="44.394243" lon="10.4816047"><ele>571.0</ele><time>2026-04-04T08:48:43.951Z</time></trkpt><trkpt lat="44.3941581" lon="10.4815909"><ele>571.0</ele><time>2026-04-04T08:48:44.951Z</time></trkpt><trkpt lat="44.3940721" lon="10.4815207"><ele>571.0</ele><time>2026-04-04T08:48:45.951Z</time></trkpt><trkpt lat="44.3940145" lon="10.4814134"><ele>571.0</ele><time>2026-04-04T08:48:46.951Z</time></trkpt><trkpt lat="44.3940073" lon="10.4812873"><ele>571.0</ele><time>2026-04-04T08:48:47.951Z</time></trkpt><trkpt lat="44.3940239" lon="10.4811474"><ele>571.0</ele><time>2026-04-04T08:48:48.95Z</time></trkpt><trkpt lat="44.3940526" lon="10.4809903"><ele>568.0</ele><time>2026-04-04T08:48:49.951Z</time></trkpt><trkpt lat="44.3940819" lon="10.4808185"><ele>565.0</ele><time>2026-04-04T08:48:50.95Z</time></trkpt><trkpt lat="44.3941099" lon="10.4806491"><ele>562.0</ele><time>2026-04-04T08:48:51.95Z</time></trkpt><trkpt lat="44.3941452" lon="10.4804942"><ele>559.0</ele><time>2026-04-04T08:48:52.951Z</time></trkpt><trkpt lat="44.3941909" lon="10.4803364"><ele>556.75</ele><time>2026-04-04T08:48:53.951Z</time></trkpt><trkpt lat="44.3942491" lon="10.4802005"><ele>554.5</ele><time>2026-04-04T08:48:54.95Z</time></trkpt><trkpt lat="44.3943178" lon="10.4800685"><ele>552.25</ele><time>2026-04-04T08:48:55.951Z</time></trkpt><trkpt lat="44.3943899" lon="10.479936"><ele>550.0</ele><time>2026-04-04T08:48:56.95Z</time></trkpt><trkpt lat="44.3944548" lon="10.4797939"><ele>550.0</ele><time>2026-04-04T08:48:57.951Z</time></trkpt><trkpt lat="44.3944988" lon="10.4796568"><ele>550.0</ele><time>2026-04-04T08:48:58.951Z</time></trkpt><trkpt lat="44.3945201" lon="10.4795053"><ele>550.0</ele><time>2026-04-04T08:48:59.951Z</time></trkpt><trkpt lat="44.3945059" lon="10.4793806"><ele>550.0</ele><time>2026-04-04T08:49:00.951Z</time></trkpt><trkpt lat="44.3944259" lon="10.4792987"><ele>550.0</ele><time>2026-04-04T08:49:01.95Z</time></trkpt><trkpt lat="44.394335" lon="10.4792848"><ele>548.1666666666667</ele><time>2026-04-04T08:49:02.95Z</time></trkpt><trkpt lat="44.3942452" lon="10.4792953"><ele>546.3333333333334</ele><time>2026-04-04T08:49:03.95Z</time></trkpt><trkpt lat="44.3941671" lon="10.4792631"><ele>544.5</ele><time>2026-04-04T08:49:04.95Z</time></trkpt><trkpt lat="44.3941139" lon="10.4791771"><ele>542.6666666666666</ele><time>2026-04-04T08:49:05.951Z</time></trkpt><trkpt lat="44.3941076" lon="10.4790698"><ele>540.8333333333333</ele><time>2026-04-04T08:49:06.951Z</time></trkpt><trkpt lat="44.3941694" lon="10.478973"><ele>539.0</ele><time>2026-04-04T08:49:07.951Z</time></trkpt><trkpt lat="44.3942389" lon="10.4789018"><ele>539.0</ele><time>2026-04-04T08:49:08.951Z</time></trkpt><trkpt lat="44.3943378" lon="10.4788517"><ele>539.0</ele><time>2026-04-04T08:49:09.95Z</time></trkpt><trkpt lat="44.3944365" lon="10.4788224"><ele>539.0</ele><time>2026-04-04T08:49:10.95Z</time></trkpt><trkpt lat="44.3945308" lon="10.4787888"><ele>539.0</ele><time>2026-04-04T08:49:11.95Z</time></trkpt><trkpt lat="44.3946254" lon="10.4787484"><ele>539.0</ele><time>2026-04-04T08:49:12.95Z</time></trkpt><trkpt lat="44.3947138" lon="10.4786925"><ele>536.4</ele><time>2026-04-04T08:49:13.951Z</time></trkpt><trkpt lat="44.3947895" lon="10.4786024"><ele>533.8</ele><time>2026-04-04T08:49:14.951Z</time></trkpt><trkpt lat="44.3948561" lon="10.4785135"><ele>531.2</ele><time>2026-04-04T08:49:15.951Z</time></trkpt><trkpt lat="44.3949265" lon="10.4784254"><ele>528.6</ele><time>2026-04-04T08:49:16.951Z</time></trkpt><trkpt lat="44.3950064" lon="10.4783697"><ele>526.0</ele><time>2026-04-04T08:49:17.951Z</time></trkpt><trkpt lat="44.3950879" lon="10.4783497"><ele>526.0</ele><time>2026-04-04T08:49:18.951Z</time></trkpt><trkpt lat="44.3951876" lon="10.478385"><ele>526.0</ele><time>2026-04-04T08:49:19.951Z</time></trkpt><trkpt lat="44.3952812" lon="10.4784468"><ele>526.0</ele><time>2026-04-04T08:49:20.95Z</time></trkpt><trkpt lat="44.395377" lon="10.478521"><ele>526.0</ele><time>2026-04-04T08:49:21.951Z</time></trkpt><trkpt lat="44.3954769" lon="10.4785955"><ele>526.0</ele><time>2026-04-04T08:49:22.951Z</time></trkpt><trkpt lat="44.3955786" lon="10.4786662"><ele>522.25</ele><time>2026-04-04T08:49:23.951Z</time></trkpt><trkpt lat="44.3956823" lon="10.4787227"><ele>518.5</ele><time>2026-04-04T08:49:24.951Z</time></trkpt><trkpt lat="44.3957948" lon="10.4787385"><ele>514.75</ele><time>2026-04-04T08:49:25.951Z</time></trkpt><trkpt lat="44.3959087" lon="10.4787021"><ele>511.0</ele><time>2026-04-04T08:49:26.951Z</time></trkpt><trkpt lat="44.3960196" lon="10.4786576"><ele>511.0</ele><time>2026-04-04T08:49:27.95Z</time></trkpt><trkpt lat="44.3961345" lon="10.4786215"><ele>511.0</ele><time>2026-04-04T08:49:28.95Z</time></trkpt><trkpt lat="44.396248" lon="10.4786275"><ele>511.0</ele><time>2026-04-04T08:49:29.95Z</time></trkpt><trkpt lat="44.3963531" lon="10.4786685"><ele>511.0</ele><time>2026-04-04T08:49:30.95Z</time></trkpt><trkpt lat="44.3964599" lon="10.4787319"><ele>508.75</ele><time>2026-04-04T08:49:31.951Z</time></trkpt><trkpt lat="44.396564" lon="10.4787784"><ele>506.5</ele><time>2026-04-04T08:49:32.951Z</time></trkpt><trkpt lat="44.3966818" lon="10.4787501"><ele>504.25</ele><time>2026-04-04T08:49:33.95Z</time></trkpt><trkpt lat="44.3967836" lon="10.478681"><ele>502.0</ele><time>2026-04-04T08:49:34.951Z</time></trkpt><trkpt lat="44.3968714" lon="10.4785711"><ele>502.00000000000006</ele><time>2026-04-04T08:49:35.951Z</time></trkpt><trkpt lat="44.3969278" lon="10.4784615"><ele>502.0</ele><time>2026-04-04T08:49:36.95Z</time></trkpt><trkpt lat="44.3969385" lon="10.4783555"><ele>502.0</ele><time>2026-04-04T08:49:37.951Z</time></trkpt><trkpt lat="44.3968973" lon="10.47827"><ele>502.0</ele><time>2026-04-04T08:49:38.95Z</time></trkpt><trkpt lat="44.396816" lon="10.4782033"><ele>502.00000000000006</ele><time>2026-04-04T08:49:39.951Z</time></trkpt><trkpt lat="44.396717" lon="10.4781438"><ele>502.0</ele><time>2026-04-04T08:49:40.951Z</time></trkpt><trkpt lat="44.3966306" lon="10.4780779"><ele>502.0</ele><time>2026-04-04T08:49:41.95Z</time></trkpt><trkpt lat="44.3965413" lon="10.4779551"><ele>502.00000000000006</ele><time>2026-04-04T08:49:42.951Z</time></trkpt><trkpt lat="44.3964918" lon="10.4778225"><ele>502.00000000000006</ele><time>2026-04-04T08:49:43.951Z</time></trkpt><trkpt lat="44.3964453" lon="10.4776841"><ele>502.0</ele><time>2026-04-04T08:49:44.951Z</time></trkpt><trkpt lat="44.3963913" lon="10.4775826"><ele>502.0</ele><time>2026-04-04T08:49:45.951Z</time></trkpt><trkpt lat="44.3962958" lon="10.477497"><ele>500.5</ele><time>2026-04-04T08:49:46.951Z</time></trkpt><trkpt lat="44.3961849" lon="10.4774307"><ele>499.0</ele><time>2026-04-04T08:49:47.951Z</time></trkpt><trkpt lat="44.3960817" lon="10.4773588"><ele>497.5</ele><time>2026-04-04T08:49:48.95Z</time></trkpt><trkpt lat="44.3959942" lon="10.4772609"><ele>496.0</ele><time>2026-04-04T08:49:49.951Z</time></trkpt><trkpt lat="44.3959272" lon="10.4771431"><ele>493.5</ele><time>2026-04-04T08:49:50.95Z</time></trkpt><trkpt lat="44.3958791" lon="10.4769958"><ele>491.0</ele><time>2026-04-04T08:49:51.951Z</time></trkpt><trkpt lat="44.3958514" lon="10.4768418"><ele>488.5</ele><time>2026-04-04T08:49:52.951Z</time></trkpt><trkpt lat="44.3958273" lon="10.4766639"><ele>486.0</ele><time>2026-04-04T08:49:53.95Z</time></trkpt><trkpt lat="44.3957949" lon="10.4764757"><ele>486.0</ele><time>2026-04-04T08:49:54.951Z</time></trkpt><trkpt lat="44.3957566" lon="10.4762762"><ele>486.0</ele><time>2026-04-04T08:49:55.951Z</time></trkpt><trkpt lat="44.3957257" lon="10.4760733"><ele>486.0</ele><time>2026-04-04T08:49:56.951Z</time></trkpt><trkpt lat="44.395722" lon="10.4758854"><ele>486.0</ele><time>2026-04-04T08:49:57.951Z</time></trkpt><trkpt lat="44.3957416" lon="10.4756849"><ele>484.5</ele><time>2026-04-04T08:49:58.951Z</time></trkpt><trkpt lat="44.3957762" lon="10.475496"><ele>483.0</ele><time>2026-04-04T08:49:59.95Z</time></trkpt><trkpt lat="44.3958069" lon="10.4753163"><ele>481.5</ele><time>2026-04-04T08:50:00.951Z</time></trkpt><trkpt lat="44.3958263" lon="10.4751514"><ele>480.0</ele><time>2026-04-04T08:50:01.951Z</time></trkpt><trkpt lat="44.3958179" lon="10.4750106"><ele>477.6</ele><time>2026-04-04T08:50:02.951Z</time></trkpt><trkpt lat="44.3957647" lon="10.474923"><ele>475.2</ele><time>2026-04-04T08:50:03.951Z</time></trkpt><trkpt lat="44.3956913" lon="10.4748666"><ele>472.79999999999995</ele><time>2026-04-04T08:50:04.951Z</time></trkpt><trkpt lat="44.3956291" lon="10.4748244"><ele>470.4</ele><time>2026-04-04T08:50:05.951Z</time></trkpt><trkpt lat="44.39569" lon="10.4747304"><ele>468.0</ele><time>2026-04-04T08:50:07.951Z</time></trkpt><trkpt lat="44.395836" lon="10.4747533"><ele>468.0</ele><time>2026-04-04T08:50:09.951Z</time></trkpt><trkpt lat="44.3959447" lon="10.4747905"><ele>468.0</ele><time>2026-04-04T08:50:10.951Z</time></trkpt><trkpt lat="44.3960477" lon="10.4748362"><ele>468.0</ele><time>2026-04-04T08:50:11.951Z</time></trkpt><trkpt lat="44.3961677" lon="10.4748714"><ele>468.0</ele><time>2026-04-04T08:50:12.951Z</time></trkpt><trkpt lat="44.3963049" lon="10.4748677"><ele>465.0</ele><time>2026-04-04T08:50:13.95Z</time></trkpt><trkpt lat="44.396448" lon="10.4748328"><ele>462.0</ele><time>2026-04-04T08:50:14.95Z</time></trkpt><trkpt lat="44.3965912" lon="10.474783"><ele>459.0</ele><time>2026-04-04T08:50:15.951Z</time></trkpt><trkpt lat="44.3967333" lon="10.4747352"><ele>456.0</ele><time>2026-04-04T08:50:16.951Z</time></trkpt><trkpt lat="44.396874" lon="10.4746828"><ele>456.0</ele><time>2026-04-04T08:50:17.951Z</time></trkpt><trkpt lat="44.3970087" lon="10.4746411"><ele>456.0</ele><time>2026-04-04T08:50:18.951Z</time></trkpt><trkpt lat="44.3971425" lon="10.474599"><ele>456.0</ele><time>2026-04-04T08:50:19.95Z</time></trkpt><trkpt lat="44.3972772" lon="10.4745675"><ele>456.0</ele><time>2026-04-04T08:50:20.951Z</time></trkpt><trkpt lat="44.3974196" lon="10.4745629"><ele>455.25</ele><time>2026-04-04T08:50:21.95Z</time></trkpt><trkpt lat="44.3975545" lon="10.4745844"><ele>454.5</ele><time>2026-04-04T08:50:22.951Z</time></trkpt><trkpt lat="44.3976842" lon="10.4746222"><ele>453.75</ele><time>2026-04-04T08:50:23.951Z</time></trkpt><trkpt lat="44.3978086" lon="10.474674"><ele>453.0</ele><time>2026-04-04T08:50:24.951Z</time></trkpt><trkpt lat="44.3979359" lon="10.4747206"><ele>452.5</ele><time>2026-04-04T08:50:25.951Z</time></trkpt><trkpt lat="44.3980653" lon="10.4747136"><ele>452.0</ele><time>2026-04-04T08:50:26.95Z</time></trkpt><trkpt lat="44.3981807" lon="10.4746533"><ele>451.5</ele><time>2026-04-04T08:50:27.951Z</time></trkpt><trkpt lat="44.398298" lon="10.4745652"><ele>451.0</ele><time>2026-04-04T08:50:28.951Z</time></trkpt><trkpt lat="44.3984071" lon="10.474473"><ele>449.4</ele><time>2026-04-04T08:50:29.951Z</time></trkpt><trkpt lat="44.398518" lon="10.4743799"><ele>447.8</ele><time>2026-04-04T08:50:30.95Z</time></trkpt><trkpt lat="44.3986258" lon="10.4743035"><ele>446.19999999999993</ele><time>2026-04-04T08:50:31.951Z</time></trkpt><trkpt lat="44.3987256" lon="10.4742642"><ele>444.59999999999997</ele><time>2026-04-04T08:50:32.95Z</time></trkpt><trkpt lat="44.3988198" lon="10.474286"><ele>443.0</ele><time>2026-04-04T08:50:33.951Z</time></trkpt><trkpt lat="44.398923" lon="10.4743383"><ele>441.0</ele><time>2026-04-04T08:50:34.951Z</time></trkpt><trkpt lat="44.3990302" lon="10.4744035"><ele>439.0</ele><time>2026-04-04T08:50:35.951Z</time></trkpt><trkpt lat="44.399128" lon="10.4744866"><ele>437.0</ele><time>2026-04-04T08:50:36.951Z</time></trkpt><trkpt lat="44.3992127" lon="10.4746041"><ele>435.0</ele><time>2026-04-04T08:50:37.951Z</time></trkpt><trkpt lat="44.3992571" lon="10.4747543"><ele>435.0</ele><time>2026-04-04T08:50:38.951Z</time></trkpt><trkpt lat="44.3992846" lon="10.4749064"><ele>435.0</ele><time>2026-04-04T08:50:39.95Z</time></trkpt><trkpt lat="44.3993077" lon="10.4750274"><ele>435.0</ele><time>2026-04-04T08:50:40.951Z</time></trkpt><trkpt lat="44.3993458" lon="10.4751352"><ele>435.0</ele><time>2026-04-04T08:50:41.951Z</time></trkpt><trkpt lat="44.3994149" lon="10.4752124"><ele>435.0</ele><time>2026-04-04T08:50:42.95Z</time></trkpt><trkpt lat="44.3995032" lon="10.475253"><ele>435.0</ele><time>2026-04-04T08:50:43.951Z</time></trkpt><trkpt lat="44.399609" lon="10.475275"><ele>435.0</ele><time>2026-04-04T08:50:44.951Z</time></trkpt><trkpt lat="44.3997168" lon="10.475321"><ele>435.0</ele><time>2026-04-04T08:50:45.95Z</time></trkpt><trkpt lat="44.3998293" lon="10.4753804"><ele>435.0</ele><time>2026-04-04T08:50:46.951Z</time></trkpt><trkpt lat="44.3999481" lon="10.4754245"><ele>433.75</ele><time>2026-04-04T08:50:47.951Z</time></trkpt><trkpt lat="44.4000659" lon="10.4754649"><ele>432.5</ele><time>2026-04-04T08:50:48.951Z</time></trkpt><trkpt lat="44.4001758" lon="10.4755086"><ele>431.25</ele><time>2026-04-04T08:50:49.95Z</time></trkpt><trkpt lat="44.4002806" lon="10.4755747"><ele>430.0</ele><time>2026-04-04T08:50:50.95Z</time></trkpt><trkpt lat="44.4003663" lon="10.4756788"><ele>430.00000000000006</ele><time>2026-04-04T08:50:51.951Z</time></trkpt><trkpt lat="44.4004149" lon="10.4758192"><ele>430.0</ele><time>2026-04-04T08:50:52.951Z</time></trkpt><trkpt lat="44.4004355" lon="10.4759395"><ele>430.0</ele><time>2026-04-04T08:50:53.951Z</time></trkpt><trkpt lat="44.4004607" lon="10.4760301"><ele>430.0</ele><time>2026-04-04T08:50:54.951Z</time></trkpt><trkpt lat="44.4005232" lon="10.4760512"><ele>430.00000000000006</ele><time>2026-04-04T08:50:55.951Z</time></trkpt><trkpt lat="44.4006124" lon="10.4760084"><ele>430.0</ele><time>2026-04-04T08:50:56.951Z</time></trkpt><trkpt lat="44.4006636" lon="10.4759173"><ele>426.8</ele><time>2026-04-04T08:50:57.951Z</time></trkpt><trkpt lat="44.4006626" lon="10.4758057"><ele>423.6</ele><time>2026-04-04T08:50:58.951Z</time></trkpt><trkpt lat="44.4006315" lon="10.4756775"><ele>420.4</ele><time>2026-04-04T08:50:59.95Z</time></trkpt><trkpt lat="44.4005827" lon="10.4755414"><ele>417.2</ele><time>2026-04-04T08:51:00.951Z</time></trkpt><trkpt lat="44.4005341" lon="10.4753943"><ele>414.0</ele><time>2026-04-04T08:51:01.951Z</time></trkpt><trkpt lat="44.4004823" lon="10.4752536"><ele>414.0</ele><time>2026-04-04T08:51:02.951Z</time></trkpt><trkpt lat="44.4004392" lon="10.4751104"><ele>414.0</ele><time>2026-04-04T08:51:03.95Z</time></trkpt><trkpt lat="44.4003884" lon="10.474973"><ele>414.0</ele><time>2026-04-04T08:51:04.95Z</time></trkpt><trkpt lat="44.4003345" lon="10.4748485"><ele>414.0</ele><time>2026-04-04T08:51:05.95Z</time></trkpt><trkpt lat="44.4002706" lon="10.4747356"><ele>414.0</ele><time>2026-04-04T08:51:06.951Z</time></trkpt><trkpt lat="44.4002341" lon="10.4746025"><ele>412.6</ele><time>2026-04-04T08:51:07.951Z</time></trkpt><trkpt lat="44.4002336" lon="10.4744873"><ele>411.2</ele><time>2026-04-04T08:51:08.95Z</time></trkpt><trkpt lat="44.4002546" lon="10.4743796"><ele>409.8</ele><time>2026-04-04T08:51:09.95Z</time></trkpt><trkpt lat="44.4002734" lon="10.4742563"><ele>408.40000000000003</ele><time>2026-04-04T08:51:10.95Z</time></trkpt><trkpt lat="44.4002748" lon="10.4741176"><ele>407.0</ele><time>2026-04-04T08:51:11.95Z</time></trkpt><trkpt lat="44.4002561" lon="10.4739735"><ele>407.0</ele><time>2026-04-04T08:51:12.95Z</time></trkpt><trkpt lat="44.4002373" lon="10.4738184"><ele>407.0</ele><time>2026-04-04T08:51:13.951Z</time></trkpt><trkpt lat="44.4002333" lon="10.4736428"><ele>407.0</ele><time>2026-04-04T08:51:14.951Z</time></trkpt><trkpt lat="44.4002522" lon="10.4734598"><ele>407.0</ele><time>2026-04-04T08:51:15.95Z</time></trkpt><trkpt lat="44.4002902" lon="10.4732661"><ele>405.3333333333333</ele><time>2026-04-04T08:51:16.951Z</time></trkpt><trkpt lat="44.4003393" lon="10.4730723"><ele>403.66666666666663</ele><time>2026-04-04T08:51:17.95Z</time></trkpt><trkpt lat="44.4003955" lon="10.4728737"><ele>402.0</ele><time>2026-04-04T08:51:18.95Z</time></trkpt><trkpt lat="44.400458" lon="10.4726777"><ele>397.33333333333337</ele><time>2026-04-04T08:51:19.951Z</time></trkpt><trkpt lat="44.4005241" lon="10.4724754"><ele>392.6666666666667</ele><time>2026-04-04T08:51:20.95Z</time></trkpt><trkpt lat="44.4005872" lon="10.472276"><ele>388.0</ele><time>2026-04-04T08:51:21.95Z</time></trkpt><trkpt lat="44.4006501" lon="10.4720886"><ele>388.0</ele><time>2026-04-04T08:51:22.951Z</time></trkpt><trkpt lat="44.4007132" lon="10.4719094"><ele>388.0</ele><time>2026-04-04T08:51:23.95Z</time></trkpt><trkpt lat="44.4007728" lon="10.4717346"><ele>388.0</ele><time>2026-04-04T08:51:24.951Z</time></trkpt><trkpt lat="44.4008311" lon="10.4715552"><ele>388.0</ele><time>2026-04-04T08:51:25.95Z</time></trkpt><trkpt lat="44.4008904" lon="10.4713761"><ele>389.25</ele><time>2026-04-04T08:51:26.95Z</time></trkpt><trkpt lat="44.4009507" lon="10.4711966"><ele>390.5</ele><time>2026-04-04T08:51:27.951Z</time></trkpt><trkpt lat="44.4010138" lon="10.4710223"><ele>391.75</ele><time>2026-04-04T08:51:28.951Z</time></trkpt><trkpt lat="44.4010742" lon="10.4708412"><ele>393.0</ele><time>2026-04-04T08:51:29.951Z</time></trkpt><trkpt lat="44.401133" lon="10.4706635"><ele>393.0</ele><time>2026-04-04T08:51:30.951Z</time></trkpt><trkpt lat="44.4011902" lon="10.4704911"><ele>393.0</ele><time>2026-04-04T08:51:31.95Z</time></trkpt><trkpt lat="44.4012461" lon="10.4703173"><ele>393.0</ele><time>2026-04-04T08:51:32.951Z</time></trkpt><trkpt lat="44.4013043" lon="10.4701398"><ele>393.0</ele><time>2026-04-04T08:51:33.951Z</time></trkpt><trkpt lat="44.4013657" lon="10.4699645"><ele>393.75</ele><time>2026-04-04T08:51:34.95Z</time></trkpt><trkpt lat="44.4014248" lon="10.4697872"><ele>394.5</ele><time>2026-04-04T08:51:35.95Z</time></trkpt><trkpt lat="44.4014893" lon="10.4695985"><ele>395.25</ele><time>2026-04-04T08:51:36.951Z</time></trkpt><trkpt lat="44.4015521" lon="10.4693983"><ele>396.0</ele><time>2026-04-04T08:51:37.95Z</time></trkpt><trkpt lat="44.401615" lon="10.4691922"><ele>396.5</ele><time>2026-04-04T08:51:38.951Z</time></trkpt><trkpt lat="44.4016757" lon="10.4689958"><ele>397.0</ele><time>2026-04-04T08:51:39.951Z</time></trkpt><trkpt lat="44.4017323" lon="10.4688065"><ele>397.5</ele><time>2026-04-04T08:51:40.95Z</time></trkpt><trkpt lat="44.4017755" lon="10.4686096"><ele>398.0</ele><time>2026-04-04T08:51:41.95Z</time></trkpt><trkpt lat="44.4017967" lon="10.468406"><ele>398.25</ele><time>2026-04-04T08:51:42.95Z</time></trkpt><trkpt lat="44.4017951" lon="10.4682112"><ele>398.5</ele><time>2026-04-04T08:51:43.951Z</time></trkpt><trkpt lat="44.401778" lon="10.4680416"><ele>398.75</ele><time>2026-04-04T08:51:44.95Z</time></trkpt><trkpt lat="44.4017618" lon="10.4678802"><ele>399.0</ele><time>2026-04-04T08:51:45.951Z</time></trkpt><trkpt lat="44.4017581" lon="10.4677342"><ele>399.0</ele><time>2026-04-04T08:51:46.951Z</time></trkpt><trkpt lat="44.4017624" lon="10.4675922"><ele>399.0</ele><time>2026-04-04T08:51:47.951Z</time></trkpt><trkpt lat="44.4017762" lon="10.4674501"><ele>399.0</ele><time>2026-04-04T08:51:48.95Z</time></trkpt><trkpt lat="44.4018208" lon="10.467316"><ele>399.0</ele><time>2026-04-04T08:51:49.95Z</time></trkpt><trkpt lat="44.4018919" lon="10.4671772"><ele>399.0</ele><time>2026-04-04T08:51:50.951Z</time></trkpt><trkpt lat="44.4019917" lon="10.4670586"><ele>397.5</ele><time>2026-04-04T08:51:51.95Z</time></trkpt><trkpt lat="44.4021" lon="10.4669558"><ele>396.0</ele><time>2026-04-04T08:51:52.951Z</time></trkpt><trkpt lat="44.4022111" lon="10.4668552"><ele>394.5</ele><time>2026-04-04T08:51:53.951Z</time></trkpt><trkpt lat="44.4023273" lon="10.4667464"><ele>393.0</ele><time>2026-04-04T08:51:54.95Z</time></trkpt><trkpt lat="44.4024429" lon="10.466634"><ele>390.75</ele><time>2026-04-04T08:51:55.951Z</time></trkpt><trkpt lat="44.4025626" lon="10.4665193"><ele>388.5</ele><time>2026-04-04T08:51:56.95Z</time></trkpt><trkpt lat="44.4026848" lon="10.4664025"><ele>386.25</ele><time>2026-04-04T08:51:57.951Z</time></trkpt><trkpt lat="44.4028117" lon="10.4662881"><ele>384.0</ele><time>2026-04-04T08:51:58.951Z</time></trkpt><trkpt lat="44.4029446" lon="10.4661714"><ele>384.0</ele><time>2026-04-04T08:51:59.951Z</time></trkpt><trkpt lat="44.4030745" lon="10.4660481"><ele>384.0</ele><time>2026-04-04T08:52:00.951Z</time></trkpt><trkpt lat="44.4032058" lon="10.4659246"><ele>384.0</ele><time>2026-04-04T08:52:01.951Z</time></trkpt><trkpt lat="44.4033377" lon="10.4658161"><ele>384.0</ele><time>2026-04-04T08:52:02.95Z</time></trkpt><trkpt lat="44.4034749" lon="10.4657305"><ele>384.0</ele><time>2026-04-04T08:52:03.95Z</time></trkpt><trkpt lat="44.4036117" lon="10.4656789"><ele>384.0</ele><time>2026-04-04T08:52:04.951Z</time></trkpt><trkpt lat="44.4037516" lon="10.4656607"><ele>384.0</ele><time>2026-04-04T08:52:05.951Z</time></trkpt><trkpt lat="44.4038887" lon="10.4656572"><ele>386.75</ele><time>2026-04-04T08:52:06.951Z</time></trkpt><trkpt lat="44.4040312" lon="10.4656558"><ele>389.5</ele><time>2026-04-04T08:52:07.951Z</time></trkpt><trkpt lat="44.4041688" lon="10.4656713"><ele>392.25</ele><time>2026-04-04T08:52:08.95Z</time></trkpt><trkpt lat="44.404293" lon="10.46573"><ele>395.0</ele><time>2026-04-04T08:52:09.951Z</time></trkpt><trkpt lat="44.4044058" lon="10.4658267"><ele>395.0</ele><time>2026-04-04T08:52:10.951Z</time></trkpt><trkpt lat="44.4045162" lon="10.465944"><ele>395.0</ele><time>2026-04-04T08:52:11.951Z</time></trkpt><trkpt lat="44.4046319" lon="10.4660674"><ele>395.0</ele><time>2026-04-04T08:52:12.951Z</time></trkpt><trkpt lat="44.4047503" lon="10.4661854"><ele>395.0</ele><time>2026-04-04T08:52:13.951Z</time></trkpt><trkpt lat="44.4048553" lon="10.4662972"><ele>393.5</ele><time>2026-04-04T08:52:14.951Z</time></trkpt><trkpt lat="44.4049666" lon="10.4663939"><ele>392.0</ele><time>2026-04-04T08:52:15.95Z</time></trkpt><trkpt lat="44.4050761" lon="10.4664678"><ele>390.5</ele><time>2026-04-04T08:52:16.95Z</time></trkpt><trkpt lat="44.405196" lon="10.466505"><ele>389.0</ele><time>2026-04-04T08:52:17.951Z</time></trkpt><trkpt lat="44.4053266" lon="10.4664938"><ele>389.0</ele><time>2026-04-04T08:52:18.95Z</time></trkpt><trkpt lat="44.4054521" lon="10.4664415"><ele>389.0</ele><time>2026-04-04T08:52:19.951Z</time></trkpt><trkpt lat="44.4055783" lon="10.4663686"><ele>389.0</ele><time>2026-04-04T08:52:20.951Z</time></trkpt><trkpt lat="44.4057083" lon="10.466289"><ele>389.0</ele><time>2026-04-04T08:52:21.95Z</time></trkpt><trkpt lat="44.4058401" lon="10.4662153"><ele>392.0</ele><time>2026-04-04T08:52:22.951Z</time></trkpt><trkpt lat="44.4059779" lon="10.4661409"><ele>395.0</ele><time>2026-04-04T08:52:23.951Z</time></trkpt><trkpt lat="44.4061176" lon="10.4660727"><ele>398.0</ele><time>2026-04-04T08:52:24.951Z</time></trkpt><trkpt lat="44.4062556" lon="10.4660028"><ele>401.0</ele><time>2026-04-04T08:52:25.951Z</time></trkpt><trkpt lat="44.4063912" lon="10.4659341"><ele>401.0</ele><time>2026-04-04T08:52:26.95Z</time></trkpt><trkpt lat="44.4065337" lon="10.4658786"><ele>401.0</ele><time>2026-04-04T08:52:27.95Z</time></trkpt><trkpt lat="44.4066662" lon="10.4658229"><ele>401.0</ele><time>2026-04-04T08:52:28.95Z</time></trkpt><trkpt lat="44.4067949" lon="10.4657684"><ele>401.0</ele><time>2026-04-04T08:52:29.95Z</time></trkpt><trkpt lat="44.4069294" lon="10.4657284"><ele>401.0</ele><time>2026-04-04T08:52:30.951Z</time></trkpt><trkpt lat="44.4070586" lon="10.4657133"><ele>401.0</ele><time>2026-04-04T08:52:31.949Z</time></trkpt><trkpt lat="44.4071863" lon="10.4656973"><ele>401.0</ele><time>2026-04-04T08:52:32.949Z</time></trkpt><trkpt lat="44.407309" lon="10.4656549"><ele>401.0</ele><time>2026-04-04T08:52:33.95Z</time></trkpt><trkpt lat="44.4074217" lon="10.4655741"><ele>402.25</ele><time>2026-04-04T08:52:34.95Z</time></trkpt><trkpt lat="44.4075295" lon="10.4654664"><ele>403.5</ele><time>2026-04-04T08:52:35.95Z</time></trkpt><trkpt lat="44.4076412" lon="10.4653688"><ele>404.75</ele><time>2026-04-04T08:52:36.95Z</time></trkpt><trkpt lat="44.4077607" lon="10.4652716"><ele>406.0</ele><time>2026-04-04T08:52:37.95Z</time></trkpt><trkpt lat="44.4078786" lon="10.465163"><ele>402.0</ele><time>2026-04-04T08:52:38.95Z</time></trkpt><trkpt lat="44.4079996" lon="10.4650411"><ele>398.0</ele><time>2026-04-04T08:52:39.95Z</time></trkpt><trkpt lat="44.4081172" lon="10.46491"><ele>394.0</ele><time>2026-04-04T08:52:40.95Z</time></trkpt><trkpt lat="44.408232" lon="10.4647693"><ele>394.0</ele><time>2026-04-04T08:52:41.949Z</time></trkpt><trkpt lat="44.4083525" lon="10.4646364"><ele>394.0</ele><time>2026-04-04T08:52:42.95Z</time></trkpt><trkpt lat="44.4084695" lon="10.4644935"><ele>394.0</ele><time>2026-04-04T08:52:43.95Z</time></trkpt><trkpt lat="44.4085774" lon="10.4643503"><ele>395.5</ele><time>2026-04-04T08:52:44.95Z</time></trkpt><trkpt lat="44.4086856" lon="10.4642303"><ele>397.0</ele><time>2026-04-04T08:52:45.949Z</time></trkpt><trkpt lat="44.4088059" lon="10.4641329"><ele>398.5</ele><time>2026-04-04T08:52:46.949Z</time></trkpt><trkpt lat="44.4089433" lon="10.4640726"><ele>400.0</ele><time>2026-04-04T08:52:47.949Z</time></trkpt><trkpt lat="44.4090843" lon="10.4640527"><ele>400.0</ele><time>2026-04-04T08:52:48.95Z</time></trkpt><trkpt lat="44.4092263" lon="10.4640288"><ele>400.0</ele><time>2026-04-04T08:52:49.95Z</time></trkpt><trkpt lat="44.4093698" lon="10.4639789"><ele>400.0</ele><time>2026-04-04T08:52:50.949Z</time></trkpt><trkpt lat="44.4095095" lon="10.4638999"><ele>400.0</ele><time>2026-04-04T08:52:51.95Z</time></trkpt><trkpt lat="44.409651" lon="10.4638034"><ele>401.5</ele><time>2026-04-04T08:52:52.949Z</time></trkpt><trkpt lat="44.4097884" lon="10.463703"><ele>403.0</ele><time>2026-04-04T08:52:53.95Z</time></trkpt><trkpt lat="44.4099185" lon="10.4636103"><ele>404.5</ele><time>2026-04-04T08:52:54.95Z</time></trkpt><trkpt lat="44.4100413" lon="10.4635182"><ele>406.0</ele><time>2026-04-04T08:52:55.95Z</time></trkpt><trkpt lat="44.4101538" lon="10.4634288"><ele>406.00000000000006</ele><time>2026-04-04T08:52:56.95Z</time></trkpt><trkpt lat="44.4102478" lon="10.4633353"><ele>406.0</ele><time>2026-04-04T08:52:57.95Z</time></trkpt><trkpt lat="44.4103193" lon="10.4632411"><ele>406.0</ele><time>2026-04-04T08:52:58.949Z</time></trkpt><trkpt lat="44.4103774" lon="10.4631691"><ele>406.0</ele><time>2026-04-04T08:52:59.95Z</time></trkpt><trkpt lat="44.4104356" lon="10.4630939"><ele>406.00000000000006</ele><time>2026-04-04T08:53:01.949Z</time></trkpt><trkpt lat="44.4104967" lon="10.4630322"><ele>406.0</ele><time>2026-04-04T08:53:04.95Z</time></trkpt><trkpt lat="44.4105849" lon="10.4630175"><ele>406.00000000000006</ele><time>2026-04-04T08:53:39.951Z</time></trkpt><trkpt lat="44.4106092" lon="10.4628767"><ele>406.0</ele><time>2026-04-04T08:59:39.95Z</time></trkpt><trkpt lat="44.4105386" lon="10.4628648"><ele>406.0</ele><time>2026-04-04T08:59:41.95Z</time></trkpt><trkpt lat="44.4104829" lon="10.4629168"><ele>406.0</ele><time>2026-04-04T08:59:42.95Z</time></trkpt><trkpt lat="44.4104265" lon="10.4630027"><ele>406.00000000000006</ele><time>2026-04-04T08:59:43.95Z</time></trkpt><trkpt lat="44.4103647" lon="10.4631011"><ele>406.0</ele><time>2026-04-04T08:59:44.949Z</time></trkpt><trkpt lat="44.4102906" lon="10.4631968"><ele>406.0</ele><time>2026-04-04T08:59:45.95Z</time></trkpt><trkpt lat="44.410208" lon="10.4632973"><ele>406.0</ele><time>2026-04-04T08:59:46.95Z</time></trkpt><trkpt lat="44.4101156" lon="10.4633838"><ele>406.0</ele><time>2026-04-04T08:59:47.949Z</time></trkpt><trkpt lat="44.410028" lon="10.4634561"><ele>406.0</ele><time>2026-04-04T08:59:48.95Z</time></trkpt><trkpt lat="44.4099329" lon="10.4635275"><ele>406.0</ele><time>2026-04-04T08:59:49.95Z</time></trkpt><trkpt lat="44.409837" lon="10.4635997"><ele>406.0</ele><time>2026-04-04T08:59:50.95Z</time></trkpt><trkpt lat="44.409736" lon="10.4636735"><ele>406.0</ele><time>2026-04-04T08:59:51.949Z</time></trkpt><trkpt lat="44.4096287" lon="10.4637508"><ele>406.0</ele><time>2026-04-04T08:59:52.949Z</time></trkpt><trkpt lat="44.4095121" lon="10.4638227"><ele>406.0</ele><time>2026-04-04T08:59:53.95Z</time></trkpt><trkpt lat="44.4093912" lon="10.4638914"><ele>404.5</ele><time>2026-04-04T08:59:54.949Z</time></trkpt><trkpt lat="44.4092672" lon="10.4639476"><ele>403.0</ele><time>2026-04-04T08:59:55.949Z</time></trkpt><trkpt lat="44.4091443" lon="10.4639728"><ele>401.5</ele><time>2026-04-04T08:59:56.95Z</time></trkpt><trkpt lat="44.4090174" lon="10.4639932"><ele>400.0</ele><time>2026-04-04T08:59:57.95Z</time></trkpt><trkpt lat="44.4088895" lon="10.4640351"><ele>401.5</ele><time>2026-04-04T08:59:58.95Z</time></trkpt><trkpt lat="44.4087636" lon="10.4641009"><ele>403.0</ele><time>2026-04-04T08:59:59.949Z</time></trkpt><trkpt lat="44.4086604" lon="10.4641802"><ele>404.5</ele><time>2026-04-04T09:00:00.95Z</time></trkpt><trkpt lat="44.4085642" lon="10.4642766"><ele>406.0</ele><time>2026-04-04T09:00:01.95Z</time></trkpt><trkpt lat="44.4084842" lon="10.4643775"><ele>406.0</ele><time>2026-04-04T09:00:02.95Z</time></trkpt><trkpt lat="44.408415" lon="10.4644804"><ele>406.0</ele><time>2026-04-04T09:00:03.949Z</time></trkpt><trkpt lat="44.4083456" lon="10.4645649"><ele>406.0</ele><time>2026-04-04T09:00:04.949Z</time></trkpt><trkpt lat="44.4082811" lon="10.4646436"><ele>406.0</ele><time>2026-04-04T09:00:05.949Z</time></trkpt><trkpt lat="44.4082156" lon="10.4647305"><ele>406.0</ele><time>2026-04-04T09:00:06.95Z</time></trkpt><trkpt lat="44.4081467" lon="10.4648328"><ele>406.0</ele><time>2026-04-04T09:00:07.95Z</time></trkpt><trkpt lat="44.408072" lon="10.4649421"><ele>406.0</ele><time>2026-04-04T09:00:08.95Z</time></trkpt><trkpt lat="44.4079867" lon="10.4650464"><ele>406.0</ele><time>2026-04-04T09:00:09.95Z</time></trkpt><trkpt lat="44.4078956" lon="10.4651416"><ele>406.0</ele><time>2026-04-04T09:00:10.95Z</time></trkpt><trkpt lat="44.407804" lon="10.4652312"><ele>406.0</ele><time>2026-04-04T09:00:11.95Z</time></trkpt><trkpt lat="44.4077119" lon="10.465312"><ele>406.0</ele><time>2026-04-04T09:00:12.949Z</time></trkpt><trkpt lat="44.4076234" lon="10.4653826"><ele>406.0</ele><time>2026-04-04T09:00:13.949Z</time></trkpt><trkpt lat="44.4075465" lon="10.4654541"><ele>406.0</ele><time>2026-04-04T09:00:14.949Z</time></trkpt><trkpt lat="44.4074616" lon="10.4655117"><ele>406.0</ele><time>2026-04-04T09:00:15.949Z</time></trkpt><trkpt lat="44.4073788" lon="10.4655866"><ele>406.0</ele><time>2026-04-04T09:00:16.949Z</time></trkpt><trkpt lat="44.4072765" lon="10.465639"><ele>404.75</ele><time>2026-04-04T09:00:17.949Z</time></trkpt><trkpt lat="44.4071558" lon="10.46565"><ele>403.5</ele><time>2026-04-04T09:00:18.949Z</time></trkpt><trkpt lat="44.4070221" lon="10.4656669"><ele>402.25</ele><time>2026-04-04T09:00:19.949Z</time></trkpt><trkpt lat="44.4068632" lon="10.4657296"><ele>401.0</ele><time>2026-04-04T09:00:20.949Z</time></trkpt><trkpt lat="44.4066962" lon="10.4658105"><ele>401.0</ele><time>2026-04-04T09:00:21.949Z</time></trkpt><trkpt lat="44.406512" lon="10.4658893"><ele>401.0</ele><time>2026-04-04T09:00:22.948Z</time></trkpt><trkpt lat="44.406309" lon="10.4659626"><ele>401.0</ele><time>2026-04-04T09:00:23.949Z</time></trkpt><trkpt lat="44.406106" lon="10.4660385"><ele>402.3333333333333</ele><time>2026-04-04T09:00:24.949Z</time></trkpt><trkpt lat="44.4059172" lon="10.4661356"><ele>403.66666666666663</ele><time>2026-04-04T09:00:25.948Z</time></trkpt><trkpt lat="44.4057423" lon="10.4662524"><ele>405.0</ele><time>2026-04-04T09:00:26.949Z</time></trkpt><trkpt lat="44.4055841" lon="10.4663483"><ele>401.0</ele><time>2026-04-04T09:00:27.949Z</time></trkpt><trkpt lat="44.4054389" lon="10.4664115"><ele>397.0</ele><time>2026-04-04T09:00:28.949Z</time></trkpt><trkpt lat="44.4052945" lon="10.4664403"><ele>393.0</ele><time>2026-04-04T09:00:29.948Z</time></trkpt><trkpt lat="44.40516" lon="10.4664388"><ele>389.0</ele><time>2026-04-04T09:00:30.949Z</time></trkpt><trkpt lat="44.4050326" lon="10.466377"><ele>391.0</ele><time>2026-04-04T09:00:31.949Z</time></trkpt><trkpt lat="44.4049035" lon="10.4662641"><ele>393.0</ele><time>2026-04-04T09:00:32.949Z</time></trkpt><trkpt lat="44.4047744" lon="10.4661269"><ele>395.0</ele><time>2026-04-04T09:00:33.948Z</time></trkpt><trkpt lat="44.4046481" lon="10.4659862"><ele>395.0</ele><time>2026-04-04T09:00:34.949Z</time></trkpt><trkpt lat="44.4045252" lon="10.4658518"><ele>395.0</ele><time>2026-04-04T09:00:35.948Z</time></trkpt><trkpt lat="44.4044038" lon="10.4657298"><ele>395.0</ele><time>2026-04-04T09:00:36.948Z</time></trkpt><trkpt lat="44.4042831" lon="10.4656503"><ele>395.0</ele><time>2026-04-04T09:00:37.949Z</time></trkpt><trkpt lat="44.4041502" lon="10.4656124"><ele>395.0</ele><time>2026-04-04T09:00:38.948Z</time></trkpt><trkpt lat="44.4040123" lon="10.4656012"><ele>395.0</ele><time>2026-04-04T09:00:39.949Z</time></trkpt><trkpt lat="44.403858" lon="10.4655956"><ele>395.0</ele><time>2026-04-04T09:00:40.948Z</time></trkpt><trkpt lat="44.4037061" lon="10.4656125"><ele>395.0</ele><time>2026-04-04T09:00:41.948Z</time></trkpt><trkpt lat="44.4035571" lon="10.4656513"><ele>391.3333333333333</ele><time>2026-04-04T09:00:42.948Z</time></trkpt><trkpt lat="44.4034138" lon="10.465728"><ele>387.66666666666663</ele><time>2026-04-04T09:00:43.948Z</time></trkpt><trkpt lat="44.4032739" lon="10.4658305"><ele>384.0</ele><time>2026-04-04T09:00:44.949Z</time></trkpt><trkpt lat="44.4031393" lon="10.4659461"><ele>384.0</ele><time>2026-04-04T09:00:45.949Z</time></trkpt><trkpt lat="44.4030051" lon="10.4660632"><ele>384.0</ele><time>2026-04-04T09:00:46.949Z</time></trkpt><trkpt lat="44.4028752" lon="10.4661811"><ele>384.0</ele><time>2026-04-04T09:00:47.949Z</time></trkpt><trkpt lat="44.4027386" lon="10.4662895"><ele>384.0</ele><time>2026-04-04T09:00:48.949Z</time></trkpt><trkpt lat="44.4026045" lon="10.4664051"><ele>384.0</ele><time>2026-04-04T09:00:49.949Z</time></trkpt><trkpt lat="44.4024729" lon="10.4665174"><ele>384.0</ele><time>2026-04-04T09:00:50.949Z</time></trkpt><trkpt lat="44.402345" lon="10.4666354"><ele>384.0</ele><time>2026-04-04T09:00:51.949Z</time></trkpt><trkpt lat="44.4022186" lon="10.4667495"><ele>384.0</ele><time>2026-04-04T09:00:52.949Z</time></trkpt><trkpt lat="44.4020978" lon="10.4668524"><ele>384.0</ele><time>2026-04-04T09:00:53.948Z</time></trkpt><trkpt lat="44.4019837" lon="10.4669606"><ele>384.0</ele><time>2026-04-04T09:00:54.949Z</time></trkpt><trkpt lat="44.4018906" lon="10.467062"><ele>387.0</ele><time>2026-04-04T09:00:55.949Z</time></trkpt><trkpt lat="44.4018236" lon="10.4671785"><ele>390.0</ele><time>2026-04-04T09:00:56.948Z</time></trkpt><trkpt lat="44.4017795" lon="10.4672955"><ele>393.0</ele><time>2026-04-04T09:00:57.949Z</time></trkpt><trkpt lat="44.4017402" lon="10.467384"><ele>396.0</ele><time>2026-04-04T09:00:58.949Z</time></trkpt><trkpt lat="44.4016329" lon="10.4673632"><ele>399.0</ele><time>2026-04-04T09:01:00.949Z</time></trkpt><trkpt lat="44.4015825" lon="10.467277"><ele>399.0</ele><time>2026-04-04T09:01:01.948Z</time></trkpt><trkpt lat="44.4015232" lon="10.4671703"><ele>399.0</ele><time>2026-04-04T09:01:02.949Z</time></trkpt><trkpt lat="44.4014612" lon="10.4670424"><ele>399.0</ele><time>2026-04-04T09:01:03.949Z</time></trkpt><trkpt lat="44.4013832" lon="10.4669008"><ele>399.0</ele><time>2026-04-04T09:01:04.949Z</time></trkpt><trkpt lat="44.4013138" lon="10.4667579"><ele>400.6</ele><time>2026-04-04T09:01:05.949Z</time></trkpt><trkpt lat="44.4012603" lon="10.4666149"><ele>402.2</ele><time>2026-04-04T09:01:06.949Z</time></trkpt><trkpt lat="44.4012293" lon="10.4664699"><ele>403.8</ele><time>2026-04-04T09:01:07.949Z</time></trkpt><trkpt lat="44.4012172" lon="10.4663365"><ele>405.40000000000003</ele><time>2026-04-04T09:01:08.948Z</time></trkpt><trkpt lat="44.401229" lon="10.4662242"><ele>407.0</ele><time>2026-04-04T09:01:09.949Z</time></trkpt><trkpt lat="44.401208" lon="10.4660584"><ele>407.0</ele><time>2026-04-04T09:01:11.949Z</time></trkpt><trkpt lat="44.4011628" lon="10.4658811"><ele>407.0</ele><time>2026-04-04T09:01:13.948Z</time></trkpt><trkpt lat="44.4011371" lon="10.46578"><ele>407.0</ele><time>2026-04-04T09:01:14.949Z</time></trkpt><trkpt lat="44.401101" lon="10.4656748"><ele>407.0</ele><time>2026-04-04T09:01:15.948Z</time></trkpt><trkpt lat="44.4010596" lon="10.4655653"><ele>407.0</ele><time>2026-04-04T09:01:16.949Z</time></trkpt><trkpt lat="44.4010168" lon="10.4654596"><ele>405.16666666666663</ele><time>2026-04-04T09:01:17.949Z</time></trkpt><trkpt lat="44.4009708" lon="10.4653519"><ele>403.3333333333333</ele><time>2026-04-04T09:01:18.948Z</time></trkpt><trkpt lat="44.4009196" lon="10.4652497"><ele>401.5</ele><time>2026-04-04T09:01:19.948Z</time></trkpt><trkpt lat="44.4008696" lon="10.4651831"><ele>399.66666666666663</ele><time>2026-04-04T09:01:20.949Z</time></trkpt><trkpt lat="44.4007889" lon="10.4651086"><ele>397.8333333333333</ele><time>2026-04-04T09:01:22.948Z</time></trkpt><trkpt lat="44.4007186" lon="10.4651582"><ele>396.0</ele><time>2026-04-04T09:01:25.949Z</time></trkpt><trkpt lat="44.4007797" lon="10.4652474"><ele>396.0</ele><time>2026-04-04T09:01:27.949Z</time></trkpt><trkpt lat="44.4008656" lon="10.4653505"><ele>396.0</ele><time>2026-04-04T09:01:29.949Z</time></trkpt><trkpt lat="44.4008996" lon="10.4655218"><ele>396.0</ele><time>2026-04-04T09:01:31.949Z</time></trkpt><trkpt lat="44.4009271" lon="10.465635"><ele>396.0</ele><time>2026-04-04T09:01:33.949Z</time></trkpt><trkpt lat="44.4009244" lon="10.4657451"><ele>396.0</ele><time>2026-04-04T09:04:18.949Z</time></trkpt><trkpt lat="44.4009096" lon="10.4658316"><ele>397.8333333333333</ele><time>2026-04-04T09:04:19.949Z</time></trkpt><trkpt lat="44.4008771" lon="10.465921"><ele>399.66666666666663</ele><time>2026-04-04T09:04:20.948Z</time></trkpt><trkpt lat="44.4008319" lon="10.4660209"><ele>401.5</ele><time>2026-04-04T09:04:21.948Z</time></trkpt><trkpt lat="44.4007891" lon="10.4661222"><ele>403.3333333333333</ele><time>2026-04-04T09:04:22.948Z</time></trkpt><trkpt lat="44.4007458" lon="10.466204"><ele>405.16666666666663</ele><time>2026-04-04T09:04:23.949Z</time></trkpt><trkpt lat="44.4006955" lon="10.4662763"><ele>407.0</ele><time>2026-04-04T09:04:24.948Z</time></trkpt><trkpt lat="44.4006302" lon="10.4663351"><ele>407.99999999999994</ele><time>2026-04-04T09:04:25.948Z</time></trkpt><trkpt lat="44.4005633" lon="10.4663921"><ele>409.0</ele><time>2026-04-04T09:04:26.949Z</time></trkpt><trkpt lat="44.400497" lon="10.4664512"><ele>410.0</ele><time>2026-04-04T09:04:27.949Z</time></trkpt><trkpt lat="44.4004412" lon="10.4665218"><ele>411.0</ele><time>2026-04-04T09:04:28.948Z</time></trkpt><trkpt lat="44.4003755" lon="10.4666056"><ele>411.99999999999994</ele><time>2026-04-04T09:04:29.949Z</time></trkpt><trkpt lat="44.4003146" lon="10.4666749"><ele>413.0</ele><time>2026-04-04T09:04:30.949Z</time></trkpt><trkpt lat="44.4002166" lon="10.4667705"><ele>417.79999999999995</ele><time>2026-04-04T09:04:32.948Z</time></trkpt><trkpt lat="44.4001688" lon="10.4668722"><ele>422.6</ele><time>2026-04-04T09:04:34.948Z</time></trkpt><trkpt lat="44.4001891" lon="10.4670051"><ele>427.40000000000003</ele><time>2026-04-04T09:06:22.949Z</time></trkpt><trkpt lat="44.4002228" lon="10.4671136"><ele>432.20000000000005</ele><time>2026-04-04T09:06:24.949Z</time></trkpt><trkpt lat="44.4003041" lon="10.4671743"><ele>437.0</ele><time>2026-04-04T09:06:26.948Z</time></trkpt><trkpt lat="44.400374" lon="10.4672581"><ele>437.40000000000003</ele><time>2026-04-04T09:06:28.949Z</time></trkpt><trkpt lat="44.400365" lon="10.4673723"><ele>437.80000000000007</ele><time>2026-04-04T09:06:30.948Z</time></trkpt><trkpt lat="44.4003281" lon="10.4675095"><ele>438.2</ele><time>2026-04-04T09:06:32.948Z</time></trkpt><trkpt lat="44.4003109" lon="10.4676324"><ele>438.6</ele><time>2026-04-04T09:06:34.949Z</time></trkpt><trkpt lat="44.4002955" lon="10.4677527"><ele>439.0</ele><time>2026-04-04T09:06:36.949Z</time></trkpt><trkpt lat="44.4002742" lon="10.4678716"><ele>438.83333333333337</ele><time>2026-04-04T09:06:38.949Z</time></trkpt><trkpt lat="44.4002748" lon="10.4679685"><ele>438.6666666666667</ele><time>2026-04-04T09:06:41.948Z</time></trkpt><trkpt lat="44.4001984" lon="10.4679722"><ele>438.5</ele><time>2026-04-04T09:06:45.948Z</time></trkpt><trkpt lat="44.4001226" lon="10.4679793"><ele>438.33333333333337</ele><time>2026-04-04T09:06:47.948Z</time></trkpt><trkpt lat="44.4000559" lon="10.4680238"><ele>438.1666666666667</ele><time>2026-04-04T09:06:48.949Z</time></trkpt><trkpt lat="44.3999367" lon="10.4680864"><ele>438.0</ele><time>2026-04-04T09:06:50.949Z</time></trkpt><trkpt lat="44.399877" lon="10.4681157"><ele>438.0</ele><time>2026-04-04T09:06:51.948Z</time></trkpt><trkpt lat="44.3998189" lon="10.4681553"><ele>437.99999999999994</ele><time>2026-04-04T09:06:52.948Z</time></trkpt><trkpt lat="44.3997112" lon="10.4682286"><ele>437.99999999999994</ele><time>2026-04-04T09:06:54.949Z</time></trkpt><trkpt lat="44.3995935" lon="10.4682664"><ele>438.0</ele><time>2026-04-04T09:06:56.948Z</time></trkpt><trkpt lat="44.3995061" lon="10.4682085"><ele>438.0</ele><time>2026-04-04T09:06:58.949Z</time></trkpt><trkpt lat="44.3994402" lon="10.4681626"><ele>438.8333333333333</ele><time>2026-04-04T09:06:59.948Z</time></trkpt><trkpt lat="44.3993761" lon="10.4681208"><ele>439.66666666666663</ele><time>2026-04-04T09:07:00.949Z</time></trkpt><trkpt lat="44.3993164" lon="10.4680777"><ele>440.5</ele><time>2026-04-04T09:07:01.949Z</time></trkpt><trkpt lat="44.3992584" lon="10.4680321"><ele>441.3333333333333</ele><time>2026-04-04T09:07:02.949Z</time></trkpt><trkpt lat="44.399138" lon="10.4679788"><ele>442.16666666666663</ele><time>2026-04-04T09:07:04.949Z</time></trkpt><trkpt lat="44.3990201" lon="10.4679621"><ele>443.0</ele><time>2026-04-04T09:07:06.949Z</time></trkpt><trkpt lat="44.3989495" lon="10.4679713"><ele>443.0</ele><time>2026-04-04T09:07:07.949Z</time></trkpt><trkpt lat="44.3988869" lon="10.4679813"><ele>442.99999999999994</ele><time>2026-04-04T09:07:08.949Z</time></trkpt><trkpt lat="44.398788" lon="10.4679916"><ele>442.99999999999994</ele><time>2026-04-04T09:07:10.949Z</time></trkpt><trkpt lat="44.3986608" lon="10.4680126"><ele>443.0</ele><time>2026-04-04T09:07:12.949Z</time></trkpt><trkpt lat="44.3985856" lon="10.4680434"><ele>443.0</ele><time>2026-04-04T09:07:13.948Z</time></trkpt><trkpt lat="44.3985073" lon="10.4680869"><ele>444.0</ele><time>2026-04-04T09:07:14.948Z</time></trkpt><trkpt lat="44.3984392" lon="10.468137"><ele>444.99999999999994</ele><time>2026-04-04T09:07:15.948Z</time></trkpt><trkpt lat="44.3983793" lon="10.468175"><ele>445.99999999999994</ele><time>2026-04-04T09:07:16.948Z</time></trkpt><trkpt lat="44.3982764" lon="10.4681816"><ele>447.0</ele><time>2026-04-04T09:07:18.948Z</time></trkpt><trkpt lat="44.3981631" lon="10.4681069"><ele>448.0</ele><time>2026-04-04T09:07:20.947Z</time></trkpt><trkpt lat="44.3980828" lon="10.4679968"><ele>451.4</ele><time>2026-04-04T09:07:22.948Z</time></trkpt><trkpt lat="44.3980074" lon="10.4678696"><ele>454.79999999999995</ele><time>2026-04-04T09:07:24.948Z</time></trkpt><trkpt lat="44.3979708" lon="10.4677969"><ele>458.2</ele><time>2026-04-04T09:07:25.948Z</time></trkpt><trkpt lat="44.397874" lon="10.4677165"><ele>461.6</ele><time>2026-04-04T09:07:27.948Z</time></trkpt><trkpt lat="44.3977989" lon="10.4676525"><ele>465.0</ele><time>2026-04-04T09:07:29.948Z</time></trkpt><trkpt lat="44.397737" lon="10.4675761"><ele>465.0</ele><time>2026-04-04T09:07:31.947Z</time></trkpt><trkpt lat="44.3976855" lon="10.4674942"><ele>465.0</ele><time>2026-04-04T09:07:33.948Z</time></trkpt><trkpt lat="44.3976067" lon="10.4674393"><ele>465.0</ele><time>2026-04-04T09:07:35.947Z</time></trkpt><trkpt lat="44.3975306" lon="10.4673776"><ele>465.0</ele><time>2026-04-04T09:07:37.947Z</time></trkpt><trkpt lat="44.3974434" lon="10.467336"><ele>465.0</ele><time>2026-04-04T09:07:39.947Z</time></trkpt><trkpt lat="44.3973479" lon="10.4672963"><ele>465.0</ele><time>2026-04-04T09:07:41.948Z</time></trkpt><trkpt lat="44.3972654" lon="10.4672458"><ele>465.0</ele><time>2026-04-04T09:07:43.948Z</time></trkpt><trkpt lat="44.3971872" lon="10.467164"><ele>465.0</ele><time>2026-04-04T09:07:45.948Z</time></trkpt><trkpt lat="44.3970858" lon="10.4671477"><ele>465.0</ele><time>2026-04-04T09:07:47.948Z</time></trkpt><trkpt lat="44.39701" lon="10.4671289"><ele>465.0</ele><time>2026-04-04T09:07:49.947Z</time></trkpt><trkpt lat="44.3969508" lon="10.4670774"><ele>465.0</ele><time>2026-04-04T09:07:51.947Z</time></trkpt><trkpt lat="44.3968922" lon="10.4670145"><ele>465.0</ele><time>2026-04-04T09:07:53.947Z</time></trkpt><trkpt lat="44.3968317" lon="10.4669649"><ele>464.2</ele><time>2026-04-04T09:07:55.948Z</time></trkpt><trkpt lat="44.3967485" lon="10.467022"><ele>463.4</ele><time>2026-04-04T09:07:57.948Z</time></trkpt><trkpt lat="44.3966991" lon="10.4671626"><ele>462.6</ele><time>2026-04-04T09:07:59.947Z</time></trkpt><trkpt lat="44.3966422" lon="10.467303"><ele>461.8</ele><time>2026-04-04T09:08:01.948Z</time></trkpt><trkpt lat="44.396577" lon="10.4673874"><ele>461.0</ele><time>2026-04-04T09:08:03.948Z</time></trkpt><trkpt lat="44.396475" lon="10.4674224"><ele>461.0</ele><time>2026-04-04T09:08:05.947Z</time></trkpt><trkpt lat="44.3963762" lon="10.4674234"><ele>461.0</ele><time>2026-04-04T09:08:07.948Z</time></trkpt><trkpt lat="44.3964448" lon="10.4672982"><ele>461.0</ele><time>2026-04-04T09:08:17.947Z</time></trkpt><trkpt lat="44.3964579" lon="10.4672113"><ele>461.0</ele><time>2026-04-04T09:08:18.947Z</time></trkpt><trkpt lat="44.3964522" lon="10.4670887"><ele>461.0</ele><time>2026-04-04T09:08:19.948Z</time></trkpt><trkpt lat="44.3964371" lon="10.4669615"><ele>466.20000000000005</ele><time>2026-04-04T09:08:20.948Z</time></trkpt><trkpt lat="44.3964175" lon="10.4668335"><ele>471.40000000000003</ele><time>2026-04-04T09:08:21.948Z</time></trkpt><trkpt lat="44.3963919" lon="10.466726"><ele>476.6</ele><time>2026-04-04T09:08:22.948Z</time></trkpt><trkpt lat="44.3963117" lon="10.4666345"><ele>481.8</ele><time>2026-04-04T09:08:24.948Z</time></trkpt><trkpt lat="44.3961765" lon="10.4666576"><ele>487.0</ele><time>2026-04-04T09:08:26.948Z</time></trkpt><trkpt lat="44.3960887" lon="10.4666585"><ele>488.6</ele><time>2026-04-04T09:08:27.947Z</time></trkpt><trkpt lat="44.3960066" lon="10.4666533"><ele>490.20000000000005</ele><time>2026-04-04T09:08:28.948Z</time></trkpt><trkpt lat="44.3959281" lon="10.4666565"><ele>491.8</ele><time>2026-04-04T09:08:29.947Z</time></trkpt><trkpt lat="44.3958539" lon="10.4666483"><ele>493.4</ele><time>2026-04-04T09:08:30.948Z</time></trkpt><trkpt lat="44.3957626" lon="10.4665558"><ele>495.0</ele><time>2026-04-04T09:08:32.947Z</time></trkpt><trkpt lat="44.3958206" lon="10.4664134"><ele>495.0</ele><time>2026-04-04T09:08:34.947Z</time></trkpt><trkpt lat="44.3958858" lon="10.4663504"><ele>495.0</ele><time>2026-04-04T09:08:35.947Z</time></trkpt><trkpt lat="44.39595" lon="10.4662854"><ele>495.0</ele><time>2026-04-04T09:08:36.948Z</time></trkpt><trkpt lat="44.3960498" lon="10.466193"><ele>495.0</ele><time>2026-04-04T09:08:38.948Z</time></trkpt><trkpt lat="44.3961613" lon="10.4661122"><ele>495.0</ele><time>2026-04-04T09:08:40.948Z</time></trkpt><trkpt lat="44.3962767" lon="10.4660967"><ele>496.0</ele><time>2026-04-04T09:08:42.947Z</time></trkpt><trkpt lat="44.3963448" lon="10.4660812"><ele>497.0</ele><time>2026-04-04T09:08:44.948Z</time></trkpt><trkpt lat="44.3962868" lon="10.4660255"><ele>498.0</ele><time>2026-04-04T09:08:48.947Z</time></trkpt><trkpt lat="44.3961907" lon="10.4660247"><ele>499.0</ele><time>2026-04-04T09:08:50.948Z</time></trkpt><trkpt lat="44.3960574" lon="10.4659995"><ele>500.0</ele><time>2026-04-04T09:08:52.948Z</time></trkpt><trkpt lat="44.3959818" lon="10.4659892"><ele>501.0</ele><time>2026-04-04T09:08:53.947Z</time></trkpt><trkpt lat="44.3959068" lon="10.4659778"><ele>502.1666666666667</ele><time>2026-04-04T09:08:54.948Z</time></trkpt><trkpt lat="44.3958414" lon="10.4659688"><ele>503.33333333333337</ele><time>2026-04-04T09:08:55.947Z</time></trkpt><trkpt lat="44.3957252" lon="10.465934"><ele>504.5</ele><time>2026-04-04T09:08:57.947Z</time></trkpt><trkpt lat="44.3956683" lon="10.465886"><ele>505.6666666666667</ele><time>2026-04-04T09:08:58.947Z</time></trkpt><trkpt lat="44.3956105" lon="10.4658404"><ele>506.83333333333337</ele><time>2026-04-04T09:08:59.948Z</time></trkpt><trkpt lat="44.3955501" lon="10.465802"><ele>508.0</ele><time>2026-04-04T09:09:00.947Z</time></trkpt><trkpt lat="44.3954855" lon="10.4657693"><ele>510.83333333333337</ele><time>2026-04-04T09:09:01.948Z</time></trkpt><trkpt lat="44.3954158" lon="10.4657345"><ele>513.6666666666667</ele><time>2026-04-04T09:09:02.948Z</time></trkpt><trkpt lat="44.395338" lon="10.4657067"><ele>516.5</ele><time>2026-04-04T09:09:03.947Z</time></trkpt><trkpt lat="44.3952616" lon="10.4656831"><ele>519.3333333333334</ele><time>2026-04-04T09:09:04.947Z</time></trkpt><trkpt lat="44.3951818" lon="10.46566"><ele>522.1666666666666</ele><time>2026-04-04T09:09:05.948Z</time></trkpt><trkpt lat="44.3951054" lon="10.4656184"><ele>525.0</ele><time>2026-04-04T09:09:06.948Z</time></trkpt><trkpt lat="44.3950328" lon="10.4655668"><ele>525.0</ele><time>2026-04-04T09:09:07.948Z</time></trkpt><trkpt lat="44.3949738" lon="10.465515"><ele>525.0</ele><time>2026-04-04T09:09:08.947Z</time></trkpt><trkpt lat="44.3949169" lon="10.4654619"><ele>525.0</ele><time>2026-04-04T09:09:09.948Z</time></trkpt><trkpt lat="44.3948578" lon="10.465412"><ele>525.0</ele><time>2026-04-04T09:09:10.948Z</time></trkpt><trkpt lat="44.3948017" lon="10.4653627"><ele>525.0</ele><time>2026-04-04T09:09:11.948Z</time></trkpt><trkpt lat="44.3947103" lon="10.4652703"><ele>525.0</ele><time>2026-04-04T09:09:13.948Z</time></trkpt><trkpt lat="44.3945991" lon="10.4651947"><ele>527.7142857142857</ele><time>2026-04-04T09:09:15.948Z</time></trkpt><trkpt lat="44.3945404" lon="10.4651359"><ele>530.4285714285714</ele><time>2026-04-04T09:09:16.948Z</time></trkpt><trkpt lat="44.3944861" lon="10.4650846"><ele>533.1428571428571</ele><time>2026-04-04T09:09:17.948Z</time></trkpt><trkpt lat="44.3944323" lon="10.4650335"><ele>535.8571428571429</ele><time>2026-04-04T09:09:18.947Z</time></trkpt><trkpt lat="44.3943701" lon="10.4649768"><ele>538.5714285714286</ele><time>2026-04-04T09:09:19.948Z</time></trkpt><trkpt lat="44.394308" lon="10.4649156"><ele>541.2857142857142</ele><time>2026-04-04T09:09:20.948Z</time></trkpt><trkpt lat="44.3942422" lon="10.4648365"><ele>544.0</ele><time>2026-04-04T09:09:21.948Z</time></trkpt><trkpt lat="44.3941791" lon="10.4647563"><ele>544.0</ele><time>2026-04-04T09:09:22.947Z</time></trkpt><trkpt lat="44.3941198" lon="10.464674"><ele>544.0</ele><time>2026-04-04T09:09:23.948Z</time></trkpt><trkpt lat="44.3940701" lon="10.4645973"><ele>544.0</ele><time>2026-04-04T09:09:24.948Z</time></trkpt><trkpt lat="44.3940177" lon="10.4645159"><ele>544.0</ele><time>2026-04-04T09:09:25.947Z</time></trkpt><trkpt lat="44.3939582" lon="10.4644402"><ele>544.0</ele><time>2026-04-04T09:09:26.948Z</time></trkpt><trkpt lat="44.3938815" lon="10.4643665"><ele>544.0</ele><time>2026-04-04T09:09:27.948Z</time></trkpt><trkpt lat="44.3937902" lon="10.4642953"><ele>544.8</ele><time>2026-04-04T09:09:28.947Z</time></trkpt><trkpt lat="44.3936984" lon="10.4642299"><ele>545.5999999999999</ele><time>2026-04-04T09:09:29.948Z</time></trkpt><trkpt lat="44.3936114" lon="10.4641594"><ele>546.4</ele><time>2026-04-04T09:09:30.948Z</time></trkpt><trkpt lat="44.3935278" lon="10.4640798"><ele>547.1999999999999</ele><time>2026-04-04T09:09:31.948Z</time></trkpt><trkpt lat="44.3934494" lon="10.4639968"><ele>548.0</ele><time>2026-04-04T09:09:32.948Z</time></trkpt><trkpt lat="44.3933917" lon="10.4639144"><ele>548.0</ele><time>2026-04-04T09:09:33.947Z</time></trkpt><trkpt lat="44.3933471" lon="10.4638169"><ele>548.0</ele><time>2026-04-04T09:09:34.948Z</time></trkpt><trkpt lat="44.3932979" lon="10.4637155"><ele>548.0</ele><time>2026-04-04T09:09:35.947Z</time></trkpt><trkpt lat="44.3932391" lon="10.463608"><ele>548.0</ele><time>2026-04-04T09:09:36.947Z</time></trkpt><trkpt lat="44.3931681" lon="10.4635111"><ele>548.0</ele><time>2026-04-04T09:09:37.948Z</time></trkpt><trkpt lat="44.393101" lon="10.4634164"><ele>548.5</ele><time>2026-04-04T09:09:38.947Z</time></trkpt><trkpt lat="44.3930335" lon="10.4633325"><ele>549.0</ele><time>2026-04-04T09:09:39.948Z</time></trkpt><trkpt lat="44.3929719" lon="10.4632656"><ele>549.5</ele><time>2026-04-04T09:09:40.948Z</time></trkpt><trkpt lat="44.3929151" lon="10.4632144"><ele>550.0</ele><time>2026-04-04T09:09:41.947Z</time></trkpt><trkpt lat="44.3928514" lon="10.4631748"><ele>550.5</ele><time>2026-04-04T09:09:42.947Z</time></trkpt><trkpt lat="44.3927765" lon="10.4631467"><ele>551.0</ele><time>2026-04-04T09:09:43.948Z</time></trkpt><trkpt lat="44.3926923" lon="10.4631271"><ele>551.8</ele><time>2026-04-04T09:09:44.947Z</time></trkpt><trkpt lat="44.3926043" lon="10.4631349"><ele>552.6</ele><time>2026-04-04T09:09:45.948Z</time></trkpt><trkpt lat="44.3925149" lon="10.4631353"><ele>553.4</ele><time>2026-04-04T09:09:46.948Z</time></trkpt><trkpt lat="44.3924425" lon="10.4631005"><ele>554.2</ele><time>2026-04-04T09:09:47.948Z</time></trkpt><trkpt lat="44.3923483" lon="10.4630003"><ele>555.0</ele><time>2026-04-04T09:09:49.948Z</time></trkpt><trkpt lat="44.3922411" lon="10.462966"><ele>557.0</ele><time>2026-04-04T09:09:51.948Z</time></trkpt><trkpt lat="44.3921316" lon="10.462898"><ele>559.0</ele><time>2026-04-04T09:09:53.948Z</time></trkpt><trkpt lat="44.3920597" lon="10.4627541"><ele>561.0</ele><time>2026-04-04T09:09:55.947Z</time></trkpt><trkpt lat="44.3920037" lon="10.4626697"><ele>563.0</ele><time>2026-04-04T09:09:56.948Z</time></trkpt><trkpt lat="44.3919386" lon="10.4625869"><ele>565.0</ele><time>2026-04-04T09:09:57.948Z</time></trkpt><trkpt lat="44.391866" lon="10.4625061"><ele>565.0</ele><time>2026-04-04T09:09:58.948Z</time></trkpt><trkpt lat="44.391791" lon="10.4624356"><ele>565.0</ele><time>2026-04-04T09:09:59.948Z</time></trkpt><trkpt lat="44.3917099" lon="10.4623644"><ele>565.0</ele><time>2026-04-04T09:10:00.947Z</time></trkpt><trkpt lat="44.3916198" lon="10.4623058"><ele>565.0</ele><time>2026-04-04T09:10:01.948Z</time></trkpt><trkpt lat="44.3915294" lon="10.4622641"><ele>565.0</ele><time>2026-04-04T09:10:02.948Z</time></trkpt><trkpt lat="44.3914402" lon="10.4622371"><ele>565.0</ele><time>2026-04-04T09:10:03.948Z</time></trkpt><trkpt lat="44.391351" lon="10.4622302"><ele>565.0</ele><time>2026-04-04T09:10:04.948Z</time></trkpt><trkpt lat="44.3912572" lon="10.4622297"><ele>565.0</ele><time>2026-04-04T09:10:05.948Z</time></trkpt><trkpt lat="44.3911595" lon="10.4622274"><ele>565.0</ele><time>2026-04-04T09:10:06.948Z</time></trkpt><trkpt lat="44.3910663" lon="10.4621878"><ele>565.0</ele><time>2026-04-04T09:10:07.947Z</time></trkpt><trkpt lat="44.3909738" lon="10.4621208"><ele>566.1666666666667</ele><time>2026-04-04T09:10:08.948Z</time></trkpt><trkpt lat="44.3908823" lon="10.4620486"><ele>567.3333333333334</ele><time>2026-04-04T09:10:09.948Z</time></trkpt><trkpt lat="44.3907993" lon="10.4619851"><ele>568.5</ele><time>2026-04-04T09:10:10.948Z</time></trkpt><trkpt lat="44.3907305" lon="10.4619273"><ele>569.6666666666666</ele><time>2026-04-04T09:10:11.947Z</time></trkpt><trkpt lat="44.390677" lon="10.4618505"><ele>570.8333333333333</ele><time>2026-04-04T09:10:12.948Z</time></trkpt><trkpt lat="44.3906345" lon="10.4617564"><ele>572.0</ele><time>2026-04-04T09:10:13.948Z</time></trkpt><trkpt lat="44.3906111" lon="10.4616571"><ele>572.0</ele><time>2026-04-04T09:10:14.947Z</time></trkpt><trkpt lat="44.3906008" lon="10.4615521"><ele>572.0</ele><time>2026-04-04T09:10:15.948Z</time></trkpt><trkpt lat="44.3905787" lon="10.4614567"><ele>572.0</ele><time>2026-04-04T09:10:16.948Z</time></trkpt><trkpt lat="44.3905387" lon="10.461351"><ele>572.0</ele><time>2026-04-04T09:10:17.948Z</time></trkpt><trkpt lat="44.3904942" lon="10.4612421"><ele>572.0</ele><time>2026-04-04T09:10:18.948Z</time></trkpt><trkpt lat="44.3904426" lon="10.4611281"><ele>572.0</ele><time>2026-04-04T09:10:19.948Z</time></trkpt><trkpt lat="44.3903921" lon="10.4610224"><ele>574.2</ele><time>2026-04-04T09:10:20.947Z</time></trkpt><trkpt lat="44.3903639" lon="10.4608975"><ele>576.4000000000001</ele><time>2026-04-04T09:10:21.948Z</time></trkpt><trkpt lat="44.3903531" lon="10.4607649"><ele>578.5999999999999</ele><time>2026-04-04T09:10:22.948Z</time></trkpt><trkpt lat="44.3903398" lon="10.4606282"><ele>580.8</ele><time>2026-04-04T09:10:23.948Z</time></trkpt><trkpt lat="44.3903137" lon="10.4604911"><ele>583.0</ele><time>2026-04-04T09:10:24.947Z</time></trkpt><trkpt lat="44.390278" lon="10.4603639"><ele>583.0</ele><time>2026-04-04T09:10:25.948Z</time></trkpt><trkpt lat="44.3902497" lon="10.4602297"><ele>583.0</ele><time>2026-04-04T09:10:26.948Z</time></trkpt><trkpt lat="44.3902292" lon="10.4600842"><ele>583.0</ele><time>2026-04-04T09:10:27.947Z</time></trkpt><trkpt lat="44.3902106" lon="10.4599351"><ele>583.0</ele><time>2026-04-04T09:10:28.948Z</time></trkpt><trkpt lat="44.3901852" lon="10.4597883"><ele>583.0</ele><time>2026-04-04T09:10:29.948Z</time></trkpt><trkpt lat="44.3901413" lon="10.4596465"><ele>581.6</ele><time>2026-04-04T09:10:30.947Z</time></trkpt><trkpt lat="44.3900912" lon="10.4595223"><ele>580.1999999999999</ele><time>2026-04-04T09:10:31.948Z</time></trkpt><trkpt lat="44.3900373" lon="10.459412"><ele>578.8</ele><time>2026-04-04T09:10:32.948Z</time></trkpt><trkpt lat="44.3899897" lon="10.4593119"><ele>577.4</ele><time>2026-04-04T09:10:33.948Z</time></trkpt><trkpt lat="44.3899408" lon="10.4592166"><ele>576.0</ele><time>2026-04-04T09:10:34.948Z</time></trkpt><trkpt lat="44.3898783" lon="10.4591307"><ele>576.0</ele><time>2026-04-04T09:10:35.948Z</time></trkpt><trkpt lat="44.3898031" lon="10.4590761"><ele>576.0</ele><time>2026-04-04T09:10:36.948Z</time></trkpt><trkpt lat="44.3897139" lon="10.4590279"><ele>576.0</ele><time>2026-04-04T09:10:37.948Z</time></trkpt><trkpt lat="44.3896049" lon="10.4589804"><ele>576.0</ele><time>2026-04-04T09:10:38.948Z</time></trkpt><trkpt lat="44.3894869" lon="10.458934"><ele>576.0</ele><time>2026-04-04T09:10:39.947Z</time></trkpt><trkpt lat="44.3893741" lon="10.4588797"><ele>576.0</ele><time>2026-04-04T09:10:40.947Z</time></trkpt><trkpt lat="44.3892619" lon="10.4588195"><ele>576.0</ele><time>2026-04-04T09:10:41.947Z</time></trkpt><trkpt lat="44.3891595" lon="10.458769"><ele>576.0</ele><time>2026-04-04T09:10:42.948Z</time></trkpt><trkpt lat="44.3890647" lon="10.4587"><ele>576.0</ele><time>2026-04-04T09:10:43.948Z</time></trkpt><trkpt lat="44.3889769" lon="10.458607"><ele>576.0</ele><time>2026-04-04T09:10:44.948Z</time></trkpt><trkpt lat="44.3889009" lon="10.4585027"><ele>579.2</ele><time>2026-04-04T09:10:45.948Z</time></trkpt><trkpt lat="44.3888287" lon="10.4583926"><ele>582.4000000000001</ele><time>2026-04-04T09:10:46.947Z</time></trkpt><trkpt lat="44.3887689" lon="10.4582857"><ele>585.6</ele><time>2026-04-04T09:10:47.948Z</time></trkpt><trkpt lat="44.388727" lon="10.4581604"><ele>588.8000000000001</ele><time>2026-04-04T09:10:48.947Z</time></trkpt><trkpt lat="44.3887007" lon="10.4580236"><ele>592.0</ele><time>2026-04-04T09:10:49.948Z</time></trkpt><trkpt lat="44.3886598" lon="10.4579048"><ele>592.0</ele><time>2026-04-04T09:10:50.948Z</time></trkpt><trkpt lat="44.388621" lon="10.4577766"><ele>592.0</ele><time>2026-04-04T09:10:51.948Z</time></trkpt><trkpt lat="44.3885845" lon="10.4576393"><ele>592.0</ele><time>2026-04-04T09:10:52.948Z</time></trkpt><trkpt lat="44.3885554" lon="10.4574888"><ele>592.0</ele><time>2026-04-04T09:10:53.947Z</time></trkpt><trkpt lat="44.3885488" lon="10.4573611"><ele>592.0</ele><time>2026-04-04T09:10:54.948Z</time></trkpt><trkpt lat="44.3885669" lon="10.4572369"><ele>592.0</ele><time>2026-04-04T09:10:55.948Z</time></trkpt><trkpt lat="44.3885837" lon="10.4571229"><ele>592.0</ele><time>2026-04-04T09:10:56.948Z</time></trkpt><trkpt lat="44.3885841" lon="10.4569908"><ele>592.0</ele><time>2026-04-04T09:10:57.947Z</time></trkpt><trkpt lat="44.3885709" lon="10.4568316"><ele>592.0</ele><time>2026-04-04T09:10:58.947Z</time></trkpt><trkpt lat="44.3885514" lon="10.4566796"><ele>592.0</ele><time>2026-04-04T09:10:59.948Z</time></trkpt><trkpt lat="44.3885532" lon="10.4565398"><ele>592.4</ele><time>2026-04-04T09:11:00.948Z</time></trkpt><trkpt lat="44.3885765" lon="10.4564075"><ele>592.8000000000001</ele><time>2026-04-04T09:11:01.947Z</time></trkpt><trkpt lat="44.3886059" lon="10.4562808"><ele>593.2</ele><time>2026-04-04T09:11:02.947Z</time></trkpt><trkpt lat="44.3886164" lon="10.45616"><ele>593.6</ele><time>2026-04-04T09:11:03.948Z</time></trkpt><trkpt lat="44.3886063" lon="10.4560365"><ele>594.0</ele><time>2026-04-04T09:11:04.947Z</time></trkpt><trkpt lat="44.3885893" lon="10.4559145"><ele>592.1428571428571</ele><time>2026-04-04T09:11:05.948Z</time></trkpt><trkpt lat="44.3885667" lon="10.4558249"><ele>590.2857142857143</ele><time>2026-04-04T09:11:06.947Z</time></trkpt><trkpt lat="44.3885043" lon="10.4557573"><ele>588.4285714285714</ele><time>2026-04-04T09:11:14.948Z</time></trkpt><trkpt lat="44.3884442" lon="10.45584"><ele>586.5714285714286</ele><time>2026-04-04T09:11:16.947Z</time></trkpt><trkpt lat="44.3884176" lon="10.4559246"><ele>584.7142857142858</ele><time>2026-04-04T09:11:17.947Z</time></trkpt><trkpt lat="44.3883783" lon="10.4560102"><ele>582.8571428571429</ele><time>2026-04-04T09:11:18.948Z</time></trkpt><trkpt lat="44.3883378" lon="10.4560918"><ele>581.0</ele><time>2026-04-04T09:11:19.948Z</time></trkpt><trkpt lat="44.3882942" lon="10.4561697"><ele>581.0</ele><time>2026-04-04T09:11:20.947Z</time></trkpt><trkpt lat="44.388202" lon="10.4562803"><ele>581.0</ele><time>2026-04-04T09:11:22.948Z</time></trkpt><trkpt lat="44.3881347" lon="10.4564257"><ele>581.0</ele><time>2026-04-04T09:11:24.948Z</time></trkpt><trkpt lat="44.3881156" lon="10.4565219"><ele>581.0</ele><time>2026-04-04T09:11:25.948Z</time></trkpt><trkpt lat="44.3880991" lon="10.4566336"><ele>581.0</ele><time>2026-04-04T09:11:26.948Z</time></trkpt><trkpt lat="44.3880964" lon="10.4567577"><ele>582.8333333333333</ele><time>2026-04-04T09:11:27.948Z</time></trkpt><trkpt lat="44.3881082" lon="10.4568873"><ele>584.6666666666666</ele><time>2026-04-04T09:11:28.947Z</time></trkpt><trkpt lat="44.3881103" lon="10.4570071"><ele>586.5</ele><time>2026-04-04T09:11:29.948Z</time></trkpt><trkpt lat="44.3880831" lon="10.4570945"><ele>588.3333333333334</ele><time>2026-04-04T09:11:30.948Z</time></trkpt><trkpt lat="44.3880302" lon="10.4571531"><ele>590.1666666666667</ele><time>2026-04-04T09:11:31.948Z</time></trkpt><trkpt lat="44.387971" lon="10.4571975"><ele>592.0</ele><time>2026-04-04T09:11:32.948Z</time></trkpt><trkpt lat="44.3879057" lon="10.4572345"><ele>597.2</ele><time>2026-04-04T09:11:33.947Z</time></trkpt><trkpt lat="44.3878338" lon="10.4572637"><ele>602.4000000000001</ele><time>2026-04-04T09:11:34.947Z</time></trkpt><trkpt lat="44.3877617" lon="10.4572818"><ele>607.5999999999999</ele><time>2026-04-04T09:11:35.948Z</time></trkpt><trkpt lat="44.3876499" lon="10.4573051"><ele>612.8</ele><time>2026-04-04T09:11:37.947Z</time></trkpt><trkpt lat="44.3875365" lon="10.457345"><ele>618.0</ele><time>2026-04-04T09:11:39.948Z</time></trkpt><trkpt lat="44.3874768" lon="10.457481"><ele>618.0</ele><time>2026-04-04T09:11:41.947Z</time></trkpt><trkpt lat="44.3874583" lon="10.4575855"><ele>618.0</ele><time>2026-04-04T09:11:42.947Z</time></trkpt><trkpt lat="44.3874383" lon="10.457701"><ele>618.0</ele><time>2026-04-04T09:11:43.948Z</time></trkpt><trkpt lat="44.38742" lon="10.4578112"><ele>618.0</ele><time>2026-04-04T09:11:44.948Z</time></trkpt><trkpt lat="44.3874146" lon="10.4579184"><ele>618.0</ele><time>2026-04-04T09:11:45.947Z</time></trkpt><trkpt lat="44.3874128" lon="10.4580127"><ele>618.0</ele><time>2026-04-04T09:11:46.948Z</time></trkpt><trkpt lat="44.3874144" lon="10.458111"><ele>618.8333333333334</ele><time>2026-04-04T09:11:47.948Z</time></trkpt><trkpt lat="44.3873885" lon="10.4582595"><ele>619.6666666666666</ele><time>2026-04-04T09:11:49.948Z</time></trkpt><trkpt lat="44.3873481" lon="10.4583323"><ele>620.5</ele><time>2026-04-04T09:11:50.948Z</time></trkpt><trkpt lat="44.3873043" lon="10.4584209"><ele>621.3333333333333</ele><time>2026-04-04T09:11:51.947Z</time></trkpt><trkpt lat="44.3873048" lon="10.4585226"><ele>622.1666666666666</ele><time>2026-04-04T09:11:52.947Z</time></trkpt><trkpt lat="44.3873087" lon="10.4586273"><ele>623.0</ele><time>2026-04-04T09:11:53.947Z</time></trkpt><trkpt lat="44.3872354" lon="10.4587286"><ele>625.3333333333333</ele><time>2026-04-04T09:11:55.948Z</time></trkpt><trkpt lat="44.3871639" lon="10.4587451"><ele>627.6666666666666</ele><time>2026-04-04T09:11:56.948Z</time></trkpt><trkpt lat="44.3870911" lon="10.4587512"><ele>630.0</ele><time>2026-04-04T09:11:57.948Z</time></trkpt><trkpt lat="44.3870211" lon="10.4587484"><ele>632.3333333333334</ele><time>2026-04-04T09:11:58.947Z</time></trkpt><trkpt lat="44.3869558" lon="10.4587313"><ele>634.6666666666667</ele><time>2026-04-04T09:11:59.948Z</time></trkpt><trkpt lat="44.3868426" lon="10.4587112"><ele>637.0</ele><time>2026-04-04T09:12:01.947Z</time></trkpt><trkpt lat="44.3867608" lon="10.4586801"><ele>637.0</ele><time>2026-04-04T09:12:03.948Z</time></trkpt><trkpt lat="44.3866664" lon="10.4586446"><ele>637.0</ele><time>2026-04-04T09:12:05.948Z</time></trkpt><trkpt lat="44.386564" lon="10.4586069"><ele>637.0</ele><time>2026-04-04T09:12:07.948Z</time></trkpt><trkpt lat="44.386486" lon="10.4585561"><ele>637.0</ele><time>2026-04-04T09:12:09.947Z</time></trkpt><trkpt lat="44.3864277" lon="10.4584486"><ele>637.0</ele><time>2026-04-04T09:12:11.948Z</time></trkpt><trkpt lat="44.3863664" lon="10.4583214"><ele>635.8000000000001</ele><time>2026-04-04T09:12:13.948Z</time></trkpt><trkpt lat="44.3863041" lon="10.4581901"><ele>634.6</ele><time>2026-04-04T09:12:15.947Z</time></trkpt><trkpt lat="44.3862529" lon="10.4580485"><ele>633.4000000000001</ele><time>2026-04-04T09:12:17.948Z</time></trkpt><trkpt lat="44.3861898" lon="10.4578995"><ele>632.2</ele><time>2026-04-04T09:12:19.947Z</time></trkpt><trkpt lat="44.3861459" lon="10.4578203"><ele>631.0</ele><time>2026-04-04T09:12:20.948Z</time></trkpt><trkpt lat="44.3860937" lon="10.4577351"><ele>631.0</ele><time>2026-04-04T09:12:21.948Z</time></trkpt><trkpt lat="44.3860442" lon="10.4576584"><ele>631.0</ele><time>2026-04-04T09:12:22.948Z</time></trkpt><trkpt lat="44.3859988" lon="10.457588"><ele>631.0</ele><time>2026-04-04T09:12:23.947Z</time></trkpt><trkpt lat="44.3859474" lon="10.4575246"><ele>631.0</ele><time>2026-04-04T09:12:24.947Z</time></trkpt><trkpt lat="44.385886" lon="10.4574688"><ele>631.0</ele><time>2026-04-04T09:12:25.948Z</time></trkpt><trkpt lat="44.385811" lon="10.4574195"><ele>631.0</ele><time>2026-04-04T09:12:26.947Z</time></trkpt><trkpt lat="44.385729" lon="10.4573592"><ele>631.0</ele><time>2026-04-04T09:12:27.947Z</time></trkpt><trkpt lat="44.385644" lon="10.4573103"><ele>631.0</ele><time>2026-04-04T09:12:28.948Z</time></trkpt><trkpt lat="44.3855679" lon="10.4572553"><ele>631.0</ele><time>2026-04-04T09:12:29.947Z</time></trkpt><trkpt lat="44.3854977" lon="10.4572028"><ele>631.0</ele><time>2026-04-04T09:12:30.948Z</time></trkpt><trkpt lat="44.3854337" lon="10.4571435"><ele>631.0</ele><time>2026-04-04T09:12:31.948Z</time></trkpt><trkpt lat="44.3853729" lon="10.4570712"><ele>631.0</ele><time>2026-04-04T09:12:32.947Z</time></trkpt><trkpt lat="44.3853049" lon="10.4570013"><ele>630.6</ele><time>2026-04-04T09:12:33.948Z</time></trkpt><trkpt lat="44.3852343" lon="10.4569246"><ele>630.2</ele><time>2026-04-04T09:12:34.947Z</time></trkpt><trkpt lat="44.3851566" lon="10.4568342"><ele>629.8</ele><time>2026-04-04T09:12:35.948Z</time></trkpt><trkpt lat="44.385072" lon="10.4567387"><ele>629.4</ele><time>2026-04-04T09:12:36.947Z</time></trkpt><trkpt lat="44.3849748" lon="10.4566607"><ele>629.0</ele><time>2026-04-04T09:12:37.948Z</time></trkpt><trkpt lat="44.3848639" lon="10.4565999"><ele>629.0</ele><time>2026-04-04T09:12:38.948Z</time></trkpt><trkpt lat="44.3847518" lon="10.4565537"><ele>629.0</ele><time>2026-04-04T09:12:39.947Z</time></trkpt><trkpt lat="44.3846337" lon="10.4565167"><ele>629.0</ele><time>2026-04-04T09:12:40.948Z</time></trkpt><trkpt lat="44.3845234" lon="10.4564883"><ele>629.0</ele><time>2026-04-04T09:12:41.948Z</time></trkpt><trkpt lat="44.384419" lon="10.4564577"><ele>628.4</ele><time>2026-04-04T09:12:42.948Z</time></trkpt><trkpt lat="44.3843279" lon="10.456399"><ele>627.8</ele><time>2026-04-04T09:12:43.948Z</time></trkpt><trkpt lat="44.3842419" lon="10.456324"><ele>627.2</ele><time>2026-04-04T09:12:44.948Z</time></trkpt><trkpt lat="44.3841586" lon="10.4562391"><ele>626.6</ele><time>2026-04-04T09:12:45.948Z</time></trkpt><trkpt lat="44.3840773" lon="10.4561506"><ele>626.0</ele><time>2026-04-04T09:12:46.948Z</time></trkpt><trkpt lat="44.3839976" lon="10.4560545"><ele>626.0</ele><time>2026-04-04T09:12:47.948Z</time></trkpt><trkpt lat="44.3839171" lon="10.4559558"><ele>626.0</ele><time>2026-04-04T09:12:48.948Z</time></trkpt><trkpt lat="44.3838351" lon="10.4558608"><ele>626.0</ele><time>2026-04-04T09:12:49.947Z</time></trkpt><trkpt lat="44.383749" lon="10.455782"><ele>626.0</ele><time>2026-04-04T09:12:50.947Z</time></trkpt><trkpt lat="44.3836503" lon="10.4557241"><ele>626.0</ele><time>2026-04-04T09:12:51.947Z</time></trkpt><trkpt lat="44.3835513" lon="10.4556808"><ele>627.75</ele><time>2026-04-04T09:12:52.948Z</time></trkpt><trkpt lat="44.3834417" lon="10.4556449"><ele>629.5</ele><time>2026-04-04T09:12:53.947Z</time></trkpt><trkpt lat="44.3833288" lon="10.4556229"><ele>631.25</ele><time>2026-04-04T09:12:54.947Z</time></trkpt><trkpt lat="44.383211" lon="10.4556133"><ele>633.0</ele><time>2026-04-04T09:12:55.948Z</time></trkpt><trkpt lat="44.3831007" lon="10.4556137"><ele>632.6</ele><time>2026-04-04T09:12:56.947Z</time></trkpt><trkpt lat="44.382988" lon="10.4556263"><ele>632.1999999999999</ele><time>2026-04-04T09:12:57.948Z</time></trkpt><trkpt lat="44.3828776" lon="10.4556363"><ele>631.8</ele><time>2026-04-04T09:12:58.948Z</time></trkpt><trkpt lat="44.3827654" lon="10.4556459"><ele>631.4</ele><time>2026-04-04T09:12:59.948Z</time></trkpt><trkpt lat="44.3826587" lon="10.455648"><ele>631.0</ele><time>2026-04-04T09:13:00.948Z</time></trkpt><trkpt lat="44.3825412" lon="10.4556306"><ele>631.0</ele><time>2026-04-04T09:13:01.948Z</time></trkpt><trkpt lat="44.3824322" lon="10.4556046"><ele>631.0</ele><time>2026-04-04T09:13:02.947Z</time></trkpt><trkpt lat="44.3823368" lon="10.4555649"><ele>631.0</ele><time>2026-04-04T09:13:03.948Z</time></trkpt><trkpt lat="44.3822419" lon="10.4555142"><ele>631.0</ele><time>2026-04-04T09:13:04.947Z</time></trkpt><trkpt lat="44.3821471" lon="10.4554631"><ele>631.0</ele><time>2026-04-04T09:13:05.948Z</time></trkpt><trkpt lat="44.3820582" lon="10.455411"><ele>628.0</ele><time>2026-04-04T09:13:06.948Z</time></trkpt><trkpt lat="44.3819667" lon="10.4553661"><ele>625.0</ele><time>2026-04-04T09:13:07.948Z</time></trkpt><trkpt lat="44.3818737" lon="10.4553274"><ele>622.0</ele><time>2026-04-04T09:13:08.947Z</time></trkpt><trkpt lat="44.3817557" lon="10.4553237"><ele>619.0</ele><time>2026-04-04T09:13:09.948Z</time></trkpt><trkpt lat="44.3816443" lon="10.4553083"><ele>616.0</ele><time>2026-04-04T09:13:10.948Z</time></trkpt><trkpt lat="44.381544" lon="10.455254"><ele>616.0</ele><time>2026-04-04T09:13:11.948Z</time></trkpt><trkpt lat="44.3814482" lon="10.4552108"><ele>616.0</ele><time>2026-04-04T09:13:12.948Z</time></trkpt><trkpt lat="44.3813492" lon="10.4551624"><ele>616.0</ele><time>2026-04-04T09:13:13.948Z</time></trkpt><trkpt lat="44.3812531" lon="10.4551253"><ele>616.0</ele><time>2026-04-04T09:13:14.948Z</time></trkpt><trkpt lat="44.3811566" lon="10.455088"><ele>616.0</ele><time>2026-04-04T09:13:15.948Z</time></trkpt><trkpt lat="44.3810615" lon="10.4550491"><ele>616.0</ele><time>2026-04-04T09:13:16.948Z</time></trkpt><trkpt lat="44.3809707" lon="10.4550123"><ele>616.0</ele><time>2026-04-04T09:13:17.948Z</time></trkpt><trkpt lat="44.3808701" lon="10.4549773"><ele>616.0</ele><time>2026-04-04T09:13:18.948Z</time></trkpt><trkpt lat="44.3807628" lon="10.4549388"><ele>616.0</ele><time>2026-04-04T09:13:19.947Z</time></trkpt><trkpt lat="44.3806533" lon="10.4548998"><ele>616.0</ele><time>2026-04-04T09:13:20.948Z</time></trkpt><trkpt lat="44.3805451" lon="10.4548589"><ele>615.75</ele><time>2026-04-04T09:13:21.948Z</time></trkpt><trkpt lat="44.3804373" lon="10.4548196"><ele>615.5</ele><time>2026-04-04T09:13:22.947Z</time></trkpt><trkpt lat="44.3803278" lon="10.4547829"><ele>615.25</ele><time>2026-04-04T09:13:23.948Z</time></trkpt><trkpt lat="44.3802136" lon="10.454743"><ele>615.0</ele><time>2026-04-04T09:13:24.948Z</time></trkpt><trkpt lat="44.3800987" lon="10.4547009"><ele>615.0</ele><time>2026-04-04T09:13:25.948Z</time></trkpt><trkpt lat="44.3799782" lon="10.4546518"><ele>615.0</ele><time>2026-04-04T09:13:26.948Z</time></trkpt><trkpt lat="44.3798667" lon="10.4545955"><ele>615.0</ele><time>2026-04-04T09:13:27.948Z</time></trkpt><trkpt lat="44.379768" lon="10.454533"><ele>615.0</ele><time>2026-04-04T09:13:28.948Z</time></trkpt><trkpt lat="44.3796719" lon="10.4544473"><ele>616.5</ele><time>2026-04-04T09:13:29.947Z</time></trkpt><trkpt lat="44.3795788" lon="10.4543472"><ele>618.0</ele><time>2026-04-04T09:13:30.948Z</time></trkpt><trkpt lat="44.3794861" lon="10.4542309"><ele>619.5</ele><time>2026-04-04T09:13:31.947Z</time></trkpt><trkpt lat="44.3793931" lon="10.4541098"><ele>621.0</ele><time>2026-04-04T09:13:32.948Z</time></trkpt><trkpt lat="44.379304" lon="10.4540007"><ele>621.0</ele><time>2026-04-04T09:13:33.948Z</time></trkpt><trkpt lat="44.3792199" lon="10.4538997"><ele>621.0</ele><time>2026-04-04T09:13:34.948Z</time></trkpt><trkpt lat="44.3791409" lon="10.4537948"><ele>621.0</ele><time>2026-04-04T09:13:35.947Z</time></trkpt><trkpt lat="44.3790565" lon="10.453681"><ele>621.0</ele><time>2026-04-04T09:13:36.948Z</time></trkpt><trkpt lat="44.3789673" lon="10.4535625"><ele>620.0</ele><time>2026-04-04T09:13:37.948Z</time></trkpt><trkpt lat="44.3788759" lon="10.4534369"><ele>619.0</ele><time>2026-04-04T09:13:38.948Z</time></trkpt><trkpt lat="44.378784" lon="10.4533172"><ele>618.0</ele><time>2026-04-04T09:13:39.948Z</time></trkpt><trkpt lat="44.3786831" lon="10.45322"><ele>617.0</ele><time>2026-04-04T09:13:40.948Z</time></trkpt><trkpt lat="44.3785805" lon="10.4531628"><ele>619.25</ele><time>2026-04-04T09:13:41.948Z</time></trkpt><trkpt lat="44.3784664" lon="10.4531155"><ele>621.5</ele><time>2026-04-04T09:13:42.948Z</time></trkpt><trkpt lat="44.3783539" lon="10.45307"><ele>623.75</ele><time>2026-04-04T09:13:43.948Z</time></trkpt><trkpt lat="44.3782468" lon="10.4530262"><ele>626.0</ele><time>2026-04-04T09:13:44.948Z</time></trkpt><trkpt lat="44.3781442" lon="10.4529849"><ele>625.8</ele><time>2026-04-04T09:13:45.948Z</time></trkpt><trkpt lat="44.3780408" lon="10.4529434"><ele>625.6</ele><time>2026-04-04T09:13:46.948Z</time></trkpt><trkpt lat="44.3779436" lon="10.4529051"><ele>625.4</ele><time>2026-04-04T09:13:47.948Z</time></trkpt><trkpt lat="44.3778462" lon="10.4528575"><ele>625.2</ele><time>2026-04-04T09:13:48.947Z</time></trkpt><trkpt lat="44.3777563" lon="10.4527922"><ele>625.0</ele><time>2026-04-04T09:13:49.947Z</time></trkpt><trkpt lat="44.377678" lon="10.4527067"><ele>625.3333333333334</ele><time>2026-04-04T09:13:50.948Z</time></trkpt><trkpt lat="44.3776087" lon="10.4526193"><ele>625.6666666666667</ele><time>2026-04-04T09:13:51.947Z</time></trkpt><trkpt lat="44.3775475" lon="10.4525373"><ele>626.0</ele><time>2026-04-04T09:13:52.947Z</time></trkpt><trkpt lat="44.3774879" lon="10.4524647"><ele>626.3333333333334</ele><time>2026-04-04T09:13:53.948Z</time></trkpt><trkpt lat="44.3774388" lon="10.4523875"><ele>626.6666666666666</ele><time>2026-04-04T09:13:54.948Z</time></trkpt><trkpt lat="44.3773954" lon="10.4522893"><ele>627.0</ele><time>2026-04-04T09:13:55.947Z</time></trkpt><trkpt lat="44.3773447" lon="10.4521761"><ele>627.25</ele><time>2026-04-04T09:13:56.948Z</time></trkpt><trkpt lat="44.3772783" lon="10.4520581"><ele>627.5</ele><time>2026-04-04T09:13:57.948Z</time></trkpt><trkpt lat="44.3771974" lon="10.4519454"><ele>627.75</ele><time>2026-04-04T09:13:58.948Z</time></trkpt><trkpt lat="44.3771068" lon="10.4518237"><ele>628.0</ele><time>2026-04-04T09:13:59.948Z</time></trkpt><trkpt lat="44.3770158" lon="10.4516951"><ele>628.0</ele><time>2026-04-04T09:14:00.947Z</time></trkpt><trkpt lat="44.3769233" lon="10.4515595"><ele>628.0</ele><time>2026-04-04T09:14:01.948Z</time></trkpt><trkpt lat="44.3768275" lon="10.4514231"><ele>628.0</ele><time>2026-04-04T09:14:02.948Z</time></trkpt><trkpt lat="44.3767316" lon="10.4512971"><ele>628.0</ele><time>2026-04-04T09:14:03.948Z</time></trkpt><trkpt lat="44.3766191" lon="10.4511857"><ele>627.25</ele><time>2026-04-04T09:14:04.948Z</time></trkpt><trkpt lat="44.3765041" lon="10.4511045"><ele>626.5</ele><time>2026-04-04T09:14:05.948Z</time></trkpt><trkpt lat="44.3763982" lon="10.4510431"><ele>625.75</ele><time>2026-04-04T09:14:06.948Z</time></trkpt><trkpt lat="44.3762931" lon="10.4509937"><ele>625.0</ele><time>2026-04-04T09:14:07.948Z</time></trkpt><trkpt lat="44.3761795" lon="10.4509738"><ele>629.75</ele><time>2026-04-04T09:14:08.948Z</time></trkpt><trkpt lat="44.3760634" lon="10.4510009"><ele>634.5</ele><time>2026-04-04T09:14:09.947Z</time></trkpt><trkpt lat="44.3759533" lon="10.4510332"><ele>639.25</ele><time>2026-04-04T09:14:10.948Z</time></trkpt><trkpt lat="44.3758412" lon="10.451024"><ele>644.0</ele><time>2026-04-04T09:14:11.948Z</time></trkpt><trkpt lat="44.3757363" lon="10.4509522"><ele>644.0</ele><time>2026-04-04T09:14:12.947Z</time></trkpt><trkpt lat="44.375643" lon="10.4508442"><ele>644.0</ele><time>2026-04-04T09:14:13.948Z</time></trkpt><trkpt lat="44.3755721" lon="10.4507119"><ele>644.0</ele><time>2026-04-04T09:14:14.948Z</time></trkpt><trkpt lat="44.3755159" lon="10.4505576"><ele>644.0</ele><time>2026-04-04T09:14:15.947Z</time></trkpt><trkpt lat="44.3754667" lon="10.4503899"><ele>645.75</ele><time>2026-04-04T09:14:16.948Z</time></trkpt><trkpt lat="44.3754125" lon="10.4502382"><ele>647.5</ele><time>2026-04-04T09:14:17.948Z</time></trkpt><trkpt lat="44.375362" lon="10.4500898"><ele>649.25</ele><time>2026-04-04T09:14:18.948Z</time></trkpt><trkpt lat="44.375315" lon="10.4499391"><ele>651.0</ele><time>2026-04-04T09:14:19.948Z</time></trkpt><trkpt lat="44.3752636" lon="10.4497935"><ele>651.0</ele><time>2026-04-04T09:14:20.948Z</time></trkpt><trkpt lat="44.3751998" lon="10.4496479"><ele>651.0</ele><time>2026-04-04T09:14:21.947Z</time></trkpt><trkpt lat="44.3751277" lon="10.4495108"><ele>651.0</ele><time>2026-04-04T09:14:22.947Z</time></trkpt><trkpt lat="44.3750503" lon="10.4493656"><ele>651.0</ele><time>2026-04-04T09:14:23.948Z</time></trkpt><trkpt lat="44.3749653" lon="10.4492168"><ele>651.25</ele><time>2026-04-04T09:14:24.948Z</time></trkpt><trkpt lat="44.3748742" lon="10.4490666"><ele>651.5</ele><time>2026-04-04T09:14:25.948Z</time></trkpt><trkpt lat="44.3747801" lon="10.4489163"><ele>651.75</ele><time>2026-04-04T09:14:26.948Z</time></trkpt><trkpt lat="44.3746848" lon="10.4487647"><ele>652.0</ele><time>2026-04-04T09:14:27.948Z</time></trkpt><trkpt lat="44.3745884" lon="10.4486118"><ele>653.75</ele><time>2026-04-04T09:14:28.948Z</time></trkpt><trkpt lat="44.374495" lon="10.4484584"><ele>655.5</ele><time>2026-04-04T09:14:29.948Z</time></trkpt><trkpt lat="44.3744043" lon="10.448306"><ele>657.25</ele><time>2026-04-04T09:14:30.947Z</time></trkpt><trkpt lat="44.3743145" lon="10.448161"><ele>659.0</ele><time>2026-04-04T09:14:31.948Z</time></trkpt><trkpt lat="44.3742224" lon="10.4480293"><ele>660.0</ele><time>2026-04-04T09:14:32.947Z</time></trkpt><trkpt lat="44.3741183" lon="10.4479221"><ele>661.0</ele><time>2026-04-04T09:14:33.948Z</time></trkpt><trkpt lat="44.3739976" lon="10.4478673"><ele>662.0</ele><time>2026-04-04T09:14:34.948Z</time></trkpt><trkpt lat="44.3738655" lon="10.4478534"><ele>663.0</ele><time>2026-04-04T09:14:35.948Z</time></trkpt><trkpt lat="44.3737326" lon="10.4478697"><ele>667.0</ele><time>2026-04-04T09:14:36.948Z</time></trkpt><trkpt lat="44.3736057" lon="10.4479089"><ele>671.0</ele><time>2026-04-04T09:14:37.948Z</time></trkpt><trkpt lat="44.3734822" lon="10.4479385"><ele>675.0</ele><time>2026-04-04T09:14:38.948Z</time></trkpt><trkpt lat="44.3733596" lon="10.4479364"><ele>679.0</ele><time>2026-04-04T09:14:39.948Z</time></trkpt><trkpt lat="44.3732448" lon="10.4478907"><ele>679.0</ele><time>2026-04-04T09:14:40.947Z</time></trkpt><trkpt lat="44.3731293" lon="10.4478076"><ele>679.0</ele><time>2026-04-04T09:14:41.948Z</time></trkpt><trkpt lat="44.3730168" lon="10.447715"><ele>679.0</ele><time>2026-04-04T09:14:42.947Z</time></trkpt><trkpt lat="44.3729054" lon="10.4475919"><ele>679.0</ele><time>2026-04-04T09:14:43.947Z</time></trkpt><trkpt lat="44.3727971" lon="10.4474604"><ele>679.75</ele><time>2026-04-04T09:14:44.947Z</time></trkpt><trkpt lat="44.3726941" lon="10.4473307"><ele>680.5</ele><time>2026-04-04T09:14:45.947Z</time></trkpt><trkpt lat="44.3725987" lon="10.4471943"><ele>681.25</ele><time>2026-04-04T09:14:46.946Z</time></trkpt><trkpt lat="44.3725186" lon="10.4470467"><ele>682.0</ele><time>2026-04-04T09:14:47.946Z</time></trkpt><trkpt lat="44.3724581" lon="10.4468894"><ele>682.75</ele><time>2026-04-04T09:14:48.946Z</time></trkpt><trkpt lat="44.372398" lon="10.4467249"><ele>683.5</ele><time>2026-04-04T09:14:49.947Z</time></trkpt><trkpt lat="44.3723165" lon="10.446573"><ele>684.25</ele><time>2026-04-04T09:14:50.947Z</time></trkpt><trkpt lat="44.3722246" lon="10.4464306"><ele>685.0</ele><time>2026-04-04T09:14:51.947Z</time></trkpt><trkpt lat="44.3721156" lon="10.4463055"><ele>686.75</ele><time>2026-04-04T09:14:52.946Z</time></trkpt><trkpt lat="44.3719988" lon="10.4461897"><ele>688.5</ele><time>2026-04-04T09:14:53.946Z</time></trkpt><trkpt lat="44.371874" lon="10.4460961"><ele>690.25</ele><time>2026-04-04T09:14:54.946Z</time></trkpt><trkpt lat="44.3717512" lon="10.446003"><ele>692.0</ele><time>2026-04-04T09:14:55.947Z</time></trkpt><trkpt lat="44.3716432" lon="10.4458872"><ele>692.0</ele><time>2026-04-04T09:14:56.947Z</time></trkpt><trkpt lat="44.3715434" lon="10.4457722"><ele>692.0</ele><time>2026-04-04T09:14:57.946Z</time></trkpt><trkpt lat="44.3714243" lon="10.4456727"><ele>692.0</ele><time>2026-04-04T09:14:58.946Z</time></trkpt><trkpt lat="44.371285" lon="10.445598"><ele>692.0</ele><time>2026-04-04T09:14:59.947Z</time></trkpt><trkpt lat="44.3711234" lon="10.4455379"><ele>691.3333333333333</ele><time>2026-04-04T09:15:00.947Z</time></trkpt><trkpt lat="44.3709499" lon="10.4454799"><ele>690.6666666666666</ele><time>2026-04-04T09:15:01.947Z</time></trkpt><trkpt lat="44.3707603" lon="10.4454343"><ele>690.0</ele><time>2026-04-04T09:15:02.946Z</time></trkpt><trkpt lat="44.3705624" lon="10.4453846"><ele>690.0</ele><time>2026-04-04T09:15:03.947Z</time></trkpt><trkpt lat="44.3703734" lon="10.4452949"><ele>690.0</ele><time>2026-04-04T09:15:04.947Z</time></trkpt><trkpt lat="44.3702054" lon="10.4451733"><ele>690.0</ele><time>2026-04-04T09:15:05.946Z</time></trkpt><trkpt lat="44.3700475" lon="10.445005"><ele>690.0</ele><time>2026-04-04T09:15:06.947Z</time></trkpt><trkpt lat="44.3698877" lon="10.4448193"><ele>690.0</ele><time>2026-04-04T09:15:07.947Z</time></trkpt><trkpt lat="44.3697355" lon="10.4446263"><ele>690.0</ele><time>2026-04-04T09:15:08.947Z</time></trkpt><trkpt lat="44.3695736" lon="10.4444026"><ele>687.5</ele><time>2026-04-04T09:15:09.947Z</time></trkpt><trkpt lat="44.3694161" lon="10.4441669"><ele>685.0</ele><time>2026-04-04T09:15:10.947Z</time></trkpt><trkpt lat="44.3692646" lon="10.4439319"><ele>686.0</ele><time>2026-04-04T09:15:11.946Z</time></trkpt><trkpt lat="44.3690991" lon="10.4437242"><ele>687.0</ele><time>2026-04-04T09:15:12.947Z</time></trkpt><trkpt lat="44.3689214" lon="10.4435292"><ele>688.0</ele><time>2026-04-04T09:15:13.947Z</time></trkpt><trkpt lat="44.3687459" lon="10.4433548"><ele>690.6666666666667</ele><time>2026-04-04T09:15:14.946Z</time></trkpt><trkpt lat="44.3685836" lon="10.4432006"><ele>693.3333333333334</ele><time>2026-04-04T09:15:15.947Z</time></trkpt><trkpt lat="44.3684332" lon="10.4430488"><ele>696.0</ele><time>2026-04-04T09:15:16.947Z</time></trkpt><trkpt lat="44.3682953" lon="10.4429057"><ele>696.0</ele><time>2026-04-04T09:15:17.947Z</time></trkpt><trkpt lat="44.3681703" lon="10.4427738"><ele>696.0</ele><time>2026-04-04T09:15:18.946Z</time></trkpt><trkpt lat="44.3680449" lon="10.4426518"><ele>696.0</ele><time>2026-04-04T09:15:19.947Z</time></trkpt><trkpt lat="44.3679163" lon="10.4425506"><ele>697.75</ele><time>2026-04-04T09:15:20.947Z</time></trkpt><trkpt lat="44.3677823" lon="10.4424672"><ele>699.5</ele><time>2026-04-04T09:15:21.946Z</time></trkpt><trkpt lat="44.3676476" lon="10.4423749"><ele>701.25</ele><time>2026-04-04T09:15:22.947Z</time></trkpt><trkpt lat="44.367524" lon="10.442261"><ele>703.0</ele><time>2026-04-04T09:15:23.946Z</time></trkpt><trkpt lat="44.3674232" lon="10.4421144"><ele>705.0</ele><time>2026-04-04T09:15:24.947Z</time></trkpt><trkpt lat="44.3673373" lon="10.4419582"><ele>707.0</ele><time>2026-04-04T09:15:25.946Z</time></trkpt><trkpt lat="44.3672486" lon="10.4417855"><ele>709.0</ele><time>2026-04-04T09:15:26.947Z</time></trkpt><trkpt lat="44.3671634" lon="10.4416058"><ele>711.0</ele><time>2026-04-04T09:15:27.947Z</time></trkpt><trkpt lat="44.3670634" lon="10.4414431"><ele>711.0</ele><time>2026-04-04T09:15:28.946Z</time></trkpt><trkpt lat="44.366941" lon="10.441314"><ele>711.0</ele><time>2026-04-04T09:15:29.946Z</time></trkpt><trkpt lat="44.3667961" lon="10.4412159"><ele>711.0</ele><time>2026-04-04T09:15:30.947Z</time></trkpt><trkpt lat="44.3666397" lon="10.441142"><ele>714.0</ele><time>2026-04-04T09:15:31.947Z</time></trkpt><trkpt lat="44.3664928" lon="10.4410741"><ele>717.0</ele><time>2026-04-04T09:15:32.947Z</time></trkpt><trkpt lat="44.3663568" lon="10.4410003"><ele>720.0</ele><time>2026-04-04T09:15:33.947Z</time></trkpt><trkpt lat="44.3662366" lon="10.4409114"><ele>723.0</ele><time>2026-04-04T09:15:34.947Z</time></trkpt><trkpt lat="44.3661208" lon="10.4407937"><ele>723.0</ele><time>2026-04-04T09:15:35.947Z</time></trkpt><trkpt lat="44.3660089" lon="10.4406597"><ele>723.0</ele><time>2026-04-04T09:15:36.946Z</time></trkpt><trkpt lat="44.3659022" lon="10.4405224"><ele>723.0</ele><time>2026-04-04T09:15:37.947Z</time></trkpt><trkpt lat="44.3657993" lon="10.4403779"><ele>723.0</ele><time>2026-04-04T09:15:38.946Z</time></trkpt><trkpt lat="44.3657005" lon="10.4402461"><ele>725.0</ele><time>2026-04-04T09:15:39.947Z</time></trkpt><trkpt lat="44.3656063" lon="10.4401185"><ele>727.0</ele><time>2026-04-04T09:15:40.946Z</time></trkpt><trkpt lat="44.3655129" lon="10.4399961"><ele>729.0</ele><time>2026-04-04T09:15:41.947Z</time></trkpt><trkpt lat="44.3654182" lon="10.4398797"><ele>731.0</ele><time>2026-04-04T09:15:42.946Z</time></trkpt><trkpt lat="44.3653246" lon="10.4397609"><ele>731.0</ele><time>2026-04-04T09:15:43.947Z</time></trkpt><trkpt lat="44.3652339" lon="10.4396469"><ele>731.0</ele><time>2026-04-04T09:15:44.946Z</time></trkpt><trkpt lat="44.3651448" lon="10.4395354"><ele>731.0</ele><time>2026-04-04T09:15:45.947Z</time></trkpt><trkpt lat="44.3650614" lon="10.4394342"><ele>731.0</ele><time>2026-04-04T09:15:46.947Z</time></trkpt><trkpt lat="44.3649778" lon="10.4393334"><ele>734.75</ele><time>2026-04-04T09:15:47.947Z</time></trkpt><trkpt lat="44.3648843" lon="10.4392552"><ele>738.5</ele><time>2026-04-04T09:15:48.947Z</time></trkpt><trkpt lat="44.3647681" lon="10.4392022"><ele>742.25</ele><time>2026-04-04T09:15:49.946Z</time></trkpt><trkpt lat="44.3646276" lon="10.4391675"><ele>746.0</ele><time>2026-04-04T09:15:50.946Z</time></trkpt><trkpt lat="44.3644731" lon="10.4391464"><ele>746.6666666666666</ele><time>2026-04-04T09:15:51.947Z</time></trkpt><trkpt lat="44.3643052" lon="10.4391325"><ele>747.3333333333334</ele><time>2026-04-04T09:15:52.946Z</time></trkpt><trkpt lat="44.3641355" lon="10.4391121"><ele>748.0</ele><time>2026-04-04T09:15:53.947Z</time></trkpt><trkpt lat="44.3639639" lon="10.439089"><ele>746.6666666666667</ele><time>2026-04-04T09:15:54.947Z</time></trkpt><trkpt lat="44.3637856" lon="10.4390573"><ele>745.3333333333334</ele><time>2026-04-04T09:15:55.947Z</time></trkpt><trkpt lat="44.3636058" lon="10.4390273"><ele>744.0</ele><time>2026-04-04T09:15:56.947Z</time></trkpt><trkpt lat="44.3634165" lon="10.4390087"><ele>744.0</ele><time>2026-04-04T09:15:57.947Z</time></trkpt><trkpt lat="44.3632319" lon="10.4390002"><ele>744.0</ele><time>2026-04-04T09:15:58.947Z</time></trkpt><trkpt lat="44.3630619" lon="10.4389916"><ele>744.0</ele><time>2026-04-04T09:15:59.946Z</time></trkpt><trkpt lat="44.3628956" lon="10.4389727"><ele>742.5</ele><time>2026-04-04T09:16:00.946Z</time></trkpt><trkpt lat="44.3627449" lon="10.4389282"><ele>741.0</ele><time>2026-04-04T09:16:01.947Z</time></trkpt><trkpt lat="44.3626176" lon="10.4388289"><ele>739.5</ele><time>2026-04-04T09:16:02.946Z</time></trkpt><trkpt lat="44.3625185" lon="10.4386769"><ele>738.0</ele><time>2026-04-04T09:16:03.947Z</time></trkpt><trkpt lat="44.3624436" lon="10.4384967"><ele>743.3333333333334</ele><time>2026-04-04T09:16:04.946Z</time></trkpt><trkpt lat="44.3623717" lon="10.4383038"><ele>748.6666666666667</ele><time>2026-04-04T09:16:05.946Z</time></trkpt><trkpt lat="44.3622968" lon="10.438116"><ele>754.0</ele><time>2026-04-04T09:16:06.947Z</time></trkpt><trkpt lat="44.3622148" lon="10.4379267"><ele>753.0</ele><time>2026-04-04T09:16:07.947Z</time></trkpt><trkpt lat="44.3621308" lon="10.4377377"><ele>752.0</ele><time>2026-04-04T09:16:08.946Z</time></trkpt><trkpt lat="44.3620515" lon="10.4375525"><ele>751.0</ele><time>2026-04-04T09:16:09.946Z</time></trkpt><trkpt lat="44.3619703" lon="10.4373725"><ele>751.0</ele><time>2026-04-04T09:16:10.946Z</time></trkpt><trkpt lat="44.3618866" lon="10.4371911"><ele>751.0</ele><time>2026-04-04T09:16:11.947Z</time></trkpt><trkpt lat="44.3618045" lon="10.4370079"><ele>751.0</ele><time>2026-04-04T09:16:12.947Z</time></trkpt><trkpt lat="44.3617353" lon="10.4368204"><ele>755.6666666666667</ele><time>2026-04-04T09:16:13.947Z</time></trkpt><trkpt lat="44.3616692" lon="10.4366256"><ele>760.3333333333334</ele><time>2026-04-04T09:16:14.946Z</time></trkpt><trkpt lat="44.3615953" lon="10.4364392"><ele>765.0</ele><time>2026-04-04T09:16:15.946Z</time></trkpt><trkpt lat="44.361511" lon="10.4362636"><ele>764.0</ele><time>2026-04-04T09:16:16.947Z</time></trkpt><trkpt lat="44.3614232" lon="10.4360859"><ele>763.0</ele><time>2026-04-04T09:16:17.946Z</time></trkpt><trkpt lat="44.3613378" lon="10.4359075"><ele>762.0</ele><time>2026-04-04T09:16:18.946Z</time></trkpt><trkpt lat="44.3612533" lon="10.435723"><ele>762.0</ele><time>2026-04-04T09:16:19.947Z</time></trkpt><trkpt lat="44.3611617" lon="10.4355466"><ele>762.0</ele><time>2026-04-04T09:16:20.947Z</time></trkpt><trkpt lat="44.3610537" lon="10.4353842"><ele>762.0</ele><time>2026-04-04T09:16:21.947Z</time></trkpt><trkpt lat="44.3609307" lon="10.435234"><ele>762.75</ele><time>2026-04-04T09:16:22.947Z</time></trkpt><trkpt lat="44.3607969" lon="10.4351207"><ele>763.5</ele><time>2026-04-04T09:16:23.947Z</time></trkpt><trkpt lat="44.3606703" lon="10.4350199"><ele>764.25</ele><time>2026-04-04T09:16:24.947Z</time></trkpt><trkpt lat="44.3605517" lon="10.4349392"><ele>765.0</ele><time>2026-04-04T09:16:25.947Z</time></trkpt><trkpt lat="44.3604419" lon="10.4348856"><ele>766.75</ele><time>2026-04-04T09:16:26.946Z</time></trkpt><trkpt lat="44.3603325" lon="10.434863"><ele>768.5</ele><time>2026-04-04T09:16:27.947Z</time></trkpt><trkpt lat="44.3602156" lon="10.4348752"><ele>770.25</ele><time>2026-04-04T09:16:28.946Z</time></trkpt><trkpt lat="44.3600977" lon="10.4348872"><ele>772.0</ele><time>2026-04-04T09:16:29.946Z</time></trkpt><trkpt lat="44.3599865" lon="10.4349031"><ele>772.0</ele><time>2026-04-04T09:16:30.947Z</time></trkpt><trkpt lat="44.3598818" lon="10.4349183"><ele>772.0</ele><time>2026-04-04T09:16:31.947Z</time></trkpt><trkpt lat="44.3597631" lon="10.4349266"><ele>772.0</ele><time>2026-04-04T09:16:32.947Z</time></trkpt><trkpt lat="44.3596428" lon="10.4349352"><ele>772.0</ele><time>2026-04-04T09:16:33.947Z</time></trkpt><trkpt lat="44.3595169" lon="10.4349417"><ele>771.75</ele><time>2026-04-04T09:16:34.946Z</time></trkpt><trkpt lat="44.3593957" lon="10.4349625"><ele>771.5</ele><time>2026-04-04T09:16:35.946Z</time></trkpt><trkpt lat="44.3592775" lon="10.4349822"><ele>771.25</ele><time>2026-04-04T09:16:36.947Z</time></trkpt><trkpt lat="44.3591677" lon="10.4350022"><ele>771.0</ele><time>2026-04-04T09:16:37.947Z</time></trkpt><trkpt lat="44.3590651" lon="10.4350228"><ele>771.0</ele><time>2026-04-04T09:16:38.947Z</time></trkpt><trkpt lat="44.3589641" lon="10.4350333"><ele>771.0</ele><time>2026-04-04T09:16:39.947Z</time></trkpt><trkpt lat="44.3588668" lon="10.4350337"><ele>771.0</ele><time>2026-04-04T09:16:40.947Z</time></trkpt><trkpt lat="44.358777" lon="10.4350402"><ele>771.0</ele><time>2026-04-04T09:16:41.947Z</time></trkpt><trkpt lat="44.3586931" lon="10.4350457"><ele>771.0</ele><time>2026-04-04T09:16:42.947Z</time></trkpt><trkpt lat="44.3586096" lon="10.4350561"><ele>771.0</ele><time>2026-04-04T09:16:43.946Z</time></trkpt><trkpt lat="44.3585344" lon="10.4350536"><ele>771.0</ele><time>2026-04-04T09:16:44.947Z</time></trkpt><trkpt lat="44.3584696" lon="10.4350168"><ele>771.0</ele><time>2026-04-04T09:16:45.947Z</time></trkpt><trkpt lat="44.3584188" lon="10.4349388"><ele>771.0</ele><time>2026-04-04T09:16:46.947Z</time></trkpt><trkpt lat="44.3583541" lon="10.4348504"><ele>771.0</ele><time>2026-04-04T09:16:47.947Z</time></trkpt><trkpt lat="44.358286" lon="10.4347462"><ele>771.0</ele><time>2026-04-04T09:16:48.947Z</time></trkpt><trkpt lat="44.3582202" lon="10.4346318"><ele>771.0</ele><time>2026-04-04T09:16:49.947Z</time></trkpt><trkpt lat="44.3581509" lon="10.4345189"><ele>771.0</ele><time>2026-04-04T09:16:50.947Z</time></trkpt><trkpt lat="44.3580719" lon="10.4344058"><ele>771.0</ele><time>2026-04-04T09:16:51.947Z</time></trkpt><trkpt lat="44.3579801" lon="10.4343136"><ele>771.0</ele><time>2026-04-04T09:16:52.947Z</time></trkpt><trkpt lat="44.3578825" lon="10.4342309"><ele>771.0</ele><time>2026-04-04T09:16:53.946Z</time></trkpt><trkpt lat="44.3577826" lon="10.4341504"><ele>772.5</ele><time>2026-04-04T09:16:54.947Z</time></trkpt><trkpt lat="44.357681" lon="10.4340689"><ele>774.0</ele><time>2026-04-04T09:16:55.946Z</time></trkpt><trkpt lat="44.3575839" lon="10.4339763"><ele>775.5</ele><time>2026-04-04T09:16:56.947Z</time></trkpt><trkpt lat="44.3574854" lon="10.4338728"><ele>777.0</ele><time>2026-04-04T09:16:57.946Z</time></trkpt><trkpt lat="44.3573836" lon="10.4337713"><ele>777.0</ele><time>2026-04-04T09:16:58.947Z</time></trkpt><trkpt lat="44.3572856" lon="10.4336854"><ele>777.0</ele><time>2026-04-04T09:16:59.947Z</time></trkpt><trkpt lat="44.3572115" lon="10.4335865"><ele>777.0</ele><time>2026-04-04T09:17:00.946Z</time></trkpt><trkpt lat="44.35715" lon="10.4334652"><ele>777.0</ele><time>2026-04-04T09:17:01.947Z</time></trkpt><trkpt lat="44.3570997" lon="10.4333322"><ele>777.0</ele><time>2026-04-04T09:17:02.947Z</time></trkpt><trkpt lat="44.3570515" lon="10.4331959"><ele>777.8</ele><time>2026-04-04T09:17:03.946Z</time></trkpt><trkpt lat="44.356981" lon="10.4331009"><ele>778.6</ele><time>2026-04-04T09:17:04.947Z</time></trkpt><trkpt lat="44.3568912" lon="10.4330218"><ele>779.4</ele><time>2026-04-04T09:17:05.946Z</time></trkpt><trkpt lat="44.3567823" lon="10.4330161"><ele>780.1999999999999</ele><time>2026-04-04T09:17:06.947Z</time></trkpt><trkpt lat="44.3566717" lon="10.4330397"><ele>781.0</ele><time>2026-04-04T09:17:07.947Z</time></trkpt><trkpt lat="44.3565619" lon="10.4330931"><ele>781.0</ele><time>2026-04-04T09:17:08.946Z</time></trkpt><trkpt lat="44.3564498" lon="10.4331439"><ele>781.0</ele><time>2026-04-04T09:17:09.947Z</time></trkpt><trkpt lat="44.3563235" lon="10.43315"><ele>781.0</ele><time>2026-04-04T09:17:10.946Z</time></trkpt><trkpt lat="44.356203" lon="10.4330933"><ele>781.0</ele><time>2026-04-04T09:17:11.946Z</time></trkpt><trkpt lat="44.3561002" lon="10.4330014"><ele>781.0</ele><time>2026-04-04T09:17:12.947Z</time></trkpt><trkpt lat="44.3560134" lon="10.4328685"><ele>781.0</ele><time>2026-04-04T09:17:13.946Z</time></trkpt><trkpt lat="44.3559511" lon="10.4327184"><ele>781.0</ele><time>2026-04-04T09:17:14.946Z</time></trkpt><trkpt lat="44.355897" lon="10.4325483"><ele>781.0</ele><time>2026-04-04T09:17:15.947Z</time></trkpt><trkpt lat="44.3558422" lon="10.4323629"><ele>781.0</ele><time>2026-04-04T09:17:16.947Z</time></trkpt><trkpt lat="44.3557913" lon="10.4321759"><ele>781.0</ele><time>2026-04-04T09:17:17.946Z</time></trkpt><trkpt lat="44.3557378" lon="10.4319884"><ele>781.0</ele><time>2026-04-04T09:17:18.947Z</time></trkpt><trkpt lat="44.3556797" lon="10.4318089"><ele>781.0</ele><time>2026-04-04T09:17:19.946Z</time></trkpt><trkpt lat="44.3556141" lon="10.4316319"><ele>780.0</ele><time>2026-04-04T09:17:20.946Z</time></trkpt><trkpt lat="44.3555427" lon="10.4314661"><ele>779.0</ele><time>2026-04-04T09:17:21.946Z</time></trkpt><trkpt lat="44.3554744" lon="10.4313199"><ele>778.0</ele><time>2026-04-04T09:17:22.947Z</time></trkpt><trkpt lat="44.3554298" lon="10.4311743"><ele>777.0</ele><time>2026-04-04T09:17:23.946Z</time></trkpt><trkpt lat="44.3554178" lon="10.4310201"><ele>777.0</ele><time>2026-04-04T09:17:24.947Z</time></trkpt><trkpt lat="44.3554466" lon="10.4308877"><ele>777.0</ele><time>2026-04-04T09:17:25.947Z</time></trkpt><trkpt lat="44.355507" lon="10.4307566"><ele>777.0</ele><time>2026-04-04T09:17:26.947Z</time></trkpt><trkpt lat="44.3555767" lon="10.4306541"><ele>777.0</ele><time>2026-04-04T09:17:27.947Z</time></trkpt><trkpt lat="44.3556396" lon="10.4305689"><ele>777.0</ele><time>2026-04-04T09:17:28.947Z</time></trkpt><trkpt lat="44.3556687" lon="10.4304401"><ele>776.25</ele><time>2026-04-04T09:17:29.947Z</time></trkpt><trkpt lat="44.3556457" lon="10.4302828"><ele>775.5</ele><time>2026-04-04T09:17:30.947Z</time></trkpt><trkpt lat="44.3555915" lon="10.4301193"><ele>774.75</ele><time>2026-04-04T09:17:31.947Z</time></trkpt><trkpt lat="44.3555345" lon="10.4299728"><ele>774.0</ele><time>2026-04-04T09:17:32.947Z</time></trkpt><trkpt lat="44.355471" lon="10.4298159"><ele>777.25</ele><time>2026-04-04T09:17:33.947Z</time></trkpt><trkpt lat="44.3553992" lon="10.4296536"><ele>780.5</ele><time>2026-04-04T09:17:34.946Z</time></trkpt><trkpt lat="44.3553213" lon="10.429493"><ele>783.75</ele><time>2026-04-04T09:17:35.946Z</time></trkpt><trkpt lat="44.3552325" lon="10.4293357"><ele>787.0</ele><time>2026-04-04T09:17:36.947Z</time></trkpt><trkpt lat="44.3551283" lon="10.4291876"><ele>787.0</ele><time>2026-04-04T09:17:37.947Z</time></trkpt><trkpt lat="44.3550168" lon="10.4290461"><ele>787.0</ele><time>2026-04-04T09:17:38.946Z</time></trkpt><trkpt lat="44.3549081" lon="10.4288964"><ele>787.0</ele><time>2026-04-04T09:17:39.947Z</time></trkpt><trkpt lat="44.3547999" lon="10.4287439"><ele>788.75</ele><time>2026-04-04T09:17:40.946Z</time></trkpt><trkpt lat="44.3546999" lon="10.4285885"><ele>790.5</ele><time>2026-04-04T09:17:41.947Z</time></trkpt><trkpt lat="44.3546082" lon="10.4284307"><ele>792.25</ele><time>2026-04-04T09:17:42.947Z</time></trkpt><trkpt lat="44.3545336" lon="10.4282642"><ele>794.0</ele><time>2026-04-04T09:17:43.947Z</time></trkpt><trkpt lat="44.3544756" lon="10.4280764"><ele>792.0</ele><time>2026-04-04T09:17:44.946Z</time></trkpt><trkpt lat="44.3544247" lon="10.4278649"><ele>790.0</ele><time>2026-04-04T09:17:45.947Z</time></trkpt><trkpt lat="44.3543671" lon="10.4276517"><ele>788.0</ele><time>2026-04-04T09:17:46.946Z</time></trkpt><trkpt lat="44.3543056" lon="10.427439"><ele>788.0</ele><time>2026-04-04T09:17:47.947Z</time></trkpt><trkpt lat="44.354255" lon="10.4272246"><ele>788.0</ele><time>2026-04-04T09:17:48.946Z</time></trkpt><trkpt lat="44.3542251" lon="10.4270053"><ele>788.0</ele><time>2026-04-04T09:17:49.946Z</time></trkpt><trkpt lat="44.3542107" lon="10.4267834"><ele>787.75</ele><time>2026-04-04T09:17:50.946Z</time></trkpt><trkpt lat="44.3541802" lon="10.4265861"><ele>787.5</ele><time>2026-04-04T09:17:51.947Z</time></trkpt><trkpt lat="44.3541152" lon="10.4264159"><ele>787.25</ele><time>2026-04-04T09:17:52.947Z</time></trkpt><trkpt lat="44.3540228" lon="10.4262745"><ele>787.0</ele><time>2026-04-04T09:17:53.947Z</time></trkpt><trkpt lat="44.3539155" lon="10.4261512"><ele>789.75</ele><time>2026-04-04T09:17:54.947Z</time></trkpt><trkpt lat="44.3538455" lon="10.425998"><ele>792.5</ele><time>2026-04-04T09:17:55.946Z</time></trkpt><trkpt lat="44.3538105" lon="10.4258119"><ele>795.25</ele><time>2026-04-04T09:17:56.947Z</time></trkpt><trkpt lat="44.3537929" lon="10.4256014"><ele>798.0</ele><time>2026-04-04T09:17:57.947Z</time></trkpt><trkpt lat="44.3537766" lon="10.4253926"><ele>798.6666666666667</ele><time>2026-04-04T09:17:58.947Z</time></trkpt><trkpt lat="44.3537566" lon="10.4251642"><ele>799.3333333333334</ele><time>2026-04-04T09:17:59.947Z</time></trkpt><trkpt lat="44.3537311" lon="10.4249345"><ele>800.0</ele><time>2026-04-04T09:18:00.946Z</time></trkpt><trkpt lat="44.3536978" lon="10.4247096"><ele>799.3333333333334</ele><time>2026-04-04T09:18:01.947Z</time></trkpt><trkpt lat="44.3536589" lon="10.4244892"><ele>798.6666666666667</ele><time>2026-04-04T09:18:02.947Z</time></trkpt><trkpt lat="44.3536157" lon="10.4242682"><ele>798.0</ele><time>2026-04-04T09:18:03.947Z</time></trkpt><trkpt lat="44.3535727" lon="10.4240508"><ele>798.0</ele><time>2026-04-04T09:18:04.947Z</time></trkpt><trkpt lat="44.3535509" lon="10.4238279"><ele>798.0</ele><time>2026-04-04T09:18:05.946Z</time></trkpt><trkpt lat="44.353551" lon="10.4236063"><ele>798.0</ele><time>2026-04-04T09:18:06.947Z</time></trkpt><trkpt lat="44.353576" lon="10.4233882"><ele>797.3333333333333</ele><time>2026-04-04T09:18:07.947Z</time></trkpt><trkpt lat="44.3536177" lon="10.4231713"><ele>796.6666666666666</ele><time>2026-04-04T09:18:08.947Z</time></trkpt><trkpt lat="44.353658" lon="10.4229598"><ele>796.0</ele><time>2026-04-04T09:18:09.947Z</time></trkpt><trkpt lat="44.3536914" lon="10.4227395"><ele>797.6666666666666</ele><time>2026-04-04T09:18:10.947Z</time></trkpt><trkpt lat="44.3537155" lon="10.4225203"><ele>799.3333333333333</ele><time>2026-04-04T09:18:11.947Z</time></trkpt><trkpt lat="44.3537409" lon="10.4223052"><ele>801.0</ele><time>2026-04-04T09:18:12.946Z</time></trkpt><trkpt lat="44.3537786" lon="10.4220966"><ele>800.1999999999999</ele><time>2026-04-04T09:18:13.946Z</time></trkpt><trkpt lat="44.3538319" lon="10.4219236"><ele>799.4</ele><time>2026-04-04T09:18:14.947Z</time></trkpt><trkpt lat="44.3539076" lon="10.421808"><ele>798.6</ele><time>2026-04-04T09:18:15.946Z</time></trkpt><trkpt lat="44.353972" lon="10.4217124"><ele>797.8</ele><time>2026-04-04T09:18:16.947Z</time></trkpt><trkpt lat="44.354013" lon="10.4216035"><ele>797.0</ele><time>2026-04-04T09:18:17.947Z</time></trkpt><trkpt lat="44.3540343" lon="10.4214759"><ele>797.0</ele><time>2026-04-04T09:18:18.946Z</time></trkpt><trkpt lat="44.3540422" lon="10.421331"><ele>797.0</ele><time>2026-04-04T09:18:19.946Z</time></trkpt><trkpt lat="44.3540525" lon="10.4211871"><ele>797.0</ele><time>2026-04-04T09:18:20.946Z</time></trkpt><trkpt lat="44.3540755" lon="10.4210696"><ele>797.0</ele><time>2026-04-04T09:18:21.947Z</time></trkpt><trkpt lat="44.3541177" lon="10.4209661"><ele>797.0</ele><time>2026-04-04T09:18:22.947Z</time></trkpt><trkpt lat="44.3541954" lon="10.420883"><ele>799.6</ele><time>2026-04-04T09:18:23.946Z</time></trkpt><trkpt lat="44.3542987" lon="10.420849"><ele>802.2</ele><time>2026-04-04T09:18:24.947Z</time></trkpt><trkpt lat="44.354412" lon="10.4208682"><ele>804.8</ele><time>2026-04-04T09:18:25.946Z</time></trkpt><trkpt lat="44.3545132" lon="10.420904"><ele>807.4</ele><time>2026-04-04T09:18:26.946Z</time></trkpt><trkpt lat="44.3546083" lon="10.4209307"><ele>810.0</ele><time>2026-04-04T09:18:27.947Z</time></trkpt><trkpt lat="44.354694" lon="10.4209222"><ele>810.0</ele><time>2026-04-04T09:18:28.947Z</time></trkpt><trkpt lat="44.3547828" lon="10.420872"><ele>810.0</ele><time>2026-04-04T09:18:29.946Z</time></trkpt><trkpt lat="44.3548549" lon="10.4207737"><ele>810.0</ele><time>2026-04-04T09:18:30.947Z</time></trkpt><trkpt lat="44.3549228" lon="10.4206624"><ele>810.0</ele><time>2026-04-04T09:18:31.947Z</time></trkpt><trkpt lat="44.3549998" lon="10.4205483"><ele>810.0</ele><time>2026-04-04T09:18:32.947Z</time></trkpt><trkpt lat="44.3550861" lon="10.4204427"><ele>813.5</ele><time>2026-04-04T09:18:33.947Z</time></trkpt><trkpt lat="44.3551837" lon="10.4203396"><ele>817.0</ele><time>2026-04-04T09:18:34.947Z</time></trkpt><trkpt lat="44.355292" lon="10.420245"><ele>820.5</ele><time>2026-04-04T09:18:35.947Z</time></trkpt><trkpt lat="44.3554065" lon="10.4201557"><ele>824.0</ele><time>2026-04-04T09:18:36.947Z</time></trkpt><trkpt lat="44.3555152" lon="10.4200724"><ele>823.6666666666667</ele><time>2026-04-04T09:18:37.947Z</time></trkpt><trkpt lat="44.3556028" lon="10.4199913"><ele>823.3333333333334</ele><time>2026-04-04T09:18:38.947Z</time></trkpt><trkpt lat="44.3556682" lon="10.4199168"><ele>823.0</ele><time>2026-04-04T09:18:39.946Z</time></trkpt><trkpt lat="44.3557082" lon="10.4198328"><ele>822.6666666666667</ele><time>2026-04-04T09:18:40.946Z</time></trkpt><trkpt lat="44.3557224" lon="10.4197462"><ele>822.3333333333334</ele><time>2026-04-04T09:18:41.947Z</time></trkpt><trkpt lat="44.3557143" lon="10.4195998"><ele>822.0</ele><time>2026-04-04T09:18:43.947Z</time></trkpt><trkpt lat="44.3556855" lon="10.41945"><ele>822.0</ele><time>2026-04-04T09:18:45.947Z</time></trkpt><trkpt lat="44.3556544" lon="10.4193277"><ele>822.0</ele><time>2026-04-04T09:18:47.947Z</time></trkpt><trkpt lat="44.3556306" lon="10.4192386"><ele>822.0</ele><time>2026-04-04T09:18:49.946Z</time></trkpt><trkpt lat="44.3556032" lon="10.4191471"><ele>822.0</ele><time>2026-04-04T09:18:51.947Z</time></trkpt><trkpt lat="44.3555335" lon="10.4190819"><ele>822.0</ele><time>2026-04-04T09:18:53.946Z</time></trkpt><trkpt lat="44.3554622" lon="10.4190645"><ele>822.0</ele><time>2026-04-04T09:18:54.947Z</time></trkpt><trkpt lat="44.3553727" lon="10.419061"><ele>823.8</ele><time>2026-04-04T09:18:55.946Z</time></trkpt><trkpt lat="44.3552828" lon="10.4190694"><ele>825.6</ele><time>2026-04-04T09:18:56.947Z</time></trkpt><trkpt lat="44.3551862" lon="10.4190691"><ele>827.4</ele><time>2026-04-04T09:18:57.947Z</time></trkpt><trkpt lat="44.3550833" lon="10.4190721"><ele>829.1999999999999</ele><time>2026-04-04T09:18:58.946Z</time></trkpt><trkpt lat="44.354973" lon="10.4190727"><ele>831.0</ele><time>2026-04-04T09:18:59.947Z</time></trkpt><trkpt lat="44.3548597" lon="10.4190765"><ele>831.0</ele><time>2026-04-04T09:19:00.947Z</time></trkpt><trkpt lat="44.3547523" lon="10.4190849"><ele>831.0</ele><time>2026-04-04T09:19:01.947Z</time></trkpt><trkpt lat="44.354661" lon="10.4190816"><ele>831.0</ele><time>2026-04-04T09:19:02.947Z</time></trkpt><trkpt lat="44.3545896" lon="10.4190308"><ele>831.0</ele><time>2026-04-04T09:19:03.947Z</time></trkpt><trkpt lat="44.3545504" lon="10.4189598"><ele>831.0</ele><time>2026-04-04T09:19:04.946Z</time></trkpt><trkpt lat="44.3545451" lon="10.4188629"><ele>831.0</ele><time>2026-04-04T09:19:05.947Z</time></trkpt><trkpt lat="44.3545822" lon="10.4187487"><ele>832.0</ele><time>2026-04-04T09:19:06.947Z</time></trkpt><trkpt lat="44.3546268" lon="10.4186337"><ele>833.0</ele><time>2026-04-04T09:19:07.947Z</time></trkpt><trkpt lat="44.3546713" lon="10.4185095"><ele>834.0</ele><time>2026-04-04T09:19:08.947Z</time></trkpt><trkpt lat="44.3547054" lon="10.4183709"><ele>835.0</ele><time>2026-04-04T09:19:09.947Z</time></trkpt><trkpt lat="44.3547214" lon="10.4182146"><ele>836.0</ele><time>2026-04-04T09:19:10.947Z</time></trkpt><trkpt lat="44.3547268" lon="10.4180506"><ele>836.25</ele><time>2026-04-04T09:19:11.947Z</time></trkpt><trkpt lat="44.3547259" lon="10.4178779"><ele>836.5</ele><time>2026-04-04T09:19:12.947Z</time></trkpt><trkpt lat="44.3547206" lon="10.4177136"><ele>836.75</ele><time>2026-04-04T09:19:13.947Z</time></trkpt><trkpt lat="44.3547061" lon="10.4175473"><ele>837.0</ele><time>2026-04-04T09:19:14.947Z</time></trkpt><trkpt lat="44.3546745" lon="10.4173822"><ele>842.5</ele><time>2026-04-04T09:19:15.947Z</time></trkpt><trkpt lat="44.3546212" lon="10.4172299"><ele>848.0</ele><time>2026-04-04T09:19:16.946Z</time></trkpt><trkpt lat="44.3545585" lon="10.4170807"><ele>853.5</ele><time>2026-04-04T09:19:17.946Z</time></trkpt><trkpt lat="44.3544991" lon="10.4169433"><ele>859.0</ele><time>2026-04-04T09:19:18.947Z</time></trkpt><trkpt lat="44.3544529" lon="10.4168037"><ele>859.4000000000001</ele><time>2026-04-04T09:19:19.947Z</time></trkpt><trkpt lat="44.3544267" lon="10.4166582"><ele>859.8000000000001</ele><time>2026-04-04T09:19:20.947Z</time></trkpt><trkpt lat="44.3544057" lon="10.4165138"><ele>860.1999999999999</ele><time>2026-04-04T09:19:21.946Z</time></trkpt><trkpt lat="44.354377" lon="10.4163739"><ele>860.5999999999999</ele><time>2026-04-04T09:19:22.947Z</time></trkpt><trkpt lat="44.3543319" lon="10.416244"><ele>861.0</ele><time>2026-04-04T09:19:23.947Z</time></trkpt><trkpt lat="44.3542767" lon="10.4161316"><ele>861.0</ele><time>2026-04-04T09:19:24.947Z</time></trkpt><trkpt lat="44.3542159" lon="10.4160317"><ele>861.0</ele><time>2026-04-04T09:19:25.946Z</time></trkpt><trkpt lat="44.3541598" lon="10.4159441"><ele>861.0</ele><time>2026-04-04T09:19:26.947Z</time></trkpt><trkpt lat="44.3541237" lon="10.4158363"><ele>861.0</ele><time>2026-04-04T09:19:27.947Z</time></trkpt><trkpt lat="44.3541026" lon="10.4157208"><ele>861.0</ele><time>2026-04-04T09:19:28.946Z</time></trkpt><trkpt lat="44.3540985" lon="10.4155911"><ele>861.0</ele><time>2026-04-04T09:19:29.947Z</time></trkpt><trkpt lat="44.3541148" lon="10.415468"><ele>861.6666666666666</ele><time>2026-04-04T09:19:30.947Z</time></trkpt><trkpt lat="44.3541514" lon="10.4153701"><ele>862.3333333333333</ele><time>2026-04-04T09:19:31.947Z</time></trkpt><trkpt lat="44.3542025" lon="10.4152844"><ele>863.0</ele><time>2026-04-04T09:19:32.947Z</time></trkpt><trkpt lat="44.3542627" lon="10.4151981"><ele>863.6666666666666</ele><time>2026-04-04T09:19:33.946Z</time></trkpt><trkpt lat="44.3543193" lon="10.4151077"><ele>864.3333333333333</ele><time>2026-04-04T09:19:34.947Z</time></trkpt><trkpt lat="44.3543756" lon="10.4150211"><ele>865.0</ele><time>2026-04-04T09:19:35.946Z</time></trkpt><trkpt lat="44.3544383" lon="10.4149316"><ele>865.0</ele><time>2026-04-04T09:19:36.946Z</time></trkpt><trkpt lat="44.3545025" lon="10.4148437"><ele>865.0</ele><time>2026-04-04T09:19:37.946Z</time></trkpt><trkpt lat="44.3545769" lon="10.4147737"><ele>865.0</ele><time>2026-04-04T09:19:38.946Z</time></trkpt><trkpt lat="44.3546605" lon="10.4147335"><ele>865.0</ele><time>2026-04-04T09:19:39.947Z</time></trkpt><trkpt lat="44.3547571" lon="10.414717"><ele>865.0</ele><time>2026-04-04T09:19:40.947Z</time></trkpt><trkpt lat="44.3548547" lon="10.4147154"><ele>864.9999999999999</ele><time>2026-04-04T09:19:41.946Z</time></trkpt><trkpt lat="44.3549572" lon="10.41472"><ele>865.0</ele><time>2026-04-04T09:19:42.946Z</time></trkpt><trkpt lat="44.3550547" lon="10.4147285"><ele>865.0</ele><time>2026-04-04T09:19:43.947Z</time></trkpt><trkpt lat="44.3551425" lon="10.4147251"><ele>865.0</ele><time>2026-04-04T09:19:44.947Z</time></trkpt><trkpt lat="44.3552174" lon="10.4147032"><ele>864.9999999999999</ele><time>2026-04-04T09:19:45.947Z</time></trkpt><trkpt lat="44.3552696" lon="10.414653"><ele>865.0</ele><time>2026-04-04T09:19:46.946Z</time></trkpt><trkpt lat="44.3553128" lon="10.4145879"><ele>866.6666666666666</ele><time>2026-04-04T09:19:47.946Z</time></trkpt><trkpt lat="44.3553522" lon="10.4145098"><ele>868.3333333333333</ele><time>2026-04-04T09:19:48.947Z</time></trkpt><trkpt lat="44.3553701" lon="10.4144074"><ele>870.0</ele><time>2026-04-04T09:19:49.946Z</time></trkpt><trkpt lat="44.3553645" lon="10.414303"><ele>871.6666666666667</ele><time>2026-04-04T09:19:50.947Z</time></trkpt><trkpt lat="44.355323" lon="10.414216"><ele>873.3333333333334</ele><time>2026-04-04T09:19:51.947Z</time></trkpt><trkpt lat="44.3552604" lon="10.4141354"><ele>875.0</ele><time>2026-04-04T09:19:52.946Z</time></trkpt><trkpt lat="44.3551764" lon="10.4140342"><ele>875.0</ele><time>2026-04-04T09:19:53.947Z</time></trkpt><trkpt lat="44.3550887" lon="10.4139218"><ele>875.0</ele><time>2026-04-04T09:19:54.947Z</time></trkpt><trkpt lat="44.3549968" lon="10.4137952"><ele>875.0</ele><time>2026-04-04T09:19:55.946Z</time></trkpt><trkpt lat="44.3548883" lon="10.4136735"><ele>875.0</ele><time>2026-04-04T09:19:56.947Z</time></trkpt><trkpt lat="44.3547706" lon="10.4135668"><ele>879.0</ele><time>2026-04-04T09:19:57.947Z</time></trkpt><trkpt lat="44.3546572" lon="10.4134587"><ele>883.0</ele><time>2026-04-04T09:19:58.947Z</time></trkpt><trkpt lat="44.3545585" lon="10.4133524"><ele>887.0</ele><time>2026-04-04T09:19:59.946Z</time></trkpt><trkpt lat="44.3544669" lon="10.4132442"><ele>891.0</ele><time>2026-04-04T09:20:00.947Z</time></trkpt><trkpt lat="44.3543746" lon="10.4131448"><ele>891.0</ele><time>2026-04-04T09:20:01.946Z</time></trkpt><trkpt lat="44.3542803" lon="10.4130535"><ele>890.9999999999999</ele><time>2026-04-04T09:20:02.946Z</time></trkpt><trkpt lat="44.3541925" lon="10.4129598"><ele>890.9999999999999</ele><time>2026-04-04T09:20:03.947Z</time></trkpt><trkpt lat="44.3541024" lon="10.4128653"><ele>891.0</ele><time>2026-04-04T09:20:04.947Z</time></trkpt><trkpt lat="44.3540093" lon="10.4127822"><ele>891.0</ele><time>2026-04-04T09:20:05.947Z</time></trkpt><trkpt lat="44.3539096" lon="10.4127107"><ele>896.5999999999999</ele><time>2026-04-04T09:20:06.946Z</time></trkpt><trkpt lat="44.3538102" lon="10.4126696"><ele>902.1999999999999</ele><time>2026-04-04T09:20:07.947Z</time></trkpt><trkpt lat="44.353701" lon="10.4126423"><ele>907.8000000000001</ele><time>2026-04-04T09:20:08.947Z</time></trkpt><trkpt lat="44.3535911" lon="10.4126221"><ele>913.4000000000001</ele><time>2026-04-04T09:20:09.946Z</time></trkpt><trkpt lat="44.3534842" lon="10.4126146"><ele>919.0</ele><time>2026-04-04T09:20:10.947Z</time></trkpt><trkpt lat="44.3533867" lon="10.4126206"><ele>919.0</ele><time>2026-04-04T09:20:11.947Z</time></trkpt><trkpt lat="44.353301" lon="10.4126516"><ele>919.0000000000001</ele><time>2026-04-04T09:20:12.947Z</time></trkpt><trkpt lat="44.3532257" lon="10.4127137"><ele>919.0000000000001</ele><time>2026-04-04T09:20:13.946Z</time></trkpt><trkpt lat="44.353164" lon="10.4128013"><ele>919.0</ele><time>2026-04-04T09:20:14.947Z</time></trkpt><trkpt lat="44.353117" lon="10.4129179"><ele>919.0</ele><time>2026-04-04T09:20:15.947Z</time></trkpt><trkpt lat="44.3530751" lon="10.4130593"><ele>922.8000000000001</ele><time>2026-04-04T09:20:16.946Z</time></trkpt><trkpt lat="44.3530266" lon="10.4132017"><ele>926.6000000000001</ele><time>2026-04-04T09:20:17.947Z</time></trkpt><trkpt lat="44.3529709" lon="10.413336"><ele>930.4</ele><time>2026-04-04T09:20:18.946Z</time></trkpt><trkpt lat="44.3529103" lon="10.4134636"><ele>934.2</ele><time>2026-04-04T09:20:19.947Z</time></trkpt><trkpt lat="44.3528511" lon="10.4135925"><ele>938.0</ele><time>2026-04-04T09:20:20.947Z</time></trkpt><trkpt lat="44.3528065" lon="10.4137212"><ele>938.0</ele><time>2026-04-04T09:20:21.947Z</time></trkpt><trkpt lat="44.3527672" lon="10.4138285"><ele>938.0</ele><time>2026-04-04T09:20:22.946Z</time></trkpt><trkpt lat="44.3527239" lon="10.4139083"><ele>938.0</ele><time>2026-04-04T09:20:23.947Z</time></trkpt><trkpt lat="44.3526289" lon="10.4139199"><ele>938.0</ele><time>2026-04-04T09:20:25.947Z</time></trkpt><trkpt lat="44.3525625" lon="10.4137959"><ele>938.0</ele><time>2026-04-04T09:20:27.947Z</time></trkpt><trkpt lat="44.3525927" lon="10.4136369"><ele>938.0</ele><time>2026-04-04T09:20:29.947Z</time></trkpt><trkpt lat="44.3526253" lon="10.413521"><ele>938.0</ele><time>2026-04-04T09:20:30.947Z</time></trkpt><trkpt lat="44.3526685" lon="10.4133934"><ele>938.0</ele><time>2026-04-04T09:20:31.947Z</time></trkpt><trkpt lat="44.3527062" lon="10.4132609"><ele>938.0</ele><time>2026-04-04T09:20:32.947Z</time></trkpt><trkpt lat="44.352749" lon="10.4131172"><ele>938.0</ele><time>2026-04-04T09:20:33.946Z</time></trkpt><trkpt lat="44.3527821" lon="10.4129692"><ele>942.5</ele><time>2026-04-04T09:20:34.947Z</time></trkpt><trkpt lat="44.3527967" lon="10.412805"><ele>947.0</ele><time>2026-04-04T09:20:35.947Z</time></trkpt><trkpt lat="44.3528063" lon="10.4126278"><ele>951.5</ele><time>2026-04-04T09:20:36.947Z</time></trkpt><trkpt lat="44.3528374" lon="10.4124802"><ele>956.0</ele><time>2026-04-04T09:20:37.946Z</time></trkpt><trkpt lat="44.352886" lon="10.4123624"><ele>956.0</ele><time>2026-04-04T09:20:38.947Z</time></trkpt><trkpt lat="44.3529653" lon="10.4122678"><ele>956.0</ele><time>2026-04-04T09:20:39.947Z</time></trkpt><trkpt lat="44.3530593" lon="10.4121841"><ele>956.0</ele><time>2026-04-04T09:20:40.946Z</time></trkpt><trkpt lat="44.3531584" lon="10.4120857"><ele>956.0</ele><time>2026-04-04T09:20:41.946Z</time></trkpt><trkpt lat="44.3532594" lon="10.411972"><ele>950.75</ele><time>2026-04-04T09:20:42.946Z</time></trkpt><trkpt lat="44.3533495" lon="10.4118471"><ele>945.5</ele><time>2026-04-04T09:20:43.947Z</time></trkpt><trkpt lat="44.3534337" lon="10.4117137"><ele>940.25</ele><time>2026-04-04T09:20:44.947Z</time></trkpt><trkpt lat="44.3535019" lon="10.4115685"><ele>935.0</ele><time>2026-04-04T09:20:45.947Z</time></trkpt><trkpt lat="44.3535484" lon="10.4114178"><ele>936.2</ele><time>2026-04-04T09:20:46.947Z</time></trkpt><trkpt lat="44.3535867" lon="10.4112801"><ele>937.4</ele><time>2026-04-04T09:20:47.947Z</time></trkpt><trkpt lat="44.353623" lon="10.4111546"><ele>938.5999999999999</ele><time>2026-04-04T09:20:48.947Z</time></trkpt><trkpt lat="44.3536435" lon="10.4110383"><ele>939.8</ele><time>2026-04-04T09:20:49.946Z</time></trkpt><trkpt lat="44.3536466" lon="10.4109024"><ele>941.0</ele><time>2026-04-04T09:20:50.947Z</time></trkpt><trkpt lat="44.3536325" lon="10.4107558"><ele>941.0</ele><time>2026-04-04T09:20:51.947Z</time></trkpt><trkpt lat="44.353594" lon="10.4106101"><ele>940.9999999999999</ele><time>2026-04-04T09:20:52.947Z</time></trkpt><trkpt lat="44.3535403" lon="10.4104778"><ele>940.9999999999999</ele><time>2026-04-04T09:20:53.946Z</time></trkpt><trkpt lat="44.3534872" lon="10.4103525"><ele>941.0</ele><time>2026-04-04T09:20:54.947Z</time></trkpt><trkpt lat="44.3534348" lon="10.4102262"><ele>941.0</ele><time>2026-04-04T09:20:55.946Z</time></trkpt><trkpt lat="44.3533783" lon="10.4100974"><ele>942.0000000000001</ele><time>2026-04-04T09:20:56.947Z</time></trkpt><trkpt lat="44.353317" lon="10.4099722"><ele>943.0</ele><time>2026-04-04T09:20:57.947Z</time></trkpt><trkpt lat="44.3532656" lon="10.4098574"><ele>944.0</ele><time>2026-04-04T09:20:58.947Z</time></trkpt><trkpt lat="44.3532515" lon="10.4097559"><ele>945.0</ele><time>2026-04-04T09:20:59.946Z</time></trkpt><trkpt lat="44.3532686" lon="10.4096637"><ele>946.0000000000001</ele><time>2026-04-04T09:21:00.947Z</time></trkpt><trkpt lat="44.3533083" lon="10.409576"><ele>947.0</ele><time>2026-04-04T09:21:01.947Z</time></trkpt><trkpt lat="44.3533694" lon="10.4094868"><ele>949.6</ele><time>2026-04-04T09:21:02.947Z</time></trkpt><trkpt lat="44.3534373" lon="10.4093859"><ele>952.2</ele><time>2026-04-04T09:21:03.947Z</time></trkpt><trkpt lat="44.3535247" lon="10.4092931"><ele>954.8</ele><time>2026-04-04T09:21:04.947Z</time></trkpt><trkpt lat="44.3536287" lon="10.4092355"><ele>957.4</ele><time>2026-04-04T09:21:05.947Z</time></trkpt><trkpt lat="44.3537421" lon="10.4092135"><ele>960.0</ele><time>2026-04-04T09:21:06.946Z</time></trkpt><trkpt lat="44.3538561" lon="10.4092109"><ele>960.0</ele><time>2026-04-04T09:21:07.946Z</time></trkpt><trkpt lat="44.3539589" lon="10.4091995"><ele>960.0</ele><time>2026-04-04T09:21:08.946Z</time></trkpt><trkpt lat="44.3540348" lon="10.4091587"><ele>960.0</ele><time>2026-04-04T09:21:09.947Z</time></trkpt><trkpt lat="44.3540715" lon="10.4090116"><ele>960.0</ele><time>2026-04-04T09:21:11.947Z</time></trkpt><trkpt lat="44.3540563" lon="10.4089253"><ele>960.0</ele><time>2026-04-04T09:21:12.947Z</time></trkpt><trkpt lat="44.3539922" lon="10.4088753"><ele>960.0</ele><time>2026-04-04T09:21:13.947Z</time></trkpt><trkpt lat="44.3538978" lon="10.4088333"><ele>965.2</ele><time>2026-04-04T09:21:14.947Z</time></trkpt><trkpt lat="44.3538127" lon="10.4087561"><ele>970.4</ele><time>2026-04-04T09:21:15.946Z</time></trkpt><trkpt lat="44.3537374" lon="10.408666"><ele>975.5999999999999</ele><time>2026-04-04T09:21:16.947Z</time></trkpt><trkpt lat="44.3536603" lon="10.4086028"><ele>980.8</ele><time>2026-04-04T09:21:17.947Z</time></trkpt><trkpt lat="44.3535758" lon="10.4085567"><ele>986.0</ele><time>2026-04-04T09:21:18.947Z</time></trkpt><trkpt lat="44.353484" lon="10.4085222"><ele>986.0</ele><time>2026-04-04T09:21:19.947Z</time></trkpt><trkpt lat="44.3533958" lon="10.4085117"><ele>985.9999999999999</ele><time>2026-04-04T09:21:20.946Z</time></trkpt><trkpt lat="44.3533065" lon="10.4085463"><ele>985.9999999999999</ele><time>2026-04-04T09:21:21.947Z</time></trkpt><trkpt lat="44.3532104" lon="10.4086023"><ele>986.0</ele><time>2026-04-04T09:21:22.946Z</time></trkpt><trkpt lat="44.3531134" lon="10.4086578"><ele>986.0</ele><time>2026-04-04T09:21:23.946Z</time></trkpt><trkpt lat="44.353018" lon="10.4086806"><ele>991.5</ele><time>2026-04-04T09:21:24.947Z</time></trkpt><trkpt lat="44.3529129" lon="10.4086764"><ele>997.0</ele><time>2026-04-04T09:21:25.946Z</time></trkpt><trkpt lat="44.3527974" lon="10.4086664"><ele>1002.5</ele><time>2026-04-04T09:21:26.947Z</time></trkpt><trkpt lat="44.3526826" lon="10.4086603"><ele>1008.0</ele><time>2026-04-04T09:21:27.946Z</time></trkpt><trkpt lat="44.3525606" lon="10.4086663"><ele>1008.0</ele><time>2026-04-04T09:21:28.946Z</time></trkpt><trkpt lat="44.3524334" lon="10.408676"><ele>1008.0</ele><time>2026-04-04T09:21:29.947Z</time></trkpt><trkpt lat="44.3523163" lon="10.4086963"><ele>1008.0</ele><time>2026-04-04T09:21:30.947Z</time></trkpt><trkpt lat="44.352201" lon="10.4087317"><ele>1008.0</ele><time>2026-04-04T09:21:31.947Z</time></trkpt><trkpt lat="44.3520898" lon="10.4087849"><ele>1006.5</ele><time>2026-04-04T09:21:32.947Z</time></trkpt><trkpt lat="44.3519726" lon="10.4088339"><ele>1005.0</ele><time>2026-04-04T09:21:33.947Z</time></trkpt><trkpt lat="44.3518537" lon="10.4088902"><ele>1003.5</ele><time>2026-04-04T09:21:34.947Z</time></trkpt><trkpt lat="44.3517374" lon="10.4089453"><ele>1002.0</ele><time>2026-04-04T09:21:35.946Z</time></trkpt><trkpt lat="44.3516269" lon="10.4090105"><ele>1002.0</ele><time>2026-04-04T09:21:36.947Z</time></trkpt><trkpt lat="44.3515354" lon="10.4090956"><ele>1002.0</ele><time>2026-04-04T09:21:37.947Z</time></trkpt><trkpt lat="44.3514672" lon="10.4092117"><ele>1002.0</ele><time>2026-04-04T09:21:38.947Z</time></trkpt><trkpt lat="44.351407" lon="10.4093429"><ele>1002.0</ele><time>2026-04-04T09:21:39.947Z</time></trkpt><trkpt lat="44.3513431" lon="10.4094879"><ele>1007.5</ele><time>2026-04-04T09:21:40.947Z</time></trkpt><trkpt lat="44.3512547" lon="10.4096055"><ele>1013.0</ele><time>2026-04-04T09:21:41.947Z</time></trkpt><trkpt lat="44.3511575" lon="10.4097058"><ele>1018.5</ele><time>2026-04-04T09:21:42.947Z</time></trkpt><trkpt lat="44.3510826" lon="10.4098181"><ele>1024.0</ele><time>2026-04-04T09:21:43.947Z</time></trkpt><trkpt lat="44.3510321" lon="10.4099637"><ele>1024.0</ele><time>2026-04-04T09:21:44.947Z</time></trkpt><trkpt lat="44.3509876" lon="10.4101113"><ele>1024.0</ele><time>2026-04-04T09:21:45.947Z</time></trkpt><trkpt lat="44.3509599" lon="10.4102724"><ele>1024.0</ele><time>2026-04-04T09:21:46.947Z</time></trkpt><trkpt lat="44.3509573" lon="10.410425"><ele>1024.0</ele><time>2026-04-04T09:21:47.947Z</time></trkpt><trkpt lat="44.3509751" lon="10.4105671"><ele>1024.0</ele><time>2026-04-04T09:21:48.947Z</time></trkpt><trkpt lat="44.3509967" lon="10.410706"><ele>1023.4000000000001</ele><time>2026-04-04T09:21:49.947Z</time></trkpt><trkpt lat="44.3510125" lon="10.4108406"><ele>1022.8000000000001</ele><time>2026-04-04T09:21:50.946Z</time></trkpt><trkpt lat="44.3509977" lon="10.41098"><ele>1022.1999999999999</ele><time>2026-04-04T09:21:51.947Z</time></trkpt><trkpt lat="44.3509496" lon="10.4111323"><ele>1021.5999999999999</ele><time>2026-04-04T09:21:52.946Z</time></trkpt><trkpt lat="44.3508916" lon="10.4112886"><ele>1021.0</ele><time>2026-04-04T09:21:53.947Z</time></trkpt><trkpt lat="44.3508472" lon="10.4114174"><ele>1019.4999999999999</ele><time>2026-04-04T09:21:54.947Z</time></trkpt><trkpt lat="44.3508001" lon="10.4114783"><ele>1018.0</ele><time>2026-04-04T09:21:55.947Z</time></trkpt><trkpt lat="44.3507272" lon="10.4115169"><ele>1016.5</ele><time>2026-04-04T09:21:56.947Z</time></trkpt><trkpt lat="44.3506517" lon="10.4115249"><ele>1015.0</ele><time>2026-04-04T09:21:57.947Z</time></trkpt><trkpt lat="44.3505667" lon="10.4114975"><ele>1013.4999999999999</ele><time>2026-04-04T09:21:58.947Z</time></trkpt><trkpt lat="44.3504737" lon="10.4114461"><ele>1012.0</ele><time>2026-04-04T09:21:59.946Z</time></trkpt><trkpt lat="44.3503766" lon="10.4114083"><ele>1012.0</ele><time>2026-04-04T09:22:00.946Z</time></trkpt><trkpt lat="44.3502675" lon="10.4113563"><ele>1012.0</ele><time>2026-04-04T09:22:01.947Z</time></trkpt><trkpt lat="44.3501493" lon="10.411286"><ele>1012.0</ele><time>2026-04-04T09:22:02.946Z</time></trkpt><trkpt lat="44.350042" lon="10.4111969"><ele>1012.0</ele><time>2026-04-04T09:22:03.947Z</time></trkpt><trkpt lat="44.3499593" lon="10.4110817"><ele>1018.0</ele><time>2026-04-04T09:22:04.947Z</time></trkpt><trkpt lat="44.3498882" lon="10.4109551"><ele>1024.0</ele><time>2026-04-04T09:22:05.946Z</time></trkpt><trkpt lat="44.3498034" lon="10.4108351"><ele>1030.0</ele><time>2026-04-04T09:22:06.946Z</time></trkpt><trkpt lat="44.3497041" lon="10.4107371"><ele>1036.0</ele><time>2026-04-04T09:22:07.947Z</time></trkpt><trkpt lat="44.3496082" lon="10.4106588"><ele>1036.0</ele><time>2026-04-04T09:22:08.947Z</time></trkpt><trkpt lat="44.3495226" lon="10.4106166"><ele>1036.0</ele><time>2026-04-04T09:22:09.947Z</time></trkpt><trkpt lat="44.3494349" lon="10.41064"><ele>1036.0</ele><time>2026-04-04T09:22:10.947Z</time></trkpt><trkpt lat="44.3493492" lon="10.4106957"><ele>1036.0</ele><time>2026-04-04T09:22:11.947Z</time></trkpt><trkpt lat="44.3492652" lon="10.4107331"><ele>1036.0</ele><time>2026-04-04T09:22:12.946Z</time></trkpt><trkpt lat="44.3491834" lon="10.4107199"><ele>1036.0</ele><time>2026-04-04T09:22:13.947Z</time></trkpt><trkpt lat="44.3491029" lon="10.4106662"><ele>1036.0</ele><time>2026-04-04T09:22:14.947Z</time></trkpt><trkpt lat="44.349036" lon="10.4105827"><ele>1036.0</ele><time>2026-04-04T09:22:15.946Z</time></trkpt><trkpt lat="44.3489676" lon="10.4104761"><ele>1036.0</ele><time>2026-04-04T09:22:16.947Z</time></trkpt><trkpt lat="44.3488815" lon="10.4103542"><ele>1036.0</ele><time>2026-04-04T09:22:17.947Z</time></trkpt><trkpt lat="44.3487822" lon="10.410249"><ele>1036.0</ele><time>2026-04-04T09:22:18.947Z</time></trkpt><trkpt lat="44.348688" lon="10.4101416"><ele>1039.0</ele><time>2026-04-04T09:22:19.946Z</time></trkpt><trkpt lat="44.3485993" lon="10.4100259"><ele>1042.0</ele><time>2026-04-04T09:22:20.946Z</time></trkpt><trkpt lat="44.3485179" lon="10.4099042"><ele>1045.0</ele><time>2026-04-04T09:22:21.947Z</time></trkpt><trkpt lat="44.3484439" lon="10.4097725"><ele>1048.0</ele><time>2026-04-04T09:22:22.947Z</time></trkpt><trkpt lat="44.3483714" lon="10.4096322"><ele>1053.0</ele><time>2026-04-04T09:22:23.946Z</time></trkpt><trkpt lat="44.3482986" lon="10.4094923"><ele>1058.0</ele><time>2026-04-04T09:22:24.947Z</time></trkpt><trkpt lat="44.3482273" lon="10.4093503"><ele>1063.0</ele><time>2026-04-04T09:22:25.946Z</time></trkpt><trkpt lat="44.348152" lon="10.4092112"><ele>1068.0</ele><time>2026-04-04T09:22:26.947Z</time></trkpt><trkpt lat="44.34806" lon="10.4090812"><ele>1066.25</ele><time>2026-04-04T09:22:27.947Z</time></trkpt><trkpt lat="44.347964" lon="10.4089729"><ele>1064.5</ele><time>2026-04-04T09:22:28.946Z</time></trkpt><trkpt lat="44.3478823" lon="10.4088624"><ele>1062.75</ele><time>2026-04-04T09:22:29.947Z</time></trkpt><trkpt lat="44.3478195" lon="10.4087373"><ele>1061.0</ele><time>2026-04-04T09:22:30.947Z</time></trkpt><trkpt lat="44.3477726" lon="10.4086074"><ele>1063.6666666666667</ele><time>2026-04-04T09:22:31.947Z</time></trkpt><trkpt lat="44.3477485" lon="10.4085024"><ele>1066.3333333333335</ele><time>2026-04-04T09:22:32.946Z</time></trkpt><trkpt lat="44.3477887" lon="10.4084035"><ele>1069.0</ele><time>2026-04-04T09:22:34.947Z</time></trkpt><trkpt lat="44.3478841" lon="10.4084377"><ele>1071.6666666666667</ele><time>2026-04-04T09:22:36.946Z</time></trkpt><trkpt lat="44.3479194" lon="10.4085368"><ele>1074.3333333333333</ele><time>2026-04-04T09:22:37.947Z</time></trkpt><trkpt lat="44.3479643" lon="10.408635"><ele>1077.0</ele><time>2026-04-04T09:22:38.947Z</time></trkpt><trkpt lat="44.3480267" lon="10.4087192"><ele>1075.2</ele><time>2026-04-04T09:22:39.947Z</time></trkpt><trkpt lat="44.3480974" lon="10.4087855"><ele>1073.4</ele><time>2026-04-04T09:22:40.946Z</time></trkpt><trkpt lat="44.3481772" lon="10.4088203"><ele>1071.6</ele><time>2026-04-04T09:22:41.946Z</time></trkpt><trkpt lat="44.3482842" lon="10.4088305"><ele>1069.8</ele><time>2026-04-04T09:22:42.947Z</time></trkpt><trkpt lat="44.3483937" lon="10.4088463"><ele>1068.0</ele><time>2026-04-04T09:22:43.947Z</time></trkpt><trkpt lat="44.3485087" lon="10.4088744"><ele>1068.0</ele><time>2026-04-04T09:22:44.947Z</time></trkpt><trkpt lat="44.3486213" lon="10.4088992"><ele>1068.0</ele><time>2026-04-04T09:22:45.947Z</time></trkpt><trkpt lat="44.3487197" lon="10.4088804"><ele>1068.0</ele><time>2026-04-04T09:22:46.946Z</time></trkpt><trkpt lat="44.3488084" lon="10.4088137"><ele>1068.0</ele><time>2026-04-04T09:22:47.947Z</time></trkpt><trkpt lat="44.3489135" lon="10.4087378"><ele>1068.0</ele><time>2026-04-04T09:22:48.947Z</time></trkpt><trkpt lat="44.3490064" lon="10.4086635"><ele>1071.8333333333333</ele><time>2026-04-04T09:22:49.946Z</time></trkpt><trkpt lat="44.3490714" lon="10.4085918"><ele>1075.6666666666667</ele><time>2026-04-04T09:22:50.947Z</time></trkpt><trkpt lat="44.3491073" lon="10.4085051"><ele>1079.5</ele><time>2026-04-04T09:22:51.946Z</time></trkpt><trkpt lat="44.3491183" lon="10.4083959"><ele>1083.3333333333335</ele><time>2026-04-04T09:22:52.947Z</time></trkpt><trkpt lat="44.3491257" lon="10.4082781"><ele>1087.1666666666667</ele><time>2026-04-04T09:22:53.947Z</time></trkpt><trkpt lat="44.3491725" lon="10.4081966"><ele>1091.0</ele><time>2026-04-04T09:22:54.947Z</time></trkpt><trkpt lat="44.3492418" lon="10.4081684"><ele>1091.0</ele><time>2026-04-04T09:22:55.947Z</time></trkpt><trkpt lat="44.3493071" lon="10.4081597"><ele>1091.0</ele><time>2026-04-04T09:22:56.947Z</time></trkpt><trkpt lat="44.3493835" lon="10.408162"><ele>1091.0</ele><time>2026-04-04T09:22:57.947Z</time></trkpt><trkpt lat="44.3494992" lon="10.4081615"><ele>1091.0</ele><time>2026-04-04T09:22:58.946Z</time></trkpt><trkpt lat="44.3496307" lon="10.4081572"><ele>1091.0</ele><time>2026-04-04T09:22:59.947Z</time></trkpt><trkpt lat="44.3497674" lon="10.4081498"><ele>1091.0</ele><time>2026-04-04T09:23:00.946Z</time></trkpt><trkpt lat="44.3498963" lon="10.4081324"><ele>1091.0</ele><time>2026-04-04T09:23:01.947Z</time></trkpt><trkpt lat="44.3500091" lon="10.4080776"><ele>1091.0</ele><time>2026-04-04T09:23:02.947Z</time></trkpt><trkpt lat="44.3501156" lon="10.4079958"><ele>1091.0</ele><time>2026-04-04T09:23:03.947Z</time></trkpt><trkpt lat="44.3502077" lon="10.4078815"><ele>1096.25</ele><time>2026-04-04T09:23:04.947Z</time></trkpt><trkpt lat="44.3502764" lon="10.4077486"><ele>1101.5</ele><time>2026-04-04T09:23:05.947Z</time></trkpt><trkpt lat="44.3503314" lon="10.4075999"><ele>1106.75</ele><time>2026-04-04T09:23:06.947Z</time></trkpt><trkpt lat="44.3503831" lon="10.4074441"><ele>1112.0</ele><time>2026-04-04T09:23:07.947Z</time></trkpt><trkpt lat="44.3504372" lon="10.4072977"><ele>1109.0</ele><time>2026-04-04T09:23:08.947Z</time></trkpt><trkpt lat="44.3504972" lon="10.4071422"><ele>1106.0</ele><time>2026-04-04T09:23:09.947Z</time></trkpt><trkpt lat="44.3505653" lon="10.406984"><ele>1103.0</ele><time>2026-04-04T09:23:10.947Z</time></trkpt><trkpt lat="44.3506381" lon="10.4068525"><ele>1100.0</ele><time>2026-04-04T09:23:11.947Z</time></trkpt><trkpt lat="44.3506903" lon="10.4067336"><ele>1100.0</ele><time>2026-04-04T09:23:12.946Z</time></trkpt><trkpt lat="44.3506992" lon="10.4066406"><ele>1100.0</ele><time>2026-04-04T09:23:13.947Z</time></trkpt><trkpt lat="44.3506604" lon="10.4065459"><ele>1100.0</ele><time>2026-04-04T09:23:14.947Z</time></trkpt><trkpt lat="44.3505831" lon="10.4064428"><ele>1100.0</ele><time>2026-04-04T09:23:15.946Z</time></trkpt><trkpt lat="44.3504707" lon="10.4063427"><ele>1100.0</ele><time>2026-04-04T09:23:16.946Z</time></trkpt><trkpt lat="44.3503613" lon="10.4062407"><ele>1104.5</ele><time>2026-04-04T09:23:17.947Z</time></trkpt><trkpt lat="44.3502466" lon="10.4061585"><ele>1109.0</ele><time>2026-04-04T09:23:18.947Z</time></trkpt><trkpt lat="44.3501447" lon="10.406077"><ele>1113.5</ele><time>2026-04-04T09:23:19.947Z</time></trkpt><trkpt lat="44.3500479" lon="10.4060037"><ele>1118.0</ele><time>2026-04-04T09:23:20.946Z</time></trkpt><trkpt lat="44.3499547" lon="10.4059175"><ele>1118.0</ele><time>2026-04-04T09:23:21.946Z</time></trkpt><trkpt lat="44.3498746" lon="10.4058069"><ele>1118.0</ele><time>2026-04-04T09:23:22.946Z</time></trkpt><trkpt lat="44.3498033" lon="10.4056965"><ele>1118.0</ele><time>2026-04-04T09:23:23.947Z</time></trkpt><trkpt lat="44.3497261" lon="10.4055866"><ele>1118.0</ele><time>2026-04-04T09:23:24.947Z</time></trkpt><trkpt lat="44.3496289" lon="10.4055042"><ele>1118.0</ele><time>2026-04-04T09:23:25.947Z</time></trkpt><trkpt lat="44.3495347" lon="10.4054478"><ele>1117.5</ele><time>2026-04-04T09:23:26.947Z</time></trkpt><trkpt lat="44.3494307" lon="10.4054411"><ele>1117.0</ele><time>2026-04-04T09:23:27.947Z</time></trkpt><trkpt lat="44.3493099" lon="10.4054639"><ele>1116.5</ele><time>2026-04-04T09:23:28.947Z</time></trkpt><trkpt lat="44.3491941" lon="10.405502"><ele>1116.0</ele><time>2026-04-04T09:23:29.947Z</time></trkpt><trkpt lat="44.3490753" lon="10.4055326"><ele>1119.0</ele><time>2026-04-04T09:23:30.946Z</time></trkpt><trkpt lat="44.3489562" lon="10.4055554"><ele>1122.0</ele><time>2026-04-04T09:23:31.947Z</time></trkpt><trkpt lat="44.3488418" lon="10.4055737"><ele>1125.0</ele><time>2026-04-04T09:23:32.946Z</time></trkpt><trkpt lat="44.3487249" lon="10.4055908"><ele>1128.0</ele><time>2026-04-04T09:23:33.946Z</time></trkpt><trkpt lat="44.3486144" lon="10.4055953"><ele>1128.25</ele><time>2026-04-04T09:23:34.947Z</time></trkpt><trkpt lat="44.3484996" lon="10.4055829"><ele>1128.5</ele><time>2026-04-04T09:23:35.947Z</time></trkpt><trkpt lat="44.3483864" lon="10.4055735"><ele>1128.75</ele><time>2026-04-04T09:23:36.947Z</time></trkpt><trkpt lat="44.3482712" lon="10.4055609"><ele>1129.0</ele><time>2026-04-04T09:23:37.947Z</time></trkpt><trkpt lat="44.3481557" lon="10.4055479"><ele>1130.75</ele><time>2026-04-04T09:23:38.946Z</time></trkpt><trkpt lat="44.3480394" lon="10.4055441"><ele>1132.5</ele><time>2026-04-04T09:23:39.947Z</time></trkpt><trkpt lat="44.3479237" lon="10.4055508"><ele>1134.25</ele><time>2026-04-04T09:23:40.947Z</time></trkpt><trkpt lat="44.3478062" lon="10.4055638"><ele>1136.0</ele><time>2026-04-04T09:23:41.947Z</time></trkpt><trkpt lat="44.347688" lon="10.4055856"><ele>1136.0</ele><time>2026-04-04T09:23:42.947Z</time></trkpt><trkpt lat="44.3475705" lon="10.4056144"><ele>1136.0</ele><time>2026-04-04T09:23:43.947Z</time></trkpt><trkpt lat="44.3474483" lon="10.4056399"><ele>1136.0</ele><time>2026-04-04T09:23:44.947Z</time></trkpt><trkpt lat="44.3473294" lon="10.4056626"><ele>1136.0</ele><time>2026-04-04T09:23:45.947Z</time></trkpt><trkpt lat="44.3472214" lon="10.4056862"><ele>1138.8</ele><time>2026-04-04T09:23:46.946Z</time></trkpt><trkpt lat="44.3471274" lon="10.4057432"><ele>1141.6</ele><time>2026-04-04T09:23:47.947Z</time></trkpt><trkpt lat="44.3470404" lon="10.4058303"><ele>1144.4</ele><time>2026-04-04T09:23:48.947Z</time></trkpt><trkpt lat="44.3469528" lon="10.4059265"><ele>1147.2</ele><time>2026-04-04T09:23:49.947Z</time></trkpt><trkpt lat="44.3468675" lon="10.4060107"><ele>1150.0</ele><time>2026-04-04T09:23:50.947Z</time></trkpt><trkpt lat="44.3467814" lon="10.4060578"><ele>1150.0</ele><time>2026-04-04T09:23:51.946Z</time></trkpt><trkpt lat="44.3466778" lon="10.406065"><ele>1150.0</ele><time>2026-04-04T09:23:52.947Z</time></trkpt><trkpt lat="44.3465691" lon="10.4060563"><ele>1150.0</ele><time>2026-04-04T09:23:53.947Z</time></trkpt><trkpt lat="44.3464539" lon="10.4060413"><ele>1150.0</ele><time>2026-04-04T09:23:54.947Z</time></trkpt><trkpt lat="44.3463453" lon="10.4060154"><ele>1150.0</ele><time>2026-04-04T09:23:55.946Z</time></trkpt><trkpt lat="44.346252" lon="10.4060119"><ele>1151.3333333333333</ele><time>2026-04-04T09:23:56.947Z</time></trkpt><trkpt lat="44.3461751" lon="10.4060602"><ele>1152.6666666666665</ele><time>2026-04-04T09:23:57.947Z</time></trkpt><trkpt lat="44.3461067" lon="10.4061459"><ele>1154.0</ele><time>2026-04-04T09:23:58.947Z</time></trkpt><trkpt lat="44.346043" lon="10.4062455"><ele>1155.3333333333333</ele><time>2026-04-04T09:23:59.947Z</time></trkpt><trkpt lat="44.3459692" lon="10.4063018"><ele>1156.6666666666667</ele><time>2026-04-04T09:24:00.946Z</time></trkpt><trkpt lat="44.3458883" lon="10.4062927"><ele>1158.0</ele><time>2026-04-04T09:24:01.947Z</time></trkpt><trkpt lat="44.3458167" lon="10.4062557"><ele>1158.0</ele><time>2026-04-04T09:24:02.947Z</time></trkpt><trkpt lat="44.3457394" lon="10.4062155"><ele>1158.0</ele><time>2026-04-04T09:24:03.947Z</time></trkpt><trkpt lat="44.3456591" lon="10.4061522"><ele>1158.0</ele><time>2026-04-04T09:24:04.947Z</time></trkpt><trkpt lat="44.3455804" lon="10.4060667"><ele>1158.0</ele><time>2026-04-04T09:24:05.946Z</time></trkpt><trkpt lat="44.3455101" lon="10.4059779"><ele>1158.0</ele><time>2026-04-04T09:24:06.946Z</time></trkpt><trkpt lat="44.3454351" lon="10.4058747"><ele>1157.75</ele><time>2026-04-04T09:24:07.946Z</time></trkpt><trkpt lat="44.3453361" lon="10.4057691"><ele>1157.5</ele><time>2026-04-04T09:24:08.946Z</time></trkpt><trkpt lat="44.3452228" lon="10.4056626"><ele>1157.25</ele><time>2026-04-04T09:24:09.945Z</time></trkpt><trkpt lat="44.3451107" lon="10.4055604"><ele>1157.0</ele><time>2026-04-04T09:24:10.945Z</time></trkpt><trkpt lat="44.3449984" lon="10.4054754"><ele>1159.75</ele><time>2026-04-04T09:24:11.946Z</time></trkpt><trkpt lat="44.3448767" lon="10.4054188"><ele>1162.5</ele><time>2026-04-04T09:24:12.946Z</time></trkpt><trkpt lat="44.3447456" lon="10.4053751"><ele>1165.25</ele><time>2026-04-04T09:24:13.946Z</time></trkpt><trkpt lat="44.3446216" lon="10.4053254"><ele>1168.0</ele><time>2026-04-04T09:24:14.946Z</time></trkpt><trkpt lat="44.3445161" lon="10.4052523"><ele>1168.25</ele><time>2026-04-04T09:24:15.945Z</time></trkpt><trkpt lat="44.3444213" lon="10.4051488"><ele>1168.5</ele><time>2026-04-04T09:24:16.946Z</time></trkpt><trkpt lat="44.3443272" lon="10.4050476"><ele>1168.75</ele><time>2026-04-04T09:24:17.946Z</time></trkpt><trkpt lat="44.3442299" lon="10.4049429"><ele>1169.0</ele><time>2026-04-04T09:24:18.946Z</time></trkpt><trkpt lat="44.3441305" lon="10.4048418"><ele>1169.0</ele><time>2026-04-04T09:24:19.946Z</time></trkpt><trkpt lat="44.3440228" lon="10.4047458"><ele>1169.0</ele><time>2026-04-04T09:24:20.945Z</time></trkpt><trkpt lat="44.343916" lon="10.4046606"><ele>1169.0</ele><time>2026-04-04T09:24:21.946Z</time></trkpt><trkpt lat="44.3438246" lon="10.4045582"><ele>1169.0</ele><time>2026-04-04T09:24:22.945Z</time></trkpt><trkpt lat="44.3437386" lon="10.404442"><ele>1171.0</ele><time>2026-04-04T09:24:23.946Z</time></trkpt><trkpt lat="44.3436569" lon="10.4043139"><ele>1173.0</ele><time>2026-04-04T09:24:24.945Z</time></trkpt><trkpt lat="44.343579" lon="10.4041829"><ele>1175.0</ele><time>2026-04-04T09:24:25.945Z</time></trkpt><trkpt lat="44.3434837" lon="10.4040719"><ele>1177.0</ele><time>2026-04-04T09:24:26.946Z</time></trkpt><trkpt lat="44.3433707" lon="10.4039862"><ele>1177.0</ele><time>2026-04-04T09:24:27.946Z</time></trkpt><trkpt lat="44.3432412" lon="10.4039206"><ele>1177.0</ele><time>2026-04-04T09:24:28.946Z</time></trkpt><trkpt lat="44.3431084" lon="10.403863"><ele>1177.0</ele><time>2026-04-04T09:24:29.945Z</time></trkpt><trkpt lat="44.3429802" lon="10.4038144"><ele>1177.0</ele><time>2026-04-04T09:24:30.946Z</time></trkpt><trkpt lat="44.3428559" lon="10.4037696"><ele>1180.25</ele><time>2026-04-04T09:24:31.946Z</time></trkpt><trkpt lat="44.3427286" lon="10.403717"><ele>1183.5</ele><time>2026-04-04T09:24:32.946Z</time></trkpt><trkpt lat="44.3426018" lon="10.4036602"><ele>1186.75</ele><time>2026-04-04T09:24:33.946Z</time></trkpt><trkpt lat="44.3424711" lon="10.4036082"><ele>1190.0</ele><time>2026-04-04T09:24:34.945Z</time></trkpt><trkpt lat="44.3423475" lon="10.403564"><ele>1190.0</ele><time>2026-04-04T09:24:35.946Z</time></trkpt><trkpt lat="44.3422354" lon="10.403508"><ele>1190.0</ele><time>2026-04-04T09:24:36.945Z</time></trkpt><trkpt lat="44.3421257" lon="10.4034406"><ele>1190.0</ele><time>2026-04-04T09:24:37.945Z</time></trkpt><trkpt lat="44.3420211" lon="10.403369"><ele>1190.0</ele><time>2026-04-04T09:24:38.945Z</time></trkpt><trkpt lat="44.3419123" lon="10.4033228"><ele>1190.5</ele><time>2026-04-04T09:24:39.945Z</time></trkpt><trkpt lat="44.3417984" lon="10.4033174"><ele>1191.0</ele><time>2026-04-04T09:24:40.946Z</time></trkpt><trkpt lat="44.341688" lon="10.403344"><ele>1191.5</ele><time>2026-04-04T09:24:41.946Z</time></trkpt><trkpt lat="44.3415733" lon="10.4033627"><ele>1192.0</ele><time>2026-04-04T09:24:42.946Z</time></trkpt><trkpt lat="44.3414584" lon="10.4034041"><ele>1193.2</ele><time>2026-04-04T09:24:43.946Z</time></trkpt><trkpt lat="44.3413551" lon="10.4034289"><ele>1194.4</ele><time>2026-04-04T09:24:44.946Z</time></trkpt><trkpt lat="44.3412611" lon="10.4034218"><ele>1195.6</ele><time>2026-04-04T09:24:45.946Z</time></trkpt><trkpt lat="44.3411765" lon="10.4033972"><ele>1196.8</ele><time>2026-04-04T09:24:46.946Z</time></trkpt><trkpt lat="44.3410924" lon="10.4033481"><ele>1198.0</ele><time>2026-04-04T09:24:47.946Z</time></trkpt><trkpt lat="44.3410042" lon="10.4032549"><ele>1198.0</ele><time>2026-04-04T09:24:48.946Z</time></trkpt><trkpt lat="44.3409139" lon="10.4031632"><ele>1198.0</ele><time>2026-04-04T09:24:49.946Z</time></trkpt><trkpt lat="44.3408245" lon="10.4030664"><ele>1198.0</ele><time>2026-04-04T09:24:50.946Z</time></trkpt><trkpt lat="44.3407344" lon="10.4029731"><ele>1198.0</ele><time>2026-04-04T09:24:51.946Z</time></trkpt><trkpt lat="44.3406536" lon="10.4029"><ele>1198.0</ele><time>2026-04-04T09:24:52.946Z</time></trkpt><trkpt lat="44.3405587" lon="10.4028602"><ele>1199.2</ele><time>2026-04-04T09:24:54.946Z</time></trkpt><trkpt lat="44.3404513" lon="10.4027836"><ele>1200.4</ele><time>2026-04-04T09:27:14.945Z</time></trkpt><trkpt lat="44.3403862" lon="10.4027433"><ele>1201.6000000000001</ele><time>2026-04-04T09:27:15.946Z</time></trkpt><trkpt lat="44.3403132" lon="10.4026927"><ele>1202.8</ele><time>2026-04-04T09:27:16.945Z</time></trkpt><trkpt lat="44.3402373" lon="10.4026301"><ele>1204.0</ele><time>2026-04-04T09:27:17.946Z</time></trkpt><trkpt lat="44.3401573" lon="10.402573"><ele>1204.0</ele><time>2026-04-04T09:27:18.946Z</time></trkpt><trkpt lat="44.3400713" lon="10.4025022"><ele>1204.0</ele><time>2026-04-04T09:27:19.946Z</time></trkpt><trkpt lat="44.3399967" lon="10.4024297"><ele>1204.0</ele><time>2026-04-04T09:27:20.946Z</time></trkpt><trkpt lat="44.339921" lon="10.4023523"><ele>1204.0</ele><time>2026-04-04T09:27:21.945Z</time></trkpt><trkpt lat="44.3398495" lon="10.4022727"><ele>1204.0</ele><time>2026-04-04T09:27:22.945Z</time></trkpt><trkpt lat="44.3397896" lon="10.4021963"><ele>1204.0</ele><time>2026-04-04T09:27:23.945Z</time></trkpt><trkpt lat="44.3397181" lon="10.4021184"><ele>1204.0</ele><time>2026-04-04T09:27:24.946Z</time></trkpt><trkpt lat="44.3396413" lon="10.4020391"><ele>1204.0</ele><time>2026-04-04T09:27:25.945Z</time></trkpt><trkpt lat="44.3395705" lon="10.4019612"><ele>1204.0</ele><time>2026-04-04T09:27:26.946Z</time></trkpt><trkpt lat="44.3395024" lon="10.4018782"><ele>1204.0</ele><time>2026-04-04T09:27:27.946Z</time></trkpt><trkpt lat="44.3394368" lon="10.4017889"><ele>1204.0</ele><time>2026-04-04T09:27:28.946Z</time></trkpt><trkpt lat="44.3393668" lon="10.4016828"><ele>1204.0</ele><time>2026-04-04T09:27:29.946Z</time></trkpt><trkpt lat="44.339298" lon="10.4015702"><ele>1204.0</ele><time>2026-04-04T09:27:30.945Z</time></trkpt><trkpt lat="44.3392323" lon="10.4014719"><ele>1204.0</ele><time>2026-04-04T09:27:31.945Z</time></trkpt><trkpt lat="44.3391742" lon="10.4013888"><ele>1204.0</ele><time>2026-04-04T09:27:32.945Z</time></trkpt><trkpt lat="44.3391286" lon="10.4013256"><ele>1203.0</ele><time>2026-04-04T09:27:33.945Z</time></trkpt><trkpt lat="44.3390827" lon="10.4012176"><ele>1202.0</ele><time>2026-04-04T09:27:35.946Z</time></trkpt><trkpt lat="44.3390367" lon="10.4011471"><ele>1201.0</ele><time>2026-04-04T09:27:37.945Z</time></trkpt><trkpt lat="44.3389788" lon="10.401077"><ele>1200.0</ele><time>2026-04-04T09:27:40.945Z</time></trkpt><trkpt lat="44.3388903" lon="10.4009316"><ele>1199.0</ele><time>2026-04-04T09:27:42.946Z</time></trkpt><trkpt lat="44.3388264" lon="10.4008408"><ele>1199.0</ele><time>2026-04-04T09:27:43.946Z</time></trkpt><trkpt lat="44.338753" lon="10.4007593"><ele>1199.0</ele><time>2026-04-04T09:27:44.946Z</time></trkpt><trkpt lat="44.3386333" lon="10.4007013"><ele>1199.0</ele><time>2026-04-04T09:27:45.946Z</time></trkpt><trkpt lat="44.3384974" lon="10.4006301"><ele>1199.0</ele><time>2026-04-04T09:27:46.945Z</time></trkpt><trkpt lat="44.3383654" lon="10.4005594"><ele>1196.25</ele><time>2026-04-04T09:27:47.946Z</time></trkpt><trkpt lat="44.3382404" lon="10.4004701"><ele>1193.5</ele><time>2026-04-04T09:27:48.946Z</time></trkpt><trkpt lat="44.338114" lon="10.4003734"><ele>1190.75</ele><time>2026-04-04T09:27:49.946Z</time></trkpt><trkpt lat="44.3379782" lon="10.4002754"><ele>1188.0</ele><time>2026-04-04T09:27:50.946Z</time></trkpt><trkpt lat="44.3378592" lon="10.4001821"><ele>1188.0</ele><time>2026-04-04T09:27:51.945Z</time></trkpt><trkpt lat="44.3377464" lon="10.4000979"><ele>1188.0</ele><time>2026-04-04T09:27:52.946Z</time></trkpt><trkpt lat="44.3376261" lon="10.4000122"><ele>1188.0</ele><time>2026-04-04T09:27:53.945Z</time></trkpt><trkpt lat="44.3375144" lon="10.3999342"><ele>1188.0</ele><time>2026-04-04T09:27:54.946Z</time></trkpt><trkpt lat="44.3374058" lon="10.3998472"><ele>1188.0</ele><time>2026-04-04T09:27:55.946Z</time></trkpt><trkpt lat="44.3372925" lon="10.3997582"><ele>1188.0</ele><time>2026-04-04T09:27:56.946Z</time></trkpt><trkpt lat="44.3371739" lon="10.3996607"><ele>1188.0</ele><time>2026-04-04T09:27:57.945Z</time></trkpt><trkpt lat="44.3370627" lon="10.3995495"><ele>1188.0</ele><time>2026-04-04T09:27:58.946Z</time></trkpt><trkpt lat="44.3369675" lon="10.3994505"><ele>1184.3333333333333</ele><time>2026-04-04T09:27:59.946Z</time></trkpt><trkpt lat="44.3368853" lon="10.3993648"><ele>1180.6666666666667</ele><time>2026-04-04T09:28:00.946Z</time></trkpt><trkpt lat="44.3368084" lon="10.3993097"><ele>1177.0</ele><time>2026-04-04T09:28:01.946Z</time></trkpt><trkpt lat="44.3367377" lon="10.3992963"><ele>1173.3333333333335</ele><time>2026-04-04T09:28:02.946Z</time></trkpt><trkpt lat="44.3366621" lon="10.3993172"><ele>1169.6666666666667</ele><time>2026-04-04T09:28:03.946Z</time></trkpt><trkpt lat="44.3365822" lon="10.3993701"><ele>1166.0</ele><time>2026-04-04T09:28:04.946Z</time></trkpt><trkpt lat="44.336484" lon="10.3994369"><ele>1163.8</ele><time>2026-04-04T09:28:05.945Z</time></trkpt><trkpt lat="44.3363818" lon="10.3994943"><ele>1161.6</ele><time>2026-04-04T09:28:06.946Z</time></trkpt><trkpt lat="44.3362841" lon="10.3995333"><ele>1159.4</ele><time>2026-04-04T09:28:07.945Z</time></trkpt><trkpt lat="44.3361882" lon="10.3995789"><ele>1157.2</ele><time>2026-04-04T09:28:08.945Z</time></trkpt><trkpt lat="44.3360986" lon="10.3996371"><ele>1155.0</ele><time>2026-04-04T09:28:09.946Z</time></trkpt><trkpt lat="44.3360099" lon="10.399725"><ele>1160.2</ele><time>2026-04-04T09:28:10.945Z</time></trkpt><trkpt lat="44.33592" lon="10.3998298"><ele>1165.4</ele><time>2026-04-04T09:28:11.946Z</time></trkpt><trkpt lat="44.3358295" lon="10.3999108"><ele>1170.6</ele><time>2026-04-04T09:28:12.946Z</time></trkpt><trkpt lat="44.3357487" lon="10.3999918"><ele>1175.8</ele><time>2026-04-04T09:28:13.946Z</time></trkpt><trkpt lat="44.3356777" lon="10.4000635"><ele>1181.0</ele><time>2026-04-04T09:28:14.945Z</time></trkpt><trkpt lat="44.3355994" lon="10.4001044"><ele>1186.3999999999999</ele><time>2026-04-04T09:28:15.945Z</time></trkpt><trkpt lat="44.3355205" lon="10.4000978"><ele>1191.8</ele><time>2026-04-04T09:28:16.946Z</time></trkpt><trkpt lat="44.3354509" lon="10.4000446"><ele>1197.1999999999998</ele><time>2026-04-04T09:28:17.946Z</time></trkpt><trkpt lat="44.3353903" lon="10.3999429"><ele>1202.6</ele><time>2026-04-04T09:28:18.945Z</time></trkpt><trkpt lat="44.3353331" lon="10.3998233"><ele>1208.0</ele><time>2026-04-04T09:28:19.946Z</time></trkpt><trkpt lat="44.3352814" lon="10.3997111"><ele>1203.1666666666667</ele><time>2026-04-04T09:28:20.946Z</time></trkpt><trkpt lat="44.3352314" lon="10.3996247"><ele>1198.3333333333335</ele><time>2026-04-04T09:28:21.945Z</time></trkpt><trkpt lat="44.3351753" lon="10.3995491"><ele>1193.5</ele><time>2026-04-04T09:28:22.946Z</time></trkpt><trkpt lat="44.3351292" lon="10.399469"><ele>1188.6666666666667</ele><time>2026-04-04T09:28:23.945Z</time></trkpt><trkpt lat="44.3351012" lon="10.3993689"><ele>1183.8333333333333</ele><time>2026-04-04T09:28:24.946Z</time></trkpt><trkpt lat="44.3350792" lon="10.3992471"><ele>1179.0</ele><time>2026-04-04T09:28:25.945Z</time></trkpt><trkpt lat="44.3350552" lon="10.399118"><ele>1179.0</ele><time>2026-04-04T09:28:26.946Z</time></trkpt><trkpt lat="44.335027" lon="10.3989964"><ele>1179.0</ele><time>2026-04-04T09:28:27.946Z</time></trkpt><trkpt lat="44.3349919" lon="10.3988905"><ele>1179.0</ele><time>2026-04-04T09:28:28.946Z</time></trkpt><trkpt lat="44.3349526" lon="10.3987969"><ele>1179.0</ele><time>2026-04-04T09:28:29.946Z</time></trkpt><trkpt lat="44.3348998" lon="10.3987089"><ele>1179.0</ele><time>2026-04-04T09:28:30.945Z</time></trkpt><trkpt lat="44.3348283" lon="10.3986291"><ele>1179.0</ele><time>2026-04-04T09:28:31.945Z</time></trkpt><trkpt lat="44.3347445" lon="10.3985601"><ele>1180.0</ele><time>2026-04-04T09:28:32.945Z</time></trkpt><trkpt lat="44.3346455" lon="10.3984917"><ele>1181.0</ele><time>2026-04-04T09:28:33.945Z</time></trkpt><trkpt lat="44.3345413" lon="10.3984254"><ele>1182.0</ele><time>2026-04-04T09:28:34.946Z</time></trkpt><trkpt lat="44.3344344" lon="10.39835"><ele>1183.0</ele><time>2026-04-04T09:28:35.946Z</time></trkpt><trkpt lat="44.3343237" lon="10.3982691"><ele>1183.0</ele><time>2026-04-04T09:28:36.946Z</time></trkpt><trkpt lat="44.3342147" lon="10.3981872"><ele>1183.0</ele><time>2026-04-04T09:28:37.946Z</time></trkpt><trkpt lat="44.3341033" lon="10.3981091"><ele>1183.0</ele><time>2026-04-04T09:28:38.946Z</time></trkpt><trkpt lat="44.3339931" lon="10.3980225"><ele>1183.0</ele><time>2026-04-04T09:28:39.945Z</time></trkpt><trkpt lat="44.3338741" lon="10.3979287"><ele>1181.25</ele><time>2026-04-04T09:28:40.946Z</time></trkpt><trkpt lat="44.3337596" lon="10.3978314"><ele>1179.5</ele><time>2026-04-04T09:28:41.946Z</time></trkpt><trkpt lat="44.3336517" lon="10.3977438"><ele>1177.75</ele><time>2026-04-04T09:28:42.945Z</time></trkpt><trkpt lat="44.3335516" lon="10.397655"><ele>1176.0</ele><time>2026-04-04T09:28:43.946Z</time></trkpt><trkpt lat="44.3334713" lon="10.3975463"><ele>1176.0</ele><time>2026-04-04T09:28:44.945Z</time></trkpt><trkpt lat="44.3334014" lon="10.3974239"><ele>1176.0</ele><time>2026-04-04T09:28:45.946Z</time></trkpt><trkpt lat="44.3333234" lon="10.3972901"><ele>1176.0</ele><time>2026-04-04T09:28:46.946Z</time></trkpt><trkpt lat="44.3332236" lon="10.39715"><ele>1176.0</ele><time>2026-04-04T09:28:47.946Z</time></trkpt><trkpt lat="44.3331357" lon="10.396995"><ele>1174.0</ele><time>2026-04-04T09:28:48.946Z</time></trkpt><trkpt lat="44.3330611" lon="10.3968555"><ele>1172.0</ele><time>2026-04-04T09:28:49.946Z</time></trkpt><trkpt lat="44.3329876" lon="10.3967451"><ele>1170.0</ele><time>2026-04-04T09:28:50.946Z</time></trkpt><trkpt lat="44.3329066" lon="10.3966745"><ele>1168.0</ele><time>2026-04-04T09:28:51.945Z</time></trkpt><trkpt lat="44.3328122" lon="10.3966497"><ele>1166.0</ele><time>2026-04-04T09:28:52.945Z</time></trkpt><trkpt lat="44.3327204" lon="10.3966648"><ele>1166.0</ele><time>2026-04-04T09:28:53.946Z</time></trkpt><trkpt lat="44.3326176" lon="10.3966988"><ele>1166.0</ele><time>2026-04-04T09:28:54.946Z</time></trkpt><trkpt lat="44.3325278" lon="10.3967062"><ele>1166.0</ele><time>2026-04-04T09:28:55.945Z</time></trkpt><trkpt lat="44.3324437" lon="10.3966184"><ele>1166.0</ele><time>2026-04-04T09:28:57.946Z</time></trkpt><trkpt lat="44.3324339" lon="10.396429"><ele>1166.0</ele><time>2026-04-04T09:28:59.945Z</time></trkpt><trkpt lat="44.3324332" lon="10.3963041"><ele>1164.0</ele><time>2026-04-04T09:29:00.946Z</time></trkpt><trkpt lat="44.3324465" lon="10.396185"><ele>1162.0</ele><time>2026-04-04T09:29:01.945Z</time></trkpt><trkpt lat="44.3324478" lon="10.3960938"><ele>1160.0</ele><time>2026-04-04T09:29:02.946Z</time></trkpt><trkpt lat="44.3324068" lon="10.3959411"><ele>1158.0</ele><time>2026-04-04T09:29:04.945Z</time></trkpt><trkpt lat="44.3323595" lon="10.3958215"><ele>1156.0</ele><time>2026-04-04T09:29:06.946Z</time></trkpt><trkpt lat="44.3323082" lon="10.3957137"><ele>1156.0</ele><time>2026-04-04T09:29:08.946Z</time></trkpt><trkpt lat="44.3322305" lon="10.3956244"><ele>1156.0</ele><time>2026-04-04T09:29:10.946Z</time></trkpt><trkpt lat="44.3321676" lon="10.395585"><ele>1156.0</ele><time>2026-04-04T09:29:11.946Z</time></trkpt><trkpt lat="44.3321009" lon="10.3955473"><ele>1156.0</ele><time>2026-04-04T09:29:12.946Z</time></trkpt><trkpt lat="44.3320239" lon="10.3955155"><ele>1156.0</ele><time>2026-04-04T09:29:13.946Z</time></trkpt><trkpt lat="44.3319342" lon="10.3954922"><ele>1156.0</ele><time>2026-04-04T09:29:14.946Z</time></trkpt><trkpt lat="44.3318431" lon="10.395465"><ele>1156.1666666666665</ele><time>2026-04-04T09:29:15.946Z</time></trkpt><trkpt lat="44.3317638" lon="10.395419"><ele>1156.3333333333333</ele><time>2026-04-04T09:29:16.946Z</time></trkpt><trkpt lat="44.3316962" lon="10.395376"><ele>1156.5</ele><time>2026-04-04T09:29:17.945Z</time></trkpt><trkpt lat="44.3316368" lon="10.3953397"><ele>1156.6666666666667</ele><time>2026-04-04T09:29:18.945Z</time></trkpt><trkpt lat="44.3315713" lon="10.3953047"><ele>1156.8333333333335</ele><time>2026-04-04T09:29:19.945Z</time></trkpt><trkpt lat="44.3314947" lon="10.3952683"><ele>1157.0</ele><time>2026-04-04T09:29:20.946Z</time></trkpt><trkpt lat="44.3314233" lon="10.3952342"><ele>1157.3333333333335</ele><time>2026-04-04T09:29:21.945Z</time></trkpt><trkpt lat="44.3313599" lon="10.3951896"><ele>1157.6666666666667</ele><time>2026-04-04T09:29:22.946Z</time></trkpt><trkpt lat="44.3313013" lon="10.3951391"><ele>1158.0</ele><time>2026-04-04T09:29:23.946Z</time></trkpt><trkpt lat="44.3312524" lon="10.3950529"><ele>1158.3333333333333</ele><time>2026-04-04T09:29:24.946Z</time></trkpt><trkpt lat="44.3312312" lon="10.3949329"><ele>1158.6666666666665</ele><time>2026-04-04T09:29:25.945Z</time></trkpt><trkpt lat="44.3312143" lon="10.394786"><ele>1159.0</ele><time>2026-04-04T09:29:26.946Z</time></trkpt><trkpt lat="44.331202" lon="10.3946598"><ele>1159.0</ele><time>2026-04-04T09:29:27.946Z</time></trkpt><trkpt lat="44.3311741" lon="10.3945653"><ele>1159.0</ele><time>2026-04-04T09:29:28.946Z</time></trkpt><trkpt lat="44.3311109" lon="10.3944793"><ele>1159.0</ele><time>2026-04-04T09:29:29.946Z</time></trkpt><trkpt lat="44.3310123" lon="10.3944322"><ele>1159.0</ele><time>2026-04-04T09:29:30.946Z</time></trkpt><trkpt lat="44.3308988" lon="10.3943979"><ele>1159.0</ele><time>2026-04-04T09:29:31.946Z</time></trkpt><trkpt lat="44.3307842" lon="10.3943598"><ele>1159.0</ele><time>2026-04-04T09:29:32.945Z</time></trkpt><trkpt lat="44.3306817" lon="10.3943182"><ele>1159.0</ele><time>2026-04-04T09:29:33.946Z</time></trkpt><trkpt lat="44.3305938" lon="10.3942706"><ele>1159.0</ele><time>2026-04-04T09:29:34.946Z</time></trkpt><trkpt lat="44.3305238" lon="10.3942026"><ele>1159.0</ele><time>2026-04-04T09:29:35.946Z</time></trkpt><trkpt lat="44.3304706" lon="10.3941185"><ele>1159.0</ele><time>2026-04-04T09:29:36.946Z</time></trkpt><trkpt lat="44.330435" lon="10.3940119"><ele>1159.4</ele><time>2026-04-04T09:29:37.945Z</time></trkpt><trkpt lat="44.3304244" lon="10.3938711"><ele>1159.8000000000002</ele><time>2026-04-04T09:29:38.945Z</time></trkpt><trkpt lat="44.3304114" lon="10.3937178"><ele>1160.1999999999998</ele><time>2026-04-04T09:29:39.946Z</time></trkpt><trkpt lat="44.3303857" lon="10.3935596"><ele>1160.6</ele><time>2026-04-04T09:29:40.945Z</time></trkpt><trkpt lat="44.3303515" lon="10.3934119"><ele>1161.0</ele><time>2026-04-04T09:29:41.945Z</time></trkpt><trkpt lat="44.3302988" lon="10.3933049"><ele>1161.0</ele><time>2026-04-04T09:29:42.946Z</time></trkpt><trkpt lat="44.3302218" lon="10.3932324"><ele>1161.0</ele><time>2026-04-04T09:29:43.946Z</time></trkpt><trkpt lat="44.3301341" lon="10.3931703"><ele>1161.0</ele><time>2026-04-04T09:29:44.946Z</time></trkpt><trkpt lat="44.3300452" lon="10.3931045"><ele>1161.0</ele><time>2026-04-04T09:29:45.946Z</time></trkpt><trkpt lat="44.3299619" lon="10.3930383"><ele>1161.0</ele><time>2026-04-04T09:29:46.945Z</time></trkpt><trkpt lat="44.3298908" lon="10.3929615"><ele>1161.0</ele><time>2026-04-04T09:29:47.946Z</time></trkpt><trkpt lat="44.3298467" lon="10.3928728"><ele>1161.0</ele><time>2026-04-04T09:29:48.946Z</time></trkpt><trkpt lat="44.3298292" lon="10.392762"><ele>1161.0</ele><time>2026-04-04T09:29:49.946Z</time></trkpt><trkpt lat="44.329825" lon="10.3926233"><ele>1161.0</ele><time>2026-04-04T09:29:50.945Z</time></trkpt><trkpt lat="44.3298404" lon="10.39248"><ele>1161.0</ele><time>2026-04-04T09:29:51.945Z</time></trkpt><trkpt lat="44.3298677" lon="10.392338"><ele>1161.0</ele><time>2026-04-04T09:29:52.946Z</time></trkpt><trkpt lat="44.3299099" lon="10.3921868"><ele>1161.0</ele><time>2026-04-04T09:29:53.946Z</time></trkpt><trkpt lat="44.3299704" lon="10.3920462"><ele>1161.0</ele><time>2026-04-04T09:29:54.946Z</time></trkpt><trkpt lat="44.3300446" lon="10.3919109"><ele>1161.0</ele><time>2026-04-04T09:29:55.946Z</time></trkpt><trkpt lat="44.3301257" lon="10.3917914"><ele>1159.75</ele><time>2026-04-04T09:29:56.946Z</time></trkpt><trkpt lat="44.3302237" lon="10.3916861"><ele>1158.5</ele><time>2026-04-04T09:29:57.946Z</time></trkpt><trkpt lat="44.3303312" lon="10.3915935"><ele>1157.25</ele><time>2026-04-04T09:29:58.946Z</time></trkpt><trkpt lat="44.3304476" lon="10.3915087"><ele>1156.0</ele><time>2026-04-04T09:29:59.946Z</time></trkpt><trkpt lat="44.3305581" lon="10.391419"><ele>1159.5</ele><time>2026-04-04T09:30:00.945Z</time></trkpt><trkpt lat="44.3306634" lon="10.3913205"><ele>1163.0</ele><time>2026-04-04T09:30:01.946Z</time></trkpt><trkpt lat="44.3307637" lon="10.391203"><ele>1166.5</ele><time>2026-04-04T09:30:02.946Z</time></trkpt><trkpt lat="44.330857" lon="10.3910765"><ele>1170.0</ele><time>2026-04-04T09:30:03.946Z</time></trkpt><trkpt lat="44.3309409" lon="10.3909459"><ele>1170.0</ele><time>2026-04-04T09:30:04.945Z</time></trkpt><trkpt lat="44.3310016" lon="10.390828"><ele>1170.0</ele><time>2026-04-04T09:30:05.946Z</time></trkpt><trkpt lat="44.3310487" lon="10.3907114"><ele>1170.0</ele><time>2026-04-04T09:30:06.946Z</time></trkpt><trkpt lat="44.3310884" lon="10.3905931"><ele>1170.0</ele><time>2026-04-04T09:30:07.945Z</time></trkpt><trkpt lat="44.3311256" lon="10.3904549"><ele>1170.0</ele><time>2026-04-04T09:30:08.946Z</time></trkpt><trkpt lat="44.3311601" lon="10.3902908"><ele>1171.2</ele><time>2026-04-04T09:30:09.945Z</time></trkpt><trkpt lat="44.3311821" lon="10.3901199"><ele>1172.4</ele><time>2026-04-04T09:30:10.946Z</time></trkpt><trkpt lat="44.3311932" lon="10.3899739"><ele>1173.6</ele><time>2026-04-04T09:30:11.945Z</time></trkpt><trkpt lat="44.3312121" lon="10.389839"><ele>1174.8</ele><time>2026-04-04T09:30:12.946Z</time></trkpt><trkpt lat="44.3312493" lon="10.3897209"><ele>1176.0</ele><time>2026-04-04T09:30:13.946Z</time></trkpt><trkpt lat="44.3312997" lon="10.3896116"><ele>1176.0</ele><time>2026-04-04T09:30:14.946Z</time></trkpt><trkpt lat="44.3313439" lon="10.3895042"><ele>1176.0</ele><time>2026-04-04T09:30:15.946Z</time></trkpt><trkpt lat="44.3313778" lon="10.389391"><ele>1176.0</ele><time>2026-04-04T09:30:16.946Z</time></trkpt><trkpt lat="44.3313976" lon="10.3892863"><ele>1176.0</ele><time>2026-04-04T09:30:17.945Z</time></trkpt><trkpt lat="44.33139" lon="10.3891923"><ele>1176.0</ele><time>2026-04-04T09:30:18.945Z</time></trkpt><trkpt lat="44.3313594" lon="10.3891102"><ele>1176.0</ele><time>2026-04-04T09:30:19.946Z</time></trkpt><trkpt lat="44.3313258" lon="10.3890294"><ele>1176.0</ele><time>2026-04-04T09:30:20.946Z</time></trkpt><trkpt lat="44.3312909" lon="10.3888835"><ele>1176.0</ele><time>2026-04-04T09:30:22.945Z</time></trkpt><trkpt lat="44.3312826" lon="10.3887263"><ele>1176.0</ele><time>2026-04-04T09:30:24.946Z</time></trkpt><trkpt lat="44.3312666" lon="10.3885983"><ele>1176.0</ele><time>2026-04-04T09:30:26.945Z</time></trkpt><trkpt lat="44.3312601" lon="10.3884181"><ele>1176.0</ele><time>2026-04-04T09:30:28.945Z</time></trkpt><trkpt lat="44.331285" lon="10.3883199"><ele>1175.5</ele><time>2026-04-04T09:30:29.946Z</time></trkpt><trkpt lat="44.3312725" lon="10.3881543"><ele>1175.0</ele><time>2026-04-04T09:30:31.945Z</time></trkpt><trkpt lat="44.3311539" lon="10.3880345"><ele>1174.5</ele><time>2026-04-04T09:30:33.946Z</time></trkpt><trkpt lat="44.3310643" lon="10.3879986"><ele>1174.0</ele><time>2026-04-04T09:30:34.946Z</time></trkpt><trkpt lat="44.3309582" lon="10.3879583"><ele>1174.5</ele><time>2026-04-04T09:30:35.946Z</time></trkpt><trkpt lat="44.3308423" lon="10.3879007"><ele>1175.0</ele><time>2026-04-04T09:30:36.946Z</time></trkpt><trkpt lat="44.3307122" lon="10.3878305"><ele>1175.5</ele><time>2026-04-04T09:30:37.945Z</time></trkpt><trkpt lat="44.3305835" lon="10.3877635"><ele>1176.0</ele><time>2026-04-04T09:30:38.946Z</time></trkpt><trkpt lat="44.3304717" lon="10.3877141"><ele>1176.0</ele><time>2026-04-04T09:30:39.946Z</time></trkpt><trkpt lat="44.3303855" lon="10.3876566"><ele>1176.0</ele><time>2026-04-04T09:30:40.946Z</time></trkpt><trkpt lat="44.3303169" lon="10.3875784"><ele>1176.0</ele><time>2026-04-04T09:30:41.946Z</time></trkpt><trkpt lat="44.3302501" lon="10.387496"><ele>1176.0</ele><time>2026-04-04T09:30:42.945Z</time></trkpt><trkpt lat="44.3301728" lon="10.3874274"><ele>1176.0</ele><time>2026-04-04T09:30:43.946Z</time></trkpt><trkpt lat="44.3300864" lon="10.3873714"><ele>1176.0</ele><time>2026-04-04T09:30:44.945Z</time></trkpt><trkpt lat="44.3300076" lon="10.3873163"><ele>1176.0</ele><time>2026-04-04T09:30:45.946Z</time></trkpt><trkpt lat="44.3299453" lon="10.3872313"><ele>1176.0</ele><time>2026-04-04T09:30:46.946Z</time></trkpt><trkpt lat="44.3299119" lon="10.387128"><ele>1176.0</ele><time>2026-04-04T09:30:47.946Z</time></trkpt><trkpt lat="44.3299128" lon="10.3869848"><ele>1176.0</ele><time>2026-04-04T09:30:48.946Z</time></trkpt><trkpt lat="44.3299153" lon="10.3868148"><ele>1174.3999999999999</ele><time>2026-04-04T09:30:49.946Z</time></trkpt><trkpt lat="44.3299216" lon="10.3866593"><ele>1172.8</ele><time>2026-04-04T09:30:50.945Z</time></trkpt><trkpt lat="44.3299365" lon="10.3865263"><ele>1171.1999999999998</ele><time>2026-04-04T09:30:51.945Z</time></trkpt><trkpt lat="44.3299391" lon="10.3864177"><ele>1169.6</ele><time>2026-04-04T09:30:52.945Z</time></trkpt><trkpt lat="44.3299169" lon="10.3863036"><ele>1168.0</ele><time>2026-04-04T09:30:53.946Z</time></trkpt><trkpt lat="44.3298878" lon="10.3861896"><ele>1169.2</ele><time>2026-04-04T09:30:54.945Z</time></trkpt><trkpt lat="44.3298482" lon="10.3860617"><ele>1170.4</ele><time>2026-04-04T09:30:55.945Z</time></trkpt><trkpt lat="44.3298021" lon="10.3859182"><ele>1171.6000000000001</ele><time>2026-04-04T09:30:56.946Z</time></trkpt><trkpt lat="44.3297609" lon="10.3857792"><ele>1172.8</ele><time>2026-04-04T09:30:57.945Z</time></trkpt><trkpt lat="44.3297237" lon="10.3856612"><ele>1174.0</ele><time>2026-04-04T09:30:58.945Z</time></trkpt><trkpt lat="44.3296841" lon="10.3855577"><ele>1172.0</ele><time>2026-04-04T09:30:59.946Z</time></trkpt><trkpt lat="44.3296374" lon="10.3854716"><ele>1170.0</ele><time>2026-04-04T09:31:00.946Z</time></trkpt><trkpt lat="44.3295852" lon="10.3853989"><ele>1168.0</ele><time>2026-04-04T09:31:01.945Z</time></trkpt><trkpt lat="44.3295234" lon="10.3853472"><ele>1166.0</ele><time>2026-04-04T09:31:02.946Z</time></trkpt><trkpt lat="44.3294501" lon="10.3853113"><ele>1164.0</ele><time>2026-04-04T09:31:03.946Z</time></trkpt><trkpt lat="44.3293698" lon="10.3852838"><ele>1162.0</ele><time>2026-04-04T09:31:04.945Z</time></trkpt><trkpt lat="44.3292856" lon="10.3852547"><ele>1162.0</ele><time>2026-04-04T09:31:05.945Z</time></trkpt><trkpt lat="44.3291922" lon="10.3852168"><ele>1162.0</ele><time>2026-04-04T09:31:06.946Z</time></trkpt><trkpt lat="44.3290901" lon="10.385187"><ele>1162.0</ele><time>2026-04-04T09:31:07.946Z</time></trkpt><trkpt lat="44.328984" lon="10.3851676"><ele>1162.0</ele><time>2026-04-04T09:31:08.946Z</time></trkpt><trkpt lat="44.3288796" lon="10.3851845"><ele>1162.0</ele><time>2026-04-04T09:31:09.946Z</time></trkpt><trkpt lat="44.3287714" lon="10.3852533"><ele>1161.25</ele><time>2026-04-04T09:31:10.945Z</time></trkpt><trkpt lat="44.3286609" lon="10.3853465"><ele>1160.5</ele><time>2026-04-04T09:31:11.946Z</time></trkpt><trkpt lat="44.3285551" lon="10.3854425"><ele>1159.75</ele><time>2026-04-04T09:31:12.946Z</time></trkpt><trkpt lat="44.3284551" lon="10.3855414"><ele>1159.0</ele><time>2026-04-04T09:31:13.946Z</time></trkpt><trkpt lat="44.3283562" lon="10.385651"><ele>1163.5</ele><time>2026-04-04T09:31:14.946Z</time></trkpt><trkpt lat="44.3282537" lon="10.3857607"><ele>1168.0</ele><time>2026-04-04T09:31:15.946Z</time></trkpt><trkpt lat="44.32815" lon="10.3858752"><ele>1172.5</ele><time>2026-04-04T09:31:16.946Z</time></trkpt><trkpt lat="44.32804" lon="10.3859754"><ele>1177.0</ele><time>2026-04-04T09:31:17.945Z</time></trkpt><trkpt lat="44.327928" lon="10.3860546"><ele>1177.25</ele><time>2026-04-04T09:31:18.946Z</time></trkpt><trkpt lat="44.3278082" lon="10.3861076"><ele>1177.5</ele><time>2026-04-04T09:31:19.946Z</time></trkpt><trkpt lat="44.3276836" lon="10.3861332"><ele>1177.75</ele><time>2026-04-04T09:31:20.946Z</time></trkpt><trkpt lat="44.3275752" lon="10.3861233"><ele>1178.0</ele><time>2026-04-04T09:31:21.946Z</time></trkpt><trkpt lat="44.3274803" lon="10.3861075"><ele>1178.0</ele><time>2026-04-04T09:31:22.946Z</time></trkpt><trkpt lat="44.3273752" lon="10.3861184"><ele>1178.0</ele><time>2026-04-04T09:31:23.945Z</time></trkpt><trkpt lat="44.327276" lon="10.3861862"><ele>1178.0</ele><time>2026-04-04T09:31:24.946Z</time></trkpt><trkpt lat="44.3271776" lon="10.3862748"><ele>1178.0</ele><time>2026-04-04T09:31:25.945Z</time></trkpt><trkpt lat="44.3270828" lon="10.3863734"><ele>1181.4</ele><time>2026-04-04T09:31:26.946Z</time></trkpt><trkpt lat="44.3269815" lon="10.3864415"><ele>1184.8</ele><time>2026-04-04T09:31:27.946Z</time></trkpt><trkpt lat="44.3268699" lon="10.3864597"><ele>1188.2</ele><time>2026-04-04T09:31:28.946Z</time></trkpt><trkpt lat="44.3267667" lon="10.386498"><ele>1191.6</ele><time>2026-04-04T09:31:29.946Z</time></trkpt><trkpt lat="44.3266709" lon="10.3865574"><ele>1195.0</ele><time>2026-04-04T09:31:30.945Z</time></trkpt><trkpt lat="44.3266249" lon="10.3866521"><ele>1195.0</ele><time>2026-04-04T09:31:31.946Z</time></trkpt><trkpt lat="44.326625" lon="10.3867487"><ele>1195.0</ele><time>2026-04-04T09:31:32.945Z</time></trkpt><trkpt lat="44.3266682" lon="10.3868144"><ele>1195.0</ele><time>2026-04-04T09:31:33.945Z</time></trkpt><trkpt lat="44.3267362" lon="10.386849"><ele>1195.0</ele><time>2026-04-04T09:31:34.946Z</time></trkpt><trkpt lat="44.326818" lon="10.3868773"><ele>1195.0</ele><time>2026-04-04T09:31:35.945Z</time></trkpt><trkpt lat="44.326914" lon="10.3869118"><ele>1195.0</ele><time>2026-04-04T09:31:36.945Z</time></trkpt><trkpt lat="44.3270139" lon="10.3869456"><ele>1195.0</ele><time>2026-04-04T09:31:37.945Z</time></trkpt><trkpt lat="44.3271217" lon="10.386991"><ele>1195.0</ele><time>2026-04-04T09:31:38.946Z</time></trkpt><trkpt lat="44.3272371" lon="10.387032"><ele>1195.0</ele><time>2026-04-04T09:31:39.946Z</time></trkpt><trkpt lat="44.3273587" lon="10.3870653"><ele>1195.0</ele><time>2026-04-04T09:31:40.945Z</time></trkpt><trkpt lat="44.3274643" lon="10.3870877"><ele>1195.6</ele><time>2026-04-04T09:31:41.945Z</time></trkpt><trkpt lat="44.3275404" lon="10.3871225"><ele>1196.2</ele><time>2026-04-04T09:31:42.946Z</time></trkpt><trkpt lat="44.32759" lon="10.3872448"><ele>1196.8</ele><time>2026-04-04T09:31:44.946Z</time></trkpt><trkpt lat="44.3275018" lon="10.3873694"><ele>1197.4</ele><time>2026-04-04T09:31:46.946Z</time></trkpt><trkpt lat="44.3274384" lon="10.3874382"><ele>1198.0</ele><time>2026-04-04T09:31:47.946Z</time></trkpt><trkpt lat="44.3273567" lon="10.3875063"><ele>1200.6</ele><time>2026-04-04T09:31:48.946Z</time></trkpt><trkpt lat="44.3272696" lon="10.3875659"><ele>1203.1999999999998</ele><time>2026-04-04T09:31:49.946Z</time></trkpt><trkpt lat="44.3271737" lon="10.387625"><ele>1205.8</ele><time>2026-04-04T09:31:50.945Z</time></trkpt><trkpt lat="44.3270795" lon="10.3876974"><ele>1208.3999999999999</ele><time>2026-04-04T09:31:51.946Z</time></trkpt><trkpt lat="44.3270058" lon="10.3877998"><ele>1211.0</ele><time>2026-04-04T09:31:52.946Z</time></trkpt><trkpt lat="44.3269541" lon="10.3879368"><ele>1215.0</ele><time>2026-04-04T09:31:53.945Z</time></trkpt><trkpt lat="44.326925" lon="10.3880918"><ele>1219.0</ele><time>2026-04-04T09:31:54.946Z</time></trkpt><trkpt lat="44.326904" lon="10.3882492"><ele>1223.0</ele><time>2026-04-04T09:31:55.946Z</time></trkpt><trkpt lat="44.3268913" lon="10.3884055"><ele>1227.0</ele><time>2026-04-04T09:31:56.946Z</time></trkpt><trkpt lat="44.3268759" lon="10.3885654"><ele>1227.0</ele><time>2026-04-04T09:31:57.946Z</time></trkpt><trkpt lat="44.3268529" lon="10.3887243"><ele>1227.0</ele><time>2026-04-04T09:31:58.946Z</time></trkpt><trkpt lat="44.3268309" lon="10.3888878"><ele>1227.0</ele><time>2026-04-04T09:31:59.945Z</time></trkpt><trkpt lat="44.3268296" lon="10.3890529"><ele>1227.0</ele><time>2026-04-04T09:32:00.946Z</time></trkpt><trkpt lat="44.3268518" lon="10.3891904"><ele>1228.1666666666667</ele><time>2026-04-04T09:32:01.945Z</time></trkpt><trkpt lat="44.3268829" lon="10.3893163"><ele>1229.3333333333333</ele><time>2026-04-04T09:32:02.946Z</time></trkpt><trkpt lat="44.3268997" lon="10.3894211"><ele>1230.5</ele><time>2026-04-04T09:32:03.946Z</time></trkpt><trkpt lat="44.3268698" lon="10.3895011"><ele>1231.6666666666665</ele><time>2026-04-04T09:32:04.946Z</time></trkpt><trkpt lat="44.3268035" lon="10.3895699"><ele>1232.8333333333333</ele><time>2026-04-04T09:32:05.946Z</time></trkpt><trkpt lat="44.3267049" lon="10.3896207"><ele>1234.0</ele><time>2026-04-04T09:32:06.946Z</time></trkpt><trkpt lat="44.3265858" lon="10.3896676"><ele>1232.75</ele><time>2026-04-04T09:32:07.945Z</time></trkpt><trkpt lat="44.3264625" lon="10.3896976"><ele>1231.5</ele><time>2026-04-04T09:32:08.946Z</time></trkpt><trkpt lat="44.326333" lon="10.3897342"><ele>1230.25</ele><time>2026-04-04T09:32:09.946Z</time></trkpt><trkpt lat="44.326193" lon="10.3897891"><ele>1229.0</ele><time>2026-04-04T09:32:10.946Z</time></trkpt><trkpt lat="44.3260431" lon="10.3898311"><ele>1232.6666666666667</ele><time>2026-04-04T09:32:11.946Z</time></trkpt><trkpt lat="44.3258924" lon="10.3898671"><ele>1236.3333333333333</ele><time>2026-04-04T09:32:12.946Z</time></trkpt><trkpt lat="44.3257465" lon="10.3899107"><ele>1240.0</ele><time>2026-04-04T09:32:13.946Z</time></trkpt><trkpt lat="44.3255995" lon="10.3899525"><ele>1242.75</ele><time>2026-04-04T09:32:14.946Z</time></trkpt><trkpt lat="44.3254553" lon="10.3899933"><ele>1245.5</ele><time>2026-04-04T09:32:15.946Z</time></trkpt><trkpt lat="44.3253099" lon="10.39004"><ele>1248.25</ele><time>2026-04-04T09:32:16.946Z</time></trkpt><trkpt lat="44.3251692" lon="10.3900881"><ele>1251.0</ele><time>2026-04-04T09:32:17.945Z</time></trkpt><trkpt lat="44.3250328" lon="10.390142"><ele>1251.0</ele><time>2026-04-04T09:32:18.946Z</time></trkpt><trkpt lat="44.3249039" lon="10.3901902"><ele>1251.0</ele><time>2026-04-04T09:32:19.945Z</time></trkpt><trkpt lat="44.3247767" lon="10.3902399"><ele>1251.0</ele><time>2026-04-04T09:32:20.946Z</time></trkpt><trkpt lat="44.3246445" lon="10.3902764"><ele>1251.0</ele><time>2026-04-04T09:32:21.945Z</time></trkpt><trkpt lat="44.3245119" lon="10.3903046"><ele>1251.75</ele><time>2026-04-04T09:32:22.945Z</time></trkpt><trkpt lat="44.324387" lon="10.3903417"><ele>1252.5</ele><time>2026-04-04T09:32:23.946Z</time></trkpt><trkpt lat="44.3242664" lon="10.3903873"><ele>1253.25</ele><time>2026-04-04T09:32:24.945Z</time></trkpt><trkpt lat="44.3241589" lon="10.3904554"><ele>1254.0</ele><time>2026-04-04T09:32:25.946Z</time></trkpt><trkpt lat="44.3240682" lon="10.3905347"><ele>1255.1666666666667</ele><time>2026-04-04T09:32:26.946Z</time></trkpt><trkpt lat="44.3240097" lon="10.3906149"><ele>1256.3333333333333</ele><time>2026-04-04T09:32:27.946Z</time></trkpt><trkpt lat="44.3239739" lon="10.3907132"><ele>1257.5</ele><time>2026-04-04T09:32:28.946Z</time></trkpt><trkpt lat="44.323955" lon="10.390845"><ele>1258.6666666666665</ele><time>2026-04-04T09:32:29.946Z</time></trkpt><trkpt lat="44.3239481" lon="10.3909636"><ele>1259.8333333333333</ele><time>2026-04-04T09:32:30.945Z</time></trkpt><trkpt lat="44.3239491" lon="10.3911082"><ele>1261.0</ele><time>2026-04-04T09:32:31.946Z</time></trkpt><trkpt lat="44.3239625" lon="10.3912516"><ele>1262.2</ele><time>2026-04-04T09:32:32.946Z</time></trkpt><trkpt lat="44.3239985" lon="10.3913788"><ele>1263.3999999999999</ele><time>2026-04-04T09:32:33.945Z</time></trkpt><trkpt lat="44.3240511" lon="10.3915069"><ele>1264.6</ele><time>2026-04-04T09:32:34.945Z</time></trkpt><trkpt lat="44.3241231" lon="10.3916297"><ele>1265.8</ele><time>2026-04-04T09:32:35.945Z</time></trkpt><trkpt lat="44.324207" lon="10.3917507"><ele>1267.0</ele><time>2026-04-04T09:32:36.946Z</time></trkpt><trkpt lat="44.3242774" lon="10.3918627"><ele>1267.0</ele><time>2026-04-04T09:32:37.946Z</time></trkpt><trkpt lat="44.3243337" lon="10.3919686"><ele>1267.0</ele><time>2026-04-04T09:32:38.946Z</time></trkpt><trkpt lat="44.3243698" lon="10.3920653"><ele>1267.0</ele><time>2026-04-04T09:32:39.946Z</time></trkpt><trkpt lat="44.3243847" lon="10.3921876"><ele>1267.0</ele><time>2026-04-04T09:32:40.946Z</time></trkpt><trkpt lat="44.3243769" lon="10.3923259"><ele>1267.0</ele><time>2026-04-04T09:32:41.946Z</time></trkpt><trkpt lat="44.3243598" lon="10.3924666"><ele>1269.0</ele><time>2026-04-04T09:32:42.945Z</time></trkpt><trkpt lat="44.3243267" lon="10.3926226"><ele>1271.0</ele><time>2026-04-04T09:32:43.946Z</time></trkpt><trkpt lat="44.3242967" lon="10.3927883"><ele>1273.0</ele><time>2026-04-04T09:32:44.946Z</time></trkpt><trkpt lat="44.3242724" lon="10.3929678"><ele>1275.0</ele><time>2026-04-04T09:32:45.946Z</time></trkpt><trkpt lat="44.3242474" lon="10.3931589"><ele>1276.25</ele><time>2026-04-04T09:32:46.945Z</time></trkpt><trkpt lat="44.324223" lon="10.3933546"><ele>1277.5</ele><time>2026-04-04T09:32:47.946Z</time></trkpt><trkpt lat="44.3242" lon="10.3935479"><ele>1278.75</ele><time>2026-04-04T09:32:48.946Z</time></trkpt><trkpt lat="44.3241768" lon="10.3937302"><ele>1280.0</ele><time>2026-04-04T09:32:49.946Z</time></trkpt><trkpt lat="44.3241543" lon="10.3938929"><ele>1282.0</ele><time>2026-04-04T09:32:50.946Z</time></trkpt><trkpt lat="44.3241388" lon="10.3940276"><ele>1284.0</ele><time>2026-04-04T09:32:51.946Z</time></trkpt><trkpt lat="44.3241362" lon="10.3941464"><ele>1286.0</ele><time>2026-04-04T09:32:52.946Z</time></trkpt><trkpt lat="44.3241696" lon="10.3942589"><ele>1288.0</ele><time>2026-04-04T09:32:53.945Z</time></trkpt><trkpt lat="44.3242337" lon="10.3943546"><ele>1290.0</ele><time>2026-04-04T09:32:54.946Z</time></trkpt><trkpt lat="44.32432" lon="10.394444"><ele>1290.0</ele><time>2026-04-04T09:32:55.946Z</time></trkpt><trkpt lat="44.3244251" lon="10.3945289"><ele>1290.0</ele><time>2026-04-04T09:32:56.946Z</time></trkpt><trkpt lat="44.3245327" lon="10.3946238"><ele>1290.0</ele><time>2026-04-04T09:32:57.946Z</time></trkpt><trkpt lat="44.3246167" lon="10.3947202"><ele>1290.0</ele><time>2026-04-04T09:32:58.946Z</time></trkpt><trkpt lat="44.324667" lon="10.3948134"><ele>1290.0</ele><time>2026-04-04T09:32:59.946Z</time></trkpt><trkpt lat="44.3247061" lon="10.3949166"><ele>1289.8</ele><time>2026-04-04T09:33:00.946Z</time></trkpt><trkpt lat="44.3247432" lon="10.3950348"><ele>1289.6</ele><time>2026-04-04T09:33:01.946Z</time></trkpt><trkpt lat="44.3247776" lon="10.3951715"><ele>1289.4</ele><time>2026-04-04T09:33:02.946Z</time></trkpt><trkpt lat="44.3248069" lon="10.3953136"><ele>1289.2</ele><time>2026-04-04T09:33:03.946Z</time></trkpt><trkpt lat="44.3248182" lon="10.3954578"><ele>1289.0</ele><time>2026-04-04T09:33:04.945Z</time></trkpt><trkpt lat="44.324807" lon="10.395579"><ele>1289.0</ele><time>2026-04-04T09:33:05.946Z</time></trkpt><trkpt lat="44.3247768" lon="10.395689"><ele>1289.0</ele><time>2026-04-04T09:33:06.945Z</time></trkpt><trkpt lat="44.3247179" lon="10.3957718"><ele>1289.0</ele><time>2026-04-04T09:33:07.946Z</time></trkpt><trkpt lat="44.3246428" lon="10.3958487"><ele>1289.0</ele><time>2026-04-04T09:33:08.946Z</time></trkpt><trkpt lat="44.3245621" lon="10.3959257"><ele>1289.0</ele><time>2026-04-04T09:33:09.945Z</time></trkpt><trkpt lat="44.3244616" lon="10.3960137"><ele>1292.0</ele><time>2026-04-04T09:33:10.946Z</time></trkpt><trkpt lat="44.3243523" lon="10.3960986"><ele>1295.0</ele><time>2026-04-04T09:33:11.945Z</time></trkpt><trkpt lat="44.3242384" lon="10.3961887"><ele>1298.0</ele><time>2026-04-04T09:33:12.946Z</time></trkpt><trkpt lat="44.3241211" lon="10.3962929"><ele>1301.0</ele><time>2026-04-04T09:33:13.945Z</time></trkpt><trkpt lat="44.3239936" lon="10.3964027"><ele>1305.3333333333335</ele><time>2026-04-04T09:33:14.946Z</time></trkpt><trkpt lat="44.3238423" lon="10.3964967"><ele>1309.6666666666667</ele><time>2026-04-04T09:33:15.946Z</time></trkpt><trkpt lat="44.32369" lon="10.3965827"><ele>1314.0</ele><time>2026-04-04T09:33:16.945Z</time></trkpt><trkpt lat="44.3235383" lon="10.3966451"><ele>1314.0</ele><time>2026-04-04T09:33:17.946Z</time></trkpt><trkpt lat="44.3233805" lon="10.3967104"><ele>1314.0</ele><time>2026-04-04T09:33:18.946Z</time></trkpt><trkpt lat="44.3232158" lon="10.3967616"><ele>1314.0</ele><time>2026-04-04T09:33:19.945Z</time></trkpt><trkpt lat="44.3230485" lon="10.3968031"><ele>1315.0</ele><time>2026-04-04T09:33:20.946Z</time></trkpt><trkpt lat="44.3228764" lon="10.3968388"><ele>1316.0</ele><time>2026-04-04T09:33:21.946Z</time></trkpt><trkpt lat="44.3226959" lon="10.3968718"><ele>1317.0</ele><time>2026-04-04T09:33:22.945Z</time></trkpt><trkpt lat="44.3225109" lon="10.3968978"><ele>1317.0</ele><time>2026-04-04T09:33:23.946Z</time></trkpt><trkpt lat="44.3223446" lon="10.3969351"><ele>1317.0</ele><time>2026-04-04T09:33:24.945Z</time></trkpt><trkpt lat="44.3221876" lon="10.3969772"><ele>1317.0</ele><time>2026-04-04T09:33:25.945Z</time></trkpt><trkpt lat="44.3220443" lon="10.3970337"><ele>1318.5</ele><time>2026-04-04T09:33:26.946Z</time></trkpt><trkpt lat="44.3219161" lon="10.3970912"><ele>1320.0</ele><time>2026-04-04T09:33:27.946Z</time></trkpt><trkpt lat="44.3218091" lon="10.3971572"><ele>1321.5</ele><time>2026-04-04T09:33:28.946Z</time></trkpt><trkpt lat="44.3217037" lon="10.397211"><ele>1323.0</ele><time>2026-04-04T09:33:29.946Z</time></trkpt><trkpt lat="44.321596" lon="10.3972501"><ele>1326.4</ele><time>2026-04-04T09:33:30.946Z</time></trkpt><trkpt lat="44.3215022" lon="10.3972525"><ele>1329.8000000000002</ele><time>2026-04-04T09:33:31.946Z</time></trkpt><trkpt lat="44.3214022" lon="10.397231"><ele>1333.2</ele><time>2026-04-04T09:33:32.945Z</time></trkpt><trkpt lat="44.3213078" lon="10.3971995"><ele>1336.6</ele><time>2026-04-04T09:33:33.946Z</time></trkpt><trkpt lat="44.3212065" lon="10.3971613"><ele>1340.0</ele><time>2026-04-04T09:33:34.946Z</time></trkpt><trkpt lat="44.3211035" lon="10.397109"><ele>1341.6666666666667</ele><time>2026-04-04T09:33:35.946Z</time></trkpt><trkpt lat="44.3210058" lon="10.397024"><ele>1343.3333333333335</ele><time>2026-04-04T09:33:36.945Z</time></trkpt><trkpt lat="44.3209365" lon="10.3969422"><ele>1345.0</ele><time>2026-04-04T09:33:37.945Z</time></trkpt><trkpt lat="44.3208882" lon="10.3968593"><ele>1346.6666666666667</ele><time>2026-04-04T09:33:38.946Z</time></trkpt><trkpt lat="44.3208598" lon="10.3967672"><ele>1348.3333333333333</ele><time>2026-04-04T09:33:39.945Z</time></trkpt><trkpt lat="44.3208304" lon="10.3966674"><ele>1350.0</ele><time>2026-04-04T09:33:40.945Z</time></trkpt><trkpt lat="44.3208031" lon="10.3965599"><ele>1350.0</ele><time>2026-04-04T09:33:41.946Z</time></trkpt><trkpt lat="44.3207789" lon="10.3964531"><ele>1350.0</ele><time>2026-04-04T09:33:42.946Z</time></trkpt><trkpt lat="44.3207628" lon="10.3963428"><ele>1350.0</ele><time>2026-04-04T09:33:43.946Z</time></trkpt><trkpt lat="44.320761" lon="10.3962338"><ele>1350.0</ele><time>2026-04-04T09:33:44.946Z</time></trkpt><trkpt lat="44.320759" lon="10.3961373"><ele>1350.0</ele><time>2026-04-04T09:33:45.945Z</time></trkpt><trkpt lat="44.3207737" lon="10.3960143"><ele>1350.0</ele><time>2026-04-04T09:33:47.945Z</time></trkpt><trkpt lat="44.320789" lon="10.3959061"><ele>1349.3333333333333</ele><time>2026-04-04T09:33:50.945Z</time></trkpt><trkpt lat="44.320791" lon="10.3958035"><ele>1348.6666666666667</ele><time>2026-04-04T09:33:52.946Z</time></trkpt><trkpt lat="44.3208005" lon="10.3956988"><ele>1348.0</ele><time>2026-04-04T09:33:54.946Z</time></trkpt><trkpt lat="44.3208083" lon="10.3955481"><ele>1347.3333333333335</ele><time>2026-04-04T09:33:56.946Z</time></trkpt><trkpt lat="44.3208208" lon="10.3954435"><ele>1346.6666666666667</ele><time>2026-04-04T09:33:57.946Z</time></trkpt><trkpt lat="44.3208286" lon="10.3953306"><ele>1346.0</ele><time>2026-04-04T09:33:58.945Z</time></trkpt><trkpt lat="44.3208212" lon="10.3952132"><ele>1346.0</ele><time>2026-04-04T09:33:59.945Z</time></trkpt><trkpt lat="44.3208177" lon="10.3951045"><ele>1346.0</ele><time>2026-04-04T09:34:00.946Z</time></trkpt><trkpt lat="44.3207878" lon="10.3950209"><ele>1346.0</ele><time>2026-04-04T09:34:01.946Z</time></trkpt><trkpt lat="44.320742" lon="10.394957"><ele>1346.0</ele><time>2026-04-04T09:34:02.945Z</time></trkpt><trkpt lat="44.3206676" lon="10.394909"><ele>1346.0</ele><time>2026-04-04T09:34:03.946Z</time></trkpt><trkpt lat="44.3205685" lon="10.3948832"><ele>1346.0</ele><time>2026-04-04T09:34:04.946Z</time></trkpt><trkpt lat="44.3204688" lon="10.3948616"><ele>1348.6</ele><time>2026-04-04T09:34:05.946Z</time></trkpt><trkpt lat="44.3203715" lon="10.3948333"><ele>1351.1999999999998</ele><time>2026-04-04T09:34:06.946Z</time></trkpt><trkpt lat="44.3202676" lon="10.3947963"><ele>1353.8000000000002</ele><time>2026-04-04T09:34:07.945Z</time></trkpt><trkpt lat="44.3201715" lon="10.3947623"><ele>1356.4</ele><time>2026-04-04T09:34:08.946Z</time></trkpt><trkpt lat="44.3200837" lon="10.3947355"><ele>1359.0</ele><time>2026-04-04T09:34:09.946Z</time></trkpt><trkpt lat="44.3199977" lon="10.3947243"><ele>1359.0</ele><time>2026-04-04T09:34:10.945Z</time></trkpt><trkpt lat="44.3199078" lon="10.3947373"><ele>1359.0</ele><time>2026-04-04T09:34:11.946Z</time></trkpt><trkpt lat="44.319813" lon="10.3947648"><ele>1359.0</ele><time>2026-04-04T09:34:12.946Z</time></trkpt><trkpt lat="44.3197216" lon="10.394801"><ele>1359.0</ele><time>2026-04-04T09:34:13.946Z</time></trkpt><trkpt lat="44.3196351" lon="10.3948296"><ele>1359.0</ele><time>2026-04-04T09:34:14.946Z</time></trkpt><trkpt lat="44.3195559" lon="10.394847"><ele>1359.2</ele><time>2026-04-04T09:34:15.946Z</time></trkpt><trkpt lat="44.3194521" lon="10.3948283"><ele>1359.4</ele><time>2026-04-04T09:34:17.945Z</time></trkpt><trkpt lat="44.3193841" lon="10.3947157"><ele>1359.6</ele><time>2026-04-04T09:34:19.946Z</time></trkpt><trkpt lat="44.3193522" lon="10.3946377"><ele>1359.8</ele><time>2026-04-04T09:34:20.946Z</time></trkpt><trkpt lat="44.3193122" lon="10.3945563"><ele>1360.0</ele><time>2026-04-04T09:34:21.945Z</time></trkpt><trkpt lat="44.3192162" lon="10.3944562"><ele>1360.0</ele><time>2026-04-04T09:34:23.945Z</time></trkpt><trkpt lat="44.3191297" lon="10.3944912"><ele>1360.0</ele><time>2026-04-04T09:34:25.946Z</time></trkpt><trkpt lat="44.3191382" lon="10.3946393"><ele>1360.0</ele><time>2026-04-04T09:34:27.945Z</time></trkpt><trkpt lat="44.3191753" lon="10.3947492"><ele>1360.0</ele><time>2026-04-04T09:34:28.946Z</time></trkpt><trkpt lat="44.3192109" lon="10.3948581"><ele>1360.0</ele><time>2026-04-04T09:34:29.946Z</time></trkpt><trkpt lat="44.3192396" lon="10.3949667"><ele>1362.4</ele><time>2026-04-04T09:34:30.945Z</time></trkpt><trkpt lat="44.31924" lon="10.3950696"><ele>1364.8</ele><time>2026-04-04T09:34:31.946Z</time></trkpt><trkpt lat="44.3192258" lon="10.3951942"><ele>1367.1999999999998</ele><time>2026-04-04T09:34:32.946Z</time></trkpt><trkpt lat="44.3192005" lon="10.3953376"><ele>1369.6</ele><time>2026-04-04T09:34:33.946Z</time></trkpt><trkpt lat="44.3191774" lon="10.3954677"><ele>1372.0</ele><time>2026-04-04T09:34:34.946Z</time></trkpt><trkpt lat="44.3191707" lon="10.3955853"><ele>1374.6666666666665</ele><time>2026-04-04T09:34:35.946Z</time></trkpt><trkpt lat="44.3191838" lon="10.3956904"><ele>1377.3333333333333</ele><time>2026-04-04T09:34:36.946Z</time></trkpt><trkpt lat="44.3192085" lon="10.3957864"><ele>1380.0</ele><time>2026-04-04T09:34:37.946Z</time></trkpt><trkpt lat="44.3192419" lon="10.3958867"><ele>1382.6666666666667</ele><time>2026-04-04T09:34:38.945Z</time></trkpt><trkpt lat="44.3193004" lon="10.3959876"><ele>1385.3333333333335</ele><time>2026-04-04T09:34:39.945Z</time></trkpt><trkpt lat="44.3193776" lon="10.3960965"><ele>1388.0</ele><time>2026-04-04T09:34:40.945Z</time></trkpt><trkpt lat="44.3194574" lon="10.3962051"><ele>1388.0</ele><time>2026-04-04T09:34:41.946Z</time></trkpt><trkpt lat="44.3195339" lon="10.3963064"><ele>1388.0</ele><time>2026-04-04T09:34:42.946Z</time></trkpt><trkpt lat="44.3195918" lon="10.3963871"><ele>1388.0</ele><time>2026-04-04T09:34:43.946Z</time></trkpt><trkpt lat="44.3196268" lon="10.396471"><ele>1388.0</ele><time>2026-04-04T09:34:44.945Z</time></trkpt><trkpt lat="44.3196253" lon="10.3965701"><ele>1388.0</ele><time>2026-04-04T09:34:45.946Z</time></trkpt><trkpt lat="44.3196006" lon="10.3966759"><ele>1388.0</ele><time>2026-04-04T09:34:46.946Z</time></trkpt><trkpt lat="44.3195564" lon="10.3967907"><ele>1389.6666666666667</ele><time>2026-04-04T09:34:47.946Z</time></trkpt><trkpt lat="44.319521" lon="10.3968922"><ele>1391.3333333333335</ele><time>2026-04-04T09:34:48.946Z</time></trkpt><trkpt lat="44.3194846" lon="10.3969979"><ele>1393.0</ele><time>2026-04-04T09:34:49.945Z</time></trkpt><trkpt lat="44.3194525" lon="10.3970902"><ele>1394.6666666666667</ele><time>2026-04-04T09:34:50.946Z</time></trkpt><trkpt lat="44.3193896" lon="10.3971429"><ele>1396.3333333333333</ele><time>2026-04-04T09:34:52.946Z</time></trkpt><trkpt lat="44.3192894" lon="10.3971106"><ele>1398.0</ele><time>2026-04-04T09:34:54.946Z</time></trkpt><trkpt lat="44.3192368" lon="10.3970621"><ele>1398.0</ele><time>2026-04-04T09:34:55.946Z</time></trkpt><trkpt lat="44.3191774" lon="10.396907"><ele>1398.0</ele><time>2026-04-04T09:34:57.945Z</time></trkpt><trkpt lat="44.3191632" lon="10.396814"><ele>1398.0</ele><time>2026-04-04T09:34:58.946Z</time></trkpt><trkpt lat="44.3191564" lon="10.3967158"><ele>1398.0</ele><time>2026-04-04T09:34:59.945Z</time></trkpt><trkpt lat="44.3191381" lon="10.3965964"><ele>1398.0</ele><time>2026-04-04T09:35:00.945Z</time></trkpt><trkpt lat="44.3191025" lon="10.3964733"><ele>1398.0</ele><time>2026-04-04T09:35:01.946Z</time></trkpt><trkpt lat="44.3190519" lon="10.3963509"><ele>1396.0</ele><time>2026-04-04T09:35:02.946Z</time></trkpt><trkpt lat="44.3189953" lon="10.3962418"><ele>1394.0</ele><time>2026-04-04T09:35:03.946Z</time></trkpt><trkpt lat="44.3189308" lon="10.3961428"><ele>1392.0</ele><time>2026-04-04T09:35:04.945Z</time></trkpt><trkpt lat="44.3188626" lon="10.3960465"><ele>1390.0</ele><time>2026-04-04T09:35:05.946Z</time></trkpt><trkpt lat="44.3187797" lon="10.3959696"><ele>1388.0</ele><time>2026-04-04T09:35:06.946Z</time></trkpt><trkpt lat="44.3186952" lon="10.3959081"><ele>1388.1666666666667</ele><time>2026-04-04T09:35:07.946Z</time></trkpt><trkpt lat="44.3186083" lon="10.3958614"><ele>1388.3333333333335</ele><time>2026-04-04T09:35:08.946Z</time></trkpt><trkpt lat="44.3185359" lon="10.3957894"><ele>1388.5</ele><time>2026-04-04T09:35:09.946Z</time></trkpt><trkpt lat="44.3184743" lon="10.395693"><ele>1388.6666666666667</ele><time>2026-04-04T09:35:10.946Z</time></trkpt><trkpt lat="44.3184227" lon="10.3956015"><ele>1388.8333333333333</ele><time>2026-04-04T09:35:11.946Z</time></trkpt><trkpt lat="44.3183618" lon="10.395512"><ele>1389.0</ele><time>2026-04-04T09:35:12.945Z</time></trkpt><trkpt lat="44.3182739" lon="10.3954588"><ele>1389.0</ele><time>2026-04-04T09:35:13.946Z</time></trkpt><trkpt lat="44.318189" lon="10.3954088"><ele>1389.0</ele><time>2026-04-04T09:35:14.946Z</time></trkpt><trkpt lat="44.3181008" lon="10.3953533"><ele>1389.0</ele><time>2026-04-04T09:35:15.946Z</time></trkpt><trkpt lat="44.3180178" lon="10.3952991"><ele>1389.0</ele><time>2026-04-04T09:35:16.946Z</time></trkpt><trkpt lat="44.3179324" lon="10.3952475"><ele>1389.0</ele><time>2026-04-04T09:35:17.946Z</time></trkpt><trkpt lat="44.3178433" lon="10.3952209"><ele>1392.2</ele><time>2026-04-04T09:35:18.946Z</time></trkpt><trkpt lat="44.3177456" lon="10.3952144"><ele>1395.4</ele><time>2026-04-04T09:35:19.945Z</time></trkpt><trkpt lat="44.3176437" lon="10.3952097"><ele>1398.6</ele><time>2026-04-04T09:35:20.946Z</time></trkpt><trkpt lat="44.3175371" lon="10.3952007"><ele>1401.8</ele><time>2026-04-04T09:35:21.946Z</time></trkpt><trkpt lat="44.3174286" lon="10.3951931"><ele>1405.0</ele><time>2026-04-04T09:35:22.946Z</time></trkpt><trkpt lat="44.3173168" lon="10.3951729"><ele>1407.6</ele><time>2026-04-04T09:35:23.946Z</time></trkpt><trkpt lat="44.3172161" lon="10.3951581"><ele>1410.2</ele><time>2026-04-04T09:35:24.946Z</time></trkpt><trkpt lat="44.3171216" lon="10.3951531"><ele>1412.8000000000002</ele><time>2026-04-04T09:35:25.945Z</time></trkpt><trkpt lat="44.3170243" lon="10.3951567"><ele>1415.4</ele><time>2026-04-04T09:35:26.946Z</time></trkpt><trkpt lat="44.3169274" lon="10.3951716"><ele>1418.0</ele><time>2026-04-04T09:35:27.946Z</time></trkpt><trkpt lat="44.3168346" lon="10.3951871"><ele>1418.0</ele><time>2026-04-04T09:35:28.946Z</time></trkpt><trkpt lat="44.3167436" lon="10.3952043"><ele>1418.0</ele><time>2026-04-04T09:35:29.946Z</time></trkpt><trkpt lat="44.3166675" lon="10.3952191"><ele>1418.0</ele><time>2026-04-04T09:35:30.946Z</time></trkpt><trkpt lat="44.3165995" lon="10.3952179"><ele>1418.0</ele><time>2026-04-04T09:35:31.946Z</time></trkpt><trkpt lat="44.3165041" lon="10.3951622"><ele>1418.0</ele><time>2026-04-04T09:35:33.945Z</time></trkpt><trkpt lat="44.3164358" lon="10.3950486"><ele>1418.0</ele><time>2026-04-04T09:35:35.946Z</time></trkpt><trkpt lat="44.3163985" lon="10.3949622"><ele>1422.0</ele><time>2026-04-04T09:35:37.945Z</time></trkpt><trkpt lat="44.3163512" lon="10.394863"><ele>1426.0</ele><time>2026-04-04T09:35:46.945Z</time></trkpt><trkpt lat="44.3162833" lon="10.3948499"><ele>1430.0</ele><time>2026-04-04T09:35:51.945Z</time></trkpt><trkpt lat="44.3162805" lon="10.3951013"><ele>1434.0</ele><time>2026-04-04T09:36:11.945Z</time></trkpt><trkpt lat="44.3163098" lon="10.3952045"><ele>1438.0</ele><time>2026-04-04T09:36:14.946Z</time></trkpt><trkpt lat="44.3163343" lon="10.3953089"><ele>1438.0</ele><time>2026-04-04T09:36:16.946Z</time></trkpt><trkpt lat="44.3163369" lon="10.395401"><ele>1438.0</ele><time>2026-04-04T09:36:17.946Z</time></trkpt><trkpt lat="44.3163264" lon="10.3954895"><ele>1438.0</ele><time>2026-04-04T09:36:18.945Z</time></trkpt><trkpt lat="44.3163091" lon="10.3955926"><ele>1438.0</ele><time>2026-04-04T09:36:19.946Z</time></trkpt><trkpt lat="44.3162971" lon="10.3956951"><ele>1438.0</ele><time>2026-04-04T09:36:20.945Z</time></trkpt><trkpt lat="44.3163425" lon="10.3958501"><ele>1438.0</ele><time>2026-04-04T09:36:22.945Z</time></trkpt><trkpt lat="44.3163894" lon="10.3959253"><ele>1438.1666666666665</ele><time>2026-04-04T09:36:23.946Z</time></trkpt><trkpt lat="44.316434" lon="10.3960141"><ele>1438.3333333333333</ele><time>2026-04-04T09:36:24.945Z</time></trkpt><trkpt lat="44.3164673" lon="10.3961097"><ele>1438.5</ele><time>2026-04-04T09:36:25.945Z</time></trkpt><trkpt lat="44.3164938" lon="10.3962333"><ele>1438.6666666666667</ele><time>2026-04-04T09:36:26.945Z</time></trkpt><trkpt lat="44.3165204" lon="10.3963612"><ele>1438.8333333333335</ele><time>2026-04-04T09:36:27.946Z</time></trkpt><trkpt lat="44.316548" lon="10.3964861"><ele>1439.0</ele><time>2026-04-04T09:36:28.946Z</time></trkpt><trkpt lat="44.3165857" lon="10.3966088"><ele>1439.0</ele><time>2026-04-04T09:36:29.946Z</time></trkpt><trkpt lat="44.3166397" lon="10.3967296"><ele>1439.0</ele><time>2026-04-04T09:36:30.946Z</time></trkpt><trkpt lat="44.3167081" lon="10.3968376"><ele>1439.0</ele><time>2026-04-04T09:36:31.945Z</time></trkpt><trkpt lat="44.316777" lon="10.396915"><ele>1439.0</ele><time>2026-04-04T09:36:32.946Z</time></trkpt><trkpt lat="44.3168449" lon="10.396984"><ele>1439.0</ele><time>2026-04-04T09:36:33.946Z</time></trkpt><trkpt lat="44.3169309" lon="10.3970356"><ele>1439.0</ele><time>2026-04-04T09:36:34.946Z</time></trkpt><trkpt lat="44.3170321" lon="10.3970707"><ele>1439.0</ele><time>2026-04-04T09:36:35.946Z</time></trkpt><trkpt lat="44.3171397" lon="10.3971133"><ele>1439.0</ele><time>2026-04-04T09:36:36.945Z</time></trkpt><trkpt lat="44.3172382" lon="10.3971583"><ele>1439.0</ele><time>2026-04-04T09:36:37.945Z</time></trkpt><trkpt lat="44.3173219" lon="10.3972156"><ele>1439.0</ele><time>2026-04-04T09:36:38.946Z</time></trkpt><trkpt lat="44.3173932" lon="10.3972824"><ele>1440.6666666666667</ele><time>2026-04-04T09:36:39.946Z</time></trkpt><trkpt lat="44.3174491" lon="10.3973583"><ele>1442.3333333333335</ele><time>2026-04-04T09:36:40.945Z</time></trkpt><trkpt lat="44.3174841" lon="10.3974546"><ele>1444.0</ele><time>2026-04-04T09:36:41.945Z</time></trkpt><trkpt lat="44.3175111" lon="10.3975456"><ele>1445.6666666666667</ele><time>2026-04-04T09:36:42.945Z</time></trkpt><trkpt lat="44.3175192" lon="10.3976518"><ele>1447.3333333333333</ele><time>2026-04-04T09:36:43.946Z</time></trkpt><trkpt lat="44.3175257" lon="10.3977554"><ele>1449.0</ele><time>2026-04-04T09:36:44.946Z</time></trkpt><trkpt lat="44.317536" lon="10.3978701"><ele>1449.0</ele><time>2026-04-04T09:36:45.946Z</time></trkpt><trkpt lat="44.3175549" lon="10.3979955"><ele>1449.0</ele><time>2026-04-04T09:36:46.946Z</time></trkpt><trkpt lat="44.3175741" lon="10.3980975"><ele>1449.0</ele><time>2026-04-04T09:36:47.946Z</time></trkpt><trkpt lat="44.3175884" lon="10.3981868"><ele>1449.0</ele><time>2026-04-04T09:36:48.946Z</time></trkpt><trkpt lat="44.3175299" lon="10.398288"><ele>1449.0</ele><time>2026-04-04T09:36:50.945Z</time></trkpt><trkpt lat="44.3174623" lon="10.3983174"><ele>1449.0</ele><time>2026-04-04T09:36:51.945Z</time></trkpt><trkpt lat="44.3173779" lon="10.3983335"><ele>1450.2</ele><time>2026-04-04T09:36:52.946Z</time></trkpt><trkpt lat="44.3172874" lon="10.3983483"><ele>1451.4</ele><time>2026-04-04T09:36:53.946Z</time></trkpt><trkpt lat="44.3171814" lon="10.3983627"><ele>1452.6</ele><time>2026-04-04T09:36:54.946Z</time></trkpt><trkpt lat="44.3170708" lon="10.3983887"><ele>1453.8</ele><time>2026-04-04T09:36:55.946Z</time></trkpt><trkpt lat="44.3169572" lon="10.3984189"><ele>1455.0</ele><time>2026-04-04T09:36:56.945Z</time></trkpt><trkpt lat="44.3168585" lon="10.3984514"><ele>1455.0</ele><time>2026-04-04T09:36:57.946Z</time></trkpt><trkpt lat="44.3167769" lon="10.3984982"><ele>1455.0</ele><time>2026-04-04T09:36:58.946Z</time></trkpt><trkpt lat="44.3167092" lon="10.3985795"><ele>1455.0</ele><time>2026-04-04T09:36:59.946Z</time></trkpt><trkpt lat="44.316648" lon="10.3986768"><ele>1455.0</ele><time>2026-04-04T09:37:00.945Z</time></trkpt><trkpt lat="44.3165975" lon="10.3987892"><ele>1455.0</ele><time>2026-04-04T09:37:01.945Z</time></trkpt><trkpt lat="44.3165556" lon="10.3989083"><ele>1456.4</ele><time>2026-04-04T09:37:02.946Z</time></trkpt><trkpt lat="44.3165081" lon="10.3990314"><ele>1457.8</ele><time>2026-04-04T09:37:03.945Z</time></trkpt><trkpt lat="44.3164653" lon="10.3991704"><ele>1459.1999999999998</ele><time>2026-04-04T09:37:04.946Z</time></trkpt><trkpt lat="44.3164236" lon="10.3993129"><ele>1460.6</ele><time>2026-04-04T09:37:05.945Z</time></trkpt><trkpt lat="44.316382" lon="10.3994484"><ele>1462.0</ele><time>2026-04-04T09:37:06.946Z</time></trkpt><trkpt lat="44.3163338" lon="10.3995796"><ele>1462.0</ele><time>2026-04-04T09:37:07.946Z</time></trkpt><trkpt lat="44.3162712" lon="10.3996569"><ele>1462.0</ele><time>2026-04-04T09:37:08.945Z</time></trkpt><trkpt lat="44.3161971" lon="10.3996898"><ele>1462.0</ele><time>2026-04-04T09:37:09.946Z</time></trkpt><trkpt lat="44.3161173" lon="10.3997038"><ele>1462.0</ele><time>2026-04-04T09:37:10.945Z</time></trkpt><trkpt lat="44.3160309" lon="10.3996815"><ele>1462.0</ele><time>2026-04-04T09:37:11.945Z</time></trkpt><trkpt lat="44.3159442" lon="10.3996517"><ele>1462.0</ele><time>2026-04-04T09:37:12.946Z</time></trkpt><trkpt lat="44.3158703" lon="10.3996149"><ele>1462.0</ele><time>2026-04-04T09:37:13.946Z</time></trkpt><trkpt lat="44.3158015" lon="10.3995863"><ele>1462.0</ele><time>2026-04-04T09:37:14.945Z</time></trkpt><trkpt lat="44.3157342" lon="10.3995782"><ele>1462.0</ele><time>2026-04-04T09:37:15.946Z</time></trkpt><trkpt lat="44.3156108" lon="10.3996314"><ele>1462.0</ele><time>2026-04-04T09:37:17.946Z</time></trkpt><trkpt lat="44.3155479" lon="10.3996686"><ele>1462.0</ele><time>2026-04-04T09:37:18.946Z</time></trkpt><trkpt lat="44.315467" lon="10.3997184"><ele>1462.0</ele><time>2026-04-04T09:37:20.946Z</time></trkpt><trkpt lat="44.3153878" lon="10.3997552"><ele>1463.7142857142858</ele><time>2026-04-04T09:37:49.946Z</time></trkpt><trkpt lat="44.3153072" lon="10.3997756"><ele>1465.4285714285713</ele><time>2026-04-04T09:37:52.945Z</time></trkpt><trkpt lat="44.315239" lon="10.3997898"><ele>1467.1428571428573</ele><time>2026-04-04T09:37:56.945Z</time></trkpt><trkpt lat="44.3151559" lon="10.3997968"><ele>1468.857142857143</ele><time>2026-04-04T09:37:59.946Z</time></trkpt><trkpt lat="44.3150897" lon="10.3997797"><ele>1470.5714285714287</ele><time>2026-04-04T09:38:02.946Z</time></trkpt><trkpt lat="44.3150198" lon="10.3997336"><ele>1472.2857142857144</ele><time>2026-04-04T09:38:08.946Z</time></trkpt><trkpt lat="44.3149671" lon="10.3996709"><ele>1474.0</ele><time>2026-04-04T09:38:11.945Z</time></trkpt><trkpt lat="44.3149111" lon="10.3995844"><ele>1474.0</ele><time>2026-04-04T09:38:14.946Z</time></trkpt><trkpt lat="44.3148602" lon="10.3995046"><ele>1474.0</ele><time>2026-04-04T09:38:16.946Z</time></trkpt><trkpt lat="44.314809" lon="10.3994217"><ele>1474.0</ele><time>2026-04-04T09:38:18.946Z</time></trkpt><trkpt lat="44.314756" lon="10.3993316"><ele>1474.0</ele><time>2026-04-04T09:38:20.946Z</time></trkpt><trkpt lat="44.3147052" lon="10.3992676"><ele>1474.0</ele><time>2026-04-04T09:38:22.945Z</time></trkpt><trkpt lat="44.3146381" lon="10.3992058"><ele>1474.0</ele><time>2026-04-04T09:38:24.946Z</time></trkpt><trkpt lat="44.3145559" lon="10.3991608"><ele>1476.6666666666665</ele><time>2026-04-04T09:38:26.946Z</time></trkpt><trkpt lat="44.3144659" lon="10.3991601"><ele>1479.3333333333333</ele><time>2026-04-04T09:38:28.945Z</time></trkpt><trkpt lat="44.314371" lon="10.3991805"><ele>1482.0</ele><time>2026-04-04T09:38:30.945Z</time></trkpt><trkpt lat="44.3143035" lon="10.3992066"><ele>1484.6666666666667</ele><time>2026-04-04T09:38:32.946Z</time></trkpt><trkpt lat="44.3142297" lon="10.3992355"><ele>1487.3333333333335</ele><time>2026-04-04T09:38:34.946Z</time></trkpt><trkpt lat="44.3141637" lon="10.3992616"><ele>1490.0</ele><time>2026-04-04T09:38:36.946Z</time></trkpt><trkpt lat="44.314228" lon="10.3992709"><ele>1490.0</ele><time>2026-04-04T09:42:06.945Z</time></trkpt><trkpt lat="44.3143011" lon="10.3992471"><ele>1490.0</ele><time>2026-04-04T09:42:09.944Z</time></trkpt><trkpt lat="44.3143769" lon="10.3991971"><ele>1490.0</ele><time>2026-04-04T09:42:15.944Z</time></trkpt><trkpt lat="44.3144506" lon="10.3991845"><ele>1490.0</ele><time>2026-04-04T09:42:18.945Z</time></trkpt><trkpt lat="44.3145202" lon="10.3991916"><ele>1490.0</ele><time>2026-04-04T09:42:21.945Z</time></trkpt><trkpt lat="44.3145845" lon="10.3992025"><ele>1490.0</ele><time>2026-04-04T09:42:24.945Z</time></trkpt><trkpt lat="44.3146555" lon="10.3992329"><ele>1490.0</ele><time>2026-04-04T09:42:26.945Z</time></trkpt><trkpt lat="44.3147196" lon="10.3992918"><ele>1489.7142857142858</ele><time>2026-04-04T09:42:29.944Z</time></trkpt><trkpt lat="44.3147653" lon="10.3993656"><ele>1489.4285714285713</ele><time>2026-04-04T09:42:35.945Z</time></trkpt><trkpt lat="44.3147835" lon="10.3994527"><ele>1489.1428571428573</ele><time>2026-04-04T09:42:44.944Z</time></trkpt><trkpt lat="44.3148323" lon="10.3995301"><ele>1488.857142857143</ele><time>2026-04-04T09:42:48.945Z</time></trkpt><trkpt lat="44.3148793" lon="10.3996091"><ele>1488.5714285714287</ele><time>2026-04-04T09:42:51.945Z</time></trkpt><trkpt lat="44.3149279" lon="10.3996663"><ele>1488.2857142857144</ele><time>2026-04-04T09:42:54.945Z</time></trkpt><trkpt lat="44.3149886" lon="10.3997371"><ele>1488.0</ele><time>2026-04-04T09:42:58.945Z</time></trkpt><trkpt lat="44.3150434" lon="10.3997944"><ele>1488.0</ele><time>2026-04-04T09:43:04.944Z</time></trkpt><trkpt lat="44.3151037" lon="10.399838"><ele>1488.0</ele><time>2026-04-04T09:43:08.945Z</time></trkpt><trkpt lat="44.3151781" lon="10.399835"><ele>1488.0</ele><time>2026-04-04T09:43:11.945Z</time></trkpt><trkpt lat="44.3152424" lon="10.3998212"><ele>1488.0</ele><time>2026-04-04T09:43:14.945Z</time></trkpt><trkpt lat="44.3153183" lon="10.3997973"><ele>1488.0</ele><time>2026-04-04T09:43:17.944Z</time></trkpt><trkpt lat="44.3154014" lon="10.3997667"><ele>1488.0</ele><time>2026-04-04T09:43:20.945Z</time></trkpt><trkpt lat="44.3154906" lon="10.3997263"><ele>1482.8000000000002</ele><time>2026-04-04T09:43:22.945Z</time></trkpt><trkpt lat="44.3155921" lon="10.3996659"><ele>1477.6</ele><time>2026-04-04T09:43:24.945Z</time></trkpt><trkpt lat="44.315652" lon="10.399634"><ele>1472.4</ele><time>2026-04-04T09:43:25.945Z</time></trkpt><trkpt lat="44.3157691" lon="10.3996037"><ele>1467.1999999999998</ele><time>2026-04-04T09:43:27.945Z</time></trkpt><trkpt lat="44.3158762" lon="10.3996161"><ele>1462.0</ele><time>2026-04-04T09:43:29.945Z</time></trkpt><trkpt lat="44.3159416" lon="10.3996392"><ele>1462.0</ele><time>2026-04-04T09:43:30.944Z</time></trkpt><trkpt lat="44.31606" lon="10.3996838"><ele>1462.0</ele><time>2026-04-04T09:43:32.944Z</time></trkpt><trkpt lat="44.3161697" lon="10.3996732"><ele>1462.0</ele><time>2026-04-04T09:43:34.944Z</time></trkpt><trkpt lat="44.3162823" lon="10.3995843"><ele>1462.0</ele><time>2026-04-04T09:43:36.944Z</time></trkpt><trkpt lat="44.3163382" lon="10.3995252"><ele>1462.0</ele><time>2026-04-04T09:43:37.945Z</time></trkpt><trkpt lat="44.3164191" lon="10.3993971"><ele>1462.857142857143</ele><time>2026-04-04T09:43:39.944Z</time></trkpt><trkpt lat="44.3164567" lon="10.3993111"><ele>1463.7142857142858</ele><time>2026-04-04T09:43:40.945Z</time></trkpt><trkpt lat="44.3164911" lon="10.3992187"><ele>1464.5714285714284</ele><time>2026-04-04T09:43:41.945Z</time></trkpt><trkpt lat="44.3165189" lon="10.3991305"><ele>1465.4285714285716</ele><time>2026-04-04T09:43:42.944Z</time></trkpt><trkpt lat="44.3165456" lon="10.3990349"><ele>1466.2857142857144</ele><time>2026-04-04T09:43:43.945Z</time></trkpt><trkpt lat="44.3165773" lon="10.3989366"><ele>1467.142857142857</ele><time>2026-04-04T09:43:44.945Z</time></trkpt><trkpt lat="44.3166051" lon="10.3988482"><ele>1468.0</ele><time>2026-04-04T09:43:45.944Z</time></trkpt><trkpt lat="44.316637" lon="10.3987613"><ele>1465.4</ele><time>2026-04-04T09:43:46.944Z</time></trkpt><trkpt lat="44.3166668" lon="10.3986832"><ele>1462.8000000000002</ele><time>2026-04-04T09:43:47.944Z</time></trkpt><trkpt lat="44.3167435" lon="10.3985514"><ele>1460.2</ele><time>2026-04-04T09:43:49.945Z</time></trkpt><trkpt lat="44.3168427" lon="10.3984806"><ele>1457.6</ele><time>2026-04-04T09:43:51.945Z</time></trkpt><trkpt lat="44.316936" lon="10.3984606"><ele>1455.0</ele><time>2026-04-04T09:43:53.944Z</time></trkpt><trkpt lat="44.3170287" lon="10.3984392"><ele>1455.0</ele><time>2026-04-04T09:43:55.945Z</time></trkpt><trkpt lat="44.3171321" lon="10.398392"><ele>1455.0</ele><time>2026-04-04T09:43:57.945Z</time></trkpt><trkpt lat="44.317245" lon="10.3983622"><ele>1455.0</ele><time>2026-04-04T09:43:59.945Z</time></trkpt><trkpt lat="44.317349" lon="10.3983332"><ele>1455.0</ele><time>2026-04-04T09:44:01.944Z</time></trkpt><trkpt lat="44.3174566" lon="10.3982964"><ele>1455.0</ele><time>2026-04-04T09:44:03.944Z</time></trkpt><trkpt lat="44.3175533" lon="10.3982329"><ele>1455.8</ele><time>2026-04-04T09:44:05.945Z</time></trkpt><trkpt lat="44.3175785" lon="10.3980769"><ele>1456.6</ele><time>2026-04-04T09:44:07.944Z</time></trkpt><trkpt lat="44.3175597" lon="10.3979306"><ele>1457.4</ele><time>2026-04-04T09:44:09.944Z</time></trkpt><trkpt lat="44.317542" lon="10.3977925"><ele>1458.2</ele><time>2026-04-04T09:44:11.944Z</time></trkpt><trkpt lat="44.3175285" lon="10.3976342"><ele>1459.0</ele><time>2026-04-04T09:44:13.945Z</time></trkpt><trkpt lat="44.3175046" lon="10.3974584"><ele>1457.3333333333333</ele><time>2026-04-04T09:44:15.944Z</time></trkpt><trkpt lat="44.3174669" lon="10.3973756"><ele>1455.6666666666665</ele><time>2026-04-04T09:44:16.945Z</time></trkpt><trkpt lat="44.3174211" lon="10.3972952"><ele>1454.0</ele><time>2026-04-04T09:44:17.944Z</time></trkpt><trkpt lat="44.3173641" lon="10.3972236"><ele>1452.3333333333333</ele><time>2026-04-04T09:44:18.945Z</time></trkpt><trkpt lat="44.3173019" lon="10.3971554"><ele>1450.6666666666667</ele><time>2026-04-04T09:44:19.945Z</time></trkpt><trkpt lat="44.317227" lon="10.3971181"><ele>1449.0</ele><time>2026-04-04T09:44:20.944Z</time></trkpt><trkpt lat="44.3171462" lon="10.3970896"><ele>1447.3333333333333</ele><time>2026-04-04T09:44:21.945Z</time></trkpt><trkpt lat="44.3170665" lon="10.3970527"><ele>1445.6666666666667</ele><time>2026-04-04T09:44:22.945Z</time></trkpt><trkpt lat="44.3169918" lon="10.3970211"><ele>1444.0</ele><time>2026-04-04T09:44:23.944Z</time></trkpt><trkpt lat="44.3169178" lon="10.3969812"><ele>1442.3333333333335</ele><time>2026-04-04T09:44:24.944Z</time></trkpt><trkpt lat="44.3168529" lon="10.3969367"><ele>1440.6666666666667</ele><time>2026-04-04T09:44:25.944Z</time></trkpt><trkpt lat="44.3167828" lon="10.3969061"><ele>1439.0</ele><time>2026-04-04T09:44:26.945Z</time></trkpt><trkpt lat="44.3167197" lon="10.3968466"><ele>1439.0</ele><time>2026-04-04T09:44:27.945Z</time></trkpt><trkpt lat="44.3166688" lon="10.3967672"><ele>1439.0</ele><time>2026-04-04T09:44:28.945Z</time></trkpt><trkpt lat="44.3166026" lon="10.3966282"><ele>1439.0</ele><time>2026-04-04T09:44:30.945Z</time></trkpt><trkpt lat="44.3165706" lon="10.3965435"><ele>1439.0</ele><time>2026-04-04T09:44:31.944Z</time></trkpt><trkpt lat="44.316543" lon="10.3964641"><ele>1439.0</ele><time>2026-04-04T09:44:32.945Z</time></trkpt><trkpt lat="44.3165054" lon="10.3963061"><ele>1439.0</ele><time>2026-04-04T09:44:34.944Z</time></trkpt><trkpt lat="44.3164917" lon="10.3962178"><ele>1439.1666666666667</ele><time>2026-04-04T09:44:35.944Z</time></trkpt><trkpt lat="44.3164738" lon="10.3961095"><ele>1439.3333333333335</ele><time>2026-04-04T09:44:36.945Z</time></trkpt><trkpt lat="44.3164409" lon="10.3960228"><ele>1439.5</ele><time>2026-04-04T09:44:37.944Z</time></trkpt><trkpt lat="44.3163989" lon="10.3959445"><ele>1439.6666666666667</ele><time>2026-04-04T09:44:38.944Z</time></trkpt><trkpt lat="44.3163527" lon="10.3958682"><ele>1439.8333333333333</ele><time>2026-04-04T09:44:39.945Z</time></trkpt><trkpt lat="44.3163134" lon="10.3957334"><ele>1440.0</ele><time>2026-04-04T09:44:41.945Z</time></trkpt><trkpt lat="44.3163387" lon="10.3956015"><ele>1439.6</ele><time>2026-04-04T09:44:43.944Z</time></trkpt><trkpt lat="44.3163652" lon="10.3954249"><ele>1439.2</ele><time>2026-04-04T09:44:45.944Z</time></trkpt><trkpt lat="44.3163492" lon="10.3952903"><ele>1438.8000000000002</ele><time>2026-04-04T09:44:47.945Z</time></trkpt><trkpt lat="44.3163188" lon="10.3951789"><ele>1438.4</ele><time>2026-04-04T09:44:50.945Z</time></trkpt><trkpt lat="44.3163084" lon="10.3950754"><ele>1438.0</ele><time>2026-04-04T09:44:53.945Z</time></trkpt><trkpt lat="44.3162892" lon="10.3949771"><ele>1438.0</ele><time>2026-04-04T09:44:56.944Z</time></trkpt><trkpt lat="44.3163235" lon="10.3949006"><ele>1438.0</ele><time>2026-04-04T09:45:00.945Z</time></trkpt><trkpt lat="44.3163838" lon="10.3949613"><ele>1438.0</ele><time>2026-04-04T09:45:03.945Z</time></trkpt><trkpt lat="44.3164361" lon="10.3950837"><ele>1438.0</ele><time>2026-04-04T09:45:05.944Z</time></trkpt><trkpt lat="44.3165172" lon="10.3951958"><ele>1438.0</ele><time>2026-04-04T09:45:07.944Z</time></trkpt><trkpt lat="44.3166351" lon="10.3952339"><ele>1434.0</ele><time>2026-04-04T09:45:09.944Z</time></trkpt><trkpt lat="44.3167121" lon="10.3952206"><ele>1430.0</ele><time>2026-04-04T09:45:10.945Z</time></trkpt><trkpt lat="44.3168051" lon="10.3952071"><ele>1426.0</ele><time>2026-04-04T09:45:11.944Z</time></trkpt><trkpt lat="44.3169073" lon="10.3951978"><ele>1422.0</ele><time>2026-04-04T09:45:12.944Z</time></trkpt><trkpt lat="44.3170102" lon="10.3951825"><ele>1418.0</ele><time>2026-04-04T09:45:13.945Z</time></trkpt><trkpt lat="44.3171046" lon="10.3951672"><ele>1418.0</ele><time>2026-04-04T09:45:14.945Z</time></trkpt><trkpt lat="44.3171887" lon="10.3951544"><ele>1418.0</ele><time>2026-04-04T09:45:15.945Z</time></trkpt><trkpt lat="44.3172736" lon="10.3951536"><ele>1418.0</ele><time>2026-04-04T09:45:16.944Z</time></trkpt><trkpt lat="44.3173636" lon="10.3951715"><ele>1418.0</ele><time>2026-04-04T09:45:17.944Z</time></trkpt><trkpt lat="44.3174538" lon="10.3951979"><ele>1418.0</ele><time>2026-04-04T09:45:18.944Z</time></trkpt><trkpt lat="44.3175454" lon="10.3952146"><ele>1418.0</ele><time>2026-04-04T09:45:19.945Z</time></trkpt><trkpt lat="44.3176399" lon="10.3952095"><ele>1415.8333333333335</ele><time>2026-04-04T09:45:20.944Z</time></trkpt><trkpt lat="44.3177276" lon="10.3952098"><ele>1413.6666666666667</ele><time>2026-04-04T09:45:21.945Z</time></trkpt><trkpt lat="44.3178079" lon="10.395224"><ele>1411.5</ele><time>2026-04-04T09:45:22.945Z</time></trkpt><trkpt lat="44.3178885" lon="10.3952508"><ele>1409.3333333333333</ele><time>2026-04-04T09:45:23.945Z</time></trkpt><trkpt lat="44.3179709" lon="10.3952888"><ele>1407.1666666666665</ele><time>2026-04-04T09:45:24.944Z</time></trkpt><trkpt lat="44.3180533" lon="10.3953289"><ele>1405.0</ele><time>2026-04-04T09:45:25.945Z</time></trkpt><trkpt lat="44.3181359" lon="10.3953763"><ele>1405.5</ele><time>2026-04-04T09:45:26.945Z</time></trkpt><trkpt lat="44.3182203" lon="10.3954233"><ele>1406.0</ele><time>2026-04-04T09:45:27.945Z</time></trkpt><trkpt lat="44.3182994" lon="10.3954744"><ele>1406.5</ele><time>2026-04-04T09:45:28.945Z</time></trkpt><trkpt lat="44.3183729" lon="10.3955236"><ele>1407.0</ele><time>2026-04-04T09:45:29.944Z</time></trkpt><trkpt lat="44.3184352" lon="10.395594"><ele>1407.5</ele><time>2026-04-04T09:45:30.945Z</time></trkpt><trkpt lat="44.3184814" lon="10.3956814"><ele>1408.0</ele><time>2026-04-04T09:45:31.944Z</time></trkpt><trkpt lat="44.318528" lon="10.3957631"><ele>1408.0</ele><time>2026-04-04T09:45:32.944Z</time></trkpt><trkpt lat="44.3185823" lon="10.3958314"><ele>1408.0</ele><time>2026-04-04T09:45:33.945Z</time></trkpt><trkpt lat="44.3186412" lon="10.3958909"><ele>1408.0</ele><time>2026-04-04T09:45:34.945Z</time></trkpt><trkpt lat="44.3187047" lon="10.3959407"><ele>1408.0</ele><time>2026-04-04T09:45:35.944Z</time></trkpt><trkpt lat="44.3187684" lon="10.3959896"><ele>1408.0</ele><time>2026-04-04T09:45:36.944Z</time></trkpt><trkpt lat="44.3188354" lon="10.3960545"><ele>1408.0</ele><time>2026-04-04T09:45:37.944Z</time></trkpt><trkpt lat="44.3188972" lon="10.3961177"><ele>1408.0</ele><time>2026-04-04T09:45:38.945Z</time></trkpt><trkpt lat="44.318965" lon="10.3961976"><ele>1406.3333333333333</ele><time>2026-04-04T09:45:39.944Z</time></trkpt><trkpt lat="44.3190209" lon="10.3962833"><ele>1404.6666666666665</ele><time>2026-04-04T09:45:40.945Z</time></trkpt><trkpt lat="44.3190768" lon="10.3963595"><ele>1403.0</ele><time>2026-04-04T09:45:41.944Z</time></trkpt><trkpt lat="44.3191122" lon="10.3964493"><ele>1401.3333333333333</ele><time>2026-04-04T09:45:42.944Z</time></trkpt><trkpt lat="44.3191446" lon="10.3965674"><ele>1399.6666666666667</ele><time>2026-04-04T09:45:43.944Z</time></trkpt><trkpt lat="44.3191705" lon="10.3966778"><ele>1398.0</ele><time>2026-04-04T09:45:44.944Z</time></trkpt><trkpt lat="44.3191904" lon="10.3967734"><ele>1398.0</ele><time>2026-04-04T09:45:45.945Z</time></trkpt><trkpt lat="44.3192159" lon="10.3968548"><ele>1398.0</ele><time>2026-04-04T09:45:46.944Z</time></trkpt><trkpt lat="44.3192595" lon="10.3970069"><ele>1398.0</ele><time>2026-04-04T09:45:48.945Z</time></trkpt><trkpt lat="44.3193289" lon="10.3971308"><ele>1398.0</ele><time>2026-04-04T09:45:50.944Z</time></trkpt><trkpt lat="44.319405" lon="10.3971315"><ele>1398.0</ele><time>2026-04-04T09:45:52.945Z</time></trkpt><trkpt lat="44.3194937" lon="10.3970561"><ele>1398.0</ele><time>2026-04-04T09:45:54.945Z</time></trkpt><trkpt lat="44.3195236" lon="10.3969672"><ele>1398.0</ele><time>2026-04-04T09:45:55.944Z</time></trkpt><trkpt lat="44.3195493" lon="10.3968554"><ele>1398.0</ele><time>2026-04-04T09:45:56.945Z</time></trkpt><trkpt lat="44.3195978" lon="10.3967264"><ele>1398.0</ele><time>2026-04-04T09:45:57.945Z</time></trkpt><trkpt lat="44.3196293" lon="10.3966006"><ele>1398.0</ele><time>2026-04-04T09:45:58.945Z</time></trkpt><trkpt lat="44.3196428" lon="10.3964839"><ele>1398.0</ele><time>2026-04-04T09:45:59.945Z</time></trkpt><trkpt lat="44.3196206" lon="10.3963783"><ele>1396.0</ele><time>2026-04-04T09:46:00.945Z</time></trkpt><trkpt lat="44.3195689" lon="10.3962999"><ele>1394.0</ele><time>2026-04-04T09:46:01.944Z</time></trkpt><trkpt lat="44.3195047" lon="10.3962133"><ele>1392.0</ele><time>2026-04-04T09:46:02.945Z</time></trkpt><trkpt lat="44.3194324" lon="10.3961262"><ele>1390.0</ele><time>2026-04-04T09:46:03.944Z</time></trkpt><trkpt lat="44.3193573" lon="10.3960216"><ele>1388.0</ele><time>2026-04-04T09:46:04.945Z</time></trkpt><trkpt lat="44.319289" lon="10.3959251"><ele>1388.0</ele><time>2026-04-04T09:46:05.944Z</time></trkpt><trkpt lat="44.3192315" lon="10.3958282"><ele>1388.0</ele><time>2026-04-04T09:46:06.945Z</time></trkpt><trkpt lat="44.3191892" lon="10.3957362"><ele>1388.0</ele><time>2026-04-04T09:46:07.945Z</time></trkpt><trkpt lat="44.3191664" lon="10.3956342"><ele>1388.0</ele><time>2026-04-04T09:46:08.945Z</time></trkpt><trkpt lat="44.3191614" lon="10.3955232"><ele>1388.0</ele><time>2026-04-04T09:46:09.944Z</time></trkpt><trkpt lat="44.3191753" lon="10.3954145"><ele>1388.0</ele><time>2026-04-04T09:46:10.945Z</time></trkpt><trkpt lat="44.319191" lon="10.3952864"><ele>1385.3333333333335</ele><time>2026-04-04T09:46:11.945Z</time></trkpt><trkpt lat="44.3192013" lon="10.3951753"><ele>1382.6666666666667</ele><time>2026-04-04T09:46:12.944Z</time></trkpt><trkpt lat="44.319214" lon="10.3950586"><ele>1380.0</ele><time>2026-04-04T09:46:13.945Z</time></trkpt><trkpt lat="44.3192301" lon="10.3949375"><ele>1377.3333333333333</ele><time>2026-04-04T09:46:14.945Z</time></trkpt><trkpt lat="44.3192293" lon="10.394828"><ele>1374.6666666666665</ele><time>2026-04-04T09:46:15.945Z</time></trkpt><trkpt lat="44.3192103" lon="10.394741"><ele>1372.0</ele><time>2026-04-04T09:46:16.944Z</time></trkpt><trkpt lat="44.3191743" lon="10.3946634"><ele>1372.0</ele><time>2026-04-04T09:46:17.944Z</time></trkpt><trkpt lat="44.319132" lon="10.3945333"><ele>1372.0</ele><time>2026-04-04T09:46:19.944Z</time></trkpt><trkpt lat="44.3191739" lon="10.3944644"><ele>1372.0</ele><time>2026-04-04T09:46:21.945Z</time></trkpt><trkpt lat="44.3192804" lon="10.3945254"><ele>1372.0</ele><time>2026-04-04T09:46:23.945Z</time></trkpt><trkpt lat="44.3193359" lon="10.3945993"><ele>1372.0</ele><time>2026-04-04T09:46:24.945Z</time></trkpt><trkpt lat="44.3193682" lon="10.3946772"><ele>1372.0</ele><time>2026-04-04T09:46:25.944Z</time></trkpt><trkpt lat="44.3194066" lon="10.3947522"><ele>1372.0</ele><time>2026-04-04T09:46:26.945Z</time></trkpt><trkpt lat="44.3194627" lon="10.3948215"><ele>1372.0</ele><time>2026-04-04T09:46:27.944Z</time></trkpt><trkpt lat="44.3195158" lon="10.394877"><ele>1372.0</ele><time>2026-04-04T09:46:28.945Z</time></trkpt><trkpt lat="44.3196277" lon="10.3948626"><ele>1372.0</ele><time>2026-04-04T09:46:30.945Z</time></trkpt><trkpt lat="44.3197085" lon="10.3948321"><ele>1372.0</ele><time>2026-04-04T09:46:31.945Z</time></trkpt><trkpt lat="44.3197935" lon="10.3947919"><ele>1372.0</ele><time>2026-04-04T09:46:32.945Z</time></trkpt><trkpt lat="44.3198831" lon="10.394755"><ele>1369.8333333333333</ele><time>2026-04-04T09:46:33.945Z</time></trkpt><trkpt lat="44.3199705" lon="10.3947487"><ele>1367.6666666666665</ele><time>2026-04-04T09:46:34.945Z</time></trkpt><trkpt lat="44.3200531" lon="10.3947537"><ele>1365.5</ele><time>2026-04-04T09:46:35.944Z</time></trkpt><trkpt lat="44.3201311" lon="10.3947667"><ele>1363.3333333333333</ele><time>2026-04-04T09:46:36.945Z</time></trkpt><trkpt lat="44.3202053" lon="10.39479"><ele>1361.1666666666667</ele><time>2026-04-04T09:46:37.945Z</time></trkpt><trkpt lat="44.3202879" lon="10.3948154"><ele>1359.0</ele><time>2026-04-04T09:46:38.945Z</time></trkpt><trkpt lat="44.3203881" lon="10.3948497"><ele>1359.0</ele><time>2026-04-04T09:46:39.945Z</time></trkpt><trkpt lat="44.320491" lon="10.3948797"><ele>1359.0</ele><time>2026-04-04T09:46:40.945Z</time></trkpt><trkpt lat="44.3205833" lon="10.3948994"><ele>1359.0</ele><time>2026-04-04T09:46:41.945Z</time></trkpt><trkpt lat="44.3206649" lon="10.3949237"><ele>1359.0</ele><time>2026-04-04T09:46:42.945Z</time></trkpt><trkpt lat="44.3207234" lon="10.3949665"><ele>1359.0</ele><time>2026-04-04T09:46:43.945Z</time></trkpt><trkpt lat="44.3207988" lon="10.3951025"><ele>1356.8333333333333</ele><time>2026-04-04T09:46:45.945Z</time></trkpt><trkpt lat="44.3208221" lon="10.3951879"><ele>1354.6666666666667</ele><time>2026-04-04T09:46:46.944Z</time></trkpt><trkpt lat="44.3208397" lon="10.3952767"><ele>1352.5</ele><time>2026-04-04T09:46:47.944Z</time></trkpt><trkpt lat="44.3208401" lon="10.3953873"><ele>1350.3333333333335</ele><time>2026-04-04T09:46:48.944Z</time></trkpt><trkpt lat="44.3208263" lon="10.395505"><ele>1348.1666666666667</ele><time>2026-04-04T09:46:49.944Z</time></trkpt><trkpt lat="44.320811" lon="10.395624"><ele>1346.0</ele><time>2026-04-04T09:46:50.945Z</time></trkpt><trkpt lat="44.3207995" lon="10.3957545"><ele>1346.0</ele><time>2026-04-04T09:46:51.944Z</time></trkpt><trkpt lat="44.3207846" lon="10.3958952"><ele>1346.0</ele><time>2026-04-04T09:46:52.945Z</time></trkpt><trkpt lat="44.3207782" lon="10.3960144"><ele>1346.0</ele><time>2026-04-04T09:46:53.945Z</time></trkpt><trkpt lat="44.3207763" lon="10.3961437"><ele>1346.0</ele><time>2026-04-04T09:46:54.945Z</time></trkpt><trkpt lat="44.3207717" lon="10.3962704"><ele>1346.0</ele><time>2026-04-04T09:46:55.944Z</time></trkpt><trkpt lat="44.3207717" lon="10.396382"><ele>1346.6666666666667</ele><time>2026-04-04T09:46:56.945Z</time></trkpt><trkpt lat="44.320783" lon="10.3964996"><ele>1347.3333333333335</ele><time>2026-04-04T09:46:57.945Z</time></trkpt><trkpt lat="44.3208052" lon="10.3966016"><ele>1348.0</ele><time>2026-04-04T09:46:58.944Z</time></trkpt><trkpt lat="44.3208318" lon="10.3967092"><ele>1348.6666666666667</ele><time>2026-04-04T09:46:59.945Z</time></trkpt><trkpt lat="44.3208679" lon="10.3968035"><ele>1349.3333333333333</ele><time>2026-04-04T09:47:00.945Z</time></trkpt><trkpt lat="44.3209027" lon="10.3968995"><ele>1350.0</ele><time>2026-04-04T09:47:01.945Z</time></trkpt><trkpt lat="44.3209392" lon="10.396985"><ele>1350.0</ele><time>2026-04-04T09:47:02.945Z</time></trkpt><trkpt lat="44.3209921" lon="10.3970554"><ele>1350.0</ele><time>2026-04-04T09:47:03.945Z</time></trkpt><trkpt lat="44.3210488" lon="10.3971113"><ele>1350.0</ele><time>2026-04-04T09:47:04.944Z</time></trkpt><trkpt lat="44.3211345" lon="10.3971571"><ele>1350.0</ele><time>2026-04-04T09:47:05.945Z</time></trkpt><trkpt lat="44.3212356" lon="10.3971856"><ele>1350.0</ele><time>2026-04-04T09:47:06.945Z</time></trkpt><trkpt lat="44.3213471" lon="10.3972113"><ele>1348.0</ele><time>2026-04-04T09:47:07.945Z</time></trkpt><trkpt lat="44.3214491" lon="10.3972297"><ele>1346.0</ele><time>2026-04-04T09:47:08.945Z</time></trkpt><trkpt lat="44.3215458" lon="10.3972505"><ele>1344.0</ele><time>2026-04-04T09:47:09.945Z</time></trkpt><trkpt lat="44.3216489" lon="10.397245"><ele>1342.0</ele><time>2026-04-04T09:47:10.944Z</time></trkpt><trkpt lat="44.321743" lon="10.397216"><ele>1340.0</ele><time>2026-04-04T09:47:11.944Z</time></trkpt><trkpt lat="44.321842" lon="10.3971557"><ele>1336.6</ele><time>2026-04-04T09:47:12.945Z</time></trkpt><trkpt lat="44.321941" lon="10.3970947"><ele>1333.2</ele><time>2026-04-04T09:47:13.945Z</time></trkpt><trkpt lat="44.3220422" lon="10.397044"><ele>1329.8000000000002</ele><time>2026-04-04T09:47:14.945Z</time></trkpt><trkpt lat="44.3221444" lon="10.3969918"><ele>1326.4</ele><time>2026-04-04T09:47:15.945Z</time></trkpt><trkpt lat="44.3222492" lon="10.3969559"><ele>1323.0</ele><time>2026-04-04T09:47:16.945Z</time></trkpt><trkpt lat="44.3223525" lon="10.3969283"><ele>1321.8000000000002</ele><time>2026-04-04T09:47:17.945Z</time></trkpt><trkpt lat="44.3224577" lon="10.3969077"><ele>1320.6</ele><time>2026-04-04T09:47:18.945Z</time></trkpt><trkpt lat="44.3225708" lon="10.3968767"><ele>1319.4</ele><time>2026-04-04T09:47:19.945Z</time></trkpt><trkpt lat="44.3226869" lon="10.3968523"><ele>1318.1999999999998</ele><time>2026-04-04T09:47:20.945Z</time></trkpt><trkpt lat="44.3227904" lon="10.3968357"><ele>1317.0</ele><time>2026-04-04T09:47:21.944Z</time></trkpt><trkpt lat="44.3228936" lon="10.3968157"><ele>1317.0</ele><time>2026-04-04T09:47:22.945Z</time></trkpt><trkpt lat="44.3229982" lon="10.3967959"><ele>1317.0</ele><time>2026-04-04T09:47:23.945Z</time></trkpt><trkpt lat="44.3231001" lon="10.3967774"><ele>1317.0</ele><time>2026-04-04T09:47:24.944Z</time></trkpt><trkpt lat="44.3232055" lon="10.3967518"><ele>1317.0</ele><time>2026-04-04T09:47:25.945Z</time></trkpt><trkpt lat="44.3233064" lon="10.3967319"><ele>1317.0</ele><time>2026-04-04T09:47:26.945Z</time></trkpt><trkpt lat="44.3234076" lon="10.3967102"><ele>1316.3999999999999</ele><time>2026-04-04T09:47:27.945Z</time></trkpt><trkpt lat="44.323506" lon="10.3966892"><ele>1315.8</ele><time>2026-04-04T09:47:28.945Z</time></trkpt><trkpt lat="44.3235958" lon="10.3966676"><ele>1315.2</ele><time>2026-04-04T09:47:29.944Z</time></trkpt><trkpt lat="44.3236852" lon="10.3966352"><ele>1314.6</ele><time>2026-04-04T09:47:30.945Z</time></trkpt><trkpt lat="44.3237737" lon="10.3965943"><ele>1314.0</ele><time>2026-04-04T09:47:31.945Z</time></trkpt><trkpt lat="44.3238569" lon="10.3965396"><ele>1313.0</ele><time>2026-04-04T09:47:32.944Z</time></trkpt><trkpt lat="44.3239341" lon="10.3964841"><ele>1312.0</ele><time>2026-04-04T09:47:33.945Z</time></trkpt><trkpt lat="44.3240113" lon="10.3964348"><ele>1311.0</ele><time>2026-04-04T09:47:34.945Z</time></trkpt><trkpt lat="44.3240852" lon="10.3963727"><ele>1310.0</ele><time>2026-04-04T09:47:35.945Z</time></trkpt><trkpt lat="44.3241609" lon="10.3962968"><ele>1309.0</ele><time>2026-04-04T09:47:36.945Z</time></trkpt><trkpt lat="44.3242387" lon="10.3962128"><ele>1308.0</ele><time>2026-04-04T09:47:37.945Z</time></trkpt><trkpt lat="44.3243035" lon="10.396147"><ele>1306.8333333333333</ele><time>2026-04-04T09:47:38.944Z</time></trkpt><trkpt lat="44.3243725" lon="10.3960899"><ele>1305.6666666666667</ele><time>2026-04-04T09:47:39.944Z</time></trkpt><trkpt lat="44.3244421" lon="10.396038"><ele>1304.5</ele><time>2026-04-04T09:47:40.945Z</time></trkpt><trkpt lat="44.3245139" lon="10.3959901"><ele>1303.3333333333335</ele><time>2026-04-04T09:47:41.945Z</time></trkpt><trkpt lat="44.3245829" lon="10.3959429"><ele>1302.1666666666667</ele><time>2026-04-04T09:47:42.945Z</time></trkpt><trkpt lat="44.3246476" lon="10.3958826"><ele>1301.0</ele><time>2026-04-04T09:47:43.945Z</time></trkpt><trkpt lat="44.3247258" lon="10.3958033"><ele>1299.0</ele><time>2026-04-04T09:47:44.944Z</time></trkpt><trkpt lat="44.32478" lon="10.395736"><ele>1297.0</ele><time>2026-04-04T09:47:45.945Z</time></trkpt><trkpt lat="44.3248141" lon="10.3956478"><ele>1295.0</ele><time>2026-04-04T09:47:46.945Z</time></trkpt><trkpt lat="44.3248327" lon="10.395531"><ele>1293.0</ele><time>2026-04-04T09:47:47.945Z</time></trkpt><trkpt lat="44.3248282" lon="10.395401"><ele>1291.0</ele><time>2026-04-04T09:47:48.945Z</time></trkpt><trkpt lat="44.3248081" lon="10.3952543"><ele>1289.0</ele><time>2026-04-04T09:47:49.945Z</time></trkpt><trkpt lat="44.324787" lon="10.3951209"><ele>1289.1666666666667</ele><time>2026-04-04T09:47:50.945Z</time></trkpt><trkpt lat="44.324756" lon="10.3949827"><ele>1289.3333333333335</ele><time>2026-04-04T09:47:51.945Z</time></trkpt><trkpt lat="44.3247153" lon="10.3948727"><ele>1289.5</ele><time>2026-04-04T09:47:52.944Z</time></trkpt><trkpt lat="44.3246684" lon="10.3947734"><ele>1289.6666666666667</ele><time>2026-04-04T09:47:53.945Z</time></trkpt><trkpt lat="44.3246188" lon="10.394689"><ele>1289.8333333333333</ele><time>2026-04-04T09:47:54.944Z</time></trkpt><trkpt lat="44.3245558" lon="10.3946161"><ele>1290.0</ele><time>2026-04-04T09:47:55.944Z</time></trkpt><trkpt lat="44.3244794" lon="10.3945486"><ele>1290.0</ele><time>2026-04-04T09:47:56.945Z</time></trkpt><trkpt lat="44.3243936" lon="10.3944708"><ele>1290.0</ele><time>2026-04-04T09:47:57.945Z</time></trkpt><trkpt lat="44.3243068" lon="10.3943909"><ele>1290.0</ele><time>2026-04-04T09:47:58.944Z</time></trkpt><trkpt lat="44.3242323" lon="10.3943119"><ele>1290.0</ele><time>2026-04-04T09:47:59.945Z</time></trkpt><trkpt lat="44.3241859" lon="10.3942055"><ele>1290.0</ele><time>2026-04-04T09:48:00.944Z</time></trkpt><trkpt lat="44.3241578" lon="10.3940881"><ele>1290.0</ele><time>2026-04-04T09:48:01.945Z</time></trkpt><trkpt lat="44.3241591" lon="10.3939713"><ele>1290.0</ele><time>2026-04-04T09:48:02.945Z</time></trkpt><trkpt lat="44.3241929" lon="10.3938449"><ele>1290.0</ele><time>2026-04-04T09:48:03.945Z</time></trkpt><trkpt lat="44.3242214" lon="10.3937034"><ele>1290.0</ele><time>2026-04-04T09:48:04.944Z</time></trkpt><trkpt lat="44.3242409" lon="10.393522"><ele>1290.0</ele><time>2026-04-04T09:48:05.944Z</time></trkpt><trkpt lat="44.324262" lon="10.3933381"><ele>1287.5</ele><time>2026-04-04T09:48:06.945Z</time></trkpt><trkpt lat="44.3242695" lon="10.3931616"><ele>1285.0</ele><time>2026-04-04T09:48:07.944Z</time></trkpt><trkpt lat="44.3242874" lon="10.3929884"><ele>1282.5</ele><time>2026-04-04T09:48:08.945Z</time></trkpt><trkpt lat="44.3243091" lon="10.3928089"><ele>1280.0</ele><time>2026-04-04T09:48:09.945Z</time></trkpt><trkpt lat="44.3243299" lon="10.3926315"><ele>1279.0</ele><time>2026-04-04T09:48:10.945Z</time></trkpt><trkpt lat="44.324354" lon="10.3924718"><ele>1278.0</ele><time>2026-04-04T09:48:11.945Z</time></trkpt><trkpt lat="44.3243783" lon="10.3923325"><ele>1277.0</ele><time>2026-04-04T09:48:12.945Z</time></trkpt><trkpt lat="44.3243938" lon="10.3922028"><ele>1276.0</ele><time>2026-04-04T09:48:13.944Z</time></trkpt><trkpt lat="44.3243904" lon="10.3920851"><ele>1275.0</ele><time>2026-04-04T09:48:14.945Z</time></trkpt><trkpt lat="44.3243644" lon="10.3919846"><ele>1273.4</ele><time>2026-04-04T09:48:15.944Z</time></trkpt><trkpt lat="44.3243085" lon="10.3918933"><ele>1271.8</ele><time>2026-04-04T09:48:16.945Z</time></trkpt><trkpt lat="44.3242291" lon="10.3917959"><ele>1270.2</ele><time>2026-04-04T09:48:17.945Z</time></trkpt><trkpt lat="44.3241548" lon="10.3916847"><ele>1268.6</ele><time>2026-04-04T09:48:18.944Z</time></trkpt><trkpt lat="44.3240894" lon="10.3915703"><ele>1267.0</ele><time>2026-04-04T09:48:19.944Z</time></trkpt><trkpt lat="44.3240338" lon="10.3914562"><ele>1267.0</ele><time>2026-04-04T09:48:20.944Z</time></trkpt><trkpt lat="44.323986" lon="10.3913432"><ele>1267.0</ele><time>2026-04-04T09:48:21.943Z</time></trkpt><trkpt lat="44.3239514" lon="10.3912271"><ele>1267.0</ele><time>2026-04-04T09:48:22.944Z</time></trkpt><trkpt lat="44.3239366" lon="10.391119"><ele>1267.0</ele><time>2026-04-04T09:48:23.944Z</time></trkpt><trkpt lat="44.3239362" lon="10.3910076"><ele>1267.0</ele><time>2026-04-04T09:48:24.944Z</time></trkpt><trkpt lat="44.3239392" lon="10.3908982"><ele>1267.0</ele><time>2026-04-04T09:48:25.943Z</time></trkpt><trkpt lat="44.3239559" lon="10.3907934"><ele>1266.0</ele><time>2026-04-04T09:48:26.944Z</time></trkpt><trkpt lat="44.3239954" lon="10.3906911"><ele>1265.0</ele><time>2026-04-04T09:48:27.944Z</time></trkpt><trkpt lat="44.3240521" lon="10.3906015"><ele>1264.0</ele><time>2026-04-04T09:48:28.943Z</time></trkpt><trkpt lat="44.3241138" lon="10.3905289"><ele>1263.0</ele><time>2026-04-04T09:48:29.943Z</time></trkpt><trkpt lat="44.3241845" lon="10.3904596"><ele>1262.0</ele><time>2026-04-04T09:48:30.944Z</time></trkpt><trkpt lat="44.3242568" lon="10.3903885"><ele>1261.0</ele><time>2026-04-04T09:48:31.944Z</time></trkpt><trkpt lat="44.3243358" lon="10.390343"><ele>1259.8333333333333</ele><time>2026-04-04T09:48:32.944Z</time></trkpt><trkpt lat="44.3244257" lon="10.3903105"><ele>1258.6666666666665</ele><time>2026-04-04T09:48:33.944Z</time></trkpt><trkpt lat="44.3245143" lon="10.3902989"><ele>1257.5</ele><time>2026-04-04T09:48:34.944Z</time></trkpt><trkpt lat="44.3245967" lon="10.3902932"><ele>1256.3333333333333</ele><time>2026-04-04T09:48:35.944Z</time></trkpt><trkpt lat="44.32467" lon="10.3902867"><ele>1255.1666666666667</ele><time>2026-04-04T09:48:36.944Z</time></trkpt><trkpt lat="44.3247337" lon="10.390286"><ele>1254.0</ele><time>2026-04-04T09:48:37.944Z</time></trkpt><trkpt lat="44.3248197" lon="10.390311"><ele>1251.0</ele><time>2026-04-04T09:48:39.944Z</time></trkpt></trkseg><trkseg><trkpt lat="44.329506" lon="10.3853037"><ele>1162.0</ele><time>2026-04-04T09:51:10.944Z</time></trkpt><trkpt lat="44.3295897" lon="10.3852467"><ele>1162.0</ele><time>2026-04-04T09:51:24.943Z</time></trkpt><trkpt lat="44.3296891" lon="10.3851345"><ele>1162.0</ele><time>2026-04-04T09:51:26.944Z</time></trkpt><trkpt lat="44.3297492" lon="10.38508"><ele>1162.0</ele><time>2026-04-04T09:51:27.944Z</time></trkpt><trkpt lat="44.3298138" lon="10.3850426"><ele>1162.0</ele><time>2026-04-04T09:51:28.944Z</time></trkpt><trkpt lat="44.3299343" lon="10.3849742"><ele>1160.8</ele><time>2026-04-04T09:51:30.943Z</time></trkpt><trkpt lat="44.3300086" lon="10.3849409"><ele>1159.6</ele><time>2026-04-04T09:51:31.944Z</time></trkpt><trkpt lat="44.3300937" lon="10.3849154"><ele>1158.3999999999999</ele><time>2026-04-04T09:51:32.943Z</time></trkpt><trkpt lat="44.3301834" lon="10.3848622"><ele>1157.2</ele><time>2026-04-04T09:51:33.944Z</time></trkpt><trkpt lat="44.3302823" lon="10.3847974"><ele>1156.0</ele><time>2026-04-04T09:51:34.944Z</time></trkpt><trkpt lat="44.3303798" lon="10.3847096"><ele>1156.0</ele><time>2026-04-04T09:51:35.944Z</time></trkpt><trkpt lat="44.33048" lon="10.3846059"><ele>1156.0</ele><time>2026-04-04T09:51:36.944Z</time></trkpt><trkpt lat="44.3305848" lon="10.3845073"><ele>1156.0</ele><time>2026-04-04T09:51:37.943Z</time></trkpt><trkpt lat="44.3306812" lon="10.3844324"><ele>1156.0</ele><time>2026-04-04T09:51:38.944Z</time></trkpt><trkpt lat="44.3307661" lon="10.3843696"><ele>1156.0</ele><time>2026-04-04T09:51:39.944Z</time></trkpt><trkpt lat="44.3308459" lon="10.38432"><ele>1156.0</ele><time>2026-04-04T09:51:40.944Z</time></trkpt><trkpt lat="44.3309245" lon="10.3842592"><ele>1156.0</ele><time>2026-04-04T09:51:41.944Z</time></trkpt><trkpt lat="44.3310072" lon="10.3841802"><ele>1156.0</ele><time>2026-04-04T09:51:42.943Z</time></trkpt><trkpt lat="44.3310802" lon="10.3841009"><ele>1156.0</ele><time>2026-04-04T09:51:43.943Z</time></trkpt><trkpt lat="44.3311404" lon="10.3840137"><ele>1156.0</ele><time>2026-04-04T09:51:44.944Z</time></trkpt><trkpt lat="44.3311972" lon="10.383927"><ele>1156.0</ele><time>2026-04-04T09:51:45.944Z</time></trkpt><trkpt lat="44.331248" lon="10.3838657"><ele>1156.0</ele><time>2026-04-04T09:51:46.944Z</time></trkpt><trkpt lat="44.3313241" lon="10.3837884"><ele>1156.0</ele><time>2026-04-04T09:51:48.944Z</time></trkpt><trkpt lat="44.3314212" lon="10.3837074"><ele>1156.0</ele><time>2026-04-04T09:51:50.944Z</time></trkpt><trkpt lat="44.3314835" lon="10.383645"><ele>1156.0</ele><time>2026-04-04T09:51:51.943Z</time></trkpt><trkpt lat="44.3315659" lon="10.3835643"><ele>1155.8</ele><time>2026-04-04T09:51:52.944Z</time></trkpt><trkpt lat="44.3316599" lon="10.3834737"><ele>1155.6</ele><time>2026-04-04T09:51:53.944Z</time></trkpt><trkpt lat="44.3317593" lon="10.3833669"><ele>1155.4</ele><time>2026-04-04T09:51:54.943Z</time></trkpt><trkpt lat="44.331848" lon="10.3832823"><ele>1155.2</ele><time>2026-04-04T09:51:55.944Z</time></trkpt><trkpt lat="44.3319163" lon="10.3832095"><ele>1155.0</ele><time>2026-04-04T09:51:56.944Z</time></trkpt><trkpt lat="44.3319726" lon="10.383117"><ele>1154.6666666666667</ele><time>2026-04-04T09:51:57.944Z</time></trkpt><trkpt lat="44.3320219" lon="10.3830132"><ele>1154.3333333333333</ele><time>2026-04-04T09:51:58.944Z</time></trkpt><trkpt lat="44.3320643" lon="10.382904"><ele>1154.0</ele><time>2026-04-04T09:51:59.944Z</time></trkpt><trkpt lat="44.3321017" lon="10.3828013"><ele>1153.6666666666665</ele><time>2026-04-04T09:52:00.943Z</time></trkpt><trkpt lat="44.3321496" lon="10.3827132"><ele>1153.3333333333333</ele><time>2026-04-04T09:52:01.944Z</time></trkpt><trkpt lat="44.3322066" lon="10.3826412"><ele>1153.0</ele><time>2026-04-04T09:52:02.944Z</time></trkpt><trkpt lat="44.3322739" lon="10.3825789"><ele>1153.0</ele><time>2026-04-04T09:52:03.944Z</time></trkpt><trkpt lat="44.3323446" lon="10.3824993"><ele>1153.0</ele><time>2026-04-04T09:52:04.944Z</time></trkpt><trkpt lat="44.3324131" lon="10.3824004"><ele>1153.0</ele><time>2026-04-04T09:52:05.944Z</time></trkpt><trkpt lat="44.3324843" lon="10.3823004"><ele>1153.0</ele><time>2026-04-04T09:52:06.944Z</time></trkpt><trkpt lat="44.3325614" lon="10.3822134"><ele>1153.0</ele><time>2026-04-04T09:52:07.943Z</time></trkpt><trkpt lat="44.3326456" lon="10.3821387"><ele>1150.0</ele><time>2026-04-04T09:52:08.944Z</time></trkpt><trkpt lat="44.3327356" lon="10.3820945"><ele>1147.0</ele><time>2026-04-04T09:52:09.943Z</time></trkpt><trkpt lat="44.3328193" lon="10.3820649"><ele>1144.0</ele><time>2026-04-04T09:52:10.944Z</time></trkpt><trkpt lat="44.3329044" lon="10.382034"><ele>1141.0</ele><time>2026-04-04T09:52:11.944Z</time></trkpt><trkpt lat="44.332982" lon="10.3819718"><ele>1138.0</ele><time>2026-04-04T09:52:12.943Z</time></trkpt><trkpt lat="44.3330371" lon="10.381869"><ele>1139.2</ele><time>2026-04-04T09:52:13.944Z</time></trkpt><trkpt lat="44.3330752" lon="10.3817321"><ele>1140.4</ele><time>2026-04-04T09:52:14.944Z</time></trkpt><trkpt lat="44.3330765" lon="10.3815917"><ele>1141.6000000000001</ele><time>2026-04-04T09:52:15.944Z</time></trkpt><trkpt lat="44.3330615" lon="10.3814635"><ele>1142.8</ele><time>2026-04-04T09:52:16.944Z</time></trkpt><trkpt lat="44.3330529" lon="10.381339"><ele>1144.0</ele><time>2026-04-04T09:52:17.944Z</time></trkpt><trkpt lat="44.3330508" lon="10.3812117"><ele>1143.0</ele><time>2026-04-04T09:52:18.944Z</time></trkpt><trkpt lat="44.3330594" lon="10.3810692"><ele>1142.0</ele><time>2026-04-04T09:52:19.943Z</time></trkpt><trkpt lat="44.3330725" lon="10.380938"><ele>1141.0</ele><time>2026-04-04T09:52:20.944Z</time></trkpt><trkpt lat="44.3330841" lon="10.3808158"><ele>1140.0</ele><time>2026-04-04T09:52:21.944Z</time></trkpt><trkpt lat="44.3330932" lon="10.3807158"><ele>1139.0</ele><time>2026-04-04T09:52:22.944Z</time></trkpt><trkpt lat="44.3331677" lon="10.3806104"><ele>1139.0</ele><time>2026-04-04T09:52:24.943Z</time></trkpt><trkpt lat="44.333259" lon="10.3806493"><ele>1139.0</ele><time>2026-04-04T09:52:26.944Z</time></trkpt><trkpt lat="44.3333461" lon="10.3807757"><ele>1139.0</ele><time>2026-04-04T09:52:28.944Z</time></trkpt><trkpt lat="44.3333969" lon="10.3808431"><ele>1139.0</ele><time>2026-04-04T09:52:29.943Z</time></trkpt><trkpt lat="44.3334478" lon="10.3809156"><ele>1139.0</ele><time>2026-04-04T09:52:30.943Z</time></trkpt><trkpt lat="44.3335071" lon="10.3809926"><ele>1139.0</ele><time>2026-04-04T09:52:31.944Z</time></trkpt><trkpt lat="44.333562" lon="10.3810829"><ele>1139.0</ele><time>2026-04-04T09:52:32.944Z</time></trkpt><trkpt lat="44.3336168" lon="10.3811722"><ele>1139.0</ele><time>2026-04-04T09:52:33.944Z</time></trkpt><trkpt lat="44.3336686" lon="10.3812552"><ele>1139.0</ele><time>2026-04-04T09:52:34.944Z</time></trkpt><trkpt lat="44.333735" lon="10.3813292"><ele>1139.0</ele><time>2026-04-04T09:52:35.944Z</time></trkpt><trkpt lat="44.3338104" lon="10.3813994"><ele>1139.0</ele><time>2026-04-04T09:52:36.943Z</time></trkpt><trkpt lat="44.3338705" lon="10.3815127"><ele>1139.0</ele><time>2026-04-04T09:52:37.943Z</time></trkpt><trkpt lat="44.3339059" lon="10.3816229"><ele>1137.8333333333335</ele><time>2026-04-04T09:52:38.944Z</time></trkpt><trkpt lat="44.3339291" lon="10.3817351"><ele>1136.6666666666667</ele><time>2026-04-04T09:52:39.943Z</time></trkpt><trkpt lat="44.3339236" lon="10.381844"><ele>1135.5</ele><time>2026-04-04T09:52:40.944Z</time></trkpt><trkpt lat="44.3339145" lon="10.3819599"><ele>1134.3333333333333</ele><time>2026-04-04T09:52:41.943Z</time></trkpt><trkpt lat="44.3339483" lon="10.3820793"><ele>1133.1666666666665</ele><time>2026-04-04T09:52:42.943Z</time></trkpt><trkpt lat="44.333994" lon="10.3821983"><ele>1132.0</ele><time>2026-04-04T09:52:43.944Z</time></trkpt><trkpt lat="44.3340325" lon="10.3823004"><ele>1132.0</ele><time>2026-04-04T09:52:44.944Z</time></trkpt><trkpt lat="44.3340705" lon="10.3823953"><ele>1132.0</ele><time>2026-04-04T09:52:45.943Z</time></trkpt><trkpt lat="44.3341109" lon="10.3824827"><ele>1132.0</ele><time>2026-04-04T09:52:46.944Z</time></trkpt><trkpt lat="44.3341606" lon="10.3825744"><ele>1132.0</ele><time>2026-04-04T09:52:47.944Z</time></trkpt><trkpt lat="44.3342263" lon="10.3826824"><ele>1132.0</ele><time>2026-04-04T09:52:48.944Z</time></trkpt><trkpt lat="44.3342971" lon="10.3827904"><ele>1132.0</ele><time>2026-04-04T09:52:49.943Z</time></trkpt><trkpt lat="44.3343572" lon="10.3828861"><ele>1132.0</ele><time>2026-04-04T09:52:50.944Z</time></trkpt><trkpt lat="44.3344188" lon="10.3829779"><ele>1132.0</ele><time>2026-04-04T09:52:51.944Z</time></trkpt><trkpt lat="44.3344798" lon="10.3830532"><ele>1132.0</ele><time>2026-04-04T09:52:52.943Z</time></trkpt><trkpt lat="44.3345443" lon="10.3831157"><ele>1132.0</ele><time>2026-04-04T09:52:53.944Z</time></trkpt><trkpt lat="44.3346072" lon="10.3831719"><ele>1132.0</ele><time>2026-04-04T09:52:54.943Z</time></trkpt><trkpt lat="44.3346661" lon="10.383216"><ele>1132.0</ele><time>2026-04-04T09:52:55.944Z</time></trkpt><trkpt lat="44.3347267" lon="10.3832505"><ele>1130.3333333333333</ele><time>2026-04-04T09:52:56.943Z</time></trkpt><trkpt lat="44.3348476" lon="10.3832666"><ele>1128.6666666666665</ele><time>2026-04-04T09:52:58.944Z</time></trkpt><trkpt lat="44.3349463" lon="10.3832669"><ele>1127.0</ele><time>2026-04-04T09:53:00.943Z</time></trkpt><trkpt lat="44.335012" lon="10.3832641"><ele>1125.3333333333333</ele><time>2026-04-04T09:53:01.944Z</time></trkpt><trkpt lat="44.335083" lon="10.3832477"><ele>1123.6666666666667</ele><time>2026-04-04T09:53:02.943Z</time></trkpt><trkpt lat="44.3351488" lon="10.3832406"><ele>1122.0</ele><time>2026-04-04T09:53:03.944Z</time></trkpt><trkpt lat="44.335214" lon="10.3832284"><ele>1122.0</ele><time>2026-04-04T09:53:04.944Z</time></trkpt><trkpt lat="44.3352781" lon="10.3832084"><ele>1122.0</ele><time>2026-04-04T09:53:05.944Z</time></trkpt><trkpt lat="44.3353426" lon="10.3831925"><ele>1122.0</ele><time>2026-04-04T09:53:06.943Z</time></trkpt><trkpt lat="44.335409" lon="10.3831684"><ele>1122.0</ele><time>2026-04-04T09:53:07.944Z</time></trkpt><trkpt lat="44.3354729" lon="10.3831587"><ele>1122.0</ele><time>2026-04-04T09:53:08.943Z</time></trkpt><trkpt lat="44.335539" lon="10.3831598"><ele>1122.0</ele><time>2026-04-04T09:53:09.944Z</time></trkpt><trkpt lat="44.3356068" lon="10.3831499"><ele>1122.0</ele><time>2026-04-04T09:53:10.944Z</time></trkpt><trkpt lat="44.3356916" lon="10.3831204"><ele>1120.0</ele><time>2026-04-04T09:53:11.943Z</time></trkpt><trkpt lat="44.3357783" lon="10.3830871"><ele>1118.0</ele><time>2026-04-04T09:53:12.943Z</time></trkpt><trkpt lat="44.335855" lon="10.3830883"><ele>1116.0</ele><time>2026-04-04T09:53:13.944Z</time></trkpt><trkpt lat="44.3359611" lon="10.383148"><ele>1114.0</ele><time>2026-04-04T09:53:15.944Z</time></trkpt><trkpt lat="44.3361065" lon="10.3831774"><ele>1112.0</ele><time>2026-04-04T09:53:17.944Z</time></trkpt><trkpt lat="44.3362102" lon="10.3831988"><ele>1112.0</ele><time>2026-04-04T09:53:18.943Z</time></trkpt><trkpt lat="44.3362976" lon="10.3832504"><ele>1112.0</ele><time>2026-04-04T09:53:19.944Z</time></trkpt><trkpt lat="44.3363643" lon="10.3833105"><ele>1112.0</ele><time>2026-04-04T09:53:20.944Z</time></trkpt><trkpt lat="44.3364401" lon="10.3833689"><ele>1112.0</ele><time>2026-04-04T09:53:21.944Z</time></trkpt><trkpt lat="44.3365126" lon="10.3834301"><ele>1112.0</ele><time>2026-04-04T09:53:22.943Z</time></trkpt><trkpt lat="44.3365851" lon="10.3834856"><ele>1112.0</ele><time>2026-04-04T09:53:23.944Z</time></trkpt><trkpt lat="44.3366535" lon="10.3835178"><ele>1110.8333333333335</ele><time>2026-04-04T09:53:24.944Z</time></trkpt><trkpt lat="44.3367227" lon="10.3835295"><ele>1109.6666666666667</ele><time>2026-04-04T09:53:25.944Z</time></trkpt><trkpt lat="44.3367984" lon="10.3835298"><ele>1108.5</ele><time>2026-04-04T09:53:26.944Z</time></trkpt><trkpt lat="44.33689" lon="10.383544"><ele>1107.3333333333333</ele><time>2026-04-04T09:53:27.943Z</time></trkpt><trkpt lat="44.336984" lon="10.3835803"><ele>1106.1666666666665</ele><time>2026-04-04T09:53:28.944Z</time></trkpt><trkpt lat="44.3370718" lon="10.3836068"><ele>1105.0</ele><time>2026-04-04T09:53:29.944Z</time></trkpt><trkpt lat="44.3371479" lon="10.3836363"><ele>1104.1666666666665</ele><time>2026-04-04T09:53:30.944Z</time></trkpt><trkpt lat="44.3372275" lon="10.383665"><ele>1103.3333333333333</ele><time>2026-04-04T09:53:31.943Z</time></trkpt><trkpt lat="44.3373098" lon="10.3836839"><ele>1102.5</ele><time>2026-04-04T09:53:32.944Z</time></trkpt><trkpt lat="44.3373875" lon="10.383687"><ele>1101.6666666666667</ele><time>2026-04-04T09:53:33.944Z</time></trkpt><trkpt lat="44.3374685" lon="10.3836811"><ele>1100.8333333333335</ele><time>2026-04-04T09:53:34.944Z</time></trkpt><trkpt lat="44.3375431" lon="10.3836698"><ele>1100.0</ele><time>2026-04-04T09:53:35.943Z</time></trkpt><trkpt lat="44.3376209" lon="10.3836476"><ele>1100.0</ele><time>2026-04-04T09:53:36.944Z</time></trkpt><trkpt lat="44.3377068" lon="10.383614"><ele>1100.0</ele><time>2026-04-04T09:53:37.943Z</time></trkpt><trkpt lat="44.3378007" lon="10.3835779"><ele>1100.0</ele><time>2026-04-04T09:53:38.943Z</time></trkpt><trkpt lat="44.3378953" lon="10.3835509"><ele>1100.0</ele><time>2026-04-04T09:53:39.944Z</time></trkpt><trkpt lat="44.3379766" lon="10.3835584"><ele>1100.0</ele><time>2026-04-04T09:53:40.944Z</time></trkpt><trkpt lat="44.3380494" lon="10.3835924"><ele>1100.0</ele><time>2026-04-04T09:53:41.944Z</time></trkpt><trkpt lat="44.3381283" lon="10.3836384"><ele>1099.8</ele><time>2026-04-04T09:53:42.943Z</time></trkpt><trkpt lat="44.338208" lon="10.3836893"><ele>1099.6</ele><time>2026-04-04T09:53:43.943Z</time></trkpt><trkpt lat="44.3382936" lon="10.3837442"><ele>1099.4</ele><time>2026-04-04T09:53:44.944Z</time></trkpt><trkpt lat="44.3383813" lon="10.3838033"><ele>1099.2</ele><time>2026-04-04T09:53:45.943Z</time></trkpt><trkpt lat="44.3384737" lon="10.3838594"><ele>1099.0</ele><time>2026-04-04T09:53:46.944Z</time></trkpt><trkpt lat="44.338565" lon="10.3839063"><ele>1099.4</ele><time>2026-04-04T09:53:47.944Z</time></trkpt><trkpt lat="44.3386611" lon="10.3839513"><ele>1099.8000000000002</ele><time>2026-04-04T09:53:48.944Z</time></trkpt><trkpt lat="44.3387553" lon="10.3839985"><ele>1100.1999999999998</ele><time>2026-04-04T09:53:49.944Z</time></trkpt><trkpt lat="44.3388436" lon="10.3840392"><ele>1100.6</ele><time>2026-04-04T09:53:50.943Z</time></trkpt><trkpt lat="44.3389351" lon="10.3840865"><ele>1101.0</ele><time>2026-04-04T09:53:51.943Z</time></trkpt><trkpt lat="44.3390257" lon="10.3841331"><ele>1101.0</ele><time>2026-04-04T09:53:52.943Z</time></trkpt><trkpt lat="44.3391163" lon="10.3841791"><ele>1101.0</ele><time>2026-04-04T09:53:53.944Z</time></trkpt><trkpt lat="44.3392094" lon="10.3842113"><ele>1101.0</ele><time>2026-04-04T09:53:54.944Z</time></trkpt><trkpt lat="44.3393084" lon="10.3842588"><ele>1101.0</ele><time>2026-04-04T09:53:55.944Z</time></trkpt><trkpt lat="44.3393984" lon="10.3843097"><ele>1101.0</ele><time>2026-04-04T09:53:56.943Z</time></trkpt><trkpt lat="44.3394974" lon="10.3843758"><ele>1101.0</ele><time>2026-04-04T09:53:57.944Z</time></trkpt><trkpt lat="44.3395558" lon="10.3844284"><ele>1101.0</ele><time>2026-04-04T09:53:58.944Z</time></trkpt><trkpt lat="44.3396094" lon="10.3844964"><ele>1101.0</ele><time>2026-04-04T09:53:59.944Z</time></trkpt><trkpt lat="44.3396681" lon="10.38458"><ele>1101.0</ele><time>2026-04-04T09:54:00.943Z</time></trkpt><trkpt lat="44.3397217" lon="10.3846681"><ele>1101.0</ele><time>2026-04-04T09:54:01.943Z</time></trkpt><trkpt lat="44.339782" lon="10.384765"><ele>1101.0</ele><time>2026-04-04T09:54:02.943Z</time></trkpt><trkpt lat="44.3398523" lon="10.3848408"><ele>1099.8333333333333</ele><time>2026-04-04T09:54:03.944Z</time></trkpt><trkpt lat="44.3399222" lon="10.3848983"><ele>1098.6666666666667</ele><time>2026-04-04T09:54:04.944Z</time></trkpt><trkpt lat="44.3399967" lon="10.3849439"><ele>1097.5</ele><time>2026-04-04T09:54:05.943Z</time></trkpt><trkpt lat="44.3400651" lon="10.3849706"><ele>1096.3333333333335</ele><time>2026-04-04T09:54:06.944Z</time></trkpt><trkpt lat="44.3401394" lon="10.3849728"><ele>1095.1666666666667</ele><time>2026-04-04T09:54:07.943Z</time></trkpt><trkpt lat="44.3402204" lon="10.3849606"><ele>1094.0</ele><time>2026-04-04T09:54:08.943Z</time></trkpt><trkpt lat="44.3403087" lon="10.3849355"><ele>1094.0</ele><time>2026-04-04T09:54:09.943Z</time></trkpt><trkpt lat="44.3404044" lon="10.384911"><ele>1094.0</ele><time>2026-04-04T09:54:10.943Z</time></trkpt><trkpt lat="44.3405008" lon="10.3849011"><ele>1094.0</ele><time>2026-04-04T09:54:11.944Z</time></trkpt><trkpt lat="44.340595" lon="10.3849009"><ele>1094.0</ele><time>2026-04-04T09:54:12.944Z</time></trkpt><trkpt lat="44.3406826" lon="10.3849128"><ele>1094.0</ele><time>2026-04-04T09:54:13.943Z</time></trkpt><trkpt lat="44.3407709" lon="10.3849336"><ele>1093.5</ele><time>2026-04-04T09:54:14.943Z</time></trkpt><trkpt lat="44.3408512" lon="10.3849643"><ele>1093.0</ele><time>2026-04-04T09:54:15.944Z</time></trkpt><trkpt lat="44.3409193" lon="10.3849903"><ele>1092.5</ele><time>2026-04-04T09:54:16.944Z</time></trkpt><trkpt lat="44.3409855" lon="10.3849918"><ele>1092.0</ele><time>2026-04-04T09:54:17.944Z</time></trkpt><trkpt lat="44.3410548" lon="10.3849579"><ele>1091.5</ele><time>2026-04-04T09:54:18.944Z</time></trkpt><trkpt lat="44.3411449" lon="10.3848926"><ele>1091.0</ele><time>2026-04-04T09:54:19.944Z</time></trkpt><trkpt lat="44.3412329" lon="10.3848314"><ele>1091.0</ele><time>2026-04-04T09:54:20.943Z</time></trkpt><trkpt lat="44.3413166" lon="10.3847865"><ele>1091.0</ele><time>2026-04-04T09:54:21.944Z</time></trkpt><trkpt lat="44.3414028" lon="10.384723"><ele>1091.0</ele><time>2026-04-04T09:54:22.944Z</time></trkpt><trkpt lat="44.3414842" lon="10.3846629"><ele>1091.0</ele><time>2026-04-04T09:54:23.944Z</time></trkpt><trkpt lat="44.3415584" lon="10.3845931"><ele>1091.0</ele><time>2026-04-04T09:54:24.943Z</time></trkpt><trkpt lat="44.3416285" lon="10.38453"><ele>1090.0</ele><time>2026-04-04T09:54:25.944Z</time></trkpt><trkpt lat="44.3417038" lon="10.3844651"><ele>1089.0</ele><time>2026-04-04T09:54:26.943Z</time></trkpt><trkpt lat="44.3417867" lon="10.3844012"><ele>1088.0</ele><time>2026-04-04T09:54:27.943Z</time></trkpt><trkpt lat="44.3418768" lon="10.3843684"><ele>1087.0</ele><time>2026-04-04T09:54:28.944Z</time></trkpt><trkpt lat="44.3419651" lon="10.3843498"><ele>1086.0</ele><time>2026-04-04T09:54:29.943Z</time></trkpt><trkpt lat="44.3420492" lon="10.3843334"><ele>1086.0</ele><time>2026-04-04T09:54:30.944Z</time></trkpt><trkpt lat="44.3421406" lon="10.3843111"><ele>1086.0</ele><time>2026-04-04T09:54:31.943Z</time></trkpt><trkpt lat="44.3422364" lon="10.3842869"><ele>1086.0</ele><time>2026-04-04T09:54:32.943Z</time></trkpt><trkpt lat="44.3423267" lon="10.3842725"><ele>1086.0</ele><time>2026-04-04T09:54:33.944Z</time></trkpt><trkpt lat="44.3424172" lon="10.3842603"><ele>1086.0</ele><time>2026-04-04T09:54:34.944Z</time></trkpt><trkpt lat="44.3425113" lon="10.3842575"><ele>1084.3999999999999</ele><time>2026-04-04T09:54:35.943Z</time></trkpt><trkpt lat="44.342606" lon="10.384266"><ele>1082.8</ele><time>2026-04-04T09:54:36.944Z</time></trkpt><trkpt lat="44.3427058" lon="10.3842733"><ele>1081.1999999999998</ele><time>2026-04-04T09:54:37.944Z</time></trkpt><trkpt lat="44.3428022" lon="10.3842674"><ele>1079.6</ele><time>2026-04-04T09:54:38.944Z</time></trkpt><trkpt lat="44.3429033" lon="10.3842602"><ele>1078.0</ele><time>2026-04-04T09:54:39.944Z</time></trkpt><trkpt lat="44.3430011" lon="10.3842587"><ele>1076.4</ele><time>2026-04-04T09:54:40.944Z</time></trkpt><trkpt lat="44.3430974" lon="10.3842667"><ele>1074.8</ele><time>2026-04-04T09:54:41.943Z</time></trkpt><trkpt lat="44.3431916" lon="10.3842806"><ele>1073.2</ele><time>2026-04-04T09:54:42.944Z</time></trkpt><trkpt lat="44.3432843" lon="10.3842964"><ele>1071.6</ele><time>2026-04-04T09:54:43.944Z</time></trkpt><trkpt lat="44.3433829" lon="10.384311"><ele>1070.0</ele><time>2026-04-04T09:54:44.944Z</time></trkpt><trkpt lat="44.3434847" lon="10.3843279"><ele>1070.0</ele><time>2026-04-04T09:54:45.944Z</time></trkpt><trkpt lat="44.3435914" lon="10.3843455"><ele>1070.0</ele><time>2026-04-04T09:54:46.943Z</time></trkpt><trkpt lat="44.3436795" lon="10.3843859"><ele>1070.0</ele><time>2026-04-04T09:54:47.944Z</time></trkpt><trkpt lat="44.3437595" lon="10.3844314"><ele>1070.0</ele><time>2026-04-04T09:54:48.944Z</time></trkpt><trkpt lat="44.3438418" lon="10.38447"><ele>1070.0</ele><time>2026-04-04T09:54:49.944Z</time></trkpt><trkpt lat="44.3439219" lon="10.3845118"><ele>1069.8333333333335</ele><time>2026-04-04T09:54:50.943Z</time></trkpt><trkpt lat="44.3439935" lon="10.3845478"><ele>1069.6666666666667</ele><time>2026-04-04T09:54:51.943Z</time></trkpt><trkpt lat="44.3440685" lon="10.3845751"><ele>1069.5</ele><time>2026-04-04T09:54:52.943Z</time></trkpt><trkpt lat="44.3441602" lon="10.3846114"><ele>1069.3333333333333</ele><time>2026-04-04T09:54:53.944Z</time></trkpt><trkpt lat="44.3442523" lon="10.384647"><ele>1069.1666666666665</ele><time>2026-04-04T09:54:54.944Z</time></trkpt><trkpt lat="44.3443521" lon="10.3846689"><ele>1069.0</ele><time>2026-04-04T09:54:55.944Z</time></trkpt><trkpt lat="44.3444545" lon="10.3846867"><ele>1069.0</ele><time>2026-04-04T09:54:56.944Z</time></trkpt><trkpt lat="44.3445568" lon="10.3846957"><ele>1069.0</ele><time>2026-04-04T09:54:57.944Z</time></trkpt><trkpt lat="44.3446568" lon="10.3847124"><ele>1069.0</ele><time>2026-04-04T09:54:58.944Z</time></trkpt><trkpt lat="44.3447557" lon="10.3847231"><ele>1069.0</ele><time>2026-04-04T09:54:59.943Z</time></trkpt><trkpt lat="44.3448529" lon="10.3847357"><ele>1069.0</ele><time>2026-04-04T09:55:00.944Z</time></trkpt><trkpt lat="44.3449454" lon="10.38474"><ele>1066.0</ele><time>2026-04-04T09:55:01.944Z</time></trkpt><trkpt lat="44.3450339" lon="10.3847205"><ele>1063.0</ele><time>2026-04-04T09:55:02.944Z</time></trkpt><trkpt lat="44.3451183" lon="10.3846753"><ele>1060.0</ele><time>2026-04-04T09:55:03.944Z</time></trkpt><trkpt lat="44.3452011" lon="10.3846248"><ele>1057.0</ele><time>2026-04-04T09:55:04.943Z</time></trkpt><trkpt lat="44.3452965" lon="10.3845796"><ele>1054.0</ele><time>2026-04-04T09:55:05.943Z</time></trkpt><trkpt lat="44.3453931" lon="10.384568"><ele>1050.0</ele><time>2026-04-04T09:55:06.944Z</time></trkpt><trkpt lat="44.3454856" lon="10.3845686"><ele>1046.0</ele><time>2026-04-04T09:55:07.944Z</time></trkpt><trkpt lat="44.3455764" lon="10.3845786"><ele>1042.0</ele><time>2026-04-04T09:55:08.943Z</time></trkpt><trkpt lat="44.3456772" lon="10.3845792"><ele>1038.0</ele><time>2026-04-04T09:55:09.944Z</time></trkpt><trkpt lat="44.3457862" lon="10.384576"><ele>1034.0</ele><time>2026-04-04T09:55:10.944Z</time></trkpt><trkpt lat="44.3458852" lon="10.3845752"><ele>1032.8</ele><time>2026-04-04T09:55:11.944Z</time></trkpt><trkpt lat="44.345975" lon="10.3846008"><ele>1031.6000000000001</ele><time>2026-04-04T09:55:12.944Z</time></trkpt><trkpt lat="44.3460588" lon="10.3846629"><ele>1030.4</ele><time>2026-04-04T09:55:13.944Z</time></trkpt><trkpt lat="44.3461394" lon="10.3847259"><ele>1029.2</ele><time>2026-04-04T09:55:14.944Z</time></trkpt><trkpt lat="44.3462134" lon="10.3847996"><ele>1028.0</ele><time>2026-04-04T09:55:15.943Z</time></trkpt><trkpt lat="44.3462872" lon="10.3848748"><ele>1028.8</ele><time>2026-04-04T09:55:16.944Z</time></trkpt><trkpt lat="44.3463638" lon="10.3849511"><ele>1029.6</ele><time>2026-04-04T09:55:17.944Z</time></trkpt><trkpt lat="44.3464392" lon="10.3850306"><ele>1030.4</ele><time>2026-04-04T09:55:18.944Z</time></trkpt><trkpt lat="44.346518" lon="10.3851036"><ele>1031.2</ele><time>2026-04-04T09:55:19.943Z</time></trkpt><trkpt lat="44.3465946" lon="10.3851703"><ele>1032.0</ele><time>2026-04-04T09:55:20.943Z</time></trkpt><trkpt lat="44.3466778" lon="10.3852256"><ele>1032.0</ele><time>2026-04-04T09:55:21.944Z</time></trkpt><trkpt lat="44.3467601" lon="10.3852715"><ele>1032.0</ele><time>2026-04-04T09:55:22.944Z</time></trkpt><trkpt lat="44.3468485" lon="10.3853111"><ele>1032.0</ele><time>2026-04-04T09:55:23.944Z</time></trkpt><trkpt lat="44.3469422" lon="10.3853492"><ele>1032.0</ele><time>2026-04-04T09:55:24.944Z</time></trkpt><trkpt lat="44.3470287" lon="10.3854044"><ele>1032.0</ele><time>2026-04-04T09:55:25.944Z</time></trkpt><trkpt lat="44.3471091" lon="10.385481"><ele>1034.0</ele><time>2026-04-04T09:55:26.944Z</time></trkpt><trkpt lat="44.347188" lon="10.3855702"><ele>1036.0</ele><time>2026-04-04T09:55:27.944Z</time></trkpt><trkpt lat="44.3472649" lon="10.3856628"><ele>1038.0</ele><time>2026-04-04T09:55:28.944Z</time></trkpt><trkpt lat="44.3473482" lon="10.3857473"><ele>1040.0</ele><time>2026-04-04T09:55:29.944Z</time></trkpt><trkpt lat="44.3474379" lon="10.3858129"><ele>1042.0</ele><time>2026-04-04T09:55:30.944Z</time></trkpt><trkpt lat="44.3475328" lon="10.3858615"><ele>1038.0</ele><time>2026-04-04T09:55:31.943Z</time></trkpt><trkpt lat="44.3476299" lon="10.3858656"><ele>1034.0</ele><time>2026-04-04T09:55:32.944Z</time></trkpt><trkpt lat="44.3477247" lon="10.3858487"><ele>1030.0</ele><time>2026-04-04T09:55:33.944Z</time></trkpt><trkpt lat="44.3478161" lon="10.3858293"><ele>1026.0</ele><time>2026-04-04T09:55:34.944Z</time></trkpt><trkpt lat="44.3479149" lon="10.3858302"><ele>1022.0</ele><time>2026-04-04T09:55:35.944Z</time></trkpt><trkpt lat="44.3479997" lon="10.3858499"><ele>1020.6666666666667</ele><time>2026-04-04T09:55:36.944Z</time></trkpt><trkpt lat="44.348076" lon="10.3859072"><ele>1019.3333333333334</ele><time>2026-04-04T09:55:37.944Z</time></trkpt><trkpt lat="44.3481344" lon="10.3859913"><ele>1018.0</ele><time>2026-04-04T09:55:38.944Z</time></trkpt><trkpt lat="44.3481935" lon="10.3860711"><ele>1016.6666666666667</ele><time>2026-04-04T09:55:39.943Z</time></trkpt><trkpt lat="44.3482467" lon="10.3861641"><ele>1015.3333333333334</ele><time>2026-04-04T09:55:40.943Z</time></trkpt><trkpt lat="44.3482942" lon="10.3862568"><ele>1014.0</ele><time>2026-04-04T09:55:41.944Z</time></trkpt><trkpt lat="44.3483422" lon="10.3863523"><ele>1013.1428571428571</ele><time>2026-04-04T09:55:42.943Z</time></trkpt><trkpt lat="44.348389" lon="10.3864327"><ele>1012.2857142857143</ele><time>2026-04-04T09:55:43.944Z</time></trkpt><trkpt lat="44.3484423" lon="10.3864857"><ele>1011.4285714285714</ele><time>2026-04-04T09:55:44.944Z</time></trkpt><trkpt lat="44.3485072" lon="10.3865036"><ele>1010.5714285714286</ele><time>2026-04-04T09:55:45.944Z</time></trkpt><trkpt lat="44.3485768" lon="10.3864961"><ele>1009.7142857142858</ele><time>2026-04-04T09:55:46.944Z</time></trkpt><trkpt lat="44.3486498" lon="10.386479"><ele>1008.8571428571429</ele><time>2026-04-04T09:55:47.944Z</time></trkpt><trkpt lat="44.3487144" lon="10.3864557"><ele>1008.0</ele><time>2026-04-04T09:55:48.944Z</time></trkpt><trkpt lat="44.3487774" lon="10.3864191"><ele>1008.0</ele><time>2026-04-04T09:55:49.943Z</time></trkpt><trkpt lat="44.3488353" lon="10.3863652"><ele>1008.0</ele><time>2026-04-04T09:55:50.944Z</time></trkpt><trkpt lat="44.3488773" lon="10.3862838"><ele>1008.0</ele><time>2026-04-04T09:55:51.943Z</time></trkpt><trkpt lat="44.3489038" lon="10.3861773"><ele>1008.0</ele><time>2026-04-04T09:55:52.944Z</time></trkpt><trkpt lat="44.3489204" lon="10.3860518"><ele>1008.0</ele><time>2026-04-04T09:55:53.944Z</time></trkpt><trkpt lat="44.3489242" lon="10.3859399"><ele>1008.0</ele><time>2026-04-04T09:55:54.944Z</time></trkpt><trkpt lat="44.3489171" lon="10.3858314"><ele>1006.0</ele><time>2026-04-04T09:55:55.944Z</time></trkpt><trkpt lat="44.3489082" lon="10.3857218"><ele>1004.0</ele><time>2026-04-04T09:55:56.944Z</time></trkpt><trkpt lat="44.3488833" lon="10.385603"><ele>1002.0</ele><time>2026-04-04T09:55:57.943Z</time></trkpt><trkpt lat="44.3488566" lon="10.385487"><ele>1000.0</ele><time>2026-04-04T09:55:58.944Z</time></trkpt><trkpt lat="44.3488314" lon="10.3853706"><ele>998.0</ele><time>2026-04-04T09:55:59.944Z</time></trkpt><trkpt lat="44.3488132" lon="10.3852521"><ele>996.0</ele><time>2026-04-04T09:56:00.944Z</time></trkpt><trkpt lat="44.3488748" lon="10.3851258"><ele>993.8</ele><time>2026-04-04T09:56:02.944Z</time></trkpt><trkpt lat="44.3490102" lon="10.3851127"><ele>991.5999999999999</ele><time>2026-04-04T09:56:04.944Z</time></trkpt><trkpt lat="44.3490839" lon="10.3851389"><ele>989.4</ele><time>2026-04-04T09:56:05.943Z</time></trkpt><trkpt lat="44.3491647" lon="10.3851748"><ele>987.2</ele><time>2026-04-04T09:56:06.944Z</time></trkpt><trkpt lat="44.3492479" lon="10.3852123"><ele>985.0</ele><time>2026-04-04T09:56:07.944Z</time></trkpt><trkpt lat="44.3493297" lon="10.3852518"><ele>985.0</ele><time>2026-04-04T09:56:08.944Z</time></trkpt><trkpt lat="44.349417" lon="10.3852866"><ele>985.0</ele><time>2026-04-04T09:56:09.943Z</time></trkpt><trkpt lat="44.3495139" lon="10.3853187"><ele>985.0</ele><time>2026-04-04T09:56:10.944Z</time></trkpt><trkpt lat="44.3496191" lon="10.385353"><ele>985.0</ele><time>2026-04-04T09:56:11.944Z</time></trkpt><trkpt lat="44.3497227" lon="10.385383"><ele>985.0</ele><time>2026-04-04T09:56:12.944Z</time></trkpt><trkpt lat="44.349823" lon="10.3854053"><ele>984.4999999999999</ele><time>2026-04-04T09:56:13.944Z</time></trkpt><trkpt lat="44.3499204" lon="10.3854302"><ele>984.0</ele><time>2026-04-04T09:56:14.944Z</time></trkpt><trkpt lat="44.3500073" lon="10.38547"><ele>983.5</ele><time>2026-04-04T09:56:15.944Z</time></trkpt><trkpt lat="44.3500791" lon="10.3855104"><ele>983.0</ele><time>2026-04-04T09:56:16.944Z</time></trkpt><trkpt lat="44.3501421" lon="10.3855701"><ele>982.4999999999999</ele><time>2026-04-04T09:56:17.944Z</time></trkpt><trkpt lat="44.350183" lon="10.385645"><ele>982.0</ele><time>2026-04-04T09:56:18.944Z</time></trkpt><trkpt lat="44.3501956" lon="10.3857323"><ele>981.9999999999999</ele><time>2026-04-04T09:56:19.943Z</time></trkpt><trkpt lat="44.3501843" lon="10.385827"><ele>982.0</ele><time>2026-04-04T09:56:20.944Z</time></trkpt><trkpt lat="44.3501528" lon="10.3859404"><ele>982.0</ele><time>2026-04-04T09:56:21.944Z</time></trkpt><trkpt lat="44.350116" lon="10.3860681"><ele>982.0</ele><time>2026-04-04T09:56:22.944Z</time></trkpt><trkpt lat="44.350095" lon="10.3861987"><ele>981.9999999999999</ele><time>2026-04-04T09:56:23.944Z</time></trkpt><trkpt lat="44.3500934" lon="10.3863302"><ele>982.0</ele><time>2026-04-04T09:56:24.944Z</time></trkpt><trkpt lat="44.3501108" lon="10.3864456"><ele>980.3333333333333</ele><time>2026-04-04T09:56:25.944Z</time></trkpt><trkpt lat="44.3501538" lon="10.3865194"><ele>978.6666666666666</ele><time>2026-04-04T09:56:26.943Z</time></trkpt><trkpt lat="44.3502706" lon="10.3865517"><ele>977.0</ele><time>2026-04-04T09:56:28.944Z</time></trkpt><trkpt lat="44.3503407" lon="10.3865391"><ele>975.3333333333333</ele><time>2026-04-04T09:56:29.944Z</time></trkpt><trkpt lat="44.3504204" lon="10.3865134"><ele>973.6666666666666</ele><time>2026-04-04T09:56:30.944Z</time></trkpt><trkpt lat="44.3505051" lon="10.3864891"><ele>972.0</ele><time>2026-04-04T09:56:31.944Z</time></trkpt><trkpt lat="44.3506044" lon="10.3864543"><ele>970.0</ele><time>2026-04-04T09:56:32.944Z</time></trkpt><trkpt lat="44.3506968" lon="10.3864178"><ele>968.0</ele><time>2026-04-04T09:56:33.943Z</time></trkpt><trkpt lat="44.3507898" lon="10.3863841"><ele>966.0</ele><time>2026-04-04T09:56:34.944Z</time></trkpt><trkpt lat="44.3508846" lon="10.3863473"><ele>964.0</ele><time>2026-04-04T09:56:35.944Z</time></trkpt><trkpt lat="44.350973" lon="10.3863203"><ele>962.0</ele><time>2026-04-04T09:56:36.943Z</time></trkpt><trkpt lat="44.3510648" lon="10.3863171"><ele>962.0000000000001</ele><time>2026-04-04T09:56:37.944Z</time></trkpt><trkpt lat="44.3511529" lon="10.386337"><ele>962.0</ele><time>2026-04-04T09:56:38.943Z</time></trkpt><trkpt lat="44.3512318" lon="10.3863929"><ele>962.0</ele><time>2026-04-04T09:56:39.944Z</time></trkpt><trkpt lat="44.351288" lon="10.3864824"><ele>962.0</ele><time>2026-04-04T09:56:40.943Z</time></trkpt><trkpt lat="44.3513449" lon="10.3865706"><ele>962.0000000000001</ele><time>2026-04-04T09:56:41.944Z</time></trkpt><trkpt lat="44.3514088" lon="10.3866558"><ele>962.0</ele><time>2026-04-04T09:56:42.943Z</time></trkpt><trkpt lat="44.3514664" lon="10.386728"><ele>962.0</ele><time>2026-04-04T09:56:43.944Z</time></trkpt><trkpt lat="44.3515023" lon="10.3868635"><ele>962.0</ele><time>2026-04-04T09:56:45.944Z</time></trkpt><trkpt lat="44.3514068" lon="10.3869252"><ele>962.0</ele><time>2026-04-04T09:56:47.944Z</time></trkpt><trkpt lat="44.351326" lon="10.3869113"><ele>962.0</ele><time>2026-04-04T09:56:48.943Z</time></trkpt><trkpt lat="44.3512302" lon="10.3868957"><ele>962.0</ele><time>2026-04-04T09:56:49.943Z</time></trkpt><trkpt lat="44.3511284" lon="10.3869088"><ele>962.0</ele><time>2026-04-04T09:56:50.943Z</time></trkpt><trkpt lat="44.3510257" lon="10.3869633"><ele>962.0</ele><time>2026-04-04T09:56:51.943Z</time></trkpt><trkpt lat="44.3509234" lon="10.3870296"><ele>962.0</ele><time>2026-04-04T09:56:52.943Z</time></trkpt><trkpt lat="44.3508131" lon="10.387092"><ele>962.0</ele><time>2026-04-04T09:56:53.944Z</time></trkpt><trkpt lat="44.350719" lon="10.3871229"><ele>962.0</ele><time>2026-04-04T09:56:54.943Z</time></trkpt><trkpt lat="44.3506348" lon="10.3871469"><ele>957.2</ele><time>2026-04-04T09:56:55.944Z</time></trkpt><trkpt lat="44.3505732" lon="10.387183"><ele>952.4000000000001</ele><time>2026-04-04T09:56:56.944Z</time></trkpt><trkpt lat="44.3505678" lon="10.387317"><ele>947.5999999999999</ele><time>2026-04-04T09:56:58.944Z</time></trkpt><trkpt lat="44.3506758" lon="10.3874302"><ele>942.8</ele><time>2026-04-04T09:57:00.943Z</time></trkpt><trkpt lat="44.350764" lon="10.3874754"><ele>938.0</ele><time>2026-04-04T09:57:01.944Z</time></trkpt><trkpt lat="44.3508575" lon="10.3875243"><ele>938.0</ele><time>2026-04-04T09:57:02.943Z</time></trkpt><trkpt lat="44.3509571" lon="10.3875751"><ele>938.0</ele><time>2026-04-04T09:57:03.944Z</time></trkpt><trkpt lat="44.3510548" lon="10.3876382"><ele>938.0</ele><time>2026-04-04T09:57:04.943Z</time></trkpt><trkpt lat="44.351154" lon="10.3877001"><ele>938.0</ele><time>2026-04-04T09:57:05.944Z</time></trkpt><trkpt lat="44.3512475" lon="10.3877627"><ele>938.0</ele><time>2026-04-04T09:57:06.944Z</time></trkpt><trkpt lat="44.3513362" lon="10.3878119"><ele>937.8</ele><time>2026-04-04T09:57:07.944Z</time></trkpt><trkpt lat="44.3514292" lon="10.387841"><ele>937.5999999999999</ele><time>2026-04-04T09:57:08.943Z</time></trkpt><trkpt lat="44.3515227" lon="10.3878634"><ele>937.4000000000001</ele><time>2026-04-04T09:57:09.943Z</time></trkpt><trkpt lat="44.3516153" lon="10.3878878"><ele>937.2</ele><time>2026-04-04T09:57:10.944Z</time></trkpt><trkpt lat="44.3517058" lon="10.3879245"><ele>937.0</ele><time>2026-04-04T09:57:11.944Z</time></trkpt><trkpt lat="44.3517888" lon="10.3879901"><ele>931.8</ele><time>2026-04-04T09:57:12.943Z</time></trkpt><trkpt lat="44.3518502" lon="10.3880769"><ele>926.6</ele><time>2026-04-04T09:57:13.943Z</time></trkpt><trkpt lat="44.3518952" lon="10.3881818"><ele>921.3999999999999</ele><time>2026-04-04T09:57:14.943Z</time></trkpt><trkpt lat="44.3519448" lon="10.38829"><ele>916.1999999999999</ele><time>2026-04-04T09:57:15.942Z</time></trkpt><trkpt lat="44.3520106" lon="10.3883844"><ele>911.0</ele><time>2026-04-04T09:57:16.943Z</time></trkpt><trkpt lat="44.3520723" lon="10.3884789"><ele>911.0</ele><time>2026-04-04T09:57:17.943Z</time></trkpt><trkpt lat="44.3521165" lon="10.3885495"><ele>910.9999999999999</ele><time>2026-04-04T09:57:18.943Z</time></trkpt><trkpt lat="44.3520898" lon="10.3886624"><ele>910.9999999999999</ele><time>2026-04-04T09:57:20.943Z</time></trkpt><trkpt lat="44.351987" lon="10.3886666"><ele>911.0</ele><time>2026-04-04T09:57:22.943Z</time></trkpt><trkpt lat="44.3518978" lon="10.3886601"><ele>911.0</ele><time>2026-04-04T09:57:23.942Z</time></trkpt><trkpt lat="44.3517849" lon="10.3886615"><ele>911.0</ele><time>2026-04-04T09:57:24.943Z</time></trkpt><trkpt lat="44.351687" lon="10.3886668"><ele>910.9999999999999</ele><time>2026-04-04T09:57:25.943Z</time></trkpt><trkpt lat="44.3515907" lon="10.3886527"><ele>910.9999999999999</ele><time>2026-04-04T09:57:26.942Z</time></trkpt><trkpt lat="44.3514954" lon="10.3886422"><ele>911.0</ele><time>2026-04-04T09:57:27.943Z</time></trkpt><trkpt lat="44.3513947" lon="10.3886263"><ele>911.0</ele><time>2026-04-04T09:57:28.943Z</time></trkpt><trkpt lat="44.3512989" lon="10.3886175"><ele>911.4</ele><time>2026-04-04T09:57:29.942Z</time></trkpt><trkpt lat="44.3512091" lon="10.3886165"><ele>911.8</ele><time>2026-04-04T09:57:30.943Z</time></trkpt><trkpt lat="44.3511161" lon="10.3886437"><ele>912.1999999999999</ele><time>2026-04-04T09:57:31.943Z</time></trkpt><trkpt lat="44.3510405" lon="10.388749"><ele>912.5999999999999</ele><time>2026-04-04T09:57:32.942Z</time></trkpt><trkpt lat="44.3509787" lon="10.3888757"><ele>913.0</ele><time>2026-04-04T09:57:33.943Z</time></trkpt><trkpt lat="44.3509089" lon="10.3889936"><ele>909.8</ele><time>2026-04-04T09:57:34.943Z</time></trkpt><trkpt lat="44.3508299" lon="10.3890948"><ele>906.5999999999999</ele><time>2026-04-04T09:57:35.943Z</time></trkpt><trkpt lat="44.3507394" lon="10.3891878"><ele>903.4000000000001</ele><time>2026-04-04T09:57:36.943Z</time></trkpt><trkpt lat="44.3506525" lon="10.3892848"><ele>900.2</ele><time>2026-04-04T09:57:37.943Z</time></trkpt><trkpt lat="44.3505629" lon="10.3893723"><ele>897.0</ele><time>2026-04-04T09:57:38.942Z</time></trkpt><trkpt lat="44.3504703" lon="10.3894367"><ele>897.0</ele><time>2026-04-04T09:57:39.943Z</time></trkpt><trkpt lat="44.3503895" lon="10.3894824"><ele>897.0</ele><time>2026-04-04T09:57:40.943Z</time></trkpt><trkpt lat="44.3503169" lon="10.3894992"><ele>897.0</ele><time>2026-04-04T09:57:41.942Z</time></trkpt><trkpt lat="44.3502434" lon="10.389509"><ele>897.0</ele><time>2026-04-04T09:57:42.942Z</time></trkpt><trkpt lat="44.3501492" lon="10.3895426"><ele>897.0</ele><time>2026-04-04T09:57:43.943Z</time></trkpt><trkpt lat="44.3500698" lon="10.3896118"><ele>897.0</ele><time>2026-04-04T09:57:44.943Z</time></trkpt><trkpt lat="44.3499985" lon="10.3897018"><ele>892.1666666666666</ele><time>2026-04-04T09:57:45.943Z</time></trkpt><trkpt lat="44.3499328" lon="10.3897675"><ele>887.3333333333333</ele><time>2026-04-04T09:57:46.943Z</time></trkpt><trkpt lat="44.3498532" lon="10.3897955"><ele>882.5</ele><time>2026-04-04T09:57:47.943Z</time></trkpt><trkpt lat="44.3497758" lon="10.38979"><ele>877.6666666666666</ele><time>2026-04-04T09:57:48.943Z</time></trkpt><trkpt lat="44.3496916" lon="10.3897678"><ele>872.8333333333333</ele><time>2026-04-04T09:57:49.942Z</time></trkpt><trkpt lat="44.3496128" lon="10.3897666"><ele>868.0</ele><time>2026-04-04T09:57:50.943Z</time></trkpt><trkpt lat="44.3495436" lon="10.3898063"><ele>868.0</ele><time>2026-04-04T09:57:51.943Z</time></trkpt><trkpt lat="44.34948" lon="10.3898721"><ele>868.0</ele><time>2026-04-04T09:57:52.943Z</time></trkpt><trkpt lat="44.3494384" lon="10.3899514"><ele>868.0</ele><time>2026-04-04T09:57:53.943Z</time></trkpt><trkpt lat="44.3494498" lon="10.3900511"><ele>868.0</ele><time>2026-04-04T09:57:54.943Z</time></trkpt><trkpt lat="44.3495125" lon="10.3900937"><ele>868.0</ele><time>2026-04-04T09:57:55.943Z</time></trkpt><trkpt lat="44.3495785" lon="10.3901119"><ele>868.0</ele><time>2026-04-04T09:57:56.942Z</time></trkpt><trkpt lat="44.3496624" lon="10.3901107"><ele>868.0</ele><time>2026-04-04T09:57:57.943Z</time></trkpt><trkpt lat="44.3497632" lon="10.3901013"><ele>867.8</ele><time>2026-04-04T09:57:58.943Z</time></trkpt><trkpt lat="44.3498608" lon="10.3901104"><ele>867.5999999999999</ele><time>2026-04-04T09:57:59.942Z</time></trkpt><trkpt lat="44.3499672" lon="10.3901342"><ele>867.4000000000001</ele><time>2026-04-04T09:58:00.942Z</time></trkpt><trkpt lat="44.3500646" lon="10.3901447"><ele>867.2</ele><time>2026-04-04T09:58:01.942Z</time></trkpt><trkpt lat="44.3501604" lon="10.3901557"><ele>867.0</ele><time>2026-04-04T09:58:02.943Z</time></trkpt><trkpt lat="44.3502545" lon="10.390163"><ele>867.0</ele><time>2026-04-04T09:58:03.942Z</time></trkpt><trkpt lat="44.3503417" lon="10.3902071"><ele>867.0</ele><time>2026-04-04T09:58:04.943Z</time></trkpt><trkpt lat="44.3504279" lon="10.3902485"><ele>867.0</ele><time>2026-04-04T09:58:05.943Z</time></trkpt><trkpt lat="44.3505054" lon="10.3903029"><ele>867.0</ele><time>2026-04-04T09:58:06.942Z</time></trkpt><trkpt lat="44.350585" lon="10.3903489"><ele>867.0</ele><time>2026-04-04T09:58:07.942Z</time></trkpt><trkpt lat="44.3506668" lon="10.3903881"><ele>867.0</ele><time>2026-04-04T09:58:08.943Z</time></trkpt><trkpt lat="44.3507477" lon="10.3904287"><ele>866.4000000000001</ele><time>2026-04-04T09:58:09.942Z</time></trkpt><trkpt lat="44.3508328" lon="10.3904686"><ele>865.8000000000001</ele><time>2026-04-04T09:58:10.943Z</time></trkpt><trkpt lat="44.3509187" lon="10.3905025"><ele>865.2</ele><time>2026-04-04T09:58:11.943Z</time></trkpt><trkpt lat="44.3510157" lon="10.3905139"><ele>864.6</ele><time>2026-04-04T09:58:12.943Z</time></trkpt><trkpt lat="44.3511165" lon="10.390512"><ele>864.0</ele><time>2026-04-04T09:58:13.942Z</time></trkpt><trkpt lat="44.351228" lon="10.3904937"><ele>864.0</ele><time>2026-04-04T09:58:14.943Z</time></trkpt><trkpt lat="44.3513312" lon="10.3904899"><ele>864.0000000000001</ele><time>2026-04-04T09:58:15.943Z</time></trkpt><trkpt lat="44.3514361" lon="10.3905106"><ele>864.0000000000001</ele><time>2026-04-04T09:58:16.942Z</time></trkpt><trkpt lat="44.3515323" lon="10.3905491"><ele>864.0</ele><time>2026-04-04T09:58:17.942Z</time></trkpt><trkpt lat="44.3516237" lon="10.3906024"><ele>864.0</ele><time>2026-04-04T09:58:18.943Z</time></trkpt><trkpt lat="44.3517085" lon="10.3906647"><ele>858.8000000000001</ele><time>2026-04-04T09:58:19.943Z</time></trkpt><trkpt lat="44.3517715" lon="10.3907525"><ele>853.6000000000001</ele><time>2026-04-04T09:58:20.943Z</time></trkpt><trkpt lat="44.3518337" lon="10.3908436"><ele>848.4</ele><time>2026-04-04T09:58:21.942Z</time></trkpt><trkpt lat="44.3519033" lon="10.3909271"><ele>843.2</ele><time>2026-04-04T09:58:22.943Z</time></trkpt><trkpt lat="44.3519829" lon="10.3910102"><ele>838.0</ele><time>2026-04-04T09:58:23.943Z</time></trkpt><trkpt lat="44.3520733" lon="10.3910877"><ele>838.0</ele><time>2026-04-04T09:58:24.943Z</time></trkpt><trkpt lat="44.3521658" lon="10.391156"><ele>838.0</ele><time>2026-04-04T09:58:25.943Z</time></trkpt><trkpt lat="44.3522511" lon="10.3912126"><ele>838.0</ele><time>2026-04-04T09:58:26.942Z</time></trkpt><trkpt lat="44.3523334" lon="10.3912772"><ele>838.0</ele><time>2026-04-04T09:58:27.942Z</time></trkpt><trkpt lat="44.3524187" lon="10.3913429"><ele>838.0</ele><time>2026-04-04T09:58:28.943Z</time></trkpt><trkpt lat="44.352514" lon="10.3914096"><ele>834.2</ele><time>2026-04-04T09:58:29.942Z</time></trkpt><trkpt lat="44.3526052" lon="10.3914811"><ele>830.4</ele><time>2026-04-04T09:58:30.943Z</time></trkpt><trkpt lat="44.3526918" lon="10.3915568"><ele>826.6</ele><time>2026-04-04T09:58:31.942Z</time></trkpt><trkpt lat="44.352774" lon="10.3916341"><ele>822.8000000000001</ele><time>2026-04-04T09:58:32.942Z</time></trkpt><trkpt lat="44.3528616" lon="10.3916936"><ele>819.0</ele><time>2026-04-04T09:58:33.943Z</time></trkpt><trkpt lat="44.3529562" lon="10.3917453"><ele>818.4000000000001</ele><time>2026-04-04T09:58:34.943Z</time></trkpt><trkpt lat="44.3530562" lon="10.3917784"><ele>817.8</ele><time>2026-04-04T09:58:35.942Z</time></trkpt><trkpt lat="44.3531653" lon="10.3917823"><ele>817.2</ele><time>2026-04-04T09:58:36.942Z</time></trkpt><trkpt lat="44.3532708" lon="10.3917785"><ele>816.5999999999999</ele><time>2026-04-04T09:58:37.943Z</time></trkpt><trkpt lat="44.3533778" lon="10.3917657"><ele>816.0</ele><time>2026-04-04T09:58:38.943Z</time></trkpt><trkpt lat="44.3534836" lon="10.3917528"><ele>816.0</ele><time>2026-04-04T09:58:39.942Z</time></trkpt><trkpt lat="44.3535901" lon="10.3917414"><ele>816.0</ele><time>2026-04-04T09:58:40.943Z</time></trkpt><trkpt lat="44.3536863" lon="10.3917302"><ele>816.0</ele><time>2026-04-04T09:58:41.942Z</time></trkpt><trkpt lat="44.3537831" lon="10.3917173"><ele>816.0</ele><time>2026-04-04T09:58:42.942Z</time></trkpt><trkpt lat="44.3538765" lon="10.3917134"><ele>816.0</ele><time>2026-04-04T09:58:43.943Z</time></trkpt><trkpt lat="44.3539693" lon="10.3916955"><ele>814.1999999999999</ele><time>2026-04-04T09:58:44.943Z</time></trkpt><trkpt lat="44.3540605" lon="10.3916572"><ele>812.4</ele><time>2026-04-04T09:58:45.943Z</time></trkpt><trkpt lat="44.3541551" lon="10.3916004"><ele>810.6</ele><time>2026-04-04T09:58:46.943Z</time></trkpt><trkpt lat="44.3542498" lon="10.3915329"><ele>808.8</ele><time>2026-04-04T09:58:47.943Z</time></trkpt><trkpt lat="44.3543455" lon="10.3914717"><ele>807.0</ele><time>2026-04-04T09:58:48.943Z</time></trkpt><trkpt lat="44.3544429" lon="10.3914334"><ele>807.0</ele><time>2026-04-04T09:58:49.943Z</time></trkpt><trkpt lat="44.3545402" lon="10.3914152"><ele>807.0</ele><time>2026-04-04T09:58:50.943Z</time></trkpt><trkpt lat="44.3546304" lon="10.3913883"><ele>807.0</ele><time>2026-04-04T09:58:51.943Z</time></trkpt><trkpt lat="44.3547183" lon="10.3913674"><ele>807.0</ele><time>2026-04-04T09:58:52.943Z</time></trkpt><trkpt lat="44.3548028" lon="10.3913554"><ele>807.0</ele><time>2026-04-04T09:58:53.943Z</time></trkpt><trkpt lat="44.3548815" lon="10.3913367"><ele>807.0</ele><time>2026-04-04T09:58:54.943Z</time></trkpt><trkpt lat="44.354966" lon="10.3913072"><ele>808.5</ele><time>2026-04-04T09:58:55.942Z</time></trkpt><trkpt lat="44.3550471" lon="10.3912889"><ele>810.0</ele><time>2026-04-04T09:58:56.943Z</time></trkpt><trkpt lat="44.3551306" lon="10.3912881"><ele>811.5</ele><time>2026-04-04T09:58:57.942Z</time></trkpt><trkpt lat="44.355205" lon="10.3912955"><ele>813.0</ele><time>2026-04-04T09:58:58.943Z</time></trkpt><trkpt lat="44.3552805" lon="10.3912723"><ele>814.5</ele><time>2026-04-04T09:58:59.943Z</time></trkpt><trkpt lat="44.3553547" lon="10.3912059"><ele>816.0</ele><time>2026-04-04T09:59:00.943Z</time></trkpt><trkpt lat="44.3554326" lon="10.3911183"><ele>816.0</ele><time>2026-04-04T09:59:01.943Z</time></trkpt><trkpt lat="44.3555194" lon="10.3910532"><ele>816.0</ele><time>2026-04-04T09:59:02.942Z</time></trkpt><trkpt lat="44.3556071" lon="10.3909874"><ele>816.0</ele><time>2026-04-04T09:59:03.943Z</time></trkpt><trkpt lat="44.3557005" lon="10.3909366"><ele>816.0</ele><time>2026-04-04T09:59:04.943Z</time></trkpt><trkpt lat="44.3557891" lon="10.3909087"><ele>816.0</ele><time>2026-04-04T09:59:05.943Z</time></trkpt><trkpt lat="44.3558707" lon="10.3908881"><ele>813.1999999999999</ele><time>2026-04-04T09:59:06.943Z</time></trkpt><trkpt lat="44.3559564" lon="10.3908663"><ele>810.4</ele><time>2026-04-04T09:59:07.943Z</time></trkpt><trkpt lat="44.3560547" lon="10.3908395"><ele>807.6</ele><time>2026-04-04T09:59:08.943Z</time></trkpt><trkpt lat="44.3561514" lon="10.3908094"><ele>804.8</ele><time>2026-04-04T09:59:09.943Z</time></trkpt><trkpt lat="44.3562454" lon="10.3907781"><ele>802.0</ele><time>2026-04-04T09:59:10.942Z</time></trkpt><trkpt lat="44.3563387" lon="10.3907439"><ele>801.4999999999999</ele><time>2026-04-04T09:59:11.942Z</time></trkpt><trkpt lat="44.3564335" lon="10.3907118"><ele>801.0</ele><time>2026-04-04T09:59:12.943Z</time></trkpt><trkpt lat="44.3565229" lon="10.3906954"><ele>800.5</ele><time>2026-04-04T09:59:13.942Z</time></trkpt><trkpt lat="44.3566085" lon="10.3907014"><ele>800.0</ele><time>2026-04-04T09:59:14.943Z</time></trkpt><trkpt lat="44.3566922" lon="10.3907007"><ele>799.4999999999999</ele><time>2026-04-04T09:59:15.943Z</time></trkpt><trkpt lat="44.3567636" lon="10.3907072"><ele>799.0</ele><time>2026-04-04T09:59:16.943Z</time></trkpt><trkpt lat="44.3568926" lon="10.3907043"><ele>799.0</ele><time>2026-04-04T09:59:18.942Z</time></trkpt><trkpt lat="44.3569659" lon="10.3906912"><ele>799.0</ele><time>2026-04-04T09:59:19.942Z</time></trkpt><trkpt lat="44.3570416" lon="10.3906725"><ele>799.0</ele><time>2026-04-04T09:59:20.942Z</time></trkpt><trkpt lat="44.35712" lon="10.3906529"><ele>799.0</ele><time>2026-04-04T09:59:21.943Z</time></trkpt><trkpt lat="44.3571909" lon="10.3906362"><ele>799.0</ele><time>2026-04-04T09:59:22.943Z</time></trkpt><trkpt lat="44.3572568" lon="10.3906284"><ele>799.0</ele><time>2026-04-04T09:59:23.942Z</time></trkpt><trkpt lat="44.3573283" lon="10.3906245"><ele>799.0</ele><time>2026-04-04T09:59:24.943Z</time></trkpt><trkpt lat="44.3573941" lon="10.3906284"><ele>798.8000000000001</ele><time>2026-04-04T09:59:25.942Z</time></trkpt><trkpt lat="44.357505" lon="10.3906212"><ele>798.6</ele><time>2026-04-04T09:59:27.942Z</time></trkpt><trkpt lat="44.3576096" lon="10.3905678"><ele>798.4</ele><time>2026-04-04T09:59:29.942Z</time></trkpt><trkpt lat="44.3577119" lon="10.3904818"><ele>798.2</ele><time>2026-04-04T09:59:31.943Z</time></trkpt><trkpt lat="44.3577731" lon="10.3904523"><ele>798.0</ele><time>2026-04-04T09:59:32.942Z</time></trkpt><trkpt lat="44.3578254" lon="10.3904005"><ele>796.3333333333334</ele><time>2026-04-04T09:59:33.943Z</time></trkpt><trkpt lat="44.3578887" lon="10.3903411"><ele>794.6666666666667</ele><time>2026-04-04T09:59:34.943Z</time></trkpt><trkpt lat="44.3579564" lon="10.3902929"><ele>793.0</ele><time>2026-04-04T09:59:35.943Z</time></trkpt><trkpt lat="44.3580429" lon="10.390213"><ele>791.3333333333334</ele><time>2026-04-04T09:59:37.943Z</time></trkpt><trkpt lat="44.3581368" lon="10.3901872"><ele>789.6666666666667</ele><time>2026-04-04T09:59:39.943Z</time></trkpt><trkpt lat="44.3582055" lon="10.3902036"><ele>788.0</ele><time>2026-04-04T09:59:40.943Z</time></trkpt><trkpt lat="44.3582827" lon="10.3902204"><ele>788.0</ele><time>2026-04-04T09:59:41.943Z</time></trkpt><trkpt lat="44.3583591" lon="10.3902539"><ele>788.0</ele><time>2026-04-04T09:59:42.942Z</time></trkpt><trkpt lat="44.3584342" lon="10.3902951"><ele>788.0</ele><time>2026-04-04T09:59:43.943Z</time></trkpt><trkpt lat="44.3585212" lon="10.3903431"><ele>788.0</ele><time>2026-04-04T09:59:44.943Z</time></trkpt><trkpt lat="44.3586149" lon="10.3903948"><ele>788.0</ele><time>2026-04-04T09:59:45.943Z</time></trkpt><trkpt lat="44.3587182" lon="10.3904445"><ele>788.0000000000001</ele><time>2026-04-04T09:59:46.942Z</time></trkpt><trkpt lat="44.3588096" lon="10.3905071"><ele>788.0</ele><time>2026-04-04T09:59:47.943Z</time></trkpt><trkpt lat="44.3588875" lon="10.3905695"><ele>788.0</ele><time>2026-04-04T09:59:48.942Z</time></trkpt><trkpt lat="44.3589633" lon="10.3906251"><ele>788.0</ele><time>2026-04-04T09:59:49.942Z</time></trkpt><trkpt lat="44.3590315" lon="10.3906862"><ele>788.0000000000001</ele><time>2026-04-04T09:59:50.943Z</time></trkpt><trkpt lat="44.3590957" lon="10.3907478"><ele>788.0</ele><time>2026-04-04T09:59:51.943Z</time></trkpt><trkpt lat="44.359155" lon="10.3908045"><ele>786.8333333333334</ele><time>2026-04-04T09:59:52.942Z</time></trkpt><trkpt lat="44.3592118" lon="10.3908552"><ele>785.6666666666667</ele><time>2026-04-04T09:59:53.943Z</time></trkpt><trkpt lat="44.3592678" lon="10.3909083"><ele>784.5</ele><time>2026-04-04T09:59:54.943Z</time></trkpt><trkpt lat="44.3593281" lon="10.3909721"><ele>783.3333333333333</ele><time>2026-04-04T09:59:55.943Z</time></trkpt><trkpt lat="44.3593979" lon="10.3910221"><ele>782.1666666666666</ele><time>2026-04-04T09:59:56.943Z</time></trkpt><trkpt lat="44.3594714" lon="10.3910749"><ele>781.0</ele><time>2026-04-04T09:59:57.943Z</time></trkpt><trkpt lat="44.359548" lon="10.3911166"><ele>780.9999999999999</ele><time>2026-04-04T09:59:58.943Z</time></trkpt><trkpt lat="44.3596252" lon="10.3911635"><ele>781.0</ele><time>2026-04-04T09:59:59.943Z</time></trkpt><trkpt lat="44.3596988" lon="10.3912185"><ele>781.0</ele><time>2026-04-04T10:00:00.943Z</time></trkpt><trkpt lat="44.3597638" lon="10.3912681"><ele>781.0</ele><time>2026-04-04T10:00:01.943Z</time></trkpt><trkpt lat="44.3598301" lon="10.3912942"><ele>780.9999999999999</ele><time>2026-04-04T10:00:02.943Z</time></trkpt><trkpt lat="44.3599078" lon="10.3913105"><ele>781.0</ele><time>2026-04-04T10:00:03.943Z</time></trkpt><trkpt lat="44.3599909" lon="10.3913189"><ele>779.3333333333333</ele><time>2026-04-04T10:00:04.943Z</time></trkpt><trkpt lat="44.3600712" lon="10.3913528"><ele>777.6666666666666</ele><time>2026-04-04T10:00:05.943Z</time></trkpt><trkpt lat="44.3601498" lon="10.3913948"><ele>776.0</ele><time>2026-04-04T10:00:06.943Z</time></trkpt><trkpt lat="44.3602304" lon="10.3914369"><ele>774.3333333333333</ele><time>2026-04-04T10:00:07.943Z</time></trkpt><trkpt lat="44.3603059" lon="10.391465"><ele>772.6666666666666</ele><time>2026-04-04T10:00:08.943Z</time></trkpt><trkpt lat="44.3603845" lon="10.3914746"><ele>771.0</ele><time>2026-04-04T10:00:09.942Z</time></trkpt><trkpt lat="44.3604559" lon="10.3914603"><ele>771.0</ele><time>2026-04-04T10:00:10.943Z</time></trkpt><trkpt lat="44.3605273" lon="10.3914313"><ele>771.0</ele><time>2026-04-04T10:00:11.943Z</time></trkpt><trkpt lat="44.3605915" lon="10.3914105"><ele>771.0</ele><time>2026-04-04T10:00:12.942Z</time></trkpt><trkpt lat="44.3607207" lon="10.3914278"><ele>771.0</ele><time>2026-04-04T10:00:14.942Z</time></trkpt><trkpt lat="44.3608461" lon="10.3914731"><ele>771.0</ele><time>2026-04-04T10:00:16.943Z</time></trkpt><trkpt lat="44.3609134" lon="10.3914913"><ele>770.8</ele><time>2026-04-04T10:00:17.943Z</time></trkpt><trkpt lat="44.3609757" lon="10.3915158"><ele>770.5999999999999</ele><time>2026-04-04T10:00:18.943Z</time></trkpt><trkpt lat="44.3610859" lon="10.3915832"><ele>770.4</ele><time>2026-04-04T10:00:20.943Z</time></trkpt><trkpt lat="44.3611597" lon="10.3916589"><ele>770.2</ele><time>2026-04-04T10:00:22.942Z</time></trkpt><trkpt lat="44.3612147" lon="10.3917111"><ele>770.0</ele><time>2026-04-04T10:00:24.943Z</time></trkpt><trkpt lat="44.361322" lon="10.3917547"><ele>767.8</ele><time>2026-04-04T10:00:27.942Z</time></trkpt><trkpt lat="44.3614072" lon="10.3917709"><ele>765.6</ele><time>2026-04-04T10:00:29.943Z</time></trkpt><trkpt lat="44.3614691" lon="10.3917969"><ele>763.4000000000001</ele><time>2026-04-04T10:00:30.942Z</time></trkpt><trkpt lat="44.3615713" lon="10.391806"><ele>761.2</ele><time>2026-04-04T10:00:32.943Z</time></trkpt><trkpt lat="44.3617052" lon="10.3918126"><ele>759.0</ele><time>2026-04-04T10:00:34.943Z</time></trkpt><trkpt lat="44.3617954" lon="10.3918393"><ele>759.0</ele><time>2026-04-04T10:00:36.943Z</time></trkpt><trkpt lat="44.361893" lon="10.391863"><ele>759.0</ele><time>2026-04-04T10:00:38.943Z</time></trkpt><trkpt lat="44.3620013" lon="10.3919053"><ele>759.0</ele><time>2026-04-04T10:00:40.943Z</time></trkpt><trkpt lat="44.3621168" lon="10.391955"><ele>759.0</ele><time>2026-04-04T10:00:42.943Z</time></trkpt><trkpt lat="44.3621818" lon="10.3919782"><ele>759.0</ele><time>2026-04-04T10:00:43.943Z</time></trkpt><trkpt lat="44.3622628" lon="10.3920024"><ele>756.0</ele><time>2026-04-04T10:00:44.943Z</time></trkpt><trkpt lat="44.3623446" lon="10.3920378"><ele>753.0</ele><time>2026-04-04T10:00:45.942Z</time></trkpt><trkpt lat="44.3624175" lon="10.3920675"><ele>750.0</ele><time>2026-04-04T10:00:46.942Z</time></trkpt><trkpt lat="44.3624826" lon="10.3920921"><ele>747.0</ele><time>2026-04-04T10:00:47.943Z</time></trkpt><trkpt lat="44.3626044" lon="10.3920984"><ele>744.0</ele><time>2026-04-04T10:00:49.943Z</time></trkpt><trkpt lat="44.3627293" lon="10.3921085"><ele>744.0</ele><time>2026-04-04T10:00:51.942Z</time></trkpt><trkpt lat="44.3628146" lon="10.3921288"><ele>744.0</ele><time>2026-04-04T10:00:53.942Z</time></trkpt><trkpt lat="44.3628991" lon="10.3921467"><ele>744.0</ele><time>2026-04-04T10:00:56.942Z</time></trkpt><trkpt lat="44.3629801" lon="10.39216"><ele>744.0</ele><time>2026-04-04T10:00:59.943Z</time></trkpt><trkpt lat="44.3631039" lon="10.3921936"><ele>744.0</ele><time>2026-04-04T10:01:01.942Z</time></trkpt><trkpt lat="44.3631694" lon="10.3921882"><ele>744.0</ele><time>2026-04-04T10:01:02.943Z</time></trkpt><trkpt lat="44.3632424" lon="10.3922049"><ele>743.5</ele><time>2026-04-04T10:01:03.942Z</time></trkpt><trkpt lat="44.3633092" lon="10.3922194"><ele>743.0</ele><time>2026-04-04T10:01:04.943Z</time></trkpt><trkpt lat="44.3633781" lon="10.3922389"><ele>742.5</ele><time>2026-04-04T10:01:05.943Z</time></trkpt><trkpt lat="44.3634475" lon="10.3922624"><ele>742.0</ele><time>2026-04-04T10:01:06.943Z</time></trkpt><trkpt lat="44.3635137" lon="10.3922876"><ele>741.5</ele><time>2026-04-04T10:01:07.942Z</time></trkpt><trkpt lat="44.3635768" lon="10.3923173"><ele>741.0</ele><time>2026-04-04T10:01:08.943Z</time></trkpt><trkpt lat="44.3636707" lon="10.3924255"><ele>741.0</ele><time>2026-04-04T10:01:10.942Z</time></trkpt><trkpt lat="44.3637055" lon="10.3925554"><ele>741.0</ele><time>2026-04-04T10:01:12.942Z</time></trkpt><trkpt lat="44.3637707" lon="10.3926522"><ele>741.0</ele><time>2026-04-04T10:01:14.943Z</time></trkpt><trkpt lat="44.3638324" lon="10.3926886"><ele>741.0</ele><time>2026-04-04T10:01:16.943Z</time></trkpt><trkpt lat="44.3639389" lon="10.3927624"><ele>741.0</ele><time>2026-04-04T10:07:24.942Z</time></trkpt><trkpt lat="44.3640113" lon="10.3927986"><ele>741.0</ele><time>2026-04-04T10:07:35.941Z</time></trkpt><trkpt lat="44.3640922" lon="10.3928553"><ele>741.0</ele><time>2026-04-04T10:07:36.942Z</time></trkpt><trkpt lat="44.3641768" lon="10.392935"><ele>741.0</ele><time>2026-04-04T10:07:37.942Z</time></trkpt><trkpt lat="44.3642365" lon="10.3930537"><ele>741.0</ele><time>2026-04-04T10:07:38.941Z</time></trkpt><trkpt lat="44.3643119" lon="10.3931819"><ele>741.0</ele><time>2026-04-04T10:07:39.941Z</time></trkpt><trkpt lat="44.3643921" lon="10.3933045"><ele>741.0</ele><time>2026-04-04T10:07:40.942Z</time></trkpt><trkpt lat="44.3644758" lon="10.3934295"><ele>741.0</ele><time>2026-04-04T10:07:41.941Z</time></trkpt><trkpt lat="44.3645549" lon="10.3935495"><ele>741.0</ele><time>2026-04-04T10:07:42.942Z</time></trkpt><trkpt lat="44.3646278" lon="10.3936716"><ele>741.0</ele><time>2026-04-04T10:07:43.942Z</time></trkpt><trkpt lat="44.3646982" lon="10.3937885"><ele>741.8</ele><time>2026-04-04T10:07:44.941Z</time></trkpt><trkpt lat="44.3647615" lon="10.3938976"><ele>742.5999999999999</ele><time>2026-04-04T10:07:45.942Z</time></trkpt><trkpt lat="44.3648216" lon="10.3940029"><ele>743.4</ele><time>2026-04-04T10:07:46.941Z</time></trkpt><trkpt lat="44.3648822" lon="10.3941089"><ele>744.2</ele><time>2026-04-04T10:07:47.942Z</time></trkpt><trkpt lat="44.3649521" lon="10.3942074"><ele>745.0</ele><time>2026-04-04T10:07:48.942Z</time></trkpt><trkpt lat="44.3650247" lon="10.3943135"><ele>745.0</ele><time>2026-04-04T10:07:49.942Z</time></trkpt><trkpt lat="44.3650911" lon="10.3944247"><ele>745.0</ele><time>2026-04-04T10:07:50.942Z</time></trkpt><trkpt lat="44.3651666" lon="10.3945264"><ele>745.0</ele><time>2026-04-04T10:07:51.941Z</time></trkpt><trkpt lat="44.3652394" lon="10.3946363"><ele>745.0</ele><time>2026-04-04T10:07:52.942Z</time></trkpt><trkpt lat="44.3653099" lon="10.3947401"><ele>745.0</ele><time>2026-04-04T10:07:53.941Z</time></trkpt><trkpt lat="44.365378" lon="10.3948459"><ele>744.4</ele><time>2026-04-04T10:07:54.942Z</time></trkpt><trkpt lat="44.3654456" lon="10.3949517"><ele>743.8</ele><time>2026-04-04T10:07:55.941Z</time></trkpt><trkpt lat="44.365512" lon="10.3950559"><ele>743.2</ele><time>2026-04-04T10:07:56.942Z</time></trkpt><trkpt lat="44.3655855" lon="10.3951538"><ele>742.6</ele><time>2026-04-04T10:07:57.941Z</time></trkpt><trkpt lat="44.3656673" lon="10.3952159"><ele>742.0</ele><time>2026-04-04T10:07:58.942Z</time></trkpt><trkpt lat="44.3657521" lon="10.3952657"><ele>742.0</ele><time>2026-04-04T10:07:59.942Z</time></trkpt><trkpt lat="44.3658402" lon="10.3952928"><ele>742.0</ele><time>2026-04-04T10:08:00.942Z</time></trkpt><trkpt lat="44.3659229" lon="10.3953234"><ele>742.0</ele><time>2026-04-04T10:08:01.942Z</time></trkpt><trkpt lat="44.3659965" lon="10.3953687"><ele>742.0</ele><time>2026-04-04T10:08:02.942Z</time></trkpt><trkpt lat="44.3660742" lon="10.3954119"><ele>742.0</ele><time>2026-04-04T10:08:03.942Z</time></trkpt><trkpt lat="44.3661572" lon="10.3954516"><ele>742.0</ele><time>2026-04-04T10:08:04.942Z</time></trkpt><trkpt lat="44.3662483" lon="10.395461"><ele>742.0</ele><time>2026-04-04T10:08:05.942Z</time></trkpt><trkpt lat="44.3663412" lon="10.3954481"><ele>742.0</ele><time>2026-04-04T10:08:06.942Z</time></trkpt><trkpt lat="44.3664421" lon="10.3954206"><ele>742.0</ele><time>2026-04-04T10:08:07.941Z</time></trkpt><trkpt lat="44.3665351" lon="10.3953819"><ele>742.0</ele><time>2026-04-04T10:08:08.942Z</time></trkpt><trkpt lat="44.36662" lon="10.3953417"><ele>742.0</ele><time>2026-04-04T10:08:09.942Z</time></trkpt><trkpt lat="44.3666939" lon="10.3953149"><ele>741.6</ele><time>2026-04-04T10:08:10.942Z</time></trkpt><trkpt lat="44.3667573" lon="10.3952986"><ele>741.2</ele><time>2026-04-04T10:08:11.942Z</time></trkpt><trkpt lat="44.3668749" lon="10.3952768"><ele>740.8</ele><time>2026-04-04T10:08:13.942Z</time></trkpt><trkpt lat="44.367009" lon="10.3952923"><ele>740.4</ele><time>2026-04-04T10:08:15.942Z</time></trkpt><trkpt lat="44.3670805" lon="10.395306"><ele>740.0</ele><time>2026-04-04T10:08:16.941Z</time></trkpt><trkpt lat="44.3671609" lon="10.3953283"><ele>739.1666666666666</ele><time>2026-04-04T10:08:17.942Z</time></trkpt><trkpt lat="44.3672456" lon="10.395371"><ele>738.3333333333333</ele><time>2026-04-04T10:08:18.942Z</time></trkpt><trkpt lat="44.3673311" lon="10.3954074"><ele>737.5</ele><time>2026-04-04T10:08:19.942Z</time></trkpt><trkpt lat="44.3674158" lon="10.3954362"><ele>736.6666666666666</ele><time>2026-04-04T10:08:20.942Z</time></trkpt><trkpt lat="44.367495" lon="10.3954467"><ele>735.8333333333334</ele><time>2026-04-04T10:08:21.942Z</time></trkpt><trkpt lat="44.3675602" lon="10.3954612"><ele>735.0</ele><time>2026-04-04T10:08:22.942Z</time></trkpt><trkpt lat="44.3676265" lon="10.3954849"><ele>737.2</ele><time>2026-04-04T10:08:23.942Z</time></trkpt><trkpt lat="44.367739" lon="10.3955743"><ele>739.4</ele><time>2026-04-04T10:08:25.942Z</time></trkpt><trkpt lat="44.367794" lon="10.3956486"><ele>741.5999999999999</ele><time>2026-04-04T10:08:26.942Z</time></trkpt><trkpt lat="44.3678475" lon="10.3957348"><ele>743.8</ele><time>2026-04-04T10:08:27.941Z</time></trkpt><trkpt lat="44.3679138" lon="10.395827"><ele>746.0</ele><time>2026-04-04T10:08:28.942Z</time></trkpt><trkpt lat="44.3679826" lon="10.3959209"><ele>747.4</ele><time>2026-04-04T10:08:29.942Z</time></trkpt><trkpt lat="44.3680541" lon="10.3960173"><ele>748.8</ele><time>2026-04-04T10:08:30.941Z</time></trkpt><trkpt lat="44.3681235" lon="10.3961071"><ele>750.1999999999999</ele><time>2026-04-04T10:08:31.942Z</time></trkpt><trkpt lat="44.3681818" lon="10.3961973"><ele>751.5999999999999</ele><time>2026-04-04T10:08:32.942Z</time></trkpt><trkpt lat="44.3682261" lon="10.3962916"><ele>753.0</ele><time>2026-04-04T10:08:33.941Z</time></trkpt><trkpt lat="44.3682574" lon="10.3964092"><ele>753.0</ele><time>2026-04-04T10:08:34.942Z</time></trkpt><trkpt lat="44.368286" lon="10.3965309"><ele>753.0</ele><time>2026-04-04T10:08:35.941Z</time></trkpt><trkpt lat="44.3683107" lon="10.3966573"><ele>753.0</ele><time>2026-04-04T10:08:36.942Z</time></trkpt><trkpt lat="44.3683363" lon="10.3967851"><ele>753.0</ele><time>2026-04-04T10:08:37.942Z</time></trkpt><trkpt lat="44.3683643" lon="10.3969115"><ele>753.0</ele><time>2026-04-04T10:08:38.942Z</time></trkpt><trkpt lat="44.3683904" lon="10.3970315"><ele>753.0</ele><time>2026-04-04T10:08:39.942Z</time></trkpt><trkpt lat="44.3684181" lon="10.3971493"><ele>753.0</ele><time>2026-04-04T10:08:40.942Z</time></trkpt><trkpt lat="44.3684446" lon="10.3972574"><ele>753.0</ele><time>2026-04-04T10:08:41.942Z</time></trkpt><trkpt lat="44.3684784" lon="10.3973499"><ele>753.0</ele><time>2026-04-04T10:08:42.941Z</time></trkpt><trkpt lat="44.3685556" lon="10.3974606"><ele>753.0</ele><time>2026-04-04T10:08:44.942Z</time></trkpt><trkpt lat="44.3686404" lon="10.3975687"><ele>752.8</ele><time>2026-04-04T10:08:46.942Z</time></trkpt><trkpt lat="44.3687051" lon="10.3976326"><ele>752.5999999999999</ele><time>2026-04-04T10:08:47.942Z</time></trkpt><trkpt lat="44.3687773" lon="10.3977107"><ele>752.4000000000001</ele><time>2026-04-04T10:08:48.942Z</time></trkpt><trkpt lat="44.3688541" lon="10.3977904"><ele>752.2</ele><time>2026-04-04T10:08:49.942Z</time></trkpt><trkpt lat="44.3689341" lon="10.3978718"><ele>752.0</ele><time>2026-04-04T10:08:50.942Z</time></trkpt><trkpt lat="44.3690081" lon="10.397964"><ele>752.1666666666666</ele><time>2026-04-04T10:08:51.942Z</time></trkpt><trkpt lat="44.3690719" lon="10.3980536"><ele>752.3333333333333</ele><time>2026-04-04T10:08:52.942Z</time></trkpt><trkpt lat="44.369121" lon="10.398136"><ele>752.5</ele><time>2026-04-04T10:08:53.942Z</time></trkpt><trkpt lat="44.3691594" lon="10.3982278"><ele>752.6666666666666</ele><time>2026-04-04T10:08:54.942Z</time></trkpt><trkpt lat="44.3691861" lon="10.398324"><ele>752.8333333333334</ele><time>2026-04-04T10:08:55.941Z</time></trkpt><trkpt lat="44.3692088" lon="10.3984202"><ele>753.0</ele><time>2026-04-04T10:08:56.942Z</time></trkpt><trkpt lat="44.3692565" lon="10.3985264"><ele>753.0</ele><time>2026-04-04T10:08:57.941Z</time></trkpt><trkpt lat="44.3692895" lon="10.3986301"><ele>753.0</ele><time>2026-04-04T10:08:58.942Z</time></trkpt><trkpt lat="44.3693273" lon="10.3987425"><ele>753.0</ele><time>2026-04-04T10:08:59.942Z</time></trkpt><trkpt lat="44.3693598" lon="10.3988463"><ele>753.0</ele><time>2026-04-04T10:09:00.942Z</time></trkpt><trkpt lat="44.3693923" lon="10.398943"><ele>753.0</ele><time>2026-04-04T10:09:01.942Z</time></trkpt><trkpt lat="44.3694538" lon="10.3991057"><ele>750.0</ele><time>2026-04-04T10:09:03.942Z</time></trkpt><trkpt lat="44.369475" lon="10.3991898"><ele>747.0</ele><time>2026-04-04T10:09:04.942Z</time></trkpt><trkpt lat="44.3695333" lon="10.3993315"><ele>744.0</ele><time>2026-04-04T10:09:06.942Z</time></trkpt><trkpt lat="44.3696195" lon="10.3994272"><ele>741.0</ele><time>2026-04-04T10:09:08.942Z</time></trkpt><trkpt lat="44.3696727" lon="10.3994971"><ele>738.0</ele><time>2026-04-04T10:09:09.941Z</time></trkpt><trkpt lat="44.3697318" lon="10.3996265"><ele>742.0</ele><time>2026-04-04T10:09:11.941Z</time></trkpt><trkpt lat="44.3698276" lon="10.399719"><ele>746.0</ele><time>2026-04-04T10:09:13.942Z</time></trkpt><trkpt lat="44.3699447" lon="10.3997994"><ele>750.0</ele><time>2026-04-04T10:09:15.941Z</time></trkpt><trkpt lat="44.3699926" lon="10.3998574"><ele>754.0</ele><time>2026-04-04T10:09:16.941Z</time></trkpt><trkpt lat="44.370032" lon="10.4000041"><ele>758.0</ele><time>2026-04-04T10:09:18.942Z</time></trkpt><trkpt lat="44.3700057" lon="10.4001755"><ele>758.0000000000001</ele><time>2026-04-04T10:09:20.942Z</time></trkpt><trkpt lat="44.3699819" lon="10.4002597"><ele>758.0</ele><time>2026-04-04T10:09:21.942Z</time></trkpt><trkpt lat="44.3699736" lon="10.4003539"><ele>758.0</ele><time>2026-04-04T10:09:22.941Z</time></trkpt><trkpt lat="44.3699794" lon="10.4004592"><ele>758.0</ele><time>2026-04-04T10:09:23.942Z</time></trkpt><trkpt lat="44.3699863" lon="10.4005651"><ele>758.0</ele><time>2026-04-04T10:09:24.942Z</time></trkpt><trkpt lat="44.3700025" lon="10.4006665"><ele>758.0000000000001</ele><time>2026-04-04T10:09:25.942Z</time></trkpt><trkpt lat="44.3700307" lon="10.4007607"><ele>758.0</ele><time>2026-04-04T10:09:26.942Z</time></trkpt><trkpt lat="44.3701094" lon="10.4008841"><ele>757.1428571428572</ele><time>2026-04-04T10:09:28.942Z</time></trkpt><trkpt lat="44.3701786" lon="10.4009063"><ele>756.2857142857143</ele><time>2026-04-04T10:09:29.941Z</time></trkpt><trkpt lat="44.3702508" lon="10.4009199"><ele>755.4285714285714</ele><time>2026-04-04T10:09:30.942Z</time></trkpt><trkpt lat="44.370324" lon="10.4009178"><ele>754.5714285714287</ele><time>2026-04-04T10:09:31.942Z</time></trkpt><trkpt lat="44.3703987" lon="10.4009195"><ele>753.7142857142857</ele><time>2026-04-04T10:09:32.942Z</time></trkpt><trkpt lat="44.3704705" lon="10.4009129"><ele>752.8571428571429</ele><time>2026-04-04T10:09:33.941Z</time></trkpt><trkpt lat="44.3705448" lon="10.4009108"><ele>752.0</ele><time>2026-04-04T10:09:34.942Z</time></trkpt><trkpt lat="44.370611" lon="10.4009067"><ele>757.0</ele><time>2026-04-04T10:09:35.942Z</time></trkpt><trkpt lat="44.3707362" lon="10.4008995"><ele>762.0</ele><time>2026-04-04T10:09:37.942Z</time></trkpt><trkpt lat="44.3708026" lon="10.4009438"><ele>767.0</ele><time>2026-04-04T10:09:38.942Z</time></trkpt><trkpt lat="44.3708443" lon="10.4010115"><ele>772.0</ele><time>2026-04-04T10:09:39.941Z</time></trkpt><trkpt lat="44.3708619" lon="10.4011653"><ele>777.0</ele><time>2026-04-04T10:09:41.942Z</time></trkpt><trkpt lat="44.3708513" lon="10.4012711"><ele>775.0</ele><time>2026-04-04T10:09:42.942Z</time></trkpt><trkpt lat="44.3708362" lon="10.4013847"><ele>773.0</ele><time>2026-04-04T10:09:43.942Z</time></trkpt><trkpt lat="44.3708274" lon="10.4015001"><ele>771.0</ele><time>2026-04-04T10:09:44.941Z</time></trkpt><trkpt lat="44.3708219" lon="10.4016036"><ele>769.0</ele><time>2026-04-04T10:09:45.941Z</time></trkpt><trkpt lat="44.370824" lon="10.4017094"><ele>767.0</ele><time>2026-04-04T10:09:46.942Z</time></trkpt><trkpt lat="44.3708512" lon="10.4018033"><ele>765.0</ele><time>2026-04-04T10:09:48.942Z</time></trkpt><trkpt lat="44.3708698" lon="10.4019274"><ele>765.0</ele><time>2026-04-04T10:09:55.942Z</time></trkpt><trkpt lat="44.3709083" lon="10.402003"><ele>765.0</ele><time>2026-04-04T10:09:56.942Z</time></trkpt><trkpt lat="44.3710201" lon="10.4020239"><ele>765.0</ele><time>2026-04-04T10:09:58.942Z</time></trkpt><trkpt lat="44.3710983" lon="10.4020055"><ele>765.0</ele><time>2026-04-04T10:09:59.942Z</time></trkpt><trkpt lat="44.3711817" lon="10.4019804"><ele>765.0</ele><time>2026-04-04T10:10:00.942Z</time></trkpt><trkpt lat="44.371262" lon="10.4019766"><ele>765.0</ele><time>2026-04-04T10:10:01.942Z</time></trkpt><trkpt lat="44.3713332" lon="10.4019951"><ele>766.1666666666666</ele><time>2026-04-04T10:10:02.941Z</time></trkpt><trkpt lat="44.3713936" lon="10.4020202"><ele>767.3333333333333</ele><time>2026-04-04T10:10:03.942Z</time></trkpt><trkpt lat="44.3714993" lon="10.4021251"><ele>768.5</ele><time>2026-04-04T10:10:05.942Z</time></trkpt><trkpt lat="44.3715425" lon="10.4021956"><ele>769.6666666666666</ele><time>2026-04-04T10:10:06.941Z</time></trkpt><trkpt lat="44.3715813" lon="10.4022707"><ele>770.8333333333333</ele><time>2026-04-04T10:10:07.942Z</time></trkpt><trkpt lat="44.3716292" lon="10.4023412"><ele>772.0</ele><time>2026-04-04T10:10:08.941Z</time></trkpt><trkpt lat="44.3716817" lon="10.4024074"><ele>772.0000000000001</ele><time>2026-04-04T10:10:09.942Z</time></trkpt><trkpt lat="44.3717324" lon="10.4024833"><ele>772.0</ele><time>2026-04-04T10:10:10.942Z</time></trkpt><trkpt lat="44.3717751" lon="10.4025752"><ele>772.0</ele><time>2026-04-04T10:10:11.941Z</time></trkpt><trkpt lat="44.3718049" lon="10.4026718"><ele>772.0</ele><time>2026-04-04T10:10:12.942Z</time></trkpt><trkpt lat="44.371833" lon="10.4027672"><ele>772.0</ele><time>2026-04-04T10:10:13.941Z</time></trkpt><trkpt lat="44.3718691" lon="10.402852"><ele>772.0000000000001</ele><time>2026-04-04T10:10:14.942Z</time></trkpt><trkpt lat="44.3719018" lon="10.4029482"><ele>772.0</ele><time>2026-04-04T10:10:15.942Z</time></trkpt><trkpt lat="44.3719193" lon="10.4030359"><ele>775.1666666666666</ele><time>2026-04-04T10:10:16.941Z</time></trkpt><trkpt lat="44.3719383" lon="10.40312"><ele>778.3333333333333</ele><time>2026-04-04T10:10:17.941Z</time></trkpt><trkpt lat="44.3720057" lon="10.4032708"><ele>781.5</ele><time>2026-04-04T10:10:19.942Z</time></trkpt><trkpt lat="44.372057" lon="10.4033624"><ele>784.6666666666667</ele><time>2026-04-04T10:10:20.942Z</time></trkpt><trkpt lat="44.3721167" lon="10.4034476"><ele>787.8333333333334</ele><time>2026-04-04T10:10:21.942Z</time></trkpt><trkpt lat="44.3721838" lon="10.4035096"><ele>791.0</ele><time>2026-04-04T10:10:22.942Z</time></trkpt><trkpt lat="44.3722516" lon="10.4035607"><ele>791.0</ele><time>2026-04-04T10:10:23.942Z</time></trkpt><trkpt lat="44.3723058" lon="10.4036131"><ele>791.0</ele><time>2026-04-04T10:10:24.941Z</time></trkpt><trkpt lat="44.3723971" lon="10.4037295"><ele>791.0</ele><time>2026-04-04T10:10:26.942Z</time></trkpt><trkpt lat="44.3724697" lon="10.4038476"><ele>791.0</ele><time>2026-04-04T10:10:28.942Z</time></trkpt><trkpt lat="44.3724644" lon="10.404013"><ele>791.0</ele><time>2026-04-04T10:10:30.941Z</time></trkpt><trkpt lat="44.3724407" lon="10.4041159"><ele>789.5000000000001</ele><time>2026-04-04T10:10:31.941Z</time></trkpt><trkpt lat="44.3724221" lon="10.4042126"><ele>788.0</ele><time>2026-04-04T10:10:32.941Z</time></trkpt><trkpt lat="44.3724084" lon="10.4043099"><ele>786.5</ele><time>2026-04-04T10:10:33.942Z</time></trkpt><trkpt lat="44.3723965" lon="10.4044034"><ele>785.0</ele><time>2026-04-04T10:10:34.941Z</time></trkpt><trkpt lat="44.3723783" lon="10.4045038"><ele>783.5000000000001</ele><time>2026-04-04T10:10:35.942Z</time></trkpt><trkpt lat="44.3723549" lon="10.4045949"><ele>782.0</ele><time>2026-04-04T10:10:36.941Z</time></trkpt><trkpt lat="44.3723605" lon="10.4047616"><ele>782.0000000000001</ele><time>2026-04-04T10:10:38.942Z</time></trkpt><trkpt lat="44.3723818" lon="10.4048602"><ele>782.0</ele><time>2026-04-04T10:10:39.941Z</time></trkpt><trkpt lat="44.3724165" lon="10.4049432"><ele>782.0</ele><time>2026-04-04T10:10:40.941Z</time></trkpt><trkpt lat="44.3725106" lon="10.4050516"><ele>782.0</ele><time>2026-04-04T10:10:42.942Z</time></trkpt><trkpt lat="44.3725656" lon="10.4051026"><ele>782.0000000000001</ele><time>2026-04-04T10:10:43.942Z</time></trkpt><trkpt lat="44.3726269" lon="10.4051687"><ele>782.0</ele><time>2026-04-04T10:10:44.942Z</time></trkpt><trkpt lat="44.3726873" lon="10.4052497"><ele>782.0000000000001</ele><time>2026-04-04T10:10:45.941Z</time></trkpt><trkpt lat="44.3727436" lon="10.4053343"><ele>782.0</ele><time>2026-04-04T10:10:46.941Z</time></trkpt><trkpt lat="44.3728074" lon="10.4054058"><ele>782.0</ele><time>2026-04-04T10:10:47.941Z</time></trkpt><trkpt lat="44.3728716" lon="10.405473"><ele>782.0</ele><time>2026-04-04T10:10:48.942Z</time></trkpt><trkpt lat="44.372938" lon="10.4055357"><ele>782.0000000000001</ele><time>2026-04-04T10:10:49.942Z</time></trkpt><trkpt lat="44.3730024" lon="10.4055971"><ele>782.0</ele><time>2026-04-04T10:10:50.942Z</time></trkpt><trkpt lat="44.3730585" lon="10.4056602"><ele>782.0000000000001</ele><time>2026-04-04T10:10:51.942Z</time></trkpt><trkpt lat="44.3731112" lon="10.4057274"><ele>782.0</ele><time>2026-04-04T10:10:52.941Z</time></trkpt><trkpt lat="44.3731732" lon="10.4057854"><ele>782.0</ele><time>2026-04-04T10:10:53.942Z</time></trkpt><trkpt lat="44.3732921" lon="10.4058044"><ele>782.0</ele><time>2026-04-04T10:10:55.941Z</time></trkpt><trkpt lat="44.3733544" lon="10.4058173"><ele>782.0000000000001</ele><time>2026-04-04T10:10:56.941Z</time></trkpt><trkpt lat="44.3734164" lon="10.4058594"><ele>782.0</ele><time>2026-04-04T10:10:57.942Z</time></trkpt><trkpt lat="44.3734746" lon="10.4059113"><ele>781.9999999999999</ele><time>2026-04-04T10:10:58.942Z</time></trkpt><trkpt lat="44.3735373" lon="10.4059652"><ele>782.0</ele><time>2026-04-04T10:10:59.941Z</time></trkpt><trkpt lat="44.373581" lon="10.4060475"><ele>782.0</ele><time>2026-04-04T10:11:00.941Z</time></trkpt><trkpt lat="44.3736038" lon="10.4061369"><ele>782.0</ele><time>2026-04-04T10:11:01.941Z</time></trkpt><trkpt lat="44.3736117" lon="10.4062337"><ele>782.0</ele><time>2026-04-04T10:11:02.942Z</time></trkpt><trkpt lat="44.373619" lon="10.4063328"><ele>781.9999999999999</ele><time>2026-04-04T10:11:03.941Z</time></trkpt><trkpt lat="44.373627" lon="10.4064209"><ele>782.0</ele><time>2026-04-04T10:11:04.942Z</time></trkpt><trkpt lat="44.3735806" lon="10.4065711"><ele>784.0</ele><time>2026-04-04T10:11:06.942Z</time></trkpt><trkpt lat="44.3735872" lon="10.406671"><ele>786.0</ele><time>2026-04-04T10:11:08.942Z</time></trkpt><trkpt lat="44.3736613" lon="10.4067458"><ele>788.0</ele><time>2026-04-04T10:11:10.941Z</time></trkpt><trkpt lat="44.3737534" lon="10.4067987"><ele>790.0</ele><time>2026-04-04T10:11:12.942Z</time></trkpt><trkpt lat="44.3738628" lon="10.4068205"><ele>792.0</ele><time>2026-04-04T10:11:14.941Z</time></trkpt><trkpt lat="44.3739815" lon="10.4068579"><ele>792.0</ele><time>2026-04-04T10:11:16.942Z</time></trkpt><trkpt lat="44.3740361" lon="10.4069193"><ele>792.0</ele><time>2026-04-04T10:11:17.942Z</time></trkpt><trkpt lat="44.3740851" lon="10.4069763"><ele>792.0</ele><time>2026-04-04T10:11:18.941Z</time></trkpt><trkpt lat="44.3741232" lon="10.4070483"><ele>792.0</ele><time>2026-04-04T10:11:19.942Z</time></trkpt><trkpt lat="44.3741596" lon="10.4071255"><ele>792.0</ele><time>2026-04-04T10:11:20.942Z</time></trkpt><trkpt lat="44.3741952" lon="10.4072011"><ele>792.0</ele><time>2026-04-04T10:11:21.942Z</time></trkpt><trkpt lat="44.3742356" lon="10.4072708"><ele>792.0</ele><time>2026-04-04T10:11:22.942Z</time></trkpt><trkpt lat="44.3743574" lon="10.4073183"><ele>791.6</ele><time>2026-04-04T10:11:24.942Z</time></trkpt><trkpt lat="44.3744353" lon="10.4073268"><ele>791.2</ele><time>2026-04-04T10:11:25.942Z</time></trkpt><trkpt lat="44.3745121" lon="10.4073411"><ele>790.8</ele><time>2026-04-04T10:11:26.941Z</time></trkpt><trkpt lat="44.3746082" lon="10.4073518"><ele>790.4</ele><time>2026-04-04T10:11:28.942Z</time></trkpt><trkpt lat="44.3747363" lon="10.4073327"><ele>790.0</ele><time>2026-04-04T10:12:50.941Z</time></trkpt><trkpt lat="44.3748057" lon="10.4073055"><ele>789.9999999999999</ele><time>2026-04-04T10:12:51.941Z</time></trkpt><trkpt lat="44.374879" lon="10.4072759"><ele>790.0</ele><time>2026-04-04T10:12:52.941Z</time></trkpt><trkpt lat="44.3749541" lon="10.4072268"><ele>790.0</ele><time>2026-04-04T10:12:53.941Z</time></trkpt><trkpt lat="44.3750177" lon="10.4071757"><ele>790.0</ele><time>2026-04-04T10:12:54.941Z</time></trkpt><trkpt lat="44.3750731" lon="10.4071286"><ele>789.9999999999999</ele><time>2026-04-04T10:12:55.941Z</time></trkpt><trkpt lat="44.3751906" lon="10.4071353"><ele>790.0</ele><time>2026-04-04T10:12:57.941Z</time></trkpt><trkpt lat="44.375269" lon="10.4071512"><ele>790.0</ele><time>2026-04-04T10:12:58.941Z</time></trkpt><trkpt lat="44.3753542" lon="10.407154"><ele>790.0</ele><time>2026-04-04T10:12:59.941Z</time></trkpt><trkpt lat="44.3754278" lon="10.4071809"><ele>790.0</ele><time>2026-04-04T10:13:00.941Z</time></trkpt><trkpt lat="44.3754962" lon="10.4072095"><ele>790.0</ele><time>2026-04-04T10:13:01.941Z</time></trkpt><trkpt lat="44.3755596" lon="10.4072159"><ele>790.0</ele><time>2026-04-04T10:13:02.94Z</time></trkpt><trkpt lat="44.37563" lon="10.4072171"><ele>790.0</ele><time>2026-04-04T10:13:03.941Z</time></trkpt><trkpt lat="44.3756988" lon="10.4072192"><ele>790.0</ele><time>2026-04-04T10:13:04.941Z</time></trkpt><trkpt lat="44.3757751" lon="10.4073425"><ele>792.1666666666666</ele><time>2026-04-04T10:13:06.941Z</time></trkpt><trkpt lat="44.3758116" lon="10.4074275"><ele>794.3333333333333</ele><time>2026-04-04T10:13:07.94Z</time></trkpt><trkpt lat="44.3758547" lon="10.4075176"><ele>796.5</ele><time>2026-04-04T10:13:08.94Z</time></trkpt><trkpt lat="44.3759132" lon="10.4075901"><ele>798.6666666666667</ele><time>2026-04-04T10:13:09.941Z</time></trkpt><trkpt lat="44.3759765" lon="10.4076369"><ele>800.8333333333334</ele><time>2026-04-04T10:13:10.941Z</time></trkpt><trkpt lat="44.3760399" lon="10.4076642"><ele>803.0</ele><time>2026-04-04T10:13:11.941Z</time></trkpt><trkpt lat="44.3761357" lon="10.4077328"><ele>803.0000000000001</ele><time>2026-04-04T10:13:13.94Z</time></trkpt><trkpt lat="44.3762508" lon="10.4078121"><ele>803.0</ele><time>2026-04-04T10:13:15.94Z</time></trkpt><trkpt lat="44.3763261" lon="10.4078613"><ele>803.0</ele><time>2026-04-04T10:13:16.941Z</time></trkpt><trkpt lat="44.3764082" lon="10.4079043"><ele>803.0</ele><time>2026-04-04T10:13:17.94Z</time></trkpt><trkpt lat="44.3764782" lon="10.407943"><ele>803.0000000000001</ele><time>2026-04-04T10:13:18.941Z</time></trkpt><trkpt lat="44.376547" lon="10.4079704"><ele>803.0</ele><time>2026-04-04T10:13:19.941Z</time></trkpt><trkpt lat="44.3766101" lon="10.4080071"><ele>803.3333333333334</ele><time>2026-04-04T10:13:20.94Z</time></trkpt><trkpt lat="44.3766579" lon="10.4080787"><ele>803.6666666666667</ele><time>2026-04-04T10:13:21.941Z</time></trkpt><trkpt lat="44.3767047" lon="10.4081647"><ele>804.0</ele><time>2026-04-04T10:13:22.941Z</time></trkpt><trkpt lat="44.3767464" lon="10.4082522"><ele>804.3333333333333</ele><time>2026-04-04T10:13:23.94Z</time></trkpt><trkpt lat="44.3767954" lon="10.4083347"><ele>804.6666666666666</ele><time>2026-04-04T10:13:24.941Z</time></trkpt><trkpt lat="44.3768549" lon="10.4084164"><ele>805.0</ele><time>2026-04-04T10:13:25.941Z</time></trkpt><trkpt lat="44.3769149" lon="10.4085009"><ele>804.9999999999999</ele><time>2026-04-04T10:13:26.94Z</time></trkpt><trkpt lat="44.3769737" lon="10.4085824"><ele>805.0</ele><time>2026-04-04T10:13:27.941Z</time></trkpt><trkpt lat="44.3770378" lon="10.4086467"><ele>805.0</ele><time>2026-04-04T10:13:28.941Z</time></trkpt><trkpt lat="44.3771068" lon="10.4087137"><ele>805.0</ele><time>2026-04-04T10:13:29.941Z</time></trkpt><trkpt lat="44.3771722" lon="10.4087756"><ele>804.9999999999999</ele><time>2026-04-04T10:13:30.941Z</time></trkpt><trkpt lat="44.3772428" lon="10.408829"><ele>805.0</ele><time>2026-04-04T10:13:31.94Z</time></trkpt><trkpt lat="44.3773052" lon="10.4088705"><ele>805.6666666666666</ele><time>2026-04-04T10:13:32.941Z</time></trkpt><trkpt lat="44.3773641" lon="10.4089079"><ele>806.3333333333333</ele><time>2026-04-04T10:13:33.94Z</time></trkpt><trkpt lat="44.3774895" lon="10.4089634"><ele>807.0</ele><time>2026-04-04T10:13:35.941Z</time></trkpt><trkpt lat="44.3775602" lon="10.4090023"><ele>807.6666666666667</ele><time>2026-04-04T10:13:36.941Z</time></trkpt><trkpt lat="44.377612" lon="10.4090673"><ele>808.3333333333334</ele><time>2026-04-04T10:13:37.941Z</time></trkpt><trkpt lat="44.3776662" lon="10.4091372"><ele>809.0</ele><time>2026-04-04T10:13:38.94Z</time></trkpt><trkpt lat="44.3777223" lon="10.409209"><ele>809.0</ele><time>2026-04-04T10:13:39.941Z</time></trkpt><trkpt lat="44.3777707" lon="10.4092785"><ele>809.0</ele><time>2026-04-04T10:13:40.94Z</time></trkpt><trkpt lat="44.3777923" lon="10.4093621"><ele>809.0</ele><time>2026-04-04T10:13:41.94Z</time></trkpt><trkpt lat="44.3778071" lon="10.4095517"><ele>809.0</ele><time>2026-04-04T10:13:43.941Z</time></trkpt><trkpt lat="44.3778162" lon="10.4096456"><ele>809.0</ele><time>2026-04-04T10:13:44.94Z</time></trkpt><trkpt lat="44.3778526" lon="10.4098036"><ele>810.6666666666667</ele><time>2026-04-04T10:13:46.941Z</time></trkpt><trkpt lat="44.3778879" lon="10.4098968"><ele>812.3333333333334</ele><time>2026-04-04T10:13:47.941Z</time></trkpt><trkpt lat="44.3779244" lon="10.4099889"><ele>814.0</ele><time>2026-04-04T10:13:48.941Z</time></trkpt><trkpt lat="44.3779562" lon="10.4100874"><ele>815.6666666666667</ele><time>2026-04-04T10:13:49.941Z</time></trkpt><trkpt lat="44.3779881" lon="10.4101641"><ele>817.3333333333334</ele><time>2026-04-04T10:13:50.941Z</time></trkpt><trkpt lat="44.3780544" lon="10.4102505"><ele>819.0</ele><time>2026-04-04T10:14:03.941Z</time></trkpt><trkpt lat="44.3781251" lon="10.4102541"><ele>819.0</ele><time>2026-04-04T10:14:05.941Z</time></trkpt><trkpt lat="44.3780584" lon="10.4102327"><ele>819.0</ele><time>2026-04-04T10:14:19.94Z</time></trkpt><trkpt lat="44.3780404" lon="10.4103723"><ele>819.0</ele><time>2026-04-04T10:14:24.941Z</time></trkpt><trkpt lat="44.378062" lon="10.4104627"><ele>819.0</ele><time>2026-04-04T10:14:25.941Z</time></trkpt><trkpt lat="44.3780902" lon="10.4105497"><ele>819.0</ele><time>2026-04-04T10:14:26.941Z</time></trkpt><trkpt lat="44.3781657" lon="10.4106754"><ele>819.0</ele><time>2026-04-04T10:14:28.94Z</time></trkpt><trkpt lat="44.3782184" lon="10.4107473"><ele>817.4000000000001</ele><time>2026-04-04T10:14:29.941Z</time></trkpt><trkpt lat="44.3783388" lon="10.4108477"><ele>815.8</ele><time>2026-04-04T10:14:31.941Z</time></trkpt><trkpt lat="44.3784043" lon="10.4108799"><ele>814.2</ele><time>2026-04-04T10:14:32.941Z</time></trkpt><trkpt lat="44.3785022" lon="10.4109313"><ele>812.5999999999999</ele><time>2026-04-04T10:14:34.941Z</time></trkpt><trkpt lat="44.3786217" lon="10.410988"><ele>811.0</ele><time>2026-04-04T10:14:36.94Z</time></trkpt><trkpt lat="44.3786878" lon="10.4110173"><ele>810.9999999999999</ele><time>2026-04-04T10:14:37.941Z</time></trkpt><trkpt lat="44.3787505" lon="10.4110738"><ele>811.0</ele><time>2026-04-04T10:14:38.941Z</time></trkpt><trkpt lat="44.3788074" lon="10.4111273"><ele>811.0</ele><time>2026-04-04T10:14:39.941Z</time></trkpt><trkpt lat="44.3788562" lon="10.4111844"><ele>811.0</ele><time>2026-04-04T10:14:40.94Z</time></trkpt><trkpt lat="44.3789133" lon="10.4112443"><ele>810.9999999999999</ele><time>2026-04-04T10:14:41.941Z</time></trkpt><trkpt lat="44.3789795" lon="10.4113026"><ele>811.0</ele><time>2026-04-04T10:14:42.941Z</time></trkpt><trkpt lat="44.3790613" lon="10.4114085"><ele>811.1999999999999</ele><time>2026-04-04T10:14:44.94Z</time></trkpt><trkpt lat="44.3791153" lon="10.4115387"><ele>811.4</ele><time>2026-04-04T10:14:46.941Z</time></trkpt><trkpt lat="44.379172" lon="10.4116189"><ele>811.6</ele><time>2026-04-04T10:14:48.94Z</time></trkpt><trkpt lat="44.3792539" lon="10.4117104"><ele>811.8</ele><time>2026-04-04T10:15:00.94Z</time></trkpt><trkpt lat="44.3793585" lon="10.4117541"><ele>812.0</ele><time>2026-04-04T10:15:02.94Z</time></trkpt><trkpt lat="44.3794129" lon="10.4118195"><ele>812.0000000000001</ele><time>2026-04-04T10:15:03.94Z</time></trkpt><trkpt lat="44.3794465" lon="10.4118979"><ele>812.0</ele><time>2026-04-04T10:15:04.941Z</time></trkpt><trkpt lat="44.3794913" lon="10.4120634"><ele>812.0</ele><time>2026-04-04T10:15:06.94Z</time></trkpt><trkpt lat="44.3795223" lon="10.4121464"><ele>812.0</ele><time>2026-04-04T10:15:07.941Z</time></trkpt><trkpt lat="44.3795575" lon="10.4122208"><ele>812.0000000000001</ele><time>2026-04-04T10:15:08.94Z</time></trkpt><trkpt lat="44.3795918" lon="10.4122993"><ele>812.0</ele><time>2026-04-04T10:15:09.94Z</time></trkpt><trkpt lat="44.37963" lon="10.412379"><ele>812.3333333333334</ele><time>2026-04-04T10:15:10.941Z</time></trkpt><trkpt lat="44.3796667" lon="10.4124613"><ele>812.6666666666667</ele><time>2026-04-04T10:15:11.941Z</time></trkpt><trkpt lat="44.3797037" lon="10.4125435"><ele>813.0</ele><time>2026-04-04T10:15:12.941Z</time></trkpt><trkpt lat="44.3797369" lon="10.4126282"><ele>813.3333333333333</ele><time>2026-04-04T10:15:13.941Z</time></trkpt><trkpt lat="44.3797671" lon="10.4127055"><ele>813.6666666666666</ele><time>2026-04-04T10:15:14.94Z</time></trkpt><trkpt lat="44.379803" lon="10.4127788"><ele>814.0</ele><time>2026-04-04T10:15:15.941Z</time></trkpt><trkpt lat="44.3798835" lon="10.4129021"><ele>812.6666666666666</ele><time>2026-04-04T10:15:17.94Z</time></trkpt><trkpt lat="44.3799214" lon="10.4130147"><ele>811.3333333333333</ele><time>2026-04-04T10:15:19.94Z</time></trkpt><trkpt lat="44.3799195" lon="10.413116"><ele>810.0</ele><time>2026-04-04T10:16:07.941Z</time></trkpt><trkpt lat="44.3799196" lon="10.4132049"><ele>808.6666666666667</ele><time>2026-04-04T10:16:09.94Z</time></trkpt><trkpt lat="44.3799212" lon="10.4133053"><ele>807.3333333333334</ele><time>2026-04-04T10:16:11.941Z</time></trkpt><trkpt lat="44.3798935" lon="10.4134228"><ele>806.0</ele><time>2026-04-04T10:16:13.941Z</time></trkpt><trkpt lat="44.3798479" lon="10.4135347"><ele>806.0000000000001</ele><time>2026-04-04T10:16:15.941Z</time></trkpt><trkpt lat="44.3798361" lon="10.4136496"><ele>806.0</ele><time>2026-04-04T10:16:17.941Z</time></trkpt><trkpt lat="44.3798775" lon="10.4137589"><ele>806.0</ele><time>2026-04-04T10:16:19.94Z</time></trkpt><trkpt lat="44.3799215" lon="10.4138592"><ele>806.0</ele><time>2026-04-04T10:16:21.941Z</time></trkpt><trkpt lat="44.3799441" lon="10.4139897"><ele>806.0000000000001</ele><time>2026-04-04T10:16:23.941Z</time></trkpt><trkpt lat="44.3799599" lon="10.4141199"><ele>806.0</ele><time>2026-04-04T10:16:25.941Z</time></trkpt><trkpt lat="44.3799856" lon="10.4142371"><ele>803.5000000000001</ele><time>2026-04-04T10:16:27.94Z</time></trkpt><trkpt lat="44.3800273" lon="10.4143182"><ele>801.0</ele><time>2026-04-04T10:16:29.94Z</time></trkpt><trkpt lat="44.3800941" lon="10.4143561"><ele>798.5</ele><time>2026-04-04T10:16:31.941Z</time></trkpt><trkpt lat="44.3801839" lon="10.4143293"><ele>796.0</ele><time>2026-04-04T10:16:33.941Z</time></trkpt><trkpt lat="44.3802992" lon="10.4143649"><ele>793.5000000000001</ele><time>2026-04-04T10:16:35.94Z</time></trkpt><trkpt lat="44.3803684" lon="10.4144242"><ele>791.0</ele><time>2026-04-04T10:16:37.941Z</time></trkpt><trkpt lat="44.3804223" lon="10.414501"><ele>791.0</ele><time>2026-04-04T10:16:39.941Z</time></trkpt><trkpt lat="44.3804781" lon="10.414588"><ele>791.0</ele><time>2026-04-04T10:16:41.94Z</time></trkpt><trkpt lat="44.380521" lon="10.4147082"><ele>791.0</ele><time>2026-04-04T10:16:43.941Z</time></trkpt><trkpt lat="44.3805544" lon="10.4148151"><ele>791.0</ele><time>2026-04-04T10:16:45.941Z</time></trkpt><trkpt lat="44.3805849" lon="10.4149655"><ele>791.0</ele><time>2026-04-04T10:16:47.94Z</time></trkpt><trkpt lat="44.3806105" lon="10.4151356"><ele>789.0</ele><time>2026-04-04T10:16:49.941Z</time></trkpt><trkpt lat="44.3806243" lon="10.4152324"><ele>787.0</ele><time>2026-04-04T10:16:50.941Z</time></trkpt><trkpt lat="44.3806462" lon="10.415321"><ele>785.0</ele><time>2026-04-04T10:16:51.941Z</time></trkpt><trkpt lat="44.3806748" lon="10.415407"><ele>783.0</ele><time>2026-04-04T10:16:52.941Z</time></trkpt><trkpt lat="44.3807065" lon="10.4154946"><ele>781.0</ele><time>2026-04-04T10:16:53.94Z</time></trkpt><trkpt lat="44.380729" lon="10.4155836"><ele>779.0</ele><time>2026-04-04T10:16:54.941Z</time></trkpt><trkpt lat="44.3807396" lon="10.4156709"><ele>777.0</ele><time>2026-04-04T10:16:55.94Z</time></trkpt><trkpt lat="44.3807473" lon="10.4158159"><ele>777.0</ele><time>2026-04-04T10:16:57.941Z</time></trkpt><trkpt lat="44.3807329" lon="10.4159928"><ele>777.0</ele><time>2026-04-04T10:16:59.941Z</time></trkpt><trkpt lat="44.3807256" lon="10.4160899"><ele>777.0</ele><time>2026-04-04T10:17:00.941Z</time></trkpt><trkpt lat="44.3806958" lon="10.416271"><ele>777.0</ele><time>2026-04-04T10:17:02.941Z</time></trkpt><trkpt lat="44.3806754" lon="10.416366"><ele>777.0</ele><time>2026-04-04T10:17:03.941Z</time></trkpt><trkpt lat="44.3806441" lon="10.4164451"><ele>776.6666666666666</ele><time>2026-04-04T10:17:04.941Z</time></trkpt><trkpt lat="44.3806061" lon="10.4165185"><ele>776.3333333333333</ele><time>2026-04-04T10:17:05.941Z</time></trkpt><trkpt lat="44.3805714" lon="10.4165978"><ele>776.0</ele><time>2026-04-04T10:17:06.94Z</time></trkpt><trkpt lat="44.3805507" lon="10.4166824"><ele>775.6666666666666</ele><time>2026-04-04T10:17:07.94Z</time></trkpt><trkpt lat="44.3805147" lon="10.4168408"><ele>775.3333333333333</ele><time>2026-04-04T10:17:09.94Z</time></trkpt><trkpt lat="44.3804702" lon="10.4169945"><ele>775.0</ele><time>2026-04-04T10:17:11.941Z</time></trkpt><trkpt lat="44.3804331" lon="10.4171252"><ele>770.8333333333333</ele><time>2026-04-04T10:17:13.941Z</time></trkpt><trkpt lat="44.3804123" lon="10.4172366"><ele>766.6666666666666</ele><time>2026-04-04T10:17:15.941Z</time></trkpt><trkpt lat="44.380418" lon="10.4173573"><ele>762.5</ele><time>2026-04-04T10:17:17.941Z</time></trkpt><trkpt lat="44.3803829" lon="10.4174637"><ele>758.3333333333333</ele><time>2026-04-04T10:17:19.941Z</time></trkpt><trkpt lat="44.3803762" lon="10.4175967"><ele>754.1666666666666</ele><time>2026-04-04T10:17:21.94Z</time></trkpt><trkpt lat="44.3803893" lon="10.4177333"><ele>750.0</ele><time>2026-04-04T10:17:23.94Z</time></trkpt><trkpt lat="44.3804287" lon="10.4178143"><ele>750.0</ele><time>2026-04-04T10:17:25.941Z</time></trkpt><trkpt lat="44.3804951" lon="10.4178449"><ele>750.0</ele><time>2026-04-04T10:17:28.941Z</time></trkpt><trkpt lat="44.3805562" lon="10.4178214"><ele>750.0</ele><time>2026-04-04T10:17:32.941Z</time></trkpt><trkpt lat="44.3806329" lon="10.4178681"><ele>750.0</ele><time>2026-04-04T10:17:34.941Z</time></trkpt><trkpt lat="44.3806278" lon="10.4179875"><ele>750.0</ele><time>2026-04-04T10:17:36.94Z</time></trkpt><trkpt lat="44.3805491" lon="10.4179969"><ele>750.0</ele><time>2026-04-04T10:17:38.941Z</time></trkpt><trkpt lat="44.3804857" lon="10.4180476"><ele>747.6</ele><time>2026-04-04T10:18:00.941Z</time></trkpt><trkpt lat="44.3804559" lon="10.4181536"><ele>745.2</ele><time>2026-04-04T10:18:03.941Z</time></trkpt><trkpt lat="44.3804185" lon="10.4182769"><ele>742.8</ele><time>2026-04-04T10:18:06.941Z</time></trkpt><trkpt lat="44.3803837" lon="10.4184094"><ele>740.4</ele><time>2026-04-04T10:18:08.94Z</time></trkpt><trkpt lat="44.3803616" lon="10.4185506"><ele>738.0</ele><time>2026-04-04T10:18:10.941Z</time></trkpt><trkpt lat="44.3803853" lon="10.4186733"><ele>735.8</ele><time>2026-04-04T10:18:12.941Z</time></trkpt><trkpt lat="44.3804018" lon="10.4188205"><ele>733.5999999999999</ele><time>2026-04-04T10:18:14.941Z</time></trkpt><trkpt lat="44.3803728" lon="10.4189686"><ele>731.4000000000001</ele><time>2026-04-04T10:18:16.941Z</time></trkpt><trkpt lat="44.3803575" lon="10.4191075"><ele>729.2</ele><time>2026-04-04T10:18:18.941Z</time></trkpt><trkpt lat="44.3803622" lon="10.4192535"><ele>727.0</ele><time>2026-04-04T10:18:20.94Z</time></trkpt><trkpt lat="44.3804127" lon="10.4194119"><ele>727.0</ele><time>2026-04-04T10:18:22.94Z</time></trkpt><trkpt lat="44.3804787" lon="10.4194807"><ele>727.0</ele><time>2026-04-04T10:18:24.941Z</time></trkpt><trkpt lat="44.3805515" lon="10.4194927"><ele>727.0</ele><time>2026-04-04T10:18:26.941Z</time></trkpt><trkpt lat="44.3806782" lon="10.4195194"><ele>727.0</ele><time>2026-04-04T10:18:28.941Z</time></trkpt><trkpt lat="44.3807476" lon="10.419522"><ele>727.0</ele><time>2026-04-04T10:18:29.941Z</time></trkpt><trkpt lat="44.3808227" lon="10.4195207"><ele>727.0</ele><time>2026-04-04T10:18:30.941Z</time></trkpt><trkpt lat="44.3808913" lon="10.419526"><ele>728.6</ele><time>2026-04-04T10:18:31.941Z</time></trkpt><trkpt lat="44.3809682" lon="10.4196059"><ele>730.2</ele><time>2026-04-04T10:18:33.94Z</time></trkpt><trkpt lat="44.380991" lon="10.4197464"><ele>731.8</ele><time>2026-04-04T10:18:35.941Z</time></trkpt><trkpt lat="44.3810247" lon="10.4199077"><ele>733.4</ele><time>2026-04-04T10:18:37.941Z</time></trkpt><trkpt lat="44.3810972" lon="10.4200258"><ele>735.0</ele><time>2026-04-04T10:18:39.941Z</time></trkpt><trkpt lat="44.3811816" lon="10.4201513"><ele>735.0</ele><time>2026-04-04T10:18:41.94Z</time></trkpt><trkpt lat="44.3812292" lon="10.4202118"><ele>735.0</ele><time>2026-04-04T10:18:42.94Z</time></trkpt><trkpt lat="44.3812886" lon="10.4203593"><ele>735.0</ele><time>2026-04-04T10:18:44.941Z</time></trkpt><trkpt lat="44.3812569" lon="10.4205122"><ele>735.0</ele><time>2026-04-04T10:18:46.941Z</time></trkpt><trkpt lat="44.381233" lon="10.4205977"><ele>735.0</ele><time>2026-04-04T10:18:47.94Z</time></trkpt><trkpt lat="44.3812046" lon="10.4206782"><ele>735.0</ele><time>2026-04-04T10:18:48.941Z</time></trkpt><trkpt lat="44.3811592" lon="10.4208424"><ele>733.1666666666666</ele><time>2026-04-04T10:18:50.941Z</time></trkpt><trkpt lat="44.3811284" lon="10.4209246"><ele>731.3333333333334</ele><time>2026-04-04T10:18:51.941Z</time></trkpt><trkpt lat="44.381081" lon="10.421085"><ele>729.5</ele><time>2026-04-04T10:18:53.941Z</time></trkpt><trkpt lat="44.3810572" lon="10.421168"><ele>727.6666666666667</ele><time>2026-04-04T10:18:54.941Z</time></trkpt><trkpt lat="44.3810047" lon="10.4212765"><ele>725.8333333333334</ele><time>2026-04-04T10:18:56.941Z</time></trkpt><trkpt lat="44.3809547" lon="10.421364"><ele>724.0</ele><time>2026-04-04T10:18:58.941Z</time></trkpt><trkpt lat="44.3809138" lon="10.4214873"><ele>723.8571428571429</ele><time>2026-04-04T10:19:00.94Z</time></trkpt><trkpt lat="44.3808993" lon="10.4215813"><ele>723.7142857142857</ele><time>2026-04-04T10:19:03.941Z</time></trkpt><trkpt lat="44.3808961" lon="10.4216814"><ele>723.5714285714287</ele><time>2026-04-04T10:19:07.941Z</time></trkpt><trkpt lat="44.3809191" lon="10.4217819"><ele>723.4285714285714</ele><time>2026-04-04T10:19:10.941Z</time></trkpt><trkpt lat="44.3809337" lon="10.4218878"><ele>723.2857142857143</ele><time>2026-04-04T10:19:19.94Z</time></trkpt><trkpt lat="44.3809325" lon="10.4219848"><ele>723.1428571428572</ele><time>2026-04-04T10:19:22.94Z</time></trkpt><trkpt lat="44.3809551" lon="10.4220723"><ele>723.0</ele><time>2026-04-04T10:19:24.94Z</time></trkpt><trkpt lat="44.3809962" lon="10.4221681"><ele>723.8333333333334</ele><time>2026-04-04T10:19:26.94Z</time></trkpt><trkpt lat="44.381037" lon="10.4222742"><ele>724.6666666666666</ele><time>2026-04-04T10:19:28.94Z</time></trkpt><trkpt lat="44.381106" lon="10.422342"><ele>725.5</ele><time>2026-04-04T10:19:31.939Z</time></trkpt><trkpt lat="44.3811628" lon="10.4223898"><ele>726.3333333333333</ele><time>2026-04-04T10:19:33.939Z</time></trkpt><trkpt lat="44.3812342" lon="10.4224866"><ele>727.1666666666666</ele><time>2026-04-04T10:19:35.939Z</time></trkpt><trkpt lat="44.3813102" lon="10.4225867"><ele>728.0</ele><time>2026-04-04T10:19:37.94Z</time></trkpt><trkpt lat="44.3813941" lon="10.4227037"><ele>728.0</ele><time>2026-04-04T10:19:39.94Z</time></trkpt><trkpt lat="44.3814396" lon="10.4228184"><ele>728.0</ele><time>2026-04-04T10:19:41.94Z</time></trkpt><trkpt lat="44.3814851" lon="10.4229734"><ele>728.0</ele><time>2026-04-04T10:19:43.94Z</time></trkpt><trkpt lat="44.381521" lon="10.4230493"><ele>728.0</ele><time>2026-04-04T10:19:44.939Z</time></trkpt><trkpt lat="44.3816017" lon="10.4231762"><ele>728.0</ele><time>2026-04-04T10:19:46.94Z</time></trkpt><trkpt lat="44.3816951" lon="10.4232801"><ele>722.0</ele><time>2026-04-04T10:19:48.94Z</time></trkpt><trkpt lat="44.3817423" lon="10.4233418"><ele>716.0</ele><time>2026-04-04T10:19:49.94Z</time></trkpt><trkpt lat="44.3818178" lon="10.423471"><ele>710.0</ele><time>2026-04-04T10:19:51.94Z</time></trkpt><trkpt lat="44.3818608" lon="10.4236166"><ele>704.0</ele><time>2026-04-04T10:19:53.94Z</time></trkpt><trkpt lat="44.3818801" lon="10.4237424"><ele>698.0</ele><time>2026-04-04T10:19:55.939Z</time></trkpt><trkpt lat="44.3818523" lon="10.4238576"><ele>693.0</ele><time>2026-04-04T10:19:57.94Z</time></trkpt><trkpt lat="44.3818157" lon="10.423951"><ele>688.0</ele><time>2026-04-04T10:19:59.939Z</time></trkpt><trkpt lat="44.3817678" lon="10.424037"><ele>683.0</ele><time>2026-04-04T10:20:01.939Z</time></trkpt><trkpt lat="44.3817679" lon="10.4241634"><ele>678.0</ele><time>2026-04-04T10:20:03.94Z</time></trkpt><trkpt lat="44.3818066" lon="10.4243155"><ele>673.0</ele><time>2026-04-04T10:20:05.94Z</time></trkpt><trkpt lat="44.3818013" lon="10.4244595"><ele>673.0</ele><time>2026-04-04T10:20:07.938Z</time></trkpt><trkpt lat="44.3818052" lon="10.4246072"><ele>673.0</ele><time>2026-04-04T10:20:09.94Z</time></trkpt><trkpt lat="44.3818543" lon="10.4247203"><ele>673.0</ele><time>2026-04-04T10:20:11.939Z</time></trkpt><trkpt lat="44.3819017" lon="10.4248528"><ele>673.0</ele><time>2026-04-04T10:20:13.94Z</time></trkpt><trkpt lat="44.3819245" lon="10.425003"><ele>673.0</ele><time>2026-04-04T10:20:15.94Z</time></trkpt><trkpt lat="44.3819411" lon="10.4251714"><ele>670.0</ele><time>2026-04-04T10:20:17.94Z</time></trkpt><trkpt lat="44.3819114" lon="10.4253423"><ele>667.0</ele><time>2026-04-04T10:20:19.94Z</time></trkpt><trkpt lat="44.3818804" lon="10.4254265"><ele>664.0</ele><time>2026-04-04T10:20:20.94Z</time></trkpt><trkpt lat="44.3818455" lon="10.4255007"><ele>661.0</ele><time>2026-04-04T10:20:21.94Z</time></trkpt><trkpt lat="44.3818121" lon="10.4255786"><ele>658.0</ele><time>2026-04-04T10:20:22.94Z</time></trkpt><trkpt lat="44.3817495" lon="10.4257274"><ele>655.0</ele><time>2026-04-04T10:20:24.94Z</time></trkpt><trkpt lat="44.3817209" lon="10.4258123"><ele>653.1428571428571</ele><time>2026-04-04T10:20:25.94Z</time></trkpt><trkpt lat="44.3817106" lon="10.4259083"><ele>651.2857142857142</ele><time>2026-04-04T10:20:26.94Z</time></trkpt><trkpt lat="44.3817318" lon="10.4260084"><ele>649.4285714285713</ele><time>2026-04-04T10:20:27.94Z</time></trkpt><trkpt lat="44.3817657" lon="10.4261073"><ele>647.5714285714286</ele><time>2026-04-04T10:20:28.939Z</time></trkpt><trkpt lat="44.3818056" lon="10.4261967"><ele>645.7142857142857</ele><time>2026-04-04T10:20:29.939Z</time></trkpt><trkpt lat="44.3818465" lon="10.4262774"><ele>643.8571428571428</ele><time>2026-04-04T10:20:30.94Z</time></trkpt><trkpt lat="44.3818859" lon="10.4263522"><ele>642.0</ele><time>2026-04-04T10:20:31.939Z</time></trkpt><trkpt lat="44.3819045" lon="10.4264961"><ele>638.8000000000001</ele><time>2026-04-04T10:20:33.94Z</time></trkpt><trkpt lat="44.3818629" lon="10.4266443"><ele>635.6</ele><time>2026-04-04T10:20:35.939Z</time></trkpt><trkpt lat="44.3818369" lon="10.4267315"><ele>632.4000000000001</ele><time>2026-04-04T10:20:36.939Z</time></trkpt><trkpt lat="44.3818076" lon="10.4268606"><ele>629.2</ele><time>2026-04-04T10:20:37.939Z</time></trkpt><trkpt lat="44.3817755" lon="10.4270195"><ele>626.0</ele><time>2026-04-04T10:20:38.94Z</time></trkpt><trkpt lat="44.3817388" lon="10.427201"><ele>624.0</ele><time>2026-04-04T10:20:39.939Z</time></trkpt><trkpt lat="44.3816989" lon="10.42739"><ele>622.0</ele><time>2026-04-04T10:20:40.94Z</time></trkpt><trkpt lat="44.3816847" lon="10.4275748"><ele>620.0</ele><time>2026-04-04T10:20:41.939Z</time></trkpt><trkpt lat="44.3817114" lon="10.4277739"><ele>618.0</ele><time>2026-04-04T10:20:42.939Z</time></trkpt><trkpt lat="44.381759" lon="10.4279508"><ele>617.5</ele><time>2026-04-04T10:20:43.94Z</time></trkpt><trkpt lat="44.3818092" lon="10.4281178"><ele>617.0</ele><time>2026-04-04T10:20:44.94Z</time></trkpt><trkpt lat="44.3818677" lon="10.4282739"><ele>616.5</ele><time>2026-04-04T10:20:45.94Z</time></trkpt><trkpt lat="44.3819189" lon="10.4284255"><ele>616.0</ele><time>2026-04-04T10:20:46.94Z</time></trkpt><trkpt lat="44.3819664" lon="10.4285692"><ele>616.0</ele><time>2026-04-04T10:20:47.94Z</time></trkpt><trkpt lat="44.3820096" lon="10.4287124"><ele>616.0</ele><time>2026-04-04T10:20:48.94Z</time></trkpt><trkpt lat="44.3820583" lon="10.4288485"><ele>616.0</ele><time>2026-04-04T10:20:49.94Z</time></trkpt><trkpt lat="44.3821117" lon="10.4289948"><ele>616.0</ele><time>2026-04-04T10:20:50.94Z</time></trkpt><trkpt lat="44.3821677" lon="10.4291392"><ele>614.25</ele><time>2026-04-04T10:20:51.939Z</time></trkpt><trkpt lat="44.3822359" lon="10.4292742"><ele>612.5</ele><time>2026-04-04T10:20:52.939Z</time></trkpt><trkpt lat="44.3823299" lon="10.4293782"><ele>610.75</ele><time>2026-04-04T10:20:53.94Z</time></trkpt><trkpt lat="44.3824219" lon="10.4294904"><ele>609.0</ele><time>2026-04-04T10:20:54.94Z</time></trkpt><trkpt lat="44.3825068" lon="10.4296248"><ele>612.75</ele><time>2026-04-04T10:20:55.94Z</time></trkpt><trkpt lat="44.3825884" lon="10.4297662"><ele>616.5</ele><time>2026-04-04T10:20:56.94Z</time></trkpt><trkpt lat="44.3826782" lon="10.4299111"><ele>620.25</ele><time>2026-04-04T10:20:57.94Z</time></trkpt><trkpt lat="44.3827769" lon="10.4300522"><ele>624.0</ele><time>2026-04-04T10:20:58.94Z</time></trkpt><trkpt lat="44.3828788" lon="10.4301756"><ele>624.0</ele><time>2026-04-04T10:20:59.94Z</time></trkpt><trkpt lat="44.3829755" lon="10.4302825"><ele>624.0</ele><time>2026-04-04T10:21:00.94Z</time></trkpt><trkpt lat="44.3830544" lon="10.4303867"><ele>624.0</ele><time>2026-04-04T10:21:01.94Z</time></trkpt><trkpt lat="44.3831143" lon="10.4305001"><ele>624.0</ele><time>2026-04-04T10:21:02.94Z</time></trkpt><trkpt lat="44.3831509" lon="10.4306406"><ele>624.0</ele><time>2026-04-04T10:21:03.939Z</time></trkpt><trkpt lat="44.3831635" lon="10.4307869"><ele>621.6</ele><time>2026-04-04T10:21:04.94Z</time></trkpt><trkpt lat="44.3831757" lon="10.4309306"><ele>619.2</ele><time>2026-04-04T10:21:05.94Z</time></trkpt><trkpt lat="44.3832024" lon="10.4310568"><ele>616.8000000000001</ele><time>2026-04-04T10:21:06.94Z</time></trkpt><trkpt lat="44.3832244" lon="10.4311675"><ele>614.4</ele><time>2026-04-04T10:21:07.94Z</time></trkpt><trkpt lat="44.3832457" lon="10.4312776"><ele>612.0</ele><time>2026-04-04T10:21:08.94Z</time></trkpt><trkpt lat="44.3832677" lon="10.4313979"><ele>612.0</ele><time>2026-04-04T10:21:09.94Z</time></trkpt><trkpt lat="44.3832826" lon="10.4315344"><ele>612.0</ele><time>2026-04-04T10:21:10.939Z</time></trkpt><trkpt lat="44.383292" lon="10.431682"><ele>612.0</ele><time>2026-04-04T10:21:11.94Z</time></trkpt><trkpt lat="44.3832982" lon="10.4318476"><ele>612.0</ele><time>2026-04-04T10:21:12.94Z</time></trkpt><trkpt lat="44.3833032" lon="10.4320196"><ele>612.0</ele><time>2026-04-04T10:21:13.94Z</time></trkpt><trkpt lat="44.3833088" lon="10.432186"><ele>610.8000000000001</ele><time>2026-04-04T10:21:14.94Z</time></trkpt><trkpt lat="44.3833172" lon="10.4323437"><ele>609.6</ele><time>2026-04-04T10:21:15.94Z</time></trkpt><trkpt lat="44.383327" lon="10.4324977"><ele>608.4000000000001</ele><time>2026-04-04T10:21:16.94Z</time></trkpt><trkpt lat="44.3833369" lon="10.4326482"><ele>607.2</ele><time>2026-04-04T10:21:17.939Z</time></trkpt><trkpt lat="44.3833577" lon="10.4327993"><ele>606.0</ele><time>2026-04-04T10:21:18.94Z</time></trkpt><trkpt lat="44.3833873" lon="10.432955"><ele>604.0</ele><time>2026-04-04T10:21:19.94Z</time></trkpt><trkpt lat="44.3834236" lon="10.4331103"><ele>602.0</ele><time>2026-04-04T10:21:20.94Z</time></trkpt><trkpt lat="44.3834569" lon="10.4332708"><ele>600.0</ele><time>2026-04-04T10:21:21.94Z</time></trkpt><trkpt lat="44.3834898" lon="10.4334409"><ele>598.0</ele><time>2026-04-04T10:21:22.94Z</time></trkpt><trkpt lat="44.3835258" lon="10.4336028"><ele>598.0</ele><time>2026-04-04T10:21:23.94Z</time></trkpt><trkpt lat="44.3835596" lon="10.4337647"><ele>598.0</ele><time>2026-04-04T10:21:24.94Z</time></trkpt><trkpt lat="44.3835886" lon="10.4339201"><ele>598.0</ele><time>2026-04-04T10:21:25.94Z</time></trkpt><trkpt lat="44.3836213" lon="10.4340664"><ele>598.0</ele><time>2026-04-04T10:21:26.94Z</time></trkpt><trkpt lat="44.3836805" lon="10.4341888"><ele>598.75</ele><time>2026-04-04T10:21:27.94Z</time></trkpt><trkpt lat="44.383767" lon="10.4343031"><ele>599.5</ele><time>2026-04-04T10:21:28.94Z</time></trkpt><trkpt lat="44.3838651" lon="10.4344117"><ele>600.25</ele><time>2026-04-04T10:21:29.939Z</time></trkpt><trkpt lat="44.3839537" lon="10.4345193"><ele>601.0</ele><time>2026-04-04T10:21:30.939Z</time></trkpt><trkpt lat="44.3840435" lon="10.4346279"><ele>597.75</ele><time>2026-04-04T10:21:31.94Z</time></trkpt><trkpt lat="44.3841394" lon="10.4347339"><ele>594.5</ele><time>2026-04-04T10:21:32.94Z</time></trkpt><trkpt lat="44.3842355" lon="10.4348432"><ele>591.25</ele><time>2026-04-04T10:21:33.94Z</time></trkpt><trkpt lat="44.3843324" lon="10.4349631"><ele>588.0</ele><time>2026-04-04T10:21:34.94Z</time></trkpt><trkpt lat="44.384427" lon="10.4350851"><ele>588.0</ele><time>2026-04-04T10:21:35.939Z</time></trkpt><trkpt lat="44.3845235" lon="10.435218"><ele>588.0</ele><time>2026-04-04T10:21:36.939Z</time></trkpt><trkpt lat="44.3846224" lon="10.4353582"><ele>588.0</ele><time>2026-04-04T10:21:37.94Z</time></trkpt><trkpt lat="44.3847162" lon="10.4355002"><ele>588.0</ele><time>2026-04-04T10:21:38.94Z</time></trkpt><trkpt lat="44.3847999" lon="10.435643"><ele>586.5</ele><time>2026-04-04T10:21:39.94Z</time></trkpt><trkpt lat="44.384862" lon="10.4357999"><ele>585.0</ele><time>2026-04-04T10:21:40.94Z</time></trkpt><trkpt lat="44.3849008" lon="10.4359696"><ele>583.5</ele><time>2026-04-04T10:21:41.939Z</time></trkpt><trkpt lat="44.3849317" lon="10.4361382"><ele>582.0</ele><time>2026-04-04T10:21:42.94Z</time></trkpt><trkpt lat="44.3849644" lon="10.4363011"><ele>580.0</ele><time>2026-04-04T10:21:43.94Z</time></trkpt><trkpt lat="44.3850013" lon="10.4364656"><ele>578.0</ele><time>2026-04-04T10:21:44.94Z</time></trkpt><trkpt lat="44.3850416" lon="10.4366342"><ele>576.0</ele><time>2026-04-04T10:21:45.94Z</time></trkpt><trkpt lat="44.3850906" lon="10.4368023"><ele>574.0</ele><time>2026-04-04T10:21:46.939Z</time></trkpt><trkpt lat="44.3851512" lon="10.4369556"><ele>574.0</ele><time>2026-04-04T10:21:47.939Z</time></trkpt><trkpt lat="44.3852226" lon="10.4371032"><ele>574.0</ele><time>2026-04-04T10:21:48.94Z</time></trkpt><trkpt lat="44.3852886" lon="10.4372326"><ele>574.0</ele><time>2026-04-04T10:21:49.94Z</time></trkpt><trkpt lat="44.3853433" lon="10.4373467"><ele>574.0</ele><time>2026-04-04T10:21:50.939Z</time></trkpt><trkpt lat="44.3853801" lon="10.4374571"><ele>574.0</ele><time>2026-04-04T10:21:51.939Z</time></trkpt><trkpt lat="44.3853856" lon="10.4375737"><ele>573.4285714285714</ele><time>2026-04-04T10:21:52.94Z</time></trkpt><trkpt lat="44.385351" lon="10.4376575"><ele>572.8571428571429</ele><time>2026-04-04T10:21:53.94Z</time></trkpt><trkpt lat="44.3852898" lon="10.4376924"><ele>572.2857142857142</ele><time>2026-04-04T10:21:54.94Z</time></trkpt><trkpt lat="44.3852226" lon="10.43768"><ele>571.7142857142858</ele><time>2026-04-04T10:21:55.94Z</time></trkpt><trkpt lat="44.3851545" lon="10.4376398"><ele>571.1428571428571</ele><time>2026-04-04T10:21:56.94Z</time></trkpt><trkpt lat="44.3850885" lon="10.4375799"><ele>570.5714285714286</ele><time>2026-04-04T10:21:57.939Z</time></trkpt><trkpt lat="44.3850323" lon="10.4375037"><ele>570.0</ele><time>2026-04-04T10:21:58.94Z</time></trkpt><trkpt lat="44.3849825" lon="10.4374308"><ele>570.0</ele><time>2026-04-04T10:21:59.939Z</time></trkpt><trkpt lat="44.3849317" lon="10.437372"><ele>570.0</ele><time>2026-04-04T10:22:00.939Z</time></trkpt><trkpt lat="44.3848695" lon="10.4373073"><ele>570.0</ele><time>2026-04-04T10:22:01.939Z</time></trkpt><trkpt lat="44.3848002" lon="10.4372325"><ele>570.0</ele><time>2026-04-04T10:22:02.94Z</time></trkpt><trkpt lat="44.3847257" lon="10.4371509"><ele>570.0</ele><time>2026-04-04T10:22:03.939Z</time></trkpt><trkpt lat="44.3846427" lon="10.4370577"><ele>570.0</ele><time>2026-04-04T10:22:04.939Z</time></trkpt><trkpt lat="44.3845591" lon="10.4369489"><ele>567.75</ele><time>2026-04-04T10:22:05.939Z</time></trkpt><trkpt lat="44.3844731" lon="10.4368378"><ele>565.5</ele><time>2026-04-04T10:22:06.939Z</time></trkpt><trkpt lat="44.384387" lon="10.4367193"><ele>563.25</ele><time>2026-04-04T10:22:07.939Z</time></trkpt><trkpt lat="44.3843014" lon="10.4366111"><ele>561.0</ele><time>2026-04-04T10:22:08.939Z</time></trkpt><trkpt lat="44.3842195" lon="10.436509"><ele>561.0</ele><time>2026-04-04T10:22:09.94Z</time></trkpt><trkpt lat="44.3841325" lon="10.4364091"><ele>561.0</ele><time>2026-04-04T10:22:10.939Z</time></trkpt><trkpt lat="44.3840408" lon="10.43631"><ele>561.0</ele><time>2026-04-04T10:22:11.94Z</time></trkpt><trkpt lat="44.3839386" lon="10.4362225"><ele>561.0</ele><time>2026-04-04T10:22:12.939Z</time></trkpt><trkpt lat="44.3838205" lon="10.436161"><ele>562.25</ele><time>2026-04-04T10:22:13.939Z</time></trkpt><trkpt lat="44.3836904" lon="10.436123"><ele>563.5</ele><time>2026-04-04T10:22:14.94Z</time></trkpt><trkpt lat="44.3835644" lon="10.4360879"><ele>564.75</ele><time>2026-04-04T10:22:15.939Z</time></trkpt><trkpt lat="44.3834454" lon="10.4360403"><ele>566.0</ele><time>2026-04-04T10:22:16.939Z</time></trkpt><trkpt lat="44.3833285" lon="10.4359812"><ele>566.0</ele><time>2026-04-04T10:22:17.94Z</time></trkpt><trkpt lat="44.3832097" lon="10.4359263"><ele>566.0</ele><time>2026-04-04T10:22:18.939Z</time></trkpt><trkpt lat="44.3830944" lon="10.4358963"><ele>566.0</ele><time>2026-04-04T10:22:19.94Z</time></trkpt><trkpt lat="44.3829834" lon="10.4358685"><ele>566.0</ele><time>2026-04-04T10:22:20.94Z</time></trkpt><trkpt lat="44.3828781" lon="10.4358527"><ele>564.3333333333333</ele><time>2026-04-04T10:22:21.94Z</time></trkpt><trkpt lat="44.3827855" lon="10.4358041"><ele>562.6666666666666</ele><time>2026-04-04T10:22:22.94Z</time></trkpt><trkpt lat="44.3827082" lon="10.4357517"><ele>561.0</ele><time>2026-04-04T10:22:23.94Z</time></trkpt><trkpt lat="44.3826475" lon="10.435692"><ele>559.3333333333334</ele><time>2026-04-04T10:22:24.94Z</time></trkpt><trkpt lat="44.3825942" lon="10.4356378"><ele>557.6666666666667</ele><time>2026-04-04T10:22:25.94Z</time></trkpt><trkpt lat="44.3825567" lon="10.4355612"><ele>556.0</ele><time>2026-04-04T10:22:26.94Z</time></trkpt><trkpt lat="44.3825277" lon="10.4354726"><ele>557.3333333333334</ele><time>2026-04-04T10:22:27.94Z</time></trkpt><trkpt lat="44.3825067" lon="10.4353669"><ele>558.6666666666667</ele><time>2026-04-04T10:22:28.94Z</time></trkpt><trkpt lat="44.3825057" lon="10.4352612"><ele>560.0</ele><time>2026-04-04T10:22:29.94Z</time></trkpt><trkpt lat="44.3825036" lon="10.4351517"><ele>561.3333333333334</ele><time>2026-04-04T10:22:30.939Z</time></trkpt><trkpt lat="44.3824832" lon="10.4350281"><ele>562.6666666666666</ele><time>2026-04-04T10:22:31.94Z</time></trkpt><trkpt lat="44.3824472" lon="10.4349102"><ele>564.0</ele><time>2026-04-04T10:22:32.939Z</time></trkpt><trkpt lat="44.3823898" lon="10.4347914"><ele>564.0</ele><time>2026-04-04T10:22:33.939Z</time></trkpt><trkpt lat="44.3823154" lon="10.434676"><ele>564.0</ele><time>2026-04-04T10:22:34.94Z</time></trkpt><trkpt lat="44.3822249" lon="10.4345688"><ele>564.0</ele><time>2026-04-04T10:22:35.939Z</time></trkpt><trkpt lat="44.3821231" lon="10.4344525"><ele>564.0</ele><time>2026-04-04T10:22:36.94Z</time></trkpt><trkpt lat="44.3820253" lon="10.4343203"><ele>560.5</ele><time>2026-04-04T10:22:37.939Z</time></trkpt><trkpt lat="44.3819353" lon="10.4341786"><ele>557.0</ele><time>2026-04-04T10:22:38.94Z</time></trkpt><trkpt lat="44.3818374" lon="10.4340531"><ele>553.5</ele><time>2026-04-04T10:22:39.94Z</time></trkpt><trkpt lat="44.3817236" lon="10.433963"><ele>550.0</ele><time>2026-04-04T10:22:40.94Z</time></trkpt><trkpt lat="44.3816001" lon="10.4338942"><ele>550.0</ele><time>2026-04-04T10:22:41.939Z</time></trkpt><trkpt lat="44.3814718" lon="10.4338393"><ele>550.0</ele><time>2026-04-04T10:22:42.94Z</time></trkpt><trkpt lat="44.3813414" lon="10.4337869"><ele>550.0</ele><time>2026-04-04T10:22:43.939Z</time></trkpt><trkpt lat="44.3812107" lon="10.4337238"><ele>550.0</ele><time>2026-04-04T10:22:44.939Z</time></trkpt><trkpt lat="44.3810763" lon="10.4336588"><ele>548.0</ele><time>2026-04-04T10:22:45.94Z</time></trkpt><trkpt lat="44.3809374" lon="10.4336007"><ele>546.0</ele><time>2026-04-04T10:22:46.939Z</time></trkpt><trkpt lat="44.3808054" lon="10.4335397"><ele>544.0</ele><time>2026-04-04T10:22:47.939Z</time></trkpt><trkpt lat="44.3806756" lon="10.4334769"><ele>542.0</ele><time>2026-04-04T10:22:48.94Z</time></trkpt><trkpt lat="44.3805481" lon="10.4334056"><ele>538.25</ele><time>2026-04-04T10:22:49.94Z</time></trkpt><trkpt lat="44.3804237" lon="10.4333178"><ele>534.5</ele><time>2026-04-04T10:22:50.939Z</time></trkpt><trkpt lat="44.3803004" lon="10.4332265"><ele>530.75</ele><time>2026-04-04T10:22:51.939Z</time></trkpt><trkpt lat="44.3801825" lon="10.4331432"><ele>527.0</ele><time>2026-04-04T10:22:52.94Z</time></trkpt><trkpt lat="44.3800766" lon="10.4330654"><ele>527.0</ele><time>2026-04-04T10:22:53.94Z</time></trkpt><trkpt lat="44.3799804" lon="10.4329923"><ele>527.0</ele><time>2026-04-04T10:22:54.94Z</time></trkpt><trkpt lat="44.3799002" lon="10.4329328"><ele>527.0</ele><time>2026-04-04T10:22:55.939Z</time></trkpt><trkpt lat="44.3798317" lon="10.4328846"><ele>527.0</ele><time>2026-04-04T10:22:56.939Z</time></trkpt><trkpt lat="44.3797662" lon="10.4328559"><ele>527.0</ele><time>2026-04-04T10:22:57.939Z</time></trkpt><trkpt lat="44.3797013" lon="10.4328399"><ele>527.0</ele><time>2026-04-04T10:22:58.94Z</time></trkpt><trkpt lat="44.3796187" lon="10.4327938"><ele>525.4</ele><time>2026-04-04T10:23:00.94Z</time></trkpt><trkpt lat="44.3795176" lon="10.4326976"><ele>523.8000000000001</ele><time>2026-04-04T10:24:53.94Z</time></trkpt><trkpt lat="44.3794379" lon="10.4326453"><ele>522.2</ele><time>2026-04-04T10:24:54.94Z</time></trkpt><trkpt lat="44.3793472" lon="10.4325696"><ele>520.6</ele><time>2026-04-04T10:24:55.94Z</time></trkpt><trkpt lat="44.379239" lon="10.4324936"><ele>519.0</ele><time>2026-04-04T10:24:56.939Z</time></trkpt><trkpt lat="44.3791207" lon="10.4324148"><ele>519.0</ele><time>2026-04-04T10:24:57.94Z</time></trkpt><trkpt lat="44.3790206" lon="10.4323303"><ele>519.0</ele><time>2026-04-04T10:24:58.94Z</time></trkpt><trkpt lat="44.3789452" lon="10.4322314"><ele>519.0</ele><time>2026-04-04T10:24:59.94Z</time></trkpt><trkpt lat="44.378892" lon="10.432105"><ele>519.0</ele><time>2026-04-04T10:25:00.94Z</time></trkpt><trkpt lat="44.3788496" lon="10.4319489"><ele>519.0</ele><time>2026-04-04T10:25:01.94Z</time></trkpt><trkpt lat="44.3788103" lon="10.4317755"><ele>517.75</ele><time>2026-04-04T10:25:02.939Z</time></trkpt><trkpt lat="44.3787613" lon="10.4316101"><ele>516.5</ele><time>2026-04-04T10:25:03.94Z</time></trkpt><trkpt lat="44.3787207" lon="10.4314367"><ele>515.25</ele><time>2026-04-04T10:25:04.94Z</time></trkpt><trkpt lat="44.3787006" lon="10.4312736"><ele>514.0</ele><time>2026-04-04T10:25:05.939Z</time></trkpt><trkpt lat="44.3786714" lon="10.4311274"><ele>514.0</ele><time>2026-04-04T10:25:06.939Z</time></trkpt><trkpt lat="44.3786329" lon="10.4309961"><ele>514.0</ele><time>2026-04-04T10:25:07.94Z</time></trkpt><trkpt lat="44.3785677" lon="10.4309105"><ele>514.0</ele><time>2026-04-04T10:25:08.94Z</time></trkpt><trkpt lat="44.3785007" lon="10.4308607"><ele>514.0</ele><time>2026-04-04T10:25:09.939Z</time></trkpt><trkpt lat="44.3784012" lon="10.4308704"><ele>514.0</ele><time>2026-04-04T10:25:10.94Z</time></trkpt><trkpt lat="44.3782932" lon="10.430915"><ele>514.0</ele><time>2026-04-04T10:25:11.94Z</time></trkpt><trkpt lat="44.3781782" lon="10.4309882"><ele>514.0</ele><time>2026-04-04T10:25:12.94Z</time></trkpt><trkpt lat="44.3780627" lon="10.4310695"><ele>514.0</ele><time>2026-04-04T10:25:13.94Z</time></trkpt><trkpt lat="44.3779527" lon="10.4311464"><ele>514.0</ele><time>2026-04-04T10:25:14.94Z</time></trkpt><trkpt lat="44.3778431" lon="10.4312353"><ele>508.6</ele><time>2026-04-04T10:25:15.94Z</time></trkpt><trkpt lat="44.3777403" lon="10.4313227"><ele>503.2</ele><time>2026-04-04T10:25:16.939Z</time></trkpt><trkpt lat="44.3776369" lon="10.4313985"><ele>497.80000000000007</ele><time>2026-04-04T10:25:17.939Z</time></trkpt><trkpt lat="44.3775406" lon="10.4314401"><ele>492.40000000000003</ele><time>2026-04-04T10:25:18.939Z</time></trkpt><trkpt lat="44.3774561" lon="10.4314191"><ele>487.0</ele><time>2026-04-04T10:25:19.94Z</time></trkpt><trkpt lat="44.3773889" lon="10.4313666"><ele>487.0</ele><time>2026-04-04T10:25:20.94Z</time></trkpt><trkpt lat="44.3773124" lon="10.4313021"><ele>487.00000000000006</ele><time>2026-04-04T10:25:21.94Z</time></trkpt><trkpt lat="44.3772237" lon="10.4312306"><ele>487.00000000000006</ele><time>2026-04-04T10:25:22.94Z</time></trkpt><trkpt lat="44.3771259" lon="10.431166"><ele>487.0</ele><time>2026-04-04T10:25:23.94Z</time></trkpt><trkpt lat="44.3770151" lon="10.4311001"><ele>487.0</ele><time>2026-04-04T10:25:24.94Z</time></trkpt><trkpt lat="44.3769129" lon="10.431033"><ele>487.0</ele><time>2026-04-04T10:25:25.94Z</time></trkpt><trkpt lat="44.3768213" lon="10.4309388"><ele>487.00000000000006</ele><time>2026-04-04T10:25:26.939Z</time></trkpt><trkpt lat="44.3767386" lon="10.430837"><ele>487.00000000000006</ele><time>2026-04-04T10:25:27.94Z</time></trkpt><trkpt lat="44.376661" lon="10.4307758"><ele>487.0</ele><time>2026-04-04T10:25:28.94Z</time></trkpt><trkpt lat="44.3765781" lon="10.4307654"><ele>487.0</ele><time>2026-04-04T10:25:29.939Z</time></trkpt><trkpt lat="44.3764995" lon="10.4308286"><ele>487.0</ele><time>2026-04-04T10:25:30.94Z</time></trkpt><trkpt lat="44.3764346" lon="10.4309304"><ele>487.00000000000006</ele><time>2026-04-04T10:25:31.94Z</time></trkpt><trkpt lat="44.3763802" lon="10.4310466"><ele>487.00000000000006</ele><time>2026-04-04T10:25:32.94Z</time></trkpt><trkpt lat="44.3763339" lon="10.4311575"><ele>487.0</ele><time>2026-04-04T10:25:33.939Z</time></trkpt><trkpt lat="44.3762814" lon="10.4312734"><ele>487.0</ele><time>2026-04-04T10:25:34.94Z</time></trkpt><trkpt lat="44.3762295" lon="10.4313844"><ele>485.8</ele><time>2026-04-04T10:25:35.94Z</time></trkpt><trkpt lat="44.3761796" lon="10.4314914"><ele>484.6</ele><time>2026-04-04T10:25:36.94Z</time></trkpt><trkpt lat="44.3761308" lon="10.4315958"><ele>483.40000000000003</ele><time>2026-04-04T10:25:37.94Z</time></trkpt><trkpt lat="44.3760738" lon="10.431701"><ele>482.20000000000005</ele><time>2026-04-04T10:25:38.94Z</time></trkpt><trkpt lat="44.3760104" lon="10.4318015"><ele>481.0</ele><time>2026-04-04T10:25:39.939Z</time></trkpt><trkpt lat="44.3759373" lon="10.4318992"><ele>481.0</ele><time>2026-04-04T10:25:40.939Z</time></trkpt><trkpt lat="44.3758612" lon="10.4320071"><ele>481.0</ele><time>2026-04-04T10:25:41.94Z</time></trkpt><trkpt lat="44.3757793" lon="10.432127"><ele>481.0</ele><time>2026-04-04T10:25:42.94Z</time></trkpt><trkpt lat="44.3757057" lon="10.4322541"><ele>481.0</ele><time>2026-04-04T10:25:43.94Z</time></trkpt><trkpt lat="44.3756632" lon="10.4323916"><ele>481.4</ele><time>2026-04-04T10:25:44.94Z</time></trkpt><trkpt lat="44.3756543" lon="10.4325329"><ele>481.8</ele><time>2026-04-04T10:25:45.94Z</time></trkpt><trkpt lat="44.3757015" lon="10.4326571"><ele>482.19999999999993</ele><time>2026-04-04T10:25:46.939Z</time></trkpt><trkpt lat="44.3757835" lon="10.4327483"><ele>482.59999999999997</ele><time>2026-04-04T10:25:47.939Z</time></trkpt><trkpt lat="44.3758806" lon="10.4328234"><ele>483.0</ele><time>2026-04-04T10:25:48.94Z</time></trkpt><trkpt lat="44.3759751" lon="10.4329062"><ele>484.4</ele><time>2026-04-04T10:25:49.94Z</time></trkpt><trkpt lat="44.3760611" lon="10.4330091"><ele>485.79999999999995</ele><time>2026-04-04T10:25:50.94Z</time></trkpt><trkpt lat="44.3761408" lon="10.4331236"><ele>487.2</ele><time>2026-04-04T10:25:51.94Z</time></trkpt><trkpt lat="44.376222" lon="10.4332588"><ele>488.6</ele><time>2026-04-04T10:25:52.94Z</time></trkpt><trkpt lat="44.37622" lon="10.4333543"><ele>490.0</ele><time>2026-04-04T10:25:53.939Z</time></trkpt><trkpt lat="44.3761128" lon="10.4334111"><ele>490.0</ele><time>2026-04-04T10:25:55.939Z</time></trkpt><trkpt lat="44.3760333" lon="10.4333922"><ele>490.0</ele><time>2026-04-04T10:25:56.939Z</time></trkpt><trkpt lat="44.3759449" lon="10.4333655"><ele>490.0</ele><time>2026-04-04T10:25:57.94Z</time></trkpt><trkpt lat="44.3758508" lon="10.4333766"><ele>490.0</ele><time>2026-04-04T10:25:58.94Z</time></trkpt><trkpt lat="44.3757618" lon="10.4334411"><ele>490.0</ele><time>2026-04-04T10:25:59.94Z</time></trkpt><trkpt lat="44.3756964" lon="10.4335471"><ele>490.0</ele><time>2026-04-04T10:26:00.94Z</time></trkpt><trkpt lat="44.3756611" lon="10.4336953"><ele>490.0</ele><time>2026-04-04T10:26:01.939Z</time></trkpt><trkpt lat="44.3756619" lon="10.4338578"><ele>490.0</ele><time>2026-04-04T10:26:02.939Z</time></trkpt><trkpt lat="44.3757027" lon="10.4340061"><ele>490.0</ele><time>2026-04-04T10:26:03.94Z</time></trkpt><trkpt lat="44.3757689" lon="10.4341516"><ele>492.4</ele><time>2026-04-04T10:26:04.939Z</time></trkpt><trkpt lat="44.3758467" lon="10.4342726"><ele>494.8</ele><time>2026-04-04T10:26:05.94Z</time></trkpt><trkpt lat="44.3759345" lon="10.4343406"><ele>497.20000000000005</ele><time>2026-04-04T10:26:06.94Z</time></trkpt><trkpt lat="44.3760385" lon="10.4343599"><ele>499.6</ele><time>2026-04-04T10:26:07.94Z</time></trkpt><trkpt lat="44.3761444" lon="10.4343594"><ele>502.0</ele><time>2026-04-04T10:26:08.939Z</time></trkpt><trkpt lat="44.3762471" lon="10.4344029"><ele>502.0</ele><time>2026-04-04T10:26:09.94Z</time></trkpt><trkpt lat="44.3763228" lon="10.4344883"><ele>502.0</ele><time>2026-04-04T10:26:10.939Z</time></trkpt><trkpt lat="44.3763041" lon="10.4347233"><ele>502.0</ele><time>2026-04-04T10:26:12.939Z</time></trkpt><trkpt lat="44.3762816" lon="10.434867"><ele>502.0</ele><time>2026-04-04T10:26:13.939Z</time></trkpt><trkpt lat="44.3762569" lon="10.4350234"><ele>504.5</ele><time>2026-04-04T10:26:14.939Z</time></trkpt><trkpt lat="44.3762223" lon="10.4351866"><ele>507.0</ele><time>2026-04-04T10:26:15.939Z</time></trkpt><trkpt lat="44.3761718" lon="10.4353341"><ele>509.5</ele><time>2026-04-04T10:26:16.939Z</time></trkpt><trkpt lat="44.3761231" lon="10.4354951"><ele>512.0</ele><time>2026-04-04T10:26:17.939Z</time></trkpt><trkpt lat="44.3760666" lon="10.435662"><ele>513.25</ele><time>2026-04-04T10:26:18.939Z</time></trkpt><trkpt lat="44.3760085" lon="10.4358411"><ele>514.5</ele><time>2026-04-04T10:26:19.939Z</time></trkpt><trkpt lat="44.3759493" lon="10.4360159"><ele>515.75</ele><time>2026-04-04T10:26:20.94Z</time></trkpt><trkpt lat="44.3759" lon="10.4362196"><ele>517.0</ele><time>2026-04-04T10:26:21.939Z</time></trkpt><trkpt lat="44.3758798" lon="10.4364422"><ele>518.6666666666667</ele><time>2026-04-04T10:26:22.939Z</time></trkpt><trkpt lat="44.3758865" lon="10.4366754"><ele>520.3333333333334</ele><time>2026-04-04T10:26:23.939Z</time></trkpt><trkpt lat="44.3758632" lon="10.436903"><ele>522.0</ele><time>2026-04-04T10:26:24.94Z</time></trkpt><trkpt lat="44.3758107" lon="10.4371363"><ele>524.6666666666666</ele><time>2026-04-04T10:26:25.939Z</time></trkpt><trkpt lat="44.3757798" lon="10.4374125"><ele>527.3333333333333</ele><time>2026-04-04T10:26:26.94Z</time></trkpt><trkpt lat="44.3757189" lon="10.4376503"><ele>530.0</ele><time>2026-04-04T10:26:27.94Z</time></trkpt><trkpt lat="44.3756616" lon="10.4378725"><ele>531.75</ele><time>2026-04-04T10:26:28.939Z</time></trkpt><trkpt lat="44.3756426" lon="10.4380864"><ele>533.5</ele><time>2026-04-04T10:26:29.94Z</time></trkpt><trkpt lat="44.3756381" lon="10.4382672"><ele>535.25</ele><time>2026-04-04T10:26:30.94Z</time></trkpt><trkpt lat="44.3756105" lon="10.4384324"><ele>537.0</ele><time>2026-04-04T10:26:31.939Z</time></trkpt><trkpt lat="44.3755449" lon="10.4385745"><ele>540.5</ele><time>2026-04-04T10:26:32.94Z</time></trkpt><trkpt lat="44.375455" lon="10.4387031"><ele>544.0</ele><time>2026-04-04T10:26:33.94Z</time></trkpt><trkpt lat="44.3753609" lon="10.4388162"><ele>547.5</ele><time>2026-04-04T10:26:34.94Z</time></trkpt><trkpt lat="44.3752823" lon="10.4389349"><ele>551.0</ele><time>2026-04-04T10:26:35.94Z</time></trkpt><trkpt lat="44.3752488" lon="10.439074"><ele>551.8</ele><time>2026-04-04T10:26:36.94Z</time></trkpt><trkpt lat="44.3752645" lon="10.4392115"><ele>552.6</ele><time>2026-04-04T10:26:37.939Z</time></trkpt><trkpt lat="44.3753206" lon="10.4393151"><ele>553.4</ele><time>2026-04-04T10:26:38.939Z</time></trkpt><trkpt lat="44.3754032" lon="10.4394102"><ele>554.2</ele><time>2026-04-04T10:26:39.94Z</time></trkpt><trkpt lat="44.3754917" lon="10.439516"><ele>555.0</ele><time>2026-04-04T10:26:40.939Z</time></trkpt><trkpt lat="44.3755657" lon="10.4396474"><ele>556.0</ele><time>2026-04-04T10:26:41.94Z</time></trkpt><trkpt lat="44.3756415" lon="10.4397759"><ele>557.0</ele><time>2026-04-04T10:26:42.939Z</time></trkpt><trkpt lat="44.375729" lon="10.4398943"><ele>558.0</ele><time>2026-04-04T10:26:43.94Z</time></trkpt><trkpt lat="44.3758457" lon="10.439966"><ele>559.0</ele><time>2026-04-04T10:26:44.94Z</time></trkpt><trkpt lat="44.3759754" lon="10.4400001"><ele>559.0</ele><time>2026-04-04T10:26:45.94Z</time></trkpt><trkpt lat="44.3761179" lon="10.4400119"><ele>559.0</ele><time>2026-04-04T10:26:46.94Z</time></trkpt><trkpt lat="44.3762443" lon="10.4400107"><ele>559.0</ele><time>2026-04-04T10:26:47.94Z</time></trkpt><trkpt lat="44.3763406" lon="10.4400366"><ele>559.0</ele><time>2026-04-04T10:26:48.94Z</time></trkpt><trkpt lat="44.3764008" lon="10.4401108"><ele>559.0</ele><time>2026-04-04T10:26:49.939Z</time></trkpt><trkpt lat="44.3764364" lon="10.4402336"><ele>559.0</ele><time>2026-04-04T10:26:50.94Z</time></trkpt><trkpt lat="44.3764649" lon="10.4403544"><ele>559.0</ele><time>2026-04-04T10:26:51.939Z</time></trkpt><trkpt lat="44.3765041" lon="10.4404747"><ele>559.0</ele><time>2026-04-04T10:26:52.94Z</time></trkpt><trkpt lat="44.3765483" lon="10.4405897"><ele>559.0</ele><time>2026-04-04T10:26:53.94Z</time></trkpt><trkpt lat="44.3766006" lon="10.4406995"><ele>559.0</ele><time>2026-04-04T10:26:54.94Z</time></trkpt><trkpt lat="44.3766442" lon="10.4408138"><ele>561.0</ele><time>2026-04-04T10:26:55.939Z</time></trkpt><trkpt lat="44.3766657" lon="10.4409419"><ele>563.0</ele><time>2026-04-04T10:26:56.94Z</time></trkpt><trkpt lat="44.3766582" lon="10.44107"><ele>565.0</ele><time>2026-04-04T10:26:57.94Z</time></trkpt><trkpt lat="44.376629" lon="10.4411968"><ele>567.0</ele><time>2026-04-04T10:26:58.94Z</time></trkpt><trkpt lat="44.3765939" lon="10.441311"><ele>569.0</ele><time>2026-04-04T10:26:59.94Z</time></trkpt><trkpt lat="44.376579" lon="10.4414483"><ele>569.4</ele><time>2026-04-04T10:27:00.939Z</time></trkpt><trkpt lat="44.3765884" lon="10.4415752"><ele>569.8</ele><time>2026-04-04T10:27:01.94Z</time></trkpt><trkpt lat="44.376591" lon="10.4416925"><ele>570.2</ele><time>2026-04-04T10:27:02.94Z</time></trkpt><trkpt lat="44.376556" lon="10.4418031"><ele>570.6</ele><time>2026-04-04T10:27:03.938Z</time></trkpt><trkpt lat="44.3764833" lon="10.441885"><ele>571.0</ele><time>2026-04-04T10:27:04.939Z</time></trkpt><trkpt lat="44.3763893" lon="10.4419227"><ele>574.0</ele><time>2026-04-04T10:27:05.938Z</time></trkpt><trkpt lat="44.3762866" lon="10.4419385"><ele>577.0</ele><time>2026-04-04T10:27:06.939Z</time></trkpt><trkpt lat="44.3761857" lon="10.4419616"><ele>580.0</ele><time>2026-04-04T10:27:07.939Z</time></trkpt><trkpt lat="44.3760937" lon="10.4420142"><ele>583.0</ele><time>2026-04-04T10:27:08.939Z</time></trkpt><trkpt lat="44.3760036" lon="10.4421171"><ele>586.0</ele><time>2026-04-04T10:27:09.938Z</time></trkpt><trkpt lat="44.3759259" lon="10.4422376"><ele>586.0</ele><time>2026-04-04T10:27:10.938Z</time></trkpt><trkpt lat="44.3758483" lon="10.4423556"><ele>586.0</ele><time>2026-04-04T10:27:11.939Z</time></trkpt><trkpt lat="44.3757609" lon="10.4424517"><ele>586.0</ele><time>2026-04-04T10:27:12.939Z</time></trkpt><trkpt lat="44.3756621" lon="10.4425377"><ele>586.0</ele><time>2026-04-04T10:27:13.939Z</time></trkpt><trkpt lat="44.3755674" lon="10.4426221"><ele>586.4</ele><time>2026-04-04T10:27:14.939Z</time></trkpt><trkpt lat="44.3754998" lon="10.4427261"><ele>586.8</ele><time>2026-04-04T10:27:15.939Z</time></trkpt><trkpt lat="44.3754643" lon="10.4428597"><ele>587.1999999999999</ele><time>2026-04-04T10:27:16.938Z</time></trkpt><trkpt lat="44.3754684" lon="10.4430086"><ele>587.6</ele><time>2026-04-04T10:27:17.939Z</time></trkpt><trkpt lat="44.375519" lon="10.4431543"><ele>588.0</ele><time>2026-04-04T10:27:18.939Z</time></trkpt><trkpt lat="44.3755889" lon="10.4432665"><ele>588.0</ele><time>2026-04-04T10:27:19.939Z</time></trkpt><trkpt lat="44.3756283" lon="10.4433852"><ele>588.0</ele><time>2026-04-04T10:27:20.938Z</time></trkpt><trkpt lat="44.3756341" lon="10.4435036"><ele>588.0</ele><time>2026-04-04T10:27:21.939Z</time></trkpt><trkpt lat="44.3755871" lon="10.4436237"><ele>588.0</ele><time>2026-04-04T10:27:22.939Z</time></trkpt><trkpt lat="44.3755374" lon="10.4437468"><ele>588.0</ele><time>2026-04-04T10:27:23.939Z</time></trkpt><trkpt lat="44.3755287" lon="10.4438831"><ele>589.1999999999999</ele><time>2026-04-04T10:27:24.939Z</time></trkpt><trkpt lat="44.375568" lon="10.4440061"><ele>590.4</ele><time>2026-04-04T10:27:25.938Z</time></trkpt><trkpt lat="44.3756334" lon="10.4441184"><ele>591.5999999999999</ele><time>2026-04-04T10:27:26.939Z</time></trkpt><trkpt lat="44.3757097" lon="10.444233"><ele>592.8</ele><time>2026-04-04T10:27:27.939Z</time></trkpt><trkpt lat="44.3757574" lon="10.4443706"><ele>594.0</ele><time>2026-04-04T10:27:28.938Z</time></trkpt><trkpt lat="44.3757868" lon="10.4445258"><ele>594.75</ele><time>2026-04-04T10:27:29.938Z</time></trkpt><trkpt lat="44.375798" lon="10.4446907"><ele>595.5</ele><time>2026-04-04T10:27:30.938Z</time></trkpt><trkpt lat="44.3758172" lon="10.4448614"><ele>596.25</ele><time>2026-04-04T10:27:31.938Z</time></trkpt><trkpt lat="44.3758473" lon="10.4450358"><ele>597.0</ele><time>2026-04-04T10:27:32.939Z</time></trkpt><trkpt lat="44.3758871" lon="10.4452086"><ele>597.0</ele><time>2026-04-04T10:27:33.939Z</time></trkpt><trkpt lat="44.3759394" lon="10.4453738"><ele>597.0</ele><time>2026-04-04T10:27:34.939Z</time></trkpt><trkpt lat="44.3759945" lon="10.445539"><ele>597.0</ele><time>2026-04-04T10:27:35.938Z</time></trkpt><trkpt lat="44.3760337" lon="10.4457057"><ele>597.0</ele><time>2026-04-04T10:27:36.939Z</time></trkpt><trkpt lat="44.3760457" lon="10.4458693"><ele>599.0</ele><time>2026-04-04T10:27:37.939Z</time></trkpt><trkpt lat="44.3760388" lon="10.4460164"><ele>601.0</ele><time>2026-04-04T10:27:38.938Z</time></trkpt><trkpt lat="44.3760497" lon="10.4461664"><ele>603.0</ele><time>2026-04-04T10:27:39.939Z</time></trkpt><trkpt lat="44.3760907" lon="10.446299"><ele>605.0</ele><time>2026-04-04T10:27:40.939Z</time></trkpt><trkpt lat="44.3761635" lon="10.4464066"><ele>607.0</ele><time>2026-04-04T10:27:41.939Z</time></trkpt><trkpt lat="44.376263" lon="10.4464922"><ele>605.4</ele><time>2026-04-04T10:27:42.939Z</time></trkpt><trkpt lat="44.3763557" lon="10.4465627"><ele>603.8000000000001</ele><time>2026-04-04T10:27:43.939Z</time></trkpt><trkpt lat="44.3764217" lon="10.4466431"><ele>602.2</ele><time>2026-04-04T10:27:44.939Z</time></trkpt><trkpt lat="44.3764737" lon="10.4467449"><ele>600.6</ele><time>2026-04-04T10:27:45.939Z</time></trkpt><trkpt lat="44.376505" lon="10.4468834"><ele>599.0</ele><time>2026-04-04T10:27:46.939Z</time></trkpt><trkpt lat="44.3765046" lon="10.4470309"><ele>599.75</ele><time>2026-04-04T10:27:47.939Z</time></trkpt><trkpt lat="44.376491" lon="10.4471825"><ele>600.5</ele><time>2026-04-04T10:27:48.939Z</time></trkpt><trkpt lat="44.3764657" lon="10.4473404"><ele>601.25</ele><time>2026-04-04T10:27:49.939Z</time></trkpt><trkpt lat="44.3764332" lon="10.4475027"><ele>602.0</ele><time>2026-04-04T10:27:50.938Z</time></trkpt><trkpt lat="44.3764019" lon="10.4476673"><ele>602.0</ele><time>2026-04-04T10:27:51.938Z</time></trkpt><trkpt lat="44.3763717" lon="10.447829"><ele>602.0</ele><time>2026-04-04T10:27:52.939Z</time></trkpt><trkpt lat="44.3763505" lon="10.4479997"><ele>602.0</ele><time>2026-04-04T10:27:53.938Z</time></trkpt><trkpt lat="44.3763506" lon="10.4481832"><ele>602.0</ele><time>2026-04-04T10:27:54.939Z</time></trkpt><trkpt lat="44.3763701" lon="10.4483553"><ele>601.75</ele><time>2026-04-04T10:27:55.938Z</time></trkpt><trkpt lat="44.376387" lon="10.4485336"><ele>601.5</ele><time>2026-04-04T10:27:56.939Z</time></trkpt><trkpt lat="44.3763851" lon="10.4487036"><ele>601.25</ele><time>2026-04-04T10:27:57.938Z</time></trkpt><trkpt lat="44.3763631" lon="10.4488612"><ele>601.0</ele><time>2026-04-04T10:27:58.939Z</time></trkpt><trkpt lat="44.3763551" lon="10.4490112"><ele>601.6</ele><time>2026-04-04T10:27:59.939Z</time></trkpt><trkpt lat="44.3763925" lon="10.4491487"><ele>602.2</ele><time>2026-04-04T10:28:00.939Z</time></trkpt><trkpt lat="44.3764403" lon="10.4492796"><ele>602.8</ele><time>2026-04-04T10:28:01.939Z</time></trkpt><trkpt lat="44.3764761" lon="10.4494082"><ele>603.4</ele><time>2026-04-04T10:28:02.939Z</time></trkpt><trkpt lat="44.3764902" lon="10.4495391"><ele>604.0</ele><time>2026-04-04T10:28:03.939Z</time></trkpt><trkpt lat="44.3765038" lon="10.4496821"><ele>606.2</ele><time>2026-04-04T10:28:04.939Z</time></trkpt><trkpt lat="44.3765201" lon="10.4498297"><ele>608.4</ele><time>2026-04-04T10:28:05.938Z</time></trkpt><trkpt lat="44.3765571" lon="10.4499718"><ele>610.6</ele><time>2026-04-04T10:28:06.938Z</time></trkpt><trkpt lat="44.3766182" lon="10.4501034"><ele>612.8</ele><time>2026-04-04T10:28:07.939Z</time></trkpt><trkpt lat="44.3766895" lon="10.4502253"><ele>615.0</ele><time>2026-04-04T10:28:08.939Z</time></trkpt><trkpt lat="44.3767639" lon="10.4503441"><ele>617.0</ele><time>2026-04-04T10:28:09.939Z</time></trkpt><trkpt lat="44.3768299" lon="10.4504601"><ele>619.0</ele><time>2026-04-04T10:28:10.938Z</time></trkpt><trkpt lat="44.3768955" lon="10.4505742"><ele>621.0</ele><time>2026-04-04T10:28:11.939Z</time></trkpt><trkpt lat="44.3769614" lon="10.4506915"><ele>623.0</ele><time>2026-04-04T10:28:12.939Z</time></trkpt><trkpt lat="44.3770197" lon="10.4508132"><ele>625.0</ele><time>2026-04-04T10:28:13.938Z</time></trkpt><trkpt lat="44.3770593" lon="10.4509465"><ele>625.0</ele><time>2026-04-04T10:28:14.938Z</time></trkpt><trkpt lat="44.3770737" lon="10.4510921"><ele>625.0</ele><time>2026-04-04T10:28:15.939Z</time></trkpt><trkpt lat="44.37708" lon="10.4512414"><ele>625.0</ele><time>2026-04-04T10:28:16.939Z</time></trkpt><trkpt lat="44.3770973" lon="10.4513941"><ele>625.0</ele><time>2026-04-04T10:28:17.938Z</time></trkpt><trkpt lat="44.3771326" lon="10.4515402"><ele>625.0</ele><time>2026-04-04T10:28:18.939Z</time></trkpt><trkpt lat="44.3771738" lon="10.4516699"><ele>625.3333333333334</ele><time>2026-04-04T10:28:19.938Z</time></trkpt><trkpt lat="44.3772176" lon="10.4517832"><ele>625.6666666666667</ele><time>2026-04-04T10:28:20.939Z</time></trkpt><trkpt lat="44.3772556" lon="10.4518823"><ele>626.0</ele><time>2026-04-04T10:28:21.939Z</time></trkpt><trkpt lat="44.377279" lon="10.4519671"><ele>626.3333333333334</ele><time>2026-04-04T10:28:22.939Z</time></trkpt><trkpt lat="44.3773024" lon="10.4520526"><ele>626.6666666666666</ele><time>2026-04-04T10:28:24.939Z</time></trkpt><trkpt lat="44.3773181" lon="10.4521767"><ele>627.0</ele><time>2026-04-04T10:28:26.939Z</time></trkpt><trkpt lat="44.3773442" lon="10.4522809"><ele>627.0</ele><time>2026-04-04T10:28:28.939Z</time></trkpt><trkpt lat="44.3773499" lon="10.452369"><ele>627.0</ele><time>2026-04-04T10:28:31.939Z</time></trkpt></trkseg></trk></gpx>